<?xml version='1.0' encoding='UTF-8'?><gpx version="1.1" creator="JPX - https://github.com/jenetics/jpx" xmlns="http://www.topografix.com/GPX/1/1"><trk><trkseg><trkpt lat="44.2814681" lon="11.1117176"><ele>194.0</ele><time>2026-05-02T12:40:51.752Z</time></trkpt><trkpt lat="44.2815389" lon="11.1116786"><ele>194.0</ele><time>2026-05-02T12:40:55.755Z</time></trkpt><trkpt lat="44.2815276" lon="11.1115477"><ele>194.0</ele><time>2026-05-02T12:40:57.769Z</time></trkpt><trkpt lat="44.2814965" lon="11.1113907"><ele>194.0</ele><time>2026-05-02T12:40:59.751Z</time></trkpt><trkpt lat="44.2814214" lon="11.1112593"><ele>194.0</ele><time>2026-05-02T12:41:01.758Z</time></trkpt><trkpt lat="44.2813278" lon="11.1111445"><ele>195.2</ele><time>2026-05-02T12:41:03.757Z</time></trkpt><trkpt lat="44.2812245" lon="11.1110511"><ele>196.39999999999998</ele><time>2026-05-02T12:41:05.766Z</time></trkpt><trkpt lat="44.281166" lon="11.1110041"><ele>197.6</ele><time>2026-05-02T12:41:06.75Z</time></trkpt><trkpt lat="44.2810726" lon="11.1109063"><ele>198.8</ele><time>2026-05-02T12:41:08.771Z</time></trkpt><trkpt lat="44.2809902" lon="11.1107945"><ele>200.0</ele><time>2026-05-02T12:41:10.776Z</time></trkpt><trkpt lat="44.2809718" lon="11.1107044"><ele>201.8</ele><time>2026-05-02T12:41:11.751Z</time></trkpt><trkpt lat="44.2809691" lon="11.1105575"><ele>203.6</ele><time>2026-05-02T12:41:13.758Z</time></trkpt><trkpt lat="44.2809933" lon="11.1104612"><ele>205.39999999999998</ele><time>2026-05-02T12:41:15.752Z</time></trkpt><trkpt lat="44.2809656" lon="11.1103435"><ele>207.2</ele><time>2026-05-02T12:42:19.766Z</time></trkpt><trkpt lat="44.2808617" lon="11.1102963"><ele>209.0</ele><time>2026-05-02T12:42:21.76Z</time></trkpt><trkpt lat="44.2807496" lon="11.1102748"><ele>209.0</ele><time>2026-05-02T12:42:23.764Z</time></trkpt><trkpt lat="44.2806661" lon="11.1102544"><ele>209.0</ele><time>2026-05-02T12:42:25.759Z</time></trkpt><trkpt lat="44.2805521" lon="11.1102172"><ele>209.0</ele><time>2026-05-02T12:42:41.755Z</time></trkpt><trkpt lat="44.2804819" lon="11.1102257"><ele>209.0</ele><time>2026-05-02T12:42:42.753Z</time></trkpt><trkpt lat="44.280383" lon="11.1102347"><ele>209.0</ele><time>2026-05-02T12:42:43.754Z</time></trkpt><trkpt lat="44.2802951" lon="11.1102186"><ele>208.6</ele><time>2026-05-02T12:42:44.754Z</time></trkpt><trkpt lat="44.280192" lon="11.1102321"><ele>208.2</ele><time>2026-05-02T12:42:45.754Z</time></trkpt><trkpt lat="44.2800804" lon="11.1102398"><ele>207.79999999999998</ele><time>2026-05-02T12:42:46.754Z</time></trkpt><trkpt lat="44.2799725" lon="11.1102236"><ele>207.39999999999998</ele><time>2026-05-02T12:42:47.755Z</time></trkpt><trkpt lat="44.2798628" lon="11.1102298"><ele>207.0</ele><time>2026-05-02T12:42:48.753Z</time></trkpt><trkpt lat="44.2797444" lon="11.1102413"><ele>205.75</ele><time>2026-05-02T12:42:49.753Z</time></trkpt><trkpt lat="44.2796197" lon="11.1102533"><ele>204.5</ele><time>2026-05-02T12:42:50.755Z</time></trkpt><trkpt lat="44.2794852" lon="11.1102754"><ele>203.25</ele><time>2026-05-02T12:42:51.755Z</time></trkpt><trkpt lat="44.2793524" lon="11.1103007"><ele>202.0</ele><time>2026-05-02T12:42:52.772Z</time></trkpt><trkpt lat="44.2792175" lon="11.1103248"><ele>202.0</ele><time>2026-05-02T12:42:53.763Z</time></trkpt><trkpt lat="44.2790767" lon="11.1103401"><ele>202.0</ele><time>2026-05-02T12:42:54.755Z</time></trkpt><trkpt lat="44.2789432" lon="11.1103804"><ele>202.0</ele><time>2026-05-02T12:42:55.756Z</time></trkpt><trkpt lat="44.2788108" lon="11.1104319"><ele>202.0</ele><time>2026-05-02T12:42:56.758Z</time></trkpt><trkpt lat="44.2786789" lon="11.1104929"><ele>201.5</ele><time>2026-05-02T12:42:57.753Z</time></trkpt><trkpt lat="44.2785415" lon="11.1105483"><ele>201.0</ele><time>2026-05-02T12:42:58.756Z</time></trkpt><trkpt lat="44.2784058" lon="11.110616"><ele>200.5</ele><time>2026-05-02T12:42:59.763Z</time></trkpt><trkpt lat="44.2782728" lon="11.1106823"><ele>200.0</ele><time>2026-05-02T12:43:00.754Z</time></trkpt><trkpt lat="44.2781305" lon="11.1107568"><ele>197.66666666666669</ele><time>2026-05-02T12:43:01.757Z</time></trkpt><trkpt lat="44.2779807" lon="11.1108382"><ele>195.33333333333331</ele><time>2026-05-02T12:43:02.752Z</time></trkpt><trkpt lat="44.277839" lon="11.1109211"><ele>193.0</ele><time>2026-05-02T12:43:03.753Z</time></trkpt><trkpt lat="44.2776969" lon="11.1109947"><ele>193.0</ele><time>2026-05-02T12:43:04.756Z</time></trkpt><trkpt lat="44.2775522" lon="11.1110737"><ele>193.0</ele><time>2026-05-02T12:43:05.756Z</time></trkpt><trkpt lat="44.2774102" lon="11.1111513"><ele>193.0</ele><time>2026-05-02T12:43:06.762Z</time></trkpt><trkpt lat="44.2772679" lon="11.1112202"><ele>193.25</ele><time>2026-05-02T12:43:07.756Z</time></trkpt><trkpt lat="44.2771284" lon="11.1112857"><ele>193.5</ele><time>2026-05-02T12:43:08.763Z</time></trkpt><trkpt lat="44.276994" lon="11.111337"><ele>193.75</ele><time>2026-05-02T12:43:09.754Z</time></trkpt><trkpt lat="44.2768581" lon="11.1114219"><ele>194.0</ele><time>2026-05-02T12:43:10.76Z</time></trkpt><trkpt lat="44.2767244" lon="11.11149"><ele>194.0</ele><time>2026-05-02T12:43:11.762Z</time></trkpt><trkpt lat="44.2765881" lon="11.1115652"><ele>194.0</ele><time>2026-05-02T12:43:12.754Z</time></trkpt><trkpt lat="44.2764567" lon="11.111639"><ele>194.0</ele><time>2026-05-02T12:43:13.756Z</time></trkpt><trkpt lat="44.2763255" lon="11.1117144"><ele>194.0</ele><time>2026-05-02T12:43:14.752Z</time></trkpt><trkpt lat="44.2761886" lon="11.1117781"><ele>194.0</ele><time>2026-05-02T12:43:15.76Z</time></trkpt><trkpt lat="44.2760506" lon="11.1118389"><ele>194.0</ele><time>2026-05-02T12:43:16.752Z</time></trkpt><trkpt lat="44.2759109" lon="11.1118895"><ele>194.0</ele><time>2026-05-02T12:43:17.758Z</time></trkpt><trkpt lat="44.275771" lon="11.1119444"><ele>194.0</ele><time>2026-05-02T12:43:18.756Z</time></trkpt><trkpt lat="44.2756206" lon="11.111993"><ele>194.33333333333334</ele><time>2026-05-02T12:43:19.752Z</time></trkpt><trkpt lat="44.2754575" lon="11.1120431"><ele>194.66666666666669</ele><time>2026-05-02T12:43:20.762Z</time></trkpt><trkpt lat="44.2752948" lon="11.1120812"><ele>195.0</ele><time>2026-05-02T12:43:21.754Z</time></trkpt><trkpt lat="44.27513" lon="11.1121094"><ele>195.0</ele><time>2026-05-02T12:43:22.759Z</time></trkpt><trkpt lat="44.2749583" lon="11.1121348"><ele>195.0</ele><time>2026-05-02T12:43:23.752Z</time></trkpt><trkpt lat="44.2747808" lon="11.112144"><ele>195.0</ele><time>2026-05-02T12:43:24.763Z</time></trkpt><trkpt lat="44.2746117" lon="11.1121519"><ele>194.66666666666669</ele><time>2026-05-02T12:43:25.753Z</time></trkpt><trkpt lat="44.2744398" lon="11.1121489"><ele>194.33333333333334</ele><time>2026-05-02T12:43:26.755Z</time></trkpt><trkpt lat="44.2742611" lon="11.112146"><ele>194.0</ele><time>2026-05-02T12:43:27.763Z</time></trkpt><trkpt lat="44.2740807" lon="11.1121326"><ele>194.33333333333334</ele><time>2026-05-02T12:43:28.755Z</time></trkpt><trkpt lat="44.2738996" lon="11.1121062"><ele>194.66666666666669</ele><time>2026-05-02T12:43:29.754Z</time></trkpt><trkpt lat="44.2737187" lon="11.1120813"><ele>195.0</ele><time>2026-05-02T12:43:30.753Z</time></trkpt><trkpt lat="44.2735306" lon="11.1120551"><ele>195.0</ele><time>2026-05-02T12:43:31.755Z</time></trkpt><trkpt lat="44.2733444" lon="11.112015"><ele>195.0</ele><time>2026-05-02T12:43:32.755Z</time></trkpt><trkpt lat="44.2731561" lon="11.1119703"><ele>195.0</ele><time>2026-05-02T12:43:33.753Z</time></trkpt><trkpt lat="44.2729665" lon="11.1119311"><ele>195.33333333333331</ele><time>2026-05-02T12:43:34.761Z</time></trkpt><trkpt lat="44.2727795" lon="11.1118903"><ele>195.66666666666666</ele><time>2026-05-02T12:43:35.761Z</time></trkpt><trkpt lat="44.2725898" lon="11.1118495"><ele>196.0</ele><time>2026-05-02T12:43:36.761Z</time></trkpt><trkpt lat="44.2723952" lon="11.1118124"><ele>196.0</ele><time>2026-05-02T12:43:37.757Z</time></trkpt><trkpt lat="44.2722078" lon="11.1117698"><ele>196.0</ele><time>2026-05-02T12:43:38.757Z</time></trkpt><trkpt lat="44.2720137" lon="11.1117332"><ele>196.0</ele><time>2026-05-02T12:43:39.752Z</time></trkpt><trkpt lat="44.2718243" lon="11.1116924"><ele>196.0</ele><time>2026-05-02T12:43:40.829Z</time></trkpt><trkpt lat="44.271634" lon="11.1116518"><ele>196.0</ele><time>2026-05-02T12:43:41.755Z</time></trkpt><trkpt lat="44.2714448" lon="11.1116127"><ele>196.0</ele><time>2026-05-02T12:43:42.752Z</time></trkpt><trkpt lat="44.2712578" lon="11.1115671"><ele>196.0</ele><time>2026-05-02T12:43:43.753Z</time></trkpt><trkpt lat="44.2710668" lon="11.1115195"><ele>196.0</ele><time>2026-05-02T12:43:44.757Z</time></trkpt><trkpt lat="44.270885" lon="11.1114415"><ele>196.0</ele><time>2026-05-02T12:43:45.76Z</time></trkpt><trkpt lat="44.2706952" lon="11.1114047"><ele>196.33333333333331</ele><time>2026-05-02T12:43:46.753Z</time></trkpt><trkpt lat="44.2705091" lon="11.1113628"><ele>196.66666666666669</ele><time>2026-05-02T12:43:47.756Z</time></trkpt><trkpt lat="44.2703188" lon="11.1113163"><ele>197.0</ele><time>2026-05-02T12:43:48.753Z</time></trkpt><trkpt lat="44.2701257" lon="11.1112865"><ele>197.0</ele><time>2026-05-02T12:43:49.753Z</time></trkpt><trkpt lat="44.2699447" lon="11.1112406"><ele>197.0</ele><time>2026-05-02T12:43:50.753Z</time></trkpt><trkpt lat="44.269751" lon="11.1112057"><ele>197.0</ele><time>2026-05-02T12:43:51.76Z</time></trkpt><trkpt lat="44.2695524" lon="11.1111775"><ele>197.0</ele><time>2026-05-02T12:43:52.764Z</time></trkpt><trkpt lat="44.2693588" lon="11.1111492"><ele>197.0</ele><time>2026-05-02T12:43:53.757Z</time></trkpt><trkpt lat="44.2691769" lon="11.1110471"><ele>197.0</ele><time>2026-05-02T12:43:54.765Z</time></trkpt><trkpt lat="44.2689858" lon="11.1110031"><ele>198.0</ele><time>2026-05-02T12:43:55.755Z</time></trkpt><trkpt lat="44.268804" lon="11.1109332"><ele>199.0</ele><time>2026-05-02T12:43:56.771Z</time></trkpt><trkpt lat="44.2686065" lon="11.1108955"><ele>200.0</ele><time>2026-05-02T12:43:57.75Z</time></trkpt><trkpt lat="44.2684173" lon="11.1108503"><ele>200.0</ele><time>2026-05-02T12:43:58.762Z</time></trkpt><trkpt lat="44.2682268" lon="11.1108043"><ele>200.0</ele><time>2026-05-02T12:43:59.761Z</time></trkpt><trkpt lat="44.2680266" lon="11.1107564"><ele>200.0</ele><time>2026-05-02T12:44:00.757Z</time></trkpt><trkpt lat="44.2678316" lon="11.1107249"><ele>202.66666666666669</ele><time>2026-05-02T12:44:01.759Z</time></trkpt><trkpt lat="44.2676447" lon="11.1106895"><ele>205.33333333333331</ele><time>2026-05-02T12:44:02.755Z</time></trkpt><trkpt lat="44.2674604" lon="11.11064"><ele>208.0</ele><time>2026-05-02T12:44:03.753Z</time></trkpt><trkpt lat="44.2672764" lon="11.1105881"><ele>208.0</ele><time>2026-05-02T12:44:04.753Z</time></trkpt><trkpt lat="44.2670871" lon="11.1105379"><ele>208.0</ele><time>2026-05-02T12:44:05.754Z</time></trkpt><trkpt lat="44.2669017" lon="11.1104776"><ele>208.0</ele><time>2026-05-02T12:44:06.76Z</time></trkpt><trkpt lat="44.2667186" lon="11.1104046"><ele>208.0</ele><time>2026-05-02T12:44:07.754Z</time></trkpt><trkpt lat="44.2665375" lon="11.1103336"><ele>208.0</ele><time>2026-05-02T12:44:08.752Z</time></trkpt><trkpt lat="44.2663608" lon="11.1102568"><ele>208.0</ele><time>2026-05-02T12:44:09.754Z</time></trkpt><trkpt lat="44.2661772" lon="11.1101749"><ele>206.66666666666666</ele><time>2026-05-02T12:44:10.752Z</time></trkpt><trkpt lat="44.2659984" lon="11.1100789"><ele>205.33333333333331</ele><time>2026-05-02T12:44:11.761Z</time></trkpt><trkpt lat="44.2658153" lon="11.1099892"><ele>204.0</ele><time>2026-05-02T12:44:12.752Z</time></trkpt><trkpt lat="44.2656279" lon="11.1098829"><ele>204.0</ele><time>2026-05-02T12:44:13.753Z</time></trkpt><trkpt lat="44.2654553" lon="11.1097896"><ele>204.0</ele><time>2026-05-02T12:44:14.761Z</time></trkpt><trkpt lat="44.2652878" lon="11.109689"><ele>204.0</ele><time>2026-05-02T12:44:15.755Z</time></trkpt><trkpt lat="44.2651169" lon="11.1095794"><ele>204.0</ele><time>2026-05-02T12:44:16.754Z</time></trkpt><trkpt lat="44.2649445" lon="11.1094665"><ele>204.0</ele><time>2026-05-02T12:44:17.76Z</time></trkpt><trkpt lat="44.2647729" lon="11.1093478"><ele>204.0</ele><time>2026-05-02T12:44:18.76Z</time></trkpt><trkpt lat="44.264605" lon="11.1092266"><ele>203.33333333333331</ele><time>2026-05-02T12:44:19.76Z</time></trkpt><trkpt lat="44.2644337" lon="11.1091179"><ele>202.66666666666666</ele><time>2026-05-02T12:44:20.751Z</time></trkpt><trkpt lat="44.2642731" lon="11.1089991"><ele>202.0</ele><time>2026-05-02T12:44:21.756Z</time></trkpt><trkpt lat="44.2641023" lon="11.1088948"><ele>202.66666666666666</ele><time>2026-05-02T12:44:22.763Z</time></trkpt><trkpt lat="44.2639343" lon="11.108781"><ele>203.33333333333331</ele><time>2026-05-02T12:44:23.753Z</time></trkpt><trkpt lat="44.2637659" lon="11.1086658"><ele>204.0</ele><time>2026-05-02T12:44:24.76Z</time></trkpt><trkpt lat="44.2635976" lon="11.1085493"><ele>204.0</ele><time>2026-05-02T12:44:25.754Z</time></trkpt><trkpt lat="44.2634196" lon="11.1084351"><ele>204.0</ele><time>2026-05-02T12:44:26.755Z</time></trkpt><trkpt lat="44.2632247" lon="11.1083243"><ele>204.0</ele><time>2026-05-02T12:44:27.752Z</time></trkpt><trkpt lat="44.2630218" lon="11.1082014"><ele>206.5</ele><time>2026-05-02T12:44:28.757Z</time></trkpt><trkpt lat="44.2628099" lon="11.1080723"><ele>209.0</ele><time>2026-05-02T12:44:29.753Z</time></trkpt><trkpt lat="44.2625938" lon="11.1079341"><ele>209.0</ele><time>2026-05-02T12:44:30.76Z</time></trkpt><trkpt lat="44.2623757" lon="11.1077745"><ele>209.0</ele><time>2026-05-02T12:44:31.757Z</time></trkpt><trkpt lat="44.2621574" lon="11.1076168"><ele>210.0</ele><time>2026-05-02T12:44:32.756Z</time></trkpt><trkpt lat="44.2619439" lon="11.1074687"><ele>211.0</ele><time>2026-05-02T12:44:33.753Z</time></trkpt><trkpt lat="44.2617267" lon="11.107326"><ele>211.0</ele><time>2026-05-02T12:44:34.761Z</time></trkpt><trkpt lat="44.2615114" lon="11.1071848"><ele>211.0</ele><time>2026-05-02T12:44:35.757Z</time></trkpt><trkpt lat="44.2612984" lon="11.1070455"><ele>209.33333333333331</ele><time>2026-05-02T12:44:36.755Z</time></trkpt><trkpt lat="44.2610964" lon="11.106912"><ele>207.66666666666669</ele><time>2026-05-02T12:44:37.754Z</time></trkpt><trkpt lat="44.2609167" lon="11.1067748"><ele>206.0</ele><time>2026-05-02T12:44:38.755Z</time></trkpt><trkpt lat="44.2607189" lon="11.1066639"><ele>206.0</ele><time>2026-05-02T12:44:39.757Z</time></trkpt><trkpt lat="44.2605396" lon="11.1065347"><ele>206.0</ele><time>2026-05-02T12:44:40.758Z</time></trkpt><trkpt lat="44.2603522" lon="11.1064197"><ele>206.0</ele><time>2026-05-02T12:44:41.76Z</time></trkpt><trkpt lat="44.2601714" lon="11.1062978"><ele>206.0</ele><time>2026-05-02T12:44:42.754Z</time></trkpt><trkpt lat="44.2599959" lon="11.1061781"><ele>206.0</ele><time>2026-05-02T12:44:43.752Z</time></trkpt><trkpt lat="44.2598015" lon="11.1060698"><ele>206.0</ele><time>2026-05-02T12:44:44.76Z</time></trkpt><trkpt lat="44.2596282" lon="11.1059479"><ele>206.33333333333334</ele><time>2026-05-02T12:44:45.753Z</time></trkpt><trkpt lat="44.2594554" lon="11.1058256"><ele>206.66666666666669</ele><time>2026-05-02T12:44:46.763Z</time></trkpt><trkpt lat="44.2592878" lon="11.1056815"><ele>207.0</ele><time>2026-05-02T12:44:47.757Z</time></trkpt><trkpt lat="44.2590976" lon="11.1055673"><ele>208.66666666666669</ele><time>2026-05-02T12:44:48.757Z</time></trkpt><trkpt lat="44.2588937" lon="11.1054508"><ele>210.33333333333334</ele><time>2026-05-02T12:44:49.771Z</time></trkpt><trkpt lat="44.2586931" lon="11.1053401"><ele>212.0</ele><time>2026-05-02T12:44:50.765Z</time></trkpt><trkpt lat="44.2584836" lon="11.1052374"><ele>212.0</ele><time>2026-05-02T12:44:51.752Z</time></trkpt><trkpt lat="44.2582667" lon="11.1051382"><ele>212.0</ele><time>2026-05-02T12:44:52.756Z</time></trkpt><trkpt lat="44.2580487" lon="11.1050355"><ele>212.0</ele><time>2026-05-02T12:44:53.753Z</time></trkpt><trkpt lat="44.2578285" lon="11.1049322"><ele>212.0</ele><time>2026-05-02T12:44:54.76Z</time></trkpt><trkpt lat="44.2576093" lon="11.1048258"><ele>212.0</ele><time>2026-05-02T12:44:55.754Z</time></trkpt><trkpt lat="44.2573775" lon="11.1047343"><ele>212.0</ele><time>2026-05-02T12:44:56.757Z</time></trkpt><trkpt lat="44.257147" lon="11.104642"><ele>211.5</ele><time>2026-05-02T12:44:57.756Z</time></trkpt><trkpt lat="44.2569133" lon="11.104561"><ele>211.0</ele><time>2026-05-02T12:44:58.756Z</time></trkpt><trkpt lat="44.2566808" lon="11.1044818"><ele>210.0</ele><time>2026-05-02T12:44:59.754Z</time></trkpt><trkpt lat="44.2564502" lon="11.104398"><ele>209.0</ele><time>2026-05-02T12:45:00.757Z</time></trkpt><trkpt lat="44.2562351" lon="11.1042806"><ele>209.0</ele><time>2026-05-02T12:45:01.761Z</time></trkpt><trkpt lat="44.2560225" lon="11.1041858"><ele>209.0</ele><time>2026-05-02T12:45:02.753Z</time></trkpt><trkpt lat="44.2558205" lon="11.1040664"><ele>209.0</ele><time>2026-05-02T12:45:03.755Z</time></trkpt><trkpt lat="44.2556559" lon="11.1038828"><ele>210.0</ele><time>2026-05-02T12:45:04.76Z</time></trkpt><trkpt lat="44.2554575" lon="11.1037289"><ele>211.0</ele><time>2026-05-02T12:45:05.761Z</time></trkpt><trkpt lat="44.2552682" lon="11.1035698"><ele>212.0</ele><time>2026-05-02T12:45:06.754Z</time></trkpt><trkpt lat="44.2550971" lon="11.1033756"><ele>212.0</ele><time>2026-05-02T12:45:07.754Z</time></trkpt><trkpt lat="44.2549416" lon="11.1031559"><ele>212.0</ele><time>2026-05-02T12:45:08.754Z</time></trkpt><trkpt lat="44.254781" lon="11.102943"><ele>212.0</ele><time>2026-05-02T12:45:09.758Z</time></trkpt><trkpt lat="44.2546177" lon="11.1027317"><ele>212.0</ele><time>2026-05-02T12:45:10.752Z</time></trkpt><trkpt lat="44.2544641" lon="11.1024993"><ele>212.0</ele><time>2026-05-02T12:45:11.756Z</time></trkpt><trkpt lat="44.2543259" lon="11.1022651"><ele>212.0</ele><time>2026-05-02T12:45:12.754Z</time></trkpt><trkpt lat="44.2541995" lon="11.1020175"><ele>212.0</ele><time>2026-05-02T12:45:13.752Z</time></trkpt><trkpt lat="44.2540865" lon="11.1017469"><ele>212.0</ele><time>2026-05-02T12:45:14.76Z</time></trkpt><trkpt lat="44.2539706" lon="11.1014862"><ele>212.0</ele><time>2026-05-02T12:45:15.754Z</time></trkpt><trkpt lat="44.2538492" lon="11.1012316"><ele>212.0</ele><time>2026-05-02T12:45:16.754Z</time></trkpt><trkpt lat="44.2537393" lon="11.1009931"><ele>212.0</ele><time>2026-05-02T12:45:17.755Z</time></trkpt><trkpt lat="44.2536371" lon="11.1007528"><ele>212.0</ele><time>2026-05-02T12:45:18.754Z</time></trkpt><trkpt lat="44.2535411" lon="11.1005209"><ele>213.0</ele><time>2026-05-02T12:45:19.751Z</time></trkpt><trkpt lat="44.2534475" lon="11.1003053"><ele>214.0</ele><time>2026-05-02T12:45:20.755Z</time></trkpt><trkpt lat="44.2533578" lon="11.1000836"><ele>215.0</ele><time>2026-05-02T12:45:21.757Z</time></trkpt><trkpt lat="44.2532675" lon="11.0998762"><ele>214.33333333333334</ele><time>2026-05-02T12:45:22.754Z</time></trkpt><trkpt lat="44.2531593" lon="11.0996638"><ele>213.66666666666669</ele><time>2026-05-02T12:45:23.754Z</time></trkpt><trkpt lat="44.2530582" lon="11.0994564"><ele>213.0</ele><time>2026-05-02T12:45:24.753Z</time></trkpt><trkpt lat="44.2529492" lon="11.0992782"><ele>213.0</ele><time>2026-05-02T12:45:25.755Z</time></trkpt><trkpt lat="44.2528337" lon="11.0991097"><ele>213.0</ele><time>2026-05-02T12:45:26.755Z</time></trkpt><trkpt lat="44.2527189" lon="11.0989406"><ele>213.0</ele><time>2026-05-02T12:45:27.759Z</time></trkpt><trkpt lat="44.2525989" lon="11.098806"><ele>213.0</ele><time>2026-05-02T12:45:28.754Z</time></trkpt><trkpt lat="44.2524777" lon="11.0986792"><ele>213.0</ele><time>2026-05-02T12:45:29.766Z</time></trkpt><trkpt lat="44.2523447" lon="11.0985705"><ele>213.0</ele><time>2026-05-02T12:45:30.756Z</time></trkpt><trkpt lat="44.2522174" lon="11.0984592"><ele>213.0</ele><time>2026-05-02T12:45:31.753Z</time></trkpt><trkpt lat="44.2520931" lon="11.0983509"><ele>213.0</ele><time>2026-05-02T12:45:32.755Z</time></trkpt><trkpt lat="44.2519807" lon="11.0982545"><ele>213.0</ele><time>2026-05-02T12:45:33.761Z</time></trkpt><trkpt lat="44.2518622" lon="11.0981549"><ele>213.0</ele><time>2026-05-02T12:45:34.762Z</time></trkpt><trkpt lat="44.2517404" lon="11.0980639"><ele>214.0</ele><time>2026-05-02T12:45:35.754Z</time></trkpt><trkpt lat="44.2516254" lon="11.0979723"><ele>215.0</ele><time>2026-05-02T12:45:36.756Z</time></trkpt><trkpt lat="44.2515146" lon="11.0978622"><ele>216.0</ele><time>2026-05-02T12:45:37.756Z</time></trkpt><trkpt lat="44.2514051" lon="11.0977736"><ele>217.0</ele><time>2026-05-02T12:45:38.762Z</time></trkpt><trkpt lat="44.2513016" lon="11.0976909"><ele>217.0</ele><time>2026-05-02T12:45:39.755Z</time></trkpt><trkpt lat="44.2512023" lon="11.0976086"><ele>217.0</ele><time>2026-05-02T12:45:40.755Z</time></trkpt><trkpt lat="44.2511114" lon="11.0975341"><ele>217.0</ele><time>2026-05-02T12:45:41.76Z</time></trkpt><trkpt lat="44.2510322" lon="11.0974693"><ele>217.0</ele><time>2026-05-02T12:45:42.754Z</time></trkpt><trkpt lat="44.250968" lon="11.0974138"><ele>217.0</ele><time>2026-05-02T12:45:43.755Z</time></trkpt><trkpt lat="44.2509023" lon="11.0973549"><ele>217.33333333333331</ele><time>2026-05-02T12:45:44.752Z</time></trkpt><trkpt lat="44.2508388" lon="11.0973043"><ele>217.66666666666666</ele><time>2026-05-02T12:45:45.752Z</time></trkpt><trkpt lat="44.2507742" lon="11.0972489"><ele>218.0</ele><time>2026-05-02T12:45:46.761Z</time></trkpt><trkpt lat="44.2507009" lon="11.0971849"><ele>218.33333333333331</ele><time>2026-05-02T12:45:47.754Z</time></trkpt><trkpt lat="44.250623" lon="11.0971182"><ele>218.66666666666666</ele><time>2026-05-02T12:45:48.753Z</time></trkpt><trkpt lat="44.2505325" lon="11.0970447"><ele>219.0</ele><time>2026-05-02T12:45:49.753Z</time></trkpt><trkpt lat="44.2504295" lon="11.096975"><ele>219.0</ele><time>2026-05-02T12:45:50.757Z</time></trkpt><trkpt lat="44.250321" lon="11.0969261"><ele>219.0</ele><time>2026-05-02T12:45:51.755Z</time></trkpt><trkpt lat="44.2502178" lon="11.0968732"><ele>219.0</ele><time>2026-05-02T12:45:52.749Z</time></trkpt><trkpt lat="44.2501103" lon="11.0968219"><ele>219.0</ele><time>2026-05-02T12:45:53.756Z</time></trkpt><trkpt lat="44.2500027" lon="11.0967726"><ele>219.0</ele><time>2026-05-02T12:45:54.757Z</time></trkpt><trkpt lat="44.2498836" lon="11.0967371"><ele>219.0</ele><time>2026-05-02T12:45:55.76Z</time></trkpt><trkpt lat="44.2497537" lon="11.0967206"><ele>219.0</ele><time>2026-05-02T12:45:56.753Z</time></trkpt><trkpt lat="44.249623" lon="11.0966738"><ele>219.0</ele><time>2026-05-02T12:45:57.762Z</time></trkpt><trkpt lat="44.2494872" lon="11.0966166"><ele>222.0</ele><time>2026-05-02T12:45:58.753Z</time></trkpt><trkpt lat="44.2493435" lon="11.0965545"><ele>225.0</ele><time>2026-05-02T12:45:59.759Z</time></trkpt><trkpt lat="44.2491512" lon="11.0964676"><ele>228.0</ele><time>2026-05-02T12:46:00.753Z</time></trkpt><trkpt lat="44.2489551" lon="11.0963828"><ele>228.66666666666669</ele><time>2026-05-02T12:46:01.759Z</time></trkpt><trkpt lat="44.248758" lon="11.0962934"><ele>229.33333333333334</ele><time>2026-05-02T12:46:02.753Z</time></trkpt><trkpt lat="44.2485581" lon="11.0962005"><ele>230.0</ele><time>2026-05-02T12:46:03.764Z</time></trkpt><trkpt lat="44.2483536" lon="11.0961108"><ele>230.0</ele><time>2026-05-02T12:46:04.755Z</time></trkpt><trkpt lat="44.2481438" lon="11.0960248"><ele>230.0</ele><time>2026-05-02T12:46:05.755Z</time></trkpt><trkpt lat="44.2479442" lon="11.0959196"><ele>230.0</ele><time>2026-05-02T12:46:06.757Z</time></trkpt><trkpt lat="44.2477515" lon="11.0958036"><ele>227.5</ele><time>2026-05-02T12:46:07.76Z</time></trkpt><trkpt lat="44.2475586" lon="11.0956876"><ele>225.0</ele><time>2026-05-02T12:46:08.743Z</time></trkpt><trkpt lat="44.2468778" lon="11.0949979"><ele>225.66666666666669</ele><time>2026-05-02T12:46:12.754Z</time></trkpt><trkpt lat="44.2467582" lon="11.0947214"><ele>226.33333333333334</ele><time>2026-05-02T12:46:13.759Z</time></trkpt><trkpt lat="44.2466189" lon="11.0944877"><ele>227.0</ele><time>2026-05-02T12:46:14.757Z</time></trkpt><trkpt lat="44.2464901" lon="11.0942588"><ele>225.33333333333334</ele><time>2026-05-02T12:46:15.756Z</time></trkpt><trkpt lat="44.2463397" lon="11.0940387"><ele>223.66666666666669</ele><time>2026-05-02T12:46:16.761Z</time></trkpt><trkpt lat="44.2461859" lon="11.0938099"><ele>222.0</ele><time>2026-05-02T12:46:17.761Z</time></trkpt><trkpt lat="44.246027" lon="11.0935988"><ele>222.0</ele><time>2026-05-02T12:46:18.757Z</time></trkpt><trkpt lat="44.2458624" lon="11.0933655"><ele>222.0</ele><time>2026-05-02T12:46:19.756Z</time></trkpt><trkpt lat="44.2457061" lon="11.093135"><ele>228.0</ele><time>2026-05-02T12:46:20.76Z</time></trkpt><trkpt lat="44.2455538" lon="11.092916"><ele>234.0</ele><time>2026-05-02T12:46:21.757Z</time></trkpt><trkpt lat="44.2453875" lon="11.0926836"><ele>234.0</ele><time>2026-05-02T12:46:22.758Z</time></trkpt><trkpt lat="44.2452265" lon="11.0924601"><ele>234.0</ele><time>2026-05-02T12:46:23.756Z</time></trkpt><trkpt lat="44.2450622" lon="11.0922357"><ele>235.0</ele><time>2026-05-02T12:46:24.756Z</time></trkpt><trkpt lat="44.2448948" lon="11.092006"><ele>236.0</ele><time>2026-05-02T12:46:25.764Z</time></trkpt><trkpt lat="44.2447316" lon="11.0917627"><ele>232.5</ele><time>2026-05-02T12:46:26.753Z</time></trkpt><trkpt lat="44.244565" lon="11.0915219"><ele>229.0</ele><time>2026-05-02T12:46:27.761Z</time></trkpt><trkpt lat="44.2444141" lon="11.0912877"><ele>229.0</ele><time>2026-05-02T12:46:28.753Z</time></trkpt><trkpt lat="44.2442526" lon="11.0910468"><ele>229.0</ele><time>2026-05-02T12:46:29.758Z</time></trkpt><trkpt lat="44.244083" lon="11.0908192"><ele>226.5</ele><time>2026-05-02T12:46:30.757Z</time></trkpt><trkpt lat="44.2439087" lon="11.0906003"><ele>224.0</ele><time>2026-05-02T12:46:31.762Z</time></trkpt><trkpt lat="44.2437208" lon="11.0903834"><ele>224.0</ele><time>2026-05-02T12:46:32.757Z</time></trkpt><trkpt lat="44.2435205" lon="11.0902065"><ele>224.0</ele><time>2026-05-02T12:46:33.761Z</time></trkpt><trkpt lat="44.2433231" lon="11.0900362"><ele>223.5</ele><time>2026-05-02T12:46:34.753Z</time></trkpt><trkpt lat="44.2431077" lon="11.0898815"><ele>223.0</ele><time>2026-05-02T12:46:35.761Z</time></trkpt><trkpt lat="44.2428987" lon="11.0897202"><ele>223.0</ele><time>2026-05-02T12:46:36.756Z</time></trkpt><trkpt lat="44.2426854" lon="11.0895537"><ele>223.0</ele><time>2026-05-02T12:46:37.763Z</time></trkpt><trkpt lat="44.242465" lon="11.0893959"><ele>223.5</ele><time>2026-05-02T12:46:38.754Z</time></trkpt><trkpt lat="44.2422639" lon="11.0892193"><ele>224.0</ele><time>2026-05-02T12:46:39.753Z</time></trkpt><trkpt lat="44.2420587" lon="11.0890295"><ele>224.0</ele><time>2026-05-02T12:46:40.755Z</time></trkpt><trkpt lat="44.2418483" lon="11.0888481"><ele>224.0</ele><time>2026-05-02T12:46:41.755Z</time></trkpt><trkpt lat="44.2416462" lon="11.0886517"><ele>224.5</ele><time>2026-05-02T12:46:42.763Z</time></trkpt><trkpt lat="44.2414475" lon="11.0884478"><ele>225.0</ele><time>2026-05-02T12:46:43.754Z</time></trkpt><trkpt lat="44.2412727" lon="11.0882177"><ele>225.0</ele><time>2026-05-02T12:46:44.758Z</time></trkpt><trkpt lat="44.2411247" lon="11.0879456"><ele>225.0</ele><time>2026-05-02T12:46:45.759Z</time></trkpt><trkpt lat="44.240975" lon="11.087681"><ele>223.0</ele><time>2026-05-02T12:46:46.755Z</time></trkpt><trkpt lat="44.2408356" lon="11.0874099"><ele>221.0</ele><time>2026-05-02T12:46:47.757Z</time></trkpt><trkpt lat="44.2407059" lon="11.0871292"><ele>224.0</ele><time>2026-05-02T12:46:48.753Z</time></trkpt><trkpt lat="44.2405871" lon="11.0868261"><ele>227.0</ele><time>2026-05-02T12:46:49.754Z</time></trkpt><trkpt lat="44.2405016" lon="11.0865134"><ele>227.0</ele><time>2026-05-02T12:46:50.758Z</time></trkpt><trkpt lat="44.2404196" lon="11.0862078"><ele>227.0</ele><time>2026-05-02T12:46:51.758Z</time></trkpt><trkpt lat="44.2403349" lon="11.085907"><ele>226.5</ele><time>2026-05-02T12:46:52.763Z</time></trkpt><trkpt lat="44.2402772" lon="11.0855893"><ele>226.0</ele><time>2026-05-02T12:46:53.753Z</time></trkpt><trkpt lat="44.2402352" lon="11.0852661"><ele>226.0</ele><time>2026-05-02T12:46:54.756Z</time></trkpt><trkpt lat="44.2402065" lon="11.0849478"><ele>226.0</ele><time>2026-05-02T12:46:55.753Z</time></trkpt><trkpt lat="44.2401928" lon="11.0846198"><ele>226.5</ele><time>2026-05-02T12:46:56.765Z</time></trkpt><trkpt lat="44.2401967" lon="11.0842862"><ele>227.0</ele><time>2026-05-02T12:46:57.764Z</time></trkpt><trkpt lat="44.2401918" lon="11.0839606"><ele>228.0</ele><time>2026-05-02T12:46:58.756Z</time></trkpt><trkpt lat="44.240178" lon="11.0836353"><ele>229.0</ele><time>2026-05-02T12:46:59.755Z</time></trkpt><trkpt lat="44.2401612" lon="11.0833137"><ele>228.5</ele><time>2026-05-02T12:47:00.755Z</time></trkpt><trkpt lat="44.2401437" lon="11.0829897"><ele>228.0</ele><time>2026-05-02T12:47:01.761Z</time></trkpt><trkpt lat="44.2401438" lon="11.0826564"><ele>227.0</ele><time>2026-05-02T12:47:02.755Z</time></trkpt><trkpt lat="44.2401467" lon="11.0823284"><ele>226.0</ele><time>2026-05-02T12:47:03.755Z</time></trkpt><trkpt lat="44.2401345" lon="11.0819978"><ele>226.0</ele><time>2026-05-02T12:47:04.756Z</time></trkpt><trkpt lat="44.2401181" lon="11.0816608"><ele>226.0</ele><time>2026-05-02T12:47:05.772Z</time></trkpt><trkpt lat="44.2401134" lon="11.0813358"><ele>227.0</ele><time>2026-05-02T12:47:06.761Z</time></trkpt><trkpt lat="44.2401041" lon="11.0810113"><ele>228.0</ele><time>2026-05-02T12:47:07.756Z</time></trkpt><trkpt lat="44.240099" lon="11.0806901"><ele>228.5</ele><time>2026-05-02T12:47:08.762Z</time></trkpt><trkpt lat="44.2400896" lon="11.0803783"><ele>229.0</ele><time>2026-05-02T12:47:09.754Z</time></trkpt><trkpt lat="44.2400881" lon="11.0800592"><ele>228.66666666666666</ele><time>2026-05-02T12:47:10.758Z</time></trkpt><trkpt lat="44.2400828" lon="11.079745"><ele>228.33333333333331</ele><time>2026-05-02T12:47:11.756Z</time></trkpt><trkpt lat="44.2400746" lon="11.0794333"><ele>228.0</ele><time>2026-05-02T12:47:12.755Z</time></trkpt><trkpt lat="44.2400697" lon="11.0791244"><ele>228.33333333333331</ele><time>2026-05-02T12:47:13.753Z</time></trkpt><trkpt lat="44.2400618" lon="11.0788146"><ele>228.66666666666666</ele><time>2026-05-02T12:47:14.761Z</time></trkpt><trkpt lat="44.2400559" lon="11.0785035"><ele>229.0</ele><time>2026-05-02T12:47:15.756Z</time></trkpt><trkpt lat="44.2400521" lon="11.0781906"><ele>229.0</ele><time>2026-05-02T12:47:16.752Z</time></trkpt><trkpt lat="44.2400516" lon="11.0778703"><ele>229.0</ele><time>2026-05-02T12:47:17.752Z</time></trkpt><trkpt lat="44.2400449" lon="11.077557"><ele>229.33333333333331</ele><time>2026-05-02T12:47:18.753Z</time></trkpt><trkpt lat="44.2400381" lon="11.0772504"><ele>229.66666666666669</ele><time>2026-05-02T12:47:19.752Z</time></trkpt><trkpt lat="44.2400331" lon="11.0769365"><ele>230.0</ele><time>2026-05-02T12:47:20.755Z</time></trkpt><trkpt lat="44.2400224" lon="11.0766327"><ele>230.33333333333334</ele><time>2026-05-02T12:47:21.755Z</time></trkpt><trkpt lat="44.240012" lon="11.0763304"><ele>230.66666666666669</ele><time>2026-05-02T12:47:22.757Z</time></trkpt><trkpt lat="44.2399953" lon="11.0760407"><ele>231.0</ele><time>2026-05-02T12:47:23.755Z</time></trkpt><trkpt lat="44.2399831" lon="11.0757558"><ele>231.0</ele><time>2026-05-02T12:47:24.756Z</time></trkpt><trkpt lat="44.2399776" lon="11.0754735"><ele>231.0</ele><time>2026-05-02T12:47:25.756Z</time></trkpt><trkpt lat="44.2399703" lon="11.0751915"><ele>231.0</ele><time>2026-05-02T12:47:26.758Z</time></trkpt><trkpt lat="44.2399585" lon="11.0749118"><ele>230.33333333333331</ele><time>2026-05-02T12:47:27.757Z</time></trkpt><trkpt lat="44.2399422" lon="11.0746282"><ele>229.66666666666666</ele><time>2026-05-02T12:47:28.753Z</time></trkpt><trkpt lat="44.2399064" lon="11.0743409"><ele>229.0</ele><time>2026-05-02T12:47:29.763Z</time></trkpt><trkpt lat="44.2398592" lon="11.074066"><ele>229.0</ele><time>2026-05-02T12:47:30.76Z</time></trkpt><trkpt lat="44.2398013" lon="11.0738087"><ele>229.0</ele><time>2026-05-02T12:47:31.754Z</time></trkpt><trkpt lat="44.2397371" lon="11.0735624"><ele>229.0</ele><time>2026-05-02T12:47:32.756Z</time></trkpt><trkpt lat="44.2396629" lon="11.0733409"><ele>231.33333333333331</ele><time>2026-05-02T12:47:33.756Z</time></trkpt><trkpt lat="44.2395832" lon="11.0731396"><ele>233.66666666666669</ele><time>2026-05-02T12:47:34.755Z</time></trkpt><trkpt lat="44.2395017" lon="11.072953"><ele>236.0</ele><time>2026-05-02T12:47:35.758Z</time></trkpt><trkpt lat="44.239422" lon="11.0727746"><ele>236.0</ele><time>2026-05-02T12:47:36.756Z</time></trkpt><trkpt lat="44.2393416" lon="11.0725905"><ele>236.0</ele><time>2026-05-02T12:47:37.765Z</time></trkpt><trkpt lat="44.2392584" lon="11.0723996"><ele>236.0</ele><time>2026-05-02T12:47:38.754Z</time></trkpt><trkpt lat="44.2391723" lon="11.0721959"><ele>236.0</ele><time>2026-05-02T12:47:39.757Z</time></trkpt><trkpt lat="44.2390844" lon="11.0719856"><ele>236.0</ele><time>2026-05-02T12:47:40.763Z</time></trkpt><trkpt lat="44.2390041" lon="11.0717817"><ele>236.0</ele><time>2026-05-02T12:47:41.756Z</time></trkpt><trkpt lat="44.2389111" lon="11.071579"><ele>238.0</ele><time>2026-05-02T12:47:42.768Z</time></trkpt><trkpt lat="44.2388191" lon="11.0713676"><ele>240.0</ele><time>2026-05-02T12:47:43.752Z</time></trkpt><trkpt lat="44.2387211" lon="11.0711472"><ele>242.0</ele><time>2026-05-02T12:47:44.756Z</time></trkpt><trkpt lat="44.2386272" lon="11.0709258"><ele>243.33333333333334</ele><time>2026-05-02T12:47:45.755Z</time></trkpt><trkpt lat="44.2385291" lon="11.070703"><ele>244.66666666666669</ele><time>2026-05-02T12:47:46.75Z</time></trkpt><trkpt lat="44.2384374" lon="11.0704681"><ele>246.0</ele><time>2026-05-02T12:47:47.754Z</time></trkpt><trkpt lat="44.2383404" lon="11.0702371"><ele>246.0</ele><time>2026-05-02T12:47:48.761Z</time></trkpt><trkpt lat="44.238238" lon="11.0699874"><ele>246.0</ele><time>2026-05-02T12:47:49.757Z</time></trkpt><trkpt lat="44.2381312" lon="11.0697408"><ele>246.0</ele><time>2026-05-02T12:47:50.755Z</time></trkpt><trkpt lat="44.2380217" lon="11.0694889"><ele>251.33333333333331</ele><time>2026-05-02T12:47:51.76Z</time></trkpt><trkpt lat="44.2379196" lon="11.0692348"><ele>256.66666666666663</ele><time>2026-05-02T12:47:52.762Z</time></trkpt><trkpt lat="44.2378196" lon="11.0689729"><ele>262.0</ele><time>2026-05-02T12:47:53.752Z</time></trkpt><trkpt lat="44.2377146" lon="11.0687133"><ele>261.5</ele><time>2026-05-02T12:47:54.753Z</time></trkpt><trkpt lat="44.2376048" lon="11.0684608"><ele>261.0</ele><time>2026-05-02T12:47:55.744Z</time></trkpt><trkpt lat="44.2292874" lon="11.0498944"><ele>258.5</ele><time>2026-05-02T12:49:00Z</time></trkpt><trkpt lat="44.2289445" lon="11.0500438"><ele>256.0</ele><time>2026-05-02T12:49:03.755Z</time></trkpt><trkpt lat="44.2287814" lon="11.049862"><ele>254.66666666666666</ele><time>2026-05-02T12:49:04.763Z</time></trkpt><trkpt lat="44.2286417" lon="11.0496799"><ele>253.33333333333331</ele><time>2026-05-02T12:49:05.753Z</time></trkpt><trkpt lat="44.2285069" lon="11.0495003"><ele>252.0</ele><time>2026-05-02T12:49:06.756Z</time></trkpt><trkpt lat="44.2283703" lon="11.0493071"><ele>251.0</ele><time>2026-05-02T12:49:07.756Z</time></trkpt><trkpt lat="44.2282547" lon="11.0490956"><ele>250.0</ele><time>2026-05-02T12:49:08.755Z</time></trkpt><trkpt lat="44.2281432" lon="11.0488851"><ele>249.0</ele><time>2026-05-02T12:49:09.757Z</time></trkpt><trkpt lat="44.2280402" lon="11.0486661"><ele>254.33333333333331</ele><time>2026-05-02T12:49:10.755Z</time></trkpt><trkpt lat="44.2279475" lon="11.0484339"><ele>259.66666666666663</ele><time>2026-05-02T12:49:11.756Z</time></trkpt><trkpt lat="44.2278581" lon="11.0482014"><ele>265.0</ele><time>2026-05-02T12:49:12.76Z</time></trkpt><trkpt lat="44.2277833" lon="11.0479543"><ele>265.3333333333333</ele><time>2026-05-02T12:49:13.759Z</time></trkpt><trkpt lat="44.2277119" lon="11.0476977"><ele>265.6666666666667</ele><time>2026-05-02T12:49:14.748Z</time></trkpt><trkpt lat="44.2276529" lon="11.0474266"><ele>266.0</ele><time>2026-05-02T12:49:15.748Z</time></trkpt><trkpt lat="44.2275988" lon="11.0471426"><ele>267.0</ele><time>2026-05-02T12:49:16.759Z</time></trkpt><trkpt lat="44.2275562" lon="11.0468574"><ele>268.0</ele><time>2026-05-02T12:49:17.757Z</time></trkpt><trkpt lat="44.227527" lon="11.0465741"><ele>269.0</ele><time>2026-05-02T12:49:18.756Z</time></trkpt><trkpt lat="44.2275051" lon="11.0462909"><ele>270.0</ele><time>2026-05-02T12:49:19.755Z</time></trkpt><trkpt lat="44.22749" lon="11.0460069"><ele>271.0</ele><time>2026-05-02T12:49:20.757Z</time></trkpt><trkpt lat="44.2275044" lon="11.0457541"><ele>272.0</ele><time>2026-05-02T12:49:21.759Z</time></trkpt><trkpt lat="44.2275194" lon="11.0454889"><ele>272.6666666666667</ele><time>2026-05-02T12:49:22.759Z</time></trkpt><trkpt lat="44.2275369" lon="11.0452281"><ele>273.3333333333333</ele><time>2026-05-02T12:49:23.756Z</time></trkpt><trkpt lat="44.2275506" lon="11.0449553"><ele>274.0</ele><time>2026-05-02T12:49:24.758Z</time></trkpt><trkpt lat="44.2275655" lon="11.0446713"><ele>272.66666666666663</ele><time>2026-05-02T12:49:25.764Z</time></trkpt><trkpt lat="44.2275813" lon="11.0443944"><ele>271.3333333333333</ele><time>2026-05-02T12:49:26.756Z</time></trkpt><trkpt lat="44.2275993" lon="11.0441357"><ele>270.0</ele><time>2026-05-02T12:49:27.755Z</time></trkpt><trkpt lat="44.227609" lon="11.0438671"><ele>268.3333333333333</ele><time>2026-05-02T12:49:28.756Z</time></trkpt><trkpt lat="44.2276204" lon="11.0435969"><ele>266.66666666666663</ele><time>2026-05-02T12:49:29.757Z</time></trkpt><trkpt lat="44.227625" lon="11.0433204"><ele>265.0</ele><time>2026-05-02T12:49:30.756Z</time></trkpt><trkpt lat="44.2276358" lon="11.043054"><ele>264.3333333333333</ele><time>2026-05-02T12:49:31.753Z</time></trkpt><trkpt lat="44.2276393" lon="11.0427885"><ele>263.6666666666667</ele><time>2026-05-02T12:49:32.756Z</time></trkpt><trkpt lat="44.2276468" lon="11.0425356"><ele>263.0</ele><time>2026-05-02T12:49:33.764Z</time></trkpt><trkpt lat="44.2276559" lon="11.0423006"><ele>261.6666666666667</ele><time>2026-05-02T12:49:34.755Z</time></trkpt><trkpt lat="44.2276674" lon="11.0420411"><ele>260.3333333333333</ele><time>2026-05-02T12:49:35.756Z</time></trkpt><trkpt lat="44.2276705" lon="11.0417944"><ele>259.0</ele><time>2026-05-02T12:49:36.755Z</time></trkpt><trkpt lat="44.2276792" lon="11.0415625"><ele>258.0</ele><time>2026-05-02T12:49:37.77Z</time></trkpt><trkpt lat="44.2276904" lon="11.0413377"><ele>257.0</ele><time>2026-05-02T12:49:38.758Z</time></trkpt><trkpt lat="44.2276933" lon="11.0411139"><ele>256.0</ele><time>2026-05-02T12:49:39.754Z</time></trkpt><trkpt lat="44.2276943" lon="11.0408969"><ele>256.3333333333333</ele><time>2026-05-02T12:49:40.755Z</time></trkpt><trkpt lat="44.2276878" lon="11.0406817"><ele>256.6666666666667</ele><time>2026-05-02T12:49:41.757Z</time></trkpt><trkpt lat="44.2276798" lon="11.0404597"><ele>257.0</ele><time>2026-05-02T12:49:42.756Z</time></trkpt><trkpt lat="44.227659" lon="11.0402428"><ele>257.0</ele><time>2026-05-02T12:49:43.752Z</time></trkpt><trkpt lat="44.2276271" lon="11.0400301"><ele>257.0</ele><time>2026-05-02T12:49:44.763Z</time></trkpt><trkpt lat="44.2275981" lon="11.039817"><ele>257.0</ele><time>2026-05-02T12:49:45.757Z</time></trkpt><trkpt lat="44.227561" lon="11.0396071"><ele>258.25</ele><time>2026-05-02T12:49:46.756Z</time></trkpt><trkpt lat="44.2275235" lon="11.0394141"><ele>259.5</ele><time>2026-05-02T12:49:47.754Z</time></trkpt><trkpt lat="44.2274881" lon="11.0392432"><ele>260.75</ele><time>2026-05-02T12:49:48.758Z</time></trkpt><trkpt lat="44.2274564" lon="11.0390972"><ele>262.0</ele><time>2026-05-02T12:49:49.754Z</time></trkpt><trkpt lat="44.2274258" lon="11.0389808"><ele>263.5</ele><time>2026-05-02T12:49:50.754Z</time></trkpt><trkpt lat="44.2274114" lon="11.0388886"><ele>265.0</ele><time>2026-05-02T12:49:51.754Z</time></trkpt><trkpt lat="44.2273968" lon="11.038732"><ele>266.5</ele><time>2026-05-02T12:49:53.765Z</time></trkpt><trkpt lat="44.2274393" lon="11.0386559"><ele>268.0</ele><time>2026-05-02T12:49:54.752Z</time></trkpt><trkpt lat="44.2274632" lon="11.0385621"><ele>269.5</ele><time>2026-05-02T12:49:55.754Z</time></trkpt><trkpt lat="44.2274802" lon="11.0384656"><ele>271.0</ele><time>2026-05-02T12:49:56.743Z</time></trkpt><trkpt lat="44.2274462" lon="11.0383475"><ele>269.75</ele><time>2026-05-02T12:49:57.757Z</time></trkpt><trkpt lat="44.2273847" lon="11.0382414"><ele>268.5</ele><time>2026-05-02T12:49:58.756Z</time></trkpt><trkpt lat="44.2273114" lon="11.0381495"><ele>267.25</ele><time>2026-05-02T12:49:59.753Z</time></trkpt><trkpt lat="44.227216" lon="11.0380304"><ele>266.0</ele><time>2026-05-02T12:50:00.753Z</time></trkpt><trkpt lat="44.2271025" lon="11.0378951"><ele>266.0</ele><time>2026-05-02T12:50:01.76Z</time></trkpt><trkpt lat="44.2270068" lon="11.0377487"><ele>266.0</ele><time>2026-05-02T12:50:02.755Z</time></trkpt><trkpt lat="44.2269322" lon="11.0375648"><ele>266.0</ele><time>2026-05-02T12:50:03.756Z</time></trkpt><trkpt lat="44.2268689" lon="11.0373752"><ele>266.0</ele><time>2026-05-02T12:50:04.757Z</time></trkpt><trkpt lat="44.2268229" lon="11.0371707"><ele>267.0</ele><time>2026-05-02T12:50:05.752Z</time></trkpt><trkpt lat="44.2268297" lon="11.0369624"><ele>268.0</ele><time>2026-05-02T12:50:06.756Z</time></trkpt><trkpt lat="44.226845" lon="11.0367302"><ele>269.0</ele><time>2026-05-02T12:50:07.76Z</time></trkpt><trkpt lat="44.2268334" lon="11.0365144"><ele>271.6666666666667</ele><time>2026-05-02T12:50:08.758Z</time></trkpt><trkpt lat="44.2267964" lon="11.0363093"><ele>274.3333333333333</ele><time>2026-05-02T12:50:09.764Z</time></trkpt><trkpt lat="44.226733" lon="11.0360821"><ele>277.0</ele><time>2026-05-02T12:50:10.757Z</time></trkpt><trkpt lat="44.2266633" lon="11.0358701"><ele>279.0</ele><time>2026-05-02T12:50:11.759Z</time></trkpt><trkpt lat="44.2265805" lon="11.0356535"><ele>281.0</ele><time>2026-05-02T12:50:12.76Z</time></trkpt><trkpt lat="44.2265074" lon="11.0354395"><ele>283.0</ele><time>2026-05-02T12:50:13.755Z</time></trkpt><trkpt lat="44.2264371" lon="11.0352257"><ele>278.66666666666663</ele><time>2026-05-02T12:50:14.753Z</time></trkpt><trkpt lat="44.22636" lon="11.0350197"><ele>274.3333333333333</ele><time>2026-05-02T12:50:15.76Z</time></trkpt><trkpt lat="44.2262875" lon="11.0348293"><ele>270.0</ele><time>2026-05-02T12:50:16.755Z</time></trkpt><trkpt lat="44.226211" lon="11.0346306"><ele>270.0</ele><time>2026-05-02T12:50:17.762Z</time></trkpt><trkpt lat="44.2261313" lon="11.0344221"><ele>270.0</ele><time>2026-05-02T12:50:18.757Z</time></trkpt><trkpt lat="44.2260535" lon="11.0342286"><ele>270.0</ele><time>2026-05-02T12:50:19.759Z</time></trkpt><trkpt lat="44.2259844" lon="11.0340336"><ele>272.0</ele><time>2026-05-02T12:50:20.795Z</time></trkpt><trkpt lat="44.225911" lon="11.0338415"><ele>274.0</ele><time>2026-05-02T12:50:21.749Z</time></trkpt><trkpt lat="44.2258444" lon="11.0336542"><ele>276.0</ele><time>2026-05-02T12:50:22.755Z</time></trkpt><trkpt lat="44.2257741" lon="11.0334603"><ele>277.25</ele><time>2026-05-02T12:50:23.75Z</time></trkpt><trkpt lat="44.2257098" lon="11.0332832"><ele>278.5</ele><time>2026-05-02T12:50:24.756Z</time></trkpt><trkpt lat="44.2256447" lon="11.0331066"><ele>279.75</ele><time>2026-05-02T12:50:25.761Z</time></trkpt><trkpt lat="44.2255738" lon="11.0329204"><ele>281.0</ele><time>2026-05-02T12:50:26.767Z</time></trkpt><trkpt lat="44.2255136" lon="11.0327306"><ele>278.75</ele><time>2026-05-02T12:50:27.76Z</time></trkpt><trkpt lat="44.2254631" lon="11.0325436"><ele>276.5</ele><time>2026-05-02T12:50:28.76Z</time></trkpt><trkpt lat="44.2254367" lon="11.0323437"><ele>274.25</ele><time>2026-05-02T12:50:29.754Z</time></trkpt><trkpt lat="44.2254198" lon="11.0321511"><ele>272.0</ele><time>2026-05-02T12:50:30.756Z</time></trkpt><trkpt lat="44.2254" lon="11.0319423"><ele>272.0</ele><time>2026-05-02T12:50:31.756Z</time></trkpt><trkpt lat="44.225391" lon="11.0317366"><ele>272.0</ele><time>2026-05-02T12:50:32.756Z</time></trkpt><trkpt lat="44.2253731" lon="11.0315168"><ele>272.0</ele><time>2026-05-02T12:50:33.755Z</time></trkpt><trkpt lat="44.2253595" lon="11.0312958"><ele>273.0</ele><time>2026-05-02T12:50:34.756Z</time></trkpt><trkpt lat="44.2253401" lon="11.0310788"><ele>274.0</ele><time>2026-05-02T12:50:35.761Z</time></trkpt><trkpt lat="44.2253231" lon="11.0308584"><ele>275.0</ele><time>2026-05-02T12:50:36.755Z</time></trkpt><trkpt lat="44.2253139" lon="11.0306411"><ele>275.0</ele><time>2026-05-02T12:50:37.756Z</time></trkpt><trkpt lat="44.2253086" lon="11.0304329"><ele>275.0</ele><time>2026-05-02T12:50:38.76Z</time></trkpt><trkpt lat="44.2253183" lon="11.0302323"><ele>275.0</ele><time>2026-05-02T12:50:39.753Z</time></trkpt><trkpt lat="44.2253182" lon="11.0300436"><ele>275.0</ele><time>2026-05-02T12:50:40.753Z</time></trkpt><trkpt lat="44.2252809" lon="11.0298712"><ele>276.0</ele><time>2026-05-02T12:50:41.764Z</time></trkpt><trkpt lat="44.2252121" lon="11.0297055"><ele>277.0</ele><time>2026-05-02T12:50:42.752Z</time></trkpt><trkpt lat="44.2251173" lon="11.0295554"><ele>278.0</ele><time>2026-05-02T12:50:43.754Z</time></trkpt><trkpt lat="44.2249984" lon="11.0294003"><ele>279.0</ele><time>2026-05-02T12:50:44.754Z</time></trkpt><trkpt lat="44.2248668" lon="11.029256"><ele>281.75</ele><time>2026-05-02T12:50:45.754Z</time></trkpt><trkpt lat="44.2247408" lon="11.0291183"><ele>284.5</ele><time>2026-05-02T12:50:46.755Z</time></trkpt><trkpt lat="44.2246235" lon="11.0289995"><ele>287.25</ele><time>2026-05-02T12:50:47.751Z</time></trkpt><trkpt lat="44.2245031" lon="11.0289263"><ele>290.0</ele><time>2026-05-02T12:50:48.758Z</time></trkpt><trkpt lat="44.2243782" lon="11.028946"><ele>290.0</ele><time>2026-05-02T12:50:49.752Z</time></trkpt><trkpt lat="44.2242409" lon="11.0289854"><ele>290.0</ele><time>2026-05-02T12:50:50.756Z</time></trkpt><trkpt lat="44.2240949" lon="11.0290772"><ele>290.0</ele><time>2026-05-02T12:50:51.755Z</time></trkpt><trkpt lat="44.2239353" lon="11.0291761"><ele>286.6666666666667</ele><time>2026-05-02T12:50:52.761Z</time></trkpt><trkpt lat="44.2237806" lon="11.0292664"><ele>283.3333333333333</ele><time>2026-05-02T12:50:53.755Z</time></trkpt><trkpt lat="44.2236337" lon="11.0293233"><ele>280.0</ele><time>2026-05-02T12:50:54.751Z</time></trkpt><trkpt lat="44.2234782" lon="11.0293464"><ele>280.0</ele><time>2026-05-02T12:50:55.752Z</time></trkpt><trkpt lat="44.2233159" lon="11.029332"><ele>280.0</ele><time>2026-05-02T12:50:56.764Z</time></trkpt><trkpt lat="44.223153" lon="11.0293068"><ele>280.0</ele><time>2026-05-02T12:50:57.751Z</time></trkpt><trkpt lat="44.2229952" lon="11.0293064"><ele>279.3333333333333</ele><time>2026-05-02T12:50:58.756Z</time></trkpt><trkpt lat="44.2228344" lon="11.0293339"><ele>278.6666666666667</ele><time>2026-05-02T12:50:59.757Z</time></trkpt><trkpt lat="44.2226789" lon="11.0293729"><ele>278.0</ele><time>2026-05-02T12:51:00.741Z</time></trkpt><trkpt lat="44.2225392" lon="11.0294026"><ele>278.0</ele><time>2026-05-02T12:51:01.758Z</time></trkpt><trkpt lat="44.222387" lon="11.0293544"><ele>278.0</ele><time>2026-05-02T12:51:02.764Z</time></trkpt><trkpt lat="44.2222443" lon="11.0293165"><ele>278.0</ele><time>2026-05-02T12:51:03.753Z</time></trkpt><trkpt lat="44.2220967" lon="11.0292455"><ele>278.0</ele><time>2026-05-02T12:51:04.754Z</time></trkpt><trkpt lat="44.2219508" lon="11.0291897"><ele>278.0</ele><time>2026-05-02T12:51:05.753Z</time></trkpt><trkpt lat="44.221803" lon="11.0291541"><ele>278.0</ele><time>2026-05-02T12:51:06.756Z</time></trkpt><trkpt lat="44.2216603" lon="11.0291529"><ele>278.0</ele><time>2026-05-02T12:51:07.754Z</time></trkpt><trkpt lat="44.2215273" lon="11.0291618"><ele>277.0</ele><time>2026-05-02T12:51:08.753Z</time></trkpt><trkpt lat="44.22139" lon="11.0292881"><ele>276.0</ele><time>2026-05-02T12:51:09.752Z</time></trkpt><trkpt lat="44.2212579" lon="11.0293673"><ele>275.0</ele><time>2026-05-02T12:51:10.752Z</time></trkpt><trkpt lat="44.2211199" lon="11.0294298"><ele>275.0</ele><time>2026-05-02T12:51:11.751Z</time></trkpt><trkpt lat="44.2209688" lon="11.0294655"><ele>275.0</ele><time>2026-05-02T12:51:12.763Z</time></trkpt><trkpt lat="44.2208138" lon="11.0294933"><ele>275.0</ele><time>2026-05-02T12:51:13.753Z</time></trkpt><trkpt lat="44.2206748" lon="11.0294332"><ele>274.33333333333337</ele><time>2026-05-02T12:51:14.756Z</time></trkpt><trkpt lat="44.2205258" lon="11.029379"><ele>273.6666666666667</ele><time>2026-05-02T12:51:15.754Z</time></trkpt><trkpt lat="44.2203764" lon="11.0292774"><ele>273.0</ele><time>2026-05-02T12:51:16.75Z</time></trkpt><trkpt lat="44.2202245" lon="11.0291824"><ele>273.6666666666667</ele><time>2026-05-02T12:51:17.756Z</time></trkpt><trkpt lat="44.2200782" lon="11.0290838"><ele>274.33333333333337</ele><time>2026-05-02T12:51:18.759Z</time></trkpt><trkpt lat="44.2199265" lon="11.0289854"><ele>275.0</ele><time>2026-05-02T12:51:19.753Z</time></trkpt><trkpt lat="44.2197737" lon="11.0288655"><ele>275.0</ele><time>2026-05-02T12:51:20.752Z</time></trkpt><trkpt lat="44.2196244" lon="11.0287194"><ele>275.0</ele><time>2026-05-02T12:51:21.75Z</time></trkpt><trkpt lat="44.2194991" lon="11.028511"><ele>275.0</ele><time>2026-05-02T12:51:22.755Z</time></trkpt><trkpt lat="44.219368" lon="11.0283105"><ele>274.6666666666667</ele><time>2026-05-02T12:51:23.754Z</time></trkpt><trkpt lat="44.2192412" lon="11.0281054"><ele>274.3333333333333</ele><time>2026-05-02T12:51:24.772Z</time></trkpt><trkpt lat="44.2191018" lon="11.0279295"><ele>274.0</ele><time>2026-05-02T12:51:25.754Z</time></trkpt><trkpt lat="44.218943" lon="11.0277791"><ele>274.0</ele><time>2026-05-02T12:51:26.758Z</time></trkpt><trkpt lat="44.2187626" lon="11.0276142"><ele>274.0</ele><time>2026-05-02T12:51:27.753Z</time></trkpt><trkpt lat="44.218592" lon="11.027453"><ele>274.0</ele><time>2026-05-02T12:51:28.754Z</time></trkpt><trkpt lat="44.2184052" lon="11.0273002"><ele>276.3333333333333</ele><time>2026-05-02T12:51:29.753Z</time></trkpt><trkpt lat="44.2182241" lon="11.0271514"><ele>278.6666666666667</ele><time>2026-05-02T12:51:30.754Z</time></trkpt><trkpt lat="44.2180335" lon="11.0270167"><ele>281.0</ele><time>2026-05-02T12:51:31.756Z</time></trkpt><trkpt lat="44.2178404" lon="11.0269058"><ele>281.0</ele><time>2026-05-02T12:51:32.753Z</time></trkpt><trkpt lat="44.2176487" lon="11.0268019"><ele>281.0</ele><time>2026-05-02T12:51:33.756Z</time></trkpt><trkpt lat="44.217457" lon="11.0267104"><ele>281.0</ele><time>2026-05-02T12:51:34.755Z</time></trkpt><trkpt lat="44.2172572" lon="11.026629"><ele>284.0</ele><time>2026-05-02T12:51:35.75Z</time></trkpt><trkpt lat="44.217065" lon="11.0265421"><ele>287.0</ele><time>2026-05-02T12:51:36.756Z</time></trkpt><trkpt lat="44.2168786" lon="11.0264462"><ele>290.0</ele><time>2026-05-02T12:51:37.759Z</time></trkpt><trkpt lat="44.2166883" lon="11.026351"><ele>290.0</ele><time>2026-05-02T12:51:38.757Z</time></trkpt><trkpt lat="44.216506" lon="11.0262617"><ele>290.0</ele><time>2026-05-02T12:51:39.748Z</time></trkpt><trkpt lat="44.2163303" lon="11.0261722"><ele>290.0</ele><time>2026-05-02T12:51:40.751Z</time></trkpt><trkpt lat="44.2161661" lon="11.0260534"><ele>289.33333333333337</ele><time>2026-05-02T12:51:41.754Z</time></trkpt><trkpt lat="44.216017" lon="11.0258903"><ele>288.6666666666667</ele><time>2026-05-02T12:51:42.755Z</time></trkpt><trkpt lat="44.2158803" lon="11.0257064"><ele>288.0</ele><time>2026-05-02T12:51:43.753Z</time></trkpt><trkpt lat="44.215753" lon="11.0255075"><ele>286.0</ele><time>2026-05-02T12:51:44.755Z</time></trkpt><trkpt lat="44.2156174" lon="11.0253128"><ele>284.0</ele><time>2026-05-02T12:51:45.758Z</time></trkpt><trkpt lat="44.2154737" lon="11.0251341"><ele>282.0</ele><time>2026-05-02T12:51:46.756Z</time></trkpt><trkpt lat="44.215329" lon="11.0249724"><ele>287.0</ele><time>2026-05-02T12:51:47.756Z</time></trkpt><trkpt lat="44.2151839" lon="11.0248369"><ele>292.0</ele><time>2026-05-02T12:51:48.761Z</time></trkpt><trkpt lat="44.2150344" lon="11.0247317"><ele>297.0</ele><time>2026-05-02T12:51:49.755Z</time></trkpt><trkpt lat="44.2148684" lon="11.0246734"><ele>298.0</ele><time>2026-05-02T12:51:50.757Z</time></trkpt><trkpt lat="44.214687" lon="11.024647"><ele>299.0</ele><time>2026-05-02T12:51:51.755Z</time></trkpt><trkpt lat="44.2144986" lon="11.0246598"><ele>300.0</ele><time>2026-05-02T12:51:52.756Z</time></trkpt><trkpt lat="44.2143045" lon="11.0246851"><ele>300.0</ele><time>2026-05-02T12:51:53.756Z</time></trkpt><trkpt lat="44.2141126" lon="11.024697"><ele>300.0</ele><time>2026-05-02T12:51:54.753Z</time></trkpt><trkpt lat="44.2139185" lon="11.0246769"><ele>300.0</ele><time>2026-05-02T12:51:55.756Z</time></trkpt><trkpt lat="44.2137301" lon="11.0246213"><ele>298.3333333333333</ele><time>2026-05-02T12:51:56.758Z</time></trkpt><trkpt lat="44.2135432" lon="11.0245379"><ele>296.66666666666663</ele><time>2026-05-02T12:51:57.759Z</time></trkpt><trkpt lat="44.2133549" lon="11.0244444"><ele>295.0</ele><time>2026-05-02T12:51:58.759Z</time></trkpt><trkpt lat="44.213163" lon="11.024355"><ele>294.0</ele><time>2026-05-02T12:51:59.754Z</time></trkpt><trkpt lat="44.2129697" lon="11.0242897"><ele>293.0</ele><time>2026-05-02T12:52:00.758Z</time></trkpt><trkpt lat="44.2127744" lon="11.0242582"><ele>292.0</ele><time>2026-05-02T12:52:01.753Z</time></trkpt><trkpt lat="44.2125727" lon="11.0242515"><ele>292.0</ele><time>2026-05-02T12:52:02.753Z</time></trkpt><trkpt lat="44.2123737" lon="11.024252"><ele>292.0</ele><time>2026-05-02T12:52:03.765Z</time></trkpt><trkpt lat="44.2121836" lon="11.0242375"><ele>292.0</ele><time>2026-05-02T12:52:04.754Z</time></trkpt><trkpt lat="44.2119985" lon="11.0241999"><ele>295.0</ele><time>2026-05-02T12:52:05.755Z</time></trkpt><trkpt lat="44.2118156" lon="11.0241312"><ele>298.0</ele><time>2026-05-02T12:52:06.754Z</time></trkpt><trkpt lat="44.2116355" lon="11.024039"><ele>301.0</ele><time>2026-05-02T12:52:07.751Z</time></trkpt><trkpt lat="44.2114634" lon="11.0239166"><ele>301.0</ele><time>2026-05-02T12:52:08.755Z</time></trkpt><trkpt lat="44.2113066" lon="11.0237672"><ele>301.0</ele><time>2026-05-02T12:52:09.756Z</time></trkpt><trkpt lat="44.2111633" lon="11.023587"><ele>301.0</ele><time>2026-05-02T12:52:10.76Z</time></trkpt><trkpt lat="44.2110237" lon="11.0234385"><ele>303.3333333333333</ele><time>2026-05-02T12:52:11.755Z</time></trkpt><trkpt lat="44.2108814" lon="11.023312"><ele>305.6666666666667</ele><time>2026-05-02T12:52:12.759Z</time></trkpt><trkpt lat="44.2107235" lon="11.0232773"><ele>308.0</ele><time>2026-05-02T12:52:13.753Z</time></trkpt><trkpt lat="44.2105671" lon="11.0232803"><ele>307.6666666666667</ele><time>2026-05-02T12:52:14.754Z</time></trkpt><trkpt lat="44.2104124" lon="11.0233203"><ele>307.3333333333333</ele><time>2026-05-02T12:52:15.756Z</time></trkpt><trkpt lat="44.2102472" lon="11.0234094"><ele>307.0</ele><time>2026-05-02T12:52:16.755Z</time></trkpt><trkpt lat="44.2100772" lon="11.0235143"><ele>307.0</ele><time>2026-05-02T12:52:17.762Z</time></trkpt><trkpt lat="44.2099196" lon="11.0236125"><ele>307.0</ele><time>2026-05-02T12:52:18.757Z</time></trkpt><trkpt lat="44.2097705" lon="11.0236948"><ele>307.0</ele><time>2026-05-02T12:52:19.755Z</time></trkpt><trkpt lat="44.2096216" lon="11.0237383"><ele>306.3333333333333</ele><time>2026-05-02T12:52:20.759Z</time></trkpt><trkpt lat="44.2094677" lon="11.0237301"><ele>305.6666666666667</ele><time>2026-05-02T12:52:21.761Z</time></trkpt><trkpt lat="44.2093067" lon="11.0236827"><ele>305.0</ele><time>2026-05-02T12:52:22.753Z</time></trkpt><trkpt lat="44.2091618" lon="11.0235988"><ele>305.0</ele><time>2026-05-02T12:52:23.756Z</time></trkpt><trkpt lat="44.2090504" lon="11.0234769"><ele>305.0</ele><time>2026-05-02T12:52:24.752Z</time></trkpt><trkpt lat="44.2089752" lon="11.0233101"><ele>305.0</ele><time>2026-05-02T12:52:25.755Z</time></trkpt><trkpt lat="44.2089259" lon="11.0231069"><ele>305.0</ele><time>2026-05-02T12:52:26.756Z</time></trkpt><trkpt lat="44.2088917" lon="11.0228643"><ele>304.6666666666667</ele><time>2026-05-02T12:52:27.756Z</time></trkpt><trkpt lat="44.2088459" lon="11.0226188"><ele>304.3333333333333</ele><time>2026-05-02T12:52:28.755Z</time></trkpt><trkpt lat="44.2087785" lon="11.0223613"><ele>304.0</ele><time>2026-05-02T12:52:29.756Z</time></trkpt><trkpt lat="44.2087116" lon="11.0220962"><ele>304.0</ele><time>2026-05-02T12:52:30.755Z</time></trkpt><trkpt lat="44.2086424" lon="11.0218393"><ele>304.0</ele><time>2026-05-02T12:52:31.75Z</time></trkpt><trkpt lat="44.2085656" lon="11.0215809"><ele>304.0</ele><time>2026-05-02T12:52:32.754Z</time></trkpt><trkpt lat="44.2084855" lon="11.021343"><ele>306.3333333333333</ele><time>2026-05-02T12:52:33.751Z</time></trkpt><trkpt lat="44.2084018" lon="11.0211181"><ele>308.6666666666667</ele><time>2026-05-02T12:52:34.752Z</time></trkpt><trkpt lat="44.2083023" lon="11.020919"><ele>311.0</ele><time>2026-05-02T12:52:35.756Z</time></trkpt><trkpt lat="44.2082011" lon="11.020749"><ele>309.0</ele><time>2026-05-02T12:52:36.752Z</time></trkpt><trkpt lat="44.208104" lon="11.0205751"><ele>307.0</ele><time>2026-05-02T12:52:37.763Z</time></trkpt><trkpt lat="44.2080332" lon="11.0203962"><ele>305.0</ele><time>2026-05-02T12:52:38.755Z</time></trkpt><trkpt lat="44.2079766" lon="11.020205"><ele>305.0</ele><time>2026-05-02T12:52:39.752Z</time></trkpt><trkpt lat="44.2079238" lon="11.0200183"><ele>305.0</ele><time>2026-05-02T12:52:40.758Z</time></trkpt><trkpt lat="44.2079104" lon="11.019845"><ele>305.0</ele><time>2026-05-02T12:52:41.755Z</time></trkpt><trkpt lat="44.2078898" lon="11.0196836"><ele>305.0</ele><time>2026-05-02T12:52:42.754Z</time></trkpt><trkpt lat="44.2078851" lon="11.0195134"><ele>306.0</ele><time>2026-05-02T12:52:43.753Z</time></trkpt><trkpt lat="44.2078651" lon="11.0193998"><ele>307.0</ele><time>2026-05-02T12:52:44.753Z</time></trkpt><trkpt lat="44.2078394" lon="11.0193036"><ele>308.0</ele><time>2026-05-02T12:52:45.759Z</time></trkpt><trkpt lat="44.2078145" lon="11.0192145"><ele>309.0</ele><time>2026-05-02T12:52:46.752Z</time></trkpt><trkpt lat="44.207768" lon="11.0190653"><ele>310.0</ele><time>2026-05-02T12:52:48.752Z</time></trkpt><trkpt lat="44.2077213" lon="11.0189246"><ele>311.8</ele><time>2026-05-02T12:52:50.751Z</time></trkpt><trkpt lat="44.2076741" lon="11.0187883"><ele>313.6</ele><time>2026-05-02T12:52:52.757Z</time></trkpt><trkpt lat="44.2075942" lon="11.0186747"><ele>315.4</ele><time>2026-05-02T12:52:54.752Z</time></trkpt><trkpt lat="44.2075366" lon="11.0186136"><ele>317.2</ele><time>2026-05-02T12:52:55.753Z</time></trkpt><trkpt lat="44.2074711" lon="11.0185518"><ele>319.0</ele><time>2026-05-02T12:52:56.754Z</time></trkpt><trkpt lat="44.2073773" lon="11.0184966"><ele>319.4</ele><time>2026-05-02T12:52:57.753Z</time></trkpt><trkpt lat="44.2072685" lon="11.0184442"><ele>319.79999999999995</ele><time>2026-05-02T12:52:58.756Z</time></trkpt><trkpt lat="44.2071755" lon="11.0183944"><ele>320.20000000000005</ele><time>2026-05-02T12:52:59.756Z</time></trkpt><trkpt lat="44.2070804" lon="11.0183412"><ele>320.6</ele><time>2026-05-02T12:53:00.759Z</time></trkpt><trkpt lat="44.2069786" lon="11.0182752"><ele>321.0</ele><time>2026-05-02T12:53:01.754Z</time></trkpt><trkpt lat="44.2068807" lon="11.0181939"><ele>321.0</ele><time>2026-05-02T12:53:02.755Z</time></trkpt><trkpt lat="44.2067858" lon="11.0181023"><ele>321.0</ele><time>2026-05-02T12:53:03.755Z</time></trkpt><trkpt lat="44.206699" lon="11.0179996"><ele>321.0</ele><time>2026-05-02T12:53:04.753Z</time></trkpt><trkpt lat="44.2066083" lon="11.0178721"><ele>321.0</ele><time>2026-05-02T12:53:05.753Z</time></trkpt><trkpt lat="44.2065208" lon="11.0177257"><ele>320.25</ele><time>2026-05-02T12:53:06.754Z</time></trkpt><trkpt lat="44.2064574" lon="11.017574"><ele>319.5</ele><time>2026-05-02T12:53:07.753Z</time></trkpt><trkpt lat="44.2063955" lon="11.0174368"><ele>318.75</ele><time>2026-05-02T12:53:08.754Z</time></trkpt><trkpt lat="44.2063374" lon="11.0173029"><ele>318.0</ele><time>2026-05-02T12:53:09.757Z</time></trkpt><trkpt lat="44.2062837" lon="11.0171579"><ele>318.0</ele><time>2026-05-02T12:53:10.758Z</time></trkpt><trkpt lat="44.2062321" lon="11.0170083"><ele>318.0</ele><time>2026-05-02T12:53:11.754Z</time></trkpt><trkpt lat="44.2061675" lon="11.0168475"><ele>318.0</ele><time>2026-05-02T12:53:12.752Z</time></trkpt><trkpt lat="44.2060798" lon="11.0166672"><ele>318.0</ele><time>2026-05-02T12:53:13.753Z</time></trkpt><trkpt lat="44.2059921" lon="11.0164787"><ele>318.6666666666667</ele><time>2026-05-02T12:53:14.756Z</time></trkpt><trkpt lat="44.2058549" lon="11.0163088"><ele>319.33333333333337</ele><time>2026-05-02T12:53:15.752Z</time></trkpt><trkpt lat="44.2057233" lon="11.0161436"><ele>320.0</ele><time>2026-05-02T12:53:16.752Z</time></trkpt><trkpt lat="44.2055334" lon="11.0160614"><ele>320.0</ele><time>2026-05-02T12:53:17.752Z</time></trkpt><trkpt lat="44.2053564" lon="11.015955"><ele>320.0</ele><time>2026-05-02T12:53:18.756Z</time></trkpt><trkpt lat="44.2051933" lon="11.0158119"><ele>320.0</ele><time>2026-05-02T12:53:19.751Z</time></trkpt><trkpt lat="44.2050488" lon="11.0156773"><ele>318.0</ele><time>2026-05-02T12:53:20.763Z</time></trkpt><trkpt lat="44.2049134" lon="11.0155458"><ele>316.0</ele><time>2026-05-02T12:53:21.757Z</time></trkpt><trkpt lat="44.2048219" lon="11.0153767"><ele>314.0</ele><time>2026-05-02T12:53:22.755Z</time></trkpt><trkpt lat="44.2047369" lon="11.0151831"><ele>316.33333333333337</ele><time>2026-05-02T12:53:23.755Z</time></trkpt><trkpt lat="44.2046714" lon="11.014951"><ele>318.6666666666667</ele><time>2026-05-02T12:53:24.75Z</time></trkpt><trkpt lat="44.2046151" lon="11.0147183"><ele>321.0</ele><time>2026-05-02T12:53:25.756Z</time></trkpt><trkpt lat="44.2045547" lon="11.014487"><ele>321.0</ele><time>2026-05-02T12:53:26.753Z</time></trkpt><trkpt lat="44.2045063" lon="11.0142613"><ele>321.0</ele><time>2026-05-02T12:53:27.753Z</time></trkpt><trkpt lat="44.204447" lon="11.0140809"><ele>321.0</ele><time>2026-05-02T12:53:28.753Z</time></trkpt><trkpt lat="44.2043627" lon="11.0139437"><ele>321.0</ele><time>2026-05-02T12:53:29.752Z</time></trkpt><trkpt lat="44.2042673" lon="11.0138597"><ele>323.75</ele><time>2026-05-02T12:53:30.752Z</time></trkpt><trkpt lat="44.2041339" lon="11.0138308"><ele>326.5</ele><time>2026-05-02T12:53:31.755Z</time></trkpt><trkpt lat="44.2039893" lon="11.0138572"><ele>329.25</ele><time>2026-05-02T12:53:32.772Z</time></trkpt><trkpt lat="44.2038328" lon="11.0139003"><ele>332.0</ele><time>2026-05-02T12:53:33.749Z</time></trkpt><trkpt lat="44.2036617" lon="11.0139572"><ele>331.33333333333337</ele><time>2026-05-02T12:53:34.757Z</time></trkpt><trkpt lat="44.2034678" lon="11.0140179"><ele>330.6666666666667</ele><time>2026-05-02T12:53:35.754Z</time></trkpt><trkpt lat="44.2032819" lon="11.0140863"><ele>330.0</ele><time>2026-05-02T12:53:36.755Z</time></trkpt><trkpt lat="44.2031081" lon="11.0141622"><ele>330.0</ele><time>2026-05-02T12:53:37.757Z</time></trkpt><trkpt lat="44.2029536" lon="11.0142639"><ele>330.0</ele><time>2026-05-02T12:53:38.754Z</time></trkpt><trkpt lat="44.2028013" lon="11.01439"><ele>330.0</ele><time>2026-05-02T12:53:39.755Z</time></trkpt><trkpt lat="44.2026604" lon="11.0144848"><ele>330.0</ele><time>2026-05-02T12:53:40.757Z</time></trkpt><trkpt lat="44.2024971" lon="11.0145323"><ele>330.0</ele><time>2026-05-02T12:53:41.765Z</time></trkpt><trkpt lat="44.2023211" lon="11.0145684"><ele>330.0</ele><time>2026-05-02T12:53:42.753Z</time></trkpt><trkpt lat="44.2021436" lon="11.0145289"><ele>330.3333333333333</ele><time>2026-05-02T12:53:43.753Z</time></trkpt><trkpt lat="44.201964" lon="11.0145032"><ele>330.66666666666663</ele><time>2026-05-02T12:53:44.755Z</time></trkpt><trkpt lat="44.2018098" lon="11.0143886"><ele>331.0</ele><time>2026-05-02T12:53:45.759Z</time></trkpt><trkpt lat="44.2016569" lon="11.0142862"><ele>331.0</ele><time>2026-05-02T12:53:46.755Z</time></trkpt><trkpt lat="44.2015065" lon="11.0141703"><ele>331.0</ele><time>2026-05-02T12:53:47.752Z</time></trkpt><trkpt lat="44.2013445" lon="11.0140379"><ele>331.0</ele><time>2026-05-02T12:53:48.761Z</time></trkpt><trkpt lat="44.2011899" lon="11.0138935"><ele>331.3333333333333</ele><time>2026-05-02T12:53:49.759Z</time></trkpt><trkpt lat="44.2010519" lon="11.0137182"><ele>331.6666666666667</ele><time>2026-05-02T12:53:50.754Z</time></trkpt><trkpt lat="44.200934" lon="11.0135128"><ele>332.0</ele><time>2026-05-02T12:53:51.755Z</time></trkpt><trkpt lat="44.2008165" lon="11.0132939"><ele>332.0</ele><time>2026-05-02T12:53:52.753Z</time></trkpt><trkpt lat="44.2007007" lon="11.0130545"><ele>332.0</ele><time>2026-05-02T12:53:53.754Z</time></trkpt><trkpt lat="44.200599" lon="11.0127836"><ele>332.0</ele><time>2026-05-02T12:53:54.755Z</time></trkpt><trkpt lat="44.2005128" lon="11.0125245"><ele>330.0</ele><time>2026-05-02T12:53:55.755Z</time></trkpt><trkpt lat="44.2004228" lon="11.0122627"><ele>328.0</ele><time>2026-05-02T12:53:56.757Z</time></trkpt><trkpt lat="44.2003314" lon="11.0120262"><ele>326.0</ele><time>2026-05-02T12:53:57.756Z</time></trkpt><trkpt lat="44.2002352" lon="11.0117921"><ele>328.33333333333337</ele><time>2026-05-02T12:53:58.758Z</time></trkpt><trkpt lat="44.2001122" lon="11.0115785"><ele>330.6666666666667</ele><time>2026-05-02T12:53:59.755Z</time></trkpt><trkpt lat="44.1999981" lon="11.011382"><ele>333.0</ele><time>2026-05-02T12:54:00.75Z</time></trkpt><trkpt lat="44.1998461" lon="11.0112323"><ele>330.0</ele><time>2026-05-02T12:54:01.753Z</time></trkpt><trkpt lat="44.1996909" lon="11.0111108"><ele>327.0</ele><time>2026-05-02T12:54:02.753Z</time></trkpt><trkpt lat="44.1995465" lon="11.0109977"><ele>324.0</ele><time>2026-05-02T12:54:03.755Z</time></trkpt><trkpt lat="44.199426" lon="11.0108717"><ele>324.75</ele><time>2026-05-02T12:54:04.752Z</time></trkpt><trkpt lat="44.1993179" lon="11.0107367"><ele>325.5</ele><time>2026-05-02T12:54:05.759Z</time></trkpt><trkpt lat="44.1993029" lon="11.0105499"><ele>326.25</ele><time>2026-05-02T12:54:06.758Z</time></trkpt><trkpt lat="44.1992935" lon="11.0103409"><ele>327.0</ele><time>2026-05-02T12:54:07.753Z</time></trkpt><trkpt lat="44.1993007" lon="11.0101332"><ele>326.3333333333333</ele><time>2026-05-02T12:54:08.754Z</time></trkpt><trkpt lat="44.1993146" lon="11.0098947"><ele>325.66666666666663</ele><time>2026-05-02T12:54:09.766Z</time></trkpt><trkpt lat="44.1993274" lon="11.009656"><ele>325.0</ele><time>2026-05-02T12:54:10.755Z</time></trkpt><trkpt lat="44.1993526" lon="11.0094052"><ele>325.0</ele><time>2026-05-02T12:54:11.754Z</time></trkpt><trkpt lat="44.1993947" lon="11.0091802"><ele>325.0</ele><time>2026-05-02T12:54:12.75Z</time></trkpt><trkpt lat="44.1994479" lon="11.008961"><ele>325.0</ele><time>2026-05-02T12:54:13.752Z</time></trkpt><trkpt lat="44.1995008" lon="11.0087562"><ele>324.0</ele><time>2026-05-02T12:54:14.755Z</time></trkpt><trkpt lat="44.1995733" lon="11.0085974"><ele>323.0</ele><time>2026-05-02T12:54:15.753Z</time></trkpt><trkpt lat="44.1996197" lon="11.0084208"><ele>322.0</ele><time>2026-05-02T12:54:16.752Z</time></trkpt><trkpt lat="44.1995893" lon="11.0082339"><ele>321.0</ele><time>2026-05-02T12:54:17.765Z</time></trkpt><trkpt lat="44.1995374" lon="11.0080485"><ele>323.75</ele><time>2026-05-02T12:54:18.755Z</time></trkpt><trkpt lat="44.1994743" lon="11.0079061"><ele>326.5</ele><time>2026-05-02T12:54:19.756Z</time></trkpt><trkpt lat="44.199402" lon="11.0077782"><ele>329.25</ele><time>2026-05-02T12:54:20.75Z</time></trkpt><trkpt lat="44.1992674" lon="11.0077311"><ele>332.0</ele><time>2026-05-02T12:54:21.765Z</time></trkpt><trkpt lat="44.1991199" lon="11.0076823"><ele>332.33333333333337</ele><time>2026-05-02T12:54:22.754Z</time></trkpt><trkpt lat="44.1989647" lon="11.0076368"><ele>332.6666666666667</ele><time>2026-05-02T12:54:23.752Z</time></trkpt><trkpt lat="44.1988122" lon="11.0075555"><ele>333.0</ele><time>2026-05-02T12:54:24.75Z</time></trkpt><trkpt lat="44.1986345" lon="11.0074226"><ele>333.0</ele><time>2026-05-02T12:54:25.766Z</time></trkpt><trkpt lat="44.1984683" lon="11.0072938"><ele>333.0</ele><time>2026-05-02T12:54:26.753Z</time></trkpt><trkpt lat="44.1983166" lon="11.0071827"><ele>333.0</ele><time>2026-05-02T12:54:27.757Z</time></trkpt><trkpt lat="44.1981419" lon="11.0070522"><ele>330.0</ele><time>2026-05-02T12:54:28.751Z</time></trkpt><trkpt lat="44.1979793" lon="11.0069271"><ele>327.0</ele><time>2026-05-02T12:54:29.751Z</time></trkpt><trkpt lat="44.1978149" lon="11.0068069"><ele>324.0</ele><time>2026-05-02T12:54:30.76Z</time></trkpt><trkpt lat="44.1976558" lon="11.0066941"><ele>325.3333333333333</ele><time>2026-05-02T12:54:31.756Z</time></trkpt><trkpt lat="44.1975041" lon="11.0066272"><ele>326.66666666666663</ele><time>2026-05-02T12:54:32.752Z</time></trkpt><trkpt lat="44.1973428" lon="11.006569"><ele>328.0</ele><time>2026-05-02T12:54:33.763Z</time></trkpt><trkpt lat="44.1971821" lon="11.0065294"><ele>328.0</ele><time>2026-05-02T12:54:34.768Z</time></trkpt><trkpt lat="44.1970219" lon="11.0065421"><ele>328.0</ele><time>2026-05-02T12:54:35.752Z</time></trkpt><trkpt lat="44.1968523" lon="11.0065713"><ele>328.0</ele><time>2026-05-02T12:54:36.761Z</time></trkpt><trkpt lat="44.1967027" lon="11.0065331"><ele>328.0</ele><time>2026-05-02T12:54:37.757Z</time></trkpt><trkpt lat="44.1965504" lon="11.0064706"><ele>328.0</ele><time>2026-05-02T12:54:38.75Z</time></trkpt><trkpt lat="44.1963872" lon="11.0063655"><ele>328.0</ele><time>2026-05-02T12:54:39.751Z</time></trkpt><trkpt lat="44.1962397" lon="11.0062379"><ele>326.3333333333333</ele><time>2026-05-02T12:54:40.755Z</time></trkpt><trkpt lat="44.1961005" lon="11.0060991"><ele>324.6666666666667</ele><time>2026-05-02T12:54:41.757Z</time></trkpt><trkpt lat="44.1959656" lon="11.0059092"><ele>323.0</ele><time>2026-05-02T12:54:42.756Z</time></trkpt><trkpt lat="44.1958329" lon="11.0057276"><ele>323.0</ele><time>2026-05-02T12:54:43.753Z</time></trkpt><trkpt lat="44.1957013" lon="11.0055575"><ele>323.0</ele><time>2026-05-02T12:54:44.754Z</time></trkpt><trkpt lat="44.1955617" lon="11.0053962"><ele>323.0</ele><time>2026-05-02T12:54:45.754Z</time></trkpt><trkpt lat="44.1954051" lon="11.0052587"><ele>324.0</ele><time>2026-05-02T12:54:46.753Z</time></trkpt><trkpt lat="44.1952467" lon="11.0051477"><ele>325.0</ele><time>2026-05-02T12:54:47.752Z</time></trkpt><trkpt lat="44.1950649" lon="11.0050245"><ele>326.0</ele><time>2026-05-02T12:54:48.753Z</time></trkpt><trkpt lat="44.1948958" lon="11.0049182"><ele>325.0</ele><time>2026-05-02T12:54:49.751Z</time></trkpt><trkpt lat="44.1947246" lon="11.0048125"><ele>324.0</ele><time>2026-05-02T12:54:50.753Z</time></trkpt><trkpt lat="44.1945526" lon="11.0046926"><ele>323.0</ele><time>2026-05-02T12:54:51.753Z</time></trkpt><trkpt lat="44.1943837" lon="11.0045853"><ele>323.0</ele><time>2026-05-02T12:54:52.754Z</time></trkpt><trkpt lat="44.1942176" lon="11.0044725"><ele>323.0</ele><time>2026-05-02T12:54:53.755Z</time></trkpt><trkpt lat="44.1940548" lon="11.0043692"><ele>323.0</ele><time>2026-05-02T12:54:54.755Z</time></trkpt><trkpt lat="44.1939047" lon="11.0042731"><ele>321.6666666666667</ele><time>2026-05-02T12:54:55.752Z</time></trkpt><trkpt lat="44.1937583" lon="11.0041892"><ele>320.3333333333333</ele><time>2026-05-02T12:54:56.757Z</time></trkpt><trkpt lat="44.1936166" lon="11.0041239"><ele>319.0</ele><time>2026-05-02T12:54:57.754Z</time></trkpt><trkpt lat="44.1934736" lon="11.0040807"><ele>319.0</ele><time>2026-05-02T12:54:58.753Z</time></trkpt><trkpt lat="44.1933539" lon="11.004049"><ele>319.0</ele><time>2026-05-02T12:54:59.762Z</time></trkpt><trkpt lat="44.1932525" lon="11.0040516"><ele>319.0</ele><time>2026-05-02T12:55:00.761Z</time></trkpt><trkpt lat="44.1931457" lon="11.0040757"><ele>319.0</ele><time>2026-05-02T12:55:01.753Z</time></trkpt><trkpt lat="44.1930662" lon="11.0041345"><ele>319.0</ele><time>2026-05-02T12:55:02.755Z</time></trkpt><trkpt lat="44.1929999" lon="11.0042584"><ele>319.0</ele><time>2026-05-02T12:55:03.753Z</time></trkpt><trkpt lat="44.1929186" lon="11.004356"><ele>319.0</ele><time>2026-05-02T12:55:04.76Z</time></trkpt><trkpt lat="44.1928433" lon="11.0044148"><ele>319.0</ele><time>2026-05-02T12:55:05.749Z</time></trkpt><trkpt lat="44.1927529" lon="11.0044496"><ele>319.0</ele><time>2026-05-02T12:55:06.751Z</time></trkpt><trkpt lat="44.1926371" lon="11.0044255"><ele>319.0</ele><time>2026-05-02T12:55:07.747Z</time></trkpt><trkpt lat="44.1925086" lon="11.0043676"><ele>319.0</ele><time>2026-05-02T12:55:08.746Z</time></trkpt><trkpt lat="44.1923725" lon="11.0043037"><ele>319.0</ele><time>2026-05-02T12:55:09.753Z</time></trkpt><trkpt lat="44.1922307" lon="11.004216"><ele>319.0</ele><time>2026-05-02T12:55:10.756Z</time></trkpt><trkpt lat="44.1920963" lon="11.0041268"><ele>319.0</ele><time>2026-05-02T12:55:11.753Z</time></trkpt><trkpt lat="44.1919658" lon="11.0040585"><ele>319.2</ele><time>2026-05-02T12:55:12.756Z</time></trkpt><trkpt lat="44.1918454" lon="11.0040244"><ele>319.4</ele><time>2026-05-02T12:55:13.756Z</time></trkpt><trkpt lat="44.1917526" lon="11.0040326"><ele>319.6</ele><time>2026-05-02T12:55:14.75Z</time></trkpt><trkpt lat="44.1916669" lon="11.0040593"><ele>319.8</ele><time>2026-05-02T12:55:15.752Z</time></trkpt><trkpt lat="44.1915929" lon="11.004096"><ele>320.0</ele><time>2026-05-02T12:55:16.753Z</time></trkpt><trkpt lat="44.1914892" lon="11.0040533"><ele>318.2</ele><time>2026-05-02T12:55:18.752Z</time></trkpt><trkpt lat="44.1914313" lon="11.0039873"><ele>316.4</ele><time>2026-05-02T12:55:19.751Z</time></trkpt><trkpt lat="44.1913642" lon="11.0039151"><ele>314.6</ele><time>2026-05-02T12:55:20.755Z</time></trkpt><trkpt lat="44.1912678" lon="11.0038515"><ele>312.8</ele><time>2026-05-02T12:55:21.754Z</time></trkpt><trkpt lat="44.1911611" lon="11.0037601"><ele>311.0</ele><time>2026-05-02T12:55:22.754Z</time></trkpt><trkpt lat="44.1910623" lon="11.0036195"><ele>311.0</ele><time>2026-05-02T12:55:23.752Z</time></trkpt><trkpt lat="44.1909555" lon="11.0034546"><ele>311.0</ele><time>2026-05-02T12:55:24.752Z</time></trkpt><trkpt lat="44.190846" lon="11.0032777"><ele>311.0</ele><time>2026-05-02T12:55:25.753Z</time></trkpt><trkpt lat="44.1907183" lon="11.0030962"><ele>311.0</ele><time>2026-05-02T12:55:26.752Z</time></trkpt><trkpt lat="44.1905913" lon="11.0028978"><ele>311.0</ele><time>2026-05-02T12:55:27.755Z</time></trkpt><trkpt lat="44.1904521" lon="11.0027"><ele>311.0</ele><time>2026-05-02T12:55:28.752Z</time></trkpt><trkpt lat="44.190311" lon="11.0024973"><ele>314.0</ele><time>2026-05-02T12:55:29.761Z</time></trkpt><trkpt lat="44.190167" lon="11.0022945"><ele>317.0</ele><time>2026-05-02T12:55:30.757Z</time></trkpt><trkpt lat="44.1900236" lon="11.0020822"><ele>320.0</ele><time>2026-05-02T12:55:31.756Z</time></trkpt><trkpt lat="44.1898795" lon="11.0018715"><ele>318.6666666666667</ele><time>2026-05-02T12:55:32.751Z</time></trkpt><trkpt lat="44.1897318" lon="11.0016771"><ele>317.3333333333333</ele><time>2026-05-02T12:55:33.754Z</time></trkpt><trkpt lat="44.189588" lon="11.0014766"><ele>316.0</ele><time>2026-05-02T12:55:34.752Z</time></trkpt><trkpt lat="44.1894583" lon="11.0012709"><ele>316.0</ele><time>2026-05-02T12:55:35.755Z</time></trkpt><trkpt lat="44.1893191" lon="11.0010799"><ele>316.0</ele><time>2026-05-02T12:55:36.753Z</time></trkpt><trkpt lat="44.1891934" lon="11.0008971"><ele>316.0</ele><time>2026-05-02T12:55:37.756Z</time></trkpt><trkpt lat="44.1890658" lon="11.0007278"><ele>315.3333333333333</ele><time>2026-05-02T12:55:38.754Z</time></trkpt><trkpt lat="44.1889475" lon="11.0005652"><ele>314.6666666666667</ele><time>2026-05-02T12:55:39.751Z</time></trkpt><trkpt lat="44.1888342" lon="11.0004023"><ele>314.0</ele><time>2026-05-02T12:55:40.763Z</time></trkpt><trkpt lat="44.1887173" lon="11.000247"><ele>314.0</ele><time>2026-05-02T12:55:41.754Z</time></trkpt><trkpt lat="44.1885956" lon="11.000088"><ele>314.0</ele><time>2026-05-02T12:55:42.757Z</time></trkpt><trkpt lat="44.1884798" lon="10.9999249"><ele>314.0</ele><time>2026-05-02T12:55:43.756Z</time></trkpt><trkpt lat="44.1883719" lon="10.9997733"><ele>314.0</ele><time>2026-05-02T12:55:44.755Z</time></trkpt><trkpt lat="44.1882696" lon="10.999633"><ele>314.0</ele><time>2026-05-02T12:55:45.754Z</time></trkpt><trkpt lat="44.1881758" lon="10.9995016"><ele>314.0</ele><time>2026-05-02T12:55:46.76Z</time></trkpt><trkpt lat="44.1880967" lon="10.9993799"><ele>314.0</ele><time>2026-05-02T12:55:47.756Z</time></trkpt><trkpt lat="44.1880293" lon="10.9992856"><ele>313.59999999999997</ele><time>2026-05-02T12:55:48.756Z</time></trkpt><trkpt lat="44.1879693" lon="10.9992134"><ele>313.2</ele><time>2026-05-02T12:55:49.75Z</time></trkpt><trkpt lat="44.187896" lon="10.9991108"><ele>312.79999999999995</ele><time>2026-05-02T12:55:51.758Z</time></trkpt><trkpt lat="44.1878281" lon="10.9990428"><ele>312.4</ele><time>2026-05-02T12:55:53.747Z</time></trkpt><trkpt lat="44.1877558" lon="10.9988919"><ele>312.0</ele><time>2026-05-02T12:55:55.755Z</time></trkpt><trkpt lat="44.1876932" lon="10.9988279"><ele>312.0</ele><time>2026-05-02T12:55:56.751Z</time></trkpt><trkpt lat="44.1876339" lon="10.9987515"><ele>312.0</ele><time>2026-05-02T12:55:58.759Z</time></trkpt><trkpt lat="44.1876174" lon="10.9986507"><ele>312.0</ele><time>2026-05-02T12:56:02.754Z</time></trkpt><trkpt lat="44.187544" lon="10.998562"><ele>312.0</ele><time>2026-05-02T12:57:38.761Z</time></trkpt><trkpt lat="44.1874864" lon="10.9984892"><ele>312.0</ele><time>2026-05-02T12:57:39.761Z</time></trkpt><trkpt lat="44.1874207" lon="10.9984059"><ele>312.0</ele><time>2026-05-02T12:57:40.749Z</time></trkpt><trkpt lat="44.1873433" lon="10.9983222"><ele>313.75</ele><time>2026-05-02T12:57:41.764Z</time></trkpt><trkpt lat="44.1872535" lon="10.9982185"><ele>315.5</ele><time>2026-05-02T12:57:42.767Z</time></trkpt><trkpt lat="44.1871748" lon="10.9981153"><ele>317.25</ele><time>2026-05-02T12:57:43.752Z</time></trkpt><trkpt lat="44.1871004" lon="10.997999"><ele>319.0</ele><time>2026-05-02T12:57:44.753Z</time></trkpt><trkpt lat="44.1870165" lon="10.9978685"><ele>319.0</ele><time>2026-05-02T12:57:45.756Z</time></trkpt><trkpt lat="44.186936" lon="10.9977331"><ele>319.0</ele><time>2026-05-02T12:57:46.752Z</time></trkpt><trkpt lat="44.186858" lon="10.9975974"><ele>319.0</ele><time>2026-05-02T12:57:47.742Z</time></trkpt><trkpt lat="44.1867894" lon="10.997454"><ele>319.0</ele><time>2026-05-02T12:57:48.763Z</time></trkpt><trkpt lat="44.1867197" lon="10.9973032"><ele>318.0</ele><time>2026-05-02T12:57:49.758Z</time></trkpt><trkpt lat="44.1866579" lon="10.9971506"><ele>317.0</ele><time>2026-05-02T12:57:50.753Z</time></trkpt><trkpt lat="44.1865894" lon="10.9969912"><ele>316.0</ele><time>2026-05-02T12:57:51.762Z</time></trkpt><trkpt lat="44.1865298" lon="10.9968327"><ele>315.0</ele><time>2026-05-02T12:57:52.754Z</time></trkpt><trkpt lat="44.1864829" lon="10.9966852"><ele>316.0</ele><time>2026-05-02T12:57:53.757Z</time></trkpt><trkpt lat="44.1864349" lon="10.9965276"><ele>317.0</ele><time>2026-05-02T12:57:54.757Z</time></trkpt><trkpt lat="44.186399" lon="10.996382"><ele>318.0</ele><time>2026-05-02T12:57:55.756Z</time></trkpt><trkpt lat="44.1863646" lon="10.9962456"><ele>319.0</ele><time>2026-05-02T12:57:56.756Z</time></trkpt><trkpt lat="44.1863224" lon="10.9960853"><ele>319.0</ele><time>2026-05-02T12:57:57.756Z</time></trkpt><trkpt lat="44.1862802" lon="10.9959304"><ele>319.0</ele><time>2026-05-02T12:57:58.761Z</time></trkpt><trkpt lat="44.1862388" lon="10.9957676"><ele>319.0</ele><time>2026-05-02T12:57:59.757Z</time></trkpt><trkpt lat="44.1861968" lon="10.9955977"><ele>319.0</ele><time>2026-05-02T12:58:00.757Z</time></trkpt><trkpt lat="44.1861578" lon="10.9954202"><ele>320.5</ele><time>2026-05-02T12:58:01.756Z</time></trkpt><trkpt lat="44.1861216" lon="10.9952366"><ele>322.0</ele><time>2026-05-02T12:58:02.756Z</time></trkpt><trkpt lat="44.1860843" lon="10.9950439"><ele>323.5</ele><time>2026-05-02T12:58:03.757Z</time></trkpt><trkpt lat="44.1860483" lon="10.9948623"><ele>325.0</ele><time>2026-05-02T12:58:04.755Z</time></trkpt><trkpt lat="44.1860008" lon="10.9946535"><ele>325.66666666666663</ele><time>2026-05-02T12:58:05.76Z</time></trkpt><trkpt lat="44.1859599" lon="10.9944454"><ele>326.3333333333333</ele><time>2026-05-02T12:58:06.756Z</time></trkpt><trkpt lat="44.1859077" lon="10.9942386"><ele>327.0</ele><time>2026-05-02T12:58:07.753Z</time></trkpt><trkpt lat="44.1858563" lon="10.9940399"><ele>327.25</ele><time>2026-05-02T12:58:08.763Z</time></trkpt><trkpt lat="44.1858091" lon="10.9938615"><ele>327.5</ele><time>2026-05-02T12:58:09.757Z</time></trkpt><trkpt lat="44.1857587" lon="10.9936672"><ele>327.75</ele><time>2026-05-02T12:58:10.753Z</time></trkpt><trkpt lat="44.1857103" lon="10.9934782"><ele>328.0</ele><time>2026-05-02T12:58:11.759Z</time></trkpt><trkpt lat="44.1856617" lon="10.993298"><ele>323.66666666666663</ele><time>2026-05-02T12:58:12.762Z</time></trkpt><trkpt lat="44.1856083" lon="10.9930878"><ele>319.3333333333333</ele><time>2026-05-02T12:58:13.758Z</time></trkpt><trkpt lat="44.1855552" lon="10.9928889"><ele>315.0</ele><time>2026-05-02T12:58:14.758Z</time></trkpt><trkpt lat="44.1854998" lon="10.9926885"><ele>317.6666666666667</ele><time>2026-05-02T12:58:15.76Z</time></trkpt><trkpt lat="44.1854389" lon="10.9924921"><ele>320.33333333333337</ele><time>2026-05-02T12:58:16.758Z</time></trkpt><trkpt lat="44.1853682" lon="10.9923035"><ele>323.0</ele><time>2026-05-02T12:58:17.753Z</time></trkpt><trkpt lat="44.1852856" lon="10.9921166"><ele>323.0</ele><time>2026-05-02T12:58:18.755Z</time></trkpt><trkpt lat="44.1851982" lon="10.9919329"><ele>323.0</ele><time>2026-05-02T12:58:19.756Z</time></trkpt><trkpt lat="44.1850984" lon="10.991755"><ele>323.0</ele><time>2026-05-02T12:58:20.754Z</time></trkpt><trkpt lat="44.1849879" lon="10.9915837"><ele>322.0</ele><time>2026-05-02T12:58:21.756Z</time></trkpt><trkpt lat="44.1848686" lon="10.991411"><ele>321.0</ele><time>2026-05-02T12:58:22.754Z</time></trkpt><trkpt lat="44.1847468" lon="10.9912322"><ele>320.0</ele><time>2026-05-02T12:58:23.75Z</time></trkpt><trkpt lat="44.1846221" lon="10.9910593"><ele>320.0</ele><time>2026-05-02T12:58:24.756Z</time></trkpt><trkpt lat="44.1845033" lon="10.9908971"><ele>320.0</ele><time>2026-05-02T12:58:25.754Z</time></trkpt><trkpt lat="44.1843741" lon="10.9907127"><ele>320.0</ele><time>2026-05-02T12:58:26.769Z</time></trkpt><trkpt lat="44.1842546" lon="10.9905442"><ele>319.6666666666667</ele><time>2026-05-02T12:58:27.757Z</time></trkpt><trkpt lat="44.1841368" lon="10.9903751"><ele>319.3333333333333</ele><time>2026-05-02T12:58:28.763Z</time></trkpt><trkpt lat="44.1840226" lon="10.9902103"><ele>319.0</ele><time>2026-05-02T12:58:29.754Z</time></trkpt><trkpt lat="44.1839073" lon="10.9900466"><ele>320.0</ele><time>2026-05-02T12:58:30.755Z</time></trkpt><trkpt lat="44.1837995" lon="10.9898806"><ele>321.0</ele><time>2026-05-02T12:58:31.758Z</time></trkpt><trkpt lat="44.1836943" lon="10.9897072"><ele>322.0</ele><time>2026-05-02T12:58:32.754Z</time></trkpt><trkpt lat="44.1835931" lon="10.9895252"><ele>322.0</ele><time>2026-05-02T12:58:33.751Z</time></trkpt><trkpt lat="44.183499" lon="10.9893435"><ele>322.0</ele><time>2026-05-02T12:58:34.755Z</time></trkpt><trkpt lat="44.183419" lon="10.9891411"><ele>322.0</ele><time>2026-05-02T12:58:35.756Z</time></trkpt><trkpt lat="44.1833351" lon="10.9889419"><ele>321.66666666666663</ele><time>2026-05-02T12:58:36.754Z</time></trkpt><trkpt lat="44.183252" lon="10.9887236"><ele>321.3333333333333</ele><time>2026-05-02T12:58:37.761Z</time></trkpt><trkpt lat="44.1831662" lon="10.9884953"><ele>321.0</ele><time>2026-05-02T12:58:38.756Z</time></trkpt><trkpt lat="44.1830555" lon="10.9882345"><ele>321.0</ele><time>2026-05-02T12:58:39.753Z</time></trkpt><trkpt lat="44.1829613" lon="10.9879808"><ele>321.0</ele><time>2026-05-02T12:58:40.76Z</time></trkpt><trkpt lat="44.1828746" lon="10.9877388"><ele>321.0</ele><time>2026-05-02T12:58:41.754Z</time></trkpt><trkpt lat="44.1827764" lon="10.9875166"><ele>322.3333333333333</ele><time>2026-05-02T12:58:42.751Z</time></trkpt><trkpt lat="44.182662" lon="10.9873236"><ele>323.66666666666663</ele><time>2026-05-02T12:58:43.75Z</time></trkpt><trkpt lat="44.182549" lon="10.9871492"><ele>325.0</ele><time>2026-05-02T12:58:44.756Z</time></trkpt><trkpt lat="44.1824386" lon="10.9869846"><ele>324.6</ele><time>2026-05-02T12:58:45.754Z</time></trkpt><trkpt lat="44.1823383" lon="10.986841"><ele>324.2</ele><time>2026-05-02T12:58:46.757Z</time></trkpt><trkpt lat="44.1822554" lon="10.9866972"><ele>323.79999999999995</ele><time>2026-05-02T12:58:47.753Z</time></trkpt><trkpt lat="44.1822474" lon="10.9865825"><ele>323.4</ele><time>2026-05-02T12:58:48.759Z</time></trkpt><trkpt lat="44.1822203" lon="10.9864635"><ele>323.0</ele><time>2026-05-02T12:58:49.753Z</time></trkpt><trkpt lat="44.1822022" lon="10.9863658"><ele>323.0</ele><time>2026-05-02T12:58:50.751Z</time></trkpt><trkpt lat="44.1820958" lon="10.9862665"><ele>323.0</ele><time>2026-05-02T12:58:52.753Z</time></trkpt><trkpt lat="44.1820091" lon="10.9862651"><ele>323.0</ele><time>2026-05-02T12:58:53.753Z</time></trkpt><trkpt lat="44.181898" lon="10.9862436"><ele>323.0</ele><time>2026-05-02T12:58:54.754Z</time></trkpt><trkpt lat="44.1818081" lon="10.9861803"><ele>323.0</ele><time>2026-05-02T12:58:55.749Z</time></trkpt><trkpt lat="44.1817022" lon="10.9860829"><ele>323.0</ele><time>2026-05-02T12:58:56.755Z</time></trkpt><trkpt lat="44.1815858" lon="10.9859271"><ele>323.0</ele><time>2026-05-02T12:58:57.751Z</time></trkpt><trkpt lat="44.1814587" lon="10.9857459"><ele>323.0</ele><time>2026-05-02T12:58:58.749Z</time></trkpt><trkpt lat="44.181318" lon="10.9855657"><ele>323.0</ele><time>2026-05-02T12:58:59.753Z</time></trkpt><trkpt lat="44.1811694" lon="10.9853686"><ele>323.0</ele><time>2026-05-02T12:59:00.75Z</time></trkpt><trkpt lat="44.1810202" lon="10.9851632"><ele>323.0</ele><time>2026-05-02T12:59:01.754Z</time></trkpt><trkpt lat="44.1808738" lon="10.9849523"><ele>324.0</ele><time>2026-05-02T12:59:02.749Z</time></trkpt><trkpt lat="44.1807248" lon="10.9847529"><ele>325.0</ele><time>2026-05-02T12:59:03.75Z</time></trkpt><trkpt lat="44.1805864" lon="10.9845461"><ele>326.0</ele><time>2026-05-02T12:59:04.753Z</time></trkpt><trkpt lat="44.1804555" lon="10.98434"><ele>325.0</ele><time>2026-05-02T12:59:05.751Z</time></trkpt><trkpt lat="44.1803512" lon="10.984128"><ele>324.0</ele><time>2026-05-02T12:59:06.756Z</time></trkpt><trkpt lat="44.1802453" lon="10.9839323"><ele>323.0</ele><time>2026-05-02T12:59:07.751Z</time></trkpt><trkpt lat="44.1801534" lon="10.9837293"><ele>323.0</ele><time>2026-05-02T12:59:08.754Z</time></trkpt><trkpt lat="44.1800705" lon="10.9835155"><ele>323.0</ele><time>2026-05-02T12:59:09.75Z</time></trkpt><trkpt lat="44.1799965" lon="10.9832805"><ele>323.0</ele><time>2026-05-02T12:59:10.753Z</time></trkpt><trkpt lat="44.1799128" lon="10.9830707"><ele>323.6666666666667</ele><time>2026-05-02T12:59:11.754Z</time></trkpt><trkpt lat="44.1798279" lon="10.9828622"><ele>324.3333333333333</ele><time>2026-05-02T12:59:12.755Z</time></trkpt><trkpt lat="44.1797413" lon="10.9826455"><ele>325.0</ele><time>2026-05-02T12:59:13.765Z</time></trkpt><trkpt lat="44.1796469" lon="10.9824168"><ele>325.0</ele><time>2026-05-02T12:59:14.752Z</time></trkpt><trkpt lat="44.1795382" lon="10.9821806"><ele>325.0</ele><time>2026-05-02T12:59:15.747Z</time></trkpt><trkpt lat="44.1794147" lon="10.9819445"><ele>325.0</ele><time>2026-05-02T12:59:16.753Z</time></trkpt><trkpt lat="44.1792795" lon="10.9817097"><ele>325.5</ele><time>2026-05-02T12:59:17.773Z</time></trkpt><trkpt lat="44.1791377" lon="10.9814731"><ele>326.0</ele><time>2026-05-02T12:59:18.751Z</time></trkpt><trkpt lat="44.1789713" lon="10.9812304"><ele>326.0</ele><time>2026-05-02T12:59:19.754Z</time></trkpt><trkpt lat="44.1787901" lon="10.9810153"><ele>326.0</ele><time>2026-05-02T12:59:20.756Z</time></trkpt><trkpt lat="44.1785997" lon="10.9808155"><ele>326.0</ele><time>2026-05-02T12:59:21.753Z</time></trkpt><trkpt lat="44.1783982" lon="10.9806271"><ele>326.0</ele><time>2026-05-02T12:59:22.752Z</time></trkpt><trkpt lat="44.1781899" lon="10.9804505"><ele>327.0</ele><time>2026-05-02T12:59:23.752Z</time></trkpt><trkpt lat="44.1779663" lon="10.9802887"><ele>328.0</ele><time>2026-05-02T12:59:24.762Z</time></trkpt><trkpt lat="44.1777407" lon="10.9801495"><ele>328.0</ele><time>2026-05-02T12:59:25.751Z</time></trkpt><trkpt lat="44.1775145" lon="10.9800211"><ele>328.0</ele><time>2026-05-02T12:59:26.756Z</time></trkpt><trkpt lat="44.1772659" lon="10.9799144"><ele>326.5</ele><time>2026-05-02T12:59:27.763Z</time></trkpt><trkpt lat="44.1770236" lon="10.9798413"><ele>325.0</ele><time>2026-05-02T12:59:28.756Z</time></trkpt><trkpt lat="44.1767776" lon="10.9797604"><ele>324.5</ele><time>2026-05-02T12:59:29.754Z</time></trkpt><trkpt lat="44.1765158" lon="10.9797028"><ele>324.0</ele><time>2026-05-02T12:59:30.75Z</time></trkpt><trkpt lat="44.1762642" lon="10.9796974"><ele>324.0</ele><time>2026-05-02T12:59:31.752Z</time></trkpt><trkpt lat="44.1760096" lon="10.9796752"><ele>324.0</ele><time>2026-05-02T12:59:32.753Z</time></trkpt><trkpt lat="44.1757529" lon="10.9796674"><ele>324.5</ele><time>2026-05-02T12:59:33.759Z</time></trkpt><trkpt lat="44.1755051" lon="10.9796482"><ele>325.0</ele><time>2026-05-02T12:59:34.751Z</time></trkpt><trkpt lat="44.1752411" lon="10.9796292"><ele>325.0</ele><time>2026-05-02T12:59:35.756Z</time></trkpt><trkpt lat="44.1749802" lon="10.9796185"><ele>325.0</ele><time>2026-05-02T12:59:36.753Z</time></trkpt><trkpt lat="44.1747189" lon="10.9795998"><ele>325.0</ele><time>2026-05-02T12:59:37.757Z</time></trkpt><trkpt lat="44.1744513" lon="10.9795771"><ele>325.0</ele><time>2026-05-02T12:59:38.756Z</time></trkpt><trkpt lat="44.1741882" lon="10.9795992"><ele>326.0</ele><time>2026-05-02T12:59:39.763Z</time></trkpt><trkpt lat="44.1739346" lon="10.9795986"><ele>327.0</ele><time>2026-05-02T12:59:40.752Z</time></trkpt><trkpt lat="44.1736692" lon="10.9795731"><ele>327.0</ele><time>2026-05-02T12:59:41.754Z</time></trkpt><trkpt lat="44.1734145" lon="10.9795494"><ele>327.0</ele><time>2026-05-02T12:59:42.757Z</time></trkpt><trkpt lat="44.1731537" lon="10.9794955"><ele>328.0</ele><time>2026-05-02T12:59:43.754Z</time></trkpt><trkpt lat="44.1728994" lon="10.9794365"><ele>329.0</ele><time>2026-05-02T12:59:44.755Z</time></trkpt><trkpt lat="44.1726468" lon="10.9793485"><ele>329.0</ele><time>2026-05-02T12:59:45.767Z</time></trkpt><trkpt lat="44.1724052" lon="10.9792315"><ele>329.0</ele><time>2026-05-02T12:59:46.755Z</time></trkpt><trkpt lat="44.1721561" lon="10.9791139"><ele>328.5</ele><time>2026-05-02T12:59:47.755Z</time></trkpt><trkpt lat="44.171913" lon="10.9789926"><ele>328.0</ele><time>2026-05-02T12:59:48.761Z</time></trkpt><trkpt lat="44.1716653" lon="10.9788729"><ele>329.0</ele><time>2026-05-02T12:59:49.755Z</time></trkpt><trkpt lat="44.1714182" lon="10.9787668"><ele>330.0</ele><time>2026-05-02T12:59:50.754Z</time></trkpt><trkpt lat="44.1711615" lon="10.9786427"><ele>330.0</ele><time>2026-05-02T12:59:51.758Z</time></trkpt><trkpt lat="44.1709186" lon="10.97851"><ele>330.0</ele><time>2026-05-02T12:59:52.753Z</time></trkpt><trkpt lat="44.1706803" lon="10.9783908"><ele>330.5</ele><time>2026-05-02T12:59:53.759Z</time></trkpt><trkpt lat="44.1704258" lon="10.9782684"><ele>331.0</ele><time>2026-05-02T12:59:54.754Z</time></trkpt><trkpt lat="44.1701855" lon="10.9781272"><ele>331.0</ele><time>2026-05-02T12:59:55.747Z</time></trkpt><trkpt lat="44.169942" lon="10.9779903"><ele>331.0</ele><time>2026-05-02T12:59:56.754Z</time></trkpt><trkpt lat="44.1696904" lon="10.9778655"><ele>330.5</ele><time>2026-05-02T12:59:57.756Z</time></trkpt><trkpt lat="44.1694386" lon="10.9777458"><ele>330.0</ele><time>2026-05-02T12:59:58.753Z</time></trkpt><trkpt lat="44.1691841" lon="10.9776255"><ele>331.0</ele><time>2026-05-02T12:59:59.754Z</time></trkpt><trkpt lat="44.1689373" lon="10.9775084"><ele>332.0</ele><time>2026-05-02T13:00:00.75Z</time></trkpt><trkpt lat="44.1686828" lon="10.9773835"><ele>332.0</ele><time>2026-05-02T13:00:01.756Z</time></trkpt><trkpt lat="44.1684391" lon="10.977248"><ele>332.0</ele><time>2026-05-02T13:00:02.754Z</time></trkpt><trkpt lat="44.1681952" lon="10.9771253"><ele>333.0</ele><time>2026-05-02T13:00:03.754Z</time></trkpt><trkpt lat="44.1679477" lon="10.9770003"><ele>334.0</ele><time>2026-05-02T13:00:04.754Z</time></trkpt><trkpt lat="44.1677015" lon="10.9768806"><ele>334.0</ele><time>2026-05-02T13:00:05.741Z</time></trkpt><trkpt lat="44.1674637" lon="10.9767348"><ele>334.0</ele><time>2026-05-02T13:00:06.752Z</time></trkpt><trkpt lat="44.1672343" lon="10.9766149"><ele>335.0</ele><time>2026-05-02T13:00:07.761Z</time></trkpt><trkpt lat="44.1669932" lon="10.9765004"><ele>336.0</ele><time>2026-05-02T13:00:08.756Z</time></trkpt><trkpt lat="44.1667534" lon="10.9763855"><ele>336.5</ele><time>2026-05-02T13:00:09.762Z</time></trkpt><trkpt lat="44.1665177" lon="10.9762615"><ele>337.0</ele><time>2026-05-02T13:00:10.756Z</time></trkpt><trkpt lat="44.166285" lon="10.9761443"><ele>337.0</ele><time>2026-05-02T13:00:11.748Z</time></trkpt><trkpt lat="44.1660512" lon="10.9760284"><ele>337.0</ele><time>2026-05-02T13:00:12.753Z</time></trkpt><trkpt lat="44.1658229" lon="10.9759146"><ele>337.0</ele><time>2026-05-02T13:00:13.753Z</time></trkpt><trkpt lat="44.1655987" lon="10.9757965"><ele>337.0</ele><time>2026-05-02T13:00:14.751Z</time></trkpt><trkpt lat="44.1653737" lon="10.975677"><ele>337.0</ele><time>2026-05-02T13:00:15.748Z</time></trkpt><trkpt lat="44.1651422" lon="10.9755593"><ele>337.0</ele><time>2026-05-02T13:00:16.757Z</time></trkpt><trkpt lat="44.1649262" lon="10.9754109"><ele>337.0</ele><time>2026-05-02T13:00:17.755Z</time></trkpt><trkpt lat="44.164711" lon="10.9752892"><ele>337.0</ele><time>2026-05-02T13:00:18.758Z</time></trkpt><trkpt lat="44.1644968" lon="10.9751959"><ele>337.0</ele><time>2026-05-02T13:00:19.752Z</time></trkpt><trkpt lat="44.1642739" lon="10.9751269"><ele>337.0</ele><time>2026-05-02T13:00:20.755Z</time></trkpt><trkpt lat="44.1640394" lon="10.9751067"><ele>338.0</ele><time>2026-05-02T13:00:21.759Z</time></trkpt><trkpt lat="44.163811" lon="10.9750963"><ele>339.0</ele><time>2026-05-02T13:00:22.761Z</time></trkpt><trkpt lat="44.1635808" lon="10.9751161"><ele>339.0</ele><time>2026-05-02T13:00:23.756Z</time></trkpt><trkpt lat="44.1633622" lon="10.9751317"><ele>339.0</ele><time>2026-05-02T13:00:24.753Z</time></trkpt><trkpt lat="44.1631306" lon="10.975221"><ele>339.5</ele><time>2026-05-02T13:00:25.76Z</time></trkpt><trkpt lat="44.162898" lon="10.9753199"><ele>340.0</ele><time>2026-05-02T13:00:26.753Z</time></trkpt><trkpt lat="44.1626852" lon="10.9754465"><ele>340.0</ele><time>2026-05-02T13:00:27.75Z</time></trkpt><trkpt lat="44.162486" lon="10.9756006"><ele>340.0</ele><time>2026-05-02T13:00:28.763Z</time></trkpt><trkpt lat="44.1622823" lon="10.9758176"><ele>344.5</ele><time>2026-05-02T13:00:29.763Z</time></trkpt><trkpt lat="44.1620943" lon="10.9760214"><ele>349.0</ele><time>2026-05-02T13:00:30.747Z</time></trkpt><trkpt lat="44.161907" lon="10.9762215"><ele>349.0</ele><time>2026-05-02T13:00:31.75Z</time></trkpt><trkpt lat="44.1617354" lon="10.9764553"><ele>349.0</ele><time>2026-05-02T13:00:32.759Z</time></trkpt><trkpt lat="44.1615645" lon="10.9766828"><ele>353.5</ele><time>2026-05-02T13:00:33.74Z</time></trkpt><trkpt lat="44.1613614" lon="10.9769235"><ele>358.0</ele><time>2026-05-02T13:00:34.754Z</time></trkpt><trkpt lat="44.1611859" lon="10.9771568"><ele>358.0</ele><time>2026-05-02T13:00:35.753Z</time></trkpt><trkpt lat="44.161001" lon="10.9773854"><ele>358.0</ele><time>2026-05-02T13:00:36.752Z</time></trkpt><trkpt lat="44.1608204" lon="10.9776054"><ele>362.5</ele><time>2026-05-02T13:00:37.753Z</time></trkpt><trkpt lat="44.1606288" lon="10.9778319"><ele>367.0</ele><time>2026-05-02T13:00:38.757Z</time></trkpt><trkpt lat="44.1604411" lon="10.9780436"><ele>367.0</ele><time>2026-05-02T13:00:39.76Z</time></trkpt><trkpt lat="44.1602502" lon="10.9782507"><ele>367.0</ele><time>2026-05-02T13:00:40.756Z</time></trkpt><trkpt lat="44.160054" lon="10.9784581"><ele>368.5</ele><time>2026-05-02T13:00:41.761Z</time></trkpt><trkpt lat="44.1598639" lon="10.978656"><ele>370.0</ele><time>2026-05-02T13:00:42.765Z</time></trkpt><trkpt lat="44.1596719" lon="10.9788562"><ele>370.0</ele><time>2026-05-02T13:00:43.754Z</time></trkpt><trkpt lat="44.1594756" lon="10.9790549"><ele>370.0</ele><time>2026-05-02T13:00:44.75Z</time></trkpt><trkpt lat="44.1592859" lon="10.9792559"><ele>368.5</ele><time>2026-05-02T13:00:45.739Z</time></trkpt><trkpt lat="44.1590812" lon="10.9794753"><ele>367.0</ele><time>2026-05-02T13:00:46.757Z</time></trkpt><trkpt lat="44.1588897" lon="10.9796719"><ele>367.0</ele><time>2026-05-02T13:00:47.76Z</time></trkpt><trkpt lat="44.1587032" lon="10.9798672"><ele>367.0</ele><time>2026-05-02T13:00:48.755Z</time></trkpt><trkpt lat="44.158504" lon="10.9800506"><ele>371.0</ele><time>2026-05-02T13:00:49.755Z</time></trkpt><trkpt lat="44.1583137" lon="10.9802411"><ele>375.0</ele><time>2026-05-02T13:00:50.756Z</time></trkpt><trkpt lat="44.1581287" lon="10.9804279"><ele>382.0</ele><time>2026-05-02T13:00:51.755Z</time></trkpt><trkpt lat="44.1579385" lon="10.9806264"><ele>389.0</ele><time>2026-05-02T13:00:52.755Z</time></trkpt><trkpt lat="44.1577495" lon="10.9808306"><ele>384.0</ele><time>2026-05-02T13:00:53.752Z</time></trkpt><trkpt lat="44.1575634" lon="10.9810399"><ele>379.0</ele><time>2026-05-02T13:00:54.752Z</time></trkpt><trkpt lat="44.1507553" lon="10.9855338"><ele>388.0</ele><time>2026-05-02T13:01:25.747Z</time></trkpt><trkpt lat="44.1504876" lon="10.9855526"><ele>397.0</ele><time>2026-05-02T13:01:26.755Z</time></trkpt><trkpt lat="44.1502405" lon="10.9855918"><ele>397.0</ele><time>2026-05-02T13:01:27.751Z</time></trkpt><trkpt lat="44.1500052" lon="10.9856323"><ele>397.0</ele><time>2026-05-02T13:01:28.75Z</time></trkpt><trkpt lat="44.1497697" lon="10.9856747"><ele>365.0</ele><time>2026-05-02T13:01:29.749Z</time></trkpt><trkpt lat="44.1469016" lon="10.9858461"><ele>366.5</ele><time>2026-05-02T13:01:40.758Z</time></trkpt><trkpt lat="44.1466345" lon="10.9858445"><ele>368.0</ele><time>2026-05-02T13:01:41.758Z</time></trkpt><trkpt lat="44.1463825" lon="10.9857972"><ele>368.0</ele><time>2026-05-02T13:01:42.751Z</time></trkpt><trkpt lat="44.1461603" lon="10.9857391"><ele>368.0</ele><time>2026-05-02T13:01:43.751Z</time></trkpt><trkpt lat="44.1459262" lon="10.9857145"><ele>368.0</ele><time>2026-05-02T13:01:44.76Z</time></trkpt><trkpt lat="44.1457244" lon="10.9857042"><ele>368.0</ele><time>2026-05-02T13:01:45.751Z</time></trkpt><trkpt lat="44.1455368" lon="10.9857063"><ele>368.0</ele><time>2026-05-02T13:01:46.756Z</time></trkpt><trkpt lat="44.1453892" lon="10.985725"><ele>367.75</ele><time>2026-05-02T13:01:47.756Z</time></trkpt><trkpt lat="44.1452525" lon="10.9857564"><ele>367.5</ele><time>2026-05-02T13:01:48.759Z</time></trkpt><trkpt lat="44.1451204" lon="10.9858094"><ele>367.25</ele><time>2026-05-02T13:01:49.757Z</time></trkpt><trkpt lat="44.1449912" lon="10.9858636"><ele>367.0</ele><time>2026-05-02T13:01:50.752Z</time></trkpt><trkpt lat="44.1448658" lon="10.985919"><ele>369.5</ele><time>2026-05-02T13:01:51.761Z</time></trkpt><trkpt lat="44.1447426" lon="10.9859755"><ele>372.0</ele><time>2026-05-02T13:01:52.755Z</time></trkpt><trkpt lat="44.1446214" lon="10.9860274"><ele>374.5</ele><time>2026-05-02T13:01:53.75Z</time></trkpt><trkpt lat="44.1444967" lon="10.9860819"><ele>377.0</ele><time>2026-05-02T13:01:54.754Z</time></trkpt><trkpt lat="44.1443676" lon="10.9861522"><ele>377.0</ele><time>2026-05-02T13:01:55.757Z</time></trkpt><trkpt lat="44.1442364" lon="10.9862366"><ele>377.0</ele><time>2026-05-02T13:01:56.75Z</time></trkpt><trkpt lat="44.1441149" lon="10.9863167"><ele>377.0</ele><time>2026-05-02T13:01:57.756Z</time></trkpt><trkpt lat="44.1439894" lon="10.9864079"><ele>377.0</ele><time>2026-05-02T13:01:58.751Z</time></trkpt><trkpt lat="44.1438786" lon="10.9865047"><ele>377.0</ele><time>2026-05-02T13:01:59.757Z</time></trkpt><trkpt lat="44.1437808" lon="10.9865975"><ele>377.0</ele><time>2026-05-02T13:02:00.749Z</time></trkpt><trkpt lat="44.1436907" lon="10.9867271"><ele>377.0</ele><time>2026-05-02T13:02:01.751Z</time></trkpt><trkpt lat="44.1436118" lon="10.9868229"><ele>377.0</ele><time>2026-05-02T13:02:02.753Z</time></trkpt><trkpt lat="44.1435327" lon="10.9869103"><ele>377.0</ele><time>2026-05-02T13:02:03.754Z</time></trkpt><trkpt lat="44.143435" lon="10.9869694"><ele>377.0</ele><time>2026-05-02T13:02:04.763Z</time></trkpt><trkpt lat="44.1433355" lon="10.9870296"><ele>377.0</ele><time>2026-05-02T13:02:05.751Z</time></trkpt><trkpt lat="44.1432313" lon="10.9871182"><ele>377.0</ele><time>2026-05-02T13:02:06.753Z</time></trkpt><trkpt lat="44.1430828" lon="10.9872251"><ele>380.0</ele><time>2026-05-02T13:02:07.751Z</time></trkpt><trkpt lat="44.1429438" lon="10.9873207"><ele>383.0</ele><time>2026-05-02T13:02:08.751Z</time></trkpt><trkpt lat="44.142808" lon="10.9874355"><ele>386.0</ele><time>2026-05-02T13:02:09.753Z</time></trkpt><trkpt lat="44.1426785" lon="10.9875638"><ele>386.0</ele><time>2026-05-02T13:02:10.756Z</time></trkpt><trkpt lat="44.142562" lon="10.9877185"><ele>386.0</ele><time>2026-05-02T13:02:11.76Z</time></trkpt><trkpt lat="44.1424585" lon="10.987879"><ele>386.0</ele><time>2026-05-02T13:02:12.753Z</time></trkpt><trkpt lat="44.1423706" lon="10.9880416"><ele>387.0</ele><time>2026-05-02T13:02:13.748Z</time></trkpt><trkpt lat="44.1422855" lon="10.9881998"><ele>388.0</ele><time>2026-05-02T13:02:14.753Z</time></trkpt><trkpt lat="44.1422019" lon="10.9883582"><ele>389.0</ele><time>2026-05-02T13:02:15.757Z</time></trkpt><trkpt lat="44.1421233" lon="10.9885044"><ele>390.0</ele><time>2026-05-02T13:02:16.757Z</time></trkpt><trkpt lat="44.14204" lon="10.9886448"><ele>390.0</ele><time>2026-05-02T13:02:17.751Z</time></trkpt><trkpt lat="44.1419489" lon="10.988762"><ele>390.0</ele><time>2026-05-02T13:02:18.756Z</time></trkpt><trkpt lat="44.141846" lon="10.9888716"><ele>390.0</ele><time>2026-05-02T13:02:19.753Z</time></trkpt><trkpt lat="44.1417292" lon="10.9889725"><ele>390.0</ele><time>2026-05-02T13:02:20.756Z</time></trkpt><trkpt lat="44.1415917" lon="10.9890769"><ele>389.33333333333337</ele><time>2026-05-02T13:02:21.767Z</time></trkpt><trkpt lat="44.1414454" lon="10.9891757"><ele>388.6666666666667</ele><time>2026-05-02T13:02:22.754Z</time></trkpt><trkpt lat="44.141295" lon="10.9892791"><ele>388.0</ele><time>2026-05-02T13:02:23.753Z</time></trkpt><trkpt lat="44.1411401" lon="10.9893733"><ele>388.0</ele><time>2026-05-02T13:02:24.752Z</time></trkpt><trkpt lat="44.1409878" lon="10.9894636"><ele>388.0</ele><time>2026-05-02T13:02:25.752Z</time></trkpt><trkpt lat="44.1408354" lon="10.9895418"><ele>388.0</ele><time>2026-05-02T13:02:26.752Z</time></trkpt><trkpt lat="44.1406744" lon="10.9896304"><ele>392.33333333333337</ele><time>2026-05-02T13:02:27.752Z</time></trkpt><trkpt lat="44.1405228" lon="10.9897347"><ele>396.66666666666663</ele><time>2026-05-02T13:02:28.751Z</time></trkpt><trkpt lat="44.1403766" lon="10.9898546"><ele>401.0</ele><time>2026-05-02T13:02:29.743Z</time></trkpt><trkpt lat="44.1402161" lon="10.9899676"><ele>398.3333333333333</ele><time>2026-05-02T13:02:30.755Z</time></trkpt><trkpt lat="44.1400723" lon="10.9900855"><ele>395.66666666666663</ele><time>2026-05-02T13:02:31.752Z</time></trkpt><trkpt lat="44.1399283" lon="10.9902146"><ele>393.0</ele><time>2026-05-02T13:02:32.756Z</time></trkpt><trkpt lat="44.1397808" lon="10.9903157"><ele>393.0</ele><time>2026-05-02T13:02:33.759Z</time></trkpt><trkpt lat="44.1396092" lon="10.9904122"><ele>393.0</ele><time>2026-05-02T13:02:34.753Z</time></trkpt><trkpt lat="44.1394513" lon="10.9904857"><ele>393.0</ele><time>2026-05-02T13:02:35.756Z</time></trkpt><trkpt lat="44.1393011" lon="10.9905441"><ele>393.0</ele><time>2026-05-02T13:02:36.752Z</time></trkpt><trkpt lat="44.1391173" lon="10.9906104"><ele>393.0</ele><time>2026-05-02T13:02:37.756Z</time></trkpt><trkpt lat="44.138959" lon="10.9907076"><ele>393.0</ele><time>2026-05-02T13:02:38.752Z</time></trkpt><trkpt lat="44.1388085" lon="10.9907908"><ele>388.75</ele><time>2026-05-02T13:02:39.754Z</time></trkpt><trkpt lat="44.1386708" lon="10.990883"><ele>384.5</ele><time>2026-05-02T13:02:40.751Z</time></trkpt><trkpt lat="44.1385351" lon="10.9909475"><ele>380.25</ele><time>2026-05-02T13:02:41.754Z</time></trkpt><trkpt lat="44.138396" lon="10.990956"><ele>376.0</ele><time>2026-05-02T13:02:42.752Z</time></trkpt><trkpt lat="44.1382516" lon="10.990916"><ele>381.66666666666663</ele><time>2026-05-02T13:02:43.751Z</time></trkpt><trkpt lat="44.1381113" lon="10.9908329"><ele>387.3333333333333</ele><time>2026-05-02T13:02:44.753Z</time></trkpt><trkpt lat="44.1379561" lon="10.9907283"><ele>393.0</ele><time>2026-05-02T13:02:45.755Z</time></trkpt><trkpt lat="44.1378078" lon="10.9906227"><ele>393.0</ele><time>2026-05-02T13:02:46.751Z</time></trkpt><trkpt lat="44.1376516" lon="10.9905145"><ele>393.0</ele><time>2026-05-02T13:02:47.756Z</time></trkpt><trkpt lat="44.1374532" lon="10.9905154"><ele>393.0</ele><time>2026-05-02T13:02:48.752Z</time></trkpt><trkpt lat="44.1372798" lon="10.9904656"><ele>389.3333333333333</ele><time>2026-05-02T13:02:49.751Z</time></trkpt><trkpt lat="44.1371167" lon="10.9903754"><ele>385.66666666666663</ele><time>2026-05-02T13:02:50.752Z</time></trkpt><trkpt lat="44.1369493" lon="10.9902716"><ele>382.0</ele><time>2026-05-02T13:02:51.754Z</time></trkpt><trkpt lat="44.1367738" lon="10.9901364"><ele>382.0</ele><time>2026-05-02T13:02:52.756Z</time></trkpt><trkpt lat="44.1366081" lon="10.9900274"><ele>382.0</ele><time>2026-05-02T13:02:53.755Z</time></trkpt><trkpt lat="44.1364469" lon="10.9899289"><ele>382.0</ele><time>2026-05-02T13:02:54.751Z</time></trkpt><trkpt lat="44.1363012" lon="10.9898439"><ele>384.5</ele><time>2026-05-02T13:02:55.753Z</time></trkpt><trkpt lat="44.1361634" lon="10.9897496"><ele>387.0</ele><time>2026-05-02T13:02:56.752Z</time></trkpt><trkpt lat="44.1360262" lon="10.9896695"><ele>389.5</ele><time>2026-05-02T13:02:57.755Z</time></trkpt><trkpt lat="44.135893" lon="10.9895959"><ele>392.0</ele><time>2026-05-02T13:02:58.753Z</time></trkpt><trkpt lat="44.1357634" lon="10.9895338"><ele>391.5</ele><time>2026-05-02T13:02:59.762Z</time></trkpt><trkpt lat="44.1356071" lon="10.9894734"><ele>391.0</ele><time>2026-05-02T13:03:00.751Z</time></trkpt><trkpt lat="44.1354665" lon="10.9894105"><ele>390.5</ele><time>2026-05-02T13:03:01.75Z</time></trkpt><trkpt lat="44.1353329" lon="10.9893549"><ele>390.0</ele><time>2026-05-02T13:03:02.758Z</time></trkpt><trkpt lat="44.1351936" lon="10.9892933"><ele>390.0</ele><time>2026-05-02T13:03:03.756Z</time></trkpt><trkpt lat="44.1350502" lon="10.9892393"><ele>390.0</ele><time>2026-05-02T13:03:04.752Z</time></trkpt><trkpt lat="44.1348996" lon="10.9892121"><ele>390.0</ele><time>2026-05-02T13:03:05.752Z</time></trkpt><trkpt lat="44.134748" lon="10.989183"><ele>390.0</ele><time>2026-05-02T13:03:06.759Z</time></trkpt><trkpt lat="44.1345946" lon="10.9891577"><ele>390.0</ele><time>2026-05-02T13:03:07.754Z</time></trkpt><trkpt lat="44.1344496" lon="10.9891614"><ele>390.0</ele><time>2026-05-02T13:03:08.751Z</time></trkpt><trkpt lat="44.1342954" lon="10.9892046"><ele>390.0</ele><time>2026-05-02T13:03:09.754Z</time></trkpt><trkpt lat="44.1341427" lon="10.9892787"><ele>390.0</ele><time>2026-05-02T13:03:10.753Z</time></trkpt><trkpt lat="44.1339974" lon="10.9893536"><ele>390.0</ele><time>2026-05-02T13:03:11.755Z</time></trkpt><trkpt lat="44.1338564" lon="10.9894353"><ele>392.75</ele><time>2026-05-02T13:03:12.749Z</time></trkpt><trkpt lat="44.133716" lon="10.989526"><ele>395.5</ele><time>2026-05-02T13:03:13.753Z</time></trkpt><trkpt lat="44.1335772" lon="10.9896092"><ele>398.25</ele><time>2026-05-02T13:03:14.754Z</time></trkpt><trkpt lat="44.1334494" lon="10.9896926"><ele>401.0</ele><time>2026-05-02T13:03:15.752Z</time></trkpt><trkpt lat="44.1333264" lon="10.9897855"><ele>401.75</ele><time>2026-05-02T13:03:16.752Z</time></trkpt><trkpt lat="44.1332174" lon="10.9898921"><ele>402.5</ele><time>2026-05-02T13:03:17.764Z</time></trkpt><trkpt lat="44.1331073" lon="10.9900067"><ele>403.25</ele><time>2026-05-02T13:03:18.759Z</time></trkpt><trkpt lat="44.1330219" lon="10.990117"><ele>404.0</ele><time>2026-05-02T13:03:19.749Z</time></trkpt><trkpt lat="44.1329289" lon="10.990235"><ele>404.0</ele><time>2026-05-02T13:03:20.746Z</time></trkpt><trkpt lat="44.1328344" lon="10.9903409"><ele>404.0</ele><time>2026-05-02T13:03:21.754Z</time></trkpt><trkpt lat="44.1327411" lon="10.9904239"><ele>404.0</ele><time>2026-05-02T13:03:22.756Z</time></trkpt><trkpt lat="44.1326416" lon="10.9904973"><ele>404.0</ele><time>2026-05-02T13:03:23.755Z</time></trkpt><trkpt lat="44.1325422" lon="10.9905536"><ele>404.0</ele><time>2026-05-02T13:03:24.751Z</time></trkpt><trkpt lat="44.1324414" lon="10.990604"><ele>404.0</ele><time>2026-05-02T13:03:25.755Z</time></trkpt><trkpt lat="44.1323383" lon="10.9906463"><ele>404.0</ele><time>2026-05-02T13:03:26.756Z</time></trkpt><trkpt lat="44.1322449" lon="10.9906875"><ele>404.0</ele><time>2026-05-02T13:03:27.755Z</time></trkpt><trkpt lat="44.1321586" lon="10.9907384"><ele>404.0</ele><time>2026-05-02T13:03:28.753Z</time></trkpt><trkpt lat="44.1320739" lon="10.9907762"><ele>403.66666666666663</ele><time>2026-05-02T13:03:29.753Z</time></trkpt><trkpt lat="44.131993" lon="10.990822"><ele>403.3333333333333</ele><time>2026-05-02T13:03:30.754Z</time></trkpt><trkpt lat="44.1319154" lon="10.9908635"><ele>403.0</ele><time>2026-05-02T13:03:31.754Z</time></trkpt><trkpt lat="44.1318361" lon="10.9908982"><ele>402.66666666666663</ele><time>2026-05-02T13:03:32.753Z</time></trkpt><trkpt lat="44.1317573" lon="10.9909258"><ele>402.3333333333333</ele><time>2026-05-02T13:03:33.754Z</time></trkpt><trkpt lat="44.1316746" lon="10.9909569"><ele>402.0</ele><time>2026-05-02T13:03:34.752Z</time></trkpt><trkpt lat="44.1315951" lon="10.9909816"><ele>402.0</ele><time>2026-05-02T13:03:35.754Z</time></trkpt><trkpt lat="44.131518" lon="10.9910059"><ele>402.0</ele><time>2026-05-02T13:03:36.752Z</time></trkpt><trkpt lat="44.131447" lon="10.9910332"><ele>402.0</ele><time>2026-05-02T13:03:37.756Z</time></trkpt><trkpt lat="44.1313703" lon="10.9910573"><ele>402.0</ele><time>2026-05-02T13:03:38.754Z</time></trkpt><trkpt lat="44.1312889" lon="10.991096"><ele>402.0</ele><time>2026-05-02T13:03:39.758Z</time></trkpt><trkpt lat="44.1312112" lon="10.9911223"><ele>402.0</ele><time>2026-05-02T13:03:40.761Z</time></trkpt><trkpt lat="44.1311352" lon="10.9911423"><ele>402.0</ele><time>2026-05-02T13:03:41.754Z</time></trkpt><trkpt lat="44.1310536" lon="10.9911658"><ele>402.0</ele><time>2026-05-02T13:03:42.755Z</time></trkpt><trkpt lat="44.1309584" lon="10.9911932"><ele>402.0</ele><time>2026-05-02T13:03:43.757Z</time></trkpt><trkpt lat="44.1308676" lon="10.9912281"><ele>402.0</ele><time>2026-05-02T13:03:44.751Z</time></trkpt><trkpt lat="44.1307665" lon="10.9912489"><ele>402.0</ele><time>2026-05-02T13:03:45.757Z</time></trkpt><trkpt lat="44.1306695" lon="10.9912622"><ele>402.75</ele><time>2026-05-02T13:03:46.756Z</time></trkpt><trkpt lat="44.1305564" lon="10.9912791"><ele>403.5</ele><time>2026-05-02T13:03:47.754Z</time></trkpt><trkpt lat="44.1304356" lon="10.991303"><ele>404.25</ele><time>2026-05-02T13:03:48.757Z</time></trkpt><trkpt lat="44.1303232" lon="10.9913283"><ele>405.0</ele><time>2026-05-02T13:03:49.75Z</time></trkpt><trkpt lat="44.1302149" lon="10.9913613"><ele>405.0</ele><time>2026-05-02T13:03:50.751Z</time></trkpt><trkpt lat="44.1301002" lon="10.991389"><ele>405.0</ele><time>2026-05-02T13:03:51.751Z</time></trkpt><trkpt lat="44.1299915" lon="10.9914241"><ele>405.0</ele><time>2026-05-02T13:03:52.756Z</time></trkpt><trkpt lat="44.129886" lon="10.9914572"><ele>405.0</ele><time>2026-05-02T13:03:53.752Z</time></trkpt><trkpt lat="44.1297876" lon="10.9914699"><ele>405.0</ele><time>2026-05-02T13:03:54.751Z</time></trkpt><trkpt lat="44.1296984" lon="10.991494"><ele>404.0</ele><time>2026-05-02T13:03:55.752Z</time></trkpt><trkpt lat="44.12961" lon="10.9915175"><ele>403.0</ele><time>2026-05-02T13:03:56.755Z</time></trkpt><trkpt lat="44.129538" lon="10.9915311"><ele>402.0</ele><time>2026-05-02T13:03:57.753Z</time></trkpt><trkpt lat="44.1294741" lon="10.9915444"><ele>401.0</ele><time>2026-05-02T13:03:58.752Z</time></trkpt><trkpt lat="44.129358" lon="10.9915626"><ele>400.0</ele><time>2026-05-02T13:04:00.753Z</time></trkpt><trkpt lat="44.1292766" lon="10.9914929"><ele>399.0</ele><time>2026-05-02T13:04:02.757Z</time></trkpt><trkpt lat="44.1292456" lon="10.9913948"><ele>399.0</ele><time>2026-05-02T13:04:03.758Z</time></trkpt><trkpt lat="44.1292212" lon="10.9912892"><ele>399.0</ele><time>2026-05-02T13:04:04.754Z</time></trkpt><trkpt lat="44.1291961" lon="10.9911658"><ele>399.0</ele><time>2026-05-02T13:04:05.757Z</time></trkpt><trkpt lat="44.1291593" lon="10.9910389"><ele>399.0</ele><time>2026-05-02T13:04:06.755Z</time></trkpt><trkpt lat="44.1291176" lon="10.9909087"><ele>399.0</ele><time>2026-05-02T13:04:07.755Z</time></trkpt><trkpt lat="44.1290756" lon="10.9908025"><ele>398.4</ele><time>2026-05-02T13:04:08.751Z</time></trkpt><trkpt lat="44.1290392" lon="10.9906913"><ele>397.79999999999995</ele><time>2026-05-02T13:04:09.764Z</time></trkpt><trkpt lat="44.1289954" lon="10.9905657"><ele>397.20000000000005</ele><time>2026-05-02T13:04:10.751Z</time></trkpt><trkpt lat="44.1289413" lon="10.9904347"><ele>396.6</ele><time>2026-05-02T13:04:11.755Z</time></trkpt><trkpt lat="44.1288808" lon="10.9902449"><ele>396.0</ele><time>2026-05-02T13:04:12.758Z</time></trkpt><trkpt lat="44.1288153" lon="10.9900791"><ele>395.75</ele><time>2026-05-02T13:04:13.752Z</time></trkpt><trkpt lat="44.1287464" lon="10.9899257"><ele>395.5</ele><time>2026-05-02T13:04:14.756Z</time></trkpt><trkpt lat="44.1286816" lon="10.9897639"><ele>395.25</ele><time>2026-05-02T13:04:15.752Z</time></trkpt><trkpt lat="44.128614" lon="10.9895917"><ele>395.0</ele><time>2026-05-02T13:04:16.752Z</time></trkpt><trkpt lat="44.128545" lon="10.98941"><ele>395.0</ele><time>2026-05-02T13:04:17.76Z</time></trkpt><trkpt lat="44.128472" lon="10.9892251"><ele>395.0</ele><time>2026-05-02T13:04:18.753Z</time></trkpt><trkpt lat="44.1283941" lon="10.9890422"><ele>395.0</ele><time>2026-05-02T13:04:19.76Z</time></trkpt><trkpt lat="44.1283175" lon="10.9888539"><ele>396.0</ele><time>2026-05-02T13:04:20.754Z</time></trkpt><trkpt lat="44.1282544" lon="10.9886695"><ele>397.0</ele><time>2026-05-02T13:04:21.752Z</time></trkpt><trkpt lat="44.1281894" lon="10.9885007"><ele>398.0</ele><time>2026-05-02T13:04:22.751Z</time></trkpt><trkpt lat="44.1281271" lon="10.9883245"><ele>399.0</ele><time>2026-05-02T13:04:23.751Z</time></trkpt><trkpt lat="44.1280533" lon="10.9881793"><ele>399.25</ele><time>2026-05-02T13:04:24.754Z</time></trkpt><trkpt lat="44.1279689" lon="10.9880463"><ele>399.5</ele><time>2026-05-02T13:04:25.752Z</time></trkpt><trkpt lat="44.1278669" lon="10.9879348"><ele>399.75</ele><time>2026-05-02T13:04:26.758Z</time></trkpt><trkpt lat="44.1277638" lon="10.9878181"><ele>400.0</ele><time>2026-05-02T13:04:27.752Z</time></trkpt><trkpt lat="44.1276307" lon="10.9877199"><ele>400.0</ele><time>2026-05-02T13:04:28.755Z</time></trkpt><trkpt lat="44.1275111" lon="10.987588"><ele>400.0</ele><time>2026-05-02T13:04:29.757Z</time></trkpt><trkpt lat="44.1274017" lon="10.9874415"><ele>400.0</ele><time>2026-05-02T13:04:30.751Z</time></trkpt><trkpt lat="44.1272898" lon="10.9872889"><ele>401.0</ele><time>2026-05-02T13:04:31.752Z</time></trkpt><trkpt lat="44.1271871" lon="10.9871444"><ele>402.0</ele><time>2026-05-02T13:04:32.757Z</time></trkpt><trkpt lat="44.127082" lon="10.9870069"><ele>403.0</ele><time>2026-05-02T13:04:33.753Z</time></trkpt><trkpt lat="44.1269752" lon="10.9868954"><ele>404.0</ele><time>2026-05-02T13:04:34.751Z</time></trkpt><trkpt lat="44.1268658" lon="10.9867971"><ele>404.0</ele><time>2026-05-02T13:04:35.752Z</time></trkpt><trkpt lat="44.1267606" lon="10.9867072"><ele>404.0</ele><time>2026-05-02T13:04:36.754Z</time></trkpt><trkpt lat="44.1266591" lon="10.986618"><ele>404.0</ele><time>2026-05-02T13:04:37.755Z</time></trkpt><trkpt lat="44.1265834" lon="10.9865348"><ele>404.0</ele><time>2026-05-02T13:04:38.754Z</time></trkpt><trkpt lat="44.1265094" lon="10.9864666"><ele>404.0</ele><time>2026-05-02T13:04:39.753Z</time></trkpt><trkpt lat="44.1264405" lon="10.9864056"><ele>404.99999999999994</ele><time>2026-05-02T13:04:40.751Z</time></trkpt><trkpt lat="44.126387" lon="10.9863545"><ele>406.0</ele><time>2026-05-02T13:04:41.753Z</time></trkpt><trkpt lat="44.1263345" lon="10.9863056"><ele>407.0</ele><time>2026-05-02T13:04:42.759Z</time></trkpt><trkpt lat="44.1262377" lon="10.9861945"><ele>408.0</ele><time>2026-05-02T13:04:44.752Z</time></trkpt><trkpt lat="44.1261753" lon="10.9861357"><ele>408.99999999999994</ele><time>2026-05-02T13:04:45.752Z</time></trkpt><trkpt lat="44.1261035" lon="10.9860708"><ele>410.0</ele><time>2026-05-02T13:04:46.756Z</time></trkpt><trkpt lat="44.1260369" lon="10.9859912"><ele>410.0</ele><time>2026-05-02T13:04:47.761Z</time></trkpt><trkpt lat="44.1259766" lon="10.9858992"><ele>410.0</ele><time>2026-05-02T13:04:48.757Z</time></trkpt><trkpt lat="44.1259308" lon="10.9857901"><ele>410.0</ele><time>2026-05-02T13:04:49.753Z</time></trkpt><trkpt lat="44.1258916" lon="10.9856718"><ele>410.0</ele><time>2026-05-02T13:04:50.756Z</time></trkpt><trkpt lat="44.12585" lon="10.9855519"><ele>410.0</ele><time>2026-05-02T13:04:51.754Z</time></trkpt><trkpt lat="44.125821" lon="10.9854154"><ele>411.6</ele><time>2026-05-02T13:04:52.756Z</time></trkpt><trkpt lat="44.1257922" lon="10.9852774"><ele>413.2</ele><time>2026-05-02T13:04:53.753Z</time></trkpt><trkpt lat="44.1257638" lon="10.9851336"><ele>414.79999999999995</ele><time>2026-05-02T13:04:54.751Z</time></trkpt><trkpt lat="44.1257422" lon="10.9849782"><ele>416.4</ele><time>2026-05-02T13:04:55.751Z</time></trkpt><trkpt lat="44.1257294" lon="10.9848156"><ele>418.0</ele><time>2026-05-02T13:04:56.75Z</time></trkpt><trkpt lat="44.1257172" lon="10.9846522"><ele>421.25</ele><time>2026-05-02T13:04:57.75Z</time></trkpt><trkpt lat="44.1257176" lon="10.9844828"><ele>424.5</ele><time>2026-05-02T13:04:58.752Z</time></trkpt><trkpt lat="44.1257108" lon="10.9843101"><ele>427.75</ele><time>2026-05-02T13:04:59.752Z</time></trkpt><trkpt lat="44.1257132" lon="10.9841451"><ele>431.0</ele><time>2026-05-02T13:05:00.757Z</time></trkpt><trkpt lat="44.1257198" lon="10.983985"><ele>431.0</ele><time>2026-05-02T13:05:01.759Z</time></trkpt><trkpt lat="44.1257303" lon="10.9838452"><ele>431.0</ele><time>2026-05-02T13:05:02.753Z</time></trkpt><trkpt lat="44.1257162" lon="10.9837254"><ele>431.0</ele><time>2026-05-02T13:05:03.752Z</time></trkpt><trkpt lat="44.1256707" lon="10.9836082"><ele>431.0</ele><time>2026-05-02T13:05:04.758Z</time></trkpt><trkpt lat="44.1255867" lon="10.9835162"><ele>431.0</ele><time>2026-05-02T13:05:05.759Z</time></trkpt><trkpt lat="44.125502" lon="10.9834038"><ele>427.75</ele><time>2026-05-02T13:05:06.754Z</time></trkpt><trkpt lat="44.1254292" lon="10.9832731"><ele>424.5</ele><time>2026-05-02T13:05:07.752Z</time></trkpt><trkpt lat="44.1253715" lon="10.9831156"><ele>421.25</ele><time>2026-05-02T13:05:08.751Z</time></trkpt><trkpt lat="44.1253216" lon="10.9829278"><ele>418.0</ele><time>2026-05-02T13:05:09.756Z</time></trkpt><trkpt lat="44.1252658" lon="10.9827289"><ele>418.0</ele><time>2026-05-02T13:05:10.758Z</time></trkpt><trkpt lat="44.1252143" lon="10.9825455"><ele>418.0</ele><time>2026-05-02T13:05:11.753Z</time></trkpt><trkpt lat="44.125158" lon="10.9823868"><ele>418.0</ele><time>2026-05-02T13:05:12.752Z</time></trkpt><trkpt lat="44.1250839" lon="10.9822652"><ele>418.0</ele><time>2026-05-02T13:05:13.753Z</time></trkpt><trkpt lat="44.1249809" lon="10.9821622"><ele>418.33333333333337</ele><time>2026-05-02T13:05:14.751Z</time></trkpt><trkpt lat="44.124863" lon="10.9820591"><ele>418.66666666666663</ele><time>2026-05-02T13:05:15.754Z</time></trkpt><trkpt lat="44.1247219" lon="10.9819568"><ele>419.0</ele><time>2026-05-02T13:05:16.754Z</time></trkpt><trkpt lat="44.124579" lon="10.9818613"><ele>419.0</ele><time>2026-05-02T13:05:17.751Z</time></trkpt><trkpt lat="44.1244333" lon="10.9817791"><ele>419.0</ele><time>2026-05-02T13:05:18.749Z</time></trkpt><trkpt lat="44.1242925" lon="10.9816826"><ele>419.0</ele><time>2026-05-02T13:05:19.749Z</time></trkpt><trkpt lat="44.124163" lon="10.9815616"><ele>420.5</ele><time>2026-05-02T13:05:20.754Z</time></trkpt><trkpt lat="44.1240431" lon="10.9814474"><ele>422.0</ele><time>2026-05-02T13:05:21.753Z</time></trkpt><trkpt lat="44.1239346" lon="10.9813352"><ele>423.5</ele><time>2026-05-02T13:05:22.751Z</time></trkpt><trkpt lat="44.123864" lon="10.9812123"><ele>425.0</ele><time>2026-05-02T13:05:23.754Z</time></trkpt><trkpt lat="44.1238183" lon="10.9810952"><ele>425.0</ele><time>2026-05-02T13:05:24.754Z</time></trkpt><trkpt lat="44.1238163" lon="10.9809527"><ele>425.0</ele><time>2026-05-02T13:05:25.753Z</time></trkpt><trkpt lat="44.1238461" lon="10.980777"><ele>425.0</ele><time>2026-05-02T13:05:26.75Z</time></trkpt><trkpt lat="44.1238871" lon="10.9805919"><ele>425.0</ele><time>2026-05-02T13:05:27.751Z</time></trkpt><trkpt lat="44.1239318" lon="10.980391"><ele>425.3333333333333</ele><time>2026-05-02T13:05:28.761Z</time></trkpt><trkpt lat="44.1239702" lon="10.9801674"><ele>425.66666666666663</ele><time>2026-05-02T13:05:29.758Z</time></trkpt><trkpt lat="44.1239985" lon="10.9799301"><ele>426.0</ele><time>2026-05-02T13:05:30.75Z</time></trkpt><trkpt lat="44.1240385" lon="10.9796798"><ele>426.33333333333337</ele><time>2026-05-02T13:05:31.757Z</time></trkpt><trkpt lat="44.1240675" lon="10.9794248"><ele>426.6666666666667</ele><time>2026-05-02T13:05:32.752Z</time></trkpt><trkpt lat="44.1240685" lon="10.9791715"><ele>427.0</ele><time>2026-05-02T13:05:33.752Z</time></trkpt><trkpt lat="44.1240528" lon="10.9789345"><ele>427.0</ele><time>2026-05-02T13:05:34.751Z</time></trkpt><trkpt lat="44.1240362" lon="10.9787213"><ele>427.0</ele><time>2026-05-02T13:05:35.753Z</time></trkpt><trkpt lat="44.1240184" lon="10.9785176"><ele>427.0</ele><time>2026-05-02T13:05:36.752Z</time></trkpt><trkpt lat="44.1240202" lon="10.9783339"><ele>427.0</ele><time>2026-05-02T13:05:37.75Z</time></trkpt><trkpt lat="44.1240482" lon="10.9781723"><ele>438.5</ele><time>2026-05-02T13:05:38.752Z</time></trkpt><trkpt lat="44.1240836" lon="10.9780257"><ele>450.0</ele><time>2026-05-02T13:05:39.76Z</time></trkpt><trkpt lat="44.1241393" lon="10.9778761"><ele>461.5</ele><time>2026-05-02T13:05:40.753Z</time></trkpt><trkpt lat="44.1241848" lon="10.9777191"><ele>473.0</ele><time>2026-05-02T13:05:41.747Z</time></trkpt><trkpt lat="44.1242428" lon="10.9775783"><ele>473.3333333333333</ele><time>2026-05-02T13:05:42.744Z</time></trkpt><trkpt lat="44.1242883" lon="10.9774291"><ele>473.66666666666663</ele><time>2026-05-02T13:05:43.759Z</time></trkpt><trkpt lat="44.1243159" lon="10.9772846"><ele>474.0</ele><time>2026-05-02T13:05:44.754Z</time></trkpt><trkpt lat="44.1243195" lon="10.977162"><ele>474.33333333333337</ele><time>2026-05-02T13:05:45.756Z</time></trkpt><trkpt lat="44.1243079" lon="10.9770643"><ele>474.6666666666667</ele><time>2026-05-02T13:05:46.748Z</time></trkpt><trkpt lat="44.1242658" lon="10.9769976"><ele>475.0</ele><time>2026-05-02T13:05:48.766Z</time></trkpt><trkpt lat="44.1241921" lon="10.9770007"><ele>475.0</ele><time>2026-05-02T13:05:49.75Z</time></trkpt><trkpt lat="44.1240994" lon="10.9770318"><ele>475.0</ele><time>2026-05-02T13:05:50.761Z</time></trkpt><trkpt lat="44.1239736" lon="10.9770626"><ele>475.0</ele><time>2026-05-02T13:05:51.753Z</time></trkpt><trkpt lat="44.1238418" lon="10.977066"><ele>475.0</ele><time>2026-05-02T13:05:52.749Z</time></trkpt><trkpt lat="44.1237248" lon="10.976986"><ele>465.0</ele><time>2026-05-02T13:05:53.761Z</time></trkpt><trkpt lat="44.1236068" lon="10.9769151"><ele>455.0</ele><time>2026-05-02T13:05:54.758Z</time></trkpt><trkpt lat="44.1234725" lon="10.9768571"><ele>445.0</ele><time>2026-05-02T13:05:55.753Z</time></trkpt><trkpt lat="44.1233031" lon="10.976758"><ele>461.33333333333337</ele><time>2026-05-02T13:05:56.752Z</time></trkpt><trkpt lat="44.1231378" lon="10.9766685"><ele>477.66666666666663</ele><time>2026-05-02T13:05:57.757Z</time></trkpt><trkpt lat="44.1229784" lon="10.9765903"><ele>494.0</ele><time>2026-05-02T13:05:58.753Z</time></trkpt><trkpt lat="44.1228097" lon="10.976551"><ele>494.0</ele><time>2026-05-02T13:05:59.759Z</time></trkpt><trkpt lat="44.1226409" lon="10.9765532"><ele>494.0</ele><time>2026-05-02T13:06:00.752Z</time></trkpt><trkpt lat="44.1224865" lon="10.9765586"><ele>494.0</ele><time>2026-05-02T13:06:01.754Z</time></trkpt><trkpt lat="44.1223505" lon="10.9765898"><ele>488.0</ele><time>2026-05-02T13:06:02.748Z</time></trkpt><trkpt lat="44.1222223" lon="10.9766435"><ele>482.0</ele><time>2026-05-02T13:06:03.756Z</time></trkpt><trkpt lat="44.122091" lon="10.9767715"><ele>476.0</ele><time>2026-05-02T13:06:04.75Z</time></trkpt><trkpt lat="44.1219592" lon="10.9769042"><ele>476.0</ele><time>2026-05-02T13:06:05.755Z</time></trkpt><trkpt lat="44.1218355" lon="10.9770661"><ele>476.0</ele><time>2026-05-02T13:06:06.753Z</time></trkpt><trkpt lat="44.1217207" lon="10.9772285"><ele>476.0</ele><time>2026-05-02T13:06:07.755Z</time></trkpt><trkpt lat="44.1216081" lon="10.9773846"><ele>473.4</ele><time>2026-05-02T13:06:08.751Z</time></trkpt><trkpt lat="44.1215603" lon="10.9774621"><ele>470.8</ele><time>2026-05-02T13:06:09.761Z</time></trkpt><trkpt lat="44.1214864" lon="10.9775067"><ele>468.19999999999993</ele><time>2026-05-02T13:06:10.751Z</time></trkpt><trkpt lat="44.1214045" lon="10.9775003"><ele>465.59999999999997</ele><time>2026-05-02T13:06:11.749Z</time></trkpt><trkpt lat="44.1213062" lon="10.9774431"><ele>463.0</ele><time>2026-05-02T13:06:12.762Z</time></trkpt><trkpt lat="44.1212022" lon="10.9773597"><ele>463.0</ele><time>2026-05-02T13:06:13.75Z</time></trkpt><trkpt lat="44.1211012" lon="10.9772598"><ele>463.0</ele><time>2026-05-02T13:06:14.75Z</time></trkpt><trkpt lat="44.121004" lon="10.977147"><ele>463.0</ele><time>2026-05-02T13:06:15.752Z</time></trkpt><trkpt lat="44.1209229" lon="10.9770022"><ele>463.0</ele><time>2026-05-02T13:06:16.752Z</time></trkpt><trkpt lat="44.1208576" lon="10.976828"><ele>468.25</ele><time>2026-05-02T13:06:17.756Z</time></trkpt><trkpt lat="44.1207903" lon="10.9766726"><ele>473.5</ele><time>2026-05-02T13:06:18.751Z</time></trkpt><trkpt lat="44.1207424" lon="10.9765155"><ele>478.75</ele><time>2026-05-02T13:06:19.752Z</time></trkpt><trkpt lat="44.1207161" lon="10.976334"><ele>484.0</ele><time>2026-05-02T13:06:20.751Z</time></trkpt><trkpt lat="44.1206981" lon="10.9761674"><ele>486.5</ele><time>2026-05-02T13:06:21.757Z</time></trkpt><trkpt lat="44.1207304" lon="10.9759766"><ele>489.0</ele><time>2026-05-02T13:06:22.751Z</time></trkpt><trkpt lat="44.1207506" lon="10.9757884"><ele>491.5</ele><time>2026-05-02T13:06:23.749Z</time></trkpt><trkpt lat="44.1207818" lon="10.9755981"><ele>494.0</ele><time>2026-05-02T13:06:24.74Z</time></trkpt><trkpt lat="44.1207836" lon="10.9754523"><ele>494.0</ele><time>2026-05-02T13:06:25.753Z</time></trkpt><trkpt lat="44.120771" lon="10.9752926"><ele>494.0</ele><time>2026-05-02T13:06:26.753Z</time></trkpt><trkpt lat="44.1206747" lon="10.9752348"><ele>494.0</ele><time>2026-05-02T13:06:27.753Z</time></trkpt><trkpt lat="44.1205685" lon="10.9751586"><ele>494.0</ele><time>2026-05-02T13:06:28.748Z</time></trkpt><trkpt lat="44.1204688" lon="10.9750623"><ele>492.2</ele><time>2026-05-02T13:06:29.746Z</time></trkpt><trkpt lat="44.1203969" lon="10.9749508"><ele>490.4</ele><time>2026-05-02T13:06:30.752Z</time></trkpt><trkpt lat="44.1203357" lon="10.9748248"><ele>488.6</ele><time>2026-05-02T13:06:31.751Z</time></trkpt><trkpt lat="44.1202605" lon="10.974718"><ele>486.8</ele><time>2026-05-02T13:06:32.755Z</time></trkpt><trkpt lat="44.1201906" lon="10.9746419"><ele>485.0</ele><time>2026-05-02T13:06:33.756Z</time></trkpt><trkpt lat="44.1200924" lon="10.9745985"><ele>485.0</ele><time>2026-05-02T13:06:34.758Z</time></trkpt><trkpt lat="44.1199854" lon="10.9745918"><ele>485.0</ele><time>2026-05-02T13:06:35.75Z</time></trkpt><trkpt lat="44.1198659" lon="10.974568"><ele>485.0</ele><time>2026-05-02T13:06:36.748Z</time></trkpt><trkpt lat="44.1197459" lon="10.9745236"><ele>485.0</ele><time>2026-05-02T13:06:37.755Z</time></trkpt><trkpt lat="44.1195728" lon="10.9744809"><ele>481.5</ele><time>2026-05-02T13:06:38.75Z</time></trkpt><trkpt lat="44.1194224" lon="10.974418"><ele>478.0</ele><time>2026-05-02T13:06:39.771Z</time></trkpt><trkpt lat="44.1192922" lon="10.9743905"><ele>474.5</ele><time>2026-05-02T13:06:40.752Z</time></trkpt><trkpt lat="44.1191776" lon="10.9743313"><ele>471.0</ele><time>2026-05-02T13:06:41.774Z</time></trkpt><trkpt lat="44.1190901" lon="10.97424"><ele>471.0</ele><time>2026-05-02T13:06:42.751Z</time></trkpt><trkpt lat="44.1189944" lon="10.9741128"><ele>471.0</ele><time>2026-05-02T13:06:43.753Z</time></trkpt><trkpt lat="44.118927" lon="10.9739563"><ele>471.0</ele><time>2026-05-02T13:06:44.748Z</time></trkpt><trkpt lat="44.1188921" lon="10.9737981"><ele>471.0</ele><time>2026-05-02T13:06:45.755Z</time></trkpt><trkpt lat="44.1188566" lon="10.9736339"><ele>471.0</ele><time>2026-05-02T13:06:46.75Z</time></trkpt><trkpt lat="44.1188314" lon="10.9734531"><ele>471.0</ele><time>2026-05-02T13:06:47.749Z</time></trkpt><trkpt lat="44.1187928" lon="10.9732647"><ele>471.0</ele><time>2026-05-02T13:06:48.752Z</time></trkpt><trkpt lat="44.1187289" lon="10.9731126"><ele>471.0</ele><time>2026-05-02T13:06:49.753Z</time></trkpt><trkpt lat="44.1186718" lon="10.9729815"><ele>469.0</ele><time>2026-05-02T13:06:50.753Z</time></trkpt><trkpt lat="44.1185736" lon="10.9728785"><ele>467.0</ele><time>2026-05-02T13:06:51.755Z</time></trkpt><trkpt lat="44.1184617" lon="10.9727866"><ele>465.0</ele><time>2026-05-02T13:06:52.752Z</time></trkpt><trkpt lat="44.118322" lon="10.9727294"><ele>463.0</ele><time>2026-05-02T13:06:53.75Z</time></trkpt><trkpt lat="44.1181728" lon="10.9726581"><ele>463.0</ele><time>2026-05-02T13:06:54.753Z</time></trkpt><trkpt lat="44.1180353" lon="10.9725617"><ele>463.0</ele><time>2026-05-02T13:06:55.751Z</time></trkpt><trkpt lat="44.1178851" lon="10.9724986"><ele>463.0</ele><time>2026-05-02T13:06:56.762Z</time></trkpt><trkpt lat="44.1177343" lon="10.9724085"><ele>464.33333333333337</ele><time>2026-05-02T13:06:57.751Z</time></trkpt><trkpt lat="44.1175809" lon="10.9722975"><ele>465.66666666666663</ele><time>2026-05-02T13:06:58.754Z</time></trkpt><trkpt lat="44.1174597" lon="10.9721731"><ele>467.0</ele><time>2026-05-02T13:06:59.751Z</time></trkpt><trkpt lat="44.1173452" lon="10.9720429"><ele>467.0</ele><time>2026-05-02T13:07:00.753Z</time></trkpt><trkpt lat="44.1172348" lon="10.9719026"><ele>467.0</ele><time>2026-05-02T13:07:01.757Z</time></trkpt><trkpt lat="44.1171857" lon="10.9717173"><ele>467.0</ele><time>2026-05-02T13:07:02.752Z</time></trkpt><trkpt lat="44.1171421" lon="10.9715307"><ele>467.0</ele><time>2026-05-02T13:07:03.752Z</time></trkpt><trkpt lat="44.1171174" lon="10.9713171"><ele>469.66666666666663</ele><time>2026-05-02T13:07:04.753Z</time></trkpt><trkpt lat="44.1170883" lon="10.9711118"><ele>472.33333333333337</ele><time>2026-05-02T13:07:05.739Z</time></trkpt><trkpt lat="44.1170804" lon="10.970857"><ele>475.0</ele><time>2026-05-02T13:07:06.757Z</time></trkpt><trkpt lat="44.1170579" lon="10.9706191"><ele>478.33333333333337</ele><time>2026-05-02T13:07:07.751Z</time></trkpt><trkpt lat="44.1170408" lon="10.9703862"><ele>481.66666666666663</ele><time>2026-05-02T13:07:08.749Z</time></trkpt><trkpt lat="44.1169916" lon="10.9701849"><ele>485.0</ele><time>2026-05-02T13:07:09.75Z</time></trkpt><trkpt lat="44.1169363" lon="10.9699935"><ele>494.0</ele><time>2026-05-02T13:07:10.753Z</time></trkpt><trkpt lat="44.1168554" lon="10.9698208"><ele>503.0</ele><time>2026-05-02T13:07:11.753Z</time></trkpt><trkpt lat="44.1167485" lon="10.9696651"><ele>512.0</ele><time>2026-05-02T13:07:12.75Z</time></trkpt><trkpt lat="44.1166234" lon="10.9695227"><ele>513.6666666666666</ele><time>2026-05-02T13:07:13.75Z</time></trkpt><trkpt lat="44.1165049" lon="10.9693775"><ele>515.3333333333334</ele><time>2026-05-02T13:07:14.753Z</time></trkpt><trkpt lat="44.1163544" lon="10.9692897"><ele>517.0</ele><time>2026-05-02T13:07:15.754Z</time></trkpt><trkpt lat="44.1162163" lon="10.9691904"><ele>517.0</ele><time>2026-05-02T13:07:16.75Z</time></trkpt><trkpt lat="44.1161039" lon="10.969123"><ele>517.0</ele><time>2026-05-02T13:07:17.752Z</time></trkpt><trkpt lat="44.1160061" lon="10.9690552"><ele>517.0</ele><time>2026-05-02T13:07:18.753Z</time></trkpt><trkpt lat="44.1159444" lon="10.9689458"><ele>517.0</ele><time>2026-05-02T13:07:19.8Z</time></trkpt><trkpt lat="44.1158787" lon="10.9688158"><ele>517.0</ele><time>2026-05-02T13:07:20.752Z</time></trkpt><trkpt lat="44.1158427" lon="10.9686915"><ele>517.0</ele><time>2026-05-02T13:07:21.748Z</time></trkpt><trkpt lat="44.1158031" lon="10.9685885"><ele>517.0</ele><time>2026-05-02T13:07:22.756Z</time></trkpt><trkpt lat="44.1157341" lon="10.9685727"><ele>517.0</ele><time>2026-05-02T13:07:23.75Z</time></trkpt><trkpt lat="44.1156777" lon="10.9685275"><ele>517.0</ele><time>2026-05-02T13:07:24.758Z</time></trkpt><trkpt lat="44.1156047" lon="10.9685759"><ele>517.0</ele><time>2026-05-02T13:07:25.75Z</time></trkpt><trkpt lat="44.1155322" lon="10.9685984"><ele>517.0</ele><time>2026-05-02T13:07:26.762Z</time></trkpt><trkpt lat="44.115454" lon="10.9686299"><ele>509.33333333333337</ele><time>2026-05-02T13:07:27.745Z</time></trkpt><trkpt lat="44.115293" lon="10.9687902"><ele>501.66666666666663</ele><time>2026-05-02T13:07:28.753Z</time></trkpt><trkpt lat="44.1151649" lon="10.9688651"><ele>494.0</ele><time>2026-05-02T13:07:29.749Z</time></trkpt><trkpt lat="44.1150437" lon="10.9689655"><ele>494.0</ele><time>2026-05-02T13:07:30.753Z</time></trkpt><trkpt lat="44.1149448" lon="10.9690279"><ele>494.0</ele><time>2026-05-02T13:07:31.752Z</time></trkpt><trkpt lat="44.1148582" lon="10.9690566"><ele>494.0</ele><time>2026-05-02T13:07:32.748Z</time></trkpt><trkpt lat="44.1148166" lon="10.9689728"><ele>494.0</ele><time>2026-05-02T13:07:33.752Z</time></trkpt><trkpt lat="44.1147612" lon="10.9688141"><ele>494.0</ele><time>2026-05-02T13:07:35.754Z</time></trkpt><trkpt lat="44.1147048" lon="10.9686104"><ele>491.5</ele><time>2026-05-02T13:07:36.749Z</time></trkpt><trkpt lat="44.1146444" lon="10.9684445"><ele>489.0</ele><time>2026-05-02T13:07:37.76Z</time></trkpt><trkpt lat="44.1145979" lon="10.968264"><ele>486.5</ele><time>2026-05-02T13:07:38.756Z</time></trkpt><trkpt lat="44.1145715" lon="10.9680429"><ele>484.0</ele><time>2026-05-02T13:07:39.755Z</time></trkpt><trkpt lat="44.1145575" lon="10.9678178"><ele>484.0</ele><time>2026-05-02T13:07:40.752Z</time></trkpt><trkpt lat="44.1145324" lon="10.9676041"><ele>484.0</ele><time>2026-05-02T13:07:41.757Z</time></trkpt><trkpt lat="44.1144753" lon="10.9673644"><ele>484.0</ele><time>2026-05-02T13:07:42.752Z</time></trkpt><trkpt lat="44.1144048" lon="10.9671503"><ele>495.6666666666667</ele><time>2026-05-02T13:07:43.753Z</time></trkpt><trkpt lat="44.1143499" lon="10.9669439"><ele>507.33333333333337</ele><time>2026-05-02T13:07:44.752Z</time></trkpt><trkpt lat="44.1142997" lon="10.9667445"><ele>519.0</ele><time>2026-05-02T13:07:45.765Z</time></trkpt><trkpt lat="44.11428" lon="10.9665474"><ele>522.6</ele><time>2026-05-02T13:07:46.755Z</time></trkpt><trkpt lat="44.114265" lon="10.9663922"><ele>526.2</ele><time>2026-05-02T13:07:47.753Z</time></trkpt><trkpt lat="44.1142362" lon="10.9662611"><ele>529.8000000000001</ele><time>2026-05-02T13:07:48.756Z</time></trkpt><trkpt lat="44.1142099" lon="10.9661264"><ele>533.4</ele><time>2026-05-02T13:07:49.755Z</time></trkpt><trkpt lat="44.1141621" lon="10.9660071"><ele>537.0</ele><time>2026-05-02T13:07:50.749Z</time></trkpt><trkpt lat="44.11409" lon="10.9659982"><ele>540.0</ele><time>2026-05-02T13:07:51.75Z</time></trkpt><trkpt lat="44.1140115" lon="10.966079"><ele>543.0</ele><time>2026-05-02T13:07:52.749Z</time></trkpt><trkpt lat="44.1138295" lon="10.9663928"><ele>546.0</ele><time>2026-05-02T13:07:53.75Z</time></trkpt><trkpt lat="44.1137226" lon="10.9664924"><ele>546.0</ele><time>2026-05-02T13:07:54.75Z</time></trkpt><trkpt lat="44.1136173" lon="10.9666355"><ele>546.0</ele><time>2026-05-02T13:07:55.753Z</time></trkpt><trkpt lat="44.1135415" lon="10.9667831"><ele>546.0</ele><time>2026-05-02T13:07:56.757Z</time></trkpt><trkpt lat="44.113453" lon="10.9669116"><ele>546.0</ele><time>2026-05-02T13:07:57.75Z</time></trkpt><trkpt lat="44.1133433" lon="10.9670096"><ele>537.0</ele><time>2026-05-02T13:07:58.751Z</time></trkpt><trkpt lat="44.1132365" lon="10.9670998"><ele>528.0</ele><time>2026-05-02T13:07:59.738Z</time></trkpt><trkpt lat="44.113076" lon="10.9670672"><ele>519.0</ele><time>2026-05-02T13:08:00.758Z</time></trkpt><trkpt lat="44.1129134" lon="10.9670702"><ele>519.0</ele><time>2026-05-02T13:08:01.752Z</time></trkpt><trkpt lat="44.1127541" lon="10.9670981"><ele>519.0</ele><time>2026-05-02T13:08:02.752Z</time></trkpt><trkpt lat="44.1126079" lon="10.967151"><ele>519.0</ele><time>2026-05-02T13:08:03.753Z</time></trkpt><trkpt lat="44.1124676" lon="10.9671853"><ele>521.0</ele><time>2026-05-02T13:08:04.749Z</time></trkpt><trkpt lat="44.1123197" lon="10.9672181"><ele>523.0</ele><time>2026-05-02T13:08:05.758Z</time></trkpt><trkpt lat="44.1121731" lon="10.967188"><ele>525.0</ele><time>2026-05-02T13:08:06.75Z</time></trkpt><trkpt lat="44.1120224" lon="10.9671646"><ele>525.0</ele><time>2026-05-02T13:08:07.756Z</time></trkpt><trkpt lat="44.1118928" lon="10.9671376"><ele>525.0</ele><time>2026-05-02T13:08:08.748Z</time></trkpt><trkpt lat="44.1117776" lon="10.9671605"><ele>525.0</ele><time>2026-05-02T13:08:09.75Z</time></trkpt><trkpt lat="44.1116764" lon="10.9672198"><ele>525.0</ele><time>2026-05-02T13:08:10.753Z</time></trkpt><trkpt lat="44.1115906" lon="10.9673333"><ele>526.0</ele><time>2026-05-02T13:08:11.749Z</time></trkpt><trkpt lat="44.1114984" lon="10.9674983"><ele>527.0</ele><time>2026-05-02T13:08:12.757Z</time></trkpt><trkpt lat="44.1114089" lon="10.9676798"><ele>528.0</ele><time>2026-05-02T13:08:13.76Z</time></trkpt><trkpt lat="44.1113153" lon="10.9678239"><ele>529.0</ele><time>2026-05-02T13:08:14.753Z</time></trkpt><trkpt lat="44.1112435" lon="10.967948"><ele>525.8</ele><time>2026-05-02T13:08:15.748Z</time></trkpt><trkpt lat="44.1111757" lon="10.9680414"><ele>522.5999999999999</ele><time>2026-05-02T13:08:16.755Z</time></trkpt><trkpt lat="44.1111186" lon="10.9681315"><ele>519.4</ele><time>2026-05-02T13:08:17.755Z</time></trkpt><trkpt lat="44.1110348" lon="10.9681073"><ele>516.1999999999999</ele><time>2026-05-02T13:08:18.753Z</time></trkpt><trkpt lat="44.1109397" lon="10.9680159"><ele>513.0</ele><time>2026-05-02T13:08:19.75Z</time></trkpt><trkpt lat="44.1108589" lon="10.9679739"><ele>513.0</ele><time>2026-05-02T13:08:20.75Z</time></trkpt><trkpt lat="44.1107764" lon="10.9679163"><ele>513.0</ele><time>2026-05-02T13:08:21.742Z</time></trkpt><trkpt lat="44.110689" lon="10.9676863"><ele>513.0</ele><time>2026-05-02T13:08:22.755Z</time></trkpt><trkpt lat="44.1105894" lon="10.9675039"><ele>513.0</ele><time>2026-05-02T13:08:23.753Z</time></trkpt><trkpt lat="44.1105357" lon="10.9672912"><ele>506.25</ele><time>2026-05-02T13:08:24.749Z</time></trkpt><trkpt lat="44.1104657" lon="10.9671174"><ele>499.5</ele><time>2026-05-02T13:08:25.76Z</time></trkpt><trkpt lat="44.110407" lon="10.9669425"><ele>492.75</ele><time>2026-05-02T13:08:26.751Z</time></trkpt><trkpt lat="44.1103432" lon="10.9668045"><ele>486.0</ele><time>2026-05-02T13:08:27.752Z</time></trkpt><trkpt lat="44.1102752" lon="10.9666953"><ele>491.0</ele><time>2026-05-02T13:08:28.762Z</time></trkpt><trkpt lat="44.1101232" lon="10.96662"><ele>496.0</ele><time>2026-05-02T13:08:29.757Z</time></trkpt><trkpt lat="44.1100425" lon="10.9664987"><ele>501.0</ele><time>2026-05-02T13:08:30.75Z</time></trkpt><trkpt lat="44.1099446" lon="10.9663927"><ele>506.0</ele><time>2026-05-02T13:08:31.756Z</time></trkpt><trkpt lat="44.1098185" lon="10.9663315"><ele>506.0</ele><time>2026-05-02T13:08:32.751Z</time></trkpt><trkpt lat="44.109714" lon="10.9662761"><ele>506.0</ele><time>2026-05-02T13:08:33.753Z</time></trkpt><trkpt lat="44.1096143" lon="10.9662546"><ele>506.0</ele><time>2026-05-02T13:08:34.754Z</time></trkpt><trkpt lat="44.1095183" lon="10.9662853"><ele>506.0</ele><time>2026-05-02T13:08:35.753Z</time></trkpt><trkpt lat="44.1094207" lon="10.9663547"><ele>506.0</ele><time>2026-05-02T13:08:36.752Z</time></trkpt><trkpt lat="44.10931" lon="10.9664136"><ele>505.99999999999994</ele><time>2026-05-02T13:08:37.75Z</time></trkpt><trkpt lat="44.1092045" lon="10.9664325"><ele>506.0</ele><time>2026-05-02T13:08:38.758Z</time></trkpt><trkpt lat="44.109119" lon="10.9664174"><ele>506.0</ele><time>2026-05-02T13:08:39.753Z</time></trkpt><trkpt lat="44.1090405" lon="10.9663986"><ele>506.0</ele><time>2026-05-02T13:08:40.759Z</time></trkpt><trkpt lat="44.1089902" lon="10.9663359"><ele>505.99999999999994</ele><time>2026-05-02T13:08:41.756Z</time></trkpt><trkpt lat="44.1089685" lon="10.9662116"><ele>506.0</ele><time>2026-05-02T13:08:42.749Z</time></trkpt><trkpt lat="44.1089547" lon="10.9660461"><ele>516.25</ele><time>2026-05-02T13:08:43.75Z</time></trkpt><trkpt lat="44.1089344" lon="10.9658542"><ele>526.5</ele><time>2026-05-02T13:08:44.75Z</time></trkpt><trkpt lat="44.1088926" lon="10.9656786"><ele>536.75</ele><time>2026-05-02T13:08:45.756Z</time></trkpt><trkpt lat="44.1088566" lon="10.9655254"><ele>547.0</ele><time>2026-05-02T13:08:46.755Z</time></trkpt><trkpt lat="44.1088151" lon="10.9653933"><ele>547.0</ele><time>2026-05-02T13:08:47.75Z</time></trkpt><trkpt lat="44.1087663" lon="10.9652848"><ele>547.0</ele><time>2026-05-02T13:08:48.751Z</time></trkpt><trkpt lat="44.108704" lon="10.9651993"><ele>547.0</ele><time>2026-05-02T13:08:49.762Z</time></trkpt><trkpt lat="44.1086258" lon="10.9651774"><ele>547.0</ele><time>2026-05-02T13:08:50.752Z</time></trkpt><trkpt lat="44.1085469" lon="10.9651838"><ele>547.0</ele><time>2026-05-02T13:08:51.752Z</time></trkpt><trkpt lat="44.1084476" lon="10.9653344"><ele>547.0</ele><time>2026-05-02T13:08:53.749Z</time></trkpt><trkpt lat="44.108466" lon="10.9655611"><ele>547.0</ele><time>2026-05-02T13:08:54.757Z</time></trkpt><trkpt lat="44.1084563" lon="10.965685"><ele>547.0</ele><time>2026-05-02T13:08:55.756Z</time></trkpt><trkpt lat="44.1084602" lon="10.9658235"><ele>547.0</ele><time>2026-05-02T13:08:56.754Z</time></trkpt><trkpt lat="44.1084236" lon="10.9659541"><ele>550.5</ele><time>2026-05-02T13:08:57.75Z</time></trkpt><trkpt lat="44.1083844" lon="10.966075"><ele>554.0</ele><time>2026-05-02T13:08:58.748Z</time></trkpt><trkpt lat="44.1083163" lon="10.9662003"><ele>557.5</ele><time>2026-05-02T13:08:59.755Z</time></trkpt><trkpt lat="44.1082354" lon="10.9663376"><ele>561.0</ele><time>2026-05-02T13:09:00.755Z</time></trkpt><trkpt lat="44.1081637" lon="10.9664859"><ele>561.0</ele><time>2026-05-02T13:09:01.754Z</time></trkpt><trkpt lat="44.1080854" lon="10.9666424"><ele>561.0</ele><time>2026-05-02T13:09:02.751Z</time></trkpt><trkpt lat="44.1080192" lon="10.9667849"><ele>561.0</ele><time>2026-05-02T13:09:03.754Z</time></trkpt><trkpt lat="44.1079717" lon="10.9669517"><ele>561.0</ele><time>2026-05-02T13:09:04.758Z</time></trkpt><trkpt lat="44.1079352" lon="10.9671059"><ele>553.75</ele><time>2026-05-02T13:09:05.752Z</time></trkpt><trkpt lat="44.1079011" lon="10.9672671"><ele>546.5</ele><time>2026-05-02T13:09:06.752Z</time></trkpt><trkpt lat="44.1078729" lon="10.9674384"><ele>539.25</ele><time>2026-05-02T13:09:07.755Z</time></trkpt><trkpt lat="44.1078414" lon="10.9676157"><ele>532.0</ele><time>2026-05-02T13:09:08.754Z</time></trkpt><trkpt lat="44.10779" lon="10.9677978"><ele>526.25</ele><time>2026-05-02T13:09:09.751Z</time></trkpt><trkpt lat="44.10772" lon="10.9679628"><ele>520.5</ele><time>2026-05-02T13:09:10.761Z</time></trkpt><trkpt lat="44.1076625" lon="10.9681139"><ele>514.75</ele><time>2026-05-02T13:09:11.75Z</time></trkpt><trkpt lat="44.107599" lon="10.9682531"><ele>509.0</ele><time>2026-05-02T13:09:12.757Z</time></trkpt><trkpt lat="44.1075286" lon="10.9683707"><ele>505.16666666666663</ele><time>2026-05-02T13:09:13.749Z</time></trkpt><trkpt lat="44.1074529" lon="10.9684398"><ele>501.3333333333333</ele><time>2026-05-02T13:09:14.749Z</time></trkpt><trkpt lat="44.1073669" lon="10.9684459"><ele>497.5</ele><time>2026-05-02T13:09:15.758Z</time></trkpt><trkpt lat="44.1072783" lon="10.9684559"><ele>493.66666666666663</ele><time>2026-05-02T13:09:16.753Z</time></trkpt><trkpt lat="44.1071981" lon="10.9684269"><ele>489.8333333333333</ele><time>2026-05-02T13:09:17.753Z</time></trkpt><trkpt lat="44.1071088" lon="10.9683676"><ele>486.0</ele><time>2026-05-02T13:09:18.745Z</time></trkpt><trkpt lat="44.10703" lon="10.9682612"><ele>486.0</ele><time>2026-05-02T13:09:19.75Z</time></trkpt><trkpt lat="44.1069694" lon="10.9680396"><ele>486.0</ele><time>2026-05-02T13:09:20.756Z</time></trkpt><trkpt lat="44.1069197" lon="10.9678162"><ele>486.0</ele><time>2026-05-02T13:09:21.753Z</time></trkpt><trkpt lat="44.1068881" lon="10.9675118"><ele>491.0</ele><time>2026-05-02T13:09:22.756Z</time></trkpt><trkpt lat="44.1068419" lon="10.9672631"><ele>496.0</ele><time>2026-05-02T13:09:23.757Z</time></trkpt><trkpt lat="44.1067582" lon="10.9670234"><ele>501.0</ele><time>2026-05-02T13:09:24.752Z</time></trkpt><trkpt lat="44.1066389" lon="10.9668207"><ele>500.66666666666663</ele><time>2026-05-02T13:09:25.756Z</time></trkpt><trkpt lat="44.1065242" lon="10.9666357"><ele>500.3333333333333</ele><time>2026-05-02T13:09:26.757Z</time></trkpt><trkpt lat="44.1064018" lon="10.9664679"><ele>500.0</ele><time>2026-05-02T13:09:27.764Z</time></trkpt><trkpt lat="44.1062492" lon="10.9663187"><ele>500.0</ele><time>2026-05-02T13:09:28.749Z</time></trkpt><trkpt lat="44.1061155" lon="10.9661931"><ele>500.0</ele><time>2026-05-02T13:09:29.75Z</time></trkpt><trkpt lat="44.105977" lon="10.9660785"><ele>500.0</ele><time>2026-05-02T13:09:30.755Z</time></trkpt><trkpt lat="44.1058274" lon="10.966022"><ele>498.0</ele><time>2026-05-02T13:09:31.756Z</time></trkpt><trkpt lat="44.1056776" lon="10.9659977"><ele>496.0</ele><time>2026-05-02T13:09:32.75Z</time></trkpt><trkpt lat="44.1055051" lon="10.9660164"><ele>494.0</ele><time>2026-05-02T13:09:33.752Z</time></trkpt><trkpt lat="44.1053426" lon="10.9660048"><ele>494.0</ele><time>2026-05-02T13:09:34.752Z</time></trkpt><trkpt lat="44.1051686" lon="10.9659998"><ele>494.0</ele><time>2026-05-02T13:09:35.752Z</time></trkpt><trkpt lat="44.1049915" lon="10.9660373"><ele>494.0</ele><time>2026-05-02T13:09:36.752Z</time></trkpt><trkpt lat="44.1048123" lon="10.9660641"><ele>491.3333333333333</ele><time>2026-05-02T13:09:37.752Z</time></trkpt><trkpt lat="44.1046145" lon="10.9660393"><ele>488.66666666666663</ele><time>2026-05-02T13:09:38.749Z</time></trkpt><trkpt lat="44.1044312" lon="10.9660355"><ele>486.0</ele><time>2026-05-02T13:09:39.755Z</time></trkpt><trkpt lat="44.1042526" lon="10.9660547"><ele>486.0</ele><time>2026-05-02T13:09:40.751Z</time></trkpt><trkpt lat="44.1040985" lon="10.9660597"><ele>486.0</ele><time>2026-05-02T13:09:41.75Z</time></trkpt><trkpt lat="44.1039577" lon="10.9660644"><ele>486.0</ele><time>2026-05-02T13:09:42.745Z</time></trkpt><trkpt lat="44.1038475" lon="10.966057"><ele>486.0</ele><time>2026-05-02T13:09:43.748Z</time></trkpt><trkpt lat="44.1037637" lon="10.9660196"><ele>486.8</ele><time>2026-05-02T13:09:44.754Z</time></trkpt><trkpt lat="44.1037198" lon="10.9659411"><ele>487.6</ele><time>2026-05-02T13:09:45.752Z</time></trkpt><trkpt lat="44.1036914" lon="10.9658311"><ele>488.4</ele><time>2026-05-02T13:09:46.754Z</time></trkpt><trkpt lat="44.1036746" lon="10.9656927"><ele>489.2</ele><time>2026-05-02T13:09:47.755Z</time></trkpt><trkpt lat="44.103638" lon="10.9655634"><ele>490.0</ele><time>2026-05-02T13:09:48.752Z</time></trkpt><trkpt lat="44.1035647" lon="10.965455"><ele>489.25</ele><time>2026-05-02T13:09:49.753Z</time></trkpt><trkpt lat="44.1034774" lon="10.9653625"><ele>488.5</ele><time>2026-05-02T13:09:50.756Z</time></trkpt><trkpt lat="44.1033661" lon="10.9652917"><ele>487.75</ele><time>2026-05-02T13:09:51.751Z</time></trkpt><trkpt lat="44.1032374" lon="10.9652738"><ele>487.0</ele><time>2026-05-02T13:09:52.757Z</time></trkpt><trkpt lat="44.1031162" lon="10.9652686"><ele>487.0</ele><time>2026-05-02T13:09:53.752Z</time></trkpt><trkpt lat="44.1030104" lon="10.9652682"><ele>487.0</ele><time>2026-05-02T13:09:54.752Z</time></trkpt><trkpt lat="44.1028975" lon="10.9652411"><ele>487.0</ele><time>2026-05-02T13:09:55.752Z</time></trkpt><trkpt lat="44.1027677" lon="10.9651679"><ele>487.0</ele><time>2026-05-02T13:09:56.753Z</time></trkpt><trkpt lat="44.1026173" lon="10.9650209"><ele>488.33333333333337</ele><time>2026-05-02T13:09:57.756Z</time></trkpt><trkpt lat="44.1025711" lon="10.9648078"><ele>489.66666666666663</ele><time>2026-05-02T13:09:58.752Z</time></trkpt><trkpt lat="44.1026292" lon="10.9644873"><ele>491.0</ele><time>2026-05-02T13:09:59.755Z</time></trkpt><trkpt lat="44.1025892" lon="10.9642743"><ele>494.0</ele><time>2026-05-02T13:10:00.755Z</time></trkpt><trkpt lat="44.1025249" lon="10.9640646"><ele>497.0</ele><time>2026-05-02T13:10:01.753Z</time></trkpt><trkpt lat="44.1024919" lon="10.9638412"><ele>500.0</ele><time>2026-05-02T13:10:02.752Z</time></trkpt><trkpt lat="44.1024474" lon="10.9636223"><ele>496.3333333333333</ele><time>2026-05-02T13:10:03.75Z</time></trkpt><trkpt lat="44.1023894" lon="10.9633975"><ele>492.66666666666663</ele><time>2026-05-02T13:10:04.757Z</time></trkpt><trkpt lat="44.1023257" lon="10.9631834"><ele>489.0</ele><time>2026-05-02T13:10:05.755Z</time></trkpt><trkpt lat="44.1022212" lon="10.9629811"><ele>488.33333333333337</ele><time>2026-05-02T13:10:06.751Z</time></trkpt><trkpt lat="44.1021275" lon="10.9627763"><ele>487.6666666666667</ele><time>2026-05-02T13:10:07.753Z</time></trkpt><trkpt lat="44.102029" lon="10.9625795"><ele>487.0</ele><time>2026-05-02T13:10:08.756Z</time></trkpt><trkpt lat="44.1019166" lon="10.9623947"><ele>488.33333333333337</ele><time>2026-05-02T13:10:09.75Z</time></trkpt><trkpt lat="44.1017944" lon="10.9622277"><ele>489.66666666666663</ele><time>2026-05-02T13:10:10.753Z</time></trkpt><trkpt lat="44.1016674" lon="10.9620599"><ele>491.0</ele><time>2026-05-02T13:10:11.757Z</time></trkpt><trkpt lat="44.1015478" lon="10.9619047"><ele>491.0</ele><time>2026-05-02T13:10:12.752Z</time></trkpt><trkpt lat="44.101426" lon="10.9617681"><ele>491.0</ele><time>2026-05-02T13:10:13.752Z</time></trkpt><trkpt lat="44.1012975" lon="10.9616732"><ele>491.0</ele><time>2026-05-02T13:10:14.757Z</time></trkpt><trkpt lat="44.1011716" lon="10.961591"><ele>491.0</ele><time>2026-05-02T13:10:15.752Z</time></trkpt><trkpt lat="44.1010445" lon="10.9615251"><ele>491.75</ele><time>2026-05-02T13:10:16.752Z</time></trkpt><trkpt lat="44.1009205" lon="10.9614577"><ele>492.5</ele><time>2026-05-02T13:10:17.754Z</time></trkpt><trkpt lat="44.1008066" lon="10.9613863"><ele>493.25</ele><time>2026-05-02T13:10:18.753Z</time></trkpt><trkpt lat="44.1006965" lon="10.9613183"><ele>494.0</ele><time>2026-05-02T13:10:19.753Z</time></trkpt><trkpt lat="44.1005951" lon="10.9612475"><ele>492.79999999999995</ele><time>2026-05-02T13:10:20.76Z</time></trkpt><trkpt lat="44.1004992" lon="10.9611751"><ele>491.59999999999997</ele><time>2026-05-02T13:10:21.749Z</time></trkpt><trkpt lat="44.100422" lon="10.961079"><ele>490.4</ele><time>2026-05-02T13:10:22.75Z</time></trkpt><trkpt lat="44.100343" lon="10.9609824"><ele>489.2</ele><time>2026-05-02T13:10:23.753Z</time></trkpt><trkpt lat="44.1002527" lon="10.9609048"><ele>488.0</ele><time>2026-05-02T13:10:24.75Z</time></trkpt><trkpt lat="44.1001503" lon="10.9608531"><ele>489.25</ele><time>2026-05-02T13:10:25.744Z</time></trkpt><trkpt lat="44.1000387" lon="10.960787"><ele>490.5</ele><time>2026-05-02T13:10:26.751Z</time></trkpt><trkpt lat="44.0999242" lon="10.9607139"><ele>491.75</ele><time>2026-05-02T13:10:27.751Z</time></trkpt><trkpt lat="44.0998186" lon="10.9606294"><ele>493.0</ele><time>2026-05-02T13:10:28.748Z</time></trkpt><trkpt lat="44.099703" lon="10.9605446"><ele>493.0</ele><time>2026-05-02T13:10:29.752Z</time></trkpt><trkpt lat="44.0995672" lon="10.9604662"><ele>493.0</ele><time>2026-05-02T13:10:30.751Z</time></trkpt><trkpt lat="44.099437" lon="10.9603923"><ele>493.0</ele><time>2026-05-02T13:10:31.749Z</time></trkpt><trkpt lat="44.0993083" lon="10.960334"><ele>493.0</ele><time>2026-05-02T13:10:32.75Z</time></trkpt><trkpt lat="44.0991794" lon="10.9603027"><ele>493.25</ele><time>2026-05-02T13:10:33.755Z</time></trkpt><trkpt lat="44.0990544" lon="10.9602634"><ele>493.5</ele><time>2026-05-02T13:10:34.749Z</time></trkpt><trkpt lat="44.0989276" lon="10.9602174"><ele>493.75</ele><time>2026-05-02T13:10:35.751Z</time></trkpt><trkpt lat="44.0987987" lon="10.9601923"><ele>494.0</ele><time>2026-05-02T13:10:36.751Z</time></trkpt><trkpt lat="44.0986537" lon="10.9601648"><ele>494.0</ele><time>2026-05-02T13:10:37.75Z</time></trkpt><trkpt lat="44.0985231" lon="10.9601384"><ele>494.0</ele><time>2026-05-02T13:10:38.752Z</time></trkpt><trkpt lat="44.0983787" lon="10.9601181"><ele>494.0</ele><time>2026-05-02T13:10:39.761Z</time></trkpt><trkpt lat="44.0982423" lon="10.9601094"><ele>494.0</ele><time>2026-05-02T13:10:40.751Z</time></trkpt><trkpt lat="44.0981118" lon="10.9600646"><ele>495.25</ele><time>2026-05-02T13:10:41.75Z</time></trkpt><trkpt lat="44.0979776" lon="10.9600073"><ele>496.5</ele><time>2026-05-02T13:10:42.751Z</time></trkpt><trkpt lat="44.0978494" lon="10.9599155"><ele>497.75</ele><time>2026-05-02T13:10:43.754Z</time></trkpt><trkpt lat="44.097722" lon="10.9598322"><ele>499.0</ele><time>2026-05-02T13:10:44.751Z</time></trkpt><trkpt lat="44.0975915" lon="10.9597439"><ele>499.0</ele><time>2026-05-02T13:10:45.755Z</time></trkpt><trkpt lat="44.0974476" lon="10.959674"><ele>499.0</ele><time>2026-05-02T13:10:46.749Z</time></trkpt><trkpt lat="44.0973162" lon="10.9595917"><ele>499.0</ele><time>2026-05-02T13:10:47.753Z</time></trkpt><trkpt lat="44.0971767" lon="10.9595206"><ele>499.0</ele><time>2026-05-02T13:10:48.751Z</time></trkpt><trkpt lat="44.097025" lon="10.9594299"><ele>498.33333333333337</ele><time>2026-05-02T13:10:49.753Z</time></trkpt><trkpt lat="44.0968633" lon="10.9593361"><ele>497.66666666666663</ele><time>2026-05-02T13:10:50.752Z</time></trkpt><trkpt lat="44.0966981" lon="10.9592226"><ele>497.0</ele><time>2026-05-02T13:10:51.751Z</time></trkpt><trkpt lat="44.0965326" lon="10.9591091"><ele>499.0</ele><time>2026-05-02T13:10:52.755Z</time></trkpt><trkpt lat="44.0963672" lon="10.9590027"><ele>501.0</ele><time>2026-05-02T13:10:53.757Z</time></trkpt><trkpt lat="44.0962056" lon="10.9588899"><ele>503.0</ele><time>2026-05-02T13:10:54.75Z</time></trkpt><trkpt lat="44.0960529" lon="10.9587623"><ele>503.0</ele><time>2026-05-02T13:10:55.755Z</time></trkpt><trkpt lat="44.0958994" lon="10.9586123"><ele>503.0</ele><time>2026-05-02T13:10:56.754Z</time></trkpt><trkpt lat="44.0957416" lon="10.9584819"><ele>503.0</ele><time>2026-05-02T13:10:57.752Z</time></trkpt><trkpt lat="44.0956009" lon="10.9583421"><ele>503.25</ele><time>2026-05-02T13:10:58.766Z</time></trkpt><trkpt lat="44.0954731" lon="10.9582199"><ele>503.5</ele><time>2026-05-02T13:10:59.75Z</time></trkpt><trkpt lat="44.0953612" lon="10.9581107"><ele>503.75</ele><time>2026-05-02T13:11:00.75Z</time></trkpt><trkpt lat="44.0952747" lon="10.9579851"><ele>504.0</ele><time>2026-05-02T13:11:01.75Z</time></trkpt><trkpt lat="44.0952219" lon="10.9578419"><ele>504.0</ele><time>2026-05-02T13:11:02.753Z</time></trkpt><trkpt lat="44.0952009" lon="10.957681"><ele>504.0</ele><time>2026-05-02T13:11:03.749Z</time></trkpt><trkpt lat="44.0951862" lon="10.9575077"><ele>504.0</ele><time>2026-05-02T13:11:04.751Z</time></trkpt><trkpt lat="44.0951417" lon="10.9573508"><ele>504.0</ele><time>2026-05-02T13:11:05.751Z</time></trkpt><trkpt lat="44.0950791" lon="10.957188"><ele>504.0</ele><time>2026-05-02T13:11:06.752Z</time></trkpt><trkpt lat="44.0950373" lon="10.9570282"><ele>504.0</ele><time>2026-05-02T13:11:07.749Z</time></trkpt><trkpt lat="44.0949834" lon="10.9568514"><ele>504.0</ele><time>2026-05-02T13:11:08.758Z</time></trkpt><trkpt lat="44.0949135" lon="10.9566847"><ele>504.0</ele><time>2026-05-02T13:11:09.74Z</time></trkpt><trkpt lat="44.0949341" lon="10.9564236"><ele>504.0</ele><time>2026-05-02T13:11:10.751Z</time></trkpt><trkpt lat="44.0948977" lon="10.9562078"><ele>504.0</ele><time>2026-05-02T13:11:11.752Z</time></trkpt><trkpt lat="44.0948426" lon="10.9560372"><ele>504.0</ele><time>2026-05-02T13:11:12.75Z</time></trkpt><trkpt lat="44.0947501" lon="10.9558917"><ele>504.0</ele><time>2026-05-02T13:11:13.75Z</time></trkpt><trkpt lat="44.094616" lon="10.9557528"><ele>506.66666666666663</ele><time>2026-05-02T13:11:14.747Z</time></trkpt><trkpt lat="44.0944672" lon="10.9555965"><ele>509.3333333333333</ele><time>2026-05-02T13:11:15.753Z</time></trkpt><trkpt lat="44.0943072" lon="10.9554657"><ele>512.0</ele><time>2026-05-02T13:11:16.752Z</time></trkpt><trkpt lat="44.0941359" lon="10.9553445"><ele>510.3333333333333</ele><time>2026-05-02T13:11:17.763Z</time></trkpt><trkpt lat="44.0939632" lon="10.9552254"><ele>508.66666666666663</ele><time>2026-05-02T13:11:18.754Z</time></trkpt><trkpt lat="44.0938035" lon="10.9551185"><ele>507.0</ele><time>2026-05-02T13:11:19.756Z</time></trkpt><trkpt lat="44.093628" lon="10.9550513"><ele>514.6666666666666</ele><time>2026-05-02T13:11:20.749Z</time></trkpt><trkpt lat="44.0934389" lon="10.9550079"><ele>522.3333333333333</ele><time>2026-05-02T13:11:21.76Z</time></trkpt><trkpt lat="44.0932567" lon="10.9549747"><ele>530.0</ele><time>2026-05-02T13:11:22.75Z</time></trkpt><trkpt lat="44.0930501" lon="10.9549652"><ele>530.0</ele><time>2026-05-02T13:11:23.752Z</time></trkpt><trkpt lat="44.0928462" lon="10.9549803"><ele>530.0</ele><time>2026-05-02T13:11:24.75Z</time></trkpt><trkpt lat="44.092635" lon="10.9549889"><ele>530.0</ele><time>2026-05-02T13:11:25.755Z</time></trkpt><trkpt lat="44.0924345" lon="10.9550071"><ele>532.0</ele><time>2026-05-02T13:11:26.75Z</time></trkpt><trkpt lat="44.0922465" lon="10.9550286"><ele>534.0</ele><time>2026-05-02T13:11:27.749Z</time></trkpt><trkpt lat="44.0920617" lon="10.9550619"><ele>536.0</ele><time>2026-05-02T13:11:28.752Z</time></trkpt><trkpt lat="44.0918957" lon="10.9550846"><ele>534.0</ele><time>2026-05-02T13:11:29.761Z</time></trkpt><trkpt lat="44.0917593" lon="10.9550989"><ele>532.0</ele><time>2026-05-02T13:11:30.752Z</time></trkpt><trkpt lat="44.0916442" lon="10.9551144"><ele>530.0</ele><time>2026-05-02T13:11:31.753Z</time></trkpt><trkpt lat="44.091563" lon="10.9551147"><ele>528.0</ele><time>2026-05-02T13:11:32.752Z</time></trkpt><trkpt lat="44.091496" lon="10.9551118"><ele>526.0</ele><time>2026-05-02T13:11:33.759Z</time></trkpt><trkpt lat="44.0913703" lon="10.9550884"><ele>526.0</ele><time>2026-05-02T13:11:35.756Z</time></trkpt><trkpt lat="44.0912423" lon="10.9550885"><ele>526.0</ele><time>2026-05-02T13:11:37.755Z</time></trkpt><trkpt lat="44.0911256" lon="10.9550718"><ele>526.0</ele><time>2026-05-02T13:11:39.754Z</time></trkpt><trkpt lat="44.0910095" lon="10.9550452"><ele>526.0</ele><time>2026-05-02T13:11:41.751Z</time></trkpt><trkpt lat="44.0908909" lon="10.9550052"><ele>526.2857142857142</ele><time>2026-05-02T13:11:43.754Z</time></trkpt><trkpt lat="44.0908315" lon="10.9549735"><ele>526.5714285714286</ele><time>2026-05-02T13:11:44.752Z</time></trkpt><trkpt lat="44.0907149" lon="10.9549294"><ele>526.8571428571429</ele><time>2026-05-02T13:11:46.751Z</time></trkpt><trkpt lat="44.0906517" lon="10.9549066"><ele>527.1428571428571</ele><time>2026-05-02T13:11:47.752Z</time></trkpt><trkpt lat="44.0905927" lon="10.9548703"><ele>527.4285714285714</ele><time>2026-05-02T13:11:48.755Z</time></trkpt><trkpt lat="44.0905301" lon="10.9548344"><ele>527.7142857142857</ele><time>2026-05-02T13:11:49.754Z</time></trkpt><trkpt lat="44.0904673" lon="10.9548021"><ele>528.0</ele><time>2026-05-02T13:11:50.754Z</time></trkpt><trkpt lat="44.0904016" lon="10.9547573"><ele>525.8333333333334</ele><time>2026-05-02T13:11:51.75Z</time></trkpt><trkpt lat="44.0903338" lon="10.9547115"><ele>523.6666666666666</ele><time>2026-05-02T13:11:52.75Z</time></trkpt><trkpt lat="44.0902681" lon="10.9546526"><ele>521.5</ele><time>2026-05-02T13:11:53.752Z</time></trkpt><trkpt lat="44.0902017" lon="10.9545867"><ele>519.3333333333333</ele><time>2026-05-02T13:11:54.755Z</time></trkpt><trkpt lat="44.090137" lon="10.9545136"><ele>517.1666666666666</ele><time>2026-05-02T13:11:55.751Z</time></trkpt><trkpt lat="44.0900639" lon="10.9544422"><ele>515.0</ele><time>2026-05-02T13:11:56.75Z</time></trkpt><trkpt lat="44.0899848" lon="10.9543739"><ele>515.4</ele><time>2026-05-02T13:11:57.761Z</time></trkpt><trkpt lat="44.089901" lon="10.9543107"><ele>515.8</ele><time>2026-05-02T13:11:58.75Z</time></trkpt><trkpt lat="44.0898138" lon="10.9542345"><ele>516.2</ele><time>2026-05-02T13:11:59.749Z</time></trkpt><trkpt lat="44.089739" lon="10.9541639"><ele>516.6</ele><time>2026-05-02T13:12:00.752Z</time></trkpt><trkpt lat="44.089674" lon="10.9540974"><ele>517.0</ele><time>2026-05-02T13:12:01.753Z</time></trkpt><trkpt lat="44.089621" lon="10.9540011"><ele>517.0</ele><time>2026-05-02T13:12:02.754Z</time></trkpt><trkpt lat="44.0895672" lon="10.953889"><ele>517.0</ele><time>2026-05-02T13:12:03.749Z</time></trkpt><trkpt lat="44.0895005" lon="10.9537597"><ele>517.0</ele><time>2026-05-02T13:12:04.749Z</time></trkpt><trkpt lat="44.0894357" lon="10.9535967"><ele>517.0</ele><time>2026-05-02T13:12:05.752Z</time></trkpt><trkpt lat="44.0893614" lon="10.953454"><ele>517.5</ele><time>2026-05-02T13:12:06.751Z</time></trkpt><trkpt lat="44.0893094" lon="10.9532866"><ele>518.0</ele><time>2026-05-02T13:12:07.751Z</time></trkpt><trkpt lat="44.0892567" lon="10.9531219"><ele>518.5</ele><time>2026-05-02T13:12:08.75Z</time></trkpt><trkpt lat="44.0892178" lon="10.9529585"><ele>519.0</ele><time>2026-05-02T13:12:09.752Z</time></trkpt><trkpt lat="44.0891917" lon="10.9527929"><ele>519.0</ele><time>2026-05-02T13:12:10.749Z</time></trkpt><trkpt lat="44.0891918" lon="10.9525996"><ele>519.0</ele><time>2026-05-02T13:12:11.754Z</time></trkpt><trkpt lat="44.0891901" lon="10.9524034"><ele>519.0</ele><time>2026-05-02T13:12:12.76Z</time></trkpt><trkpt lat="44.0891899" lon="10.9522185"><ele>519.0</ele><time>2026-05-02T13:12:13.75Z</time></trkpt><trkpt lat="44.0892039" lon="10.9520488"><ele>519.2</ele><time>2026-05-02T13:12:14.749Z</time></trkpt><trkpt lat="44.089219" lon="10.9519167"><ele>519.4</ele><time>2026-05-02T13:12:15.748Z</time></trkpt><trkpt lat="44.0892312" lon="10.9518057"><ele>519.6</ele><time>2026-05-02T13:12:16.753Z</time></trkpt><trkpt lat="44.0892512" lon="10.9517024"><ele>519.8</ele><time>2026-05-02T13:12:18.755Z</time></trkpt><trkpt lat="44.0892825" lon="10.9515459"><ele>520.0</ele><time>2026-05-02T13:14:41.753Z</time></trkpt><trkpt lat="44.0893307" lon="10.951436"><ele>519.5</ele><time>2026-05-02T13:14:42.751Z</time></trkpt><trkpt lat="44.0893819" lon="10.9513673"><ele>519.0</ele><time>2026-05-02T13:14:43.754Z</time></trkpt><trkpt lat="44.0894488" lon="10.9513208"><ele>518.5</ele><time>2026-05-02T13:14:44.748Z</time></trkpt><trkpt lat="44.0895186" lon="10.951286"><ele>518.0</ele><time>2026-05-02T13:14:45.752Z</time></trkpt><trkpt lat="44.0896093" lon="10.9512286"><ele>517.5</ele><time>2026-05-02T13:14:47.746Z</time></trkpt><trkpt lat="44.0895974" lon="10.9511276"><ele>517.0</ele><time>2026-05-02T13:14:51.762Z</time></trkpt><trkpt lat="44.0895066" lon="10.9511396"><ele>517.0</ele><time>2026-05-02T13:14:55.747Z</time></trkpt><trkpt lat="44.0894665" lon="10.9512117"><ele>517.0</ele><time>2026-05-02T13:15:13.752Z</time></trkpt><trkpt lat="44.0893711" lon="10.9512704"><ele>517.0</ele><time>2026-05-02T13:15:15.753Z</time></trkpt><trkpt lat="44.0893166" lon="10.9513187"><ele>517.0</ele><time>2026-05-02T13:15:16.752Z</time></trkpt><trkpt lat="44.0892568" lon="10.9513858"><ele>517.0</ele><time>2026-05-02T13:15:17.762Z</time></trkpt><trkpt lat="44.0892253" lon="10.951576"><ele>517.75</ele><time>2026-05-02T13:15:18.751Z</time></trkpt><trkpt lat="44.0892183" lon="10.9517576"><ele>518.5</ele><time>2026-05-02T13:15:19.771Z</time></trkpt><trkpt lat="44.0892021" lon="10.9519113"><ele>519.25</ele><time>2026-05-02T13:15:20.752Z</time></trkpt><trkpt lat="44.0891892" lon="10.9520824"><ele>520.0</ele><time>2026-05-02T13:15:21.754Z</time></trkpt><trkpt lat="44.0891784" lon="10.9522553"><ele>520.0</ele><time>2026-05-02T13:15:22.754Z</time></trkpt><trkpt lat="44.0891713" lon="10.9524304"><ele>520.0</ele><time>2026-05-02T13:15:23.75Z</time></trkpt><trkpt lat="44.0891604" lon="10.9525928"><ele>520.0</ele><time>2026-05-02T13:15:24.75Z</time></trkpt><trkpt lat="44.089183" lon="10.9527419"><ele>520.0</ele><time>2026-05-02T13:15:25.745Z</time></trkpt><trkpt lat="44.0892172" lon="10.9528892"><ele>519.75</ele><time>2026-05-02T13:15:26.748Z</time></trkpt><trkpt lat="44.0892644" lon="10.953051"><ele>519.5</ele><time>2026-05-02T13:15:27.751Z</time></trkpt><trkpt lat="44.089296" lon="10.9532076"><ele>519.25</ele><time>2026-05-02T13:15:28.752Z</time></trkpt><trkpt lat="44.0893362" lon="10.9533539"><ele>519.0</ele><time>2026-05-02T13:15:29.752Z</time></trkpt><trkpt lat="44.0893806" lon="10.9535006"><ele>518.6</ele><time>2026-05-02T13:15:30.756Z</time></trkpt><trkpt lat="44.0894281" lon="10.953635"><ele>518.2</ele><time>2026-05-02T13:15:31.748Z</time></trkpt><trkpt lat="44.0894722" lon="10.9537528"><ele>517.8000000000001</ele><time>2026-05-02T13:15:32.754Z</time></trkpt><trkpt lat="44.0895282" lon="10.9538844"><ele>517.4</ele><time>2026-05-02T13:15:33.758Z</time></trkpt><trkpt lat="44.089591" lon="10.9539964"><ele>517.0</ele><time>2026-05-02T13:15:34.749Z</time></trkpt><trkpt lat="44.0896712" lon="10.9541161"><ele>516.5</ele><time>2026-05-02T13:15:35.755Z</time></trkpt><trkpt lat="44.0897458" lon="10.9542249"><ele>516.0</ele><time>2026-05-02T13:15:36.738Z</time></trkpt><trkpt lat="44.0898652" lon="10.9543213"><ele>515.5</ele><time>2026-05-02T13:15:37.761Z</time></trkpt><trkpt lat="44.0899819" lon="10.9544221"><ele>515.0</ele><time>2026-05-02T13:15:38.748Z</time></trkpt><trkpt lat="44.0900916" lon="10.9545169"><ele>515.0</ele><time>2026-05-02T13:15:39.753Z</time></trkpt><trkpt lat="44.0901945" lon="10.9546207"><ele>515.0</ele><time>2026-05-02T13:15:40.749Z</time></trkpt><trkpt lat="44.0903135" lon="10.9547225"><ele>515.0</ele><time>2026-05-02T13:15:41.749Z</time></trkpt><trkpt lat="44.0904524" lon="10.954822"><ele>515.0</ele><time>2026-05-02T13:15:42.75Z</time></trkpt><trkpt lat="44.0905739" lon="10.9549116"><ele>515.0</ele><time>2026-05-02T13:15:43.76Z</time></trkpt><trkpt lat="44.0907013" lon="10.9549979"><ele>515.0</ele><time>2026-05-02T13:15:44.75Z</time></trkpt><trkpt lat="44.0908391" lon="10.9550697"><ele>515.0</ele><time>2026-05-02T13:15:45.761Z</time></trkpt><trkpt lat="44.0910064" lon="10.9551196"><ele>517.75</ele><time>2026-05-02T13:15:46.751Z</time></trkpt><trkpt lat="44.0911624" lon="10.9551727"><ele>520.5</ele><time>2026-05-02T13:15:47.753Z</time></trkpt><trkpt lat="44.0913004" lon="10.9552295"><ele>523.25</ele><time>2026-05-02T13:15:48.757Z</time></trkpt><trkpt lat="44.091444" lon="10.9552359"><ele>526.0</ele><time>2026-05-02T13:15:49.751Z</time></trkpt><trkpt lat="44.0915832" lon="10.9552301"><ele>522.3333333333334</ele><time>2026-05-02T13:15:50.75Z</time></trkpt><trkpt lat="44.0917332" lon="10.9552323"><ele>518.6666666666666</ele><time>2026-05-02T13:15:51.746Z</time></trkpt><trkpt lat="44.0918844" lon="10.955203"><ele>515.0</ele><time>2026-05-02T13:15:52.755Z</time></trkpt><trkpt lat="44.092043" lon="10.9551787"><ele>515.0</ele><time>2026-05-02T13:15:53.751Z</time></trkpt><trkpt lat="44.0921921" lon="10.9551209"><ele>515.0</ele><time>2026-05-02T13:15:54.747Z</time></trkpt><trkpt lat="44.0923511" lon="10.9551062"><ele>515.0</ele><time>2026-05-02T13:15:55.76Z</time></trkpt><trkpt lat="44.0925297" lon="10.9550842"><ele>514.6666666666666</ele><time>2026-05-02T13:15:56.748Z</time></trkpt><trkpt lat="44.0926906" lon="10.9550567"><ele>514.3333333333334</ele><time>2026-05-02T13:15:57.746Z</time></trkpt><trkpt lat="44.0928585" lon="10.9550521"><ele>514.0</ele><time>2026-05-02T13:15:58.754Z</time></trkpt><trkpt lat="44.0930138" lon="10.9550029"><ele>511.6666666666667</ele><time>2026-05-02T13:15:59.75Z</time></trkpt><trkpt lat="44.0931672" lon="10.955001"><ele>509.33333333333337</ele><time>2026-05-02T13:16:00.758Z</time></trkpt><trkpt lat="44.0933255" lon="10.9550237"><ele>507.0</ele><time>2026-05-02T13:16:01.753Z</time></trkpt><trkpt lat="44.0934928" lon="10.9550414"><ele>507.0</ele><time>2026-05-02T13:16:02.751Z</time></trkpt><trkpt lat="44.0936459" lon="10.9550702"><ele>507.0</ele><time>2026-05-02T13:16:03.75Z</time></trkpt><trkpt lat="44.0938062" lon="10.9551234"><ele>507.0</ele><time>2026-05-02T13:16:04.752Z</time></trkpt><trkpt lat="44.0939591" lon="10.9552048"><ele>508.66666666666663</ele><time>2026-05-02T13:16:05.762Z</time></trkpt><trkpt lat="44.0941195" lon="10.9552671"><ele>510.3333333333333</ele><time>2026-05-02T13:16:06.755Z</time></trkpt><trkpt lat="44.0942556" lon="10.9553836"><ele>512.0</ele><time>2026-05-02T13:16:07.751Z</time></trkpt><trkpt lat="44.0944078" lon="10.9554454"><ele>512.0</ele><time>2026-05-02T13:16:08.748Z</time></trkpt><trkpt lat="44.0945217" lon="10.9556247"><ele>512.0</ele><time>2026-05-02T13:16:09.755Z</time></trkpt><trkpt lat="44.0946292" lon="10.9557681"><ele>512.0</ele><time>2026-05-02T13:16:10.749Z</time></trkpt><trkpt lat="44.0947287" lon="10.9558777"><ele>512.0</ele><time>2026-05-02T13:16:11.747Z</time></trkpt><trkpt lat="44.0948221" lon="10.9560027"><ele>511.0</ele><time>2026-05-02T13:16:12.75Z</time></trkpt><trkpt lat="44.0948888" lon="10.9561642"><ele>510.0</ele><time>2026-05-02T13:16:13.75Z</time></trkpt><trkpt lat="44.0949351" lon="10.9563448"><ele>509.0</ele><time>2026-05-02T13:16:14.748Z</time></trkpt><trkpt lat="44.0949699" lon="10.9565293"><ele>508.0</ele><time>2026-05-02T13:16:15.747Z</time></trkpt><trkpt lat="44.0949898" lon="10.9567255"><ele>508.0</ele><time>2026-05-02T13:16:16.753Z</time></trkpt><trkpt lat="44.0950002" lon="10.9569209"><ele>508.0</ele><time>2026-05-02T13:16:17.758Z</time></trkpt><trkpt lat="44.0950316" lon="10.9570939"><ele>508.0</ele><time>2026-05-02T13:16:18.752Z</time></trkpt><trkpt lat="44.0950897" lon="10.957259"><ele>508.0</ele><time>2026-05-02T13:16:19.753Z</time></trkpt><trkpt lat="44.0951466" lon="10.9574271"><ele>507.0</ele><time>2026-05-02T13:16:20.748Z</time></trkpt><trkpt lat="44.0951917" lon="10.9576003"><ele>506.0</ele><time>2026-05-02T13:16:21.755Z</time></trkpt><trkpt lat="44.0951989" lon="10.9577852"><ele>505.0</ele><time>2026-05-02T13:16:22.752Z</time></trkpt><trkpt lat="44.0952349" lon="10.9579451"><ele>504.0</ele><time>2026-05-02T13:16:23.753Z</time></trkpt><trkpt lat="44.0953203" lon="10.9580916"><ele>504.0</ele><time>2026-05-02T13:16:24.748Z</time></trkpt><trkpt lat="44.0954026" lon="10.9582553"><ele>504.0</ele><time>2026-05-02T13:16:25.748Z</time></trkpt><trkpt lat="44.0955386" lon="10.9583925"><ele>504.0</ele><time>2026-05-02T13:16:26.747Z</time></trkpt><trkpt lat="44.0956813" lon="10.9585234"><ele>503.66666666666663</ele><time>2026-05-02T13:16:27.75Z</time></trkpt><trkpt lat="44.0958195" lon="10.9586603"><ele>503.3333333333333</ele><time>2026-05-02T13:16:28.759Z</time></trkpt><trkpt lat="44.0959699" lon="10.9588076"><ele>503.0</ele><time>2026-05-02T13:16:29.755Z</time></trkpt><trkpt lat="44.09612" lon="10.9589567"><ele>503.0</ele><time>2026-05-02T13:16:30.749Z</time></trkpt><trkpt lat="44.0962806" lon="10.9590801"><ele>503.0</ele><time>2026-05-02T13:16:31.751Z</time></trkpt><trkpt lat="44.0964407" lon="10.9591871"><ele>503.0</ele><time>2026-05-02T13:16:32.755Z</time></trkpt><trkpt lat="44.0965892" lon="10.959286"><ele>501.0</ele><time>2026-05-02T13:16:33.751Z</time></trkpt><trkpt lat="44.0967465" lon="10.95938"><ele>499.0</ele><time>2026-05-02T13:16:34.738Z</time></trkpt><trkpt lat="44.0969042" lon="10.9594636"><ele>497.0</ele><time>2026-05-02T13:16:35.752Z</time></trkpt><trkpt lat="44.0970611" lon="10.9595381"><ele>497.0</ele><time>2026-05-02T13:16:36.749Z</time></trkpt><trkpt lat="44.0971571" lon="10.9596134"><ele>497.0</ele><time>2026-05-02T13:16:37.749Z</time></trkpt><trkpt lat="44.0972833" lon="10.9596886"><ele>497.0</ele><time>2026-05-02T13:16:38.75Z</time></trkpt><trkpt lat="44.0973678" lon="10.9597569"><ele>497.0</ele><time>2026-05-02T13:16:39.756Z</time></trkpt><trkpt lat="44.0974682" lon="10.9598028"><ele>497.40000000000003</ele><time>2026-05-02T13:16:40.738Z</time></trkpt><trkpt lat="44.0975505" lon="10.9598484"><ele>497.80000000000007</ele><time>2026-05-02T13:16:41.751Z</time></trkpt><trkpt lat="44.0976418" lon="10.9598845"><ele>498.2</ele><time>2026-05-02T13:16:42.75Z</time></trkpt><trkpt lat="44.0977266" lon="10.9599311"><ele>498.6</ele><time>2026-05-02T13:16:43.757Z</time></trkpt><trkpt lat="44.0978163" lon="10.9599858"><ele>499.0</ele><time>2026-05-02T13:16:44.751Z</time></trkpt><trkpt lat="44.0979156" lon="10.9600357"><ele>499.4</ele><time>2026-05-02T13:16:45.753Z</time></trkpt><trkpt lat="44.098009" lon="10.960076"><ele>499.79999999999995</ele><time>2026-05-02T13:16:46.752Z</time></trkpt><trkpt lat="44.0981082" lon="10.9601028"><ele>500.20000000000005</ele><time>2026-05-02T13:16:47.749Z</time></trkpt><trkpt lat="44.0982006" lon="10.9601281"><ele>500.6</ele><time>2026-05-02T13:16:48.748Z</time></trkpt><trkpt lat="44.0983102" lon="10.9601343"><ele>501.0</ele><time>2026-05-02T13:16:49.763Z</time></trkpt><trkpt lat="44.0984242" lon="10.960151"><ele>499.25</ele><time>2026-05-02T13:16:50.753Z</time></trkpt><trkpt lat="44.0985369" lon="10.9601609"><ele>497.5</ele><time>2026-05-02T13:16:51.751Z</time></trkpt><trkpt lat="44.0986509" lon="10.9601719"><ele>495.75</ele><time>2026-05-02T13:16:52.754Z</time></trkpt><trkpt lat="44.0987651" lon="10.9601848"><ele>494.0</ele><time>2026-05-02T13:16:53.756Z</time></trkpt><trkpt lat="44.0988812" lon="10.9602025"><ele>494.0</ele><time>2026-05-02T13:16:54.76Z</time></trkpt><trkpt lat="44.0989856" lon="10.9602325"><ele>494.0</ele><time>2026-05-02T13:16:55.755Z</time></trkpt><trkpt lat="44.0991014" lon="10.9602738"><ele>494.0</ele><time>2026-05-02T13:16:56.757Z</time></trkpt><trkpt lat="44.0992163" lon="10.9603235"><ele>494.0</ele><time>2026-05-02T13:16:57.753Z</time></trkpt><trkpt lat="44.0993198" lon="10.9603942"><ele>493.75</ele><time>2026-05-02T13:16:58.758Z</time></trkpt><trkpt lat="44.0994448" lon="10.9604383"><ele>493.5</ele><time>2026-05-02T13:16:59.767Z</time></trkpt><trkpt lat="44.0995478" lon="10.9604867"><ele>493.25</ele><time>2026-05-02T13:17:00.766Z</time></trkpt><trkpt lat="44.0996556" lon="10.960546"><ele>493.0</ele><time>2026-05-02T13:17:01.772Z</time></trkpt><trkpt lat="44.0997638" lon="10.9606145"><ele>493.0</ele><time>2026-05-02T13:17:02.749Z</time></trkpt><trkpt lat="44.099866" lon="10.9606934"><ele>493.0</ele><time>2026-05-02T13:17:03.756Z</time></trkpt><trkpt lat="44.0999624" lon="10.9607677"><ele>493.0</ele><time>2026-05-02T13:17:04.753Z</time></trkpt><trkpt lat="44.1000742" lon="10.9608174"><ele>493.0</ele><time>2026-05-02T13:17:05.759Z</time></trkpt><trkpt lat="44.1001945" lon="10.9608295"><ele>491.75</ele><time>2026-05-02T13:17:06.752Z</time></trkpt><trkpt lat="44.1003065" lon="10.9608773"><ele>490.5</ele><time>2026-05-02T13:17:07.754Z</time></trkpt><trkpt lat="44.1003766" lon="10.9610032"><ele>489.25</ele><time>2026-05-02T13:17:08.752Z</time></trkpt><trkpt lat="44.100464" lon="10.9611054"><ele>488.0</ele><time>2026-05-02T13:17:09.751Z</time></trkpt><trkpt lat="44.100558" lon="10.9611896"><ele>488.0</ele><time>2026-05-02T13:17:10.751Z</time></trkpt><trkpt lat="44.1006662" lon="10.9612525"><ele>488.0</ele><time>2026-05-02T13:17:11.755Z</time></trkpt><trkpt lat="44.1007732" lon="10.9613229"><ele>488.0</ele><time>2026-05-02T13:17:12.75Z</time></trkpt><trkpt lat="44.10088" lon="10.961398"><ele>488.0</ele><time>2026-05-02T13:17:13.75Z</time></trkpt><trkpt lat="44.1010021" lon="10.9614817"><ele>488.75</ele><time>2026-05-02T13:17:14.75Z</time></trkpt><trkpt lat="44.1011235" lon="10.9615448"><ele>489.5</ele><time>2026-05-02T13:17:15.756Z</time></trkpt><trkpt lat="44.1012406" lon="10.9616161"><ele>490.25</ele><time>2026-05-02T13:17:16.754Z</time></trkpt><trkpt lat="44.1013508" lon="10.9616971"><ele>491.0</ele><time>2026-05-02T13:17:17.756Z</time></trkpt><trkpt lat="44.1014671" lon="10.9618023"><ele>491.0</ele><time>2026-05-02T13:17:18.752Z</time></trkpt><trkpt lat="44.1015611" lon="10.9619381"><ele>491.0</ele><time>2026-05-02T13:17:19.75Z</time></trkpt><trkpt lat="44.1016682" lon="10.9620729"><ele>491.0</ele><time>2026-05-02T13:17:20.745Z</time></trkpt><trkpt lat="44.1017759" lon="10.9622118"><ele>491.0</ele><time>2026-05-02T13:17:21.754Z</time></trkpt><trkpt lat="44.1018847" lon="10.9623613"><ele>489.66666666666663</ele><time>2026-05-02T13:17:22.752Z</time></trkpt><trkpt lat="44.1019875" lon="10.9625367"><ele>488.33333333333337</ele><time>2026-05-02T13:17:23.756Z</time></trkpt><trkpt lat="44.102089" lon="10.9627265"><ele>487.0</ele><time>2026-05-02T13:17:24.759Z</time></trkpt><trkpt lat="44.1021874" lon="10.9629226"><ele>487.0</ele><time>2026-05-02T13:17:25.756Z</time></trkpt><trkpt lat="44.1022839" lon="10.9631205"><ele>487.0</ele><time>2026-05-02T13:17:26.75Z</time></trkpt><trkpt lat="44.1023567" lon="10.9633159"><ele>487.0</ele><time>2026-05-02T13:17:27.752Z</time></trkpt><trkpt lat="44.1024136" lon="10.9635118"><ele>491.33333333333337</ele><time>2026-05-02T13:17:28.751Z</time></trkpt><trkpt lat="44.1024637" lon="10.9637138"><ele>495.66666666666663</ele><time>2026-05-02T13:17:29.752Z</time></trkpt><trkpt lat="44.1025251" lon="10.963924"><ele>500.0</ele><time>2026-05-02T13:17:30.748Z</time></trkpt><trkpt lat="44.1025867" lon="10.9641534"><ele>497.0</ele><time>2026-05-02T13:17:31.751Z</time></trkpt><trkpt lat="44.1026692" lon="10.9643851"><ele>494.0</ele><time>2026-05-02T13:17:32.756Z</time></trkpt><trkpt lat="44.1027581" lon="10.9646139"><ele>491.0</ele><time>2026-05-02T13:17:33.751Z</time></trkpt><trkpt lat="44.102836" lon="10.9648226"><ele>491.0</ele><time>2026-05-02T13:17:34.749Z</time></trkpt><trkpt lat="44.1029112" lon="10.9650141"><ele>491.0</ele><time>2026-05-02T13:17:35.752Z</time></trkpt><trkpt lat="44.1029836" lon="10.9651952"><ele>491.0</ele><time>2026-05-02T13:17:36.752Z</time></trkpt><trkpt lat="44.1030485" lon="10.9653165"><ele>491.0</ele><time>2026-05-02T13:17:37.76Z</time></trkpt><trkpt lat="44.1031273" lon="10.9653891"><ele>491.6</ele><time>2026-05-02T13:17:38.757Z</time></trkpt><trkpt lat="44.1032239" lon="10.9654233"><ele>492.20000000000005</ele><time>2026-05-02T13:17:39.752Z</time></trkpt><trkpt lat="44.1033265" lon="10.9654727"><ele>492.79999999999995</ele><time>2026-05-02T13:17:40.75Z</time></trkpt><trkpt lat="44.1034295" lon="10.9655303"><ele>493.4</ele><time>2026-05-02T13:17:41.739Z</time></trkpt><trkpt lat="44.1035319" lon="10.965632"><ele>494.0</ele><time>2026-05-02T13:17:42.751Z</time></trkpt><trkpt lat="44.1036313" lon="10.9657222"><ele>493.2</ele><time>2026-05-02T13:17:43.756Z</time></trkpt><trkpt lat="44.1036607" lon="10.9658622"><ele>492.4</ele><time>2026-05-02T13:17:44.755Z</time></trkpt><trkpt lat="44.1036877" lon="10.9659725"><ele>491.6</ele><time>2026-05-02T13:17:45.746Z</time></trkpt><trkpt lat="44.1037234" lon="10.9660577"><ele>490.8</ele><time>2026-05-02T13:17:46.754Z</time></trkpt><trkpt lat="44.10382" lon="10.9661486"><ele>490.0</ele><time>2026-05-02T13:17:48.749Z</time></trkpt><trkpt lat="44.1039945" lon="10.9661394"><ele>488.6666666666667</ele><time>2026-05-02T13:17:49.751Z</time></trkpt><trkpt lat="44.1041277" lon="10.966094"><ele>487.33333333333337</ele><time>2026-05-02T13:17:50.749Z</time></trkpt><trkpt lat="44.1042808" lon="10.9660333"><ele>486.0</ele><time>2026-05-02T13:17:51.748Z</time></trkpt><trkpt lat="44.1044846" lon="10.9660532"><ele>486.0</ele><time>2026-05-02T13:17:52.745Z</time></trkpt><trkpt lat="44.1046737" lon="10.9660551"><ele>486.0</ele><time>2026-05-02T13:17:53.756Z</time></trkpt><trkpt lat="44.1048508" lon="10.9660553"><ele>486.0</ele><time>2026-05-02T13:17:54.746Z</time></trkpt><trkpt lat="44.1050253" lon="10.966002"><ele>488.66666666666663</ele><time>2026-05-02T13:17:55.748Z</time></trkpt><trkpt lat="44.1051924" lon="10.9659826"><ele>491.3333333333333</ele><time>2026-05-02T13:17:56.747Z</time></trkpt><trkpt lat="44.1053483" lon="10.9659728"><ele>494.0</ele><time>2026-05-02T13:17:57.75Z</time></trkpt><trkpt lat="44.1055034" lon="10.9659902"><ele>494.0</ele><time>2026-05-02T13:17:58.748Z</time></trkpt><trkpt lat="44.1056611" lon="10.9659668"><ele>494.0</ele><time>2026-05-02T13:17:59.752Z</time></trkpt><trkpt lat="44.1058094" lon="10.9659489"><ele>494.0</ele><time>2026-05-02T13:18:00.751Z</time></trkpt><trkpt lat="44.1059618" lon="10.9660141"><ele>496.0</ele><time>2026-05-02T13:18:01.751Z</time></trkpt><trkpt lat="44.1061031" lon="10.9660601"><ele>498.0</ele><time>2026-05-02T13:18:02.75Z</time></trkpt><trkpt lat="44.1062569" lon="10.9661834"><ele>500.0</ele><time>2026-05-02T13:18:03.757Z</time></trkpt><trkpt lat="44.1063977" lon="10.9663384"><ele>500.0</ele><time>2026-05-02T13:18:04.746Z</time></trkpt><trkpt lat="44.1065361" lon="10.9665231"><ele>500.0</ele><time>2026-05-02T13:18:05.756Z</time></trkpt><trkpt lat="44.106663" lon="10.9667239"><ele>500.0</ele><time>2026-05-02T13:18:06.75Z</time></trkpt><trkpt lat="44.1067882" lon="10.9669218"><ele>500.3333333333333</ele><time>2026-05-02T13:18:07.749Z</time></trkpt><trkpt lat="44.1068986" lon="10.9671542"><ele>500.66666666666663</ele><time>2026-05-02T13:18:08.754Z</time></trkpt><trkpt lat="44.1069807" lon="10.9673987"><ele>501.0</ele><time>2026-05-02T13:18:09.753Z</time></trkpt><trkpt lat="44.1070353" lon="10.9676405"><ele>496.0</ele><time>2026-05-02T13:18:10.75Z</time></trkpt><trkpt lat="44.1071015" lon="10.9678483"><ele>491.0</ele><time>2026-05-02T13:18:11.754Z</time></trkpt><trkpt lat="44.1071446" lon="10.9680591"><ele>486.0</ele><time>2026-05-02T13:18:12.752Z</time></trkpt><trkpt lat="44.1072045" lon="10.968233"><ele>485.8</ele><time>2026-05-02T13:18:13.752Z</time></trkpt><trkpt lat="44.1072335" lon="10.9683618"><ele>485.6</ele><time>2026-05-02T13:18:14.752Z</time></trkpt><trkpt lat="44.1072925" lon="10.9684768"><ele>485.4</ele><time>2026-05-02T13:18:15.75Z</time></trkpt><trkpt lat="44.1073605" lon="10.9685787"><ele>485.2</ele><time>2026-05-02T13:18:16.754Z</time></trkpt><trkpt lat="44.107465" lon="10.968604"><ele>485.0</ele><time>2026-05-02T13:18:17.751Z</time></trkpt><trkpt lat="44.1075472" lon="10.9685885"><ele>483.66666666666663</ele><time>2026-05-02T13:18:18.75Z</time></trkpt><trkpt lat="44.1076254" lon="10.9686117"><ele>482.33333333333337</ele><time>2026-05-02T13:18:19.74Z</time></trkpt><trkpt lat="44.1077502" lon="10.9683081"><ele>481.0</ele><time>2026-05-02T13:18:20.75Z</time></trkpt><trkpt lat="44.1078185" lon="10.9681046"><ele>490.33333333333337</ele><time>2026-05-02T13:18:21.749Z</time></trkpt><trkpt lat="44.1078825" lon="10.9678931"><ele>499.66666666666663</ele><time>2026-05-02T13:18:22.751Z</time></trkpt><trkpt lat="44.1079586" lon="10.9677032"><ele>509.0</ele><time>2026-05-02T13:18:23.75Z</time></trkpt><trkpt lat="44.1080477" lon="10.9674565"><ele>516.6666666666666</ele><time>2026-05-02T13:18:24.752Z</time></trkpt><trkpt lat="44.1080115" lon="10.9672001"><ele>524.3333333333334</ele><time>2026-05-02T13:18:25.746Z</time></trkpt><trkpt lat="44.1080724" lon="10.9669877"><ele>532.0</ele><time>2026-05-02T13:18:26.749Z</time></trkpt><trkpt lat="44.1081133" lon="10.9667855"><ele>528.75</ele><time>2026-05-02T13:18:27.751Z</time></trkpt><trkpt lat="44.1081729" lon="10.9666046"><ele>525.5</ele><time>2026-05-02T13:18:28.756Z</time></trkpt><trkpt lat="44.1082607" lon="10.9664388"><ele>522.25</ele><time>2026-05-02T13:18:29.748Z</time></trkpt><trkpt lat="44.1083307" lon="10.9662783"><ele>519.0</ele><time>2026-05-02T13:18:30.749Z</time></trkpt><trkpt lat="44.1083971" lon="10.9661354"><ele>519.0</ele><time>2026-05-02T13:18:31.749Z</time></trkpt><trkpt lat="44.1084528" lon="10.9659861"><ele>519.0</ele><time>2026-05-02T13:18:32.745Z</time></trkpt><trkpt lat="44.1084655" lon="10.965816"><ele>519.0</ele><time>2026-05-02T13:18:33.757Z</time></trkpt><trkpt lat="44.1084707" lon="10.9656592"><ele>519.0</ele><time>2026-05-02T13:18:34.751Z</time></trkpt><trkpt lat="44.1084904" lon="10.9655156"><ele>523.6666666666666</ele><time>2026-05-02T13:18:35.753Z</time></trkpt><trkpt lat="44.108502" lon="10.9653995"><ele>528.3333333333334</ele><time>2026-05-02T13:18:36.764Z</time></trkpt><trkpt lat="44.1085341" lon="10.9653197"><ele>533.0</ele><time>2026-05-02T13:18:37.749Z</time></trkpt><trkpt lat="44.1085964" lon="10.9652798"><ele>537.6666666666667</ele><time>2026-05-02T13:18:38.76Z</time></trkpt><trkpt lat="44.1086689" lon="10.9652726"><ele>542.3333333333334</ele><time>2026-05-02T13:18:39.749Z</time></trkpt><trkpt lat="44.1087795" lon="10.9653802"><ele>547.0</ele><time>2026-05-02T13:18:41.75Z</time></trkpt><trkpt lat="44.1088379" lon="10.9654428"><ele>547.0</ele><time>2026-05-02T13:18:42.751Z</time></trkpt><trkpt lat="44.108855" lon="10.9656513"><ele>547.0</ele><time>2026-05-02T13:18:43.75Z</time></trkpt><trkpt lat="44.1088817" lon="10.9658317"><ele>547.0</ele><time>2026-05-02T13:18:44.747Z</time></trkpt><trkpt lat="44.1089111" lon="10.9660296"><ele>547.0</ele><time>2026-05-02T13:18:45.754Z</time></trkpt><trkpt lat="44.1089262" lon="10.9662105"><ele>542.3333333333334</ele><time>2026-05-02T13:18:46.759Z</time></trkpt><trkpt lat="44.1089414" lon="10.9663538"><ele>537.6666666666667</ele><time>2026-05-02T13:18:47.748Z</time></trkpt><trkpt lat="44.1089727" lon="10.9664628"><ele>533.0</ele><time>2026-05-02T13:18:48.752Z</time></trkpt><trkpt lat="44.1090166" lon="10.9665295"><ele>528.3333333333334</ele><time>2026-05-02T13:18:49.753Z</time></trkpt><trkpt lat="44.1091008" lon="10.9665513"><ele>523.6666666666666</ele><time>2026-05-02T13:18:50.747Z</time></trkpt><trkpt lat="44.1091812" lon="10.9665644"><ele>519.0</ele><time>2026-05-02T13:18:51.752Z</time></trkpt><trkpt lat="44.1092795" lon="10.9665417"><ele>515.75</ele><time>2026-05-02T13:18:52.761Z</time></trkpt><trkpt lat="44.1093767" lon="10.9664978"><ele>512.5</ele><time>2026-05-02T13:18:53.764Z</time></trkpt><trkpt lat="44.1094998" lon="10.9663738"><ele>509.25</ele><time>2026-05-02T13:18:54.742Z</time></trkpt><trkpt lat="44.1095843" lon="10.9663249"><ele>506.0</ele><time>2026-05-02T13:18:55.75Z</time></trkpt><trkpt lat="44.1096848" lon="10.9662822"><ele>506.0</ele><time>2026-05-02T13:18:56.748Z</time></trkpt><trkpt lat="44.1097769" lon="10.966277"><ele>506.0</ele><time>2026-05-02T13:18:57.76Z</time></trkpt><trkpt lat="44.1098836" lon="10.9663077"><ele>506.0</ele><time>2026-05-02T13:18:58.751Z</time></trkpt><trkpt lat="44.1100137" lon="10.9664126"><ele>506.0</ele><time>2026-05-02T13:18:59.747Z</time></trkpt><trkpt lat="44.1101239" lon="10.9664742"><ele>501.0</ele><time>2026-05-02T13:19:00.76Z</time></trkpt><trkpt lat="44.1102337" lon="10.9665503"><ele>496.0</ele><time>2026-05-02T13:19:01.749Z</time></trkpt><trkpt lat="44.1103291" lon="10.9666788"><ele>491.0</ele><time>2026-05-02T13:19:02.75Z</time></trkpt><trkpt lat="44.1104036" lon="10.9667757"><ele>486.0</ele><time>2026-05-02T13:19:03.758Z</time></trkpt><trkpt lat="44.1104764" lon="10.9669061"><ele>486.0</ele><time>2026-05-02T13:19:04.753Z</time></trkpt><trkpt lat="44.1105166" lon="10.9670999"><ele>486.0</ele><time>2026-05-02T13:19:05.748Z</time></trkpt><trkpt lat="44.1105875" lon="10.9672751"><ele>486.0</ele><time>2026-05-02T13:19:06.749Z</time></trkpt><trkpt lat="44.1106538" lon="10.9674739"><ele>486.0</ele><time>2026-05-02T13:19:07.752Z</time></trkpt><trkpt lat="44.1107227" lon="10.9676656"><ele>492.75</ele><time>2026-05-02T13:19:08.759Z</time></trkpt><trkpt lat="44.1107955" lon="10.9678374"><ele>499.5</ele><time>2026-05-02T13:19:09.753Z</time></trkpt><trkpt lat="44.1108387" lon="10.9680027"><ele>506.25</ele><time>2026-05-02T13:19:10.753Z</time></trkpt><trkpt lat="44.1108847" lon="10.9681355"><ele>513.0</ele><time>2026-05-02T13:19:11.756Z</time></trkpt><trkpt lat="44.1109422" lon="10.9682326"><ele>513.0</ele><time>2026-05-02T13:19:12.752Z</time></trkpt><trkpt lat="44.111014" lon="10.9682659"><ele>513.0</ele><time>2026-05-02T13:19:13.753Z</time></trkpt><trkpt lat="44.1110981" lon="10.9682725"><ele>513.0</ele><time>2026-05-02T13:19:14.753Z</time></trkpt><trkpt lat="44.111186" lon="10.9682369"><ele>513.0</ele><time>2026-05-02T13:19:15.752Z</time></trkpt><trkpt lat="44.1112764" lon="10.9681308"><ele>513.0</ele><time>2026-05-02T13:19:16.755Z</time></trkpt><trkpt lat="44.1113772" lon="10.9679628"><ele>513.0</ele><time>2026-05-02T13:19:17.749Z</time></trkpt><trkpt lat="44.1114992" lon="10.967703"><ele>513.0</ele><time>2026-05-02T13:19:18.751Z</time></trkpt><trkpt lat="44.1115921" lon="10.9675428"><ele>513.0</ele><time>2026-05-02T13:19:19.756Z</time></trkpt><trkpt lat="44.1116929" lon="10.9673892"><ele>516.0</ele><time>2026-05-02T13:19:20.759Z</time></trkpt><trkpt lat="44.111798" lon="10.9672613"><ele>519.0</ele><time>2026-05-02T13:19:21.76Z</time></trkpt><trkpt lat="44.1118704" lon="10.9671856"><ele>522.0</ele><time>2026-05-02T13:19:22.752Z</time></trkpt><trkpt lat="44.1119572" lon="10.9671212"><ele>525.0</ele><time>2026-05-02T13:19:23.754Z</time></trkpt><trkpt lat="44.1120998" lon="10.9671008"><ele>525.0</ele><time>2026-05-02T13:19:24.754Z</time></trkpt><trkpt lat="44.1122194" lon="10.9671525"><ele>525.0</ele><time>2026-05-02T13:19:25.753Z</time></trkpt><trkpt lat="44.1123308" lon="10.9671557"><ele>525.0</ele><time>2026-05-02T13:19:26.75Z</time></trkpt><trkpt lat="44.1124885" lon="10.9671114"><ele>525.0</ele><time>2026-05-02T13:19:27.75Z</time></trkpt><trkpt lat="44.1126497" lon="10.967048"><ele>523.5</ele><time>2026-05-02T13:19:28.748Z</time></trkpt><trkpt lat="44.1127908" lon="10.966997"><ele>522.0</ele><time>2026-05-02T13:19:29.753Z</time></trkpt><trkpt lat="44.1129322" lon="10.9670013"><ele>520.5</ele><time>2026-05-02T13:19:30.754Z</time></trkpt><trkpt lat="44.1130734" lon="10.9669876"><ele>519.0</ele><time>2026-05-02T13:19:31.752Z</time></trkpt><trkpt lat="44.1132094" lon="10.9669952"><ele>518.75</ele><time>2026-05-02T13:19:32.751Z</time></trkpt><trkpt lat="44.1133286" lon="10.9669826"><ele>518.5</ele><time>2026-05-02T13:19:33.751Z</time></trkpt><trkpt lat="44.1134475" lon="10.9669596"><ele>518.25</ele><time>2026-05-02T13:19:34.749Z</time></trkpt><trkpt lat="44.1135496" lon="10.9669038"><ele>518.0</ele><time>2026-05-02T13:19:35.753Z</time></trkpt><trkpt lat="44.1136465" lon="10.9668119"><ele>525.0</ele><time>2026-05-02T13:19:36.755Z</time></trkpt><trkpt lat="44.113732" lon="10.9666239"><ele>532.0</ele><time>2026-05-02T13:19:37.751Z</time></trkpt><trkpt lat="44.1138247" lon="10.9665146"><ele>539.0</ele><time>2026-05-02T13:19:38.743Z</time></trkpt><trkpt lat="44.1139181" lon="10.9664164"><ele>546.0</ele><time>2026-05-02T13:19:39.747Z</time></trkpt><trkpt lat="44.114005" lon="10.9663143"><ele>544.2</ele><time>2026-05-02T13:19:40.754Z</time></trkpt><trkpt lat="44.1140764" lon="10.9662442"><ele>542.4000000000001</ele><time>2026-05-02T13:19:41.756Z</time></trkpt><trkpt lat="44.114145" lon="10.9662086"><ele>540.6</ele><time>2026-05-02T13:19:42.758Z</time></trkpt><trkpt lat="44.1142564" lon="10.966303"><ele>538.8000000000001</ele><time>2026-05-02T13:19:44.752Z</time></trkpt><trkpt lat="44.1142836" lon="10.9664112"><ele>537.0</ele><time>2026-05-02T13:19:45.75Z</time></trkpt><trkpt lat="44.1142875" lon="10.9665549"><ele>532.5</ele><time>2026-05-02T13:19:46.75Z</time></trkpt><trkpt lat="44.1142958" lon="10.9667213"><ele>528.0</ele><time>2026-05-02T13:19:47.747Z</time></trkpt><trkpt lat="44.1143126" lon="10.9668988"><ele>523.5</ele><time>2026-05-02T13:19:48.749Z</time></trkpt><trkpt lat="44.114348" lon="10.9670765"><ele>519.0</ele><time>2026-05-02T13:19:49.757Z</time></trkpt><trkpt lat="44.1144125" lon="10.9672638"><ele>519.0</ele><time>2026-05-02T13:19:50.756Z</time></trkpt><trkpt lat="44.1144976" lon="10.9675042"><ele>519.0</ele><time>2026-05-02T13:19:51.752Z</time></trkpt><trkpt lat="44.1145568" lon="10.9677049"><ele>519.0</ele><time>2026-05-02T13:19:52.748Z</time></trkpt><trkpt lat="44.1145842" lon="10.9679112"><ele>510.25</ele><time>2026-05-02T13:19:53.757Z</time></trkpt><trkpt lat="44.1145884" lon="10.9680795"><ele>501.5</ele><time>2026-05-02T13:19:54.752Z</time></trkpt><trkpt lat="44.1146312" lon="10.9682546"><ele>492.75</ele><time>2026-05-02T13:19:55.75Z</time></trkpt><trkpt lat="44.1146605" lon="10.968444"><ele>484.0</ele><time>2026-05-02T13:19:56.755Z</time></trkpt><trkpt lat="44.1147573" lon="10.9686213"><ele>486.0</ele><time>2026-05-02T13:19:57.75Z</time></trkpt><trkpt lat="44.1147893" lon="10.9687674"><ele>488.0</ele><time>2026-05-02T13:19:58.749Z</time></trkpt><trkpt lat="44.114822" lon="10.9689221"><ele>490.0</ele><time>2026-05-02T13:19:59.749Z</time></trkpt><trkpt lat="44.1148396" lon="10.9690413"><ele>492.0</ele><time>2026-05-02T13:20:00.749Z</time></trkpt><trkpt lat="44.1148805" lon="10.9691181"><ele>494.0</ele><time>2026-05-02T13:20:01.761Z</time></trkpt><trkpt lat="44.1149974" lon="10.9691674"><ele>494.0</ele><time>2026-05-02T13:20:03.762Z</time></trkpt><trkpt lat="44.1151234" lon="10.9690811"><ele>494.0</ele><time>2026-05-02T13:20:04.749Z</time></trkpt><trkpt lat="44.1152404" lon="10.969006"><ele>494.0</ele><time>2026-05-02T13:20:05.75Z</time></trkpt><trkpt lat="44.1153823" lon="10.9689218"><ele>494.0</ele><time>2026-05-02T13:20:06.755Z</time></trkpt><trkpt lat="44.1155187" lon="10.9688366"><ele>494.0</ele><time>2026-05-02T13:20:07.757Z</time></trkpt><trkpt lat="44.1156255" lon="10.9687757"><ele>494.0</ele><time>2026-05-02T13:20:08.754Z</time></trkpt><trkpt lat="44.1156809" lon="10.9687255"><ele>494.0</ele><time>2026-05-02T13:20:09.756Z</time></trkpt><trkpt lat="44.1157435" lon="10.9686999"><ele>494.0</ele><time>2026-05-02T13:20:10.767Z</time></trkpt><trkpt lat="44.1158659" lon="10.968744"><ele>494.0</ele><time>2026-05-02T13:20:12.751Z</time></trkpt><trkpt lat="44.1159252" lon="10.9688133"><ele>489.75</ele><time>2026-05-02T13:20:13.762Z</time></trkpt><trkpt lat="44.1159523" lon="10.9690412"><ele>485.5</ele><time>2026-05-02T13:20:14.747Z</time></trkpt><trkpt lat="44.1160071" lon="10.969157"><ele>481.25</ele><time>2026-05-02T13:20:15.743Z</time></trkpt><trkpt lat="44.1161078" lon="10.9692452"><ele>477.0</ele><time>2026-05-02T13:20:16.746Z</time></trkpt><trkpt lat="44.1162063" lon="10.969313"><ele>477.0</ele><time>2026-05-02T13:20:17.757Z</time></trkpt><trkpt lat="44.1163617" lon="10.9694104"><ele>477.0</ele><time>2026-05-02T13:20:18.747Z</time></trkpt><trkpt lat="44.1164965" lon="10.9695321"><ele>477.0</ele><time>2026-05-02T13:20:19.747Z</time></trkpt><trkpt lat="44.1166287" lon="10.9696735"><ele>479.66666666666663</ele><time>2026-05-02T13:20:20.748Z</time></trkpt><trkpt lat="44.1167524" lon="10.9698208"><ele>482.3333333333333</ele><time>2026-05-02T13:20:21.75Z</time></trkpt><trkpt lat="44.1168485" lon="10.9699649"><ele>485.0</ele><time>2026-05-02T13:20:22.741Z</time></trkpt><trkpt lat="44.1169377" lon="10.9701266"><ele>485.0</ele><time>2026-05-02T13:20:23.754Z</time></trkpt><trkpt lat="44.1170155" lon="10.9702952"><ele>485.0</ele><time>2026-05-02T13:20:24.757Z</time></trkpt><trkpt lat="44.1170438" lon="10.9705392"><ele>485.0</ele><time>2026-05-02T13:20:25.752Z</time></trkpt><trkpt lat="44.1170984" lon="10.970755"><ele>481.66666666666663</ele><time>2026-05-02T13:20:26.75Z</time></trkpt><trkpt lat="44.1171298" lon="10.9709788"><ele>478.33333333333337</ele><time>2026-05-02T13:20:27.761Z</time></trkpt><trkpt lat="44.1171478" lon="10.9712148"><ele>475.0</ele><time>2026-05-02T13:20:28.752Z</time></trkpt><trkpt lat="44.1171571" lon="10.9714284"><ele>475.0</ele><time>2026-05-02T13:20:29.756Z</time></trkpt><trkpt lat="44.1171734" lon="10.9716303"><ele>475.0</ele><time>2026-05-02T13:20:30.75Z</time></trkpt><trkpt lat="44.1172014" lon="10.9718185"><ele>475.0</ele><time>2026-05-02T13:20:31.75Z</time></trkpt><trkpt lat="44.1172461" lon="10.9719935"><ele>475.0</ele><time>2026-05-02T13:20:32.753Z</time></trkpt><trkpt lat="44.1173309" lon="10.9721455"><ele>471.0</ele><time>2026-05-02T13:20:33.764Z</time></trkpt><trkpt lat="44.1174444" lon="10.972283"><ele>467.0</ele><time>2026-05-02T13:20:34.752Z</time></trkpt><trkpt lat="44.1175534" lon="10.9724287"><ele>463.0</ele><time>2026-05-02T13:20:35.754Z</time></trkpt><trkpt lat="44.1176642" lon="10.9725819"><ele>463.0</ele><time>2026-05-02T13:20:36.75Z</time></trkpt><trkpt lat="44.1177915" lon="10.9727354"><ele>463.0</ele><time>2026-05-02T13:20:37.756Z</time></trkpt><trkpt lat="44.1179389" lon="10.9728833"><ele>463.0</ele><time>2026-05-02T13:20:38.761Z</time></trkpt><trkpt lat="44.1181206" lon="10.9729845"><ele>471.0</ele><time>2026-05-02T13:20:39.75Z</time></trkpt><trkpt lat="44.118331" lon="10.9729802"><ele>479.0</ele><time>2026-05-02T13:20:40.753Z</time></trkpt><trkpt lat="44.1184888" lon="10.9730285"><ele>487.0</ele><time>2026-05-02T13:20:41.751Z</time></trkpt><trkpt lat="44.1185929" lon="10.9730831"><ele>487.0</ele><time>2026-05-02T13:20:42.75Z</time></trkpt><trkpt lat="44.1186872" lon="10.9731994"><ele>487.0</ele><time>2026-05-02T13:20:43.748Z</time></trkpt><trkpt lat="44.1187793" lon="10.9733081"><ele>487.0</ele><time>2026-05-02T13:20:44.753Z</time></trkpt><trkpt lat="44.1188431" lon="10.9734606"><ele>487.0</ele><time>2026-05-02T13:20:45.745Z</time></trkpt><trkpt lat="44.1188438" lon="10.9737159"><ele>483.0</ele><time>2026-05-02T13:20:46.755Z</time></trkpt><trkpt lat="44.1188795" lon="10.973926"><ele>479.0</ele><time>2026-05-02T13:20:47.749Z</time></trkpt><trkpt lat="44.1189093" lon="10.9741218"><ele>475.0</ele><time>2026-05-02T13:20:48.757Z</time></trkpt><trkpt lat="44.1189759" lon="10.9742369"><ele>471.0</ele><time>2026-05-02T13:20:49.755Z</time></trkpt><trkpt lat="44.1190522" lon="10.9743457"><ele>471.0</ele><time>2026-05-02T13:20:50.752Z</time></trkpt><trkpt lat="44.1191472" lon="10.9744375"><ele>471.0</ele><time>2026-05-02T13:20:51.752Z</time></trkpt><trkpt lat="44.1192558" lon="10.9745436"><ele>471.0</ele><time>2026-05-02T13:20:52.75Z</time></trkpt><trkpt lat="44.1194681" lon="10.9745475"><ele>471.0</ele><time>2026-05-02T13:20:53.749Z</time></trkpt><trkpt lat="44.1196435" lon="10.9746072"><ele>471.0</ele><time>2026-05-02T13:20:54.747Z</time></trkpt><trkpt lat="44.1197912" lon="10.9746881"><ele>471.0</ele><time>2026-05-02T13:20:55.749Z</time></trkpt><trkpt lat="44.1199272" lon="10.974764"><ele>474.5</ele><time>2026-05-02T13:20:56.758Z</time></trkpt><trkpt lat="44.1200776" lon="10.9748175"><ele>478.0</ele><time>2026-05-02T13:20:57.751Z</time></trkpt><trkpt lat="44.1202167" lon="10.9748469"><ele>481.5</ele><time>2026-05-02T13:20:58.753Z</time></trkpt><trkpt lat="44.1203516" lon="10.9748866"><ele>485.0</ele><time>2026-05-02T13:20:59.764Z</time></trkpt><trkpt lat="44.1204356" lon="10.9748859"><ele>477.5</ele><time>2026-05-02T13:21:00.747Z</time></trkpt><trkpt lat="44.1204483" lon="10.9751015"><ele>470.0</ele><time>2026-05-02T13:21:01.753Z</time></trkpt><trkpt lat="44.1205421" lon="10.9752101"><ele>462.5</ele><time>2026-05-02T13:21:02.755Z</time></trkpt><trkpt lat="44.1206311" lon="10.9753057"><ele>455.0</ele><time>2026-05-02T13:21:03.754Z</time></trkpt><trkpt lat="44.1207094" lon="10.9753772"><ele>452.2</ele><time>2026-05-02T13:21:04.758Z</time></trkpt><trkpt lat="44.1207542" lon="10.9754641"><ele>449.4</ele><time>2026-05-02T13:21:05.756Z</time></trkpt><trkpt lat="44.1207934" lon="10.9755456"><ele>446.6</ele><time>2026-05-02T13:21:06.755Z</time></trkpt><trkpt lat="44.1207771" lon="10.9756936"><ele>443.8</ele><time>2026-05-02T13:21:07.756Z</time></trkpt><trkpt lat="44.1207393" lon="10.9758687"><ele>441.0</ele><time>2026-05-02T13:21:08.749Z</time></trkpt><trkpt lat="44.1206992" lon="10.9760655"><ele>441.0</ele><time>2026-05-02T13:21:09.746Z</time></trkpt><trkpt lat="44.1206874" lon="10.9762414"><ele>441.0</ele><time>2026-05-02T13:21:10.751Z</time></trkpt><trkpt lat="44.1206899" lon="10.9764093"><ele>441.0</ele><time>2026-05-02T13:21:11.745Z</time></trkpt><trkpt lat="44.1207343" lon="10.9765849"><ele>441.0</ele><time>2026-05-02T13:21:12.752Z</time></trkpt><trkpt lat="44.1207893" lon="10.9767885"><ele>448.33333333333337</ele><time>2026-05-02T13:21:13.757Z</time></trkpt><trkpt lat="44.1208508" lon="10.9770029"><ele>455.6666666666667</ele><time>2026-05-02T13:21:14.749Z</time></trkpt><trkpt lat="44.1209193" lon="10.977194"><ele>463.0</ele><time>2026-05-02T13:21:15.748Z</time></trkpt><trkpt lat="44.1209754" lon="10.9773894"><ele>457.0</ele><time>2026-05-02T13:21:16.765Z</time></trkpt><trkpt lat="44.1210356" lon="10.9775632"><ele>451.0</ele><time>2026-05-02T13:21:17.75Z</time></trkpt><trkpt lat="44.1211004" lon="10.9777296"><ele>445.0</ele><time>2026-05-02T13:21:18.75Z</time></trkpt><trkpt lat="44.12126" lon="10.9777189"><ele>439.0</ele><time>2026-05-02T13:21:19.749Z</time></trkpt><trkpt lat="44.1213552" lon="10.9777794"><ele>439.0</ele><time>2026-05-02T13:21:20.758Z</time></trkpt><trkpt lat="44.1214468" lon="10.9777374"><ele>439.0</ele><time>2026-05-02T13:21:21.751Z</time></trkpt><trkpt lat="44.1215418" lon="10.9776855"><ele>439.0</ele><time>2026-05-02T13:21:22.752Z</time></trkpt><trkpt lat="44.1216203" lon="10.9776409"><ele>439.0</ele><time>2026-05-02T13:21:23.753Z</time></trkpt><trkpt lat="44.1216935" lon="10.9774192"><ele>451.33333333333337</ele><time>2026-05-02T13:21:24.749Z</time></trkpt><trkpt lat="44.1218009" lon="10.9772527"><ele>463.66666666666663</ele><time>2026-05-02T13:21:25.764Z</time></trkpt><trkpt lat="44.1219206" lon="10.9771157"><ele>476.0</ele><time>2026-05-02T13:21:26.751Z</time></trkpt><trkpt lat="44.1220416" lon="10.9769985"><ele>476.0</ele><time>2026-05-02T13:21:27.754Z</time></trkpt><trkpt lat="44.1221735" lon="10.9768863"><ele>476.0</ele><time>2026-05-02T13:21:28.75Z</time></trkpt><trkpt lat="44.1222909" lon="10.9767847"><ele>476.0</ele><time>2026-05-02T13:21:29.753Z</time></trkpt><trkpt lat="44.1224171" lon="10.9767468"><ele>476.0</ele><time>2026-05-02T13:21:30.757Z</time></trkpt><trkpt lat="44.1225598" lon="10.9767413"><ele>464.3333333333333</ele><time>2026-05-02T13:21:31.748Z</time></trkpt><trkpt lat="44.1227155" lon="10.9767176"><ele>452.66666666666663</ele><time>2026-05-02T13:21:32.748Z</time></trkpt><trkpt lat="44.1228628" lon="10.9766927"><ele>441.0</ele><time>2026-05-02T13:21:33.753Z</time></trkpt><trkpt lat="44.123015" lon="10.9767456"><ele>441.0</ele><time>2026-05-02T13:21:34.763Z</time></trkpt><trkpt lat="44.1231703" lon="10.9768039"><ele>441.0</ele><time>2026-05-02T13:21:35.749Z</time></trkpt><trkpt lat="44.123314" lon="10.9768946"><ele>441.0</ele><time>2026-05-02T13:21:36.75Z</time></trkpt><trkpt lat="44.1234558" lon="10.9769894"><ele>441.8</ele><time>2026-05-02T13:21:37.749Z</time></trkpt><trkpt lat="44.12357" lon="10.9770814"><ele>442.6</ele><time>2026-05-02T13:21:38.749Z</time></trkpt><trkpt lat="44.1236765" lon="10.9771569"><ele>443.4</ele><time>2026-05-02T13:21:39.758Z</time></trkpt><trkpt lat="44.1237666" lon="10.9772267"><ele>444.2</ele><time>2026-05-02T13:21:40.751Z</time></trkpt><trkpt lat="44.1238482" lon="10.9772715"><ele>445.0</ele><time>2026-05-02T13:21:41.749Z</time></trkpt><trkpt lat="44.1239309" lon="10.9773065"><ele>445.00000000000006</ele><time>2026-05-02T13:21:42.749Z</time></trkpt><trkpt lat="44.1240032" lon="10.9772998"><ele>445.0</ele><time>2026-05-02T13:21:43.755Z</time></trkpt><trkpt lat="44.1240818" lon="10.9772086"><ele>445.0</ele><time>2026-05-02T13:21:44.751Z</time></trkpt><trkpt lat="44.1241693" lon="10.9771905"><ele>445.0</ele><time>2026-05-02T13:21:45.743Z</time></trkpt><trkpt lat="44.1242459" lon="10.9772176"><ele>445.00000000000006</ele><time>2026-05-02T13:21:46.746Z</time></trkpt><trkpt lat="44.1242898" lon="10.977297"><ele>445.0</ele><time>2026-05-02T13:21:47.746Z</time></trkpt><trkpt lat="44.1243524" lon="10.9773894"><ele>441.0</ele><time>2026-05-02T13:21:49.742Z</time></trkpt><trkpt lat="44.1243747" lon="10.977484"><ele>437.0</ele><time>2026-05-02T13:21:50.751Z</time></trkpt><trkpt lat="44.1243345" lon="10.9776675"><ele>433.0</ele><time>2026-05-02T13:21:51.754Z</time></trkpt><trkpt lat="44.1241449" lon="10.9778694"><ele>429.0</ele><time>2026-05-02T13:21:52.749Z</time></trkpt><trkpt lat="44.1240383" lon="10.9779894"><ele>429.0</ele><time>2026-05-02T13:21:53.751Z</time></trkpt><trkpt lat="44.123989" lon="10.97812"><ele>429.0</ele><time>2026-05-02T13:21:54.747Z</time></trkpt><trkpt lat="44.1239512" lon="10.9782775"><ele>429.0</ele><time>2026-05-02T13:21:55.755Z</time></trkpt><trkpt lat="44.1239411" lon="10.978453"><ele>429.0</ele><time>2026-05-02T13:21:56.75Z</time></trkpt><trkpt lat="44.1239615" lon="10.9786544"><ele>428.33333333333337</ele><time>2026-05-02T13:21:57.752Z</time></trkpt><trkpt lat="44.1239746" lon="10.9788786"><ele>427.6666666666667</ele><time>2026-05-02T13:21:58.75Z</time></trkpt><trkpt lat="44.1239754" lon="10.9791"><ele>427.0</ele><time>2026-05-02T13:21:59.759Z</time></trkpt><trkpt lat="44.1239792" lon="10.9793198"><ele>426.6666666666667</ele><time>2026-05-02T13:22:00.752Z</time></trkpt><trkpt lat="44.1239803" lon="10.9795386"><ele>426.33333333333337</ele><time>2026-05-02T13:22:01.749Z</time></trkpt><trkpt lat="44.1239514" lon="10.9797628"><ele>426.0</ele><time>2026-05-02T13:22:02.756Z</time></trkpt><trkpt lat="44.1239319" lon="10.9799841"><ele>426.33333333333337</ele><time>2026-05-02T13:22:03.752Z</time></trkpt><trkpt lat="44.12391" lon="10.9802082"><ele>426.6666666666667</ele><time>2026-05-02T13:22:04.75Z</time></trkpt><trkpt lat="44.1238735" lon="10.9804154"><ele>427.0</ele><time>2026-05-02T13:22:05.752Z</time></trkpt><trkpt lat="44.1238313" lon="10.9806127"><ele>427.0</ele><time>2026-05-02T13:22:06.748Z</time></trkpt><trkpt lat="44.1237888" lon="10.9808051"><ele>427.0</ele><time>2026-05-02T13:22:07.749Z</time></trkpt><trkpt lat="44.1237716" lon="10.9809653"><ele>427.0</ele><time>2026-05-02T13:22:08.75Z</time></trkpt><trkpt lat="44.1237832" lon="10.9811076"><ele>427.0</ele><time>2026-05-02T13:22:09.755Z</time></trkpt><trkpt lat="44.1238294" lon="10.9812351"><ele>426.5</ele><time>2026-05-02T13:22:10.753Z</time></trkpt><trkpt lat="44.1238909" lon="10.981361"><ele>426.0</ele><time>2026-05-02T13:22:11.756Z</time></trkpt><trkpt lat="44.123968" lon="10.9814936"><ele>425.5</ele><time>2026-05-02T13:22:12.749Z</time></trkpt><trkpt lat="44.1241091" lon="10.9815943"><ele>425.0</ele><time>2026-05-02T13:22:13.753Z</time></trkpt><trkpt lat="44.1242399" lon="10.9817127"><ele>423.0</ele><time>2026-05-02T13:22:14.748Z</time></trkpt><trkpt lat="44.1243883" lon="10.9818119"><ele>421.0</ele><time>2026-05-02T13:22:15.751Z</time></trkpt><trkpt lat="44.1245379" lon="10.9818935"><ele>419.0</ele><time>2026-05-02T13:22:16.751Z</time></trkpt><trkpt lat="44.1246762" lon="10.9819881"><ele>419.0</ele><time>2026-05-02T13:22:17.757Z</time></trkpt><trkpt lat="44.124807" lon="10.9820886"><ele>419.0</ele><time>2026-05-02T13:22:18.751Z</time></trkpt><trkpt lat="44.1249166" lon="10.9821645"><ele>419.0</ele><time>2026-05-02T13:22:19.746Z</time></trkpt><trkpt lat="44.1250252" lon="10.982248"><ele>419.0</ele><time>2026-05-02T13:22:20.751Z</time></trkpt><trkpt lat="44.1250852" lon="10.9823563"><ele>418.75</ele><time>2026-05-02T13:22:21.758Z</time></trkpt><trkpt lat="44.1251333" lon="10.9824939"><ele>418.5</ele><time>2026-05-02T13:22:22.752Z</time></trkpt><trkpt lat="44.1251938" lon="10.9826518"><ele>418.25</ele><time>2026-05-02T13:22:23.755Z</time></trkpt><trkpt lat="44.1252466" lon="10.9828159"><ele>418.0</ele><time>2026-05-02T13:22:24.756Z</time></trkpt><trkpt lat="44.1252905" lon="10.9829926"><ele>418.0</ele><time>2026-05-02T13:22:25.748Z</time></trkpt><trkpt lat="44.1253347" lon="10.9831287"><ele>418.0</ele><time>2026-05-02T13:22:26.75Z</time></trkpt><trkpt lat="44.1253802" lon="10.9832432"><ele>418.0</ele><time>2026-05-02T13:22:27.751Z</time></trkpt><trkpt lat="44.1254232" lon="10.9833592"><ele>418.0</ele><time>2026-05-02T13:22:28.75Z</time></trkpt><trkpt lat="44.1254815" lon="10.9834583"><ele>418.0</ele><time>2026-05-02T13:22:29.75Z</time></trkpt><trkpt lat="44.1255566" lon="10.9835375"><ele>420.1666666666667</ele><time>2026-05-02T13:22:30.752Z</time></trkpt><trkpt lat="44.1256248" lon="10.9836117"><ele>422.33333333333337</ele><time>2026-05-02T13:22:31.748Z</time></trkpt><trkpt lat="44.1256649" lon="10.9837053"><ele>424.5</ele><time>2026-05-02T13:22:32.755Z</time></trkpt><trkpt lat="44.1256859" lon="10.9838115"><ele>426.66666666666663</ele><time>2026-05-02T13:22:33.748Z</time></trkpt><trkpt lat="44.1256841" lon="10.9839351"><ele>428.8333333333333</ele><time>2026-05-02T13:22:34.749Z</time></trkpt><trkpt lat="44.1256852" lon="10.9840535"><ele>431.0</ele><time>2026-05-02T13:22:35.749Z</time></trkpt><trkpt lat="44.1256729" lon="10.9842142"><ele>430.4</ele><time>2026-05-02T13:22:36.752Z</time></trkpt><trkpt lat="44.1256779" lon="10.9843447"><ele>429.8</ele><time>2026-05-02T13:22:37.746Z</time></trkpt><trkpt lat="44.1257113" lon="10.9844779"><ele>429.19999999999993</ele><time>2026-05-02T13:22:38.745Z</time></trkpt><trkpt lat="44.1257012" lon="10.9846208"><ele>428.59999999999997</ele><time>2026-05-02T13:22:39.753Z</time></trkpt><trkpt lat="44.1257237" lon="10.9847591"><ele>428.0</ele><time>2026-05-02T13:22:40.76Z</time></trkpt><trkpt lat="44.1257425" lon="10.9848974"><ele>426.0</ele><time>2026-05-02T13:22:41.749Z</time></trkpt><trkpt lat="44.1257747" lon="10.985037"><ele>423.99999999999994</ele><time>2026-05-02T13:22:42.751Z</time></trkpt><trkpt lat="44.1258076" lon="10.9851848"><ele>422.0</ele><time>2026-05-02T13:22:43.75Z</time></trkpt><trkpt lat="44.1258262" lon="10.9853466"><ele>420.0</ele><time>2026-05-02T13:22:44.749Z</time></trkpt><trkpt lat="44.1258535" lon="10.9855004"><ele>418.0</ele><time>2026-05-02T13:22:45.746Z</time></trkpt><trkpt lat="44.1258907" lon="10.9856463"><ele>418.0</ele><time>2026-05-02T13:22:46.752Z</time></trkpt><trkpt lat="44.1259438" lon="10.9857903"><ele>418.0</ele><time>2026-05-02T13:22:47.752Z</time></trkpt><trkpt lat="44.1260037" lon="10.9859195"><ele>418.0</ele><time>2026-05-02T13:22:48.748Z</time></trkpt><trkpt lat="44.1260863" lon="10.9860354"><ele>418.0</ele><time>2026-05-02T13:22:49.748Z</time></trkpt><trkpt lat="44.1261743" lon="10.986167"><ele>416.6666666666667</ele><time>2026-05-02T13:22:50.752Z</time></trkpt><trkpt lat="44.1262526" lon="10.9863114"><ele>415.33333333333337</ele><time>2026-05-02T13:22:51.747Z</time></trkpt><trkpt lat="44.1264276" lon="10.9864648"><ele>414.0</ele><time>2026-05-02T13:22:52.75Z</time></trkpt><trkpt lat="44.1265756" lon="10.9866078"><ele>410.66666666666663</ele><time>2026-05-02T13:22:53.747Z</time></trkpt><trkpt lat="44.1267213" lon="10.9867229"><ele>407.3333333333333</ele><time>2026-05-02T13:22:54.751Z</time></trkpt><trkpt lat="44.1268571" lon="10.9868598"><ele>404.0</ele><time>2026-05-02T13:22:55.746Z</time></trkpt><trkpt lat="44.1269762" lon="10.986997"><ele>404.0</ele><time>2026-05-02T13:22:56.752Z</time></trkpt><trkpt lat="44.1270853" lon="10.9871347"><ele>404.0</ele><time>2026-05-02T13:22:57.747Z</time></trkpt><trkpt lat="44.1271563" lon="10.9872969"><ele>404.0</ele><time>2026-05-02T13:22:58.749Z</time></trkpt><trkpt lat="44.1272536" lon="10.9874312"><ele>404.0</ele><time>2026-05-02T13:22:59.751Z</time></trkpt><trkpt lat="44.1273543" lon="10.9875569"><ele>403.0</ele><time>2026-05-02T13:23:00.751Z</time></trkpt><trkpt lat="44.1274444" lon="10.9876782"><ele>402.0</ele><time>2026-05-02T13:23:01.75Z</time></trkpt><trkpt lat="44.1275502" lon="10.9877829"><ele>401.0</ele><time>2026-05-02T13:23:02.747Z</time></trkpt><trkpt lat="44.127654" lon="10.9878771"><ele>400.0</ele><time>2026-05-02T13:23:03.755Z</time></trkpt><trkpt lat="44.1277681" lon="10.9879612"><ele>400.0</ele><time>2026-05-02T13:23:04.76Z</time></trkpt><trkpt lat="44.1278538" lon="10.9880635"><ele>400.0</ele><time>2026-05-02T13:23:05.749Z</time></trkpt><trkpt lat="44.1279428" lon="10.988165"><ele>400.0</ele><time>2026-05-02T13:23:06.748Z</time></trkpt><trkpt lat="44.1280067" lon="10.9882741"><ele>400.0</ele><time>2026-05-02T13:23:07.752Z</time></trkpt><trkpt lat="44.1280767" lon="10.9883939"><ele>400.0</ele><time>2026-05-02T13:23:08.751Z</time></trkpt><trkpt lat="44.1281381" lon="10.9885233"><ele>399.8</ele><time>2026-05-02T13:23:09.75Z</time></trkpt><trkpt lat="44.1281991" lon="10.9886635"><ele>399.6</ele><time>2026-05-02T13:23:10.749Z</time></trkpt><trkpt lat="44.1282528" lon="10.9887855"><ele>399.4</ele><time>2026-05-02T13:23:11.75Z</time></trkpt><trkpt lat="44.1282889" lon="10.9889316"><ele>399.2</ele><time>2026-05-02T13:23:12.75Z</time></trkpt><trkpt lat="44.1283506" lon="10.9890513"><ele>399.0</ele><time>2026-05-02T13:23:13.748Z</time></trkpt><trkpt lat="44.1284067" lon="10.9891987"><ele>398.0</ele><time>2026-05-02T13:23:14.755Z</time></trkpt><trkpt lat="44.128465" lon="10.9893324"><ele>397.0</ele><time>2026-05-02T13:23:15.746Z</time></trkpt><trkpt lat="44.1285261" lon="10.9894739"><ele>396.0</ele><time>2026-05-02T13:23:16.744Z</time></trkpt><trkpt lat="44.1286083" lon="10.9896474"><ele>395.0</ele><time>2026-05-02T13:23:17.75Z</time></trkpt><trkpt lat="44.1286666" lon="10.989813"><ele>395.0</ele><time>2026-05-02T13:23:18.748Z</time></trkpt><trkpt lat="44.1287295" lon="10.9899779"><ele>395.0</ele><time>2026-05-02T13:23:19.747Z</time></trkpt><trkpt lat="44.1287929" lon="10.9901569"><ele>395.0</ele><time>2026-05-02T13:23:20.753Z</time></trkpt><trkpt lat="44.1288606" lon="10.9903141"><ele>395.0</ele><time>2026-05-02T13:23:21.747Z</time></trkpt><trkpt lat="44.1289135" lon="10.9904816"><ele>395.25</ele><time>2026-05-02T13:23:22.747Z</time></trkpt><trkpt lat="44.1289717" lon="10.9906464"><ele>395.5</ele><time>2026-05-02T13:23:23.752Z</time></trkpt><trkpt lat="44.1290206" lon="10.9908123"><ele>395.75</ele><time>2026-05-02T13:23:24.752Z</time></trkpt><trkpt lat="44.1290787" lon="10.9909686"><ele>396.0</ele><time>2026-05-02T13:23:25.747Z</time></trkpt><trkpt lat="44.129125" lon="10.9911205"><ele>396.5</ele><time>2026-05-02T13:23:26.749Z</time></trkpt><trkpt lat="44.1291655" lon="10.9912508"><ele>397.0</ele><time>2026-05-02T13:23:27.748Z</time></trkpt><trkpt lat="44.1291923" lon="10.9913506"><ele>397.5</ele><time>2026-05-02T13:23:28.746Z</time></trkpt><trkpt lat="44.1292009" lon="10.9914401"><ele>398.0</ele><time>2026-05-02T13:23:29.748Z</time></trkpt><trkpt lat="44.1291782" lon="10.9915263"><ele>398.5</ele><time>2026-05-02T13:23:31.745Z</time></trkpt><trkpt lat="44.1291212" lon="10.9916319"><ele>399.0</ele><time>2026-05-02T13:23:39.748Z</time></trkpt><trkpt lat="44.1290668" lon="10.9916847"><ele>399.6</ele><time>2026-05-02T13:23:40.744Z</time></trkpt><trkpt lat="44.128997" lon="10.9917265"><ele>400.2</ele><time>2026-05-02T13:23:41.747Z</time></trkpt><trkpt lat="44.1289158" lon="10.9917567"><ele>400.8</ele><time>2026-05-02T13:23:42.744Z</time></trkpt><trkpt lat="44.1288147" lon="10.9917948"><ele>401.40000000000003</ele><time>2026-05-02T13:23:43.747Z</time></trkpt><trkpt lat="44.128712" lon="10.9918208"><ele>402.0</ele><time>2026-05-02T13:23:44.746Z</time></trkpt><trkpt lat="44.1286077" lon="10.9918254"><ele>402.0</ele><time>2026-05-02T13:23:45.757Z</time></trkpt><trkpt lat="44.1284999" lon="10.9918592"><ele>402.0</ele><time>2026-05-02T13:23:46.747Z</time></trkpt><trkpt lat="44.1283846" lon="10.9918852"><ele>402.0</ele><time>2026-05-02T13:23:47.745Z</time></trkpt><trkpt lat="44.1282798" lon="10.9919368"><ele>402.0</ele><time>2026-05-02T13:23:48.744Z</time></trkpt><trkpt lat="44.1281863" lon="10.9919953"><ele>402.0</ele><time>2026-05-02T13:23:49.739Z</time></trkpt><trkpt lat="44.1281471" lon="10.9921262"><ele>406.75</ele><time>2026-05-02T13:23:50.753Z</time></trkpt><trkpt lat="44.1281231" lon="10.9922488"><ele>411.5</ele><time>2026-05-02T13:23:51.758Z</time></trkpt><trkpt lat="44.1281266" lon="10.9924337"><ele>416.25</ele><time>2026-05-02T13:23:52.752Z</time></trkpt><trkpt lat="44.1281465" lon="10.9926069"><ele>421.0</ele><time>2026-05-02T13:23:53.754Z</time></trkpt><trkpt lat="44.1281614" lon="10.9927822"><ele>421.0</ele><time>2026-05-02T13:23:54.753Z</time></trkpt><trkpt lat="44.128159" lon="10.9929514"><ele>421.0</ele><time>2026-05-02T13:23:55.744Z</time></trkpt><trkpt lat="44.1281373" lon="10.9931279"><ele>421.0</ele><time>2026-05-02T13:23:56.75Z</time></trkpt><trkpt lat="44.1280616" lon="10.9933144"><ele>421.0</ele><time>2026-05-02T13:23:57.749Z</time></trkpt><trkpt lat="44.1279974" lon="10.9934764"><ele>422.75</ele><time>2026-05-02T13:23:58.748Z</time></trkpt><trkpt lat="44.1279384" lon="10.9936489"><ele>424.5</ele><time>2026-05-02T13:23:59.745Z</time></trkpt><trkpt lat="44.127891" lon="10.9938082"><ele>426.25</ele><time>2026-05-02T13:24:00.748Z</time></trkpt><trkpt lat="44.1278641" lon="10.9939786"><ele>428.0</ele><time>2026-05-02T13:24:01.747Z</time></trkpt><trkpt lat="44.1278165" lon="10.9941605"><ele>430.0</ele><time>2026-05-02T13:24:02.751Z</time></trkpt><trkpt lat="44.1278382" lon="10.9943548"><ele>432.0</ele><time>2026-05-02T13:24:03.746Z</time></trkpt><trkpt lat="44.1278454" lon="10.9945526"><ele>434.0</ele><time>2026-05-02T13:24:04.735Z</time></trkpt><trkpt lat="44.127857" lon="10.9947477"><ele>436.0</ele><time>2026-05-02T13:24:05.756Z</time></trkpt><trkpt lat="44.1279058" lon="10.9949824"><ele>436.6666666666667</ele><time>2026-05-02T13:24:06.756Z</time></trkpt><trkpt lat="44.1279377" lon="10.9952033"><ele>437.33333333333337</ele><time>2026-05-02T13:24:07.75Z</time></trkpt><trkpt lat="44.1279832" lon="10.9954035"><ele>438.0</ele><time>2026-05-02T13:24:08.75Z</time></trkpt><trkpt lat="44.1280161" lon="10.9956003"><ele>438.0</ele><time>2026-05-02T13:24:09.761Z</time></trkpt><trkpt lat="44.1280277" lon="10.9957855"><ele>438.0</ele><time>2026-05-02T13:24:10.761Z</time></trkpt><trkpt lat="44.1280106" lon="10.9959617"><ele>438.0</ele><time>2026-05-02T13:24:11.751Z</time></trkpt><trkpt lat="44.1279651" lon="10.9961504"><ele>438.0</ele><time>2026-05-02T13:24:12.747Z</time></trkpt><trkpt lat="44.1279183" lon="10.9963427"><ele>435.0</ele><time>2026-05-02T13:24:13.757Z</time></trkpt><trkpt lat="44.1278464" lon="10.9965446"><ele>432.0</ele><time>2026-05-02T13:24:14.746Z</time></trkpt><trkpt lat="44.1277271" lon="10.9967125"><ele>429.0</ele><time>2026-05-02T13:24:15.759Z</time></trkpt><trkpt lat="44.1276119" lon="10.9968594"><ele>431.33333333333337</ele><time>2026-05-02T13:24:16.745Z</time></trkpt><trkpt lat="44.1274963" lon="10.9969937"><ele>433.6666666666667</ele><time>2026-05-02T13:24:17.774Z</time></trkpt><trkpt lat="44.1273637" lon="10.9970981"><ele>436.0</ele><time>2026-05-02T13:24:18.756Z</time></trkpt><trkpt lat="44.1272374" lon="10.997204"><ele>436.0</ele><time>2026-05-02T13:24:19.755Z</time></trkpt><trkpt lat="44.1271106" lon="10.9973356"><ele>436.0</ele><time>2026-05-02T13:24:20.746Z</time></trkpt><trkpt lat="44.1269807" lon="10.9974682"><ele>436.0</ele><time>2026-05-02T13:24:21.763Z</time></trkpt><trkpt lat="44.1268336" lon="10.9975636"><ele>432.0</ele><time>2026-05-02T13:24:22.754Z</time></trkpt><trkpt lat="44.1266746" lon="10.9976447"><ele>428.0</ele><time>2026-05-02T13:24:23.755Z</time></trkpt><trkpt lat="44.1265243" lon="10.9977549"><ele>424.0</ele><time>2026-05-02T13:24:24.753Z</time></trkpt><trkpt lat="44.1263791" lon="10.9978792"><ele>427.33333333333337</ele><time>2026-05-02T13:24:25.749Z</time></trkpt><trkpt lat="44.1262371" lon="10.9980423"><ele>430.66666666666663</ele><time>2026-05-02T13:24:26.75Z</time></trkpt><trkpt lat="44.1261002" lon="10.9982332"><ele>434.0</ele><time>2026-05-02T13:24:27.754Z</time></trkpt><trkpt lat="44.1259624" lon="10.9983924"><ele>434.0</ele><time>2026-05-02T13:24:28.758Z</time></trkpt><trkpt lat="44.1258363" lon="10.9985452"><ele>434.0</ele><time>2026-05-02T13:24:29.757Z</time></trkpt><trkpt lat="44.1257402" lon="10.9986715"><ele>434.0</ele><time>2026-05-02T13:24:30.754Z</time></trkpt><trkpt lat="44.1256703" lon="10.9988159"><ele>434.0</ele><time>2026-05-02T13:24:31.753Z</time></trkpt><trkpt lat="44.1256202" lon="10.9989913"><ele>441.66666666666663</ele><time>2026-05-02T13:24:32.753Z</time></trkpt><trkpt lat="44.1255903" lon="10.9991941"><ele>449.33333333333337</ele><time>2026-05-02T13:24:33.749Z</time></trkpt><trkpt lat="44.1255344" lon="10.9993877"><ele>457.0</ele><time>2026-05-02T13:24:34.754Z</time></trkpt><trkpt lat="44.1254537" lon="10.999574"><ele>457.0</ele><time>2026-05-02T13:24:35.748Z</time></trkpt><trkpt lat="44.1253471" lon="10.9997429"><ele>457.0</ele><time>2026-05-02T13:24:36.747Z</time></trkpt><trkpt lat="44.1252292" lon="10.9999141"><ele>457.0</ele><time>2026-05-02T13:24:37.747Z</time></trkpt><trkpt lat="44.1251025" lon="11.0000873"><ele>457.0</ele><time>2026-05-02T13:24:38.746Z</time></trkpt><trkpt lat="44.1249884" lon="11.0002552"><ele>457.0</ele><time>2026-05-02T13:24:39.748Z</time></trkpt><trkpt lat="44.1249051" lon="11.0004134"><ele>457.0</ele><time>2026-05-02T13:24:40.745Z</time></trkpt><trkpt lat="44.1248265" lon="11.0005823"><ele>460.8</ele><time>2026-05-02T13:24:41.747Z</time></trkpt><trkpt lat="44.1247955" lon="11.0007388"><ele>464.6</ele><time>2026-05-02T13:24:42.748Z</time></trkpt><trkpt lat="44.1247679" lon="11.000896"><ele>468.40000000000003</ele><time>2026-05-02T13:24:43.749Z</time></trkpt><trkpt lat="44.1247318" lon="11.0010372"><ele>472.20000000000005</ele><time>2026-05-02T13:24:44.746Z</time></trkpt><trkpt lat="44.1246482" lon="11.0011222"><ele>476.0</ele><time>2026-05-02T13:24:45.753Z</time></trkpt><trkpt lat="44.1245426" lon="11.0011867"><ele>476.0</ele><time>2026-05-02T13:24:46.758Z</time></trkpt><trkpt lat="44.1244207" lon="11.0012405"><ele>476.0</ele><time>2026-05-02T13:24:47.75Z</time></trkpt><trkpt lat="44.1243199" lon="11.0013076"><ele>476.0</ele><time>2026-05-02T13:24:48.749Z</time></trkpt><trkpt lat="44.1242263" lon="11.0013923"><ele>476.0</ele><time>2026-05-02T13:24:49.75Z</time></trkpt><trkpt lat="44.1241736" lon="11.0014937"><ele>476.0</ele><time>2026-05-02T13:24:50.749Z</time></trkpt><trkpt lat="44.124123" lon="11.0016018"><ele>475.16666666666663</ele><time>2026-05-02T13:24:51.759Z</time></trkpt><trkpt lat="44.1240878" lon="11.0017005"><ele>474.3333333333333</ele><time>2026-05-02T13:24:52.747Z</time></trkpt><trkpt lat="44.1240534" lon="11.0018114"><ele>473.5</ele><time>2026-05-02T13:24:53.748Z</time></trkpt><trkpt lat="44.1240103" lon="11.0019029"><ele>472.66666666666663</ele><time>2026-05-02T13:24:54.747Z</time></trkpt><trkpt lat="44.123954" lon="11.0019741"><ele>471.8333333333333</ele><time>2026-05-02T13:24:55.746Z</time></trkpt><trkpt lat="44.1238803" lon="11.002026"><ele>471.0</ele><time>2026-05-02T13:24:56.749Z</time></trkpt><trkpt lat="44.1237891" lon="11.0020732"><ele>471.0</ele><time>2026-05-02T13:24:57.741Z</time></trkpt><trkpt lat="44.123688" lon="11.0021024"><ele>471.0</ele><time>2026-05-02T13:24:58.749Z</time></trkpt><trkpt lat="44.1235833" lon="11.0021126"><ele>471.0</ele><time>2026-05-02T13:24:59.755Z</time></trkpt><trkpt lat="44.1234764" lon="11.0020998"><ele>471.0</ele><time>2026-05-02T13:25:00.751Z</time></trkpt><trkpt lat="44.1233751" lon="11.0020912"><ele>471.0</ele><time>2026-05-02T13:25:01.748Z</time></trkpt><trkpt lat="44.1232803" lon="11.002085"><ele>471.20000000000005</ele><time>2026-05-02T13:25:02.744Z</time></trkpt><trkpt lat="44.123194" lon="11.0020572"><ele>471.40000000000003</ele><time>2026-05-02T13:25:03.757Z</time></trkpt><trkpt lat="44.123094" lon="11.002022"><ele>471.6</ele><time>2026-05-02T13:25:04.748Z</time></trkpt><trkpt lat="44.1230034" lon="11.0019461"><ele>471.8</ele><time>2026-05-02T13:25:05.747Z</time></trkpt><trkpt lat="44.1229256" lon="11.0018915"><ele>472.0</ele><time>2026-05-02T13:25:06.754Z</time></trkpt><trkpt lat="44.1228527" lon="11.0018419"><ele>472.00000000000006</ele><time>2026-05-02T13:25:07.746Z</time></trkpt><trkpt lat="44.1227694" lon="11.0017951"><ele>472.0</ele><time>2026-05-02T13:25:08.747Z</time></trkpt><trkpt lat="44.122687" lon="11.0017547"><ele>472.0</ele><time>2026-05-02T13:25:09.76Z</time></trkpt><trkpt lat="44.1226043" lon="11.0017388"><ele>472.0</ele><time>2026-05-02T13:25:10.749Z</time></trkpt><trkpt lat="44.1225198" lon="11.0017478"><ele>472.00000000000006</ele><time>2026-05-02T13:25:11.745Z</time></trkpt><trkpt lat="44.1224269" lon="11.001793"><ele>472.0</ele><time>2026-05-02T13:25:12.746Z</time></trkpt><trkpt lat="44.122328" lon="11.0018546"><ele>473.40000000000003</ele><time>2026-05-02T13:25:13.745Z</time></trkpt><trkpt lat="44.1222371" lon="11.0019116"><ele>474.80000000000007</ele><time>2026-05-02T13:25:14.747Z</time></trkpt><trkpt lat="44.1221401" lon="11.0020024"><ele>476.2</ele><time>2026-05-02T13:25:15.753Z</time></trkpt><trkpt lat="44.1220447" lon="11.0020813"><ele>477.6</ele><time>2026-05-02T13:25:16.746Z</time></trkpt><trkpt lat="44.1219485" lon="11.0021651"><ele>479.0</ele><time>2026-05-02T13:25:17.747Z</time></trkpt><trkpt lat="44.1218496" lon="11.0022397"><ele>479.0</ele><time>2026-05-02T13:25:18.756Z</time></trkpt><trkpt lat="44.1217592" lon="11.0023167"><ele>479.0</ele><time>2026-05-02T13:25:19.747Z</time></trkpt><trkpt lat="44.1216753" lon="11.0023936"><ele>479.0</ele><time>2026-05-02T13:25:20.755Z</time></trkpt><trkpt lat="44.1215937" lon="11.0024446"><ele>479.0</ele><time>2026-05-02T13:25:21.747Z</time></trkpt><trkpt lat="44.121509" lon="11.0024879"><ele>479.0</ele><time>2026-05-02T13:25:22.747Z</time></trkpt><trkpt lat="44.1214468" lon="11.0025404"><ele>479.8333333333333</ele><time>2026-05-02T13:25:23.752Z</time></trkpt><trkpt lat="44.1213874" lon="11.0025768"><ele>480.66666666666663</ele><time>2026-05-02T13:25:24.746Z</time></trkpt><trkpt lat="44.1213208" lon="11.0026125"><ele>481.5</ele><time>2026-05-02T13:25:25.746Z</time></trkpt><trkpt lat="44.1212412" lon="11.0026093"><ele>482.33333333333337</ele><time>2026-05-02T13:25:26.757Z</time></trkpt><trkpt lat="44.1211581" lon="11.0025897"><ele>483.1666666666667</ele><time>2026-05-02T13:25:27.757Z</time></trkpt><trkpt lat="44.1210746" lon="11.0025407"><ele>484.0</ele><time>2026-05-02T13:25:28.746Z</time></trkpt><trkpt lat="44.1210034" lon="11.0024694"><ele>484.00000000000006</ele><time>2026-05-02T13:25:29.746Z</time></trkpt><trkpt lat="44.1209322" lon="11.0024127"><ele>484.0</ele><time>2026-05-02T13:25:30.755Z</time></trkpt><trkpt lat="44.1208635" lon="11.0023729"><ele>484.0</ele><time>2026-05-02T13:25:31.745Z</time></trkpt><trkpt lat="44.1207775" lon="11.0023448"><ele>484.0</ele><time>2026-05-02T13:25:32.752Z</time></trkpt><trkpt lat="44.1206882" lon="11.0023519"><ele>484.00000000000006</ele><time>2026-05-02T13:25:33.752Z</time></trkpt><trkpt lat="44.1206053" lon="11.002358"><ele>484.0</ele><time>2026-05-02T13:25:34.75Z</time></trkpt><trkpt lat="44.12052" lon="11.0023944"><ele>483.6</ele><time>2026-05-02T13:25:35.747Z</time></trkpt><trkpt lat="44.1204328" lon="11.0024247"><ele>483.2</ele><time>2026-05-02T13:25:36.745Z</time></trkpt><trkpt lat="44.1203376" lon="11.0024621"><ele>482.80000000000007</ele><time>2026-05-02T13:25:37.749Z</time></trkpt><trkpt lat="44.120234" lon="11.0025105"><ele>482.40000000000003</ele><time>2026-05-02T13:25:38.751Z</time></trkpt><trkpt lat="44.120141" lon="11.0025367"><ele>482.0</ele><time>2026-05-02T13:25:39.746Z</time></trkpt><trkpt lat="44.1200474" lon="11.0025494"><ele>482.0</ele><time>2026-05-02T13:25:40.745Z</time></trkpt><trkpt lat="44.1199567" lon="11.0025092"><ele>482.00000000000006</ele><time>2026-05-02T13:25:41.75Z</time></trkpt><trkpt lat="44.1198628" lon="11.0024796"><ele>482.00000000000006</ele><time>2026-05-02T13:25:42.755Z</time></trkpt><trkpt lat="44.1197644" lon="11.0024388"><ele>482.0</ele><time>2026-05-02T13:25:43.749Z</time></trkpt><trkpt lat="44.1196675" lon="11.0024098"><ele>482.0</ele><time>2026-05-02T13:25:44.755Z</time></trkpt><trkpt lat="44.1195729" lon="11.0023792"><ele>491.0</ele><time>2026-05-02T13:25:45.747Z</time></trkpt><trkpt lat="44.1194778" lon="11.0023554"><ele>500.00000000000006</ele><time>2026-05-02T13:25:46.745Z</time></trkpt><trkpt lat="44.1193811" lon="11.0023601"><ele>509.00000000000006</ele><time>2026-05-02T13:25:47.748Z</time></trkpt><trkpt lat="44.1192864" lon="11.0023651"><ele>518.0</ele><time>2026-05-02T13:25:48.746Z</time></trkpt><trkpt lat="44.1191802" lon="11.0024251"><ele>527.0</ele><time>2026-05-02T13:25:49.746Z</time></trkpt><trkpt lat="44.1190864" lon="11.0024606"><ele>521.8000000000001</ele><time>2026-05-02T13:25:50.747Z</time></trkpt><trkpt lat="44.1189977" lon="11.0025187"><ele>516.6</ele><time>2026-05-02T13:25:51.748Z</time></trkpt><trkpt lat="44.1189075" lon="11.0025711"><ele>511.40000000000003</ele><time>2026-05-02T13:25:52.759Z</time></trkpt><trkpt lat="44.1188203" lon="11.0026292"><ele>506.20000000000005</ele><time>2026-05-02T13:25:53.743Z</time></trkpt><trkpt lat="44.1187378" lon="11.0026566"><ele>501.0</ele><time>2026-05-02T13:25:54.746Z</time></trkpt><trkpt lat="44.1186515" lon="11.002672"><ele>501.0</ele><time>2026-05-02T13:25:55.749Z</time></trkpt><trkpt lat="44.1185645" lon="11.002652"><ele>501.0</ele><time>2026-05-02T13:25:56.748Z</time></trkpt><trkpt lat="44.1184789" lon="11.002615"><ele>501.0</ele><time>2026-05-02T13:25:57.753Z</time></trkpt><trkpt lat="44.1183894" lon="11.0025718"><ele>501.0</ele><time>2026-05-02T13:25:58.751Z</time></trkpt><trkpt lat="44.1182915" lon="11.0025661"><ele>501.0</ele><time>2026-05-02T13:25:59.748Z</time></trkpt><trkpt lat="44.1181946" lon="11.0025579"><ele>505.8</ele><time>2026-05-02T13:26:00.748Z</time></trkpt><trkpt lat="44.1180939" lon="11.0025554"><ele>510.6</ele><time>2026-05-02T13:26:01.749Z</time></trkpt><trkpt lat="44.1179995" lon="11.002563"><ele>515.4</ele><time>2026-05-02T13:26:02.753Z</time></trkpt><trkpt lat="44.1178951" lon="11.0025874"><ele>520.2</ele><time>2026-05-02T13:26:03.748Z</time></trkpt><trkpt lat="44.1177835" lon="11.0026515"><ele>525.0</ele><time>2026-05-02T13:26:04.754Z</time></trkpt><trkpt lat="44.1176518" lon="11.0028321"><ele>525.0</ele><time>2026-05-02T13:26:05.75Z</time></trkpt><trkpt lat="44.1175054" lon="11.0029901"><ele>525.0</ele><time>2026-05-02T13:26:06.754Z</time></trkpt><trkpt lat="44.1173444" lon="11.0031398"><ele>525.0</ele><time>2026-05-02T13:26:07.755Z</time></trkpt><trkpt lat="44.1171747" lon="11.0032917"><ele>523.3333333333334</ele><time>2026-05-02T13:26:08.75Z</time></trkpt><trkpt lat="44.1169885" lon="11.0034324"><ele>521.6666666666667</ele><time>2026-05-02T13:26:09.75Z</time></trkpt><trkpt lat="44.1168027" lon="11.0035626"><ele>520.0</ele><time>2026-05-02T13:26:10.748Z</time></trkpt><trkpt lat="44.1166252" lon="11.0036921"><ele>524.6666666666667</ele><time>2026-05-02T13:26:11.759Z</time></trkpt><trkpt lat="44.1164682" lon="11.0038248"><ele>529.3333333333334</ele><time>2026-05-02T13:26:12.755Z</time></trkpt><trkpt lat="44.116332" lon="11.0039294"><ele>534.0</ele><time>2026-05-02T13:26:13.757Z</time></trkpt><trkpt lat="44.1162025" lon="11.00401"><ele>534.0</ele><time>2026-05-02T13:26:14.749Z</time></trkpt><trkpt lat="44.1160765" lon="11.0040568"><ele>534.0</ele><time>2026-05-02T13:26:15.754Z</time></trkpt><trkpt lat="44.1159435" lon="11.0040742"><ele>534.0</ele><time>2026-05-02T13:26:16.755Z</time></trkpt><trkpt lat="44.1157993" lon="11.0040636"><ele>534.0</ele><time>2026-05-02T13:26:17.75Z</time></trkpt><trkpt lat="44.1156507" lon="11.0040579"><ele>530.0</ele><time>2026-05-02T13:26:18.757Z</time></trkpt><trkpt lat="44.1155001" lon="11.004058"><ele>526.0</ele><time>2026-05-02T13:26:19.752Z</time></trkpt><trkpt lat="44.1153584" lon="11.0040069"><ele>522.0</ele><time>2026-05-02T13:26:20.749Z</time></trkpt><trkpt lat="44.1152102" lon="11.0039665"><ele>518.0</ele><time>2026-05-02T13:26:21.759Z</time></trkpt><trkpt lat="44.1150706" lon="11.0038809"><ele>518.0</ele><time>2026-05-02T13:26:22.754Z</time></trkpt><trkpt lat="44.1149283" lon="11.0037919"><ele>518.0</ele><time>2026-05-02T13:26:23.744Z</time></trkpt><trkpt lat="44.1147861" lon="11.0037087"><ele>518.0</ele><time>2026-05-02T13:26:24.753Z</time></trkpt><trkpt lat="44.1146339" lon="11.003633"><ele>510.3333333333333</ele><time>2026-05-02T13:26:25.757Z</time></trkpt><trkpt lat="44.1144655" lon="11.0035458"><ele>502.66666666666663</ele><time>2026-05-02T13:26:26.749Z</time></trkpt><trkpt lat="44.1142952" lon="11.0034507"><ele>495.0</ele><time>2026-05-02T13:26:27.754Z</time></trkpt><trkpt lat="44.114111" lon="11.0033425"><ele>497.5</ele><time>2026-05-02T13:26:28.759Z</time></trkpt><trkpt lat="44.1139186" lon="11.0031642"><ele>500.0</ele><time>2026-05-02T13:26:29.749Z</time></trkpt><trkpt lat="44.113745" lon="11.0029749"><ele>500.0</ele><time>2026-05-02T13:26:30.746Z</time></trkpt><trkpt lat="44.1135618" lon="11.0027937"><ele>500.0</ele><time>2026-05-02T13:26:31.746Z</time></trkpt><trkpt lat="44.113395" lon="11.0026112"><ele>500.0</ele><time>2026-05-02T13:26:32.748Z</time></trkpt><trkpt lat="44.1132227" lon="11.0024511"><ele>498.66666666666663</ele><time>2026-05-02T13:26:33.75Z</time></trkpt><trkpt lat="44.1130712" lon="11.0022976"><ele>497.33333333333337</ele><time>2026-05-02T13:26:34.753Z</time></trkpt><trkpt lat="44.11292" lon="11.0021273"><ele>496.0</ele><time>2026-05-02T13:26:35.75Z</time></trkpt><trkpt lat="44.1127904" lon="11.0019445"><ele>496.0</ele><time>2026-05-02T13:26:36.747Z</time></trkpt><trkpt lat="44.1126603" lon="11.0017544"><ele>496.0</ele><time>2026-05-02T13:26:37.753Z</time></trkpt><trkpt lat="44.1125263" lon="11.0015662"><ele>496.0</ele><time>2026-05-02T13:26:38.751Z</time></trkpt><trkpt lat="44.1124112" lon="11.0013795"><ele>505.6666666666667</ele><time>2026-05-02T13:26:39.748Z</time></trkpt><trkpt lat="44.1122868" lon="11.0012255"><ele>515.3333333333334</ele><time>2026-05-02T13:26:40.753Z</time></trkpt><trkpt lat="44.1121592" lon="11.0010945"><ele>525.0</ele><time>2026-05-02T13:26:41.746Z</time></trkpt><trkpt lat="44.1120045" lon="11.0010386"><ele>525.0</ele><time>2026-05-02T13:26:42.746Z</time></trkpt><trkpt lat="44.1118746" lon="11.0009931"><ele>525.0</ele><time>2026-05-02T13:26:43.752Z</time></trkpt><trkpt lat="44.1117593" lon="11.0009767"><ele>525.0</ele><time>2026-05-02T13:26:44.754Z</time></trkpt><trkpt lat="44.1116396" lon="11.0010433"><ele>525.0</ele><time>2026-05-02T13:26:45.754Z</time></trkpt><trkpt lat="44.1115236" lon="11.0011034"><ele>529.0</ele><time>2026-05-02T13:26:46.745Z</time></trkpt><trkpt lat="44.1113789" lon="11.0012322"><ele>533.0</ele><time>2026-05-02T13:26:47.754Z</time></trkpt><trkpt lat="44.1112549" lon="11.0013742"><ele>537.0</ele><time>2026-05-02T13:26:48.745Z</time></trkpt><trkpt lat="44.1111199" lon="11.0015033"><ele>537.0</ele><time>2026-05-02T13:26:49.753Z</time></trkpt><trkpt lat="44.1109764" lon="11.0015912"><ele>537.0</ele><time>2026-05-02T13:26:50.746Z</time></trkpt><trkpt lat="44.1108489" lon="11.0016487"><ele>537.0</ele><time>2026-05-02T13:26:51.748Z</time></trkpt><trkpt lat="44.1106869" lon="11.0016847"><ele>541.6666666666666</ele><time>2026-05-02T13:26:52.745Z</time></trkpt><trkpt lat="44.1105316" lon="11.0017079"><ele>546.3333333333333</ele><time>2026-05-02T13:26:53.746Z</time></trkpt><trkpt lat="44.1103857" lon="11.0015379"><ele>551.0</ele><time>2026-05-02T13:26:54.746Z</time></trkpt><trkpt lat="44.1101957" lon="11.0015171"><ele>551.0</ele><time>2026-05-02T13:26:55.748Z</time></trkpt><trkpt lat="44.1100722" lon="11.0014731"><ele>551.0</ele><time>2026-05-02T13:26:56.749Z</time></trkpt><trkpt lat="44.1099254" lon="11.0015615"><ele>551.0</ele><time>2026-05-02T13:26:57.761Z</time></trkpt><trkpt lat="44.1097858" lon="11.0016347"><ele>551.0</ele><time>2026-05-02T13:26:58.749Z</time></trkpt><trkpt lat="44.1096455" lon="11.0017556"><ele>547.0</ele><time>2026-05-02T13:26:59.748Z</time></trkpt><trkpt lat="44.1095227" lon="11.0018727"><ele>543.0</ele><time>2026-05-02T13:27:00.758Z</time></trkpt><trkpt lat="44.1093966" lon="11.002028"><ele>539.0</ele><time>2026-05-02T13:27:01.747Z</time></trkpt><trkpt lat="44.1092746" lon="11.0022269"><ele>539.0</ele><time>2026-05-02T13:27:02.746Z</time></trkpt><trkpt lat="44.1091579" lon="11.0024114"><ele>539.0</ele><time>2026-05-02T13:27:03.746Z</time></trkpt><trkpt lat="44.1090562" lon="11.0025497"><ele>539.0</ele><time>2026-05-02T13:27:04.748Z</time></trkpt><trkpt lat="44.1089531" lon="11.0026622"><ele>533.5</ele><time>2026-05-02T13:27:05.749Z</time></trkpt><trkpt lat="44.1088422" lon="11.0027509"><ele>528.0</ele><time>2026-05-02T13:27:06.75Z</time></trkpt><trkpt lat="44.1087319" lon="11.0028253"><ele>522.5</ele><time>2026-05-02T13:27:07.754Z</time></trkpt><trkpt lat="44.1085723" lon="11.0027143"><ele>517.0</ele><time>2026-05-02T13:27:08.761Z</time></trkpt><trkpt lat="44.1084195" lon="11.0026963"><ele>511.33333333333337</ele><time>2026-05-02T13:27:09.751Z</time></trkpt><trkpt lat="44.1082431" lon="11.0026899"><ele>505.66666666666663</ele><time>2026-05-02T13:27:10.749Z</time></trkpt><trkpt lat="44.1080744" lon="11.0027067"><ele>500.0</ele><time>2026-05-02T13:27:11.747Z</time></trkpt><trkpt lat="44.1079216" lon="11.0026918"><ele>500.0</ele><time>2026-05-02T13:27:12.749Z</time></trkpt><trkpt lat="44.1077636" lon="11.0026397"><ele>500.0</ele><time>2026-05-02T13:27:13.745Z</time></trkpt><trkpt lat="44.1076157" lon="11.0025746"><ele>500.0</ele><time>2026-05-02T13:27:14.746Z</time></trkpt><trkpt lat="44.1074831" lon="11.0025076"><ele>500.0</ele><time>2026-05-02T13:27:15.756Z</time></trkpt><trkpt lat="44.1073621" lon="11.0023412"><ele>500.0</ele><time>2026-05-02T13:27:16.746Z</time></trkpt><trkpt lat="44.1072415" lon="11.0021893"><ele>500.0</ele><time>2026-05-02T13:27:17.749Z</time></trkpt><trkpt lat="44.1071229" lon="11.0020219"><ele>500.0</ele><time>2026-05-02T13:27:18.751Z</time></trkpt><trkpt lat="44.1069987" lon="11.0018462"><ele>500.0</ele><time>2026-05-02T13:27:19.753Z</time></trkpt><trkpt lat="44.1068917" lon="11.0016517"><ele>500.0</ele><time>2026-05-02T13:27:20.755Z</time></trkpt><trkpt lat="44.1068091" lon="11.0014627"><ele>503.3333333333333</ele><time>2026-05-02T13:27:21.752Z</time></trkpt><trkpt lat="44.1067586" lon="11.0012371"><ele>506.66666666666663</ele><time>2026-05-02T13:27:22.751Z</time></trkpt><trkpt lat="44.1067134" lon="11.0010126"><ele>510.0</ele><time>2026-05-02T13:27:23.756Z</time></trkpt><trkpt lat="44.1066718" lon="11.0007897"><ele>507.0</ele><time>2026-05-02T13:27:24.757Z</time></trkpt><trkpt lat="44.1066379" lon="11.0005587"><ele>504.0</ele><time>2026-05-02T13:27:25.75Z</time></trkpt><trkpt lat="44.1065821" lon="11.0003379"><ele>501.0</ele><time>2026-05-02T13:27:26.756Z</time></trkpt><trkpt lat="44.1065138" lon="11.0001364"><ele>501.0</ele><time>2026-05-02T13:27:27.749Z</time></trkpt><trkpt lat="44.1064128" lon="10.9999506"><ele>501.0</ele><time>2026-05-02T13:27:28.75Z</time></trkpt><trkpt lat="44.106309" lon="10.9998098"><ele>501.0</ele><time>2026-05-02T13:27:29.757Z</time></trkpt><trkpt lat="44.1061649" lon="10.9997051"><ele>501.0</ele><time>2026-05-02T13:27:30.749Z</time></trkpt><trkpt lat="44.1060228" lon="10.999614"><ele>501.0</ele><time>2026-05-02T13:27:31.755Z</time></trkpt><trkpt lat="44.1059013" lon="10.9995344"><ele>501.0</ele><time>2026-05-02T13:27:32.75Z</time></trkpt><trkpt lat="44.1057522" lon="10.9994915"><ele>501.0</ele><time>2026-05-02T13:27:33.748Z</time></trkpt><trkpt lat="44.1055924" lon="10.9994848"><ele>501.5</ele><time>2026-05-02T13:27:34.748Z</time></trkpt><trkpt lat="44.1054342" lon="10.9995268"><ele>502.0</ele><time>2026-05-02T13:27:35.749Z</time></trkpt><trkpt lat="44.1052965" lon="10.9995427"><ele>502.5</ele><time>2026-05-02T13:27:36.754Z</time></trkpt><trkpt lat="44.105164" lon="10.9995545"><ele>503.0</ele><time>2026-05-02T13:27:37.752Z</time></trkpt><trkpt lat="44.1050428" lon="10.9994696"><ele>503.0</ele><time>2026-05-02T13:27:38.748Z</time></trkpt><trkpt lat="44.1049279" lon="10.9994371"><ele>503.0</ele><time>2026-05-02T13:27:39.747Z</time></trkpt><trkpt lat="44.1048241" lon="10.9994205"><ele>503.0</ele><time>2026-05-02T13:27:40.764Z</time></trkpt><trkpt lat="44.1047111" lon="10.9994758"><ele>503.0</ele><time>2026-05-02T13:27:41.751Z</time></trkpt><trkpt lat="44.1045814" lon="10.9995573"><ele>505.66666666666663</ele><time>2026-05-02T13:27:42.747Z</time></trkpt><trkpt lat="44.1044417" lon="10.9996441"><ele>508.33333333333337</ele><time>2026-05-02T13:27:43.76Z</time></trkpt><trkpt lat="44.1043058" lon="10.9997388"><ele>511.0</ele><time>2026-05-02T13:27:44.74Z</time></trkpt><trkpt lat="44.1041659" lon="10.9998297"><ele>515.0</ele><time>2026-05-02T13:27:45.742Z</time></trkpt><trkpt lat="44.1040383" lon="10.9999168"><ele>519.0</ele><time>2026-05-02T13:27:46.751Z</time></trkpt><trkpt lat="44.1039083" lon="10.999999"><ele>523.0</ele><time>2026-05-02T13:27:47.751Z</time></trkpt><trkpt lat="44.103792" lon="11.0000553"><ele>527.0</ele><time>2026-05-02T13:27:48.755Z</time></trkpt><trkpt lat="44.1036716" lon="11.0000833"><ele>527.0</ele><time>2026-05-02T13:27:49.754Z</time></trkpt><trkpt lat="44.1035519" lon="11.0001062"><ele>527.0</ele><time>2026-05-02T13:27:50.744Z</time></trkpt><trkpt lat="44.1034624" lon="11.0000711"><ele>527.0</ele><time>2026-05-02T13:27:51.756Z</time></trkpt><trkpt lat="44.1034086" lon="10.9998729"><ele>527.0</ele><time>2026-05-02T13:27:52.748Z</time></trkpt><trkpt lat="44.1033525" lon="10.999701"><ele>527.0</ele><time>2026-05-02T13:27:53.748Z</time></trkpt><trkpt lat="44.1033138" lon="10.9995046"><ele>527.0</ele><time>2026-05-02T13:27:54.755Z</time></trkpt><trkpt lat="44.1032682" lon="10.9993264"><ele>527.0</ele><time>2026-05-02T13:27:55.756Z</time></trkpt><trkpt lat="44.1032246" lon="10.9991946"><ele>527.0</ele><time>2026-05-02T13:27:56.755Z</time></trkpt><trkpt lat="44.1031488" lon="10.9990753"><ele>525.6</ele><time>2026-05-02T13:27:57.748Z</time></trkpt><trkpt lat="44.1030776" lon="10.998973"><ele>524.2</ele><time>2026-05-02T13:27:58.754Z</time></trkpt><trkpt lat="44.1030087" lon="10.9988935"><ele>522.8</ele><time>2026-05-02T13:27:59.751Z</time></trkpt><trkpt lat="44.1029466" lon="10.998832"><ele>521.4</ele><time>2026-05-02T13:28:00.755Z</time></trkpt><trkpt lat="44.1028499" lon="10.9988723"><ele>520.0</ele><time>2026-05-02T13:28:01.758Z</time></trkpt><trkpt lat="44.1026227" lon="10.999092"><ele>520.0</ele><time>2026-05-02T13:28:02.743Z</time></trkpt><trkpt lat="44.1024766" lon="10.9991387"><ele>520.0</ele><time>2026-05-02T13:28:03.749Z</time></trkpt><trkpt lat="44.102332" lon="10.9991772"><ele>520.0</ele><time>2026-05-02T13:28:04.75Z</time></trkpt><trkpt lat="44.1021834" lon="10.9991625"><ele>520.0</ele><time>2026-05-02T13:28:05.752Z</time></trkpt><trkpt lat="44.1020627" lon="10.9991247"><ele>523.25</ele><time>2026-05-02T13:28:06.758Z</time></trkpt><trkpt lat="44.1019367" lon="10.9990596"><ele>526.5</ele><time>2026-05-02T13:28:07.753Z</time></trkpt><trkpt lat="44.1018182" lon="10.9989781"><ele>529.75</ele><time>2026-05-02T13:28:08.756Z</time></trkpt><trkpt lat="44.1017062" lon="10.9988131"><ele>533.0</ele><time>2026-05-02T13:28:09.751Z</time></trkpt><trkpt lat="44.1015818" lon="10.998666"><ele>530.3333333333333</ele><time>2026-05-02T13:28:10.749Z</time></trkpt><trkpt lat="44.1014555" lon="10.9985109"><ele>527.6666666666666</ele><time>2026-05-02T13:28:11.751Z</time></trkpt><trkpt lat="44.1013117" lon="10.9983556"><ele>525.0</ele><time>2026-05-02T13:28:12.752Z</time></trkpt><trkpt lat="44.1011472" lon="10.998228"><ele>525.0</ele><time>2026-05-02T13:28:13.753Z</time></trkpt><trkpt lat="44.1009831" lon="10.9981173"><ele>525.0</ele><time>2026-05-02T13:28:14.749Z</time></trkpt><trkpt lat="44.1008047" lon="10.9980133"><ele>525.0</ele><time>2026-05-02T13:28:15.744Z</time></trkpt><trkpt lat="44.100646" lon="10.9979288"><ele>532.6666666666666</ele><time>2026-05-02T13:28:16.744Z</time></trkpt><trkpt lat="44.1004605" lon="10.9978374"><ele>540.3333333333333</ele><time>2026-05-02T13:28:17.745Z</time></trkpt><trkpt lat="44.1002695" lon="10.9977315"><ele>548.0</ele><time>2026-05-02T13:28:18.748Z</time></trkpt><trkpt lat="44.1000878" lon="10.9976533"><ele>547.3333333333333</ele><time>2026-05-02T13:28:19.749Z</time></trkpt><trkpt lat="44.0999166" lon="10.9975715"><ele>546.6666666666666</ele><time>2026-05-02T13:28:20.756Z</time></trkpt><trkpt lat="44.0997739" lon="10.9974599"><ele>546.0</ele><time>2026-05-02T13:28:21.744Z</time></trkpt><trkpt lat="44.0996294" lon="10.9973524"><ele>546.0</ele><time>2026-05-02T13:28:22.737Z</time></trkpt><trkpt lat="44.0995245" lon="10.9973202"><ele>546.0</ele><time>2026-05-02T13:28:23.745Z</time></trkpt><trkpt lat="44.0994186" lon="10.9972543"><ele>546.0</ele><time>2026-05-02T13:28:24.748Z</time></trkpt><trkpt lat="44.0993076" lon="10.9971959"><ele>546.0</ele><time>2026-05-02T13:28:25.752Z</time></trkpt><trkpt lat="44.0993052" lon="10.9970704"><ele>546.0</ele><time>2026-05-02T13:28:26.759Z</time></trkpt><trkpt lat="44.0993069" lon="10.9969449"><ele>546.0</ele><time>2026-05-02T13:28:27.747Z</time></trkpt><trkpt lat="44.099305" lon="10.9967939"><ele>546.0</ele><time>2026-05-02T13:28:28.749Z</time></trkpt><trkpt lat="44.0992866" lon="10.9966492"><ele>546.0</ele><time>2026-05-02T13:28:29.749Z</time></trkpt><trkpt lat="44.0992018" lon="10.9964909"><ele>546.0</ele><time>2026-05-02T13:28:30.748Z</time></trkpt><trkpt lat="44.0991118" lon="10.9963199"><ele>545.5</ele><time>2026-05-02T13:28:31.744Z</time></trkpt><trkpt lat="44.0990089" lon="10.9961751"><ele>545.0</ele><time>2026-05-02T13:28:32.748Z</time></trkpt><trkpt lat="44.098937" lon="10.9960258"><ele>544.5</ele><time>2026-05-02T13:28:33.753Z</time></trkpt><trkpt lat="44.0988521" lon="10.9958896"><ele>544.0</ele><time>2026-05-02T13:28:34.745Z</time></trkpt><trkpt lat="44.0987616" lon="10.9957465"><ele>541.0</ele><time>2026-05-02T13:28:35.747Z</time></trkpt><trkpt lat="44.0986834" lon="10.9956011"><ele>538.0</ele><time>2026-05-02T13:28:36.746Z</time></trkpt><trkpt lat="44.0985657" lon="10.995451"><ele>535.0</ele><time>2026-05-02T13:28:37.744Z</time></trkpt><trkpt lat="44.0984417" lon="10.9953354"><ele>532.0</ele><time>2026-05-02T13:28:38.749Z</time></trkpt><trkpt lat="44.0983036" lon="10.9952036"><ele>531.6666666666667</ele><time>2026-05-02T13:28:39.747Z</time></trkpt><trkpt lat="44.0981587" lon="10.9950785"><ele>531.3333333333334</ele><time>2026-05-02T13:28:40.75Z</time></trkpt><trkpt lat="44.0980219" lon="10.9949618"><ele>531.0</ele><time>2026-05-02T13:28:41.751Z</time></trkpt><trkpt lat="44.0978837" lon="10.9948396"><ele>531.0</ele><time>2026-05-02T13:28:42.747Z</time></trkpt><trkpt lat="44.0977584" lon="10.9947344"><ele>531.0</ele><time>2026-05-02T13:28:43.747Z</time></trkpt><trkpt lat="44.0976306" lon="10.9946377"><ele>531.0</ele><time>2026-05-02T13:28:44.748Z</time></trkpt><trkpt lat="44.0975192" lon="10.9945229"><ele>531.0</ele><time>2026-05-02T13:28:45.751Z</time></trkpt><trkpt lat="44.0974081" lon="10.9944218"><ele>531.0</ele><time>2026-05-02T13:28:46.748Z</time></trkpt><trkpt lat="44.0972925" lon="10.9943183"><ele>531.0</ele><time>2026-05-02T13:28:47.749Z</time></trkpt><trkpt lat="44.0971943" lon="10.9942267"><ele>531.0</ele><time>2026-05-02T13:28:48.749Z</time></trkpt><trkpt lat="44.0970839" lon="10.9941297"><ele>531.0</ele><time>2026-05-02T13:28:49.747Z</time></trkpt><trkpt lat="44.0969559" lon="10.9940271"><ele>531.0</ele><time>2026-05-02T13:28:50.746Z</time></trkpt><trkpt lat="44.0968089" lon="10.9939132"><ele>531.0</ele><time>2026-05-02T13:28:51.752Z</time></trkpt><trkpt lat="44.0966536" lon="10.9938086"><ele>531.0</ele><time>2026-05-02T13:28:52.746Z</time></trkpt><trkpt lat="44.0964906" lon="10.9936933"><ele>531.3333333333334</ele><time>2026-05-02T13:28:53.747Z</time></trkpt><trkpt lat="44.0963141" lon="10.993575"><ele>531.6666666666667</ele><time>2026-05-02T13:28:54.75Z</time></trkpt><trkpt lat="44.0961339" lon="10.9934534"><ele>532.0</ele><time>2026-05-02T13:28:55.75Z</time></trkpt><trkpt lat="44.0959452" lon="10.9933271"><ele>532.0</ele><time>2026-05-02T13:28:56.749Z</time></trkpt><trkpt lat="44.0957638" lon="10.9931867"><ele>532.0</ele><time>2026-05-02T13:28:57.749Z</time></trkpt><trkpt lat="44.0955843" lon="10.9930737"><ele>532.0</ele><time>2026-05-02T13:28:58.746Z</time></trkpt><trkpt lat="44.0954153" lon="10.9929542"><ele>532.6666666666667</ele><time>2026-05-02T13:28:59.746Z</time></trkpt><trkpt lat="44.0952525" lon="10.9928424"><ele>533.3333333333334</ele><time>2026-05-02T13:29:00.753Z</time></trkpt><trkpt lat="44.0951041" lon="10.9927225"><ele>534.0</ele><time>2026-05-02T13:29:01.752Z</time></trkpt><trkpt lat="44.0949642" lon="10.9925843"><ele>533.6666666666666</ele><time>2026-05-02T13:29:02.749Z</time></trkpt><trkpt lat="44.0948338" lon="10.992418"><ele>533.3333333333333</ele><time>2026-05-02T13:29:03.75Z</time></trkpt><trkpt lat="44.0947026" lon="10.9922433"><ele>533.0</ele><time>2026-05-02T13:29:04.749Z</time></trkpt><trkpt lat="44.0946157" lon="10.992008"><ele>533.0</ele><time>2026-05-02T13:29:05.749Z</time></trkpt><trkpt lat="44.0945154" lon="10.9917986"><ele>533.0</ele><time>2026-05-02T13:29:06.752Z</time></trkpt><trkpt lat="44.0944086" lon="10.991605"><ele>533.0</ele><time>2026-05-02T13:29:07.735Z</time></trkpt><trkpt lat="44.0942995" lon="10.9914598"><ele>535.6666666666666</ele><time>2026-05-02T13:29:08.753Z</time></trkpt><trkpt lat="44.0941524" lon="10.9914182"><ele>538.3333333333334</ele><time>2026-05-02T13:29:09.75Z</time></trkpt><trkpt lat="44.0939984" lon="10.9913635"><ele>541.0</ele><time>2026-05-02T13:29:10.753Z</time></trkpt><trkpt lat="44.0938354" lon="10.9913577"><ele>541.0</ele><time>2026-05-02T13:29:11.752Z</time></trkpt><trkpt lat="44.0936772" lon="10.9913513"><ele>541.0</ele><time>2026-05-02T13:29:12.752Z</time></trkpt><trkpt lat="44.0935198" lon="10.9913363"><ele>541.0</ele><time>2026-05-02T13:29:13.746Z</time></trkpt><trkpt lat="44.0933543" lon="10.9913198"><ele>543.0</ele><time>2026-05-02T13:29:14.749Z</time></trkpt><trkpt lat="44.0932174" lon="10.991203"><ele>545.0</ele><time>2026-05-02T13:29:15.752Z</time></trkpt><trkpt lat="44.0930729" lon="10.9910729"><ele>547.0</ele><time>2026-05-02T13:29:16.75Z</time></trkpt><trkpt lat="44.0929406" lon="10.9909415"><ele>545.3333333333334</ele><time>2026-05-02T13:29:17.753Z</time></trkpt><trkpt lat="44.09281" lon="10.9908122"><ele>543.6666666666666</ele><time>2026-05-02T13:29:18.751Z</time></trkpt><trkpt lat="44.0926806" lon="10.990675"><ele>542.0</ele><time>2026-05-02T13:29:19.755Z</time></trkpt><trkpt lat="44.0925645" lon="10.9905257"><ele>542.0</ele><time>2026-05-02T13:29:20.751Z</time></trkpt><trkpt lat="44.0924809" lon="10.9903491"><ele>542.0</ele><time>2026-05-02T13:29:21.751Z</time></trkpt><trkpt lat="44.0923916" lon="10.990187"><ele>542.0</ele><time>2026-05-02T13:29:22.75Z</time></trkpt><trkpt lat="44.0923014" lon="10.9900272"><ele>542.0</ele><time>2026-05-02T13:29:23.752Z</time></trkpt><trkpt lat="44.0921987" lon="10.9898791"><ele>542.6666666666666</ele><time>2026-05-02T13:29:24.75Z</time></trkpt><trkpt lat="44.0920792" lon="10.9897524"><ele>543.3333333333334</ele><time>2026-05-02T13:29:25.753Z</time></trkpt><trkpt lat="44.0919443" lon="10.9896326"><ele>544.0</ele><time>2026-05-02T13:29:26.753Z</time></trkpt><trkpt lat="44.0918043" lon="10.9895326"><ele>544.0</ele><time>2026-05-02T13:29:27.748Z</time></trkpt><trkpt lat="44.0916549" lon="10.9894447"><ele>544.0</ele><time>2026-05-02T13:29:28.754Z</time></trkpt><trkpt lat="44.0914992" lon="10.9893812"><ele>544.0</ele><time>2026-05-02T13:29:29.754Z</time></trkpt><trkpt lat="44.0913464" lon="10.9893195"><ele>544.0</ele><time>2026-05-02T13:29:30.754Z</time></trkpt><trkpt lat="44.0911837" lon="10.9892651"><ele>544.0</ele><time>2026-05-02T13:29:31.747Z</time></trkpt><trkpt lat="44.0910167" lon="10.9892247"><ele>544.0</ele><time>2026-05-02T13:29:32.753Z</time></trkpt><trkpt lat="44.090842" lon="10.9892103"><ele>547.0</ele><time>2026-05-02T13:29:33.747Z</time></trkpt><trkpt lat="44.0906496" lon="10.9892426"><ele>550.0</ele><time>2026-05-02T13:29:34.749Z</time></trkpt><trkpt lat="44.0904706" lon="10.9892663"><ele>553.0</ele><time>2026-05-02T13:29:35.765Z</time></trkpt><trkpt lat="44.0902837" lon="10.9893275"><ele>553.0</ele><time>2026-05-02T13:29:36.746Z</time></trkpt><trkpt lat="44.0901019" lon="10.9893871"><ele>553.0</ele><time>2026-05-02T13:29:37.744Z</time></trkpt><trkpt lat="44.0899314" lon="10.9894586"><ele>553.0</ele><time>2026-05-02T13:29:38.742Z</time></trkpt><trkpt lat="44.0897676" lon="10.9894974"><ele>555.0</ele><time>2026-05-02T13:29:39.753Z</time></trkpt><trkpt lat="44.0896201" lon="10.9895297"><ele>557.0</ele><time>2026-05-02T13:29:40.749Z</time></trkpt><trkpt lat="44.0894645" lon="10.9895557"><ele>559.0</ele><time>2026-05-02T13:29:41.748Z</time></trkpt><trkpt lat="44.0893744" lon="10.989462"><ele>561.0</ele><time>2026-05-02T13:29:42.75Z</time></trkpt><trkpt lat="44.089278" lon="10.9893519"><ele>561.0</ele><time>2026-05-02T13:29:43.755Z</time></trkpt><trkpt lat="44.0891954" lon="10.9891976"><ele>561.0</ele><time>2026-05-02T13:29:44.753Z</time></trkpt><trkpt lat="44.0891046" lon="10.9890208"><ele>561.0</ele><time>2026-05-02T13:29:45.754Z</time></trkpt><trkpt lat="44.0890008" lon="10.9888724"><ele>561.0</ele><time>2026-05-02T13:29:46.755Z</time></trkpt><trkpt lat="44.0888674" lon="10.9887665"><ele>562.6666666666666</ele><time>2026-05-02T13:29:47.749Z</time></trkpt><trkpt lat="44.0887263" lon="10.9886829"><ele>564.3333333333333</ele><time>2026-05-02T13:29:48.753Z</time></trkpt><trkpt lat="44.0885674" lon="10.9886451"><ele>566.0</ele><time>2026-05-02T13:29:49.747Z</time></trkpt><trkpt lat="44.0883924" lon="10.9886217"><ele>567.0</ele><time>2026-05-02T13:29:50.751Z</time></trkpt><trkpt lat="44.0882092" lon="10.9886045"><ele>568.0</ele><time>2026-05-02T13:29:51.751Z</time></trkpt><trkpt lat="44.0880329" lon="10.9885794"><ele>569.0</ele><time>2026-05-02T13:29:52.757Z</time></trkpt><trkpt lat="44.0878568" lon="10.9885624"><ele>569.0</ele><time>2026-05-02T13:29:53.755Z</time></trkpt><trkpt lat="44.0876855" lon="10.9885434"><ele>569.0</ele><time>2026-05-02T13:29:54.748Z</time></trkpt><trkpt lat="44.0875273" lon="10.9885108"><ele>569.0</ele><time>2026-05-02T13:29:55.749Z</time></trkpt><trkpt lat="44.087383" lon="10.9884241"><ele>569.3333333333333</ele><time>2026-05-02T13:29:56.751Z</time></trkpt><trkpt lat="44.0872569" lon="10.9883175"><ele>569.6666666666666</ele><time>2026-05-02T13:29:57.748Z</time></trkpt><trkpt lat="44.0871474" lon="10.9881623"><ele>570.0</ele><time>2026-05-02T13:29:58.749Z</time></trkpt><trkpt lat="44.0870655" lon="10.9879719"><ele>570.0</ele><time>2026-05-02T13:29:59.751Z</time></trkpt><trkpt lat="44.0870098" lon="10.9877478"><ele>570.0</ele><time>2026-05-02T13:30:00.755Z</time></trkpt><trkpt lat="44.0869494" lon="10.9875217"><ele>570.0</ele><time>2026-05-02T13:30:01.746Z</time></trkpt><trkpt lat="44.0868686" lon="10.9873199"><ele>567.6666666666666</ele><time>2026-05-02T13:30:02.75Z</time></trkpt><trkpt lat="44.0867407" lon="10.9871521"><ele>565.3333333333333</ele><time>2026-05-02T13:30:03.747Z</time></trkpt><trkpt lat="44.0866117" lon="10.9869974"><ele>563.0</ele><time>2026-05-02T13:30:04.753Z</time></trkpt><trkpt lat="44.0864675" lon="10.9868581"><ele>564.0</ele><time>2026-05-02T13:30:05.749Z</time></trkpt><trkpt lat="44.0863247" lon="10.9867226"><ele>565.0</ele><time>2026-05-02T13:30:06.752Z</time></trkpt><trkpt lat="44.0861886" lon="10.9865781"><ele>566.0</ele><time>2026-05-02T13:30:07.75Z</time></trkpt><trkpt lat="44.0860706" lon="10.9864346"><ele>566.0</ele><time>2026-05-02T13:30:08.746Z</time></trkpt><trkpt lat="44.0859502" lon="10.9863039"><ele>566.0</ele><time>2026-05-02T13:30:09.748Z</time></trkpt><trkpt lat="44.0858463" lon="10.9861951"><ele>566.0</ele><time>2026-05-02T13:30:10.745Z</time></trkpt><trkpt lat="44.0857521" lon="10.9861009"><ele>566.0</ele><time>2026-05-02T13:30:11.751Z</time></trkpt><trkpt lat="44.0856473" lon="10.986057"><ele>569.25</ele><time>2026-05-02T13:30:12.746Z</time></trkpt><trkpt lat="44.0855399" lon="10.9860462"><ele>572.5</ele><time>2026-05-02T13:30:13.745Z</time></trkpt><trkpt lat="44.0854217" lon="10.9861506"><ele>575.75</ele><time>2026-05-02T13:30:14.747Z</time></trkpt><trkpt lat="44.0853266" lon="10.9862671"><ele>579.0</ele><time>2026-05-02T13:30:15.745Z</time></trkpt><trkpt lat="44.0852445" lon="10.9864214"><ele>579.0</ele><time>2026-05-02T13:30:16.753Z</time></trkpt><trkpt lat="44.0851603" lon="10.9865862"><ele>579.0</ele><time>2026-05-02T13:30:17.75Z</time></trkpt><trkpt lat="44.0850805" lon="10.9867397"><ele>579.0</ele><time>2026-05-02T13:30:18.753Z</time></trkpt><trkpt lat="44.0850035" lon="10.9868755"><ele>579.0</ele><time>2026-05-02T13:30:19.734Z</time></trkpt><trkpt lat="44.0849149" lon="10.98699"><ele>582.25</ele><time>2026-05-02T13:30:20.751Z</time></trkpt><trkpt lat="44.0847907" lon="10.9870871"><ele>585.5</ele><time>2026-05-02T13:30:21.745Z</time></trkpt><trkpt lat="44.0846794" lon="10.9871296"><ele>588.75</ele><time>2026-05-02T13:30:22.756Z</time></trkpt><trkpt lat="44.0845225" lon="10.9871366"><ele>592.0</ele><time>2026-05-02T13:30:23.75Z</time></trkpt><trkpt lat="44.0843794" lon="10.9871073"><ele>592.0</ele><time>2026-05-02T13:30:24.752Z</time></trkpt><trkpt lat="44.0842022" lon="10.987032"><ele>592.0</ele><time>2026-05-02T13:30:25.745Z</time></trkpt><trkpt lat="44.0840831" lon="10.9867027"><ele>593.3333333333334</ele><time>2026-05-02T13:30:26.749Z</time></trkpt><trkpt lat="44.083946" lon="10.98646"><ele>594.6666666666666</ele><time>2026-05-02T13:30:27.75Z</time></trkpt><trkpt lat="44.0838347" lon="10.9863044"><ele>596.0</ele><time>2026-05-02T13:30:28.746Z</time></trkpt><trkpt lat="44.0837563" lon="10.9860909"><ele>596.0</ele><time>2026-05-02T13:30:29.748Z</time></trkpt><trkpt lat="44.0836902" lon="10.9859214"><ele>596.0</ele><time>2026-05-02T13:30:30.752Z</time></trkpt><trkpt lat="44.0836041" lon="10.9857914"><ele>596.0</ele><time>2026-05-02T13:30:31.748Z</time></trkpt><trkpt lat="44.0835032" lon="10.9857223"><ele>596.0</ele><time>2026-05-02T13:30:32.749Z</time></trkpt><trkpt lat="44.0834" lon="10.9856635"><ele>595.6666666666666</ele><time>2026-05-02T13:30:33.757Z</time></trkpt><trkpt lat="44.0832651" lon="10.9856578"><ele>595.3333333333334</ele><time>2026-05-02T13:30:34.748Z</time></trkpt><trkpt lat="44.0830885" lon="10.9857869"><ele>595.0</ele><time>2026-05-02T13:30:35.75Z</time></trkpt><trkpt lat="44.0829465" lon="10.9858343"><ele>595.5</ele><time>2026-05-02T13:30:36.749Z</time></trkpt><trkpt lat="44.0828134" lon="10.9858756"><ele>596.0</ele><time>2026-05-02T13:30:37.75Z</time></trkpt><trkpt lat="44.0826808" lon="10.985897"><ele>596.5</ele><time>2026-05-02T13:30:38.749Z</time></trkpt><trkpt lat="44.0825457" lon="10.9859022"><ele>597.0</ele><time>2026-05-02T13:30:39.752Z</time></trkpt><trkpt lat="44.0823991" lon="10.9859044"><ele>597.0</ele><time>2026-05-02T13:30:40.754Z</time></trkpt><trkpt lat="44.0822617" lon="10.9859005"><ele>597.0</ele><time>2026-05-02T13:30:41.764Z</time></trkpt><trkpt lat="44.0821199" lon="10.9859141"><ele>597.0</ele><time>2026-05-02T13:30:42.746Z</time></trkpt><trkpt lat="44.0819817" lon="10.9859318"><ele>597.0</ele><time>2026-05-02T13:30:43.753Z</time></trkpt><trkpt lat="44.0818492" lon="10.9859286"><ele>597.0</ele><time>2026-05-02T13:30:44.751Z</time></trkpt><trkpt lat="44.0817277" lon="10.9859322"><ele>597.0</ele><time>2026-05-02T13:30:45.751Z</time></trkpt><trkpt lat="44.0816168" lon="10.985944"><ele>597.0</ele><time>2026-05-02T13:30:46.75Z</time></trkpt><trkpt lat="44.0815132" lon="10.9859282"><ele>597.0</ele><time>2026-05-02T13:30:47.747Z</time></trkpt><trkpt lat="44.0814154" lon="10.9858903"><ele>597.0</ele><time>2026-05-02T13:30:48.752Z</time></trkpt><trkpt lat="44.0813347" lon="10.9858158"><ele>595.8000000000001</ele><time>2026-05-02T13:30:49.749Z</time></trkpt><trkpt lat="44.0812595" lon="10.9857016"><ele>594.6</ele><time>2026-05-02T13:30:50.752Z</time></trkpt><trkpt lat="44.0811797" lon="10.9855857"><ele>593.4000000000001</ele><time>2026-05-02T13:30:51.744Z</time></trkpt><trkpt lat="44.0810935" lon="10.9854754"><ele>592.2</ele><time>2026-05-02T13:30:52.748Z</time></trkpt><trkpt lat="44.0810216" lon="10.98537"><ele>591.0</ele><time>2026-05-02T13:30:53.741Z</time></trkpt><trkpt lat="44.0809495" lon="10.9852637"><ele>591.0</ele><time>2026-05-02T13:30:54.749Z</time></trkpt><trkpt lat="44.0808658" lon="10.9851782"><ele>591.0</ele><time>2026-05-02T13:30:55.752Z</time></trkpt><trkpt lat="44.0807745" lon="10.9851048"><ele>591.0</ele><time>2026-05-02T13:30:56.759Z</time></trkpt><trkpt lat="44.0806673" lon="10.9850531"><ele>591.0</ele><time>2026-05-02T13:30:57.752Z</time></trkpt><trkpt lat="44.0805646" lon="10.9850162"><ele>591.0</ele><time>2026-05-02T13:30:58.756Z</time></trkpt><trkpt lat="44.0804526" lon="10.9850249"><ele>594.6</ele><time>2026-05-02T13:30:59.754Z</time></trkpt><trkpt lat="44.0803365" lon="10.9850433"><ele>598.2</ele><time>2026-05-02T13:31:00.751Z</time></trkpt><trkpt lat="44.080237" lon="10.9850523"><ele>601.8</ele><time>2026-05-02T13:31:01.749Z</time></trkpt><trkpt lat="44.0801334" lon="10.9850582"><ele>605.4</ele><time>2026-05-02T13:31:02.748Z</time></trkpt><trkpt lat="44.0800124" lon="10.9850914"><ele>609.0</ele><time>2026-05-02T13:31:03.749Z</time></trkpt><trkpt lat="44.0798903" lon="10.9851123"><ele>610.0</ele><time>2026-05-02T13:31:04.745Z</time></trkpt><trkpt lat="44.0797644" lon="10.9851267"><ele>611.0</ele><time>2026-05-02T13:31:05.746Z</time></trkpt><trkpt lat="44.0796422" lon="10.9851463"><ele>612.0</ele><time>2026-05-02T13:31:06.748Z</time></trkpt><trkpt lat="44.0795132" lon="10.985138"><ele>613.0</ele><time>2026-05-02T13:31:07.75Z</time></trkpt><trkpt lat="44.0793788" lon="10.9851113"><ele>613.0</ele><time>2026-05-02T13:31:08.752Z</time></trkpt><trkpt lat="44.0792401" lon="10.9850655"><ele>613.0</ele><time>2026-05-02T13:31:09.746Z</time></trkpt><trkpt lat="44.0791077" lon="10.9850183"><ele>613.0</ele><time>2026-05-02T13:31:10.751Z</time></trkpt><trkpt lat="44.0789664" lon="10.9849576"><ele>613.0</ele><time>2026-05-02T13:31:11.748Z</time></trkpt><trkpt lat="44.0788279" lon="10.9849178"><ele>612.0</ele><time>2026-05-02T13:31:12.746Z</time></trkpt><trkpt lat="44.0786784" lon="10.9848785"><ele>611.0</ele><time>2026-05-02T13:31:13.75Z</time></trkpt><trkpt lat="44.0785117" lon="10.9848791"><ele>610.0</ele><time>2026-05-02T13:31:14.744Z</time></trkpt><trkpt lat="44.078354" lon="10.984899"><ele>609.0</ele><time>2026-05-02T13:31:15.755Z</time></trkpt><trkpt lat="44.0782102" lon="10.9849398"><ele>608.0</ele><time>2026-05-02T13:31:16.745Z</time></trkpt><trkpt lat="44.078108" lon="10.984975"><ele>607.0</ele><time>2026-05-02T13:31:17.754Z</time></trkpt><trkpt lat="44.0779925" lon="10.9850755"><ele>606.0</ele><time>2026-05-02T13:31:18.745Z</time></trkpt><trkpt lat="44.0778707" lon="10.9851519"><ele>606.0</ele><time>2026-05-02T13:31:19.749Z</time></trkpt><trkpt lat="44.0777441" lon="10.9852051"><ele>606.0</ele><time>2026-05-02T13:31:20.748Z</time></trkpt><trkpt lat="44.0776132" lon="10.9852702"><ele>606.0</ele><time>2026-05-02T13:31:21.746Z</time></trkpt><trkpt lat="44.077431" lon="10.9852602"><ele>608.0</ele><time>2026-05-02T13:31:22.746Z</time></trkpt><trkpt lat="44.077312" lon="10.9852707"><ele>610.0</ele><time>2026-05-02T13:31:23.747Z</time></trkpt><trkpt lat="44.077182" lon="10.9852949"><ele>612.0</ele><time>2026-05-02T13:31:24.751Z</time></trkpt><trkpt lat="44.077061" lon="10.9853101"><ele>614.0</ele><time>2026-05-02T13:31:25.745Z</time></trkpt><trkpt lat="44.0769481" lon="10.9853091"><ele>614.0</ele><time>2026-05-02T13:31:26.75Z</time></trkpt><trkpt lat="44.0768506" lon="10.9852903"><ele>614.0</ele><time>2026-05-02T13:31:27.752Z</time></trkpt><trkpt lat="44.0767587" lon="10.985259"><ele>614.0</ele><time>2026-05-02T13:31:28.746Z</time></trkpt><trkpt lat="44.0766732" lon="10.9852342"><ele>614.0</ele><time>2026-05-02T13:31:29.748Z</time></trkpt><trkpt lat="44.076582" lon="10.9851836"><ele>614.0</ele><time>2026-05-02T13:31:30.751Z</time></trkpt><trkpt lat="44.0764762" lon="10.9851099"><ele>623.0</ele><time>2026-05-02T13:31:31.751Z</time></trkpt><trkpt lat="44.076388" lon="10.9849407"><ele>632.0</ele><time>2026-05-02T13:31:32.747Z</time></trkpt><trkpt lat="44.0762892" lon="10.9848334"><ele>641.0</ele><time>2026-05-02T13:31:33.749Z</time></trkpt><trkpt lat="44.0761738" lon="10.9846463"><ele>629.0</ele><time>2026-05-02T13:31:34.754Z</time></trkpt><trkpt lat="44.0761763" lon="10.9841112"><ele>617.0</ele><time>2026-05-02T13:31:35.748Z</time></trkpt><trkpt lat="44.076123" lon="10.9838114"><ele>617.0</ele><time>2026-05-02T13:31:36.75Z</time></trkpt><trkpt lat="44.0760435" lon="10.9835638"><ele>617.0</ele><time>2026-05-02T13:31:37.749Z</time></trkpt><trkpt lat="44.0759476" lon="10.983366"><ele>617.0</ele><time>2026-05-02T13:31:38.744Z</time></trkpt><trkpt lat="44.0758411" lon="10.9831702"><ele>620.3333333333333</ele><time>2026-05-02T13:31:39.749Z</time></trkpt><trkpt lat="44.0756962" lon="10.9830279"><ele>623.6666666666666</ele><time>2026-05-02T13:31:40.747Z</time></trkpt><trkpt lat="44.0755594" lon="10.9828799"><ele>627.0</ele><time>2026-05-02T13:31:41.747Z</time></trkpt><trkpt lat="44.0753493" lon="10.9828446"><ele>627.0</ele><time>2026-05-02T13:31:42.757Z</time></trkpt><trkpt lat="44.0751626" lon="10.9827758"><ele>627.0</ele><time>2026-05-02T13:31:43.757Z</time></trkpt><trkpt lat="44.0749975" lon="10.982658"><ele>627.0</ele><time>2026-05-02T13:31:44.745Z</time></trkpt><trkpt lat="44.0748373" lon="10.9825356"><ele>627.0</ele><time>2026-05-02T13:31:45.756Z</time></trkpt><trkpt lat="44.0747085" lon="10.9824139"><ele>627.0</ele><time>2026-05-02T13:31:46.747Z</time></trkpt><trkpt lat="44.0745905" lon="10.9822697"><ele>627.0</ele><time>2026-05-02T13:31:47.751Z</time></trkpt><trkpt lat="44.0744932" lon="10.9820467"><ele>627.0</ele><time>2026-05-02T13:31:48.751Z</time></trkpt><trkpt lat="44.0743897" lon="10.981845"><ele>627.0</ele><time>2026-05-02T13:31:49.745Z</time></trkpt><trkpt lat="44.0742901" lon="10.9816307"><ele>627.0</ele><time>2026-05-02T13:31:50.751Z</time></trkpt><trkpt lat="44.07419" lon="10.9814369"><ele>626.75</ele><time>2026-05-02T13:31:51.75Z</time></trkpt><trkpt lat="44.0741053" lon="10.9812677"><ele>626.5</ele><time>2026-05-02T13:31:52.746Z</time></trkpt><trkpt lat="44.0740203" lon="10.9811303"><ele>626.25</ele><time>2026-05-02T13:31:53.748Z</time></trkpt><trkpt lat="44.0740093" lon="10.9809728"><ele>626.0</ele><time>2026-05-02T13:31:54.746Z</time></trkpt><trkpt lat="44.0739915" lon="10.9808079"><ele>626.0</ele><time>2026-05-02T13:31:55.748Z</time></trkpt><trkpt lat="44.0740496" lon="10.9805733"><ele>626.0</ele><time>2026-05-02T13:31:56.757Z</time></trkpt><trkpt lat="44.0740326" lon="10.9803885"><ele>626.0</ele><time>2026-05-02T13:31:57.745Z</time></trkpt><trkpt lat="44.0739947" lon="10.9802045"><ele>626.0</ele><time>2026-05-02T13:31:58.748Z</time></trkpt><trkpt lat="44.0739132" lon="10.9800352"><ele>626.0</ele><time>2026-05-02T13:31:59.75Z</time></trkpt><trkpt lat="44.0738171" lon="10.9798942"><ele>626.0</ele><time>2026-05-02T13:32:00.746Z</time></trkpt><trkpt lat="44.0736808" lon="10.9798095"><ele>626.0</ele><time>2026-05-02T13:32:01.747Z</time></trkpt><trkpt lat="44.0735347" lon="10.9797531"><ele>627.0</ele><time>2026-05-02T13:32:02.746Z</time></trkpt><trkpt lat="44.0733595" lon="10.9797171"><ele>628.0</ele><time>2026-05-02T13:32:03.748Z</time></trkpt><trkpt lat="44.0731687" lon="10.9796841"><ele>629.0</ele><time>2026-05-02T13:32:04.749Z</time></trkpt><trkpt lat="44.0729835" lon="10.9796336"><ele>629.0</ele><time>2026-05-02T13:32:05.758Z</time></trkpt><trkpt lat="44.0728393" lon="10.9795368"><ele>629.0</ele><time>2026-05-02T13:32:06.77Z</time></trkpt><trkpt lat="44.0727081" lon="10.9794468"><ele>629.0</ele><time>2026-05-02T13:32:07.754Z</time></trkpt><trkpt lat="44.0725827" lon="10.9793704"><ele>629.0</ele><time>2026-05-02T13:32:08.748Z</time></trkpt><trkpt lat="44.0724474" lon="10.9792673"><ele>631.0</ele><time>2026-05-02T13:32:09.745Z</time></trkpt><trkpt lat="44.0723439" lon="10.9791047"><ele>633.0</ele><time>2026-05-02T13:32:10.749Z</time></trkpt><trkpt lat="44.0722819" lon="10.9788291"><ele>635.0</ele><time>2026-05-02T13:32:11.748Z</time></trkpt><trkpt lat="44.0721894" lon="10.9786278"><ele>635.0</ele><time>2026-05-02T13:32:12.758Z</time></trkpt><trkpt lat="44.0720811" lon="10.9784529"><ele>635.0</ele><time>2026-05-02T13:32:13.746Z</time></trkpt><trkpt lat="44.072" lon="10.9782739"><ele>635.0</ele><time>2026-05-02T13:32:14.747Z</time></trkpt><trkpt lat="44.0719175" lon="10.9781091"><ele>633.0</ele><time>2026-05-02T13:32:15.746Z</time></trkpt><trkpt lat="44.0718416" lon="10.9779552"><ele>631.0</ele><time>2026-05-02T13:32:16.752Z</time></trkpt><trkpt lat="44.071768" lon="10.9778181"><ele>629.0</ele><time>2026-05-02T13:32:17.752Z</time></trkpt><trkpt lat="44.0716792" lon="10.9776913"><ele>627.0</ele><time>2026-05-02T13:32:18.748Z</time></trkpt><trkpt lat="44.0715984" lon="10.9775374"><ele>628.75</ele><time>2026-05-02T13:32:19.748Z</time></trkpt><trkpt lat="44.071495" lon="10.9774176"><ele>630.5</ele><time>2026-05-02T13:32:20.744Z</time></trkpt><trkpt lat="44.0714034" lon="10.9772973"><ele>632.25</ele><time>2026-05-02T13:32:21.749Z</time></trkpt><trkpt lat="44.071317" lon="10.9771893"><ele>634.0</ele><time>2026-05-02T13:32:22.75Z</time></trkpt><trkpt lat="44.0712459" lon="10.9770807"><ele>634.0</ele><time>2026-05-02T13:32:23.745Z</time></trkpt><trkpt lat="44.0711865" lon="10.9769715"><ele>634.0</ele><time>2026-05-02T13:32:24.741Z</time></trkpt><trkpt lat="44.0711308" lon="10.9768804"><ele>634.0</ele><time>2026-05-02T13:32:25.75Z</time></trkpt><trkpt lat="44.0710989" lon="10.9767579"><ele>634.0</ele><time>2026-05-02T13:32:26.746Z</time></trkpt><trkpt lat="44.0710761" lon="10.9766237"><ele>634.0</ele><time>2026-05-02T13:32:27.748Z</time></trkpt><trkpt lat="44.0710511" lon="10.9764887"><ele>633.4</ele><time>2026-05-02T13:32:28.753Z</time></trkpt><trkpt lat="44.0710322" lon="10.9763555"><ele>632.8</ele><time>2026-05-02T13:32:29.75Z</time></trkpt><trkpt lat="44.0709935" lon="10.9762375"><ele>632.2</ele><time>2026-05-02T13:32:30.748Z</time></trkpt><trkpt lat="44.0709389" lon="10.9761256"><ele>631.6</ele><time>2026-05-02T13:32:31.749Z</time></trkpt><trkpt lat="44.0708593" lon="10.9760369"><ele>631.0</ele><time>2026-05-02T13:32:32.761Z</time></trkpt><trkpt lat="44.0707613" lon="10.9759224"><ele>632.3333333333334</ele><time>2026-05-02T13:32:33.747Z</time></trkpt><trkpt lat="44.0706371" lon="10.9757927"><ele>633.6666666666666</ele><time>2026-05-02T13:32:34.746Z</time></trkpt><trkpt lat="44.0705026" lon="10.9756546"><ele>635.0</ele><time>2026-05-02T13:32:35.745Z</time></trkpt><trkpt lat="44.0703628" lon="10.975503"><ele>635.0</ele><time>2026-05-02T13:32:36.75Z</time></trkpt><trkpt lat="44.0702237" lon="10.9753508"><ele>635.0</ele><time>2026-05-02T13:32:37.753Z</time></trkpt><trkpt lat="44.0700961" lon="10.975197"><ele>635.0</ele><time>2026-05-02T13:32:38.747Z</time></trkpt><trkpt lat="44.0699754" lon="10.9750576"><ele>640.6666666666666</ele><time>2026-05-02T13:32:39.748Z</time></trkpt><trkpt lat="44.06986" lon="10.9749125"><ele>646.3333333333334</ele><time>2026-05-02T13:32:40.748Z</time></trkpt><trkpt lat="44.0697461" lon="10.9747702"><ele>652.0</ele><time>2026-05-02T13:32:41.748Z</time></trkpt><trkpt lat="44.069636" lon="10.9746466"><ele>652.0</ele><time>2026-05-02T13:32:42.75Z</time></trkpt><trkpt lat="44.0695447" lon="10.9745148"><ele>652.0</ele><time>2026-05-02T13:32:43.75Z</time></trkpt><trkpt lat="44.0694539" lon="10.9743855"><ele>652.0</ele><time>2026-05-02T13:32:44.749Z</time></trkpt><trkpt lat="44.0693725" lon="10.9742361"><ele>652.0</ele><time>2026-05-02T13:32:45.745Z</time></trkpt><trkpt lat="44.0692838" lon="10.9740926"><ele>654.0</ele><time>2026-05-02T13:32:46.745Z</time></trkpt><trkpt lat="44.069204" lon="10.9739569"><ele>656.0</ele><time>2026-05-02T13:32:47.749Z</time></trkpt><trkpt lat="44.0691226" lon="10.9738352"><ele>658.0</ele><time>2026-05-02T13:32:48.745Z</time></trkpt><trkpt lat="44.0690519" lon="10.9737083"><ele>660.0</ele><time>2026-05-02T13:32:49.756Z</time></trkpt><trkpt lat="44.0689694" lon="10.9735851"><ele>660.0</ele><time>2026-05-02T13:32:50.753Z</time></trkpt><trkpt lat="44.0688961" lon="10.9734543"><ele>660.0</ele><time>2026-05-02T13:32:51.752Z</time></trkpt><trkpt lat="44.06882" lon="10.9733283"><ele>660.0</ele><time>2026-05-02T13:32:52.754Z</time></trkpt><trkpt lat="44.0687204" lon="10.9732517"><ele>660.0</ele><time>2026-05-02T13:32:53.746Z</time></trkpt><trkpt lat="44.0685958" lon="10.9731925"><ele>656.8</ele><time>2026-05-02T13:32:54.747Z</time></trkpt><trkpt lat="44.0684729" lon="10.9731418"><ele>653.6</ele><time>2026-05-02T13:32:55.749Z</time></trkpt><trkpt lat="44.0683707" lon="10.9730745"><ele>650.4000000000001</ele><time>2026-05-02T13:32:56.75Z</time></trkpt><trkpt lat="44.0682791" lon="10.9730035"><ele>647.2</ele><time>2026-05-02T13:32:57.753Z</time></trkpt><trkpt lat="44.0681943" lon="10.9729402"><ele>644.0</ele><time>2026-05-02T13:32:58.749Z</time></trkpt><trkpt lat="44.0681059" lon="10.9728973"><ele>644.0</ele><time>2026-05-02T13:32:59.755Z</time></trkpt><trkpt lat="44.0680149" lon="10.9728758"><ele>644.0</ele><time>2026-05-02T13:33:00.746Z</time></trkpt><trkpt lat="44.0679188" lon="10.9728864"><ele>644.0</ele><time>2026-05-02T13:33:01.75Z</time></trkpt><trkpt lat="44.0678185" lon="10.9729026"><ele>644.0</ele><time>2026-05-02T13:33:02.748Z</time></trkpt><trkpt lat="44.067732" lon="10.9729249"><ele>644.0</ele><time>2026-05-02T13:33:03.746Z</time></trkpt><trkpt lat="44.0676418" lon="10.97295"><ele>644.0</ele><time>2026-05-02T13:33:04.746Z</time></trkpt><trkpt lat="44.0675507" lon="10.972973"><ele>644.0</ele><time>2026-05-02T13:33:05.743Z</time></trkpt><trkpt lat="44.0674547" lon="10.9730063"><ele>644.0</ele><time>2026-05-02T13:33:06.752Z</time></trkpt><trkpt lat="44.0673636" lon="10.9730312"><ele>644.0</ele><time>2026-05-02T13:33:07.746Z</time></trkpt><trkpt lat="44.0672719" lon="10.9730563"><ele>644.0</ele><time>2026-05-02T13:33:08.748Z</time></trkpt><trkpt lat="44.0671739" lon="10.9730435"><ele>647.0</ele><time>2026-05-02T13:33:09.747Z</time></trkpt><trkpt lat="44.06706" lon="10.9730095"><ele>650.0</ele><time>2026-05-02T13:33:10.744Z</time></trkpt><trkpt lat="44.0669491" lon="10.9729801"><ele>653.0</ele><time>2026-05-02T13:33:11.743Z</time></trkpt><trkpt lat="44.0668385" lon="10.9729367"><ele>656.0</ele><time>2026-05-02T13:33:12.743Z</time></trkpt><trkpt lat="44.0667472" lon="10.9728796"><ele>659.0</ele><time>2026-05-02T13:33:13.744Z</time></trkpt><trkpt lat="44.066654" lon="10.9728108"><ele>659.0</ele><time>2026-05-02T13:33:14.743Z</time></trkpt><trkpt lat="44.0665392" lon="10.9727445"><ele>659.0</ele><time>2026-05-02T13:33:15.746Z</time></trkpt><trkpt lat="44.0664445" lon="10.9726701"><ele>659.0</ele><time>2026-05-02T13:33:16.748Z</time></trkpt><trkpt lat="44.0663455" lon="10.9725984"><ele>659.0</ele><time>2026-05-02T13:33:17.74Z</time></trkpt><trkpt lat="44.0662674" lon="10.972494"><ele>659.0</ele><time>2026-05-02T13:33:18.753Z</time></trkpt><trkpt lat="44.0662002" lon="10.9723771"><ele>659.0</ele><time>2026-05-02T13:33:19.747Z</time></trkpt><trkpt lat="44.0661192" lon="10.9722485"><ele>659.0</ele><time>2026-05-02T13:33:20.744Z</time></trkpt><trkpt lat="44.0660799" lon="10.9720904"><ele>659.0</ele><time>2026-05-02T13:33:21.747Z</time></trkpt><trkpt lat="44.0660169" lon="10.9719491"><ele>659.0</ele><time>2026-05-02T13:33:22.745Z</time></trkpt><trkpt lat="44.0659488" lon="10.9718226"><ele>659.0</ele><time>2026-05-02T13:33:23.736Z</time></trkpt><trkpt lat="44.0658998" lon="10.9716467"><ele>659.0</ele><time>2026-05-02T13:33:24.747Z</time></trkpt><trkpt lat="44.065851" lon="10.9714816"><ele>659.0</ele><time>2026-05-02T13:33:25.751Z</time></trkpt><trkpt lat="44.0657892" lon="10.9713356"><ele>659.75</ele><time>2026-05-02T13:33:26.748Z</time></trkpt><trkpt lat="44.0657272" lon="10.9711928"><ele>660.5</ele><time>2026-05-02T13:33:27.747Z</time></trkpt><trkpt lat="44.065662" lon="10.9710562"><ele>661.25</ele><time>2026-05-02T13:33:28.745Z</time></trkpt><trkpt lat="44.0656092" lon="10.9709163"><ele>662.0</ele><time>2026-05-02T13:33:29.744Z</time></trkpt><trkpt lat="44.0655411" lon="10.9707873"><ele>662.0</ele><time>2026-05-02T13:33:30.75Z</time></trkpt><trkpt lat="44.06546" lon="10.9706662"><ele>662.0</ele><time>2026-05-02T13:33:31.752Z</time></trkpt><trkpt lat="44.0653734" lon="10.9705521"><ele>662.0</ele><time>2026-05-02T13:33:32.751Z</time></trkpt><trkpt lat="44.0652738" lon="10.9704514"><ele>662.0</ele><time>2026-05-02T13:33:33.76Z</time></trkpt><trkpt lat="44.065173" lon="10.9703591"><ele>662.0</ele><time>2026-05-02T13:33:34.75Z</time></trkpt><trkpt lat="44.06506" lon="10.9702727"><ele>662.0</ele><time>2026-05-02T13:33:35.749Z</time></trkpt><trkpt lat="44.0649324" lon="10.9701938"><ele>662.0</ele><time>2026-05-02T13:33:36.745Z</time></trkpt><trkpt lat="44.064802" lon="10.9701223"><ele>662.0</ele><time>2026-05-02T13:33:37.753Z</time></trkpt><trkpt lat="44.0646489" lon="10.9700476"><ele>661.0</ele><time>2026-05-02T13:33:38.76Z</time></trkpt><trkpt lat="44.0644751" lon="10.9699772"><ele>660.0</ele><time>2026-05-02T13:33:39.748Z</time></trkpt><trkpt lat="44.0642894" lon="10.9699214"><ele>659.0</ele><time>2026-05-02T13:33:40.751Z</time></trkpt><trkpt lat="44.0641203" lon="10.9698844"><ele>661.0</ele><time>2026-05-02T13:33:41.75Z</time></trkpt><trkpt lat="44.0639712" lon="10.969835"><ele>663.0</ele><time>2026-05-02T13:33:42.746Z</time></trkpt><trkpt lat="44.0638273" lon="10.9697934"><ele>665.0</ele><time>2026-05-02T13:33:43.745Z</time></trkpt><trkpt lat="44.0636919" lon="10.969735"><ele>667.0</ele><time>2026-05-02T13:33:44.745Z</time></trkpt><trkpt lat="44.0635848" lon="10.9696449"><ele>667.0</ele><time>2026-05-02T13:33:45.75Z</time></trkpt><trkpt lat="44.0634827" lon="10.9695607"><ele>667.0</ele><time>2026-05-02T13:33:46.76Z</time></trkpt><trkpt lat="44.0634049" lon="10.9694216"><ele>667.0</ele><time>2026-05-02T13:33:47.748Z</time></trkpt><trkpt lat="44.0633107" lon="10.9692727"><ele>667.0</ele><time>2026-05-02T13:33:48.748Z</time></trkpt><trkpt lat="44.0632156" lon="10.9691196"><ele>670.3333333333334</ele><time>2026-05-02T13:33:49.75Z</time></trkpt><trkpt lat="44.0631193" lon="10.9689609"><ele>673.6666666666666</ele><time>2026-05-02T13:33:50.745Z</time></trkpt><trkpt lat="44.0630168" lon="10.968801"><ele>677.0</ele><time>2026-05-02T13:33:51.753Z</time></trkpt><trkpt lat="44.0629123" lon="10.9686472"><ele>677.0</ele><time>2026-05-02T13:33:52.754Z</time></trkpt><trkpt lat="44.0628209" lon="10.9684958"><ele>677.0</ele><time>2026-05-02T13:33:53.751Z</time></trkpt><trkpt lat="44.0627312" lon="10.9683362"><ele>677.0</ele><time>2026-05-02T13:33:54.749Z</time></trkpt><trkpt lat="44.0626387" lon="10.9681679"><ele>677.0</ele><time>2026-05-02T13:33:55.744Z</time></trkpt><trkpt lat="44.0625447" lon="10.9679979"><ele>673.3333333333333</ele><time>2026-05-02T13:33:56.746Z</time></trkpt><trkpt lat="44.0624566" lon="10.9678098"><ele>669.6666666666666</ele><time>2026-05-02T13:33:57.745Z</time></trkpt><trkpt lat="44.0623618" lon="10.9676245"><ele>666.0</ele><time>2026-05-02T13:33:58.749Z</time></trkpt><trkpt lat="44.0622672" lon="10.9674357"><ele>674.6666666666666</ele><time>2026-05-02T13:33:59.749Z</time></trkpt><trkpt lat="44.0621731" lon="10.967246"><ele>683.3333333333333</ele><time>2026-05-02T13:34:00.745Z</time></trkpt><trkpt lat="44.0620831" lon="10.9670474"><ele>692.0</ele><time>2026-05-02T13:34:01.744Z</time></trkpt><trkpt lat="44.0619854" lon="10.9668457"><ele>685.6666666666666</ele><time>2026-05-02T13:34:02.753Z</time></trkpt><trkpt lat="44.0618881" lon="10.9666369"><ele>679.3333333333334</ele><time>2026-05-02T13:34:03.752Z</time></trkpt><trkpt lat="44.061786" lon="10.9664291"><ele>673.0</ele><time>2026-05-02T13:34:04.757Z</time></trkpt><trkpt lat="44.0616791" lon="10.966238"><ele>682.3333333333334</ele><time>2026-05-02T13:34:05.75Z</time></trkpt><trkpt lat="44.0615715" lon="10.9660463"><ele>691.6666666666666</ele><time>2026-05-02T13:34:06.753Z</time></trkpt><trkpt lat="44.061468" lon="10.9658583"><ele>701.0</ele><time>2026-05-02T13:34:07.752Z</time></trkpt><trkpt lat="44.0613537" lon="10.9656875"><ele>701.0</ele><time>2026-05-02T13:34:08.749Z</time></trkpt><trkpt lat="44.0612106" lon="10.9655617"><ele>701.0</ele><time>2026-05-02T13:34:09.746Z</time></trkpt><trkpt lat="44.061088" lon="10.9653973"><ele>701.0</ele><time>2026-05-02T13:34:10.749Z</time></trkpt><trkpt lat="44.0609585" lon="10.9652282"><ele>701.0</ele><time>2026-05-02T13:34:11.751Z</time></trkpt><trkpt lat="44.0608178" lon="10.9650417"><ele>701.0</ele><time>2026-05-02T13:34:12.752Z</time></trkpt><trkpt lat="44.0607148" lon="10.9648249"><ele>701.0</ele><time>2026-05-02T13:34:13.749Z</time></trkpt><trkpt lat="44.0606076" lon="10.9646062"><ele>703.3333333333333</ele><time>2026-05-02T13:34:14.751Z</time></trkpt><trkpt lat="44.0604858" lon="10.9644068"><ele>705.6666666666666</ele><time>2026-05-02T13:34:15.759Z</time></trkpt><trkpt lat="44.0604193" lon="10.9641509"><ele>708.0</ele><time>2026-05-02T13:34:16.747Z</time></trkpt><trkpt lat="44.0603466" lon="10.9639292"><ele>708.0</ele><time>2026-05-02T13:34:17.75Z</time></trkpt><trkpt lat="44.0602686" lon="10.9637176"><ele>708.0</ele><time>2026-05-02T13:34:18.749Z</time></trkpt><trkpt lat="44.060222" lon="10.9635365"><ele>708.0</ele><time>2026-05-02T13:34:19.746Z</time></trkpt><trkpt lat="44.0601728" lon="10.9633704"><ele>708.0</ele><time>2026-05-02T13:34:20.747Z</time></trkpt><trkpt lat="44.0601302" lon="10.9632249"><ele>710.2</ele><time>2026-05-02T13:34:21.748Z</time></trkpt><trkpt lat="44.0600857" lon="10.9630854"><ele>712.4</ele><time>2026-05-02T13:34:22.749Z</time></trkpt><trkpt lat="44.0600398" lon="10.9629629"><ele>714.6</ele><time>2026-05-02T13:34:23.745Z</time></trkpt><trkpt lat="44.0599986" lon="10.9628352"><ele>716.8000000000001</ele><time>2026-05-02T13:34:24.745Z</time></trkpt><trkpt lat="44.0599485" lon="10.9626975"><ele>719.0</ele><time>2026-05-02T13:34:25.755Z</time></trkpt><trkpt lat="44.0598896" lon="10.9625527"><ele>711.0</ele><time>2026-05-02T13:34:26.746Z</time></trkpt><trkpt lat="44.059794" lon="10.9624121"><ele>703.0</ele><time>2026-05-02T13:34:27.745Z</time></trkpt><trkpt lat="44.0597046" lon="10.962278"><ele>695.0</ele><time>2026-05-02T13:34:28.749Z</time></trkpt><trkpt lat="44.0596233" lon="10.9621631"><ele>687.0</ele><time>2026-05-02T13:34:29.746Z</time></trkpt><trkpt lat="44.0595436" lon="10.9620634"><ele>687.0</ele><time>2026-05-02T13:34:30.747Z</time></trkpt><trkpt lat="44.0594625" lon="10.9619929"><ele>687.0</ele><time>2026-05-02T13:34:31.747Z</time></trkpt><trkpt lat="44.0593488" lon="10.9620572"><ele>687.0</ele><time>2026-05-02T13:34:32.748Z</time></trkpt><trkpt lat="44.0592395" lon="10.9620951"><ele>687.0</ele><time>2026-05-02T13:34:33.749Z</time></trkpt><trkpt lat="44.059136" lon="10.9621219"><ele>687.0</ele><time>2026-05-02T13:34:34.753Z</time></trkpt><trkpt lat="44.0590438" lon="10.9621297"><ele>692.4000000000001</ele><time>2026-05-02T13:34:35.744Z</time></trkpt><trkpt lat="44.0589415" lon="10.9621476"><ele>697.8000000000001</ele><time>2026-05-02T13:34:36.754Z</time></trkpt><trkpt lat="44.0588321" lon="10.9621471"><ele>703.2</ele><time>2026-05-02T13:34:37.748Z</time></trkpt><trkpt lat="44.0587237" lon="10.96212"><ele>708.6</ele><time>2026-05-02T13:34:38.745Z</time></trkpt><trkpt lat="44.0586298" lon="10.9620786"><ele>714.0</ele><time>2026-05-02T13:34:39.744Z</time></trkpt><trkpt lat="44.0586393" lon="10.9617706"><ele>709.0</ele><time>2026-05-02T13:34:40.747Z</time></trkpt><trkpt lat="44.0585857" lon="10.9615976"><ele>704.0</ele><time>2026-05-02T13:34:41.752Z</time></trkpt><trkpt lat="44.0585233" lon="10.9614404"><ele>699.0</ele><time>2026-05-02T13:34:42.749Z</time></trkpt><trkpt lat="44.0584633" lon="10.9612721"><ele>694.0</ele><time>2026-05-02T13:34:43.745Z</time></trkpt><trkpt lat="44.0584008" lon="10.9611201"><ele>694.0</ele><time>2026-05-02T13:34:44.746Z</time></trkpt><trkpt lat="44.0583279" lon="10.9609844"><ele>694.0</ele><time>2026-05-02T13:34:45.747Z</time></trkpt><trkpt lat="44.0582408" lon="10.960856"><ele>694.0</ele><time>2026-05-02T13:34:46.757Z</time></trkpt><trkpt lat="44.0581492" lon="10.960747"><ele>694.0</ele><time>2026-05-02T13:34:47.749Z</time></trkpt><trkpt lat="44.0580522" lon="10.9606494"><ele>698.25</ele><time>2026-05-02T13:34:48.745Z</time></trkpt><trkpt lat="44.057954" lon="10.960566"><ele>702.5</ele><time>2026-05-02T13:34:49.746Z</time></trkpt><trkpt lat="44.0578487" lon="10.9605133"><ele>706.75</ele><time>2026-05-02T13:34:50.751Z</time></trkpt><trkpt lat="44.0577352" lon="10.9604645"><ele>711.0</ele><time>2026-05-02T13:34:51.744Z</time></trkpt><trkpt lat="44.0576167" lon="10.9604168"><ele>711.0</ele><time>2026-05-02T13:34:52.744Z</time></trkpt><trkpt lat="44.0574926" lon="10.960355"><ele>711.0</ele><time>2026-05-02T13:34:53.748Z</time></trkpt><trkpt lat="44.0573817" lon="10.9602681"><ele>711.0</ele><time>2026-05-02T13:34:54.742Z</time></trkpt><trkpt lat="44.057277" lon="10.96015"><ele>711.0</ele><time>2026-05-02T13:34:55.743Z</time></trkpt><trkpt lat="44.0571634" lon="10.9600514"><ele>714.5</ele><time>2026-05-02T13:34:56.743Z</time></trkpt><trkpt lat="44.057055" lon="10.9599377"><ele>718.0</ele><time>2026-05-02T13:34:57.754Z</time></trkpt><trkpt lat="44.056947" lon="10.9598311"><ele>721.5</ele><time>2026-05-02T13:34:58.743Z</time></trkpt><trkpt lat="44.0568506" lon="10.9597321"><ele>725.0</ele><time>2026-05-02T13:34:59.742Z</time></trkpt><trkpt lat="44.0567536" lon="10.9596443"><ele>725.0</ele><time>2026-05-02T13:35:00.748Z</time></trkpt><trkpt lat="44.056667" lon="10.9595454"><ele>725.0</ele><time>2026-05-02T13:35:01.744Z</time></trkpt><trkpt lat="44.0565874" lon="10.9594629"><ele>725.0</ele><time>2026-05-02T13:35:02.744Z</time></trkpt><trkpt lat="44.0565111" lon="10.9593374"><ele>725.0</ele><time>2026-05-02T13:35:03.745Z</time></trkpt><trkpt lat="44.0564242" lon="10.9592113"><ele>728.0</ele><time>2026-05-02T13:35:04.744Z</time></trkpt><trkpt lat="44.0563545" lon="10.959091"><ele>731.0</ele><time>2026-05-02T13:35:05.75Z</time></trkpt><trkpt lat="44.0562849" lon="10.9589558"><ele>734.0</ele><time>2026-05-02T13:35:06.743Z</time></trkpt><trkpt lat="44.0562113" lon="10.958834"><ele>737.0</ele><time>2026-05-02T13:35:07.742Z</time></trkpt><trkpt lat="44.0561553" lon="10.9586488"><ele>737.0</ele><time>2026-05-02T13:35:08.752Z</time></trkpt><trkpt lat="44.0561273" lon="10.9584831"><ele>737.0</ele><time>2026-05-02T13:35:09.744Z</time></trkpt><trkpt lat="44.0560745" lon="10.9583544"><ele>737.0</ele><time>2026-05-02T13:35:10.743Z</time></trkpt><trkpt lat="44.0560027" lon="10.9582277"><ele>737.0</ele><time>2026-05-02T13:35:11.746Z</time></trkpt><trkpt lat="44.0559344" lon="10.9581271"><ele>737.0</ele><time>2026-05-02T13:35:12.746Z</time></trkpt><trkpt lat="44.0558463" lon="10.9580207"><ele>733.5</ele><time>2026-05-02T13:35:13.743Z</time></trkpt><trkpt lat="44.0557496" lon="10.9579342"><ele>730.0</ele><time>2026-05-02T13:35:14.744Z</time></trkpt><trkpt lat="44.0556493" lon="10.9578604"><ele>726.5</ele><time>2026-05-02T13:35:15.743Z</time></trkpt><trkpt lat="44.0555414" lon="10.9577907"><ele>723.0</ele><time>2026-05-02T13:35:16.748Z</time></trkpt><trkpt lat="44.0554186" lon="10.9577847"><ele>723.0</ele><time>2026-05-02T13:35:17.752Z</time></trkpt><trkpt lat="44.0552933" lon="10.9578139"><ele>723.0</ele><time>2026-05-02T13:35:18.752Z</time></trkpt><trkpt lat="44.0551736" lon="10.9578307"><ele>723.0</ele><time>2026-05-02T13:35:19.755Z</time></trkpt><trkpt lat="44.0550581" lon="10.9578496"><ele>723.0</ele><time>2026-05-02T13:35:20.745Z</time></trkpt><trkpt lat="44.0549403" lon="10.9579043"><ele>723.0</ele><time>2026-05-02T13:35:21.748Z</time></trkpt><trkpt lat="44.0548464" lon="10.9579788"><ele>723.0</ele><time>2026-05-02T13:35:22.747Z</time></trkpt><trkpt lat="44.0547644" lon="10.9581066"><ele>723.0</ele><time>2026-05-02T13:35:23.746Z</time></trkpt><trkpt lat="44.0546867" lon="10.958259"><ele>723.0</ele><time>2026-05-02T13:35:24.751Z</time></trkpt><trkpt lat="44.05461" lon="10.9584055"><ele>723.0</ele><time>2026-05-02T13:35:25.752Z</time></trkpt><trkpt lat="44.0545302" lon="10.9585354"><ele>723.0</ele><time>2026-05-02T13:35:26.753Z</time></trkpt><trkpt lat="44.0544353" lon="10.9586488"><ele>723.0</ele><time>2026-05-02T13:35:27.759Z</time></trkpt><trkpt lat="44.0543312" lon="10.9587445"><ele>723.0</ele><time>2026-05-02T13:35:28.748Z</time></trkpt><trkpt lat="44.054217" lon="10.9588134"><ele>725.0</ele><time>2026-05-02T13:35:29.756Z</time></trkpt><trkpt lat="44.0540941" lon="10.9588602"><ele>727.0</ele><time>2026-05-02T13:35:30.751Z</time></trkpt><trkpt lat="44.0539828" lon="10.9588676"><ele>729.0</ele><time>2026-05-02T13:35:31.746Z</time></trkpt><trkpt lat="44.0538786" lon="10.9588814"><ele>731.0</ele><time>2026-05-02T13:35:32.746Z</time></trkpt><trkpt lat="44.0537598" lon="10.9588321"><ele>731.0</ele><time>2026-05-02T13:35:33.756Z</time></trkpt><trkpt lat="44.0536413" lon="10.9587779"><ele>731.0</ele><time>2026-05-02T13:35:34.75Z</time></trkpt><trkpt lat="44.053518" lon="10.9587076"><ele>731.0</ele><time>2026-05-02T13:35:35.745Z</time></trkpt><trkpt lat="44.053402" lon="10.9586381"><ele>731.0</ele><time>2026-05-02T13:35:36.752Z</time></trkpt><trkpt lat="44.0532947" lon="10.958551"><ele>731.25</ele><time>2026-05-02T13:35:37.746Z</time></trkpt><trkpt lat="44.0531824" lon="10.9584669"><ele>731.5</ele><time>2026-05-02T13:35:38.745Z</time></trkpt><trkpt lat="44.0530696" lon="10.9583776"><ele>731.75</ele><time>2026-05-02T13:35:39.749Z</time></trkpt><trkpt lat="44.0529514" lon="10.9582856"><ele>732.0</ele><time>2026-05-02T13:35:40.745Z</time></trkpt><trkpt lat="44.0528278" lon="10.9581959"><ele>732.0</ele><time>2026-05-02T13:35:41.753Z</time></trkpt><trkpt lat="44.0527091" lon="10.9581021"><ele>732.0</ele><time>2026-05-02T13:35:42.745Z</time></trkpt><trkpt lat="44.052582" lon="10.9580134"><ele>732.0</ele><time>2026-05-02T13:35:43.747Z</time></trkpt><trkpt lat="44.052458" lon="10.9579238"><ele>732.0</ele><time>2026-05-02T13:35:44.751Z</time></trkpt><trkpt lat="44.0523384" lon="10.9578275"><ele>733.25</ele><time>2026-05-02T13:35:45.754Z</time></trkpt><trkpt lat="44.0522252" lon="10.957731"><ele>734.5</ele><time>2026-05-02T13:35:46.748Z</time></trkpt><trkpt lat="44.0521255" lon="10.9576056"><ele>735.75</ele><time>2026-05-02T13:35:47.753Z</time></trkpt><trkpt lat="44.0520353" lon="10.957479"><ele>737.0</ele><time>2026-05-02T13:35:48.753Z</time></trkpt><trkpt lat="44.0519769" lon="10.9573109"><ele>737.0</ele><time>2026-05-02T13:35:49.748Z</time></trkpt><trkpt lat="44.0519118" lon="10.9571638"><ele>737.0</ele><time>2026-05-02T13:35:50.755Z</time></trkpt><trkpt lat="44.0518458" lon="10.957021"><ele>737.0</ele><time>2026-05-02T13:35:51.746Z</time></trkpt><trkpt lat="44.051788" lon="10.9569025"><ele>737.0</ele><time>2026-05-02T13:35:52.747Z</time></trkpt><trkpt lat="44.0517243" lon="10.956812"><ele>737.0</ele><time>2026-05-02T13:35:53.743Z</time></trkpt><trkpt lat="44.0516359" lon="10.9567818"><ele>737.2</ele><time>2026-05-02T13:35:54.746Z</time></trkpt><trkpt lat="44.0515418" lon="10.9568024"><ele>737.4000000000001</ele><time>2026-05-02T13:35:55.743Z</time></trkpt><trkpt lat="44.0514467" lon="10.9568185"><ele>737.5999999999999</ele><time>2026-05-02T13:35:56.744Z</time></trkpt><trkpt lat="44.0513475" lon="10.9568024"><ele>737.8</ele><time>2026-05-02T13:35:57.744Z</time></trkpt><trkpt lat="44.0512477" lon="10.9567363"><ele>738.0</ele><time>2026-05-02T13:35:58.745Z</time></trkpt><trkpt lat="44.0511538" lon="10.9566538"><ele>738.0</ele><time>2026-05-02T13:35:59.748Z</time></trkpt><trkpt lat="44.0510592" lon="10.9565753"><ele>738.0</ele><time>2026-05-02T13:36:00.746Z</time></trkpt><trkpt lat="44.0509569" lon="10.9564899"><ele>738.0</ele><time>2026-05-02T13:36:01.744Z</time></trkpt><trkpt lat="44.0508196" lon="10.9564409"><ele>738.0</ele><time>2026-05-02T13:36:02.743Z</time></trkpt><trkpt lat="44.0506828" lon="10.9564005"><ele>740.0</ele><time>2026-05-02T13:36:03.735Z</time></trkpt><trkpt lat="44.0504962" lon="10.9564063"><ele>742.0</ele><time>2026-05-02T13:36:04.748Z</time></trkpt><trkpt lat="44.0503127" lon="10.9564216"><ele>744.0</ele><time>2026-05-02T13:36:05.745Z</time></trkpt><trkpt lat="44.0501115" lon="10.9564619"><ele>744.6666666666666</ele><time>2026-05-02T13:36:06.749Z</time></trkpt><trkpt lat="44.0499106" lon="10.9564675"><ele>745.3333333333333</ele><time>2026-05-02T13:36:07.745Z</time></trkpt><trkpt lat="44.049712" lon="10.9564571"><ele>746.0</ele><time>2026-05-02T13:36:08.753Z</time></trkpt><trkpt lat="44.049518" lon="10.9564293"><ele>746.0</ele><time>2026-05-02T13:36:09.748Z</time></trkpt><trkpt lat="44.0493183" lon="10.9563563"><ele>746.0</ele><time>2026-05-02T13:36:10.742Z</time></trkpt><trkpt lat="44.0491145" lon="10.9563028"><ele>746.0</ele><time>2026-05-02T13:36:11.752Z</time></trkpt><trkpt lat="44.0489233" lon="10.9561386"><ele>746.3333333333333</ele><time>2026-05-02T13:36:12.745Z</time></trkpt><trkpt lat="44.0487319" lon="10.9560052"><ele>746.6666666666666</ele><time>2026-05-02T13:36:13.749Z</time></trkpt><trkpt lat="44.0485472" lon="10.9558761"><ele>747.0</ele><time>2026-05-02T13:36:14.748Z</time></trkpt><trkpt lat="44.0483537" lon="10.9557486"><ele>753.0</ele><time>2026-05-02T13:36:15.751Z</time></trkpt><trkpt lat="44.0481567" lon="10.9556359"><ele>759.0</ele><time>2026-05-02T13:36:16.751Z</time></trkpt><trkpt lat="44.0479676" lon="10.9555251"><ele>765.0</ele><time>2026-05-02T13:36:17.748Z</time></trkpt><trkpt lat="44.0477705" lon="10.9554104"><ele>765.0</ele><time>2026-05-02T13:36:18.746Z</time></trkpt><trkpt lat="44.0475749" lon="10.9553018"><ele>765.0</ele><time>2026-05-02T13:36:19.746Z</time></trkpt><trkpt lat="44.0473833" lon="10.9552126"><ele>765.0</ele><time>2026-05-02T13:36:20.744Z</time></trkpt><trkpt lat="44.0471567" lon="10.9552779"><ele>770.6666666666667</ele><time>2026-05-02T13:36:21.744Z</time></trkpt><trkpt lat="44.0469601" lon="10.9552438"><ele>776.3333333333334</ele><time>2026-05-02T13:36:22.758Z</time></trkpt><trkpt lat="44.0467729" lon="10.9551812"><ele>782.0</ele><time>2026-05-02T13:36:23.744Z</time></trkpt><trkpt lat="44.0466012" lon="10.9550766"><ele>777.0</ele><time>2026-05-02T13:36:24.746Z</time></trkpt><trkpt lat="44.0464365" lon="10.9549559"><ele>772.0</ele><time>2026-05-02T13:36:25.749Z</time></trkpt><trkpt lat="44.0462702" lon="10.9547965"><ele>767.0</ele><time>2026-05-02T13:36:26.749Z</time></trkpt><trkpt lat="44.0461071" lon="10.9546314"><ele>767.0</ele><time>2026-05-02T13:36:27.747Z</time></trkpt><trkpt lat="44.0459472" lon="10.9544429"><ele>767.0</ele><time>2026-05-02T13:36:28.745Z</time></trkpt><trkpt lat="44.0457935" lon="10.9542542"><ele>767.0</ele><time>2026-05-02T13:36:29.753Z</time></trkpt><trkpt lat="44.0456422" lon="10.9540351"><ele>767.6666666666666</ele><time>2026-05-02T13:36:30.745Z</time></trkpt><trkpt lat="44.045463" lon="10.953877"><ele>768.3333333333333</ele><time>2026-05-02T13:36:31.752Z</time></trkpt><trkpt lat="44.0452909" lon="10.9537188"><ele>769.0</ele><time>2026-05-02T13:36:32.745Z</time></trkpt><trkpt lat="44.0451225" lon="10.9535616"><ele>769.0</ele><time>2026-05-02T13:36:33.754Z</time></trkpt><trkpt lat="44.0449679" lon="10.9534076"><ele>769.0</ele><time>2026-05-02T13:36:34.751Z</time></trkpt><trkpt lat="44.0447907" lon="10.9532865"><ele>769.0</ele><time>2026-05-02T13:36:35.748Z</time></trkpt><trkpt lat="44.0446213" lon="10.9531642"><ele>767.0</ele><time>2026-05-02T13:36:36.754Z</time></trkpt><trkpt lat="44.0444486" lon="10.9530802"><ele>765.0</ele><time>2026-05-02T13:36:37.747Z</time></trkpt><trkpt lat="44.0442811" lon="10.9530313"><ele>763.0</ele><time>2026-05-02T13:36:38.757Z</time></trkpt><trkpt lat="44.0441275" lon="10.9529526"><ele>763.0</ele><time>2026-05-02T13:36:39.751Z</time></trkpt><trkpt lat="44.0439846" lon="10.9528226"><ele>763.0</ele><time>2026-05-02T13:36:40.752Z</time></trkpt><trkpt lat="44.0438332" lon="10.9526807"><ele>763.0</ele><time>2026-05-02T13:36:41.744Z</time></trkpt><trkpt lat="44.0436707" lon="10.9525253"><ele>763.3333333333334</ele><time>2026-05-02T13:36:42.744Z</time></trkpt><trkpt lat="44.043468" lon="10.95246"><ele>763.6666666666666</ele><time>2026-05-02T13:36:43.745Z</time></trkpt><trkpt lat="44.0432521" lon="10.9524011"><ele>764.0</ele><time>2026-05-02T13:36:44.751Z</time></trkpt><trkpt lat="44.0430338" lon="10.9523375"><ele>764.3333333333333</ele><time>2026-05-02T13:36:45.748Z</time></trkpt><trkpt lat="44.0428248" lon="10.9522647"><ele>764.6666666666666</ele><time>2026-05-02T13:36:46.747Z</time></trkpt><trkpt lat="44.042622" lon="10.9521928"><ele>765.0</ele><time>2026-05-02T13:36:47.746Z</time></trkpt><trkpt lat="44.0424298" lon="10.9521242"><ele>765.0</ele><time>2026-05-02T13:36:48.744Z</time></trkpt><trkpt lat="44.0422411" lon="10.9520627"><ele>765.0</ele><time>2026-05-02T13:36:49.745Z</time></trkpt><trkpt lat="44.0420648" lon="10.9519813"><ele>765.0</ele><time>2026-05-02T13:36:50.754Z</time></trkpt><trkpt lat="44.0418858" lon="10.9518685"><ele>765.0</ele><time>2026-05-02T13:36:51.745Z</time></trkpt><trkpt lat="44.0417085" lon="10.9517576"><ele>765.0</ele><time>2026-05-02T13:36:52.745Z</time></trkpt><trkpt lat="44.0415205" lon="10.9516398"><ele>765.0</ele><time>2026-05-02T13:36:53.748Z</time></trkpt><trkpt lat="44.0413158" lon="10.9515376"><ele>768.5</ele><time>2026-05-02T13:36:54.749Z</time></trkpt><trkpt lat="44.0411118" lon="10.9514176"><ele>772.0</ele><time>2026-05-02T13:36:55.746Z</time></trkpt><trkpt lat="44.040899" lon="10.9512907"><ele>786.0</ele><time>2026-05-02T13:36:56.751Z</time></trkpt><trkpt lat="44.0406951" lon="10.9511574"><ele>800.0</ele><time>2026-05-02T13:36:57.745Z</time></trkpt><trkpt lat="44.0404701" lon="10.9510328"><ele>800.0</ele><time>2026-05-02T13:36:58.744Z</time></trkpt><trkpt lat="44.0402557" lon="10.9509071"><ele>800.0</ele><time>2026-05-02T13:36:59.753Z</time></trkpt><trkpt lat="44.0400633" lon="10.9507448"><ele>791.0</ele><time>2026-05-02T13:37:00.751Z</time></trkpt><trkpt lat="44.0398691" lon="10.9505677"><ele>782.0</ele><time>2026-05-02T13:37:01.745Z</time></trkpt><trkpt lat="44.0396738" lon="10.9503921"><ele>782.0</ele><time>2026-05-02T13:37:02.745Z</time></trkpt><trkpt lat="44.0394771" lon="10.9502236"><ele>782.0</ele><time>2026-05-02T13:37:03.747Z</time></trkpt><trkpt lat="44.0392816" lon="10.9500564"><ele>786.5</ele><time>2026-05-02T13:37:04.752Z</time></trkpt><trkpt lat="44.0390864" lon="10.9498967"><ele>791.0</ele><time>2026-05-02T13:37:05.753Z</time></trkpt><trkpt lat="44.038898" lon="10.9497193"><ele>791.0</ele><time>2026-05-02T13:37:06.749Z</time></trkpt><trkpt lat="44.0387131" lon="10.9495388"><ele>791.0</ele><time>2026-05-02T13:37:07.747Z</time></trkpt><trkpt lat="44.0385386" lon="10.9493521"><ele>791.0</ele><time>2026-05-02T13:37:08.746Z</time></trkpt><trkpt lat="44.0383545" lon="10.9491632"><ele>791.0</ele><time>2026-05-02T13:37:09.744Z</time></trkpt><trkpt lat="44.0381723" lon="10.9489849"><ele>791.0</ele><time>2026-05-02T13:37:10.743Z</time></trkpt><trkpt lat="44.0379963" lon="10.948807"><ele>791.0</ele><time>2026-05-02T13:37:11.744Z</time></trkpt><trkpt lat="44.0378161" lon="10.9486397"><ele>791.0</ele><time>2026-05-02T13:37:12.743Z</time></trkpt><trkpt lat="44.0376257" lon="10.9484796"><ele>791.0</ele><time>2026-05-02T13:37:13.742Z</time></trkpt><trkpt lat="44.037435" lon="10.9483584"><ele>791.0</ele><time>2026-05-02T13:37:14.743Z</time></trkpt><trkpt lat="44.0372362" lon="10.948229"><ele>794.0</ele><time>2026-05-02T13:37:15.752Z</time></trkpt><trkpt lat="44.0370762" lon="10.9480706"><ele>797.0</ele><time>2026-05-02T13:37:16.753Z</time></trkpt><trkpt lat="44.0368951" lon="10.9478638"><ele>800.0</ele><time>2026-05-02T13:37:17.744Z</time></trkpt><trkpt lat="44.0367388" lon="10.9476117"><ele>799.0</ele><time>2026-05-02T13:37:18.742Z</time></trkpt><trkpt lat="44.0365976" lon="10.9473588"><ele>798.0</ele><time>2026-05-02T13:37:19.746Z</time></trkpt><trkpt lat="44.036445" lon="10.9471112"><ele>798.0</ele><time>2026-05-02T13:37:20.754Z</time></trkpt><trkpt lat="44.0362813" lon="10.9468794"><ele>798.0</ele><time>2026-05-02T13:37:21.733Z</time></trkpt><trkpt lat="44.0361494" lon="10.9466284"><ele>793.5</ele><time>2026-05-02T13:37:22.745Z</time></trkpt><trkpt lat="44.0360254" lon="10.9463596"><ele>789.0</ele><time>2026-05-02T13:37:23.748Z</time></trkpt><trkpt lat="44.0359458" lon="10.9460444"><ele>786.5</ele><time>2026-05-02T13:37:24.748Z</time></trkpt><trkpt lat="44.0358499" lon="10.9457393"><ele>784.0</ele><time>2026-05-02T13:37:25.744Z</time></trkpt><trkpt lat="44.0357487" lon="10.94543"><ele>788.5</ele><time>2026-05-02T13:37:26.743Z</time></trkpt><trkpt lat="44.0356306" lon="10.9451376"><ele>793.0</ele><time>2026-05-02T13:37:27.746Z</time></trkpt><trkpt lat="44.0354924" lon="10.9448472"><ele>793.0</ele><time>2026-05-02T13:37:28.75Z</time></trkpt><trkpt lat="44.0353568" lon="10.9445547"><ele>793.0</ele><time>2026-05-02T13:37:29.756Z</time></trkpt><trkpt lat="44.0352158" lon="10.9442596"><ele>790.5</ele><time>2026-05-02T13:37:30.747Z</time></trkpt><trkpt lat="44.0350838" lon="10.9439688"><ele>788.0</ele><time>2026-05-02T13:37:31.747Z</time></trkpt><trkpt lat="44.0349495" lon="10.9436906"><ele>788.0</ele><time>2026-05-02T13:37:32.744Z</time></trkpt><trkpt lat="44.0348184" lon="10.9434182"><ele>788.0</ele><time>2026-05-02T13:37:33.745Z</time></trkpt><trkpt lat="44.0346704" lon="10.9431606"><ele>791.0</ele><time>2026-05-02T13:37:34.741Z</time></trkpt><trkpt lat="44.0344923" lon="10.9429264"><ele>794.0</ele><time>2026-05-02T13:37:35.744Z</time></trkpt><trkpt lat="44.03432" lon="10.9427016"><ele>807.5</ele><time>2026-05-02T13:37:36.743Z</time></trkpt><trkpt lat="44.0341315" lon="10.9424791"><ele>821.0</ele><time>2026-05-02T13:37:37.746Z</time></trkpt><trkpt lat="44.0339733" lon="10.9422284"><ele>821.0</ele><time>2026-05-02T13:37:38.749Z</time></trkpt><trkpt lat="44.0338291" lon="10.9419589"><ele>821.0</ele><time>2026-05-02T13:37:39.75Z</time></trkpt><trkpt lat="44.0337073" lon="10.9416863"><ele>810.0</ele><time>2026-05-02T13:37:40.75Z</time></trkpt><trkpt lat="44.0335743" lon="10.9414327"><ele>799.0</ele><time>2026-05-02T13:37:41.746Z</time></trkpt><trkpt lat="44.0334285" lon="10.941194"><ele>797.6666666666666</ele><time>2026-05-02T13:37:42.759Z</time></trkpt><trkpt lat="44.0332535" lon="10.9409869"><ele>796.3333333333333</ele><time>2026-05-02T13:37:43.746Z</time></trkpt><trkpt lat="44.0330731" lon="10.9408172"><ele>795.0</ele><time>2026-05-02T13:37:44.748Z</time></trkpt><trkpt lat="44.0328758" lon="10.9406869"><ele>795.0</ele><time>2026-05-02T13:37:45.752Z</time></trkpt><trkpt lat="44.0326638" lon="10.9405922"><ele>795.0</ele><time>2026-05-02T13:37:46.752Z</time></trkpt><trkpt lat="44.0324577" lon="10.9405191"><ele>795.0</ele><time>2026-05-02T13:37:47.748Z</time></trkpt><trkpt lat="44.0322667" lon="10.9404443"><ele>799.6666666666667</ele><time>2026-05-02T13:37:48.757Z</time></trkpt><trkpt lat="44.0320833" lon="10.9403617"><ele>804.3333333333334</ele><time>2026-05-02T13:37:49.749Z</time></trkpt><trkpt lat="44.0319003" lon="10.9402686"><ele>809.0</ele><time>2026-05-02T13:37:50.753Z</time></trkpt><trkpt lat="44.031746" lon="10.9401524"><ele>807.3333333333334</ele><time>2026-05-02T13:37:51.75Z</time></trkpt><trkpt lat="44.0316097" lon="10.9400047"><ele>805.6666666666667</ele><time>2026-05-02T13:37:52.745Z</time></trkpt><trkpt lat="44.0314943" lon="10.9398446"><ele>804.0</ele><time>2026-05-02T13:37:53.748Z</time></trkpt><trkpt lat="44.0313912" lon="10.9396543"><ele>804.0</ele><time>2026-05-02T13:37:54.745Z</time></trkpt><trkpt lat="44.0312998" lon="10.9394527"><ele>804.0</ele><time>2026-05-02T13:37:55.747Z</time></trkpt><trkpt lat="44.0312156" lon="10.939249"><ele>804.0</ele><time>2026-05-02T13:37:56.748Z</time></trkpt><trkpt lat="44.0311395" lon="10.9390438"><ele>788.0</ele><time>2026-05-02T13:37:57.744Z</time></trkpt><trkpt lat="44.0257997" lon="10.9267492"><ele>788.0</ele><time>2026-05-02T13:38:52.779Z</time></trkpt><trkpt lat="44.0256033" lon="10.9267851"><ele>788.0</ele><time>2026-05-02T13:38:53.751Z</time></trkpt><trkpt lat="44.0254698" lon="10.9267936"><ele>788.0</ele><time>2026-05-02T13:38:54.756Z</time></trkpt><trkpt lat="44.0253795" lon="10.9267899"><ele>788.0</ele><time>2026-05-02T13:38:55.745Z</time></trkpt><trkpt lat="44.0252716" lon="10.9268139"><ele>788.0000000000001</ele><time>2026-05-02T13:38:56.749Z</time></trkpt><trkpt lat="44.0251638" lon="10.926868"><ele>788.0</ele><time>2026-05-02T13:38:57.751Z</time></trkpt><trkpt lat="44.0250813" lon="10.9268482"><ele>788.0</ele><time>2026-05-02T13:38:58.748Z</time></trkpt><trkpt lat="44.0250042" lon="10.9268493"><ele>788.0</ele><time>2026-05-02T13:38:59.751Z</time></trkpt><trkpt lat="44.024937" lon="10.9268705"><ele>788.0000000000001</ele><time>2026-05-02T13:39:00.757Z</time></trkpt><trkpt lat="44.0248633" lon="10.9268911"><ele>788.0</ele><time>2026-05-02T13:39:02.751Z</time></trkpt><trkpt lat="44.0247477" lon="10.9269454"><ele>788.8</ele><time>2026-05-02T13:39:51.755Z</time></trkpt><trkpt lat="44.0246759" lon="10.9269526"><ele>789.5999999999999</ele><time>2026-05-02T13:39:52.744Z</time></trkpt><trkpt lat="44.024566" lon="10.9269494"><ele>790.4000000000001</ele><time>2026-05-02T13:39:53.752Z</time></trkpt><trkpt lat="44.0244469" lon="10.9269382"><ele>791.2</ele><time>2026-05-02T13:39:54.747Z</time></trkpt><trkpt lat="44.024333" lon="10.926925"><ele>792.0</ele><time>2026-05-02T13:39:55.752Z</time></trkpt><trkpt lat="44.0241939" lon="10.9268924"><ele>790.3333333333333</ele><time>2026-05-02T13:39:56.758Z</time></trkpt><trkpt lat="44.0240557" lon="10.9267574"><ele>788.6666666666666</ele><time>2026-05-02T13:39:57.752Z</time></trkpt><trkpt lat="44.0239191" lon="10.9266844"><ele>787.0</ele><time>2026-05-02T13:39:58.749Z</time></trkpt><trkpt lat="44.0237917" lon="10.9266143"><ele>787.0</ele><time>2026-05-02T13:39:59.753Z</time></trkpt><trkpt lat="44.0236733" lon="10.926536"><ele>787.0</ele><time>2026-05-02T13:40:00.746Z</time></trkpt><trkpt lat="44.023557" lon="10.9264197"><ele>787.0</ele><time>2026-05-02T13:40:01.749Z</time></trkpt><trkpt lat="44.0234226" lon="10.9263122"><ele>787.0</ele><time>2026-05-02T13:40:02.752Z</time></trkpt><trkpt lat="44.0232884" lon="10.9261828"><ele>784.6666666666666</ele><time>2026-05-02T13:40:03.749Z</time></trkpt><trkpt lat="44.0231397" lon="10.9260309"><ele>782.3333333333333</ele><time>2026-05-02T13:40:04.75Z</time></trkpt><trkpt lat="44.022954" lon="10.9258558"><ele>780.0</ele><time>2026-05-02T13:40:05.752Z</time></trkpt><trkpt lat="44.0227657" lon="10.9256493"><ele>780.0</ele><time>2026-05-02T13:40:06.755Z</time></trkpt><trkpt lat="44.0225638" lon="10.9254443"><ele>780.0</ele><time>2026-05-02T13:40:07.751Z</time></trkpt><trkpt lat="44.0223574" lon="10.925245"><ele>779.5</ele><time>2026-05-02T13:40:08.747Z</time></trkpt><trkpt lat="44.0221525" lon="10.9250653"><ele>779.0</ele><time>2026-05-02T13:40:09.755Z</time></trkpt><trkpt lat="44.0219675" lon="10.9248568"><ele>779.0</ele><time>2026-05-02T13:40:10.747Z</time></trkpt><trkpt lat="44.0217951" lon="10.924622"><ele>779.0</ele><time>2026-05-02T13:40:11.759Z</time></trkpt><trkpt lat="44.021639" lon="10.9243774"><ele>778.5</ele><time>2026-05-02T13:40:12.751Z</time></trkpt><trkpt lat="44.0214626" lon="10.9241556"><ele>778.0</ele><time>2026-05-02T13:40:13.754Z</time></trkpt><trkpt lat="44.0213165" lon="10.9239251"><ele>778.0</ele><time>2026-05-02T13:40:14.754Z</time></trkpt><trkpt lat="44.02116" lon="10.9237152"><ele>778.0</ele><time>2026-05-02T13:40:15.753Z</time></trkpt><trkpt lat="44.0210084" lon="10.9235116"><ele>778.0</ele><time>2026-05-02T13:40:16.745Z</time></trkpt><trkpt lat="44.0208563" lon="10.9233373"><ele>775.6666666666666</ele><time>2026-05-02T13:40:17.753Z</time></trkpt><trkpt lat="44.020695" lon="10.9231901"><ele>773.3333333333333</ele><time>2026-05-02T13:40:18.748Z</time></trkpt><trkpt lat="44.0205162" lon="10.9230441"><ele>771.0</ele><time>2026-05-02T13:40:19.751Z</time></trkpt><trkpt lat="44.020332" lon="10.9229117"><ele>771.0</ele><time>2026-05-02T13:40:20.751Z</time></trkpt><trkpt lat="44.0201446" lon="10.9227755"><ele>771.0</ele><time>2026-05-02T13:40:21.75Z</time></trkpt><trkpt lat="44.0199672" lon="10.9226371"><ele>771.0</ele><time>2026-05-02T13:40:22.752Z</time></trkpt><trkpt lat="44.0197936" lon="10.9225079"><ele>760.6666666666666</ele><time>2026-05-02T13:40:23.747Z</time></trkpt><trkpt lat="44.019631" lon="10.9224008"><ele>750.3333333333333</ele><time>2026-05-02T13:40:24.74Z</time></trkpt><trkpt lat="44.0194692" lon="10.9223183"><ele>740.0</ele><time>2026-05-02T13:40:25.753Z</time></trkpt><trkpt lat="44.019306" lon="10.9222645"><ele>732.3333333333333</ele><time>2026-05-02T13:40:26.755Z</time></trkpt><trkpt lat="44.0191253" lon="10.9222925"><ele>724.6666666666666</ele><time>2026-05-02T13:40:27.751Z</time></trkpt><trkpt lat="44.0189442" lon="10.922339"><ele>717.0</ele><time>2026-05-02T13:40:28.75Z</time></trkpt><trkpt lat="44.0187589" lon="10.922415"><ele>717.0</ele><time>2026-05-02T13:40:29.744Z</time></trkpt><trkpt lat="44.0185799" lon="10.9225094"><ele>717.0</ele><time>2026-05-02T13:40:30.745Z</time></trkpt><trkpt lat="44.0184106" lon="10.9226194"><ele>717.0</ele><time>2026-05-02T13:40:31.749Z</time></trkpt><trkpt lat="44.0182618" lon="10.9227735"><ele>719.6666666666666</ele><time>2026-05-02T13:40:32.752Z</time></trkpt><trkpt lat="44.0181236" lon="10.9229311"><ele>722.3333333333333</ele><time>2026-05-02T13:40:33.755Z</time></trkpt><trkpt lat="44.0180393" lon="10.923181"><ele>725.0</ele><time>2026-05-02T13:40:34.747Z</time></trkpt><trkpt lat="44.0179639" lon="10.9234199"><ele>725.0</ele><time>2026-05-02T13:40:35.749Z</time></trkpt><trkpt lat="44.0178812" lon="10.9236405"><ele>725.0</ele><time>2026-05-02T13:40:36.741Z</time></trkpt><trkpt lat="44.0177919" lon="10.9238373"><ele>725.0</ele><time>2026-05-02T13:40:37.755Z</time></trkpt><trkpt lat="44.017638" lon="10.9240006"><ele>725.0</ele><time>2026-05-02T13:40:38.752Z</time></trkpt><trkpt lat="44.0174889" lon="10.9241563"><ele>725.0</ele><time>2026-05-02T13:40:39.751Z</time></trkpt><trkpt lat="44.0173281" lon="10.9243025"><ele>725.0</ele><time>2026-05-02T13:40:40.747Z</time></trkpt><trkpt lat="44.0171758" lon="10.9244217"><ele>727.3333333333333</ele><time>2026-05-02T13:40:41.756Z</time></trkpt><trkpt lat="44.017019" lon="10.9245253"><ele>729.6666666666666</ele><time>2026-05-02T13:40:42.751Z</time></trkpt><trkpt lat="44.0168477" lon="10.9245934"><ele>732.0</ele><time>2026-05-02T13:40:43.743Z</time></trkpt><trkpt lat="44.0166638" lon="10.9246078"><ele>724.6666666666666</ele><time>2026-05-02T13:40:44.741Z</time></trkpt><trkpt lat="44.0164789" lon="10.9246354"><ele>717.3333333333333</ele><time>2026-05-02T13:40:45.736Z</time></trkpt><trkpt lat="44.0162868" lon="10.9247065"><ele>710.0</ele><time>2026-05-02T13:40:46.755Z</time></trkpt><trkpt lat="44.0161031" lon="10.9247966"><ele>710.0</ele><time>2026-05-02T13:40:47.755Z</time></trkpt><trkpt lat="44.0159223" lon="10.9249259"><ele>710.0</ele><time>2026-05-02T13:40:48.756Z</time></trkpt><trkpt lat="44.0157359" lon="10.9250427"><ele>710.0</ele><time>2026-05-02T13:40:49.768Z</time></trkpt><trkpt lat="44.0155716" lon="10.9251382"><ele>707.0</ele><time>2026-05-02T13:40:50.75Z</time></trkpt><trkpt lat="44.0154306" lon="10.925259"><ele>704.0</ele><time>2026-05-02T13:40:51.741Z</time></trkpt><trkpt lat="44.0153103" lon="10.9254307"><ele>701.0</ele><time>2026-05-02T13:40:52.749Z</time></trkpt><trkpt lat="44.0152009" lon="10.9256163"><ele>701.0</ele><time>2026-05-02T13:40:53.746Z</time></trkpt><trkpt lat="44.0150941" lon="10.9258274"><ele>701.0</ele><time>2026-05-02T13:40:54.747Z</time></trkpt><trkpt lat="44.0149841" lon="10.9260519"><ele>701.0</ele><time>2026-05-02T13:40:55.749Z</time></trkpt><trkpt lat="44.0148838" lon="10.926284"><ele>701.0</ele><time>2026-05-02T13:40:56.752Z</time></trkpt><trkpt lat="44.0147702" lon="10.9265137"><ele>701.0</ele><time>2026-05-02T13:40:57.74Z</time></trkpt><trkpt lat="44.0146732" lon="10.9267413"><ele>701.0</ele><time>2026-05-02T13:40:58.751Z</time></trkpt><trkpt lat="44.0145709" lon="10.9269602"><ele>701.0</ele><time>2026-05-02T13:40:59.748Z</time></trkpt><trkpt lat="44.0144729" lon="10.9271563"><ele>701.0</ele><time>2026-05-02T13:41:00.753Z</time></trkpt><trkpt lat="44.0143563" lon="10.9273346"><ele>701.0</ele><time>2026-05-02T13:41:01.745Z</time></trkpt><trkpt lat="44.0142193" lon="10.927488"><ele>706.0</ele><time>2026-05-02T13:41:02.746Z</time></trkpt><trkpt lat="44.0140912" lon="10.9276505"><ele>711.0</ele><time>2026-05-02T13:41:03.742Z</time></trkpt><trkpt lat="44.0139687" lon="10.9278222"><ele>716.0</ele><time>2026-05-02T13:41:04.749Z</time></trkpt><trkpt lat="44.0137693" lon="10.9279197"><ele>716.0</ele><time>2026-05-02T13:41:05.754Z</time></trkpt><trkpt lat="44.013618" lon="10.9280686"><ele>716.0</ele><time>2026-05-02T13:41:06.733Z</time></trkpt><trkpt lat="44.0134081" lon="10.9277745"><ele>716.3333333333333</ele><time>2026-05-02T13:41:07.747Z</time></trkpt><trkpt lat="44.0132335" lon="10.9276961"><ele>716.6666666666666</ele><time>2026-05-02T13:41:08.745Z</time></trkpt><trkpt lat="44.0131133" lon="10.9275309"><ele>717.0</ele><time>2026-05-02T13:41:09.745Z</time></trkpt><trkpt lat="44.0129775" lon="10.9273819"><ele>710.3333333333334</ele><time>2026-05-02T13:41:10.748Z</time></trkpt><trkpt lat="44.0128385" lon="10.9272831"><ele>703.6666666666667</ele><time>2026-05-02T13:41:11.745Z</time></trkpt><trkpt lat="44.0127385" lon="10.9271663"><ele>697.0</ele><time>2026-05-02T13:41:12.75Z</time></trkpt><trkpt lat="44.0125715" lon="10.92715"><ele>695.0</ele><time>2026-05-02T13:41:13.753Z</time></trkpt><trkpt lat="44.012438" lon="10.9271481"><ele>693.0</ele><time>2026-05-02T13:41:14.749Z</time></trkpt><trkpt lat="44.012293" lon="10.9271698"><ele>691.0</ele><time>2026-05-02T13:41:15.754Z</time></trkpt><trkpt lat="44.0121857" lon="10.9271873"><ele>689.0</ele><time>2026-05-02T13:41:16.744Z</time></trkpt><trkpt lat="44.0121013" lon="10.9271978"><ele>689.0</ele><time>2026-05-02T13:41:17.749Z</time></trkpt><trkpt lat="44.01202" lon="10.9272164"><ele>689.0</ele><time>2026-05-02T13:41:18.752Z</time></trkpt><trkpt lat="44.0119522" lon="10.927259"><ele>689.0</ele><time>2026-05-02T13:42:11.749Z</time></trkpt><trkpt lat="44.0118393" lon="10.9272536"><ele>689.0</ele><time>2026-05-02T13:42:13.75Z</time></trkpt><trkpt lat="44.0117716" lon="10.9272354"><ele>689.0</ele><time>2026-05-02T13:42:14.757Z</time></trkpt><trkpt lat="44.0116828" lon="10.9272451"><ele>689.0</ele><time>2026-05-02T13:42:15.751Z</time></trkpt><trkpt lat="44.0114856" lon="10.9271445"><ele>692.0</ele><time>2026-05-02T13:42:16.745Z</time></trkpt><trkpt lat="44.0113526" lon="10.9270327"><ele>695.0</ele><time>2026-05-02T13:42:17.753Z</time></trkpt><trkpt lat="44.0112132" lon="10.9268895"><ele>698.0</ele><time>2026-05-02T13:42:18.753Z</time></trkpt><trkpt lat="44.0110696" lon="10.926728"><ele>694.6666666666666</ele><time>2026-05-02T13:42:19.753Z</time></trkpt><trkpt lat="44.0109356" lon="10.9265543"><ele>691.3333333333334</ele><time>2026-05-02T13:42:20.745Z</time></trkpt><trkpt lat="44.0108058" lon="10.9264082"><ele>688.0</ele><time>2026-05-02T13:42:21.749Z</time></trkpt><trkpt lat="44.0106735" lon="10.92628"><ele>688.0</ele><time>2026-05-02T13:42:22.749Z</time></trkpt><trkpt lat="44.0105224" lon="10.9261665"><ele>688.0</ele><time>2026-05-02T13:42:23.754Z</time></trkpt><trkpt lat="44.0103461" lon="10.9261254"><ele>688.0</ele><time>2026-05-02T13:42:24.751Z</time></trkpt><trkpt lat="44.010176" lon="10.9260822"><ele>688.0</ele><time>2026-05-02T13:42:25.749Z</time></trkpt><trkpt lat="44.0100055" lon="10.9260305"><ele>688.0</ele><time>2026-05-02T13:42:26.751Z</time></trkpt><trkpt lat="44.0098346" lon="10.9259692"><ele>688.0</ele><time>2026-05-02T13:42:27.751Z</time></trkpt><trkpt lat="44.009681" lon="10.9258822"><ele>685.3333333333334</ele><time>2026-05-02T13:42:28.749Z</time></trkpt><trkpt lat="44.0095303" lon="10.9257835"><ele>682.6666666666666</ele><time>2026-05-02T13:42:29.753Z</time></trkpt><trkpt lat="44.0094275" lon="10.9256363"><ele>680.0</ele><time>2026-05-02T13:42:30.747Z</time></trkpt><trkpt lat="44.0092907" lon="10.9255068"><ele>680.0</ele><time>2026-05-02T13:42:31.752Z</time></trkpt><trkpt lat="44.0091715" lon="10.9253035"><ele>680.0</ele><time>2026-05-02T13:42:32.751Z</time></trkpt><trkpt lat="44.0090406" lon="10.9251471"><ele>680.0</ele><time>2026-05-02T13:42:33.757Z</time></trkpt><trkpt lat="44.0088965" lon="10.925"><ele>677.6666666666666</ele><time>2026-05-02T13:42:34.744Z</time></trkpt><trkpt lat="44.0087528" lon="10.9248541"><ele>675.3333333333334</ele><time>2026-05-02T13:42:35.736Z</time></trkpt><trkpt lat="44.0086046" lon="10.924739"><ele>673.0</ele><time>2026-05-02T13:42:36.753Z</time></trkpt><trkpt lat="44.00844" lon="10.9246323"><ele>674.6666666666667</ele><time>2026-05-02T13:42:37.752Z</time></trkpt><trkpt lat="44.0082661" lon="10.9245587"><ele>676.3333333333334</ele><time>2026-05-02T13:42:38.751Z</time></trkpt><trkpt lat="44.0080865" lon="10.9245023"><ele>678.0</ele><time>2026-05-02T13:42:39.752Z</time></trkpt><trkpt lat="44.0079174" lon="10.9244345"><ele>678.0</ele><time>2026-05-02T13:42:40.753Z</time></trkpt><trkpt lat="44.0077537" lon="10.924355"><ele>678.0</ele><time>2026-05-02T13:42:41.748Z</time></trkpt><trkpt lat="44.0076222" lon="10.924205"><ele>678.0</ele><time>2026-05-02T13:42:42.749Z</time></trkpt><trkpt lat="44.0074903" lon="10.9240657"><ele>672.0</ele><time>2026-05-02T13:42:43.746Z</time></trkpt><trkpt lat="44.0073617" lon="10.9239095"><ele>666.0</ele><time>2026-05-02T13:42:44.748Z</time></trkpt><trkpt lat="44.0072183" lon="10.9237682"><ele>660.0</ele><time>2026-05-02T13:42:45.747Z</time></trkpt><trkpt lat="44.0070522" lon="10.9236494"><ele>660.0</ele><time>2026-05-02T13:42:46.748Z</time></trkpt><trkpt lat="44.0068789" lon="10.923556"><ele>660.0</ele><time>2026-05-02T13:42:47.746Z</time></trkpt><trkpt lat="44.0067145" lon="10.9234695"><ele>660.0</ele><time>2026-05-02T13:42:48.764Z</time></trkpt><trkpt lat="44.0065556" lon="10.9233758"><ele>655.0</ele><time>2026-05-02T13:42:49.748Z</time></trkpt><trkpt lat="44.0064021" lon="10.9232593"><ele>650.0</ele><time>2026-05-02T13:42:50.745Z</time></trkpt><trkpt lat="44.0062649" lon="10.9231241"><ele>645.0</ele><time>2026-05-02T13:42:51.74Z</time></trkpt><trkpt lat="44.0061398" lon="10.9229933"><ele>645.0</ele><time>2026-05-02T13:42:52.754Z</time></trkpt><trkpt lat="44.0060536" lon="10.9228077"><ele>645.0</ele><time>2026-05-02T13:42:53.746Z</time></trkpt><trkpt lat="44.0059529" lon="10.9226257"><ele>645.0</ele><time>2026-05-02T13:42:54.746Z</time></trkpt><trkpt lat="44.005842" lon="10.9224396"><ele>639.3333333333334</ele><time>2026-05-02T13:42:55.747Z</time></trkpt><trkpt lat="44.0057343" lon="10.9222536"><ele>633.6666666666667</ele><time>2026-05-02T13:42:56.747Z</time></trkpt><trkpt lat="44.0056267" lon="10.9220812"><ele>628.0</ele><time>2026-05-02T13:42:57.753Z</time></trkpt><trkpt lat="44.0055252" lon="10.9219041"><ele>628.0</ele><time>2026-05-02T13:42:58.742Z</time></trkpt><trkpt lat="44.0054233" lon="10.9217326"><ele>628.0</ele><time>2026-05-02T13:42:59.748Z</time></trkpt><trkpt lat="44.0053269" lon="10.9215623"><ele>628.0</ele><time>2026-05-02T13:43:00.748Z</time></trkpt><trkpt lat="44.0052301" lon="10.9213933"><ele>627.0</ele><time>2026-05-02T13:43:01.753Z</time></trkpt><trkpt lat="44.0051314" lon="10.9212349"><ele>626.0</ele><time>2026-05-02T13:43:02.745Z</time></trkpt><trkpt lat="44.0050341" lon="10.9210736"><ele>625.0</ele><time>2026-05-02T13:43:03.744Z</time></trkpt><trkpt lat="44.0049275" lon="10.9209264"><ele>621.75</ele><time>2026-05-02T13:43:04.743Z</time></trkpt><trkpt lat="44.004828" lon="10.9207915"><ele>618.5</ele><time>2026-05-02T13:43:05.744Z</time></trkpt><trkpt lat="44.0047226" lon="10.9206576"><ele>615.25</ele><time>2026-05-02T13:43:06.746Z</time></trkpt><trkpt lat="44.0046197" lon="10.9205149"><ele>612.0</ele><time>2026-05-02T13:43:07.735Z</time></trkpt><trkpt lat="44.0045192" lon="10.9203686"><ele>612.0</ele><time>2026-05-02T13:43:08.75Z</time></trkpt><trkpt lat="44.0044118" lon="10.9202311"><ele>612.0</ele><time>2026-05-02T13:43:09.751Z</time></trkpt><trkpt lat="44.0043002" lon="10.9201052"><ele>612.0</ele><time>2026-05-02T13:43:10.752Z</time></trkpt><trkpt lat="44.0041763" lon="10.9199924"><ele>612.0</ele><time>2026-05-02T13:43:11.758Z</time></trkpt><trkpt lat="44.0040391" lon="10.9199052"><ele>616.3333333333334</ele><time>2026-05-02T13:43:12.749Z</time></trkpt><trkpt lat="44.0038789" lon="10.9199035"><ele>620.6666666666667</ele><time>2026-05-02T13:43:13.744Z</time></trkpt><trkpt lat="44.0037351" lon="10.9198417"><ele>625.0</ele><time>2026-05-02T13:43:14.743Z</time></trkpt><trkpt lat="44.0036043" lon="10.9197736"><ele>625.0</ele><time>2026-05-02T13:43:15.733Z</time></trkpt><trkpt lat="44.0034883" lon="10.9197401"><ele>625.0</ele><time>2026-05-02T13:43:16.745Z</time></trkpt><trkpt lat="44.0033025" lon="10.919704"><ele>625.0</ele><time>2026-05-02T13:43:17.748Z</time></trkpt><trkpt lat="44.0031593" lon="10.9197679"><ele>620.6666666666667</ele><time>2026-05-02T13:43:18.745Z</time></trkpt><trkpt lat="44.0029857" lon="10.9198723"><ele>616.3333333333334</ele><time>2026-05-02T13:43:19.743Z</time></trkpt><trkpt lat="44.0028283" lon="10.9198794"><ele>612.0</ele><time>2026-05-02T13:43:20.754Z</time></trkpt><trkpt lat="44.002667" lon="10.9198253"><ele>612.0</ele><time>2026-05-02T13:43:21.745Z</time></trkpt><trkpt lat="44.0025402" lon="10.9197157"><ele>612.0</ele><time>2026-05-02T13:43:22.753Z</time></trkpt><trkpt lat="44.0023751" lon="10.9196202"><ele>612.0</ele><time>2026-05-02T13:43:23.744Z</time></trkpt><trkpt lat="44.002225" lon="10.9194644"><ele>609.0</ele><time>2026-05-02T13:43:24.745Z</time></trkpt><trkpt lat="44.0021278" lon="10.9193058"><ele>606.0</ele><time>2026-05-02T13:43:25.756Z</time></trkpt><trkpt lat="44.0020486" lon="10.9191291"><ele>603.0</ele><time>2026-05-02T13:43:26.761Z</time></trkpt><trkpt lat="44.0019733" lon="10.9189805"><ele>600.0</ele><time>2026-05-02T13:43:27.745Z</time></trkpt><trkpt lat="44.001913" lon="10.9188119"><ele>600.0</ele><time>2026-05-02T13:43:28.754Z</time></trkpt><trkpt lat="44.00191" lon="10.9186181"><ele>600.0</ele><time>2026-05-02T13:43:29.748Z</time></trkpt><trkpt lat="44.0018627" lon="10.9184201"><ele>600.0</ele><time>2026-05-02T13:43:30.744Z</time></trkpt><trkpt lat="44.0017822" lon="10.918246"><ele>600.0</ele><time>2026-05-02T13:43:31.747Z</time></trkpt><trkpt lat="44.0016697" lon="10.9180856"><ele>597.5</ele><time>2026-05-02T13:43:32.742Z</time></trkpt><trkpt lat="44.0015826" lon="10.9179029"><ele>595.0</ele><time>2026-05-02T13:43:33.745Z</time></trkpt><trkpt lat="44.0015232" lon="10.9177153"><ele>592.5</ele><time>2026-05-02T13:43:34.745Z</time></trkpt><trkpt lat="44.0014846" lon="10.9175406"><ele>590.0</ele><time>2026-05-02T13:43:35.75Z</time></trkpt><trkpt lat="44.0014407" lon="10.9173726"><ele>590.0</ele><time>2026-05-02T13:43:36.745Z</time></trkpt><trkpt lat="44.0014335" lon="10.9172029"><ele>590.0</ele><time>2026-05-02T13:43:37.747Z</time></trkpt><trkpt lat="44.001437" lon="10.9170163"><ele>590.0</ele><time>2026-05-02T13:43:38.75Z</time></trkpt><trkpt lat="44.0014998" lon="10.9168057"><ele>590.0</ele><time>2026-05-02T13:43:39.761Z</time></trkpt><trkpt lat="44.0016237" lon="10.9165926"><ele>592.0</ele><time>2026-05-02T13:43:40.756Z</time></trkpt><trkpt lat="44.0017994" lon="10.9164932"><ele>594.0</ele><time>2026-05-02T13:43:41.754Z</time></trkpt><trkpt lat="44.0020257" lon="10.9164161"><ele>596.0</ele><time>2026-05-02T13:43:42.745Z</time></trkpt><trkpt lat="44.0022011" lon="10.9163735"><ele>596.0</ele><time>2026-05-02T13:43:43.745Z</time></trkpt><trkpt lat="44.0024708" lon="10.9164341"><ele>596.0</ele><time>2026-05-02T13:43:44.745Z</time></trkpt><trkpt lat="44.0026" lon="10.9163762"><ele>596.0</ele><time>2026-05-02T13:43:45.743Z</time></trkpt><trkpt lat="44.0026796" lon="10.916259"><ele>596.0</ele><time>2026-05-02T13:43:46.739Z</time></trkpt><trkpt lat="44.0027403" lon="10.9161652"><ele>596.0</ele><time>2026-05-02T13:43:47.747Z</time></trkpt><trkpt lat="44.0027427" lon="10.9160705"><ele>596.0</ele><time>2026-05-02T13:43:48.755Z</time></trkpt><trkpt lat="44.0027452" lon="10.9159626"><ele>596.0</ele><time>2026-05-02T13:43:49.745Z</time></trkpt><trkpt lat="44.0026764" lon="10.9158678"><ele>596.0</ele><time>2026-05-02T13:43:50.75Z</time></trkpt><trkpt lat="44.0024702" lon="10.9159411"><ele>596.0</ele><time>2026-05-02T13:43:51.743Z</time></trkpt><trkpt lat="44.0023189" lon="10.9159621"><ele>596.0</ele><time>2026-05-02T13:43:52.744Z</time></trkpt><trkpt lat="44.0021671" lon="10.9159771"><ele>596.0</ele><time>2026-05-02T13:43:53.733Z</time></trkpt><trkpt lat="44.0020107" lon="10.916066"><ele>596.0</ele><time>2026-05-02T13:43:54.749Z</time></trkpt><trkpt lat="44.0018213" lon="10.9162087"><ele>596.0</ele><time>2026-05-02T13:43:55.744Z</time></trkpt><trkpt lat="44.0016521" lon="10.9163401"><ele>596.0</ele><time>2026-05-02T13:43:56.746Z</time></trkpt><trkpt lat="44.001488" lon="10.9164657"><ele>594.0</ele><time>2026-05-02T13:43:57.749Z</time></trkpt><trkpt lat="44.0013193" lon="10.9165913"><ele>592.0</ele><time>2026-05-02T13:43:58.747Z</time></trkpt><trkpt lat="44.001162" lon="10.9167315"><ele>590.0</ele><time>2026-05-02T13:43:59.747Z</time></trkpt><trkpt lat="44.0009985" lon="10.9168631"><ele>590.0</ele><time>2026-05-02T13:44:00.749Z</time></trkpt><trkpt lat="44.0008454" lon="10.9169856"><ele>590.0</ele><time>2026-05-02T13:44:01.751Z</time></trkpt><trkpt lat="44.0006978" lon="10.9171164"><ele>590.0</ele><time>2026-05-02T13:44:02.755Z</time></trkpt><trkpt lat="44.000552" lon="10.9172409"><ele>584.6666666666666</ele><time>2026-05-02T13:44:03.747Z</time></trkpt><trkpt lat="44.0004199" lon="10.9173833"><ele>579.3333333333334</ele><time>2026-05-02T13:44:04.751Z</time></trkpt><trkpt lat="44.0002985" lon="10.9174979"><ele>574.0</ele><time>2026-05-02T13:44:05.743Z</time></trkpt><trkpt lat="44.0001851" lon="10.9176257"><ele>574.0</ele><time>2026-05-02T13:44:06.746Z</time></trkpt><trkpt lat="44.0000725" lon="10.9177574"><ele>574.0</ele><time>2026-05-02T13:44:07.742Z</time></trkpt><trkpt lat="43.9999848" lon="10.9178945"><ele>574.0</ele><time>2026-05-02T13:44:08.741Z</time></trkpt><trkpt lat="43.9998952" lon="10.9180348"><ele>574.0</ele><time>2026-05-02T13:44:09.753Z</time></trkpt><trkpt lat="43.9997946" lon="10.9181734"><ele>574.0</ele><time>2026-05-02T13:44:10.743Z</time></trkpt><trkpt lat="43.9996931" lon="10.9182976"><ele>574.0</ele><time>2026-05-02T13:44:11.749Z</time></trkpt><trkpt lat="43.9995935" lon="10.9184146"><ele>574.0</ele><time>2026-05-02T13:44:12.749Z</time></trkpt><trkpt lat="43.9995012" lon="10.918529"><ele>574.0</ele><time>2026-05-02T13:44:13.747Z</time></trkpt><trkpt lat="43.9993843" lon="10.9186301"><ele>569.25</ele><time>2026-05-02T13:44:14.742Z</time></trkpt><trkpt lat="43.9992489" lon="10.9187061"><ele>564.5</ele><time>2026-05-02T13:44:15.743Z</time></trkpt><trkpt lat="43.9991071" lon="10.9187756"><ele>559.75</ele><time>2026-05-02T13:44:16.748Z</time></trkpt><trkpt lat="43.9989599" lon="10.9187963"><ele>555.0</ele><time>2026-05-02T13:44:17.746Z</time></trkpt><trkpt lat="43.9987653" lon="10.9187919"><ele>555.0</ele><time>2026-05-02T13:44:18.744Z</time></trkpt><trkpt lat="43.998604" lon="10.9188097"><ele>555.0</ele><time>2026-05-02T13:44:19.745Z</time></trkpt><trkpt lat="43.9984308" lon="10.9188185"><ele>555.0</ele><time>2026-05-02T13:44:20.736Z</time></trkpt><trkpt lat="43.9982786" lon="10.9188275"><ele>557.3333333333334</ele><time>2026-05-02T13:44:21.752Z</time></trkpt><trkpt lat="43.998113" lon="10.9189041"><ele>559.6666666666667</ele><time>2026-05-02T13:44:22.75Z</time></trkpt><trkpt lat="43.9979765" lon="10.9189886"><ele>562.0</ele><time>2026-05-02T13:44:23.757Z</time></trkpt><trkpt lat="43.9978469" lon="10.9190837"><ele>559.6666666666667</ele><time>2026-05-02T13:44:24.748Z</time></trkpt><trkpt lat="43.9977395" lon="10.9192482"><ele>557.3333333333334</ele><time>2026-05-02T13:44:25.748Z</time></trkpt><trkpt lat="43.9976224" lon="10.9193765"><ele>555.0</ele><time>2026-05-02T13:44:26.749Z</time></trkpt><trkpt lat="43.9975006" lon="10.9194758"><ele>555.0</ele><time>2026-05-02T13:44:27.744Z</time></trkpt><trkpt lat="43.9973764" lon="10.9195855"><ele>555.0</ele><time>2026-05-02T13:44:28.752Z</time></trkpt><trkpt lat="43.9972111" lon="10.9195495"><ele>555.0</ele><time>2026-05-02T13:44:29.759Z</time></trkpt><trkpt lat="43.9970693" lon="10.9195047"><ele>555.0</ele><time>2026-05-02T13:44:30.748Z</time></trkpt><trkpt lat="43.9969304" lon="10.9194437"><ele>555.0</ele><time>2026-05-02T13:44:31.752Z</time></trkpt><trkpt lat="43.9967933" lon="10.9193303"><ele>555.0</ele><time>2026-05-02T13:44:32.751Z</time></trkpt><trkpt lat="43.9966475" lon="10.9192098"><ele>555.0</ele><time>2026-05-02T13:44:33.753Z</time></trkpt><trkpt lat="43.9965313" lon="10.9189974"><ele>555.0</ele><time>2026-05-02T13:44:34.743Z</time></trkpt><trkpt lat="43.9963975" lon="10.9187829"><ele>555.0</ele><time>2026-05-02T13:44:35.751Z</time></trkpt><trkpt lat="43.9962759" lon="10.9185806"><ele>560.6666666666666</ele><time>2026-05-02T13:44:36.756Z</time></trkpt><trkpt lat="43.9961643" lon="10.9183722"><ele>566.3333333333333</ele><time>2026-05-02T13:44:37.745Z</time></trkpt><trkpt lat="43.9960525" lon="10.918165"><ele>572.0</ele><time>2026-05-02T13:44:38.748Z</time></trkpt><trkpt lat="43.995942" lon="10.9179733"><ele>572.0</ele><time>2026-05-02T13:44:39.741Z</time></trkpt><trkpt lat="43.9958373" lon="10.9177838"><ele>572.0</ele><time>2026-05-02T13:44:40.741Z</time></trkpt><trkpt lat="43.995732" lon="10.9176044"><ele>572.0</ele><time>2026-05-02T13:44:41.745Z</time></trkpt><trkpt lat="43.9956236" lon="10.9174152"><ele>566.6666666666666</ele><time>2026-05-02T13:44:42.743Z</time></trkpt><trkpt lat="43.9955096" lon="10.9172245"><ele>561.3333333333334</ele><time>2026-05-02T13:44:43.742Z</time></trkpt><trkpt lat="43.9953793" lon="10.9170355"><ele>556.0</ele><time>2026-05-02T13:44:44.76Z</time></trkpt><trkpt lat="43.9952389" lon="10.9168619"><ele>559.3333333333334</ele><time>2026-05-02T13:44:45.748Z</time></trkpt><trkpt lat="43.9950997" lon="10.9166585"><ele>562.6666666666666</ele><time>2026-05-02T13:44:46.754Z</time></trkpt><trkpt lat="43.9949491" lon="10.9164616"><ele>566.0</ele><time>2026-05-02T13:44:47.748Z</time></trkpt><trkpt lat="43.9948056" lon="10.9162595"><ele>561.3333333333333</ele><time>2026-05-02T13:44:48.746Z</time></trkpt><trkpt lat="43.9946481" lon="10.91606"><ele>556.6666666666666</ele><time>2026-05-02T13:44:49.745Z</time></trkpt><trkpt lat="43.9945029" lon="10.9158542"><ele>552.0</ele><time>2026-05-02T13:44:50.748Z</time></trkpt><trkpt lat="43.9943546" lon="10.9156628"><ele>552.0</ele><time>2026-05-02T13:44:51.741Z</time></trkpt><trkpt lat="43.9942012" lon="10.9155015"><ele>552.0</ele><time>2026-05-02T13:44:52.752Z</time></trkpt><trkpt lat="43.9940416" lon="10.9153554"><ele>552.0</ele><time>2026-05-02T13:44:53.746Z</time></trkpt><trkpt lat="43.9939242" lon="10.9151588"><ele>548.0</ele><time>2026-05-02T13:44:54.745Z</time></trkpt><trkpt lat="43.993773" lon="10.9150229"><ele>544.0</ele><time>2026-05-02T13:44:55.755Z</time></trkpt><trkpt lat="43.9936511" lon="10.9148541"><ele>540.0</ele><time>2026-05-02T13:44:56.745Z</time></trkpt><trkpt lat="43.9935262" lon="10.9147078"><ele>540.0</ele><time>2026-05-02T13:44:57.732Z</time></trkpt><trkpt lat="43.9933591" lon="10.9146211"><ele>540.0</ele><time>2026-05-02T13:44:58.75Z</time></trkpt><trkpt lat="43.9932008" lon="10.9145127"><ele>540.0</ele><time>2026-05-02T13:44:59.756Z</time></trkpt><trkpt lat="43.9930364" lon="10.9144121"><ele>539.3333333333334</ele><time>2026-05-02T13:45:00.749Z</time></trkpt><trkpt lat="43.992875" lon="10.9143146"><ele>538.6666666666667</ele><time>2026-05-02T13:45:01.753Z</time></trkpt><trkpt lat="43.9927265" lon="10.9142078"><ele>538.0</ele><time>2026-05-02T13:45:02.749Z</time></trkpt><trkpt lat="43.9925836" lon="10.9141136"><ele>531.3333333333334</ele><time>2026-05-02T13:45:03.745Z</time></trkpt><trkpt lat="43.9924374" lon="10.9140116"><ele>524.6666666666666</ele><time>2026-05-02T13:45:04.753Z</time></trkpt><trkpt lat="43.9923023" lon="10.913912"><ele>518.0</ele><time>2026-05-02T13:45:05.744Z</time></trkpt><trkpt lat="43.9921628" lon="10.9138181"><ele>518.0</ele><time>2026-05-02T13:45:06.751Z</time></trkpt><trkpt lat="43.9920184" lon="10.9137284"><ele>518.0</ele><time>2026-05-02T13:45:07.741Z</time></trkpt><trkpt lat="43.9918863" lon="10.9136172"><ele>518.0</ele><time>2026-05-02T13:45:08.747Z</time></trkpt><trkpt lat="43.9917608" lon="10.9134957"><ele>518.0</ele><time>2026-05-02T13:45:09.74Z</time></trkpt><trkpt lat="43.9916388" lon="10.9133539"><ele>518.0</ele><time>2026-05-02T13:45:10.739Z</time></trkpt><trkpt lat="43.9915133" lon="10.9132216"><ele>518.0</ele><time>2026-05-02T13:45:11.754Z</time></trkpt><trkpt lat="43.9913918" lon="10.9130586"><ele>518.0</ele><time>2026-05-02T13:45:12.742Z</time></trkpt><trkpt lat="43.9912465" lon="10.9130081"><ele>518.0</ele><time>2026-05-02T13:45:13.745Z</time></trkpt><trkpt lat="43.9911033" lon="10.912933"><ele>518.0</ele><time>2026-05-02T13:45:14.749Z</time></trkpt><trkpt lat="43.9909625" lon="10.912865"><ele>510.3333333333333</ele><time>2026-05-02T13:45:15.749Z</time></trkpt><trkpt lat="43.9908329" lon="10.9127734"><ele>502.66666666666663</ele><time>2026-05-02T13:45:16.743Z</time></trkpt><trkpt lat="43.9906768" lon="10.9127058"><ele>495.0</ele><time>2026-05-02T13:45:17.745Z</time></trkpt><trkpt lat="43.990522" lon="10.9126369"><ele>494.75</ele><time>2026-05-02T13:45:18.755Z</time></trkpt><trkpt lat="43.9903977" lon="10.9125192"><ele>494.5</ele><time>2026-05-02T13:45:19.749Z</time></trkpt><trkpt lat="43.9902684" lon="10.9124374"><ele>494.25</ele><time>2026-05-02T13:45:20.757Z</time></trkpt><trkpt lat="43.9901427" lon="10.9123342"><ele>494.0</ele><time>2026-05-02T13:45:21.748Z</time></trkpt><trkpt lat="43.9900074" lon="10.9122429"><ele>494.0</ele><time>2026-05-02T13:45:22.745Z</time></trkpt><trkpt lat="43.98988" lon="10.9121396"><ele>494.0</ele><time>2026-05-02T13:45:23.744Z</time></trkpt><trkpt lat="43.9897536" lon="10.9120227"><ele>494.0</ele><time>2026-05-02T13:45:24.746Z</time></trkpt><trkpt lat="43.9896394" lon="10.9119149"><ele>494.0</ele><time>2026-05-02T13:45:25.747Z</time></trkpt><trkpt lat="43.9895354" lon="10.911786"><ele>496.25</ele><time>2026-05-02T13:45:26.745Z</time></trkpt><trkpt lat="43.9894333" lon="10.911652"><ele>498.5</ele><time>2026-05-02T13:45:27.753Z</time></trkpt><trkpt lat="43.9893384" lon="10.9114866"><ele>500.75</ele><time>2026-05-02T13:45:28.748Z</time></trkpt><trkpt lat="43.9892752" lon="10.9112894"><ele>503.0</ele><time>2026-05-02T13:45:29.745Z</time></trkpt><trkpt lat="43.9892228" lon="10.9110958"><ele>501.0</ele><time>2026-05-02T13:45:30.758Z</time></trkpt><trkpt lat="43.9891711" lon="10.9109107"><ele>499.0</ele><time>2026-05-02T13:45:31.749Z</time></trkpt><trkpt lat="43.9891175" lon="10.910714"><ele>497.0</ele><time>2026-05-02T13:45:32.743Z</time></trkpt><trkpt lat="43.9890485" lon="10.9105416"><ele>495.0</ele><time>2026-05-02T13:45:33.746Z</time></trkpt><trkpt lat="43.9889692" lon="10.9103965"><ele>495.0</ele><time>2026-05-02T13:45:34.744Z</time></trkpt><trkpt lat="43.9888844" lon="10.9102692"><ele>495.0</ele><time>2026-05-02T13:45:35.746Z</time></trkpt><trkpt lat="43.9887729" lon="10.9102169"><ele>495.0</ele><time>2026-05-02T13:45:36.751Z</time></trkpt><trkpt lat="43.9886715" lon="10.9101998"><ele>495.0</ele><time>2026-05-02T13:45:37.754Z</time></trkpt><trkpt lat="43.9885623" lon="10.9101675"><ele>495.0</ele><time>2026-05-02T13:45:38.743Z</time></trkpt><trkpt lat="43.9884625" lon="10.9101905"><ele>495.0</ele><time>2026-05-02T13:45:39.744Z</time></trkpt><trkpt lat="43.9883884" lon="10.9103658"><ele>495.0</ele><time>2026-05-02T13:45:40.746Z</time></trkpt><trkpt lat="43.9883648" lon="10.9105338"><ele>495.0</ele><time>2026-05-02T13:45:41.749Z</time></trkpt><trkpt lat="43.9883596" lon="10.9106891"><ele>495.0</ele><time>2026-05-02T13:45:42.742Z</time></trkpt><trkpt lat="43.9883768" lon="10.9108697"><ele>495.0</ele><time>2026-05-02T13:45:43.745Z</time></trkpt><trkpt lat="43.9884076" lon="10.9110368"><ele>495.0</ele><time>2026-05-02T13:45:44.743Z</time></trkpt><trkpt lat="43.9884558" lon="10.9112158"><ele>495.0</ele><time>2026-05-02T13:45:45.745Z</time></trkpt><trkpt lat="43.9885097" lon="10.9114028"><ele>494.25</ele><time>2026-05-02T13:45:46.742Z</time></trkpt><trkpt lat="43.9885782" lon="10.9115757"><ele>493.5</ele><time>2026-05-02T13:45:47.744Z</time></trkpt><trkpt lat="43.9886609" lon="10.9117369"><ele>492.75</ele><time>2026-05-02T13:45:48.747Z</time></trkpt><trkpt lat="43.9887529" lon="10.9118915"><ele>492.0</ele><time>2026-05-02T13:45:49.753Z</time></trkpt><trkpt lat="43.9888315" lon="10.912033"><ele>487.75</ele><time>2026-05-02T13:45:50.749Z</time></trkpt><trkpt lat="43.9889155" lon="10.9121785"><ele>483.5</ele><time>2026-05-02T13:45:51.744Z</time></trkpt><trkpt lat="43.9889977" lon="10.912329"><ele>479.25</ele><time>2026-05-02T13:45:52.746Z</time></trkpt><trkpt lat="43.9890714" lon="10.9124821"><ele>475.0</ele><time>2026-05-02T13:45:53.747Z</time></trkpt><trkpt lat="43.9891138" lon="10.9126353"><ele>476.0</ele><time>2026-05-02T13:45:54.744Z</time></trkpt><trkpt lat="43.989185" lon="10.9127901"><ele>477.0</ele><time>2026-05-02T13:45:55.771Z</time></trkpt><trkpt lat="43.9892337" lon="10.9129553"><ele>478.0</ele><time>2026-05-02T13:45:56.739Z</time></trkpt><trkpt lat="43.9892663" lon="10.913128"><ele>479.0</ele><time>2026-05-02T13:45:57.744Z</time></trkpt><trkpt lat="43.9893033" lon="10.9133027"><ele>474.5</ele><time>2026-05-02T13:45:58.748Z</time></trkpt><trkpt lat="43.9893288" lon="10.9134874"><ele>470.0</ele><time>2026-05-02T13:45:59.744Z</time></trkpt><trkpt lat="43.9893449" lon="10.9136862"><ele>465.5</ele><time>2026-05-02T13:46:00.751Z</time></trkpt><trkpt lat="43.989348" lon="10.9138841"><ele>461.0</ele><time>2026-05-02T13:46:01.745Z</time></trkpt><trkpt lat="43.9893462" lon="10.9140753"><ele>454.66666666666663</ele><time>2026-05-02T13:46:02.745Z</time></trkpt><trkpt lat="43.989345" lon="10.9142958"><ele>448.33333333333337</ele><time>2026-05-02T13:46:03.744Z</time></trkpt><trkpt lat="43.9893353" lon="10.914489"><ele>442.0</ele><time>2026-05-02T13:46:04.744Z</time></trkpt><trkpt lat="43.989317" lon="10.9146984"><ele>442.0</ele><time>2026-05-02T13:46:05.741Z</time></trkpt><trkpt lat="43.9893036" lon="10.9148928"><ele>442.0</ele><time>2026-05-02T13:46:06.747Z</time></trkpt><trkpt lat="43.9892861" lon="10.9150767"><ele>442.0</ele><time>2026-05-02T13:46:07.745Z</time></trkpt><trkpt lat="43.9892506" lon="10.9152483"><ele>442.0</ele><time>2026-05-02T13:46:08.743Z</time></trkpt><trkpt lat="43.989189" lon="10.9154133"><ele>445.75</ele><time>2026-05-02T13:46:09.748Z</time></trkpt><trkpt lat="43.989124" lon="10.9155575"><ele>449.5</ele><time>2026-05-02T13:46:10.754Z</time></trkpt><trkpt lat="43.9890351" lon="10.9156741"><ele>453.25</ele><time>2026-05-02T13:46:11.74Z</time></trkpt><trkpt lat="43.988931" lon="10.9157711"><ele>457.0</ele><time>2026-05-02T13:46:12.744Z</time></trkpt><trkpt lat="43.9888377" lon="10.9158825"><ele>457.0</ele><time>2026-05-02T13:46:13.746Z</time></trkpt><trkpt lat="43.9886576" lon="10.9158894"><ele>457.0</ele><time>2026-05-02T13:46:14.743Z</time></trkpt><trkpt lat="43.9885087" lon="10.9159116"><ele>457.0</ele><time>2026-05-02T13:46:15.749Z</time></trkpt><trkpt lat="43.9883617" lon="10.9159205"><ele>457.0</ele><time>2026-05-02T13:46:16.745Z</time></trkpt><trkpt lat="43.9882287" lon="10.9158575"><ele>457.0</ele><time>2026-05-02T13:46:17.748Z</time></trkpt><trkpt lat="43.9880819" lon="10.9157904"><ele>457.0</ele><time>2026-05-02T13:46:18.745Z</time></trkpt><trkpt lat="43.9879464" lon="10.9156986"><ele>457.0</ele><time>2026-05-02T13:46:19.741Z</time></trkpt><trkpt lat="43.9878124" lon="10.91562"><ele>457.0</ele><time>2026-05-02T13:46:20.742Z</time></trkpt><trkpt lat="43.9876931" lon="10.9154936"><ele>457.0</ele><time>2026-05-02T13:46:21.745Z</time></trkpt><trkpt lat="43.9875884" lon="10.9153649"><ele>457.0</ele><time>2026-05-02T13:46:22.747Z</time></trkpt><trkpt lat="43.9874968" lon="10.9152245"><ele>457.0</ele><time>2026-05-02T13:46:23.743Z</time></trkpt><trkpt lat="43.9874082" lon="10.9150972"><ele>455.5</ele><time>2026-05-02T13:46:24.738Z</time></trkpt><trkpt lat="43.9873319" lon="10.9149514"><ele>454.0</ele><time>2026-05-02T13:46:25.737Z</time></trkpt><trkpt lat="43.9873266" lon="10.9147807"><ele>452.5</ele><time>2026-05-02T13:46:26.749Z</time></trkpt><trkpt lat="43.9873157" lon="10.9146125"><ele>451.0</ele><time>2026-05-02T13:46:27.738Z</time></trkpt><trkpt lat="43.9872952" lon="10.9144604"><ele>453.33333333333337</ele><time>2026-05-02T13:46:28.735Z</time></trkpt><trkpt lat="43.9873325" lon="10.9142123"><ele>455.66666666666663</ele><time>2026-05-02T13:46:29.751Z</time></trkpt><trkpt lat="43.9873976" lon="10.9140052"><ele>458.0</ele><time>2026-05-02T13:46:30.752Z</time></trkpt><trkpt lat="43.987602" lon="10.9139665"><ele>458.0</ele><time>2026-05-02T13:46:31.75Z</time></trkpt><trkpt lat="43.9877413" lon="10.9138677"><ele>458.0</ele><time>2026-05-02T13:46:32.747Z</time></trkpt><trkpt lat="43.9878618" lon="10.9137553"><ele>458.0</ele><time>2026-05-02T13:46:33.751Z</time></trkpt><trkpt lat="43.9879872" lon="10.913648"><ele>458.0</ele><time>2026-05-02T13:46:34.754Z</time></trkpt><trkpt lat="43.9881001" lon="10.9135373"><ele>458.0</ele><time>2026-05-02T13:46:35.76Z</time></trkpt><trkpt lat="43.9882215" lon="10.9134665"><ele>458.0</ele><time>2026-05-02T13:46:36.746Z</time></trkpt><trkpt lat="43.9883525" lon="10.9134124"><ele>458.0</ele><time>2026-05-02T13:46:37.75Z</time></trkpt><trkpt lat="43.9884848" lon="10.9133734"><ele>458.0</ele><time>2026-05-02T13:46:38.733Z</time></trkpt><trkpt lat="43.9885074" lon="10.9131938"><ele>461.66666666666663</ele><time>2026-05-02T13:46:39.741Z</time></trkpt><trkpt lat="43.9885298" lon="10.9130543"><ele>465.33333333333337</ele><time>2026-05-02T13:46:40.743Z</time></trkpt><trkpt lat="43.9883536" lon="10.9128669"><ele>469.0</ele><time>2026-05-02T13:46:41.762Z</time></trkpt><trkpt lat="43.9882536" lon="10.9127138"><ele>464.75</ele><time>2026-05-02T13:46:42.748Z</time></trkpt><trkpt lat="43.988164" lon="10.9125685"><ele>460.5</ele><time>2026-05-02T13:46:43.748Z</time></trkpt><trkpt lat="43.9880817" lon="10.9124344"><ele>456.25</ele><time>2026-05-02T13:46:44.748Z</time></trkpt><trkpt lat="43.9879912" lon="10.9123041"><ele>452.0</ele><time>2026-05-02T13:46:45.751Z</time></trkpt><trkpt lat="43.9878994" lon="10.9121808"><ele>452.0</ele><time>2026-05-02T13:46:46.751Z</time></trkpt><trkpt lat="43.987787" lon="10.9120801"><ele>452.0</ele><time>2026-05-02T13:46:47.748Z</time></trkpt><trkpt lat="43.987685" lon="10.9119683"><ele>452.0</ele><time>2026-05-02T13:46:48.754Z</time></trkpt><trkpt lat="43.9875691" lon="10.9118673"><ele>452.0</ele><time>2026-05-02T13:46:49.742Z</time></trkpt><trkpt lat="43.9874557" lon="10.9117682"><ele>450.0</ele><time>2026-05-02T13:46:50.76Z</time></trkpt><trkpt lat="43.9873487" lon="10.9116728"><ele>448.0</ele><time>2026-05-02T13:46:51.751Z</time></trkpt><trkpt lat="43.9872484" lon="10.9115674"><ele>446.0</ele><time>2026-05-02T13:46:52.746Z</time></trkpt><trkpt lat="43.987145" lon="10.9114771"><ele>444.0</ele><time>2026-05-02T13:46:53.748Z</time></trkpt><trkpt lat="43.9870428" lon="10.9113777"><ele>444.0</ele><time>2026-05-02T13:46:54.752Z</time></trkpt><trkpt lat="43.9869493" lon="10.9112786"><ele>444.0</ele><time>2026-05-02T13:46:55.752Z</time></trkpt><trkpt lat="43.9868579" lon="10.9111771"><ele>444.0</ele><time>2026-05-02T13:46:56.746Z</time></trkpt><trkpt lat="43.9867823" lon="10.9110676"><ele>444.0</ele><time>2026-05-02T13:46:57.744Z</time></trkpt><trkpt lat="43.9867251" lon="10.9109292"><ele>439.25</ele><time>2026-05-02T13:46:58.756Z</time></trkpt><trkpt lat="43.9866404" lon="10.9108035"><ele>434.5</ele><time>2026-05-02T13:46:59.76Z</time></trkpt><trkpt lat="43.9865871" lon="10.9106582"><ele>429.75</ele><time>2026-05-02T13:47:00.749Z</time></trkpt><trkpt lat="43.9865695" lon="10.9104942"><ele>425.0</ele><time>2026-05-02T13:47:01.741Z</time></trkpt><trkpt lat="43.9865812" lon="10.9103324"><ele>425.0</ele><time>2026-05-02T13:47:02.748Z</time></trkpt><trkpt lat="43.986633" lon="10.9101664"><ele>425.0</ele><time>2026-05-02T13:47:03.75Z</time></trkpt><trkpt lat="43.9866874" lon="10.9100228"><ele>425.0</ele><time>2026-05-02T13:47:04.746Z</time></trkpt><trkpt lat="43.9867366" lon="10.9098817"><ele>425.0</ele><time>2026-05-02T13:47:05.746Z</time></trkpt><trkpt lat="43.986761" lon="10.9097342"><ele>425.8</ele><time>2026-05-02T13:47:06.756Z</time></trkpt><trkpt lat="43.986734" lon="10.9096074"><ele>426.6</ele><time>2026-05-02T13:47:07.754Z</time></trkpt><trkpt lat="43.986688" lon="10.9095064"><ele>427.4</ele><time>2026-05-02T13:47:08.75Z</time></trkpt><trkpt lat="43.9866262" lon="10.9094255"><ele>428.2</ele><time>2026-05-02T13:47:09.763Z</time></trkpt><trkpt lat="43.9865495" lon="10.9093657"><ele>429.0</ele><time>2026-05-02T13:47:10.743Z</time></trkpt><trkpt lat="43.9864232" lon="10.909328"><ele>429.0</ele><time>2026-05-02T13:47:11.748Z</time></trkpt><trkpt lat="43.9862523" lon="10.9093594"><ele>429.0</ele><time>2026-05-02T13:47:12.749Z</time></trkpt><trkpt lat="43.9860957" lon="10.9093416"><ele>429.0</ele><time>2026-05-02T13:47:13.76Z</time></trkpt><trkpt lat="43.9859331" lon="10.9093885"><ele>420.33333333333337</ele><time>2026-05-02T13:47:14.751Z</time></trkpt><trkpt lat="43.9857914" lon="10.9093868"><ele>411.6666666666667</ele><time>2026-05-02T13:47:15.761Z</time></trkpt><trkpt lat="43.9856335" lon="10.9093331"><ele>403.0</ele><time>2026-05-02T13:47:16.759Z</time></trkpt><trkpt lat="43.9854929" lon="10.9092774"><ele>404.5</ele><time>2026-05-02T13:47:17.761Z</time></trkpt><trkpt lat="43.985352" lon="10.9092249"><ele>406.0</ele><time>2026-05-02T13:47:18.749Z</time></trkpt><trkpt lat="43.9852103" lon="10.9091771"><ele>407.5</ele><time>2026-05-02T13:47:19.761Z</time></trkpt><trkpt lat="43.9850661" lon="10.9091185"><ele>409.0</ele><time>2026-05-02T13:47:20.748Z</time></trkpt><trkpt lat="43.9849164" lon="10.9090571"><ele>409.0</ele><time>2026-05-02T13:47:21.745Z</time></trkpt><trkpt lat="43.984769" lon="10.9090009"><ele>409.0</ele><time>2026-05-02T13:47:22.745Z</time></trkpt><trkpt lat="43.9846383" lon="10.9089324"><ele>409.0</ele><time>2026-05-02T13:47:23.733Z</time></trkpt><trkpt lat="43.9845271" lon="10.9088471"><ele>409.0</ele><time>2026-05-02T13:47:24.741Z</time></trkpt><trkpt lat="43.9845396" lon="10.9086584"><ele>409.0</ele><time>2026-05-02T13:47:25.741Z</time></trkpt><trkpt lat="43.9845174" lon="10.9085097"><ele>409.0</ele><time>2026-05-02T13:47:26.746Z</time></trkpt><trkpt lat="43.9844897" lon="10.9083581"><ele>409.0</ele><time>2026-05-02T13:47:27.744Z</time></trkpt><trkpt lat="43.9845257" lon="10.90815"><ele>409.0</ele><time>2026-05-02T13:47:28.742Z</time></trkpt><trkpt lat="43.984531" lon="10.9079558"><ele>412.33333333333337</ele><time>2026-05-02T13:47:29.759Z</time></trkpt><trkpt lat="43.9845324" lon="10.9077529"><ele>415.66666666666663</ele><time>2026-05-02T13:47:30.749Z</time></trkpt><trkpt lat="43.9845295" lon="10.9075428"><ele>419.0</ele><time>2026-05-02T13:47:31.749Z</time></trkpt><trkpt lat="43.9845304" lon="10.9073266"><ele>421.3333333333333</ele><time>2026-05-02T13:47:32.772Z</time></trkpt><trkpt lat="43.9845302" lon="10.9071066"><ele>423.66666666666663</ele><time>2026-05-02T13:47:33.77Z</time></trkpt><trkpt lat="43.9845296" lon="10.9068881"><ele>426.0</ele><time>2026-05-02T13:47:34.746Z</time></trkpt><trkpt lat="43.9845292" lon="10.9066969"><ele>427.75</ele><time>2026-05-02T13:47:35.765Z</time></trkpt><trkpt lat="43.9845347" lon="10.90651"><ele>429.5</ele><time>2026-05-02T13:47:36.762Z</time></trkpt><trkpt lat="43.9845169" lon="10.9063464"><ele>431.25</ele><time>2026-05-02T13:47:37.744Z</time></trkpt><trkpt lat="43.9844396" lon="10.906218"><ele>433.0</ele><time>2026-05-02T13:47:38.746Z</time></trkpt><trkpt lat="43.9843757" lon="10.9060959"><ele>433.0</ele><time>2026-05-02T13:47:39.76Z</time></trkpt><trkpt lat="43.984296" lon="10.9060108"><ele>433.0</ele><time>2026-05-02T13:47:40.757Z</time></trkpt><trkpt lat="43.9840604" lon="10.9061261"><ele>433.0</ele><time>2026-05-02T13:47:41.759Z</time></trkpt><trkpt lat="43.9838998" lon="10.9060993"><ele>418.6666666666667</ele><time>2026-05-02T13:47:42.774Z</time></trkpt><trkpt lat="43.9837405" lon="10.9060545"><ele>404.33333333333337</ele><time>2026-05-02T13:47:43.761Z</time></trkpt><trkpt lat="43.983584" lon="10.9060209"><ele>390.0</ele><time>2026-05-02T13:47:44.765Z</time></trkpt><trkpt lat="43.9834293" lon="10.9059778"><ele>392.66666666666663</ele><time>2026-05-02T13:47:45.747Z</time></trkpt><trkpt lat="43.9832688" lon="10.9059253"><ele>395.3333333333333</ele><time>2026-05-02T13:47:46.762Z</time></trkpt><trkpt lat="43.9831302" lon="10.9058821"><ele>398.0</ele><time>2026-05-02T13:47:47.761Z</time></trkpt><trkpt lat="43.9829882" lon="10.9058508"><ele>398.0</ele><time>2026-05-02T13:47:48.76Z</time></trkpt><trkpt lat="43.982871" lon="10.9058035"><ele>398.0</ele><time>2026-05-02T13:47:49.759Z</time></trkpt><trkpt lat="43.9827485" lon="10.9057647"><ele>398.0</ele><time>2026-05-02T13:47:50.763Z</time></trkpt><trkpt lat="43.98264" lon="10.9057222"><ele>398.0</ele><time>2026-05-02T13:47:51.761Z</time></trkpt><trkpt lat="43.9825368" lon="10.9056641"><ele>391.5</ele><time>2026-05-02T13:47:52.757Z</time></trkpt><trkpt lat="43.9824416" lon="10.9055883"><ele>385.0</ele><time>2026-05-02T13:47:53.759Z</time></trkpt><trkpt lat="43.9823592" lon="10.9054933"><ele>378.5</ele><time>2026-05-02T13:47:54.742Z</time></trkpt><trkpt lat="43.9822874" lon="10.905361"><ele>372.0</ele><time>2026-05-02T13:47:55.747Z</time></trkpt><trkpt lat="43.9822375" lon="10.9052089"><ele>374.75</ele><time>2026-05-02T13:47:56.76Z</time></trkpt><trkpt lat="43.9822041" lon="10.9050295"><ele>377.5</ele><time>2026-05-02T13:47:57.76Z</time></trkpt><trkpt lat="43.9821934" lon="10.9048509"><ele>380.25</ele><time>2026-05-02T13:47:58.742Z</time></trkpt><trkpt lat="43.9821857" lon="10.9046651"><ele>383.0</ele><time>2026-05-02T13:47:59.768Z</time></trkpt><trkpt lat="43.98219" lon="10.9044664"><ele>383.0</ele><time>2026-05-02T13:48:00.763Z</time></trkpt><trkpt lat="43.9821953" lon="10.9042763"><ele>383.0</ele><time>2026-05-02T13:48:01.762Z</time></trkpt><trkpt lat="43.9821995" lon="10.9040671"><ele>383.0</ele><time>2026-05-02T13:48:02.75Z</time></trkpt><trkpt lat="43.982207" lon="10.903884"><ele>383.0</ele><time>2026-05-02T13:48:03.756Z</time></trkpt><trkpt lat="43.9822096" lon="10.9036977"><ele>383.25</ele><time>2026-05-02T13:48:04.758Z</time></trkpt><trkpt lat="43.9822213" lon="10.9035015"><ele>383.5</ele><time>2026-05-02T13:48:05.76Z</time></trkpt><trkpt lat="43.9822341" lon="10.9033226"><ele>383.75</ele><time>2026-05-02T13:48:06.76Z</time></trkpt><trkpt lat="43.9822388" lon="10.9031388"><ele>384.0</ele><time>2026-05-02T13:48:07.778Z</time></trkpt><trkpt lat="43.9822568" lon="10.9029501"><ele>382.5</ele><time>2026-05-02T13:48:08.761Z</time></trkpt><trkpt lat="43.9822724" lon="10.9027667"><ele>381.0</ele><time>2026-05-02T13:48:09.761Z</time></trkpt><trkpt lat="43.9822883" lon="10.9025853"><ele>379.5</ele><time>2026-05-02T13:48:10.761Z</time></trkpt><trkpt lat="43.9822917" lon="10.9023812"><ele>378.0</ele><time>2026-05-02T13:48:11.76Z</time></trkpt><trkpt lat="43.9823138" lon="10.9021931"><ele>374.0</ele><time>2026-05-02T13:48:12.76Z</time></trkpt><trkpt lat="43.9823162" lon="10.9019985"><ele>370.0</ele><time>2026-05-02T13:48:13.758Z</time></trkpt><trkpt lat="43.9823299" lon="10.901802"><ele>366.0</ele><time>2026-05-02T13:48:14.773Z</time></trkpt><trkpt lat="43.9823459" lon="10.9016096"><ele>362.0</ele><time>2026-05-02T13:48:15.76Z</time></trkpt><trkpt lat="43.9823482" lon="10.9014178"><ele>360.5</ele><time>2026-05-02T13:48:16.762Z</time></trkpt><trkpt lat="43.982365" lon="10.9012263"><ele>359.0</ele><time>2026-05-02T13:48:17.766Z</time></trkpt><trkpt lat="43.9823783" lon="10.9010423"><ele>357.5</ele><time>2026-05-02T13:48:18.761Z</time></trkpt><trkpt lat="43.9823837" lon="10.9008611"><ele>356.0</ele><time>2026-05-02T13:48:19.763Z</time></trkpt><trkpt lat="43.9823721" lon="10.9006845"><ele>354.20000000000005</ele><time>2026-05-02T13:48:20.762Z</time></trkpt><trkpt lat="43.9823338" lon="10.9005415"><ele>352.40000000000003</ele><time>2026-05-02T13:48:21.741Z</time></trkpt><trkpt lat="43.9822568" lon="10.9004348"><ele>350.6</ele><time>2026-05-02T13:48:22.746Z</time></trkpt><trkpt lat="43.9821573" lon="10.9003601"><ele>348.8</ele><time>2026-05-02T13:48:23.759Z</time></trkpt><trkpt lat="43.9820542" lon="10.9002946"><ele>347.0</ele><time>2026-05-02T13:48:24.764Z</time></trkpt><trkpt lat="43.9819489" lon="10.9002663"><ele>347.0</ele><time>2026-05-02T13:48:25.766Z</time></trkpt><trkpt lat="43.9818451" lon="10.9002613"><ele>347.0</ele><time>2026-05-02T13:48:26.761Z</time></trkpt><trkpt lat="43.9817463" lon="10.90052"><ele>347.0</ele><time>2026-05-02T13:48:27.762Z</time></trkpt><trkpt lat="43.9816651" lon="10.9006499"><ele>347.0</ele><time>2026-05-02T13:48:28.764Z</time></trkpt><trkpt lat="43.9816032" lon="10.9008262"><ele>344.5</ele><time>2026-05-02T13:48:29.756Z</time></trkpt><trkpt lat="43.9815587" lon="10.9009959"><ele>342.0</ele><time>2026-05-02T13:48:30.752Z</time></trkpt><trkpt lat="43.9815589" lon="10.9011727"><ele>339.5</ele><time>2026-05-02T13:48:31.762Z</time></trkpt><trkpt lat="43.9815903" lon="10.9013738"><ele>337.0</ele><time>2026-05-02T13:48:32.756Z</time></trkpt><trkpt lat="43.9816319" lon="10.9015754"><ele>337.25</ele><time>2026-05-02T13:48:33.765Z</time></trkpt><trkpt lat="43.9816705" lon="10.9017848"><ele>337.5</ele><time>2026-05-02T13:48:34.744Z</time></trkpt><trkpt lat="43.9816703" lon="10.9019815"><ele>337.75</ele><time>2026-05-02T13:48:35.765Z</time></trkpt><trkpt lat="43.9816598" lon="10.9021741"><ele>338.0</ele><time>2026-05-02T13:48:36.759Z</time></trkpt><trkpt lat="43.9816151" lon="10.9023609"><ele>338.0</ele><time>2026-05-02T13:48:37.76Z</time></trkpt><trkpt lat="43.9815494" lon="10.9025233"><ele>338.0</ele><time>2026-05-02T13:48:38.767Z</time></trkpt><trkpt lat="43.9814522" lon="10.9026637"><ele>338.0</ele><time>2026-05-02T13:48:39.758Z</time></trkpt><trkpt lat="43.9813441" lon="10.9027937"><ele>338.0</ele><time>2026-05-02T13:48:40.753Z</time></trkpt><trkpt lat="43.9812267" lon="10.902926"><ele>341.0</ele><time>2026-05-02T13:48:41.746Z</time></trkpt><trkpt lat="43.9811136" lon="10.9030621"><ele>344.0</ele><time>2026-05-02T13:48:42.76Z</time></trkpt><trkpt lat="43.9809979" lon="10.9032114"><ele>347.0</ele><time>2026-05-02T13:48:43.742Z</time></trkpt><trkpt lat="43.9808941" lon="10.9033719"><ele>340.5</ele><time>2026-05-02T13:48:44.766Z</time></trkpt><trkpt lat="43.9808284" lon="10.9035413"><ele>334.0</ele><time>2026-05-02T13:48:45.76Z</time></trkpt><trkpt lat="43.9807865" lon="10.9037156"><ele>327.5</ele><time>2026-05-02T13:48:46.761Z</time></trkpt><trkpt lat="43.980756" lon="10.9039023"><ele>321.0</ele><time>2026-05-02T13:48:47.759Z</time></trkpt><trkpt lat="43.9807278" lon="10.9040984"><ele>322.3333333333333</ele><time>2026-05-02T13:48:48.759Z</time></trkpt><trkpt lat="43.9807065" lon="10.9042997"><ele>323.66666666666663</ele><time>2026-05-02T13:48:49.752Z</time></trkpt><trkpt lat="43.9806816" lon="10.9045154"><ele>325.0</ele><time>2026-05-02T13:48:50.757Z</time></trkpt><trkpt lat="43.9806624" lon="10.9047302"><ele>325.0</ele><time>2026-05-02T13:48:51.757Z</time></trkpt><trkpt lat="43.9806431" lon="10.9049462"><ele>325.0</ele><time>2026-05-02T13:48:52.753Z</time></trkpt><trkpt lat="43.9806237" lon="10.9051609"><ele>325.0</ele><time>2026-05-02T13:48:53.76Z</time></trkpt><trkpt lat="43.98061" lon="10.9053608"><ele>325.25</ele><time>2026-05-02T13:48:54.767Z</time></trkpt><trkpt lat="43.9805947" lon="10.9055528"><ele>325.5</ele><time>2026-05-02T13:48:55.76Z</time></trkpt><trkpt lat="43.9805814" lon="10.9057236"><ele>325.75</ele><time>2026-05-02T13:48:56.765Z</time></trkpt><trkpt lat="43.9805528" lon="10.905877"><ele>326.0</ele><time>2026-05-02T13:48:57.779Z</time></trkpt><trkpt lat="43.9805046" lon="10.905991"><ele>326.0</ele><time>2026-05-02T13:48:58.762Z</time></trkpt><trkpt lat="43.9804387" lon="10.9060828"><ele>326.0</ele><time>2026-05-02T13:48:59.744Z</time></trkpt><trkpt lat="43.9803683" lon="10.906073"><ele>326.0</ele><time>2026-05-02T13:49:00.766Z</time></trkpt><trkpt lat="43.9803042" lon="10.9060368"><ele>326.0</ele><time>2026-05-02T13:49:01.761Z</time></trkpt><trkpt lat="43.9802422" lon="10.9059454"><ele>326.0</ele><time>2026-05-02T13:49:02.765Z</time></trkpt><trkpt lat="43.9802028" lon="10.9058129"><ele>326.0</ele><time>2026-05-02T13:49:03.766Z</time></trkpt><trkpt lat="43.9801822" lon="10.905671"><ele>326.0</ele><time>2026-05-02T13:49:04.762Z</time></trkpt><trkpt lat="43.9801773" lon="10.9055096"><ele>326.0</ele><time>2026-05-02T13:49:05.761Z</time></trkpt><trkpt lat="43.980183" lon="10.9053383"><ele>326.0</ele><time>2026-05-02T13:49:06.757Z</time></trkpt><trkpt lat="43.980198" lon="10.905165"><ele>326.0</ele><time>2026-05-02T13:49:07.763Z</time></trkpt><trkpt lat="43.9802148" lon="10.9049895"><ele>325.75</ele><time>2026-05-02T13:49:08.763Z</time></trkpt><trkpt lat="43.980235" lon="10.9048249"><ele>325.5</ele><time>2026-05-02T13:49:09.762Z</time></trkpt><trkpt lat="43.9802536" lon="10.9046567"><ele>325.25</ele><time>2026-05-02T13:49:10.757Z</time></trkpt><trkpt lat="43.9802717" lon="10.9044962"><ele>325.0</ele><time>2026-05-02T13:49:11.761Z</time></trkpt><trkpt lat="43.9802858" lon="10.9043446"><ele>324.0</ele><time>2026-05-02T13:49:12.755Z</time></trkpt><trkpt lat="43.9802949" lon="10.9041871"><ele>323.0</ele><time>2026-05-02T13:49:13.762Z</time></trkpt><trkpt lat="43.980292" lon="10.904031"><ele>322.0</ele><time>2026-05-02T13:49:14.762Z</time></trkpt><trkpt lat="43.9802672" lon="10.9038661"><ele>321.0</ele><time>2026-05-02T13:49:15.764Z</time></trkpt><trkpt lat="43.9802284" lon="10.903704"><ele>321.0</ele><time>2026-05-02T13:49:16.765Z</time></trkpt><trkpt lat="43.9801854" lon="10.9035346"><ele>321.0</ele><time>2026-05-02T13:49:17.761Z</time></trkpt><trkpt lat="43.9801469" lon="10.9033699"><ele>321.0</ele><time>2026-05-02T13:49:18.761Z</time></trkpt><trkpt lat="43.980118" lon="10.9031948"><ele>321.0</ele><time>2026-05-02T13:49:19.761Z</time></trkpt><trkpt lat="43.9800892" lon="10.9030293"><ele>320.75</ele><time>2026-05-02T13:49:20.761Z</time></trkpt><trkpt lat="43.980099" lon="10.9028745"><ele>320.5</ele><time>2026-05-02T13:49:21.751Z</time></trkpt><trkpt lat="43.9801345" lon="10.902715"><ele>320.25</ele><time>2026-05-02T13:49:22.757Z</time></trkpt><trkpt lat="43.9801734" lon="10.9025502"><ele>320.0</ele><time>2026-05-02T13:49:23.763Z</time></trkpt><trkpt lat="43.9802106" lon="10.9023809"><ele>318.25</ele><time>2026-05-02T13:49:24.76Z</time></trkpt><trkpt lat="43.9802595" lon="10.9022053"><ele>316.5</ele><time>2026-05-02T13:49:25.762Z</time></trkpt><trkpt lat="43.9802908" lon="10.9020297"><ele>314.75</ele><time>2026-05-02T13:49:26.764Z</time></trkpt><trkpt lat="43.9802981" lon="10.90185"><ele>313.0</ele><time>2026-05-02T13:49:27.759Z</time></trkpt><trkpt lat="43.9802912" lon="10.9016624"><ele>312.5</ele><time>2026-05-02T13:49:28.764Z</time></trkpt><trkpt lat="43.9802692" lon="10.9014743"><ele>312.0</ele><time>2026-05-02T13:49:29.758Z</time></trkpt><trkpt lat="43.9802403" lon="10.9012853"><ele>311.5</ele><time>2026-05-02T13:49:30.763Z</time></trkpt><trkpt lat="43.9802176" lon="10.9010883"><ele>311.0</ele><time>2026-05-02T13:49:31.763Z</time></trkpt><trkpt lat="43.9801957" lon="10.9008852"><ele>311.0</ele><time>2026-05-02T13:49:32.742Z</time></trkpt><trkpt lat="43.9801894" lon="10.900683"><ele>311.0</ele><time>2026-05-02T13:49:33.761Z</time></trkpt><trkpt lat="43.9802059" lon="10.9004702"><ele>311.0</ele><time>2026-05-02T13:49:34.761Z</time></trkpt><trkpt lat="43.9802199" lon="10.9002736"><ele>311.0</ele><time>2026-05-02T13:49:35.759Z</time></trkpt><trkpt lat="43.9802404" lon="10.9001012"><ele>310.2</ele><time>2026-05-02T13:49:36.762Z</time></trkpt><trkpt lat="43.9802504" lon="10.8999319"><ele>309.40000000000003</ele><time>2026-05-02T13:49:37.761Z</time></trkpt><trkpt lat="43.9802422" lon="10.8997864"><ele>308.6</ele><time>2026-05-02T13:49:38.764Z</time></trkpt><trkpt lat="43.9802003" lon="10.89967"><ele>307.8</ele><time>2026-05-02T13:49:39.764Z</time></trkpt><trkpt lat="43.9801301" lon="10.8996056"><ele>307.0</ele><time>2026-05-02T13:49:40.76Z</time></trkpt><trkpt lat="43.9800521" lon="10.8995946"><ele>302.8</ele><time>2026-05-02T13:49:41.761Z</time></trkpt><trkpt lat="43.9799767" lon="10.8996002"><ele>298.6</ele><time>2026-05-02T13:49:42.761Z</time></trkpt><trkpt lat="43.9799086" lon="10.8997377"><ele>294.40000000000003</ele><time>2026-05-02T13:49:43.761Z</time></trkpt><trkpt lat="43.9798404" lon="10.8998589"><ele>290.2</ele><time>2026-05-02T13:49:44.742Z</time></trkpt><trkpt lat="43.9797894" lon="10.9000233"><ele>286.0</ele><time>2026-05-02T13:49:45.763Z</time></trkpt><trkpt lat="43.9797471" lon="10.900202"><ele>286.0</ele><time>2026-05-02T13:49:46.771Z</time></trkpt><trkpt lat="43.9797101" lon="10.9003893"><ele>286.0</ele><time>2026-05-02T13:49:47.773Z</time></trkpt><trkpt lat="43.9796819" lon="10.9005887"><ele>286.0</ele><time>2026-05-02T13:49:48.755Z</time></trkpt><trkpt lat="43.9796832" lon="10.9007889"><ele>286.0</ele><time>2026-05-02T13:49:49.761Z</time></trkpt><trkpt lat="43.9796902" lon="10.900982"><ele>286.25</ele><time>2026-05-02T13:49:50.759Z</time></trkpt><trkpt lat="43.9796996" lon="10.9011677"><ele>286.5</ele><time>2026-05-02T13:49:51.762Z</time></trkpt><trkpt lat="43.9796855" lon="10.9013505"><ele>286.75</ele><time>2026-05-02T13:49:52.765Z</time></trkpt><trkpt lat="43.9796529" lon="10.9015111"><ele>287.0</ele><time>2026-05-02T13:49:53.755Z</time></trkpt><trkpt lat="43.9795793" lon="10.9016506"><ele>288.25</ele><time>2026-05-02T13:49:54.744Z</time></trkpt><trkpt lat="43.9794826" lon="10.9017587"><ele>289.5</ele><time>2026-05-02T13:49:55.772Z</time></trkpt><trkpt lat="43.9793649" lon="10.9018392"><ele>290.75</ele><time>2026-05-02T13:49:56.759Z</time></trkpt><trkpt lat="43.9792354" lon="10.9018911"><ele>292.0</ele><time>2026-05-02T13:49:57.756Z</time></trkpt><trkpt lat="43.9790939" lon="10.9019307"><ele>288.25</ele><time>2026-05-02T13:49:58.758Z</time></trkpt><trkpt lat="43.9789493" lon="10.90197"><ele>284.5</ele><time>2026-05-02T13:49:59.763Z</time></trkpt><trkpt lat="43.9788049" lon="10.9020118"><ele>280.75</ele><time>2026-05-02T13:50:00.764Z</time></trkpt><trkpt lat="43.9786642" lon="10.9020503"><ele>277.0</ele><time>2026-05-02T13:50:01.763Z</time></trkpt><trkpt lat="43.9785321" lon="10.9020878"><ele>277.0</ele><time>2026-05-02T13:50:02.756Z</time></trkpt><trkpt lat="43.978393" lon="10.9021266"><ele>277.0</ele><time>2026-05-02T13:50:03.761Z</time></trkpt><trkpt lat="43.9782627" lon="10.9021588"><ele>277.0</ele><time>2026-05-02T13:50:04.743Z</time></trkpt><trkpt lat="43.9781267" lon="10.9021891"><ele>277.0</ele><time>2026-05-02T13:50:05.763Z</time></trkpt><trkpt lat="43.9779974" lon="10.9022199"><ele>273.75</ele><time>2026-05-02T13:50:06.771Z</time></trkpt><trkpt lat="43.9778716" lon="10.9022277"><ele>270.5</ele><time>2026-05-02T13:50:07.768Z</time></trkpt><trkpt lat="43.9777349" lon="10.902218"><ele>267.25</ele><time>2026-05-02T13:50:08.761Z</time></trkpt><trkpt lat="43.9776048" lon="10.9022108"><ele>264.0</ele><time>2026-05-02T13:50:09.742Z</time></trkpt><trkpt lat="43.977467" lon="10.902197"><ele>262.25</ele><time>2026-05-02T13:50:10.756Z</time></trkpt><trkpt lat="43.9773292" lon="10.9021837"><ele>260.5</ele><time>2026-05-02T13:50:11.757Z</time></trkpt><trkpt lat="43.977184" lon="10.9021771"><ele>258.75</ele><time>2026-05-02T13:50:12.767Z</time></trkpt><trkpt lat="43.9770352" lon="10.9021773"><ele>257.0</ele><time>2026-05-02T13:50:13.758Z</time></trkpt><trkpt lat="43.9768866" lon="10.9021845"><ele>257.0</ele><time>2026-05-02T13:50:14.758Z</time></trkpt><trkpt lat="43.9767361" lon="10.9021854"><ele>257.0</ele><time>2026-05-02T13:50:15.765Z</time></trkpt><trkpt lat="43.9765895" lon="10.9021898"><ele>257.0</ele><time>2026-05-02T13:50:16.764Z</time></trkpt><trkpt lat="43.9764434" lon="10.9022023"><ele>257.0</ele><time>2026-05-02T13:50:17.744Z</time></trkpt><trkpt lat="43.976308" lon="10.9022826"><ele>256.25</ele><time>2026-05-02T13:50:18.763Z</time></trkpt><trkpt lat="43.9761822" lon="10.9023434"><ele>255.5</ele><time>2026-05-02T13:50:19.764Z</time></trkpt><trkpt lat="43.9760588" lon="10.9024163"><ele>254.75</ele><time>2026-05-02T13:50:20.762Z</time></trkpt><trkpt lat="43.9759334" lon="10.9024771"><ele>254.0</ele><time>2026-05-02T13:50:21.762Z</time></trkpt><trkpt lat="43.9757956" lon="10.9025403"><ele>254.0</ele><time>2026-05-02T13:50:22.76Z</time></trkpt><trkpt lat="43.9756662" lon="10.9025851"><ele>254.0</ele><time>2026-05-02T13:50:23.759Z</time></trkpt><trkpt lat="43.9755389" lon="10.9024975"><ele>254.0</ele><time>2026-05-02T13:50:24.754Z</time></trkpt><trkpt lat="43.975419" lon="10.9024"><ele>254.0</ele><time>2026-05-02T13:50:25.761Z</time></trkpt><trkpt lat="43.9752962" lon="10.9023367"><ele>254.0</ele><time>2026-05-02T13:50:26.762Z</time></trkpt><trkpt lat="43.9751706" lon="10.902274"><ele>254.0</ele><time>2026-05-02T13:50:27.763Z</time></trkpt><trkpt lat="43.9750534" lon="10.9022066"><ele>254.0</ele><time>2026-05-02T13:50:28.748Z</time></trkpt><trkpt lat="43.9749371" lon="10.9021597"><ele>254.0</ele><time>2026-05-02T13:50:29.758Z</time></trkpt><trkpt lat="43.9748222" lon="10.9021299"><ele>250.5</ele><time>2026-05-02T13:50:30.747Z</time></trkpt><trkpt lat="43.9747095" lon="10.9021177"><ele>247.0</ele><time>2026-05-02T13:50:31.758Z</time></trkpt><trkpt lat="43.974602" lon="10.9021459"><ele>243.5</ele><time>2026-05-02T13:50:32.764Z</time></trkpt><trkpt lat="43.9744906" lon="10.902199"><ele>240.0</ele><time>2026-05-02T13:50:33.753Z</time></trkpt><trkpt lat="43.9743812" lon="10.9022603"><ele>240.0</ele><time>2026-05-02T13:50:34.744Z</time></trkpt><trkpt lat="43.9742623" lon="10.9022996"><ele>240.0</ele><time>2026-05-02T13:50:35.763Z</time></trkpt><trkpt lat="43.9741315" lon="10.9023252"><ele>240.0</ele><time>2026-05-02T13:50:36.759Z</time></trkpt><trkpt lat="43.9739978" lon="10.9023409"><ele>240.0</ele><time>2026-05-02T13:50:37.763Z</time></trkpt><trkpt lat="43.9738603" lon="10.9023265"><ele>239.25</ele><time>2026-05-02T13:50:38.743Z</time></trkpt><trkpt lat="43.9737305" lon="10.9023182"><ele>238.5</ele><time>2026-05-02T13:50:39.76Z</time></trkpt><trkpt lat="43.9736025" lon="10.9023424"><ele>237.75</ele><time>2026-05-02T13:50:40.757Z</time></trkpt><trkpt lat="43.973484" lon="10.9024031"><ele>237.0</ele><time>2026-05-02T13:50:41.763Z</time></trkpt><trkpt lat="43.9733794" lon="10.9024963"><ele>234.0</ele><time>2026-05-02T13:50:42.75Z</time></trkpt><trkpt lat="43.9732967" lon="10.9026347"><ele>231.0</ele><time>2026-05-02T13:50:43.756Z</time></trkpt><trkpt lat="43.9732311" lon="10.9028078"><ele>228.0</ele><time>2026-05-02T13:50:44.758Z</time></trkpt><trkpt lat="43.9731719" lon="10.902999"><ele>225.0</ele><time>2026-05-02T13:50:45.756Z</time></trkpt><trkpt lat="43.9731095" lon="10.9031951"><ele>225.0</ele><time>2026-05-02T13:50:46.763Z</time></trkpt><trkpt lat="43.9730499" lon="10.9033839"><ele>225.0</ele><time>2026-05-02T13:50:47.76Z</time></trkpt><trkpt lat="43.9729835" lon="10.9035723"><ele>225.0</ele><time>2026-05-02T13:50:48.754Z</time></trkpt><trkpt lat="43.9729142" lon="10.903744"><ele>225.0</ele><time>2026-05-02T13:50:49.759Z</time></trkpt><trkpt lat="43.9728187" lon="10.9038951"><ele>223.75</ele><time>2026-05-02T13:50:50.759Z</time></trkpt><trkpt lat="43.9727154" lon="10.9040025"><ele>222.5</ele><time>2026-05-02T13:50:51.753Z</time></trkpt><trkpt lat="43.9725968" lon="10.9040718"><ele>221.25</ele><time>2026-05-02T13:50:52.804Z</time></trkpt><trkpt lat="43.9724665" lon="10.9041037"><ele>220.0</ele><time>2026-05-02T13:50:53.767Z</time></trkpt><trkpt lat="43.9723225" lon="10.9041053"><ele>220.0</ele><time>2026-05-02T13:50:54.754Z</time></trkpt><trkpt lat="43.9721666" lon="10.9040794"><ele>220.0</ele><time>2026-05-02T13:50:55.759Z</time></trkpt><trkpt lat="43.9720071" lon="10.9040345"><ele>220.0</ele><time>2026-05-02T13:50:56.763Z</time></trkpt><trkpt lat="43.9718419" lon="10.903983"><ele>217.33333333333331</ele><time>2026-05-02T13:50:57.766Z</time></trkpt><trkpt lat="43.9716767" lon="10.9039266"><ele>214.66666666666669</ele><time>2026-05-02T13:50:58.746Z</time></trkpt><trkpt lat="43.9714899" lon="10.9038682"><ele>212.0</ele><time>2026-05-02T13:50:59.757Z</time></trkpt><trkpt lat="43.9713034" lon="10.9038058"><ele>212.0</ele><time>2026-05-02T13:51:00.765Z</time></trkpt><trkpt lat="43.9711095" lon="10.9037363"><ele>212.0</ele><time>2026-05-02T13:51:01.759Z</time></trkpt><trkpt lat="43.9709122" lon="10.9036636"><ele>212.0</ele><time>2026-05-02T13:51:02.759Z</time></trkpt><trkpt lat="43.9707101" lon="10.9035966"><ele>212.0</ele><time>2026-05-02T13:51:03.755Z</time></trkpt><trkpt lat="43.9705123" lon="10.9035312"><ele>212.0</ele><time>2026-05-02T13:51:04.756Z</time></trkpt><trkpt lat="43.9703214" lon="10.9034674"><ele>212.0</ele><time>2026-05-02T13:51:05.762Z</time></trkpt><trkpt lat="43.9701357" lon="10.9034056"><ele>209.33333333333334</ele><time>2026-05-02T13:51:06.761Z</time></trkpt><trkpt lat="43.9699526" lon="10.9033525"><ele>206.66666666666669</ele><time>2026-05-02T13:51:07.767Z</time></trkpt><trkpt lat="43.9697773" lon="10.9033278"><ele>204.0</ele><time>2026-05-02T13:51:08.747Z</time></trkpt><trkpt lat="43.9695929" lon="10.903334"><ele>204.0</ele><time>2026-05-02T13:51:09.766Z</time></trkpt><trkpt lat="43.9694079" lon="10.903375"><ele>204.0</ele><time>2026-05-02T13:51:10.76Z</time></trkpt><trkpt lat="43.9692216" lon="10.9034506"><ele>204.0</ele><time>2026-05-02T13:51:11.764Z</time></trkpt><trkpt lat="43.969037" lon="10.9035515"><ele>200.66666666666669</ele><time>2026-05-02T13:51:12.763Z</time></trkpt><trkpt lat="43.9688612" lon="10.9036674"><ele>197.33333333333334</ele><time>2026-05-02T13:51:13.765Z</time></trkpt><trkpt lat="43.9686887" lon="10.9038028"><ele>194.0</ele><time>2026-05-02T13:51:14.767Z</time></trkpt><trkpt lat="43.9685332" lon="10.9039467"><ele>194.0</ele><time>2026-05-02T13:51:15.768Z</time></trkpt><trkpt lat="43.9683879" lon="10.9041018"><ele>194.0</ele><time>2026-05-02T13:51:16.742Z</time></trkpt><trkpt lat="43.9682639" lon="10.9042719"><ele>194.0</ele><time>2026-05-02T13:51:17.761Z</time></trkpt><trkpt lat="43.9681427" lon="10.9044476"><ele>194.0</ele><time>2026-05-02T13:51:18.765Z</time></trkpt><trkpt lat="43.9680799" lon="10.9046626"><ele>194.0</ele><time>2026-05-02T13:51:19.756Z</time></trkpt><trkpt lat="43.9680008" lon="10.9048976"><ele>194.0</ele><time>2026-05-02T13:51:20.753Z</time></trkpt><trkpt lat="43.967936" lon="10.9051381"><ele>191.33333333333334</ele><time>2026-05-02T13:51:21.764Z</time></trkpt><trkpt lat="43.9678722" lon="10.9053736"><ele>188.66666666666669</ele><time>2026-05-02T13:51:22.754Z</time></trkpt><trkpt lat="43.9678039" lon="10.9056022"><ele>186.0</ele><time>2026-05-02T13:51:23.761Z</time></trkpt><trkpt lat="43.9677427" lon="10.9058329"><ele>186.75</ele><time>2026-05-02T13:51:24.761Z</time></trkpt><trkpt lat="43.9676731" lon="10.9060303"><ele>187.5</ele><time>2026-05-02T13:51:25.762Z</time></trkpt><trkpt lat="43.9675919" lon="10.9061914"><ele>188.25</ele><time>2026-05-02T13:51:26.761Z</time></trkpt><trkpt lat="43.9674951" lon="10.9063086"><ele>189.0</ele><time>2026-05-02T13:51:27.758Z</time></trkpt><trkpt lat="43.9673773" lon="10.9063676"><ele>189.0</ele><time>2026-05-02T13:51:28.752Z</time></trkpt><trkpt lat="43.9672513" lon="10.9064118"><ele>189.0</ele><time>2026-05-02T13:51:29.759Z</time></trkpt><trkpt lat="43.9671145" lon="10.9064386"><ele>189.0</ele><time>2026-05-02T13:51:30.746Z</time></trkpt><trkpt lat="43.9669777" lon="10.906245"><ele>189.0</ele><time>2026-05-02T13:51:31.764Z</time></trkpt><trkpt lat="43.9668375" lon="10.9061424"><ele>189.0</ele><time>2026-05-02T13:51:32.761Z</time></trkpt><trkpt lat="43.9666869" lon="10.9060381"><ele>189.0</ele><time>2026-05-02T13:51:33.746Z</time></trkpt><trkpt lat="43.9665511" lon="10.9059563"><ele>187.0</ele><time>2026-05-02T13:51:34.76Z</time></trkpt><trkpt lat="43.9664209" lon="10.9059091"><ele>185.0</ele><time>2026-05-02T13:51:35.761Z</time></trkpt><trkpt lat="43.9662895" lon="10.9058793"><ele>183.0</ele><time>2026-05-02T13:51:36.76Z</time></trkpt><trkpt lat="43.9661822" lon="10.9058934"><ele>181.0</ele><time>2026-05-02T13:51:37.764Z</time></trkpt><trkpt lat="43.9659921" lon="10.9060429"><ele>181.0</ele><time>2026-05-02T13:51:38.76Z</time></trkpt><trkpt lat="43.9659179" lon="10.9062266"><ele>181.0</ele><time>2026-05-02T13:51:39.769Z</time></trkpt><trkpt lat="43.9657923" lon="10.9063207"><ele>181.0</ele><time>2026-05-02T13:51:40.742Z</time></trkpt><trkpt lat="43.9656342" lon="10.9063756"><ele>180.0</ele><time>2026-05-02T13:51:41.757Z</time></trkpt><trkpt lat="43.9654577" lon="10.9064127"><ele>179.0</ele><time>2026-05-02T13:51:42.761Z</time></trkpt><trkpt lat="43.9652786" lon="10.9063903"><ele>178.0</ele><time>2026-05-02T13:51:43.753Z</time></trkpt><trkpt lat="43.9650936" lon="10.9063732"><ele>177.33333333333334</ele><time>2026-05-02T13:51:44.757Z</time></trkpt><trkpt lat="43.9649065" lon="10.9063526"><ele>176.66666666666666</ele><time>2026-05-02T13:51:45.76Z</time></trkpt><trkpt lat="43.9647233" lon="10.9063448"><ele>176.0</ele><time>2026-05-02T13:51:46.76Z</time></trkpt><trkpt lat="43.9645368" lon="10.9063263"><ele>176.0</ele><time>2026-05-02T13:51:47.76Z</time></trkpt><trkpt lat="43.9644084" lon="10.9061092"><ele>176.0</ele><time>2026-05-02T13:51:48.76Z</time></trkpt><trkpt lat="43.9642513" lon="10.9059607"><ele>176.0</ele><time>2026-05-02T13:51:49.757Z</time></trkpt><trkpt lat="43.9641146" lon="10.9058019"><ele>175.0</ele><time>2026-05-02T13:51:50.761Z</time></trkpt><trkpt lat="43.9639655" lon="10.9056382"><ele>174.0</ele><time>2026-05-02T13:51:51.762Z</time></trkpt><trkpt lat="43.9638043" lon="10.9054885"><ele>173.0</ele><time>2026-05-02T13:51:52.761Z</time></trkpt><trkpt lat="43.9636555" lon="10.9053461"><ele>173.0</ele><time>2026-05-02T13:51:53.763Z</time></trkpt><trkpt lat="43.9635183" lon="10.9052162"><ele>173.0</ele><time>2026-05-02T13:51:54.763Z</time></trkpt><trkpt lat="43.963404" lon="10.9050852"><ele>173.0</ele><time>2026-05-02T13:51:55.771Z</time></trkpt><trkpt lat="43.9633145" lon="10.9049448"><ele>173.0</ele><time>2026-05-02T13:51:56.76Z</time></trkpt><trkpt lat="43.9632547" lon="10.9047994"><ele>174.0</ele><time>2026-05-02T13:51:57.763Z</time></trkpt><trkpt lat="43.9632413" lon="10.9046334"><ele>175.0</ele><time>2026-05-02T13:51:58.759Z</time></trkpt><trkpt lat="43.9632572" lon="10.9044713"><ele>176.0</ele><time>2026-05-02T13:51:59.759Z</time></trkpt><trkpt lat="43.9633162" lon="10.9043159"><ele>177.0</ele><time>2026-05-02T13:52:00.761Z</time></trkpt><trkpt lat="43.9634012" lon="10.9041429"><ele>177.0</ele><time>2026-05-02T13:52:01.755Z</time></trkpt><trkpt lat="43.9634927" lon="10.9039528"><ele>177.0</ele><time>2026-05-02T13:52:02.753Z</time></trkpt><trkpt lat="43.9635617" lon="10.9037623"><ele>177.0</ele><time>2026-05-02T13:52:03.769Z</time></trkpt><trkpt lat="43.9635964" lon="10.9035629"><ele>174.33333333333334</ele><time>2026-05-02T13:52:04.759Z</time></trkpt><trkpt lat="43.9635918" lon="10.9033502"><ele>171.66666666666669</ele><time>2026-05-02T13:52:05.76Z</time></trkpt><trkpt lat="43.9635551" lon="10.9031401"><ele>169.0</ele><time>2026-05-02T13:52:06.75Z</time></trkpt><trkpt lat="43.9634927" lon="10.9029313"><ele>169.0</ele><time>2026-05-02T13:52:07.766Z</time></trkpt><trkpt lat="43.9634049" lon="10.9027605"><ele>169.0</ele><time>2026-05-02T13:52:08.76Z</time></trkpt><trkpt lat="43.9632906" lon="10.9026096"><ele>169.0</ele><time>2026-05-02T13:52:09.761Z</time></trkpt><trkpt lat="43.9631492" lon="10.9024897"><ele>166.0</ele><time>2026-05-02T13:52:10.755Z</time></trkpt><trkpt lat="43.9629937" lon="10.9023963"><ele>163.0</ele><time>2026-05-02T13:52:11.754Z</time></trkpt><trkpt lat="43.962827" lon="10.9023304"><ele>160.0</ele><time>2026-05-02T13:52:12.754Z</time></trkpt><trkpt lat="43.9626601" lon="10.9022942"><ele>155.33333333333334</ele><time>2026-05-02T13:52:13.767Z</time></trkpt><trkpt lat="43.9624986" lon="10.9022701"><ele>150.66666666666666</ele><time>2026-05-02T13:52:14.761Z</time></trkpt><trkpt lat="43.9623387" lon="10.9022485"><ele>146.0</ele><time>2026-05-02T13:52:15.76Z</time></trkpt><trkpt lat="43.9621799" lon="10.9022324"><ele>146.0</ele><time>2026-05-02T13:52:16.762Z</time></trkpt><trkpt lat="43.9620265" lon="10.9022032"><ele>146.0</ele><time>2026-05-02T13:52:17.77Z</time></trkpt><trkpt lat="43.9618694" lon="10.9021824"><ele>146.0</ele><time>2026-05-02T13:52:18.761Z</time></trkpt><trkpt lat="43.9617173" lon="10.9021557"><ele>144.25</ele><time>2026-05-02T13:52:19.763Z</time></trkpt><trkpt lat="43.9615847" lon="10.9021414"><ele>142.5</ele><time>2026-05-02T13:52:20.761Z</time></trkpt><trkpt lat="43.9614619" lon="10.9021302"><ele>140.75</ele><time>2026-05-02T13:52:21.759Z</time></trkpt><trkpt lat="43.9613348" lon="10.9021238"><ele>139.0</ele><time>2026-05-02T13:52:22.759Z</time></trkpt><trkpt lat="43.961208" lon="10.9021109"><ele>139.0</ele><time>2026-05-02T13:52:23.762Z</time></trkpt><trkpt lat="43.9610775" lon="10.9020948"><ele>139.0</ele><time>2026-05-02T13:52:24.765Z</time></trkpt><trkpt lat="43.9609388" lon="10.9020802"><ele>139.0</ele><time>2026-05-02T13:52:25.762Z</time></trkpt><trkpt lat="43.960796" lon="10.9020601"><ele>139.0</ele><time>2026-05-02T13:52:26.761Z</time></trkpt><trkpt lat="43.9606511" lon="10.9020425"><ele>137.5</ele><time>2026-05-02T13:52:27.762Z</time></trkpt><trkpt lat="43.9605043" lon="10.9020268"><ele>136.0</ele><time>2026-05-02T13:52:28.761Z</time></trkpt><trkpt lat="43.960363" lon="10.9020179"><ele>134.5</ele><time>2026-05-02T13:52:29.767Z</time></trkpt><trkpt lat="43.9602237" lon="10.9019971"><ele>133.0</ele><time>2026-05-02T13:52:30.76Z</time></trkpt><trkpt lat="43.9600763" lon="10.9019831"><ele>132.0</ele><time>2026-05-02T13:52:31.748Z</time></trkpt><trkpt lat="43.9599347" lon="10.9019585"><ele>131.0</ele><time>2026-05-02T13:52:32.761Z</time></trkpt><trkpt lat="43.959791" lon="10.9019461"><ele>130.0</ele><time>2026-05-02T13:52:33.763Z</time></trkpt><trkpt lat="43.9596464" lon="10.9019218"><ele>129.0</ele><time>2026-05-02T13:52:34.766Z</time></trkpt><trkpt lat="43.9595104" lon="10.9019047"><ele>129.0</ele><time>2026-05-02T13:52:35.76Z</time></trkpt><trkpt lat="43.9593761" lon="10.9018908"><ele>129.0</ele><time>2026-05-02T13:52:36.76Z</time></trkpt><trkpt lat="43.9592453" lon="10.9018848"><ele>129.0</ele><time>2026-05-02T13:52:37.758Z</time></trkpt><trkpt lat="43.9591166" lon="10.9018732"><ele>129.0</ele><time>2026-05-02T13:52:38.76Z</time></trkpt><trkpt lat="43.9589871" lon="10.9018695"><ele>129.4</ele><time>2026-05-02T13:52:39.754Z</time></trkpt><trkpt lat="43.9588658" lon="10.9018528"><ele>129.8</ele><time>2026-05-02T13:52:40.763Z</time></trkpt><trkpt lat="43.9587536" lon="10.9018409"><ele>130.2</ele><time>2026-05-02T13:52:41.761Z</time></trkpt><trkpt lat="43.9586491" lon="10.901813"><ele>130.6</ele><time>2026-05-02T13:52:42.755Z</time></trkpt><trkpt lat="43.9585606" lon="10.9017547"><ele>131.0</ele><time>2026-05-02T13:52:43.767Z</time></trkpt><trkpt lat="43.9584872" lon="10.90167"><ele>131.0</ele><time>2026-05-02T13:52:44.762Z</time></trkpt><trkpt lat="43.9584242" lon="10.9015536"><ele>131.0</ele><time>2026-05-02T13:52:45.765Z</time></trkpt><trkpt lat="43.9583673" lon="10.9014151"><ele>131.0</ele><time>2026-05-02T13:52:46.761Z</time></trkpt><trkpt lat="43.9583085" lon="10.9012572"><ele>131.0</ele><time>2026-05-02T13:52:47.752Z</time></trkpt><trkpt lat="43.958244" lon="10.9010741"><ele>128.0</ele><time>2026-05-02T13:52:48.766Z</time></trkpt><trkpt lat="43.9581715" lon="10.9008889"><ele>125.0</ele><time>2026-05-02T13:52:49.758Z</time></trkpt><trkpt lat="43.9581014" lon="10.9007011"><ele>122.0</ele><time>2026-05-02T13:52:50.761Z</time></trkpt><trkpt lat="43.958039" lon="10.9004968"><ele>122.0</ele><time>2026-05-02T13:52:51.772Z</time></trkpt><trkpt lat="43.9579586" lon="10.9002963"><ele>122.0</ele><time>2026-05-02T13:52:52.762Z</time></trkpt><trkpt lat="43.9578668" lon="10.9001072"><ele>122.0</ele><time>2026-05-02T13:52:53.762Z</time></trkpt><trkpt lat="43.9577702" lon="10.8999157"><ele>122.66666666666666</ele><time>2026-05-02T13:52:54.762Z</time></trkpt><trkpt lat="43.9576764" lon="10.8997348"><ele>123.33333333333334</ele><time>2026-05-02T13:52:55.761Z</time></trkpt><trkpt lat="43.9575852" lon="10.8995677"><ele>124.0</ele><time>2026-05-02T13:52:56.761Z</time></trkpt><trkpt lat="43.9574958" lon="10.8994083"><ele>121.0</ele><time>2026-05-02T13:52:57.764Z</time></trkpt><trkpt lat="43.9573992" lon="10.8992592"><ele>118.0</ele><time>2026-05-02T13:52:58.761Z</time></trkpt><trkpt lat="43.9573152" lon="10.8991108"><ele>115.0</ele><time>2026-05-02T13:52:59.782Z</time></trkpt><trkpt lat="43.9572352" lon="10.8989597"><ele>112.0</ele><time>2026-05-02T13:53:00.776Z</time></trkpt><trkpt lat="43.9571476" lon="10.898806"><ele>112.0</ele><time>2026-05-02T13:53:01.761Z</time></trkpt><trkpt lat="43.9570538" lon="10.8986497"><ele>112.0</ele><time>2026-05-02T13:53:02.761Z</time></trkpt><trkpt lat="43.9569741" lon="10.8984941"><ele>112.0</ele><time>2026-05-02T13:53:03.76Z</time></trkpt><trkpt lat="43.9568956" lon="10.8983488"><ele>112.0</ele><time>2026-05-02T13:53:04.767Z</time></trkpt><trkpt lat="43.9568428" lon="10.8982239"><ele>111.50000000000001</ele><time>2026-05-02T13:53:05.771Z</time></trkpt><trkpt lat="43.9568137" lon="10.8981217"><ele>111.0</ele><time>2026-05-02T13:53:06.765Z</time></trkpt><trkpt lat="43.9568068" lon="10.8980155"><ele>110.5</ele><time>2026-05-02T13:53:07.762Z</time></trkpt><trkpt lat="43.9568038" lon="10.8979075"><ele>110.0</ele><time>2026-05-02T13:53:08.761Z</time></trkpt><trkpt lat="43.9568306" lon="10.897785"><ele>109.50000000000001</ele><time>2026-05-02T13:53:09.761Z</time></trkpt><trkpt lat="43.9568646" lon="10.8976425"><ele>109.0</ele><time>2026-05-02T13:53:10.761Z</time></trkpt><trkpt lat="43.9569128" lon="10.8974738"><ele>108.66666666666667</ele><time>2026-05-02T13:53:11.757Z</time></trkpt><trkpt lat="43.9569629" lon="10.897286"><ele>108.33333333333334</ele><time>2026-05-02T13:53:12.746Z</time></trkpt><trkpt lat="43.9570194" lon="10.8970878"><ele>108.0</ele><time>2026-05-02T13:53:13.763Z</time></trkpt><trkpt lat="43.9570788" lon="10.8968872"><ele>107.0</ele><time>2026-05-02T13:53:14.762Z</time></trkpt><trkpt lat="43.9571516" lon="10.8966768"><ele>106.0</ele><time>2026-05-02T13:53:15.759Z</time></trkpt><trkpt lat="43.9572408" lon="10.8964776"><ele>105.0</ele><time>2026-05-02T13:53:16.761Z</time></trkpt><trkpt lat="43.9573533" lon="10.8962881"><ele>105.0</ele><time>2026-05-02T13:53:17.764Z</time></trkpt><trkpt lat="43.9574904" lon="10.8961303"><ele>105.0</ele><time>2026-05-02T13:53:18.762Z</time></trkpt><trkpt lat="43.9576409" lon="10.8960025"><ele>105.0</ele><time>2026-05-02T13:53:19.763Z</time></trkpt><trkpt lat="43.9578092" lon="10.8959144"><ele>105.66666666666666</ele><time>2026-05-02T13:53:20.761Z</time></trkpt><trkpt lat="43.9579863" lon="10.8958478"><ele>106.33333333333333</ele><time>2026-05-02T13:53:21.768Z</time></trkpt><trkpt lat="43.9581697" lon="10.8958054"><ele>107.0</ele><time>2026-05-02T13:53:22.762Z</time></trkpt><trkpt lat="43.9583535" lon="10.8957757"><ele>108.0</ele><time>2026-05-02T13:53:23.762Z</time></trkpt><trkpt lat="43.9585369" lon="10.8957461"><ele>109.0</ele><time>2026-05-02T13:53:24.76Z</time></trkpt><trkpt lat="43.9587251" lon="10.8957211"><ele>110.0</ele><time>2026-05-02T13:53:25.769Z</time></trkpt><trkpt lat="43.958923" lon="10.8956934"><ele>110.0</ele><time>2026-05-02T13:53:26.764Z</time></trkpt><trkpt lat="43.9591279" lon="10.8956742"><ele>110.0</ele><time>2026-05-02T13:53:27.764Z</time></trkpt><trkpt lat="43.9593343" lon="10.8956538"><ele>110.0</ele><time>2026-05-02T13:53:28.755Z</time></trkpt><trkpt lat="43.9595393" lon="10.8956262"><ele>111.0</ele><time>2026-05-02T13:53:29.762Z</time></trkpt><trkpt lat="43.959751" lon="10.8955949"><ele>112.0</ele><time>2026-05-02T13:53:30.76Z</time></trkpt><trkpt lat="43.959961" lon="10.895572"><ele>113.0</ele><time>2026-05-02T13:53:31.76Z</time></trkpt><trkpt lat="43.9601748" lon="10.8955448"><ele>113.33333333333333</ele><time>2026-05-02T13:53:32.759Z</time></trkpt><trkpt lat="43.9603887" lon="10.895506"><ele>113.66666666666666</ele><time>2026-05-02T13:53:33.762Z</time></trkpt><trkpt lat="43.9606041" lon="10.8954718"><ele>114.0</ele><time>2026-05-02T13:53:34.75Z</time></trkpt><trkpt lat="43.9608248" lon="10.895437"><ele>113.5</ele><time>2026-05-02T13:53:35.761Z</time></trkpt><trkpt lat="43.9610507" lon="10.8954074"><ele>113.0</ele><time>2026-05-02T13:53:36.758Z</time></trkpt><trkpt lat="43.961286" lon="10.8953764"><ele>113.0</ele><time>2026-05-02T13:53:37.76Z</time></trkpt><trkpt lat="43.9615295" lon="10.895335"><ele>113.0</ele><time>2026-05-02T13:53:38.777Z</time></trkpt><trkpt lat="43.9617687" lon="10.8952979"><ele>114.5</ele><time>2026-05-02T13:53:39.759Z</time></trkpt><trkpt lat="43.9620096" lon="10.895263"><ele>116.0</ele><time>2026-05-02T13:53:40.76Z</time></trkpt><trkpt lat="43.9622581" lon="10.8952386"><ele>116.0</ele><time>2026-05-02T13:53:41.755Z</time></trkpt><trkpt lat="43.9625057" lon="10.8952067"><ele>116.0</ele><time>2026-05-02T13:53:42.759Z</time></trkpt><trkpt lat="43.9627366" lon="10.8951753"><ele>115.5</ele><time>2026-05-02T13:53:43.758Z</time></trkpt><trkpt lat="43.9629804" lon="10.8951498"><ele>115.0</ele><time>2026-05-02T13:53:44.752Z</time></trkpt><trkpt lat="43.963207" lon="10.8951011"><ele>115.33333333333334</ele><time>2026-05-02T13:53:45.739Z</time></trkpt><trkpt lat="43.9634212" lon="10.8950358"><ele>115.66666666666666</ele><time>2026-05-02T13:53:46.74Z</time></trkpt><trkpt lat="43.9636355" lon="10.8949607"><ele>116.0</ele><time>2026-05-02T13:53:47.751Z</time></trkpt><trkpt lat="43.9638448" lon="10.8948686"><ele>116.0</ele><time>2026-05-02T13:53:48.747Z</time></trkpt><trkpt lat="43.9640453" lon="10.8947679"><ele>116.0</ele><time>2026-05-02T13:53:49.738Z</time></trkpt><trkpt lat="43.9642404" lon="10.894668"><ele>116.0</ele><time>2026-05-02T13:53:50.747Z</time></trkpt><trkpt lat="43.9644208" lon="10.8945602"><ele>117.33333333333333</ele><time>2026-05-02T13:53:51.747Z</time></trkpt><trkpt lat="43.9646035" lon="10.8944531"><ele>118.66666666666666</ele><time>2026-05-02T13:53:52.744Z</time></trkpt><trkpt lat="43.9647852" lon="10.8943402"><ele>120.0</ele><time>2026-05-02T13:53:53.745Z</time></trkpt><trkpt lat="43.9649604" lon="10.8942324"><ele>120.0</ele><time>2026-05-02T13:53:54.745Z</time></trkpt><trkpt lat="43.9651361" lon="10.8941269"><ele>120.0</ele><time>2026-05-02T13:53:55.74Z</time></trkpt><trkpt lat="43.9653005" lon="10.8940173"><ele>120.0</ele><time>2026-05-02T13:53:56.745Z</time></trkpt><trkpt lat="43.9654596" lon="10.8939062"><ele>120.0</ele><time>2026-05-02T13:53:57.745Z</time></trkpt><trkpt lat="43.965615" lon="10.893795"><ele>120.0</ele><time>2026-05-02T13:53:58.744Z</time></trkpt><trkpt lat="43.9657525" lon="10.8936504"><ele>120.0</ele><time>2026-05-02T13:53:59.742Z</time></trkpt><trkpt lat="43.9658856" lon="10.8934932"><ele>120.66666666666666</ele><time>2026-05-02T13:54:00.743Z</time></trkpt><trkpt lat="43.9660076" lon="10.8933042"><ele>121.33333333333333</ele><time>2026-05-02T13:54:01.747Z</time></trkpt><trkpt lat="43.9661066" lon="10.8931164"><ele>122.0</ele><time>2026-05-02T13:54:02.741Z</time></trkpt><trkpt lat="43.9662" lon="10.892899"><ele>122.0</ele><time>2026-05-02T13:54:03.743Z</time></trkpt><trkpt lat="43.9662725" lon="10.8926649"><ele>122.0</ele><time>2026-05-02T13:54:04.741Z</time></trkpt><trkpt lat="43.9663372" lon="10.8924087"><ele>122.0</ele><time>2026-05-02T13:54:05.748Z</time></trkpt><trkpt lat="43.9664019" lon="10.8921643"><ele>122.33333333333333</ele><time>2026-05-02T13:54:06.74Z</time></trkpt><trkpt lat="43.9664686" lon="10.8919244"><ele>122.66666666666666</ele><time>2026-05-02T13:54:07.748Z</time></trkpt><trkpt lat="43.9665261" lon="10.8916943"><ele>123.0</ele><time>2026-05-02T13:54:08.74Z</time></trkpt><trkpt lat="43.9665925" lon="10.8914715"><ele>123.0</ele><time>2026-05-02T13:54:09.742Z</time></trkpt><trkpt lat="43.9666668" lon="10.8912571"><ele>123.0</ele><time>2026-05-02T13:54:10.737Z</time></trkpt><trkpt lat="43.9667677" lon="10.8910753"><ele>123.0</ele><time>2026-05-02T13:54:11.74Z</time></trkpt><trkpt lat="43.9668843" lon="10.8909083"><ele>124.33333333333334</ele><time>2026-05-02T13:54:12.74Z</time></trkpt><trkpt lat="43.9670276" lon="10.8907746"><ele>125.66666666666667</ele><time>2026-05-02T13:54:13.742Z</time></trkpt><trkpt lat="43.9671847" lon="10.8906715"><ele>127.0</ele><time>2026-05-02T13:54:14.742Z</time></trkpt><trkpt lat="43.9673506" lon="10.8905792"><ele>127.0</ele><time>2026-05-02T13:54:15.746Z</time></trkpt><trkpt lat="43.96752" lon="10.8905049"><ele>127.0</ele><time>2026-05-02T13:54:16.744Z</time></trkpt><trkpt lat="43.9676905" lon="10.8904358"><ele>127.0</ele><time>2026-05-02T13:54:17.743Z</time></trkpt><trkpt lat="43.9678634" lon="10.890364"><ele>127.0</ele><time>2026-05-02T13:54:18.749Z</time></trkpt><trkpt lat="43.9680364" lon="10.8902918"><ele>127.0</ele><time>2026-05-02T13:54:19.759Z</time></trkpt><trkpt lat="43.9682106" lon="10.8902349"><ele>127.0</ele><time>2026-05-02T13:54:20.758Z</time></trkpt><trkpt lat="43.9683773" lon="10.8901655"><ele>127.0</ele><time>2026-05-02T13:54:21.739Z</time></trkpt><trkpt lat="43.9685481" lon="10.8901044"><ele>127.0</ele><time>2026-05-02T13:54:22.748Z</time></trkpt><trkpt lat="43.9687211" lon="10.8900445"><ele>127.0</ele><time>2026-05-02T13:54:23.745Z</time></trkpt><trkpt lat="43.9688975" lon="10.889982"><ele>127.66666666666667</ele><time>2026-05-02T13:54:24.745Z</time></trkpt><trkpt lat="43.9690751" lon="10.889912"><ele>128.33333333333334</ele><time>2026-05-02T13:54:25.743Z</time></trkpt><trkpt lat="43.9692512" lon="10.8898461"><ele>129.0</ele><time>2026-05-02T13:54:26.763Z</time></trkpt><trkpt lat="43.9694316" lon="10.8897769"><ele>129.0</ele><time>2026-05-02T13:54:27.749Z</time></trkpt><trkpt lat="43.9696083" lon="10.8897074"><ele>129.0</ele><time>2026-05-02T13:54:28.742Z</time></trkpt><trkpt lat="43.9697885" lon="10.8896424"><ele>129.0</ele><time>2026-05-02T13:54:29.764Z</time></trkpt><trkpt lat="43.9699659" lon="10.8895692"><ele>129.66666666666666</ele><time>2026-05-02T13:54:30.763Z</time></trkpt><trkpt lat="43.9701479" lon="10.8894997"><ele>130.33333333333331</ele><time>2026-05-02T13:54:31.763Z</time></trkpt><trkpt lat="43.970332" lon="10.8894331"><ele>131.0</ele><time>2026-05-02T13:54:32.763Z</time></trkpt><trkpt lat="43.9705112" lon="10.8893648"><ele>131.0</ele><time>2026-05-02T13:54:33.765Z</time></trkpt><trkpt lat="43.9706881" lon="10.8893048"><ele>131.0</ele><time>2026-05-02T13:54:34.75Z</time></trkpt><trkpt lat="43.9708532" lon="10.8892406"><ele>131.0</ele><time>2026-05-02T13:54:35.764Z</time></trkpt><trkpt lat="43.9710077" lon="10.889182"><ele>132.0</ele><time>2026-05-02T13:54:36.75Z</time></trkpt><trkpt lat="43.9711626" lon="10.8891203"><ele>133.0</ele><time>2026-05-02T13:54:37.764Z</time></trkpt><trkpt lat="43.971314" lon="10.8890584"><ele>134.0</ele><time>2026-05-02T13:54:38.761Z</time></trkpt><trkpt lat="43.9714618" lon="10.8889841"><ele>134.0</ele><time>2026-05-02T13:54:39.763Z</time></trkpt><trkpt lat="43.9716034" lon="10.888895"><ele>134.0</ele><time>2026-05-02T13:54:40.763Z</time></trkpt><trkpt lat="43.9717433" lon="10.8888073"><ele>134.0</ele><time>2026-05-02T13:54:41.767Z</time></trkpt><trkpt lat="43.971891" lon="10.888731"><ele>134.66666666666666</ele><time>2026-05-02T13:54:42.779Z</time></trkpt><trkpt lat="43.9720481" lon="10.8886762"><ele>135.33333333333334</ele><time>2026-05-02T13:54:43.761Z</time></trkpt><trkpt lat="43.9722178" lon="10.8886467"><ele>136.0</ele><time>2026-05-02T13:54:44.75Z</time></trkpt><trkpt lat="43.9723958" lon="10.8886427"><ele>136.0</ele><time>2026-05-02T13:54:45.768Z</time></trkpt><trkpt lat="43.9725812" lon="10.888643"><ele>136.0</ele><time>2026-05-02T13:54:46.767Z</time></trkpt><trkpt lat="43.9727718" lon="10.8886336"><ele>136.0</ele><time>2026-05-02T13:54:47.749Z</time></trkpt><trkpt lat="43.9729655" lon="10.8886214"><ele>136.0</ele><time>2026-05-02T13:54:48.762Z</time></trkpt><trkpt lat="43.9731569" lon="10.8885936"><ele>136.0</ele><time>2026-05-02T13:54:49.763Z</time></trkpt><trkpt lat="43.9733345" lon="10.8885437"><ele>136.0</ele><time>2026-05-02T13:54:50.765Z</time></trkpt><trkpt lat="43.9735006" lon="10.8884741"><ele>139.5</ele><time>2026-05-02T13:54:51.769Z</time></trkpt><trkpt lat="43.9736463" lon="10.8883959"><ele>143.0</ele><time>2026-05-02T13:54:52.768Z</time></trkpt><trkpt lat="43.9737699" lon="10.8882997"><ele>146.5</ele><time>2026-05-02T13:54:53.766Z</time></trkpt><trkpt lat="43.9738713" lon="10.8881785"><ele>150.0</ele><time>2026-05-02T13:54:54.764Z</time></trkpt><trkpt lat="43.9739394" lon="10.8880254"><ele>150.0</ele><time>2026-05-02T13:54:55.761Z</time></trkpt><trkpt lat="43.9740052" lon="10.8878935"><ele>150.0</ele><time>2026-05-02T13:54:56.76Z</time></trkpt><trkpt lat="43.9739758" lon="10.8877213"><ele>150.0</ele><time>2026-05-02T13:54:57.759Z</time></trkpt><trkpt lat="43.9739684" lon="10.8875499"><ele>150.0</ele><time>2026-05-02T13:54:58.761Z</time></trkpt><trkpt lat="43.9738606" lon="10.8874103"><ele>152.75</ele><time>2026-05-02T13:54:59.762Z</time></trkpt><trkpt lat="43.9737556" lon="10.8873108"><ele>155.5</ele><time>2026-05-02T13:55:00.76Z</time></trkpt><trkpt lat="43.9736266" lon="10.8872684"><ele>158.25</ele><time>2026-05-02T13:55:01.766Z</time></trkpt><trkpt lat="43.9734701" lon="10.8872479"><ele>161.0</ele><time>2026-05-02T13:55:02.759Z</time></trkpt><trkpt lat="43.9733" lon="10.8872258"><ele>162.33333333333331</ele><time>2026-05-02T13:55:03.76Z</time></trkpt><trkpt lat="43.9731263" lon="10.8871857"><ele>163.66666666666666</ele><time>2026-05-02T13:55:04.761Z</time></trkpt><trkpt lat="43.9729473" lon="10.887122"><ele>165.0</ele><time>2026-05-02T13:55:05.765Z</time></trkpt><trkpt lat="43.9727593" lon="10.887048"><ele>165.0</ele><time>2026-05-02T13:55:06.764Z</time></trkpt><trkpt lat="43.972576" lon="10.8869818"><ele>165.0</ele><time>2026-05-02T13:55:07.762Z</time></trkpt><trkpt lat="43.9723991" lon="10.8869414"><ele>165.0</ele><time>2026-05-02T13:55:08.76Z</time></trkpt><trkpt lat="43.9722396" lon="10.8869266"><ele>164.0</ele><time>2026-05-02T13:55:09.78Z</time></trkpt><trkpt lat="43.9720875" lon="10.8869143"><ele>163.0</ele><time>2026-05-02T13:55:10.764Z</time></trkpt><trkpt lat="43.97195" lon="10.8869118"><ele>162.0</ele><time>2026-05-02T13:55:11.755Z</time></trkpt><trkpt lat="43.9718507" lon="10.8868701"><ele>161.0</ele><time>2026-05-02T13:55:12.758Z</time></trkpt><trkpt lat="43.9717849" lon="10.8867873"><ele>164.60000000000002</ele><time>2026-05-02T13:55:13.766Z</time></trkpt><trkpt lat="43.9717537" lon="10.8866836"><ele>168.2</ele><time>2026-05-02T13:55:14.76Z</time></trkpt><trkpt lat="43.9717544" lon="10.8865665"><ele>171.8</ele><time>2026-05-02T13:55:15.763Z</time></trkpt><trkpt lat="43.9717823" lon="10.8864229"><ele>175.39999999999998</ele><time>2026-05-02T13:55:16.76Z</time></trkpt><trkpt lat="43.9718287" lon="10.8862593"><ele>179.0</ele><time>2026-05-02T13:55:17.761Z</time></trkpt><trkpt lat="43.9718909" lon="10.8860814"><ele>184.33333333333331</ele><time>2026-05-02T13:55:18.764Z</time></trkpt><trkpt lat="43.9719758" lon="10.8859051"><ele>189.66666666666666</ele><time>2026-05-02T13:55:19.754Z</time></trkpt><trkpt lat="43.9720757" lon="10.8857555"><ele>195.0</ele><time>2026-05-02T13:55:20.76Z</time></trkpt><trkpt lat="43.9721832" lon="10.8856078"><ele>195.0</ele><time>2026-05-02T13:55:21.762Z</time></trkpt><trkpt lat="43.9722975" lon="10.8854768"><ele>195.0</ele><time>2026-05-02T13:55:22.783Z</time></trkpt><trkpt lat="43.9723995" lon="10.8853788"><ele>195.0</ele><time>2026-05-02T13:55:23.761Z</time></trkpt><trkpt lat="43.9724926" lon="10.8852995"><ele>195.0</ele><time>2026-05-02T13:55:24.764Z</time></trkpt><trkpt lat="43.9725838" lon="10.8852244"><ele>194.8</ele><time>2026-05-02T13:55:25.763Z</time></trkpt><trkpt lat="43.972664" lon="10.8851509"><ele>194.6</ele><time>2026-05-02T13:55:26.769Z</time></trkpt><trkpt lat="43.9727363" lon="10.8850712"><ele>194.39999999999998</ele><time>2026-05-02T13:55:27.761Z</time></trkpt><trkpt lat="43.9727976" lon="10.8849788"><ele>194.2</ele><time>2026-05-02T13:55:28.762Z</time></trkpt><trkpt lat="43.9728432" lon="10.8848744"><ele>194.0</ele><time>2026-05-02T13:55:29.742Z</time></trkpt><trkpt lat="43.9728344" lon="10.8847433"><ele>194.0</ele><time>2026-05-02T13:55:30.757Z</time></trkpt><trkpt lat="43.9728034" lon="10.8846165"><ele>194.0</ele><time>2026-05-02T13:55:31.764Z</time></trkpt><trkpt lat="43.9727405" lon="10.8845053"><ele>194.0</ele><time>2026-05-02T13:55:32.765Z</time></trkpt><trkpt lat="43.972648" lon="10.8844247"><ele>194.0</ele><time>2026-05-02T13:55:33.762Z</time></trkpt><trkpt lat="43.9725236" lon="10.8843612"><ele>194.0</ele><time>2026-05-02T13:55:34.75Z</time></trkpt><trkpt lat="43.9723755" lon="10.8842913"><ele>198.0</ele><time>2026-05-02T13:55:35.76Z</time></trkpt><trkpt lat="43.9722159" lon="10.8842079"><ele>202.0</ele><time>2026-05-02T13:55:36.761Z</time></trkpt><trkpt lat="43.972058" lon="10.8841036"><ele>206.0</ele><time>2026-05-02T13:55:37.762Z</time></trkpt><trkpt lat="43.9719302" lon="10.8840026"><ele>206.0</ele><time>2026-05-02T13:55:38.764Z</time></trkpt><trkpt lat="43.9718182" lon="10.883899"><ele>206.0</ele><time>2026-05-02T13:55:39.759Z</time></trkpt><trkpt lat="43.9717398" lon="10.8837818"><ele>206.0</ele><time>2026-05-02T13:55:40.763Z</time></trkpt><trkpt lat="43.9716983" lon="10.8836467"><ele>206.0</ele><time>2026-05-02T13:55:41.76Z</time></trkpt><trkpt lat="43.9717001" lon="10.8834994"><ele>208.4</ele><time>2026-05-02T13:55:42.764Z</time></trkpt><trkpt lat="43.9717385" lon="10.8833735"><ele>210.8</ele><time>2026-05-02T13:55:43.761Z</time></trkpt><trkpt lat="43.9718099" lon="10.8832899"><ele>213.20000000000002</ele><time>2026-05-02T13:55:44.76Z</time></trkpt><trkpt lat="43.9718989" lon="10.8832473"><ele>215.60000000000002</ele><time>2026-05-02T13:55:45.741Z</time></trkpt><trkpt lat="43.9719978" lon="10.8832414"><ele>218.0</ele><time>2026-05-02T13:55:46.759Z</time></trkpt><trkpt lat="43.9721056" lon="10.8832868"><ele>218.0</ele><time>2026-05-02T13:55:47.758Z</time></trkpt><trkpt lat="43.9722137" lon="10.883357"><ele>218.0</ele><time>2026-05-02T13:55:48.763Z</time></trkpt><trkpt lat="43.9723364" lon="10.8834422"><ele>218.0</ele><time>2026-05-02T13:55:49.761Z</time></trkpt><trkpt lat="43.9724531" lon="10.8835149"><ele>218.0</ele><time>2026-05-02T13:55:50.758Z</time></trkpt><trkpt lat="43.9725669" lon="10.8835763"><ele>218.60000000000002</ele><time>2026-05-02T13:55:51.759Z</time></trkpt><trkpt lat="43.9726753" lon="10.8835884"><ele>219.20000000000002</ele><time>2026-05-02T13:55:52.76Z</time></trkpt><trkpt lat="43.9727797" lon="10.8835568"><ele>219.8</ele><time>2026-05-02T13:55:53.762Z</time></trkpt><trkpt lat="43.9728637" lon="10.8834753"><ele>220.4</ele><time>2026-05-02T13:55:54.755Z</time></trkpt><trkpt lat="43.972917" lon="10.8833608"><ele>221.0</ele><time>2026-05-02T13:55:55.762Z</time></trkpt><trkpt lat="43.9729383" lon="10.8832255"><ele>221.0</ele><time>2026-05-02T13:55:56.749Z</time></trkpt><trkpt lat="43.9729387" lon="10.8830773"><ele>221.0</ele><time>2026-05-02T13:55:57.755Z</time></trkpt><trkpt lat="43.9729394" lon="10.882909"><ele>221.0</ele><time>2026-05-02T13:55:58.745Z</time></trkpt><trkpt lat="43.9729537" lon="10.8827447"><ele>221.0</ele><time>2026-05-02T13:55:59.76Z</time></trkpt><trkpt lat="43.972993" lon="10.8825918"><ele>223.5</ele><time>2026-05-02T13:56:00.764Z</time></trkpt><trkpt lat="43.9730543" lon="10.8824526"><ele>226.0</ele><time>2026-05-02T13:56:01.755Z</time></trkpt><trkpt lat="43.9731559" lon="10.8823671"><ele>228.5</ele><time>2026-05-02T13:56:02.762Z</time></trkpt><trkpt lat="43.9732703" lon="10.8822663"><ele>231.0</ele><time>2026-05-02T13:56:03.761Z</time></trkpt><trkpt lat="43.9733904" lon="10.8821641"><ele>234.25</ele><time>2026-05-02T13:56:04.773Z</time></trkpt><trkpt lat="43.9735156" lon="10.8820694"><ele>237.5</ele><time>2026-05-02T13:56:05.763Z</time></trkpt><trkpt lat="43.9736377" lon="10.8819835"><ele>240.75</ele><time>2026-05-02T13:56:06.765Z</time></trkpt><trkpt lat="43.9737579" lon="10.8819053"><ele>244.0</ele><time>2026-05-02T13:56:07.76Z</time></trkpt><trkpt lat="43.9738824" lon="10.8818402"><ele>244.0</ele><time>2026-05-02T13:56:08.759Z</time></trkpt><trkpt lat="43.9740116" lon="10.8817864"><ele>244.0</ele><time>2026-05-02T13:56:09.76Z</time></trkpt><trkpt lat="43.9741437" lon="10.8817398"><ele>244.0</ele><time>2026-05-02T13:56:10.753Z</time></trkpt><trkpt lat="43.9742779" lon="10.8816907"><ele>244.0</ele><time>2026-05-02T13:56:11.754Z</time></trkpt><trkpt lat="43.9744117" lon="10.8816462"><ele>243.75</ele><time>2026-05-02T13:56:12.791Z</time></trkpt><trkpt lat="43.9745451" lon="10.8816047"><ele>243.5</ele><time>2026-05-02T13:56:13.772Z</time></trkpt><trkpt lat="43.9746794" lon="10.8815575"><ele>243.25</ele><time>2026-05-02T13:56:14.765Z</time></trkpt><trkpt lat="43.9748189" lon="10.8815159"><ele>243.0</ele><time>2026-05-02T13:56:15.762Z</time></trkpt><trkpt lat="43.9749445" lon="10.8814679"><ele>239.4</ele><time>2026-05-02T13:56:16.759Z</time></trkpt><trkpt lat="43.9750557" lon="10.8814242"><ele>235.8</ele><time>2026-05-02T13:56:17.752Z</time></trkpt><trkpt lat="43.9751513" lon="10.8813532"><ele>232.2</ele><time>2026-05-02T13:56:18.766Z</time></trkpt><trkpt lat="43.9752166" lon="10.8812561"><ele>228.6</ele><time>2026-05-02T13:56:19.76Z</time></trkpt><trkpt lat="43.9752573" lon="10.8811245"><ele>225.0</ele><time>2026-05-02T13:56:20.773Z</time></trkpt><trkpt lat="43.9752658" lon="10.8809825"><ele>228.75</ele><time>2026-05-02T13:56:21.763Z</time></trkpt><trkpt lat="43.9752551" lon="10.8808154"><ele>232.5</ele><time>2026-05-02T13:56:22.763Z</time></trkpt><trkpt lat="43.9752365" lon="10.8806311"><ele>236.25</ele><time>2026-05-02T13:56:23.756Z</time></trkpt><trkpt lat="43.9752215" lon="10.8804442"><ele>240.0</ele><time>2026-05-02T13:56:24.761Z</time></trkpt><trkpt lat="43.975216" lon="10.8802556"><ele>240.75</ele><time>2026-05-02T13:56:25.767Z</time></trkpt><trkpt lat="43.9752207" lon="10.8800694"><ele>241.5</ele><time>2026-05-02T13:56:26.762Z</time></trkpt><trkpt lat="43.9752515" lon="10.8798828"><ele>242.25</ele><time>2026-05-02T13:56:27.762Z</time></trkpt><trkpt lat="43.9752838" lon="10.8797018"><ele>243.0</ele><time>2026-05-02T13:56:28.761Z</time></trkpt><trkpt lat="43.9753144" lon="10.8795165"><ele>243.0</ele><time>2026-05-02T13:56:29.756Z</time></trkpt><trkpt lat="43.9753493" lon="10.8793319"><ele>243.0</ele><time>2026-05-02T13:56:30.761Z</time></trkpt><trkpt lat="43.975374" lon="10.8791392"><ele>243.0</ele><time>2026-05-02T13:56:31.754Z</time></trkpt><trkpt lat="43.9753997" lon="10.8789547"><ele>243.0</ele><time>2026-05-02T13:56:32.766Z</time></trkpt><trkpt lat="43.9754357" lon="10.8787674"><ele>245.0</ele><time>2026-05-02T13:56:33.76Z</time></trkpt><trkpt lat="43.9754924" lon="10.8785948"><ele>247.0</ele><time>2026-05-02T13:56:34.763Z</time></trkpt><trkpt lat="43.9755629" lon="10.8784438"><ele>249.0</ele><time>2026-05-02T13:56:35.762Z</time></trkpt><trkpt lat="43.9756384" lon="10.8783082"><ele>251.0</ele><time>2026-05-02T13:56:36.75Z</time></trkpt><trkpt lat="43.9757128" lon="10.8781829"><ele>252.75</ele><time>2026-05-02T13:56:37.76Z</time></trkpt><trkpt lat="43.9757672" lon="10.8780614"><ele>254.5</ele><time>2026-05-02T13:56:38.757Z</time></trkpt><trkpt lat="43.9758307" lon="10.8779397"><ele>256.25</ele><time>2026-05-02T13:56:39.761Z</time></trkpt><trkpt lat="43.9758978" lon="10.8777933"><ele>258.0</ele><time>2026-05-02T13:56:40.763Z</time></trkpt><trkpt lat="43.9758618" lon="10.8776295"><ele>261.0</ele><time>2026-05-02T13:56:41.761Z</time></trkpt><trkpt lat="43.9758619" lon="10.8774618"><ele>264.0</ele><time>2026-05-02T13:56:42.764Z</time></trkpt><trkpt lat="43.9758189" lon="10.8773166"><ele>267.0</ele><time>2026-05-02T13:56:43.762Z</time></trkpt><trkpt lat="43.9757538" lon="10.8771989"><ele>270.0</ele><time>2026-05-02T13:56:44.741Z</time></trkpt><trkpt lat="43.9756745" lon="10.8770951"><ele>273.0</ele><time>2026-05-02T13:56:45.76Z</time></trkpt><trkpt lat="43.9755644" lon="10.8769972"><ele>274.0</ele><time>2026-05-02T13:56:46.759Z</time></trkpt><trkpt lat="43.9754499" lon="10.8768894"><ele>275.0</ele><time>2026-05-02T13:56:47.771Z</time></trkpt><trkpt lat="43.975331" lon="10.8767798"><ele>276.0</ele><time>2026-05-02T13:56:48.77Z</time></trkpt><trkpt lat="43.9752144" lon="10.8766757"><ele>277.0</ele><time>2026-05-02T13:56:49.752Z</time></trkpt><trkpt lat="43.9751031" lon="10.8765801"><ele>278.0</ele><time>2026-05-02T13:56:50.761Z</time></trkpt><trkpt lat="43.9750053" lon="10.8765016"><ele>279.0</ele><time>2026-05-02T13:56:51.769Z</time></trkpt><trkpt lat="43.9749304" lon="10.8764108"><ele>280.0</ele><time>2026-05-02T13:56:52.761Z</time></trkpt><trkpt lat="43.9748861" lon="10.8763082"><ele>281.0</ele><time>2026-05-02T13:56:53.762Z</time></trkpt><trkpt lat="43.9748637" lon="10.8761863"><ele>282.0</ele><time>2026-05-02T13:56:54.761Z</time></trkpt><trkpt lat="43.9748721" lon="10.8760586"><ele>282.0</ele><time>2026-05-02T13:56:55.762Z</time></trkpt><trkpt lat="43.9749095" lon="10.875946"><ele>282.0</ele><time>2026-05-02T13:56:56.772Z</time></trkpt><trkpt lat="43.9749842" lon="10.875844"><ele>282.0</ele><time>2026-05-02T13:56:57.76Z</time></trkpt><trkpt lat="43.9750824" lon="10.8757624"><ele>282.0</ele><time>2026-05-02T13:56:58.763Z</time></trkpt><trkpt lat="43.9751967" lon="10.8756931"><ele>282.0</ele><time>2026-05-02T13:56:59.76Z</time></trkpt><trkpt lat="43.9753214" lon="10.8756198"><ele>286.5</ele><time>2026-05-02T13:57:00.763Z</time></trkpt><trkpt lat="43.9754484" lon="10.8755472"><ele>291.0</ele><time>2026-05-02T13:57:01.767Z</time></trkpt><trkpt lat="43.9755705" lon="10.8754942"><ele>295.5</ele><time>2026-05-02T13:57:02.761Z</time></trkpt><trkpt lat="43.9756856" lon="10.8754738"><ele>300.0</ele><time>2026-05-02T13:57:03.762Z</time></trkpt><trkpt lat="43.9758037" lon="10.8754831"><ele>301.75</ele><time>2026-05-02T13:57:04.754Z</time></trkpt><trkpt lat="43.9759256" lon="10.8755153"><ele>303.5</ele><time>2026-05-02T13:57:05.757Z</time></trkpt><trkpt lat="43.9760567" lon="10.875566"><ele>305.25</ele><time>2026-05-02T13:57:06.764Z</time></trkpt><trkpt lat="43.9761915" lon="10.875628"><ele>307.0</ele><time>2026-05-02T13:57:07.757Z</time></trkpt><trkpt lat="43.9763405" lon="10.8756985"><ele>307.0</ele><time>2026-05-02T13:57:08.759Z</time></trkpt><trkpt lat="43.9764919" lon="10.8757691"><ele>307.0</ele><time>2026-05-02T13:57:09.763Z</time></trkpt><trkpt lat="43.9766305" lon="10.875793"><ele>307.0</ele><time>2026-05-02T13:57:10.757Z</time></trkpt><trkpt lat="43.9767647" lon="10.8757754"><ele>307.0</ele><time>2026-05-02T13:57:11.757Z</time></trkpt><trkpt lat="43.9769038" lon="10.875726"><ele>309.3333333333333</ele><time>2026-05-02T13:57:12.754Z</time></trkpt><trkpt lat="43.9770507" lon="10.8756595"><ele>311.6666666666667</ele><time>2026-05-02T13:57:13.747Z</time></trkpt><trkpt lat="43.9771928" lon="10.8755989"><ele>314.0</ele><time>2026-05-02T13:57:14.762Z</time></trkpt><trkpt lat="43.9773474" lon="10.8755436"><ele>314.0</ele><time>2026-05-02T13:57:15.762Z</time></trkpt><trkpt lat="43.9775004" lon="10.8754997"><ele>314.0</ele><time>2026-05-02T13:57:16.751Z</time></trkpt><trkpt lat="43.977656" lon="10.8754784"><ele>314.0</ele><time>2026-05-02T13:57:17.758Z</time></trkpt><trkpt lat="43.9778224" lon="10.8754705"><ele>312.6666666666667</ele><time>2026-05-02T13:57:18.762Z</time></trkpt><trkpt lat="43.977981" lon="10.8754616"><ele>311.3333333333333</ele><time>2026-05-02T13:57:19.759Z</time></trkpt><trkpt lat="43.9781285" lon="10.8754404"><ele>310.0</ele><time>2026-05-02T13:57:20.763Z</time></trkpt><trkpt lat="43.978276" lon="10.8753867"><ele>309.3333333333333</ele><time>2026-05-02T13:57:21.742Z</time></trkpt><trkpt lat="43.9784168" lon="10.8752948"><ele>308.6666666666667</ele><time>2026-05-02T13:57:22.747Z</time></trkpt><trkpt lat="43.9785512" lon="10.8751685"><ele>308.0</ele><time>2026-05-02T13:57:23.768Z</time></trkpt><trkpt lat="43.9786848" lon="10.8750278"><ele>315.0</ele><time>2026-05-02T13:57:24.762Z</time></trkpt><trkpt lat="43.9788297" lon="10.8749016"><ele>322.0</ele><time>2026-05-02T13:57:25.757Z</time></trkpt><trkpt lat="43.9789994" lon="10.8748247"><ele>329.0</ele><time>2026-05-02T13:57:26.759Z</time></trkpt><trkpt lat="43.9791633" lon="10.8747638"><ele>332.0</ele><time>2026-05-02T13:57:27.748Z</time></trkpt><trkpt lat="43.9793334" lon="10.8747453"><ele>335.0</ele><time>2026-05-02T13:57:28.759Z</time></trkpt><trkpt lat="43.9795043" lon="10.8747778"><ele>338.0</ele><time>2026-05-02T13:57:29.769Z</time></trkpt><trkpt lat="43.9796655" lon="10.8748205"><ele>338.0</ele><time>2026-05-02T13:57:30.755Z</time></trkpt><trkpt lat="43.9798141" lon="10.8748889"><ele>338.0</ele><time>2026-05-02T13:57:31.754Z</time></trkpt><trkpt lat="43.9799453" lon="10.8749485"><ele>338.0</ele><time>2026-05-02T13:57:32.745Z</time></trkpt><trkpt lat="43.980062" lon="10.8749678"><ele>338.0</ele><time>2026-05-02T13:57:33.769Z</time></trkpt><trkpt lat="43.9801694" lon="10.8749394"><ele>340.4</ele><time>2026-05-02T13:57:34.76Z</time></trkpt><trkpt lat="43.9802369" lon="10.8748733"><ele>342.79999999999995</ele><time>2026-05-02T13:57:35.763Z</time></trkpt><trkpt lat="43.9802871" lon="10.8747656"><ele>345.2</ele><time>2026-05-02T13:57:36.76Z</time></trkpt><trkpt lat="43.9802868" lon="10.8746292"><ele>347.6</ele><time>2026-05-02T13:57:37.769Z</time></trkpt><trkpt lat="43.9802629" lon="10.8745072"><ele>350.0</ele><time>2026-05-02T13:57:38.743Z</time></trkpt><trkpt lat="43.9801866" lon="10.874411"><ele>350.0</ele><time>2026-05-02T13:57:39.758Z</time></trkpt><trkpt lat="43.9800602" lon="10.8743651"><ele>350.0</ele><time>2026-05-02T13:57:40.76Z</time></trkpt><trkpt lat="43.9799224" lon="10.8743079"><ele>350.0</ele><time>2026-05-02T13:57:41.749Z</time></trkpt><trkpt lat="43.9797844" lon="10.8742457"><ele>350.0</ele><time>2026-05-02T13:57:42.747Z</time></trkpt><trkpt lat="43.9796491" lon="10.8741258"><ele>351.33333333333337</ele><time>2026-05-02T13:57:43.743Z</time></trkpt><trkpt lat="43.9795323" lon="10.8740036"><ele>352.6666666666667</ele><time>2026-05-02T13:57:44.748Z</time></trkpt><trkpt lat="43.9794303" lon="10.873838"><ele>354.0</ele><time>2026-05-02T13:57:45.749Z</time></trkpt><trkpt lat="43.9793238" lon="10.8736794"><ele>354.0</ele><time>2026-05-02T13:57:46.756Z</time></trkpt><trkpt lat="43.9792073" lon="10.8735523"><ele>354.0</ele><time>2026-05-02T13:57:47.764Z</time></trkpt><trkpt lat="43.9790886" lon="10.8734818"><ele>354.0</ele><time>2026-05-02T13:57:48.756Z</time></trkpt><trkpt lat="43.9789599" lon="10.873473"><ele>354.0</ele><time>2026-05-02T13:57:49.751Z</time></trkpt><trkpt lat="43.9788213" lon="10.8735136"><ele>354.25</ele><time>2026-05-02T13:57:50.759Z</time></trkpt><trkpt lat="43.9786768" lon="10.8735868"><ele>354.5</ele><time>2026-05-02T13:57:51.77Z</time></trkpt><trkpt lat="43.9785451" lon="10.8736524"><ele>354.75</ele><time>2026-05-02T13:57:52.744Z</time></trkpt><trkpt lat="43.9784163" lon="10.8737045"><ele>355.0</ele><time>2026-05-02T13:57:53.742Z</time></trkpt><trkpt lat="43.9783036" lon="10.8736602"><ele>355.0</ele><time>2026-05-02T13:57:54.764Z</time></trkpt><trkpt lat="43.9781996" lon="10.8735999"><ele>355.0</ele><time>2026-05-02T13:57:55.76Z</time></trkpt><trkpt lat="43.9781256" lon="10.8735082"><ele>355.0</ele><time>2026-05-02T13:57:56.762Z</time></trkpt><trkpt lat="43.9780867" lon="10.8733719"><ele>355.0</ele><time>2026-05-02T13:57:57.756Z</time></trkpt><trkpt lat="43.9780869" lon="10.8732312"><ele>355.0</ele><time>2026-05-02T13:57:58.76Z</time></trkpt><trkpt lat="43.9781181" lon="10.8730899"><ele>356.75</ele><time>2026-05-02T13:57:59.741Z</time></trkpt><trkpt lat="43.9781944" lon="10.8729695"><ele>358.5</ele><time>2026-05-02T13:58:00.763Z</time></trkpt><trkpt lat="43.9782994" lon="10.8728652"><ele>360.25</ele><time>2026-05-02T13:58:01.762Z</time></trkpt><trkpt lat="43.9784231" lon="10.8727806"><ele>362.0</ele><time>2026-05-02T13:58:02.74Z</time></trkpt><trkpt lat="43.9785548" lon="10.872701"><ele>365.0</ele><time>2026-05-02T13:58:03.759Z</time></trkpt><trkpt lat="43.9786761" lon="10.8726042"><ele>368.0</ele><time>2026-05-02T13:58:04.749Z</time></trkpt><trkpt lat="43.9787796" lon="10.8724692"><ele>371.0</ele><time>2026-05-02T13:58:05.781Z</time></trkpt><trkpt lat="43.97887" lon="10.872311"><ele>374.0</ele><time>2026-05-02T13:58:06.762Z</time></trkpt><trkpt lat="43.9789565" lon="10.8721343"><ele>374.0</ele><time>2026-05-02T13:58:07.767Z</time></trkpt><trkpt lat="43.9790378" lon="10.8719482"><ele>374.0</ele><time>2026-05-02T13:58:08.749Z</time></trkpt><trkpt lat="43.9791156" lon="10.8717455"><ele>374.0</ele><time>2026-05-02T13:58:09.763Z</time></trkpt><trkpt lat="43.9791811" lon="10.8715309"><ele>382.33333333333337</ele><time>2026-05-02T13:58:10.761Z</time></trkpt><trkpt lat="43.9792332" lon="10.8713073"><ele>390.6666666666667</ele><time>2026-05-02T13:58:11.763Z</time></trkpt><trkpt lat="43.9792902" lon="10.8710864"><ele>399.0</ele><time>2026-05-02T13:58:12.742Z</time></trkpt><trkpt lat="43.9793563" lon="10.8708895"><ele>400.75</ele><time>2026-05-02T13:58:13.763Z</time></trkpt><trkpt lat="43.9794275" lon="10.8706964"><ele>402.5</ele><time>2026-05-02T13:58:14.761Z</time></trkpt><trkpt lat="43.9795279" lon="10.8705708"><ele>404.25</ele><time>2026-05-02T13:58:15.761Z</time></trkpt><trkpt lat="43.9796414" lon="10.8704388"><ele>406.0</ele><time>2026-05-02T13:58:16.759Z</time></trkpt><trkpt lat="43.9797619" lon="10.870303"><ele>406.0</ele><time>2026-05-02T13:58:17.762Z</time></trkpt><trkpt lat="43.9798754" lon="10.8701175"><ele>406.0</ele><time>2026-05-02T13:58:18.766Z</time></trkpt><trkpt lat="43.9799902" lon="10.8699287"><ele>406.0</ele><time>2026-05-02T13:58:19.763Z</time></trkpt><trkpt lat="43.9801106" lon="10.86973"><ele>413.6666666666667</ele><time>2026-05-02T13:58:20.758Z</time></trkpt><trkpt lat="43.9802414" lon="10.8695415"><ele>421.33333333333337</ele><time>2026-05-02T13:58:21.762Z</time></trkpt><trkpt lat="43.9803719" lon="10.8693625"><ele>429.0</ele><time>2026-05-02T13:58:22.762Z</time></trkpt><trkpt lat="43.9804821" lon="10.8691904"><ele>429.0</ele><time>2026-05-02T13:58:23.76Z</time></trkpt><trkpt lat="43.9805875" lon="10.8690181"><ele>429.0</ele><time>2026-05-02T13:58:24.756Z</time></trkpt><trkpt lat="43.9806497" lon="10.8688164"><ele>429.0</ele><time>2026-05-02T13:58:25.745Z</time></trkpt><trkpt lat="43.9806964" lon="10.8685462"><ele>426.66666666666663</ele><time>2026-05-02T13:58:26.761Z</time></trkpt><trkpt lat="43.9807344" lon="10.8682892"><ele>424.3333333333333</ele><time>2026-05-02T13:58:27.761Z</time></trkpt><trkpt lat="43.9807766" lon="10.8680416"><ele>422.0</ele><time>2026-05-02T13:58:28.76Z</time></trkpt><trkpt lat="43.980806" lon="10.8678109"><ele>420.0</ele><time>2026-05-02T13:58:29.761Z</time></trkpt><trkpt lat="43.9808307" lon="10.8675999"><ele>418.0</ele><time>2026-05-02T13:58:30.763Z</time></trkpt><trkpt lat="43.9808225" lon="10.8673936"><ele>416.0</ele><time>2026-05-02T13:58:31.762Z</time></trkpt><trkpt lat="43.9807702" lon="10.867202"><ele>416.0</ele><time>2026-05-02T13:58:32.76Z</time></trkpt><trkpt lat="43.9807089" lon="10.8670111"><ele>416.0</ele><time>2026-05-02T13:58:33.761Z</time></trkpt><trkpt lat="43.9806418" lon="10.8668131"><ele>416.0</ele><time>2026-05-02T13:58:34.759Z</time></trkpt><trkpt lat="43.98059" lon="10.8665948"><ele>418.3333333333333</ele><time>2026-05-02T13:58:35.762Z</time></trkpt><trkpt lat="43.9805519" lon="10.8663722"><ele>420.66666666666663</ele><time>2026-05-02T13:58:36.761Z</time></trkpt><trkpt lat="43.9805197" lon="10.8661474"><ele>423.0</ele><time>2026-05-02T13:58:37.762Z</time></trkpt><trkpt lat="43.980495" lon="10.8659223"><ele>425.75</ele><time>2026-05-02T13:58:38.756Z</time></trkpt><trkpt lat="43.9804802" lon="10.8657099"><ele>428.5</ele><time>2026-05-02T13:58:39.747Z</time></trkpt><trkpt lat="43.9804742" lon="10.8655017"><ele>431.25</ele><time>2026-05-02T13:58:40.745Z</time></trkpt><trkpt lat="43.9804689" lon="10.8652992"><ele>434.0</ele><time>2026-05-02T13:58:41.742Z</time></trkpt><trkpt lat="43.9804679" lon="10.8650936"><ele>437.0</ele><time>2026-05-02T13:58:42.766Z</time></trkpt><trkpt lat="43.9804632" lon="10.8648908"><ele>440.0</ele><time>2026-05-02T13:58:43.753Z</time></trkpt><trkpt lat="43.9804742" lon="10.864702"><ele>443.0</ele><time>2026-05-02T13:58:44.768Z</time></trkpt><trkpt lat="43.9804911" lon="10.8645147"><ele>446.0</ele><time>2026-05-02T13:58:45.761Z</time></trkpt><trkpt lat="43.9805071" lon="10.8643333"><ele>446.0</ele><time>2026-05-02T13:58:46.764Z</time></trkpt><trkpt lat="43.9805367" lon="10.864169"><ele>446.0</ele><time>2026-05-02T13:58:47.76Z</time></trkpt><trkpt lat="43.980569" lon="10.8640194"><ele>446.0</ele><time>2026-05-02T13:58:48.764Z</time></trkpt><trkpt lat="43.9806052" lon="10.8638826"><ele>446.0</ele><time>2026-05-02T13:58:49.768Z</time></trkpt><trkpt lat="43.9806518" lon="10.8637579"><ele>446.0</ele><time>2026-05-02T13:58:50.763Z</time></trkpt><trkpt lat="43.9807219" lon="10.8636575"><ele>446.0</ele><time>2026-05-02T13:58:51.764Z</time></trkpt><trkpt lat="43.9808137" lon="10.8635774"><ele>446.0</ele><time>2026-05-02T13:58:52.77Z</time></trkpt><trkpt lat="43.9809197" lon="10.8635162"><ele>446.0</ele><time>2026-05-02T13:58:53.76Z</time></trkpt><trkpt lat="43.9810289" lon="10.863476"><ele>446.0</ele><time>2026-05-02T13:58:54.766Z</time></trkpt><trkpt lat="43.9811375" lon="10.8634599"><ele>446.0</ele><time>2026-05-02T13:58:55.76Z</time></trkpt><trkpt lat="43.9812285" lon="10.8634552"><ele>446.4</ele><time>2026-05-02T13:58:56.747Z</time></trkpt><trkpt lat="43.9813062" lon="10.8634531"><ele>446.8</ele><time>2026-05-02T13:58:57.755Z</time></trkpt><trkpt lat="43.9813712" lon="10.8634458"><ele>447.19999999999993</ele><time>2026-05-02T13:58:58.763Z</time></trkpt><trkpt lat="43.9814791" lon="10.8634117"><ele>447.59999999999997</ele><time>2026-05-02T13:59:00.76Z</time></trkpt><trkpt lat="43.981566" lon="10.8633418"><ele>448.0</ele><time>2026-05-02T13:59:02.763Z</time></trkpt><trkpt lat="43.9816518" lon="10.863277"><ele>453.59999999999997</ele><time>2026-05-02T13:59:04.752Z</time></trkpt><trkpt lat="43.981719" lon="10.8632358"><ele>459.19999999999993</ele><time>2026-05-02T13:59:06.759Z</time></trkpt><trkpt lat="43.9817762" lon="10.8631931"><ele>464.8</ele><time>2026-05-02T13:59:13.761Z</time></trkpt><trkpt lat="43.9818773" lon="10.8631766"><ele>470.4</ele><time>2026-05-02T13:59:15.76Z</time></trkpt><trkpt lat="43.9819949" lon="10.8631317"><ele>476.0</ele><time>2026-05-02T13:59:17.761Z</time></trkpt><trkpt lat="43.9820802" lon="10.8630984"><ele>476.0</ele><time>2026-05-02T13:59:19.762Z</time></trkpt><trkpt lat="43.9821128" lon="10.8630218"><ele>476.0</ele><time>2026-05-02T13:59:58.752Z</time></trkpt><trkpt lat="43.9821873" lon="10.8629842"><ele>476.0</ele><time>2026-05-02T14:00:00.761Z</time></trkpt><trkpt lat="43.9822885" lon="10.8628965"><ele>476.0</ele><time>2026-05-02T14:00:02.761Z</time></trkpt><trkpt lat="43.9823954" lon="10.8628043"><ele>476.0</ele><time>2026-05-02T14:00:04.763Z</time></trkpt><trkpt lat="43.9824622" lon="10.8627599"><ele>477.4</ele><time>2026-05-02T14:00:05.764Z</time></trkpt><trkpt lat="43.9825353" lon="10.8627007"><ele>478.8</ele><time>2026-05-02T14:00:06.766Z</time></trkpt><trkpt lat="43.9826216" lon="10.8626274"><ele>480.19999999999993</ele><time>2026-05-02T14:00:07.76Z</time></trkpt><trkpt lat="43.9827185" lon="10.8625502"><ele>481.59999999999997</ele><time>2026-05-02T14:00:08.766Z</time></trkpt><trkpt lat="43.9828161" lon="10.8624678"><ele>483.0</ele><time>2026-05-02T14:00:09.761Z</time></trkpt><trkpt lat="43.9829015" lon="10.8623571"><ele>483.0</ele><time>2026-05-02T14:00:10.757Z</time></trkpt><trkpt lat="43.9829635" lon="10.8622188"><ele>483.0</ele><time>2026-05-02T14:00:11.742Z</time></trkpt><trkpt lat="43.9829902" lon="10.8620606"><ele>483.0</ele><time>2026-05-02T14:00:12.755Z</time></trkpt><trkpt lat="43.9830086" lon="10.8618918"><ele>483.0</ele><time>2026-05-02T14:00:13.761Z</time></trkpt><trkpt lat="43.9830324" lon="10.8617354"><ele>480.4</ele><time>2026-05-02T14:00:14.764Z</time></trkpt><trkpt lat="43.9830768" lon="10.8616029"><ele>477.79999999999995</ele><time>2026-05-02T14:00:15.761Z</time></trkpt><trkpt lat="43.9831272" lon="10.8614978"><ele>475.2</ele><time>2026-05-02T14:00:16.76Z</time></trkpt><trkpt lat="43.9831791" lon="10.8613927"><ele>472.6</ele><time>2026-05-02T14:00:17.762Z</time></trkpt><trkpt lat="43.9832273" lon="10.8613072"><ele>470.0</ele><time>2026-05-02T14:00:18.769Z</time></trkpt><trkpt lat="43.9833576" lon="10.8612711"><ele>480.0</ele><time>2026-05-02T14:00:19.76Z</time></trkpt><trkpt lat="43.9834748" lon="10.8612407"><ele>490.0</ele><time>2026-05-02T14:00:20.747Z</time></trkpt><trkpt lat="43.9835974" lon="10.8612058"><ele>500.0</ele><time>2026-05-02T14:00:21.763Z</time></trkpt><trkpt lat="43.9837161" lon="10.8611495"><ele>510.0</ele><time>2026-05-02T14:00:22.763Z</time></trkpt><trkpt lat="43.9838247" lon="10.8610607"><ele>510.75</ele><time>2026-05-02T14:00:23.762Z</time></trkpt><trkpt lat="43.9839315" lon="10.8609245"><ele>511.5</ele><time>2026-05-02T14:00:24.76Z</time></trkpt><trkpt lat="43.9840293" lon="10.8607443"><ele>512.25</ele><time>2026-05-02T14:00:25.772Z</time></trkpt><trkpt lat="43.9841035" lon="10.8605763"><ele>513.0</ele><time>2026-05-02T14:00:26.758Z</time></trkpt><trkpt lat="43.9841931" lon="10.8604378"><ele>513.0</ele><time>2026-05-02T14:00:27.765Z</time></trkpt><trkpt lat="43.9842887" lon="10.8603406"><ele>513.0</ele><time>2026-05-02T14:00:28.786Z</time></trkpt><trkpt lat="43.9844063" lon="10.860267"><ele>513.0</ele><time>2026-05-02T14:00:29.772Z</time></trkpt><trkpt lat="43.9845473" lon="10.8601974"><ele>513.0</ele><time>2026-05-02T14:00:30.761Z</time></trkpt><trkpt lat="43.9846918" lon="10.8601096"><ele>516.6666666666666</ele><time>2026-05-02T14:00:31.762Z</time></trkpt><trkpt lat="43.9848134" lon="10.8599913"><ele>520.3333333333333</ele><time>2026-05-02T14:00:32.761Z</time></trkpt><trkpt lat="43.9849265" lon="10.8598432"><ele>524.0</ele><time>2026-05-02T14:00:33.767Z</time></trkpt><trkpt lat="43.9850381" lon="10.8596736"><ele>524.0</ele><time>2026-05-02T14:00:34.741Z</time></trkpt><trkpt lat="43.9851672" lon="10.8595066"><ele>524.0</ele><time>2026-05-02T14:00:35.76Z</time></trkpt><trkpt lat="43.9853015" lon="10.8593636"><ele>524.0</ele><time>2026-05-02T14:00:36.765Z</time></trkpt><trkpt lat="43.9854473" lon="10.8592564"><ele>530.0</ele><time>2026-05-02T14:00:37.76Z</time></trkpt><trkpt lat="43.9856018" lon="10.8591831"><ele>536.0</ele><time>2026-05-02T14:00:38.761Z</time></trkpt><trkpt lat="43.9857555" lon="10.8591376"><ele>542.0</ele><time>2026-05-02T14:00:39.759Z</time></trkpt><trkpt lat="43.9858868" lon="10.8590768"><ele>542.0</ele><time>2026-05-02T14:00:40.766Z</time></trkpt><trkpt lat="43.9859957" lon="10.8589759"><ele>542.0</ele><time>2026-05-02T14:00:41.749Z</time></trkpt><trkpt lat="43.986085" lon="10.8588377"><ele>542.0</ele><time>2026-05-02T14:00:42.771Z</time></trkpt><trkpt lat="43.9861147" lon="10.8586617"><ele>542.0</ele><time>2026-05-02T14:00:43.765Z</time></trkpt><trkpt lat="43.9861471" lon="10.8584984"><ele>541.5</ele><time>2026-05-02T14:00:44.76Z</time></trkpt><trkpt lat="43.9861191" lon="10.8583418"><ele>541.0</ele><time>2026-05-02T14:00:45.759Z</time></trkpt><trkpt lat="43.9860267" lon="10.8582219"><ele>540.5</ele><time>2026-05-02T14:00:46.763Z</time></trkpt><trkpt lat="43.9859319" lon="10.8580712"><ele>540.0</ele><time>2026-05-02T14:00:47.764Z</time></trkpt><trkpt lat="43.9858439" lon="10.8578853"><ele>531.3333333333334</ele><time>2026-05-02T14:00:48.761Z</time></trkpt><trkpt lat="43.9857643" lon="10.8576729"><ele>522.6666666666667</ele><time>2026-05-02T14:00:49.753Z</time></trkpt><trkpt lat="43.9856989" lon="10.8574601"><ele>514.0</ele><time>2026-05-02T14:00:50.781Z</time></trkpt><trkpt lat="43.9856584" lon="10.8572766"><ele>514.0</ele><time>2026-05-02T14:00:51.761Z</time></trkpt><trkpt lat="43.9856599" lon="10.8570917"><ele>514.0</ele><time>2026-05-02T14:00:52.759Z</time></trkpt><trkpt lat="43.9857074" lon="10.8569458"><ele>514.0</ele><time>2026-05-02T14:00:53.761Z</time></trkpt><trkpt lat="43.9857882" lon="10.856799"><ele>514.0</ele><time>2026-05-02T14:00:54.757Z</time></trkpt><trkpt lat="43.9858868" lon="10.8566364"><ele>523.0</ele><time>2026-05-02T14:00:55.74Z</time></trkpt><trkpt lat="43.9860002" lon="10.8564697"><ele>532.0</ele><time>2026-05-02T14:00:56.742Z</time></trkpt><trkpt lat="43.9861243" lon="10.8562972"><ele>541.0</ele><time>2026-05-02T14:00:57.77Z</time></trkpt><trkpt lat="43.986273" lon="10.8561441"><ele>541.0</ele><time>2026-05-02T14:00:58.762Z</time></trkpt><trkpt lat="43.9864335" lon="10.855993"><ele>541.0</ele><time>2026-05-02T14:00:59.763Z</time></trkpt><trkpt lat="43.9866113" lon="10.8558591"><ele>541.0</ele><time>2026-05-02T14:01:00.759Z</time></trkpt><trkpt lat="43.9867684" lon="10.8557061"><ele>541.3333333333334</ele><time>2026-05-02T14:01:01.761Z</time></trkpt><trkpt lat="43.9868995" lon="10.8555528"><ele>541.6666666666666</ele><time>2026-05-02T14:01:02.742Z</time></trkpt><trkpt lat="43.9870186" lon="10.8554018"><ele>542.0</ele><time>2026-05-02T14:01:03.759Z</time></trkpt><trkpt lat="43.98714" lon="10.8552978"><ele>542.0</ele><time>2026-05-02T14:01:04.764Z</time></trkpt><trkpt lat="43.9872736" lon="10.8552387"><ele>542.0</ele><time>2026-05-02T14:01:05.748Z</time></trkpt><trkpt lat="43.9874045" lon="10.8552373"><ele>542.0</ele><time>2026-05-02T14:01:06.76Z</time></trkpt><trkpt lat="43.9875189" lon="10.8552834"><ele>542.0</ele><time>2026-05-02T14:01:07.773Z</time></trkpt><trkpt lat="43.987599" lon="10.8553582"><ele>542.0</ele><time>2026-05-02T14:01:08.76Z</time></trkpt><trkpt lat="43.987643" lon="10.8554558"><ele>542.0</ele><time>2026-05-02T14:01:09.76Z</time></trkpt><trkpt lat="43.9876543" lon="10.8555714"><ele>542.0</ele><time>2026-05-02T14:01:10.765Z</time></trkpt><trkpt lat="43.9876309" lon="10.8556851"><ele>542.0</ele><time>2026-05-02T14:01:11.755Z</time></trkpt><trkpt lat="43.9875731" lon="10.8558011"><ele>542.0</ele><time>2026-05-02T14:01:12.756Z</time></trkpt><trkpt lat="43.9874872" lon="10.8559001"><ele>545.75</ele><time>2026-05-02T14:01:13.765Z</time></trkpt><trkpt lat="43.9873846" lon="10.8559884"><ele>549.5</ele><time>2026-05-02T14:01:14.758Z</time></trkpt><trkpt lat="43.9872658" lon="10.85608"><ele>553.25</ele><time>2026-05-02T14:01:15.761Z</time></trkpt><trkpt lat="43.9871378" lon="10.8561741"><ele>557.0</ele><time>2026-05-02T14:01:16.754Z</time></trkpt><trkpt lat="43.987028" lon="10.8562778"><ele>557.0</ele><time>2026-05-02T14:01:17.757Z</time></trkpt><trkpt lat="43.9869402" lon="10.8563784"><ele>557.0</ele><time>2026-05-02T14:01:18.761Z</time></trkpt><trkpt lat="43.9868833" lon="10.8565006"><ele>557.0</ele><time>2026-05-02T14:01:19.761Z</time></trkpt><trkpt lat="43.9868527" lon="10.8566266"><ele>557.0</ele><time>2026-05-02T14:01:20.76Z</time></trkpt><trkpt lat="43.9868766" lon="10.8567534"><ele>557.0</ele><time>2026-05-02T14:01:21.764Z</time></trkpt><trkpt lat="43.9869266" lon="10.8568691"><ele>561.0</ele><time>2026-05-02T14:01:22.762Z</time></trkpt><trkpt lat="43.9870038" lon="10.8569465"><ele>565.0</ele><time>2026-05-02T14:01:23.76Z</time></trkpt><trkpt lat="43.9870876" lon="10.8569812"><ele>569.0</ele><time>2026-05-02T14:01:24.762Z</time></trkpt><trkpt lat="43.9871877" lon="10.8569635"><ele>573.0</ele><time>2026-05-02T14:01:25.761Z</time></trkpt><trkpt lat="43.9872834" lon="10.856905"><ele>577.0</ele><time>2026-05-02T14:01:26.764Z</time></trkpt><trkpt lat="43.9873894" lon="10.8568187"><ele>574.75</ele><time>2026-05-02T14:01:27.768Z</time></trkpt><trkpt lat="43.9875035" lon="10.8567247"><ele>572.5</ele><time>2026-05-02T14:01:28.753Z</time></trkpt><trkpt lat="43.9876199" lon="10.8566308"><ele>570.25</ele><time>2026-05-02T14:01:29.763Z</time></trkpt><trkpt lat="43.9877333" lon="10.8565507"><ele>568.0</ele><time>2026-05-02T14:01:30.758Z</time></trkpt><trkpt lat="43.9878612" lon="10.8564764"><ele>568.0</ele><time>2026-05-02T14:01:31.755Z</time></trkpt><trkpt lat="43.9879889" lon="10.8564161"><ele>568.0</ele><time>2026-05-02T14:01:32.759Z</time></trkpt><trkpt lat="43.9881161" lon="10.8563715"><ele>568.0</ele><time>2026-05-02T14:01:33.767Z</time></trkpt><trkpt lat="43.9882449" lon="10.8563418"><ele>568.0</ele><time>2026-05-02T14:01:34.762Z</time></trkpt><trkpt lat="43.9883758" lon="10.856318"><ele>572.0</ele><time>2026-05-02T14:01:35.761Z</time></trkpt><trkpt lat="43.9885108" lon="10.8563066"><ele>576.0</ele><time>2026-05-02T14:01:36.76Z</time></trkpt><trkpt lat="43.9886478" lon="10.8562868"><ele>580.0</ele><time>2026-05-02T14:01:37.762Z</time></trkpt><trkpt lat="43.9887809" lon="10.8562677"><ele>584.0</ele><time>2026-05-02T14:01:38.76Z</time></trkpt><trkpt lat="43.9889154" lon="10.8562533"><ele>584.0</ele><time>2026-05-02T14:01:39.761Z</time></trkpt><trkpt lat="43.989052" lon="10.8562436"><ele>584.0</ele><time>2026-05-02T14:01:40.764Z</time></trkpt><trkpt lat="43.9891899" lon="10.8562269"><ele>584.0</ele><time>2026-05-02T14:01:41.76Z</time></trkpt><trkpt lat="43.9893266" lon="10.8561959"><ele>584.0</ele><time>2026-05-02T14:01:42.761Z</time></trkpt><trkpt lat="43.9894629" lon="10.8561571"><ele>582.75</ele><time>2026-05-02T14:01:43.764Z</time></trkpt><trkpt lat="43.9895896" lon="10.8561"><ele>581.5</ele><time>2026-05-02T14:01:44.763Z</time></trkpt><trkpt lat="43.9897069" lon="10.8560067"><ele>580.25</ele><time>2026-05-02T14:01:45.761Z</time></trkpt><trkpt lat="43.9898109" lon="10.8558887"><ele>579.0</ele><time>2026-05-02T14:01:46.762Z</time></trkpt><trkpt lat="43.9899144" lon="10.8557672"><ele>583.25</ele><time>2026-05-02T14:01:47.763Z</time></trkpt><trkpt lat="43.9900224" lon="10.855642"><ele>587.5</ele><time>2026-05-02T14:01:48.765Z</time></trkpt><trkpt lat="43.9901362" lon="10.855531"><ele>591.75</ele><time>2026-05-02T14:01:49.761Z</time></trkpt><trkpt lat="43.9902656" lon="10.8554536"><ele>596.0</ele><time>2026-05-02T14:01:50.781Z</time></trkpt><trkpt lat="43.9904031" lon="10.8554105"><ele>596.0</ele><time>2026-05-02T14:01:51.76Z</time></trkpt><trkpt lat="43.9905413" lon="10.8553829"><ele>596.0</ele><time>2026-05-02T14:01:52.76Z</time></trkpt><trkpt lat="43.9906826" lon="10.85535"><ele>596.0</ele><time>2026-05-02T14:01:53.76Z</time></trkpt><trkpt lat="43.9908155" lon="10.8552984"><ele>596.0</ele><time>2026-05-02T14:01:54.761Z</time></trkpt><trkpt lat="43.9909323" lon="10.8552103"><ele>596.25</ele><time>2026-05-02T14:01:55.761Z</time></trkpt><trkpt lat="43.9910416" lon="10.8551095"><ele>596.5</ele><time>2026-05-02T14:01:56.761Z</time></trkpt><trkpt lat="43.9911323" lon="10.8549768"><ele>596.75</ele><time>2026-05-02T14:01:57.757Z</time></trkpt><trkpt lat="43.9912113" lon="10.8548252"><ele>597.0</ele><time>2026-05-02T14:01:58.749Z</time></trkpt><trkpt lat="43.9912796" lon="10.8546699"><ele>597.0</ele><time>2026-05-02T14:01:59.76Z</time></trkpt><trkpt lat="43.9913361" lon="10.8545146"><ele>597.0</ele><time>2026-05-02T14:02:00.764Z</time></trkpt><trkpt lat="43.991389" lon="10.8543775"><ele>597.0</ele><time>2026-05-02T14:02:01.758Z</time></trkpt><trkpt lat="43.9914488" lon="10.8542609"><ele>597.0</ele><time>2026-05-02T14:02:02.757Z</time></trkpt><trkpt lat="43.9915195" lon="10.8542029"><ele>597.0</ele><time>2026-05-02T14:02:03.759Z</time></trkpt><trkpt lat="43.9915999" lon="10.8541765"><ele>597.0</ele><time>2026-05-02T14:02:04.768Z</time></trkpt><trkpt lat="43.9916911" lon="10.8541687"><ele>597.0</ele><time>2026-05-02T14:02:05.761Z</time></trkpt><trkpt lat="43.9917989" lon="10.8541686"><ele>597.0</ele><time>2026-05-02T14:02:06.748Z</time></trkpt><trkpt lat="43.9919169" lon="10.8541712"><ele>597.0</ele><time>2026-05-02T14:02:07.759Z</time></trkpt><trkpt lat="43.9920462" lon="10.8541699"><ele>597.0</ele><time>2026-05-02T14:02:08.775Z</time></trkpt><trkpt lat="43.9921684" lon="10.8541622"><ele>597.0</ele><time>2026-05-02T14:02:09.758Z</time></trkpt><trkpt lat="43.9922962" lon="10.8541691"><ele>597.0</ele><time>2026-05-02T14:02:10.754Z</time></trkpt><trkpt lat="43.9924254" lon="10.8541619"><ele>597.0</ele><time>2026-05-02T14:02:11.764Z</time></trkpt><trkpt lat="43.9925542" lon="10.8541494"><ele>597.0</ele><time>2026-05-02T14:02:12.75Z</time></trkpt><trkpt lat="43.9926833" lon="10.8541447"><ele>598.75</ele><time>2026-05-02T14:02:13.757Z</time></trkpt><trkpt lat="43.9928171" lon="10.8541368"><ele>600.5</ele><time>2026-05-02T14:02:14.76Z</time></trkpt><trkpt lat="43.9929556" lon="10.854133"><ele>602.25</ele><time>2026-05-02T14:02:15.761Z</time></trkpt><trkpt lat="43.99309" lon="10.854124"><ele>604.0</ele><time>2026-05-02T14:02:16.767Z</time></trkpt><trkpt lat="43.9932245" lon="10.8541237"><ele>606.75</ele><time>2026-05-02T14:02:17.76Z</time></trkpt><trkpt lat="43.9933611" lon="10.8541272"><ele>609.5</ele><time>2026-05-02T14:02:18.763Z</time></trkpt><trkpt lat="43.9934816" lon="10.8541511"><ele>612.25</ele><time>2026-05-02T14:02:19.76Z</time></trkpt><trkpt lat="43.9935996" lon="10.854179"><ele>615.0</ele><time>2026-05-02T14:02:20.761Z</time></trkpt><trkpt lat="43.9937026" lon="10.8541983"><ele>615.0</ele><time>2026-05-02T14:02:21.755Z</time></trkpt><trkpt lat="43.9937988" lon="10.8542"><ele>615.0</ele><time>2026-05-02T14:02:22.746Z</time></trkpt><trkpt lat="43.9938665" lon="10.8541529"><ele>615.0</ele><time>2026-05-02T14:02:23.753Z</time></trkpt><trkpt lat="43.9939312" lon="10.8540733"><ele>615.0</ele><time>2026-05-02T14:02:24.757Z</time></trkpt><trkpt lat="43.9939695" lon="10.853944"><ele>615.0</ele><time>2026-05-02T14:02:25.768Z</time></trkpt><trkpt lat="43.9940122" lon="10.8538036"><ele>615.0</ele><time>2026-05-02T14:02:26.765Z</time></trkpt><trkpt lat="43.994046" lon="10.853651"><ele>615.0</ele><time>2026-05-02T14:02:27.762Z</time></trkpt><trkpt lat="43.9940831" lon="10.8534976"><ele>615.0</ele><time>2026-05-02T14:02:28.759Z</time></trkpt><trkpt lat="43.9941168" lon="10.8533507"><ele>615.0</ele><time>2026-05-02T14:02:29.755Z</time></trkpt><trkpt lat="43.9941516" lon="10.8532235"><ele>615.0</ele><time>2026-05-02T14:02:30.762Z</time></trkpt><trkpt lat="43.9941984" lon="10.8531113"><ele>616.1666666666666</ele><time>2026-05-02T14:02:31.763Z</time></trkpt><trkpt lat="43.9942471" lon="10.8530228"><ele>617.3333333333334</ele><time>2026-05-02T14:02:32.762Z</time></trkpt><trkpt lat="43.9943241" lon="10.8529778"><ele>618.5</ele><time>2026-05-02T14:02:33.759Z</time></trkpt><trkpt lat="43.9944041" lon="10.8529443"><ele>619.6666666666667</ele><time>2026-05-02T14:02:34.761Z</time></trkpt><trkpt lat="43.9944998" lon="10.852915"><ele>620.8333333333334</ele><time>2026-05-02T14:02:35.764Z</time></trkpt><trkpt lat="43.9945904" lon="10.8528461"><ele>622.0</ele><time>2026-05-02T14:02:36.762Z</time></trkpt><trkpt lat="43.994676" lon="10.8527836"><ele>622.0</ele><time>2026-05-02T14:02:37.76Z</time></trkpt><trkpt lat="43.9947335" lon="10.8526451"><ele>622.0</ele><time>2026-05-02T14:02:38.761Z</time></trkpt><trkpt lat="43.9947866" lon="10.8525181"><ele>622.0</ele><time>2026-05-02T14:02:39.762Z</time></trkpt><trkpt lat="43.9948371" lon="10.8523728"><ele>622.0</ele><time>2026-05-02T14:02:40.762Z</time></trkpt><trkpt lat="43.9948956" lon="10.8522268"><ele>621.2</ele><time>2026-05-02T14:02:41.761Z</time></trkpt><trkpt lat="43.9949503" lon="10.8520975"><ele>620.4000000000001</ele><time>2026-05-02T14:02:42.762Z</time></trkpt><trkpt lat="43.9950208" lon="10.8519882"><ele>619.5999999999999</ele><time>2026-05-02T14:02:43.757Z</time></trkpt><trkpt lat="43.9951064" lon="10.851902"><ele>618.8</ele><time>2026-05-02T14:02:44.761Z</time></trkpt><trkpt lat="43.9952051" lon="10.8518187"><ele>618.0</ele><time>2026-05-02T14:02:45.761Z</time></trkpt><trkpt lat="43.9953243" lon="10.8517402"><ele>623.0</ele><time>2026-05-02T14:02:46.763Z</time></trkpt><trkpt lat="43.9954449" lon="10.851666"><ele>628.0</ele><time>2026-05-02T14:02:47.766Z</time></trkpt><trkpt lat="43.9955513" lon="10.8515749"><ele>633.0</ele><time>2026-05-02T14:02:48.766Z</time></trkpt><trkpt lat="43.9956222" lon="10.8514615"><ele>638.0</ele><time>2026-05-02T14:02:49.767Z</time></trkpt><trkpt lat="43.995666" lon="10.8513378"><ele>638.0</ele><time>2026-05-02T14:02:50.761Z</time></trkpt><trkpt lat="43.9957003" lon="10.8511839"><ele>638.0</ele><time>2026-05-02T14:02:51.77Z</time></trkpt><trkpt lat="43.9957608" lon="10.8510467"><ele>638.0</ele><time>2026-05-02T14:02:52.761Z</time></trkpt><trkpt lat="43.995848" lon="10.8509282"><ele>638.0</ele><time>2026-05-02T14:02:53.757Z</time></trkpt><trkpt lat="43.9959562" lon="10.8508123"><ele>641.75</ele><time>2026-05-02T14:02:54.757Z</time></trkpt><trkpt lat="43.9960741" lon="10.850687"><ele>645.5</ele><time>2026-05-02T14:02:55.767Z</time></trkpt><trkpt lat="43.9961825" lon="10.8505561"><ele>649.25</ele><time>2026-05-02T14:02:56.762Z</time></trkpt><trkpt lat="43.9962833" lon="10.8504183"><ele>653.0</ele><time>2026-05-02T14:02:57.762Z</time></trkpt><trkpt lat="43.9963585" lon="10.8502736"><ele>651.75</ele><time>2026-05-02T14:02:58.763Z</time></trkpt><trkpt lat="43.9964047" lon="10.8501198"><ele>650.5</ele><time>2026-05-02T14:02:59.779Z</time></trkpt><trkpt lat="43.9964214" lon="10.8499379"><ele>649.25</ele><time>2026-05-02T14:03:00.76Z</time></trkpt><trkpt lat="43.9964246" lon="10.8497499"><ele>648.0</ele><time>2026-05-02T14:03:01.759Z</time></trkpt><trkpt lat="43.9964334" lon="10.8495613"><ele>648.0</ele><time>2026-05-02T14:03:02.764Z</time></trkpt><trkpt lat="43.9964399" lon="10.8493656"><ele>648.0</ele><time>2026-05-02T14:03:03.757Z</time></trkpt><trkpt lat="43.9964607" lon="10.8491673"><ele>648.0</ele><time>2026-05-02T14:03:04.762Z</time></trkpt><trkpt lat="43.9964949" lon="10.8489824"><ele>648.0</ele><time>2026-05-02T14:03:05.759Z</time></trkpt><trkpt lat="43.9965271" lon="10.8488243"><ele>648.0</ele><time>2026-05-02T14:03:06.76Z</time></trkpt><trkpt lat="43.9966329" lon="10.848715"><ele>648.0</ele><time>2026-05-02T14:03:07.757Z</time></trkpt><trkpt lat="43.9967437" lon="10.8486056"><ele>648.0</ele><time>2026-05-02T14:03:08.757Z</time></trkpt><trkpt lat="43.9968604" lon="10.8484893"><ele>648.0</ele><time>2026-05-02T14:03:09.758Z</time></trkpt><trkpt lat="43.9969769" lon="10.8483614"><ele>652.0</ele><time>2026-05-02T14:03:10.758Z</time></trkpt><trkpt lat="43.9970833" lon="10.8482317"><ele>656.0</ele><time>2026-05-02T14:03:11.759Z</time></trkpt><trkpt lat="43.9971713" lon="10.8480826"><ele>660.0</ele><time>2026-05-02T14:03:12.743Z</time></trkpt><trkpt lat="43.9972211" lon="10.8479079"><ele>664.0</ele><time>2026-05-02T14:03:13.76Z</time></trkpt><trkpt lat="43.9972512" lon="10.8477193"><ele>664.75</ele><time>2026-05-02T14:03:14.766Z</time></trkpt><trkpt lat="43.997273" lon="10.8475229"><ele>665.5</ele><time>2026-05-02T14:03:15.766Z</time></trkpt><trkpt lat="43.9972978" lon="10.847328"><ele>666.25</ele><time>2026-05-02T14:03:16.76Z</time></trkpt><trkpt lat="43.9973104" lon="10.8471225"><ele>667.0</ele><time>2026-05-02T14:03:17.764Z</time></trkpt><trkpt lat="43.9973314" lon="10.8469188"><ele>669.0</ele><time>2026-05-02T14:03:18.741Z</time></trkpt><trkpt lat="43.9973401" lon="10.8467121"><ele>671.0</ele><time>2026-05-02T14:03:19.743Z</time></trkpt><trkpt lat="43.9973623" lon="10.8465166"><ele>673.0</ele><time>2026-05-02T14:03:20.763Z</time></trkpt><trkpt lat="43.9973912" lon="10.8463269"><ele>675.0</ele><time>2026-05-02T14:03:21.762Z</time></trkpt><trkpt lat="43.9974319" lon="10.8461241"><ele>673.3333333333334</ele><time>2026-05-02T14:03:22.763Z</time></trkpt><trkpt lat="43.9974918" lon="10.8459243"><ele>671.6666666666667</ele><time>2026-05-02T14:03:23.762Z</time></trkpt><trkpt lat="43.9975609" lon="10.8457081"><ele>670.0</ele><time>2026-05-02T14:03:24.762Z</time></trkpt><trkpt lat="43.9976401" lon="10.8454784"><ele>677.3333333333334</ele><time>2026-05-02T14:03:25.763Z</time></trkpt><trkpt lat="43.997724" lon="10.8452439"><ele>684.6666666666666</ele><time>2026-05-02T14:03:26.761Z</time></trkpt><trkpt lat="43.9978054" lon="10.8450057"><ele>692.0</ele><time>2026-05-02T14:03:27.761Z</time></trkpt><trkpt lat="43.9978982" lon="10.8447554"><ele>692.0</ele><time>2026-05-02T14:03:28.755Z</time></trkpt><trkpt lat="43.9979827" lon="10.8445001"><ele>692.0</ele><time>2026-05-02T14:03:29.76Z</time></trkpt><trkpt lat="43.9980659" lon="10.8442364"><ele>692.0</ele><time>2026-05-02T14:03:30.759Z</time></trkpt><trkpt lat="43.9981491" lon="10.8439749"><ele>690.3333333333333</ele><time>2026-05-02T14:03:31.762Z</time></trkpt><trkpt lat="43.9982325" lon="10.8437092"><ele>688.6666666666666</ele><time>2026-05-02T14:03:32.759Z</time></trkpt><trkpt lat="43.9983102" lon="10.8434665"><ele>687.0</ele><time>2026-05-02T14:03:33.76Z</time></trkpt><trkpt lat="43.9983771" lon="10.8432499"><ele>693.0</ele><time>2026-05-02T14:03:34.761Z</time></trkpt><trkpt lat="43.9984394" lon="10.8430436"><ele>699.0</ele><time>2026-05-02T14:03:35.761Z</time></trkpt><trkpt lat="43.9984185" lon="10.8428451"><ele>705.0</ele><time>2026-05-02T14:03:36.772Z</time></trkpt><trkpt lat="43.9984035" lon="10.8426754"><ele>711.0</ele><time>2026-05-02T14:03:37.761Z</time></trkpt><trkpt lat="43.9983908" lon="10.842532"><ele>712.1666666666666</ele><time>2026-05-02T14:03:38.769Z</time></trkpt><trkpt lat="43.9983992" lon="10.842412"><ele>713.3333333333334</ele><time>2026-05-02T14:03:39.765Z</time></trkpt><trkpt lat="43.9984325" lon="10.8423267"><ele>714.5</ele><time>2026-05-02T14:03:40.762Z</time></trkpt><trkpt lat="43.9984852" lon="10.8422775"><ele>715.6666666666667</ele><time>2026-05-02T14:03:41.761Z</time></trkpt><trkpt lat="43.998555" lon="10.8422644"><ele>716.8333333333334</ele><time>2026-05-02T14:03:42.763Z</time></trkpt><trkpt lat="43.9986313" lon="10.8423031"><ele>718.0</ele><time>2026-05-02T14:03:43.761Z</time></trkpt><trkpt lat="43.9986931" lon="10.8423787"><ele>718.0</ele><time>2026-05-02T14:03:44.772Z</time></trkpt><trkpt lat="43.998731" lon="10.8425049"><ele>718.0</ele><time>2026-05-02T14:03:45.789Z</time></trkpt><trkpt lat="43.9987608" lon="10.8426559"><ele>718.0</ele><time>2026-05-02T14:03:46.761Z</time></trkpt><trkpt lat="43.998773" lon="10.8428313"><ele>718.0</ele><time>2026-05-02T14:03:47.761Z</time></trkpt><trkpt lat="43.9987774" lon="10.8430248"><ele>718.0</ele><time>2026-05-02T14:03:48.761Z</time></trkpt><trkpt lat="43.9987592" lon="10.8432159"><ele>718.0</ele><time>2026-05-02T14:03:49.765Z</time></trkpt><trkpt lat="43.99873" lon="10.8433901"><ele>718.0</ele><time>2026-05-02T14:03:50.767Z</time></trkpt><trkpt lat="43.9987057" lon="10.8435509"><ele>718.0</ele><time>2026-05-02T14:03:51.76Z</time></trkpt><trkpt lat="43.9986837" lon="10.8436976"><ele>718.0</ele><time>2026-05-02T14:03:52.76Z</time></trkpt><trkpt lat="43.9987139" lon="10.8438329"><ele>718.0</ele><time>2026-05-02T14:03:53.763Z</time></trkpt><trkpt lat="43.9987593" lon="10.8439451"><ele>718.0</ele><time>2026-05-02T14:03:54.759Z</time></trkpt><trkpt lat="43.9988241" lon="10.8440425"><ele>718.0</ele><time>2026-05-02T14:03:55.757Z</time></trkpt><trkpt lat="43.9989198" lon="10.8440791"><ele>718.0</ele><time>2026-05-02T14:03:56.763Z</time></trkpt><trkpt lat="43.9990124" lon="10.844063"><ele>718.0</ele><time>2026-05-02T14:03:57.761Z</time></trkpt><trkpt lat="43.9991082" lon="10.844016"><ele>718.0</ele><time>2026-05-02T14:03:58.765Z</time></trkpt><trkpt lat="43.9992113" lon="10.8439524"><ele>718.0</ele><time>2026-05-02T14:03:59.763Z</time></trkpt><trkpt lat="43.9993227" lon="10.8438491"><ele>718.0</ele><time>2026-05-02T14:04:00.771Z</time></trkpt><trkpt lat="43.9992324" lon="10.8435638"><ele>726.0</ele><time>2026-05-02T14:04:01.762Z</time></trkpt><trkpt lat="43.9992228" lon="10.8433355"><ele>734.0</ele><time>2026-05-02T14:04:02.761Z</time></trkpt><trkpt lat="43.9992374" lon="10.8431055"><ele>742.0</ele><time>2026-05-02T14:04:03.763Z</time></trkpt><trkpt lat="43.9992367" lon="10.8428629"><ele>742.0</ele><time>2026-05-02T14:04:04.759Z</time></trkpt><trkpt lat="43.999239" lon="10.8426386"><ele>742.0</ele><time>2026-05-02T14:04:05.758Z</time></trkpt><trkpt lat="43.9992397" lon="10.8424103"><ele>742.0</ele><time>2026-05-02T14:04:06.761Z</time></trkpt><trkpt lat="43.9992477" lon="10.8422205"><ele>742.25</ele><time>2026-05-02T14:04:07.758Z</time></trkpt><trkpt lat="43.9992744" lon="10.8420546"><ele>742.5</ele><time>2026-05-02T14:04:08.766Z</time></trkpt><trkpt lat="43.9993136" lon="10.841906"><ele>742.75</ele><time>2026-05-02T14:04:09.761Z</time></trkpt><trkpt lat="43.9993817" lon="10.8417875"><ele>743.0</ele><time>2026-05-02T14:04:10.757Z</time></trkpt><trkpt lat="43.999492" lon="10.8416796"><ele>742.0</ele><time>2026-05-02T14:04:11.756Z</time></trkpt><trkpt lat="43.999606" lon="10.8415641"><ele>741.0</ele><time>2026-05-02T14:04:12.751Z</time></trkpt><trkpt lat="43.9997354" lon="10.8414276"><ele>740.0</ele><time>2026-05-02T14:04:13.759Z</time></trkpt><trkpt lat="43.9998566" lon="10.8412639"><ele>740.0</ele><time>2026-05-02T14:04:14.748Z</time></trkpt><trkpt lat="43.9999788" lon="10.8410838"><ele>740.0</ele><time>2026-05-02T14:04:15.761Z</time></trkpt><trkpt lat="44.0000844" lon="10.8408901"><ele>740.0</ele><time>2026-05-02T14:04:16.76Z</time></trkpt><trkpt lat="44.0001716" lon="10.8406873"><ele>736.5</ele><time>2026-05-02T14:04:17.759Z</time></trkpt><trkpt lat="44.0002583" lon="10.8404883"><ele>733.0</ele><time>2026-05-02T14:04:18.771Z</time></trkpt><trkpt lat="44.0002824" lon="10.8403025"><ele>729.5</ele><time>2026-05-02T14:04:19.761Z</time></trkpt><trkpt lat="44.000309" lon="10.8401213"><ele>726.0</ele><time>2026-05-02T14:04:20.765Z</time></trkpt><trkpt lat="44.0002722" lon="10.8399847"><ele>724.5</ele><time>2026-05-02T14:04:21.761Z</time></trkpt><trkpt lat="44.0002238" lon="10.839866"><ele>723.0</ele><time>2026-05-02T14:04:22.742Z</time></trkpt><trkpt lat="44.0001751" lon="10.8397105"><ele>721.5</ele><time>2026-05-02T14:04:23.74Z</time></trkpt><trkpt lat="44.0000854" lon="10.8395973"><ele>720.0</ele><time>2026-05-02T14:04:24.731Z</time></trkpt><trkpt lat="43.9999656" lon="10.8394795"><ele>720.0</ele><time>2026-05-02T14:04:25.74Z</time></trkpt><trkpt lat="43.9998812" lon="10.8393474"><ele>720.0</ele><time>2026-05-02T14:04:26.741Z</time></trkpt><trkpt lat="43.999797" lon="10.8392032"><ele>720.0</ele><time>2026-05-02T14:04:27.739Z</time></trkpt><trkpt lat="43.9997452" lon="10.8390753"><ele>720.0</ele><time>2026-05-02T14:04:28.751Z</time></trkpt><trkpt lat="43.99975" lon="10.838841"><ele>721.0</ele><time>2026-05-02T14:04:29.746Z</time></trkpt><trkpt lat="43.9997724" lon="10.8386416"><ele>722.0</ele><time>2026-05-02T14:04:30.747Z</time></trkpt><trkpt lat="43.9999494" lon="10.8385036"><ele>723.0</ele><time>2026-05-02T14:04:31.745Z</time></trkpt><trkpt lat="44.0000549" lon="10.8383453"><ele>723.0</ele><time>2026-05-02T14:04:32.746Z</time></trkpt><trkpt lat="44.0001923" lon="10.8381824"><ele>723.0</ele><time>2026-05-02T14:04:33.742Z</time></trkpt><trkpt lat="44.0002788" lon="10.8380191"><ele>723.0</ele><time>2026-05-02T14:04:34.74Z</time></trkpt><trkpt lat="44.0004299" lon="10.8378663"><ele>721.6666666666666</ele><time>2026-05-02T14:04:35.745Z</time></trkpt><trkpt lat="44.0005376" lon="10.8376291"><ele>720.3333333333333</ele><time>2026-05-02T14:04:36.743Z</time></trkpt><trkpt lat="44.0006502" lon="10.8374496"><ele>719.0</ele><time>2026-05-02T14:04:37.744Z</time></trkpt><trkpt lat="44.0007931" lon="10.8372998"><ele>722.25</ele><time>2026-05-02T14:04:38.742Z</time></trkpt><trkpt lat="44.0009423" lon="10.8371915"><ele>725.5</ele><time>2026-05-02T14:04:39.745Z</time></trkpt><trkpt lat="44.0010639" lon="10.8371134"><ele>728.75</ele><time>2026-05-02T14:04:40.739Z</time></trkpt><trkpt lat="44.0012094" lon="10.8370824"><ele>732.0</ele><time>2026-05-02T14:04:41.74Z</time></trkpt><trkpt lat="44.0013335" lon="10.8370659"><ele>732.0</ele><time>2026-05-02T14:04:42.739Z</time></trkpt><trkpt lat="44.0014556" lon="10.8370742"><ele>732.0</ele><time>2026-05-02T14:04:43.737Z</time></trkpt><trkpt lat="44.0015702" lon="10.8371035"><ele>732.0</ele><time>2026-05-02T14:04:44.739Z</time></trkpt><trkpt lat="44.0016691" lon="10.8370807"><ele>732.0</ele><time>2026-05-02T14:04:45.74Z</time></trkpt><trkpt lat="44.0017572" lon="10.8370421"><ele>732.0</ele><time>2026-05-02T14:04:46.737Z</time></trkpt><trkpt lat="44.001847" lon="10.8368932"><ele>730.6666666666666</ele><time>2026-05-02T14:04:48.743Z</time></trkpt><trkpt lat="44.0017672" lon="10.8366947"><ele>729.3333333333333</ele><time>2026-05-02T14:04:49.738Z</time></trkpt><trkpt lat="44.0015445" lon="10.8365375"><ele>728.0</ele><time>2026-05-02T14:04:50.74Z</time></trkpt><trkpt lat="44.0014699" lon="10.8364292"><ele>728.0</ele><time>2026-05-02T14:04:51.74Z</time></trkpt><trkpt lat="44.0014225" lon="10.8362911"><ele>728.0</ele><time>2026-05-02T14:04:52.748Z</time></trkpt><trkpt lat="44.0014037" lon="10.8361404"><ele>728.0</ele><time>2026-05-02T14:04:53.74Z</time></trkpt><trkpt lat="44.001416" lon="10.835989"><ele>728.0</ele><time>2026-05-02T14:04:54.741Z</time></trkpt><trkpt lat="44.0014646" lon="10.8358196"><ele>729.5</ele><time>2026-05-02T14:04:55.738Z</time></trkpt><trkpt lat="44.0015418" lon="10.8356625"><ele>731.0</ele><time>2026-05-02T14:04:56.74Z</time></trkpt><trkpt lat="44.0016397" lon="10.8355365"><ele>732.5</ele><time>2026-05-02T14:04:57.742Z</time></trkpt><trkpt lat="44.0017481" lon="10.8354234"><ele>734.0</ele><time>2026-05-02T14:04:58.746Z</time></trkpt><trkpt lat="44.0018595" lon="10.8353221"><ele>738.25</ele><time>2026-05-02T14:04:59.741Z</time></trkpt><trkpt lat="44.0019552" lon="10.8352183"><ele>742.5</ele><time>2026-05-02T14:05:00.74Z</time></trkpt><trkpt lat="44.0020524" lon="10.8351161"><ele>746.75</ele><time>2026-05-02T14:05:01.746Z</time></trkpt><trkpt lat="44.0021368" lon="10.8350113"><ele>751.0</ele><time>2026-05-02T14:05:02.743Z</time></trkpt><trkpt lat="44.0022272" lon="10.8349269"><ele>751.0</ele><time>2026-05-02T14:05:03.741Z</time></trkpt><trkpt lat="44.0022773" lon="10.8347919"><ele>751.0</ele><time>2026-05-02T14:05:04.743Z</time></trkpt><trkpt lat="44.0023364" lon="10.8346854"><ele>751.0</ele><time>2026-05-02T14:05:05.744Z</time></trkpt><trkpt lat="44.0023801" lon="10.8345771"><ele>751.0</ele><time>2026-05-02T14:05:06.743Z</time></trkpt><trkpt lat="44.0024361" lon="10.8344576"><ele>751.0</ele><time>2026-05-02T14:05:07.744Z</time></trkpt><trkpt lat="44.0025045" lon="10.8343696"><ele>752.3333333333334</ele><time>2026-05-02T14:05:08.74Z</time></trkpt><trkpt lat="44.0025822" lon="10.8343279"><ele>753.6666666666667</ele><time>2026-05-02T14:05:09.74Z</time></trkpt><trkpt lat="44.0026612" lon="10.8343147"><ele>755.0</ele><time>2026-05-02T14:05:10.74Z</time></trkpt><trkpt lat="44.0027377" lon="10.8343447"><ele>756.3333333333334</ele><time>2026-05-02T14:05:11.742Z</time></trkpt><trkpt lat="44.0028081" lon="10.8343899"><ele>757.6666666666666</ele><time>2026-05-02T14:05:12.741Z</time></trkpt><trkpt lat="44.0028861" lon="10.8344647"><ele>759.0</ele><time>2026-05-02T14:05:13.745Z</time></trkpt><trkpt lat="44.0029687" lon="10.8345512"><ele>759.0</ele><time>2026-05-02T14:05:14.745Z</time></trkpt><trkpt lat="44.0030631" lon="10.834654"><ele>759.0</ele><time>2026-05-02T14:05:15.743Z</time></trkpt><trkpt lat="44.0031674" lon="10.8347663"><ele>759.0</ele><time>2026-05-02T14:05:16.741Z</time></trkpt><trkpt lat="44.0032732" lon="10.8348918"><ele>759.0</ele><time>2026-05-02T14:05:17.744Z</time></trkpt><trkpt lat="44.0033853" lon="10.8350172"><ele>759.0</ele><time>2026-05-02T14:05:18.737Z</time></trkpt><trkpt lat="44.0034868" lon="10.8351654"><ele>759.0</ele><time>2026-05-02T14:05:19.741Z</time></trkpt><trkpt lat="44.0035873" lon="10.8353299"><ele>759.0</ele><time>2026-05-02T14:05:20.734Z</time></trkpt><trkpt lat="44.0037209" lon="10.8354511"><ele>759.0</ele><time>2026-05-02T14:05:21.744Z</time></trkpt><trkpt lat="44.0038268" lon="10.8355592"><ele>759.0</ele><time>2026-05-02T14:05:22.739Z</time></trkpt><trkpt lat="44.0039378" lon="10.8356667"><ele>759.0</ele><time>2026-05-02T14:05:23.749Z</time></trkpt><trkpt lat="44.0040955" lon="10.8356734"><ele>759.0</ele><time>2026-05-02T14:05:24.745Z</time></trkpt><trkpt lat="44.0042325" lon="10.8357199"><ele>756.25</ele><time>2026-05-02T14:05:25.743Z</time></trkpt><trkpt lat="44.0043357" lon="10.835772"><ele>753.5</ele><time>2026-05-02T14:05:26.744Z</time></trkpt><trkpt lat="44.0044444" lon="10.8358171"><ele>750.75</ele><time>2026-05-02T14:05:27.747Z</time></trkpt><trkpt lat="44.0045558" lon="10.8358494"><ele>748.0</ele><time>2026-05-02T14:05:28.746Z</time></trkpt><trkpt lat="44.0046663" lon="10.8358901"><ele>748.0</ele><time>2026-05-02T14:05:29.744Z</time></trkpt><trkpt lat="44.0047704" lon="10.8359302"><ele>748.0</ele><time>2026-05-02T14:05:30.742Z</time></trkpt><trkpt lat="44.0048829" lon="10.835984"><ele>748.0</ele><time>2026-05-02T14:05:31.746Z</time></trkpt><trkpt lat="44.0049769" lon="10.836019"><ele>748.0</ele><time>2026-05-02T14:05:32.742Z</time></trkpt><trkpt lat="44.0050919" lon="10.8360594"><ele>748.0</ele><time>2026-05-02T14:05:33.74Z</time></trkpt><trkpt lat="44.0051768" lon="10.8360941"><ele>749.8333333333334</ele><time>2026-05-02T14:05:34.745Z</time></trkpt><trkpt lat="44.0052666" lon="10.8361224"><ele>751.6666666666667</ele><time>2026-05-02T14:05:35.74Z</time></trkpt><trkpt lat="44.0053518" lon="10.836138"><ele>753.5</ele><time>2026-05-02T14:05:36.738Z</time></trkpt><trkpt lat="44.0054369" lon="10.8361569"><ele>755.3333333333334</ele><time>2026-05-02T14:05:37.748Z</time></trkpt><trkpt lat="44.0055148" lon="10.836177"><ele>757.1666666666666</ele><time>2026-05-02T14:05:38.742Z</time></trkpt><trkpt lat="44.0055916" lon="10.8362016"><ele>759.0</ele><time>2026-05-02T14:05:39.74Z</time></trkpt><trkpt lat="44.0056535" lon="10.8362532"><ele>759.0</ele><time>2026-05-02T14:05:40.741Z</time></trkpt><trkpt lat="44.0057106" lon="10.836335"><ele>759.0</ele><time>2026-05-02T14:05:41.744Z</time></trkpt><trkpt lat="44.0057389" lon="10.8364464"><ele>759.0</ele><time>2026-05-02T14:05:42.74Z</time></trkpt><trkpt lat="44.0057553" lon="10.8365773"><ele>759.0</ele><time>2026-05-02T14:05:43.743Z</time></trkpt><trkpt lat="44.0057558" lon="10.8367225"><ele>759.0</ele><time>2026-05-02T14:05:44.744Z</time></trkpt><trkpt lat="44.0057555" lon="10.8368924"><ele>755.75</ele><time>2026-05-02T14:05:45.746Z</time></trkpt><trkpt lat="44.0057559" lon="10.8370768"><ele>752.5</ele><time>2026-05-02T14:05:46.748Z</time></trkpt><trkpt lat="44.0057638" lon="10.8372604"><ele>749.25</ele><time>2026-05-02T14:05:47.744Z</time></trkpt><trkpt lat="44.0057873" lon="10.8374311"><ele>746.0</ele><time>2026-05-02T14:05:48.744Z</time></trkpt><trkpt lat="44.0058353" lon="10.8375804"><ele>746.25</ele><time>2026-05-02T14:05:49.76Z</time></trkpt><trkpt lat="44.0059271" lon="10.8377092"><ele>746.5</ele><time>2026-05-02T14:05:50.741Z</time></trkpt><trkpt lat="44.006005" lon="10.8378353"><ele>746.75</ele><time>2026-05-02T14:05:51.755Z</time></trkpt><trkpt lat="44.0060598" lon="10.8379616"><ele>747.0</ele><time>2026-05-02T14:05:52.76Z</time></trkpt><trkpt lat="44.0060744" lon="10.8381028"><ele>747.0</ele><time>2026-05-02T14:05:53.763Z</time></trkpt><trkpt lat="44.0060631" lon="10.8382521"><ele>747.0</ele><time>2026-05-02T14:05:54.757Z</time></trkpt><trkpt lat="44.0060273" lon="10.8384076"><ele>747.0</ele><time>2026-05-02T14:05:55.759Z</time></trkpt><trkpt lat="44.0059548" lon="10.8385724"><ele>747.0</ele><time>2026-05-02T14:05:56.765Z</time></trkpt><trkpt lat="44.0058929" lon="10.8387368"><ele>755.75</ele><time>2026-05-02T14:05:57.76Z</time></trkpt><trkpt lat="44.0058135" lon="10.8389228"><ele>764.5</ele><time>2026-05-02T14:05:58.759Z</time></trkpt><trkpt lat="44.0057554" lon="10.8390971"><ele>773.25</ele><time>2026-05-02T14:05:59.755Z</time></trkpt><trkpt lat="44.0057129" lon="10.8392564"><ele>782.0</ele><time>2026-05-02T14:06:00.762Z</time></trkpt><trkpt lat="44.0056941" lon="10.8394165"><ele>784.5</ele><time>2026-05-02T14:06:01.76Z</time></trkpt><trkpt lat="44.0057034" lon="10.8395713"><ele>787.0</ele><time>2026-05-02T14:06:02.757Z</time></trkpt><trkpt lat="44.0057434" lon="10.8397305"><ele>789.5</ele><time>2026-05-02T14:06:03.76Z</time></trkpt><trkpt lat="44.0058137" lon="10.8398614"><ele>792.0</ele><time>2026-05-02T14:06:04.76Z</time></trkpt><trkpt lat="44.0058863" lon="10.8399809"><ele>784.5</ele><time>2026-05-02T14:06:05.76Z</time></trkpt><trkpt lat="44.0059841" lon="10.8400868"><ele>777.0</ele><time>2026-05-02T14:06:06.76Z</time></trkpt><trkpt lat="44.0061116" lon="10.8401509"><ele>769.5</ele><time>2026-05-02T14:06:07.754Z</time></trkpt><trkpt lat="44.006216" lon="10.8402266"><ele>762.0</ele><time>2026-05-02T14:06:08.762Z</time></trkpt><trkpt lat="44.0063298" lon="10.840296"><ele>762.0</ele><time>2026-05-02T14:06:09.767Z</time></trkpt><trkpt lat="44.0064143" lon="10.8403827"><ele>762.0</ele><time>2026-05-02T14:06:10.757Z</time></trkpt><trkpt lat="44.0064734" lon="10.8404953"><ele>762.0</ele><time>2026-05-02T14:06:11.755Z</time></trkpt><trkpt lat="44.0065151" lon="10.8406369"><ele>762.0</ele><time>2026-05-02T14:06:12.756Z</time></trkpt><trkpt lat="44.0065189" lon="10.8408047"><ele>762.0</ele><time>2026-05-02T14:06:13.76Z</time></trkpt><trkpt lat="44.0065042" lon="10.8409843"><ele>761.75</ele><time>2026-05-02T14:06:14.756Z</time></trkpt><trkpt lat="44.0064624" lon="10.8411579"><ele>761.5</ele><time>2026-05-02T14:06:15.755Z</time></trkpt><trkpt lat="44.0064108" lon="10.8413522"><ele>761.25</ele><time>2026-05-02T14:06:16.762Z</time></trkpt><trkpt lat="44.0063523" lon="10.8415557"><ele>761.0</ele><time>2026-05-02T14:06:17.743Z</time></trkpt><trkpt lat="44.0063014" lon="10.8417484"><ele>757.5</ele><time>2026-05-02T14:06:18.768Z</time></trkpt><trkpt lat="44.006267" lon="10.8419363"><ele>754.0</ele><time>2026-05-02T14:06:19.759Z</time></trkpt><trkpt lat="44.0062578" lon="10.8421159"><ele>750.5</ele><time>2026-05-02T14:06:20.741Z</time></trkpt><trkpt lat="44.0062464" lon="10.8422917"><ele>747.0</ele><time>2026-05-02T14:06:21.732Z</time></trkpt><trkpt lat="44.006158" lon="10.8424804"><ele>744.75</ele><time>2026-05-02T14:06:22.751Z</time></trkpt><trkpt lat="44.0060678" lon="10.8426659"><ele>742.5</ele><time>2026-05-02T14:06:23.761Z</time></trkpt><trkpt lat="44.0060136" lon="10.8428343"><ele>740.25</ele><time>2026-05-02T14:06:24.762Z</time></trkpt><trkpt lat="44.0059521" lon="10.8429989"><ele>738.0</ele><time>2026-05-02T14:06:25.76Z</time></trkpt><trkpt lat="44.0058981" lon="10.8431679"><ele>738.0</ele><time>2026-05-02T14:06:26.764Z</time></trkpt><trkpt lat="44.0058584" lon="10.8433255"><ele>738.0</ele><time>2026-05-02T14:06:27.761Z</time></trkpt><trkpt lat="44.0058243" lon="10.8434952"><ele>738.0</ele><time>2026-05-02T14:06:28.757Z</time></trkpt><trkpt lat="44.0057835" lon="10.8436843"><ele>738.0</ele><time>2026-05-02T14:06:29.759Z</time></trkpt><trkpt lat="44.0057642" lon="10.8438919"><ele>742.6666666666666</ele><time>2026-05-02T14:06:30.767Z</time></trkpt><trkpt lat="44.0057638" lon="10.8441138"><ele>747.3333333333333</ele><time>2026-05-02T14:06:31.758Z</time></trkpt><trkpt lat="44.0057611" lon="10.8443371"><ele>752.0</ele><time>2026-05-02T14:06:32.751Z</time></trkpt><trkpt lat="44.0057547" lon="10.8445548"><ele>752.0</ele><time>2026-05-02T14:06:33.758Z</time></trkpt><trkpt lat="44.0057551" lon="10.8447621"><ele>752.0</ele><time>2026-05-02T14:06:34.761Z</time></trkpt><trkpt lat="44.0057513" lon="10.8449628"><ele>752.0</ele><time>2026-05-02T14:06:35.759Z</time></trkpt><trkpt lat="44.0057546" lon="10.8451545"><ele>752.0</ele><time>2026-05-02T14:06:36.751Z</time></trkpt><trkpt lat="44.0057629" lon="10.845346"><ele>751.5</ele><time>2026-05-02T14:06:37.753Z</time></trkpt><trkpt lat="44.0057826" lon="10.8455393"><ele>751.0</ele><time>2026-05-02T14:06:38.76Z</time></trkpt><trkpt lat="44.0058119" lon="10.8457272"><ele>750.5</ele><time>2026-05-02T14:06:39.761Z</time></trkpt><trkpt lat="44.0058527" lon="10.8459079"><ele>750.0</ele><time>2026-05-02T14:06:40.761Z</time></trkpt><trkpt lat="44.0058946" lon="10.8460783"><ele>745.5</ele><time>2026-05-02T14:06:41.759Z</time></trkpt><trkpt lat="44.0059413" lon="10.8462353"><ele>741.0</ele><time>2026-05-02T14:06:42.752Z</time></trkpt><trkpt lat="44.0059791" lon="10.8463884"><ele>736.5</ele><time>2026-05-02T14:06:43.764Z</time></trkpt><trkpt lat="44.0060507" lon="10.8465324"><ele>732.0</ele><time>2026-05-02T14:06:44.761Z</time></trkpt><trkpt lat="44.006139" lon="10.8466669"><ele>734.0</ele><time>2026-05-02T14:06:45.755Z</time></trkpt><trkpt lat="44.006236" lon="10.8468094"><ele>736.0</ele><time>2026-05-02T14:06:46.762Z</time></trkpt><trkpt lat="44.0063196" lon="10.8469532"><ele>738.0</ele><time>2026-05-02T14:06:47.761Z</time></trkpt><trkpt lat="44.0064116" lon="10.8471016"><ele>740.0</ele><time>2026-05-02T14:06:48.759Z</time></trkpt><trkpt lat="44.0064928" lon="10.8472597"><ele>740.0</ele><time>2026-05-02T14:06:49.755Z</time></trkpt><trkpt lat="44.0065604" lon="10.8474387"><ele>740.0</ele><time>2026-05-02T14:06:50.762Z</time></trkpt><trkpt lat="44.0066112" lon="10.847632"><ele>740.0</ele><time>2026-05-02T14:06:51.76Z</time></trkpt><trkpt lat="44.0066619" lon="10.8478238"><ele>740.0</ele><time>2026-05-02T14:06:52.759Z</time></trkpt><trkpt lat="44.0067046" lon="10.8480201"><ele>737.25</ele><time>2026-05-02T14:06:53.763Z</time></trkpt><trkpt lat="44.0067414" lon="10.8482109"><ele>734.5</ele><time>2026-05-02T14:06:54.755Z</time></trkpt><trkpt lat="44.0067758" lon="10.8483813"><ele>731.75</ele><time>2026-05-02T14:06:55.76Z</time></trkpt><trkpt lat="44.0068445" lon="10.8485229"><ele>729.0</ele><time>2026-05-02T14:06:56.761Z</time></trkpt><trkpt lat="44.0069198" lon="10.8486657"><ele>727.0</ele><time>2026-05-02T14:06:57.745Z</time></trkpt><trkpt lat="44.0070134" lon="10.8487961"><ele>725.0</ele><time>2026-05-02T14:06:58.768Z</time></trkpt><trkpt lat="44.0071613" lon="10.8489157"><ele>723.0</ele><time>2026-05-02T14:06:59.746Z</time></trkpt><trkpt lat="44.0073178" lon="10.8490489"><ele>723.0</ele><time>2026-05-02T14:07:00.755Z</time></trkpt><trkpt lat="44.0074907" lon="10.8492051"><ele>723.0</ele><time>2026-05-02T14:07:01.756Z</time></trkpt><trkpt lat="44.0076669" lon="10.8493826"><ele>723.0</ele><time>2026-05-02T14:07:02.75Z</time></trkpt><trkpt lat="44.007844" lon="10.8495557"><ele>723.6666666666666</ele><time>2026-05-02T14:07:03.763Z</time></trkpt><trkpt lat="44.0080294" lon="10.8497278"><ele>724.3333333333333</ele><time>2026-05-02T14:07:04.76Z</time></trkpt><trkpt lat="44.0082032" lon="10.8498868"><ele>725.0</ele><time>2026-05-02T14:07:05.759Z</time></trkpt><trkpt lat="44.0083776" lon="10.8500289"><ele>726.0</ele><time>2026-05-02T14:07:06.766Z</time></trkpt><trkpt lat="44.0085507" lon="10.8501712"><ele>727.0</ele><time>2026-05-02T14:07:07.758Z</time></trkpt><trkpt lat="44.0087049" lon="10.8503301"><ele>728.0</ele><time>2026-05-02T14:07:08.76Z</time></trkpt><trkpt lat="44.0088575" lon="10.8504961"><ele>728.0</ele><time>2026-05-02T14:07:09.758Z</time></trkpt><trkpt lat="44.0089926" lon="10.8506794"><ele>728.0</ele><time>2026-05-02T14:07:10.758Z</time></trkpt><trkpt lat="44.0091354" lon="10.850859"><ele>728.0</ele><time>2026-05-02T14:07:11.756Z</time></trkpt><trkpt lat="44.0092736" lon="10.8510324"><ele>724.6666666666666</ele><time>2026-05-02T14:07:12.755Z</time></trkpt><trkpt lat="44.0094091" lon="10.851192"><ele>721.3333333333334</ele><time>2026-05-02T14:07:13.753Z</time></trkpt><trkpt lat="44.0095353" lon="10.8513632"><ele>718.0</ele><time>2026-05-02T14:07:14.762Z</time></trkpt><trkpt lat="44.0096494" lon="10.8515295"><ele>718.0</ele><time>2026-05-02T14:07:15.767Z</time></trkpt><trkpt lat="44.0097556" lon="10.8516951"><ele>718.0</ele><time>2026-05-02T14:07:16.752Z</time></trkpt><trkpt lat="44.0098662" lon="10.8518937"><ele>718.0</ele><time>2026-05-02T14:07:17.757Z</time></trkpt><trkpt lat="44.009971" lon="10.8521155"><ele>717.6666666666667</ele><time>2026-05-02T14:07:18.759Z</time></trkpt><trkpt lat="44.0100768" lon="10.8523437"><ele>717.3333333333334</ele><time>2026-05-02T14:07:19.767Z</time></trkpt><trkpt lat="44.0101597" lon="10.8525736"><ele>717.0</ele><time>2026-05-02T14:07:20.763Z</time></trkpt><trkpt lat="44.0102348" lon="10.8528002"><ele>715.3333333333334</ele><time>2026-05-02T14:07:21.76Z</time></trkpt><trkpt lat="44.0103103" lon="10.8530131"><ele>713.6666666666667</ele><time>2026-05-02T14:07:22.764Z</time></trkpt><trkpt lat="44.0103962" lon="10.8532208"><ele>712.0</ele><time>2026-05-02T14:07:23.764Z</time></trkpt><trkpt lat="44.0104979" lon="10.8533887"><ele>712.25</ele><time>2026-05-02T14:07:24.754Z</time></trkpt><trkpt lat="44.0105813" lon="10.8535431"><ele>712.5</ele><time>2026-05-02T14:07:25.758Z</time></trkpt><trkpt lat="44.0106689" lon="10.8536799"><ele>712.75</ele><time>2026-05-02T14:07:26.742Z</time></trkpt><trkpt lat="44.010754" lon="10.8538129"><ele>713.0</ele><time>2026-05-02T14:07:27.742Z</time></trkpt><trkpt lat="44.0108387" lon="10.8539359"><ele>712.25</ele><time>2026-05-02T14:07:28.767Z</time></trkpt><trkpt lat="44.0109181" lon="10.8540751"><ele>711.5</ele><time>2026-05-02T14:07:29.767Z</time></trkpt><trkpt lat="44.0110013" lon="10.8542181"><ele>710.75</ele><time>2026-05-02T14:07:30.76Z</time></trkpt><trkpt lat="44.0110742" lon="10.8543551"><ele>710.0</ele><time>2026-05-02T14:07:31.756Z</time></trkpt><trkpt lat="44.0111412" lon="10.8544866"><ele>709.2</ele><time>2026-05-02T14:07:32.768Z</time></trkpt><trkpt lat="44.0112078" lon="10.8546168"><ele>708.4</ele><time>2026-05-02T14:07:33.761Z</time></trkpt><trkpt lat="44.0112613" lon="10.8547423"><ele>707.5999999999999</ele><time>2026-05-02T14:07:34.759Z</time></trkpt><trkpt lat="44.0113228" lon="10.8548667"><ele>706.8</ele><time>2026-05-02T14:07:35.76Z</time></trkpt><trkpt lat="44.011386" lon="10.8550033"><ele>706.0</ele><time>2026-05-02T14:07:36.765Z</time></trkpt><trkpt lat="44.0114546" lon="10.8551511"><ele>705.0</ele><time>2026-05-02T14:07:37.761Z</time></trkpt><trkpt lat="44.0115099" lon="10.8553049"><ele>704.0</ele><time>2026-05-02T14:07:38.761Z</time></trkpt><trkpt lat="44.0115738" lon="10.8554586"><ele>703.0</ele><time>2026-05-02T14:07:39.762Z</time></trkpt><trkpt lat="44.0116424" lon="10.855608"><ele>702.0</ele><time>2026-05-02T14:07:40.758Z</time></trkpt><trkpt lat="44.0117073" lon="10.8557588"><ele>701.5</ele><time>2026-05-02T14:07:41.758Z</time></trkpt><trkpt lat="44.0117768" lon="10.8559079"><ele>701.0</ele><time>2026-05-02T14:07:42.767Z</time></trkpt><trkpt lat="44.011838" lon="10.8560675"><ele>700.5</ele><time>2026-05-02T14:07:43.76Z</time></trkpt><trkpt lat="44.0118972" lon="10.8562406"><ele>700.0</ele><time>2026-05-02T14:07:44.761Z</time></trkpt><trkpt lat="44.0119626" lon="10.8564283"><ele>700.0</ele><time>2026-05-02T14:07:45.762Z</time></trkpt><trkpt lat="44.0120372" lon="10.8566011"><ele>700.0</ele><time>2026-05-02T14:07:46.779Z</time></trkpt><trkpt lat="44.0121237" lon="10.8567677"><ele>700.0</ele><time>2026-05-02T14:07:47.767Z</time></trkpt><trkpt lat="44.0122296" lon="10.8569084"><ele>700.0</ele><time>2026-05-02T14:07:48.761Z</time></trkpt><trkpt lat="44.0123103" lon="10.8570418"><ele>699.75</ele><time>2026-05-02T14:07:49.764Z</time></trkpt><trkpt lat="44.0124419" lon="10.8571161"><ele>699.5</ele><time>2026-05-02T14:07:50.759Z</time></trkpt><trkpt lat="44.0125715" lon="10.8571905"><ele>699.25</ele><time>2026-05-02T14:07:51.761Z</time></trkpt><trkpt lat="44.0126868" lon="10.8572613"><ele>699.0</ele><time>2026-05-02T14:07:52.76Z</time></trkpt><trkpt lat="44.0128178" lon="10.8573378"><ele>699.0</ele><time>2026-05-02T14:07:53.764Z</time></trkpt><trkpt lat="44.0129369" lon="10.8574472"><ele>699.0</ele><time>2026-05-02T14:07:54.759Z</time></trkpt><trkpt lat="44.0130423" lon="10.8575529"><ele>699.0</ele><time>2026-05-02T14:07:55.762Z</time></trkpt><trkpt lat="44.0131533" lon="10.8576631"><ele>699.0</ele><time>2026-05-02T14:07:56.761Z</time></trkpt><trkpt lat="44.0132601" lon="10.8577757"><ele>699.25</ele><time>2026-05-02T14:07:57.767Z</time></trkpt><trkpt lat="44.0133586" lon="10.85789"><ele>699.5</ele><time>2026-05-02T14:07:58.761Z</time></trkpt><trkpt lat="44.0134514" lon="10.8580127"><ele>699.75</ele><time>2026-05-02T14:07:59.767Z</time></trkpt><trkpt lat="44.0135291" lon="10.8581408"><ele>700.0</ele><time>2026-05-02T14:08:00.765Z</time></trkpt><trkpt lat="44.0136072" lon="10.8582865"><ele>700.0</ele><time>2026-05-02T14:08:01.755Z</time></trkpt><trkpt lat="44.0137223" lon="10.8584098"><ele>700.0</ele><time>2026-05-02T14:08:02.759Z</time></trkpt><trkpt lat="44.0138418" lon="10.8585228"><ele>700.0</ele><time>2026-05-02T14:08:03.761Z</time></trkpt><trkpt lat="44.0139498" lon="10.8586316"><ele>700.0</ele><time>2026-05-02T14:08:04.759Z</time></trkpt><trkpt lat="44.0140727" lon="10.8587208"><ele>699.25</ele><time>2026-05-02T14:08:05.767Z</time></trkpt><trkpt lat="44.0141921" lon="10.8588256"><ele>698.5</ele><time>2026-05-02T14:08:06.76Z</time></trkpt><trkpt lat="44.014328" lon="10.8589215"><ele>697.75</ele><time>2026-05-02T14:08:07.76Z</time></trkpt><trkpt lat="44.0144513" lon="10.8590312"><ele>697.0</ele><time>2026-05-02T14:08:08.759Z</time></trkpt><trkpt lat="44.0145705" lon="10.8591484"><ele>697.0</ele><time>2026-05-02T14:08:09.758Z</time></trkpt><trkpt lat="44.0146934" lon="10.8592748"><ele>697.0</ele><time>2026-05-02T14:08:10.762Z</time></trkpt><trkpt lat="44.0147966" lon="10.8594364"><ele>697.0</ele><time>2026-05-02T14:08:11.755Z</time></trkpt><trkpt lat="44.0149168" lon="10.8596081"><ele>697.3333333333334</ele><time>2026-05-02T14:08:12.759Z</time></trkpt><trkpt lat="44.0150284" lon="10.8598284"><ele>697.6666666666666</ele><time>2026-05-02T14:08:13.763Z</time></trkpt><trkpt lat="44.0151464" lon="10.8600697"><ele>698.0</ele><time>2026-05-02T14:08:14.76Z</time></trkpt><trkpt lat="44.0152657" lon="10.8603007"><ele>696.3333333333333</ele><time>2026-05-02T14:08:15.768Z</time></trkpt><trkpt lat="44.0153782" lon="10.8605298"><ele>694.6666666666666</ele><time>2026-05-02T14:08:16.761Z</time></trkpt><trkpt lat="44.0154695" lon="10.8607355"><ele>693.0</ele><time>2026-05-02T14:08:17.76Z</time></trkpt><trkpt lat="44.0155733" lon="10.8609124"><ele>693.0</ele><time>2026-05-02T14:08:18.76Z</time></trkpt><trkpt lat="44.0156925" lon="10.861092"><ele>693.0</ele><time>2026-05-02T14:08:19.762Z</time></trkpt><trkpt lat="44.0158374" lon="10.8612927"><ele>693.0</ele><time>2026-05-02T14:08:20.76Z</time></trkpt><trkpt lat="44.0159937" lon="10.8615114"><ele>693.0</ele><time>2026-05-02T14:08:21.761Z</time></trkpt><trkpt lat="44.0161471" lon="10.861735"><ele>693.0</ele><time>2026-05-02T14:08:22.762Z</time></trkpt><trkpt lat="44.016291" lon="10.8619511"><ele>693.0</ele><time>2026-05-02T14:08:23.76Z</time></trkpt><trkpt lat="44.0164251" lon="10.8621572"><ele>694.3333333333334</ele><time>2026-05-02T14:08:24.765Z</time></trkpt><trkpt lat="44.0165559" lon="10.8623216"><ele>695.6666666666667</ele><time>2026-05-02T14:08:25.76Z</time></trkpt><trkpt lat="44.0166709" lon="10.8624786"><ele>697.0</ele><time>2026-05-02T14:08:26.761Z</time></trkpt><trkpt lat="44.016774" lon="10.8626218"><ele>697.0</ele><time>2026-05-02T14:08:27.76Z</time></trkpt><trkpt lat="44.0168634" lon="10.862769"><ele>697.0</ele><time>2026-05-02T14:08:28.759Z</time></trkpt><trkpt lat="44.0169493" lon="10.8629074"><ele>697.0</ele><time>2026-05-02T14:08:29.77Z</time></trkpt><trkpt lat="44.0170545" lon="10.8630307"><ele>697.0</ele><time>2026-05-02T14:08:30.764Z</time></trkpt><trkpt lat="44.0171497" lon="10.8631589"><ele>697.0</ele><time>2026-05-02T14:08:31.762Z</time></trkpt><trkpt lat="44.017231" lon="10.8632793"><ele>697.0</ele><time>2026-05-02T14:08:32.763Z</time></trkpt><trkpt lat="44.0173956" lon="10.8633617"><ele>697.0</ele><time>2026-05-02T14:08:33.754Z</time></trkpt><trkpt lat="44.0175763" lon="10.8634365"><ele>695.0</ele><time>2026-05-02T14:08:34.762Z</time></trkpt><trkpt lat="44.0177748" lon="10.8635106"><ele>693.0</ele><time>2026-05-02T14:08:35.76Z</time></trkpt><trkpt lat="44.017953" lon="10.8636022"><ele>691.0</ele><time>2026-05-02T14:08:36.76Z</time></trkpt><trkpt lat="44.0181234" lon="10.8636905"><ele>691.0</ele><time>2026-05-02T14:08:37.757Z</time></trkpt><trkpt lat="44.0182998" lon="10.8637778"><ele>691.0</ele><time>2026-05-02T14:08:38.764Z</time></trkpt><trkpt lat="44.0184559" lon="10.8638771"><ele>691.0</ele><time>2026-05-02T14:08:39.762Z</time></trkpt><trkpt lat="44.0185856" lon="10.8640229"><ele>691.0</ele><time>2026-05-02T14:08:40.759Z</time></trkpt><trkpt lat="44.0187145" lon="10.8641778"><ele>691.0</ele><time>2026-05-02T14:08:41.763Z</time></trkpt><trkpt lat="44.0188412" lon="10.8643508"><ele>691.0</ele><time>2026-05-02T14:08:42.761Z</time></trkpt><trkpt lat="44.0189652" lon="10.8645222"><ele>691.0</ele><time>2026-05-02T14:08:43.767Z</time></trkpt><trkpt lat="44.0190883" lon="10.8646863"><ele>691.0</ele><time>2026-05-02T14:08:44.745Z</time></trkpt><trkpt lat="44.0192007" lon="10.8648508"><ele>691.0</ele><time>2026-05-02T14:08:45.763Z</time></trkpt><trkpt lat="44.0193243" lon="10.8650072"><ele>692.6666666666667</ele><time>2026-05-02T14:08:46.769Z</time></trkpt><trkpt lat="44.019444" lon="10.8651812"><ele>694.3333333333334</ele><time>2026-05-02T14:08:47.76Z</time></trkpt><trkpt lat="44.0195557" lon="10.865344"><ele>696.0</ele><time>2026-05-02T14:08:48.762Z</time></trkpt><trkpt lat="44.0196698" lon="10.8655079"><ele>696.0</ele><time>2026-05-02T14:08:49.76Z</time></trkpt><trkpt lat="44.0197803" lon="10.8656595"><ele>696.0</ele><time>2026-05-02T14:08:50.743Z</time></trkpt><trkpt lat="44.0198929" lon="10.8657902"><ele>696.0</ele><time>2026-05-02T14:08:51.76Z</time></trkpt><trkpt lat="44.0200503" lon="10.8658614"><ele>697.6666666666666</ele><time>2026-05-02T14:08:52.76Z</time></trkpt><trkpt lat="44.020209" lon="10.8659496"><ele>699.3333333333333</ele><time>2026-05-02T14:08:53.76Z</time></trkpt><trkpt lat="44.0203629" lon="10.8660215"><ele>701.0</ele><time>2026-05-02T14:08:54.757Z</time></trkpt><trkpt lat="44.0205207" lon="10.8660881"><ele>701.0</ele><time>2026-05-02T14:08:55.761Z</time></trkpt><trkpt lat="44.0206824" lon="10.8661435"><ele>701.0</ele><time>2026-05-02T14:08:56.763Z</time></trkpt><trkpt lat="44.0208455" lon="10.8661827"><ele>701.0</ele><time>2026-05-02T14:08:57.76Z</time></trkpt><trkpt lat="44.0210078" lon="10.8661976"><ele>697.6666666666666</ele><time>2026-05-02T14:08:58.759Z</time></trkpt><trkpt lat="44.0211639" lon="10.8661878"><ele>694.3333333333334</ele><time>2026-05-02T14:08:59.76Z</time></trkpt><trkpt lat="44.021318" lon="10.8661751"><ele>691.0</ele><time>2026-05-02T14:09:00.801Z</time></trkpt><trkpt lat="44.0216258" lon="10.8661404"><ele>690.3333333333334</ele><time>2026-05-02T14:09:02.762Z</time></trkpt><trkpt lat="44.021778" lon="10.8661375"><ele>689.6666666666666</ele><time>2026-05-02T14:09:03.76Z</time></trkpt><trkpt lat="44.0219347" lon="10.8661819"><ele>689.0</ele><time>2026-05-02T14:09:04.756Z</time></trkpt><trkpt lat="44.0220783" lon="10.8662446"><ele>689.0</ele><time>2026-05-02T14:09:05.744Z</time></trkpt><trkpt lat="44.0222294" lon="10.8663141"><ele>689.0</ele><time>2026-05-02T14:09:06.761Z</time></trkpt><trkpt lat="44.0223802" lon="10.8663919"><ele>689.0</ele><time>2026-05-02T14:09:07.759Z</time></trkpt><trkpt lat="44.022532" lon="10.8664751"><ele>688.0</ele><time>2026-05-02T14:09:08.766Z</time></trkpt><trkpt lat="44.0226799" lon="10.8665711"><ele>687.0</ele><time>2026-05-02T14:09:09.741Z</time></trkpt><trkpt lat="44.0228324" lon="10.8666596"><ele>686.0</ele><time>2026-05-02T14:09:10.74Z</time></trkpt><trkpt lat="44.0229822" lon="10.8667511"><ele>685.3333333333333</ele><time>2026-05-02T14:09:11.757Z</time></trkpt><trkpt lat="44.0231436" lon="10.8668307"><ele>684.6666666666666</ele><time>2026-05-02T14:09:12.757Z</time></trkpt><trkpt lat="44.0233043" lon="10.8669127"><ele>684.0</ele><time>2026-05-02T14:09:13.768Z</time></trkpt><trkpt lat="44.0234637" lon="10.8670023"><ele>684.0</ele><time>2026-05-02T14:09:14.765Z</time></trkpt><trkpt lat="44.0236218" lon="10.8670933"><ele>684.0</ele><time>2026-05-02T14:09:15.761Z</time></trkpt><trkpt lat="44.0237901" lon="10.8671823"><ele>684.0</ele><time>2026-05-02T14:09:16.76Z</time></trkpt><trkpt lat="44.0239528" lon="10.8672788"><ele>684.0</ele><time>2026-05-02T14:09:17.759Z</time></trkpt><trkpt lat="44.0241197" lon="10.8673599"><ele>684.0</ele><time>2026-05-02T14:09:18.761Z</time></trkpt><trkpt lat="44.0242868" lon="10.8674462"><ele>684.0</ele><time>2026-05-02T14:09:19.76Z</time></trkpt><trkpt lat="44.0244438" lon="10.8675353"><ele>684.6666666666666</ele><time>2026-05-02T14:09:20.76Z</time></trkpt><trkpt lat="44.0246047" lon="10.8676131"><ele>685.3333333333333</ele><time>2026-05-02T14:09:21.763Z</time></trkpt><trkpt lat="44.0247563" lon="10.8676903"><ele>686.0</ele><time>2026-05-02T14:09:22.763Z</time></trkpt><trkpt lat="44.0249152" lon="10.8677628"><ele>683.0</ele><time>2026-05-02T14:09:23.761Z</time></trkpt><trkpt lat="44.0250717" lon="10.8678577"><ele>680.0</ele><time>2026-05-02T14:09:24.764Z</time></trkpt><trkpt lat="44.0252119" lon="10.867989"><ele>677.0</ele><time>2026-05-02T14:09:25.762Z</time></trkpt><trkpt lat="44.0253319" lon="10.8681556"><ele>677.0</ele><time>2026-05-02T14:09:26.759Z</time></trkpt><trkpt lat="44.0254545" lon="10.8683257"><ele>677.0</ele><time>2026-05-02T14:09:27.761Z</time></trkpt><trkpt lat="44.0255762" lon="10.8684904"><ele>677.0</ele><time>2026-05-02T14:09:28.76Z</time></trkpt><trkpt lat="44.0257052" lon="10.8686637"><ele>677.6666666666666</ele><time>2026-05-02T14:09:29.761Z</time></trkpt><trkpt lat="44.0258284" lon="10.8688363"><ele>678.3333333333334</ele><time>2026-05-02T14:09:30.761Z</time></trkpt><trkpt lat="44.0259637" lon="10.8690074"><ele>679.0</ele><time>2026-05-02T14:09:31.757Z</time></trkpt><trkpt lat="44.0260942" lon="10.8691828"><ele>677.6666666666667</ele><time>2026-05-02T14:09:32.763Z</time></trkpt><trkpt lat="44.0262252" lon="10.8693634"><ele>676.3333333333334</ele><time>2026-05-02T14:09:33.76Z</time></trkpt><trkpt lat="44.0263549" lon="10.8695493"><ele>675.0</ele><time>2026-05-02T14:09:34.75Z</time></trkpt><trkpt lat="44.0264801" lon="10.8697363"><ele>675.0</ele><time>2026-05-02T14:09:35.76Z</time></trkpt><trkpt lat="44.0266177" lon="10.8699142"><ele>675.0</ele><time>2026-05-02T14:09:36.76Z</time></trkpt><trkpt lat="44.0267515" lon="10.8701003"><ele>675.0</ele><time>2026-05-02T14:09:37.76Z</time></trkpt><trkpt lat="44.0268832" lon="10.8702914"><ele>674.6666666666666</ele><time>2026-05-02T14:09:38.761Z</time></trkpt><trkpt lat="44.0270296" lon="10.8704605"><ele>674.3333333333333</ele><time>2026-05-02T14:09:39.747Z</time></trkpt><trkpt lat="44.0271752" lon="10.8706469"><ele>674.0</ele><time>2026-05-02T14:09:40.759Z</time></trkpt><trkpt lat="44.0273118" lon="10.8708331"><ele>674.0</ele><time>2026-05-02T14:09:41.761Z</time></trkpt><trkpt lat="44.0274445" lon="10.8710159"><ele>674.0</ele><time>2026-05-02T14:09:42.761Z</time></trkpt><trkpt lat="44.0275613" lon="10.8712149"><ele>674.0</ele><time>2026-05-02T14:09:43.758Z</time></trkpt><trkpt lat="44.0276851" lon="10.8713967"><ele>674.0</ele><time>2026-05-02T14:09:44.766Z</time></trkpt><trkpt lat="44.0278013" lon="10.8715648"><ele>674.0</ele><time>2026-05-02T14:09:45.764Z</time></trkpt><trkpt lat="44.0279329" lon="10.8717247"><ele>674.0</ele><time>2026-05-02T14:09:46.761Z</time></trkpt><trkpt lat="44.028048" lon="10.8718774"><ele>673.3333333333333</ele><time>2026-05-02T14:09:47.764Z</time></trkpt><trkpt lat="44.0281779" lon="10.8719998"><ele>672.6666666666666</ele><time>2026-05-02T14:09:48.761Z</time></trkpt><trkpt lat="44.0283373" lon="10.8720799"><ele>672.0</ele><time>2026-05-02T14:09:49.763Z</time></trkpt><trkpt lat="44.0285142" lon="10.8721402"><ele>672.0</ele><time>2026-05-02T14:09:50.761Z</time></trkpt><trkpt lat="44.0286951" lon="10.8721947"><ele>672.0</ele><time>2026-05-02T14:09:51.755Z</time></trkpt><trkpt lat="44.0288796" lon="10.8722479"><ele>672.0</ele><time>2026-05-02T14:09:52.765Z</time></trkpt><trkpt lat="44.0290688" lon="10.8723137"><ele>672.3333333333334</ele><time>2026-05-02T14:09:53.762Z</time></trkpt><trkpt lat="44.0292631" lon="10.8723734"><ele>672.6666666666667</ele><time>2026-05-02T14:09:54.769Z</time></trkpt><trkpt lat="44.0294466" lon="10.8724396"><ele>673.0</ele><time>2026-05-02T14:09:55.754Z</time></trkpt><trkpt lat="44.0296475" lon="10.8725069"><ele>673.0</ele><time>2026-05-02T14:09:56.761Z</time></trkpt><trkpt lat="44.029848" lon="10.8725681"><ele>673.0</ele><time>2026-05-02T14:09:57.741Z</time></trkpt><trkpt lat="44.0300364" lon="10.8726287"><ele>673.0</ele><time>2026-05-02T14:09:58.759Z</time></trkpt><trkpt lat="44.0302307" lon="10.8726858"><ele>672.3333333333334</ele><time>2026-05-02T14:09:59.757Z</time></trkpt><trkpt lat="44.0304127" lon="10.8727496"><ele>671.6666666666666</ele><time>2026-05-02T14:10:00.747Z</time></trkpt><trkpt lat="44.0306031" lon="10.8727998"><ele>671.0</ele><time>2026-05-02T14:10:01.757Z</time></trkpt><trkpt lat="44.0307901" lon="10.8728645"><ele>670.6666666666666</ele><time>2026-05-02T14:10:02.759Z</time></trkpt><trkpt lat="44.0309648" lon="10.8729444"><ele>670.3333333333334</ele><time>2026-05-02T14:10:03.76Z</time></trkpt><trkpt lat="44.0311137" lon="10.8730728"><ele>670.0</ele><time>2026-05-02T14:10:04.756Z</time></trkpt><trkpt lat="44.031257" lon="10.8732217"><ele>670.0</ele><time>2026-05-02T14:10:05.769Z</time></trkpt><trkpt lat="44.0313956" lon="10.8734016"><ele>670.0</ele><time>2026-05-02T14:10:06.761Z</time></trkpt><trkpt lat="44.0315251" lon="10.8735915"><ele>670.0</ele><time>2026-05-02T14:10:07.757Z</time></trkpt><trkpt lat="44.0316604" lon="10.8737772"><ele>670.0</ele><time>2026-05-02T14:10:08.76Z</time></trkpt><trkpt lat="44.0318097" lon="10.8739614"><ele>670.0</ele><time>2026-05-02T14:10:09.754Z</time></trkpt><trkpt lat="44.0319561" lon="10.8741536"><ele>670.0</ele><time>2026-05-02T14:10:10.757Z</time></trkpt><trkpt lat="44.0321016" lon="10.8743528"><ele>670.0</ele><time>2026-05-02T14:10:11.755Z</time></trkpt><trkpt lat="44.0322532" lon="10.8745461"><ele>670.0</ele><time>2026-05-02T14:10:12.742Z</time></trkpt><trkpt lat="44.0323956" lon="10.8747482"><ele>670.0</ele><time>2026-05-02T14:10:13.744Z</time></trkpt><trkpt lat="44.0325323" lon="10.8749506"><ele>669.6666666666667</ele><time>2026-05-02T14:10:14.743Z</time></trkpt><trkpt lat="44.0326834" lon="10.8751402"><ele>669.3333333333334</ele><time>2026-05-02T14:10:15.74Z</time></trkpt><trkpt lat="44.0328162" lon="10.8753295"><ele>669.0</ele><time>2026-05-02T14:10:16.764Z</time></trkpt><trkpt lat="44.0329622" lon="10.8755185"><ele>669.0</ele><time>2026-05-02T14:10:17.76Z</time></trkpt><trkpt lat="44.0331197" lon="10.8757313"><ele>669.0</ele><time>2026-05-02T14:10:18.771Z</time></trkpt><trkpt lat="44.0332919" lon="10.8759474"><ele>671.0</ele><time>2026-05-02T14:10:19.751Z</time></trkpt><trkpt lat="44.0334668" lon="10.8761733"><ele>673.0</ele><time>2026-05-02T14:10:20.788Z</time></trkpt><trkpt lat="44.0336333" lon="10.8764031"><ele>673.0</ele><time>2026-05-02T14:10:21.769Z</time></trkpt><trkpt lat="44.0337858" lon="10.8766141"><ele>673.0</ele><time>2026-05-02T14:10:22.762Z</time></trkpt><trkpt lat="44.0338961" lon="10.8768178"><ele>673.0</ele><time>2026-05-02T14:10:23.762Z</time></trkpt><trkpt lat="44.0340304" lon="10.877012"><ele>671.6666666666667</ele><time>2026-05-02T14:10:24.761Z</time></trkpt><trkpt lat="44.0341592" lon="10.8772097"><ele>670.3333333333334</ele><time>2026-05-02T14:10:25.763Z</time></trkpt><trkpt lat="44.0342941" lon="10.8774017"><ele>669.0</ele><time>2026-05-02T14:10:26.763Z</time></trkpt><trkpt lat="44.0345074" lon="10.8775349"><ele>668.6666666666666</ele><time>2026-05-02T14:10:27.76Z</time></trkpt><trkpt lat="44.034692" lon="10.8776887"><ele>668.3333333333333</ele><time>2026-05-02T14:10:28.76Z</time></trkpt><trkpt lat="44.0348674" lon="10.8778439"><ele>668.0</ele><time>2026-05-02T14:10:29.764Z</time></trkpt><trkpt lat="44.0350495" lon="10.8780202"><ele>668.0</ele><time>2026-05-02T14:10:30.764Z</time></trkpt><trkpt lat="44.0352375" lon="10.878146"><ele>668.0</ele><time>2026-05-02T14:10:31.75Z</time></trkpt><trkpt lat="44.0354129" lon="10.8782981"><ele>668.0</ele><time>2026-05-02T14:10:32.759Z</time></trkpt><trkpt lat="44.035584" lon="10.8784501"><ele>668.6666666666666</ele><time>2026-05-02T14:10:33.746Z</time></trkpt><trkpt lat="44.035742" lon="10.8786172"><ele>669.3333333333334</ele><time>2026-05-02T14:10:34.74Z</time></trkpt><trkpt lat="44.0358856" lon="10.8787971"><ele>670.0</ele><time>2026-05-02T14:10:35.766Z</time></trkpt><trkpt lat="44.0360252" lon="10.8789881"><ele>670.0</ele><time>2026-05-02T14:10:36.759Z</time></trkpt><trkpt lat="44.0361575" lon="10.8791987"><ele>670.0</ele><time>2026-05-02T14:10:37.757Z</time></trkpt><trkpt lat="44.0362942" lon="10.8794095"><ele>670.0</ele><time>2026-05-02T14:10:38.764Z</time></trkpt><trkpt lat="44.0364183" lon="10.8796049"><ele>670.0</ele><time>2026-05-02T14:10:39.759Z</time></trkpt><trkpt lat="44.0365181" lon="10.8797952"><ele>670.0</ele><time>2026-05-02T14:10:40.746Z</time></trkpt><trkpt lat="44.0366146" lon="10.8799735"><ele>670.0</ele><time>2026-05-02T14:10:41.742Z</time></trkpt><trkpt lat="44.0366598" lon="10.8801594"><ele>670.0</ele><time>2026-05-02T14:10:42.741Z</time></trkpt><trkpt lat="44.0366914" lon="10.88036"><ele>670.0</ele><time>2026-05-02T14:10:43.738Z</time></trkpt><trkpt lat="44.0366946" lon="10.8805755"><ele>670.0</ele><time>2026-05-02T14:10:44.741Z</time></trkpt><trkpt lat="44.0367184" lon="10.8808145"><ele>669.3333333333334</ele><time>2026-05-02T14:10:45.749Z</time></trkpt><trkpt lat="44.0367527" lon="10.8810568"><ele>668.6666666666666</ele><time>2026-05-02T14:10:46.742Z</time></trkpt><trkpt lat="44.0368651" lon="10.881277"><ele>668.0</ele><time>2026-05-02T14:10:47.756Z</time></trkpt><trkpt lat="44.036946" lon="10.8815182"><ele>668.0</ele><time>2026-05-02T14:10:48.761Z</time></trkpt><trkpt lat="44.0370341" lon="10.8817388"><ele>668.0</ele><time>2026-05-02T14:10:49.759Z</time></trkpt><trkpt lat="44.0371227" lon="10.8819462"><ele>668.0</ele><time>2026-05-02T14:10:50.763Z</time></trkpt><trkpt lat="44.0372506" lon="10.8821183"><ele>668.3333333333333</ele><time>2026-05-02T14:10:51.766Z</time></trkpt><trkpt lat="44.0373689" lon="10.8822897"><ele>668.6666666666666</ele><time>2026-05-02T14:10:52.75Z</time></trkpt><trkpt lat="44.0374896" lon="10.8824503"><ele>669.0</ele><time>2026-05-02T14:10:53.741Z</time></trkpt><trkpt lat="44.037596" lon="10.882591"><ele>667.2</ele><time>2026-05-02T14:10:54.753Z</time></trkpt><trkpt lat="44.0377038" lon="10.8827108"><ele>665.4000000000001</ele><time>2026-05-02T14:10:55.763Z</time></trkpt><trkpt lat="44.0377817" lon="10.8827678"><ele>663.6</ele><time>2026-05-02T14:10:56.756Z</time></trkpt><trkpt lat="44.0378977" lon="10.8827541"><ele>661.8</ele><time>2026-05-02T14:10:57.749Z</time></trkpt><trkpt lat="44.0379861" lon="10.8827265"><ele>660.0</ele><time>2026-05-02T14:10:58.76Z</time></trkpt><trkpt lat="44.0380361" lon="10.8826409"><ele>661.2</ele><time>2026-05-02T14:10:59.764Z</time></trkpt><trkpt lat="44.0380746" lon="10.8825646"><ele>662.4</ele><time>2026-05-02T14:11:00.757Z</time></trkpt><trkpt lat="44.0380601" lon="10.8824096"><ele>663.5999999999999</ele><time>2026-05-02T14:11:01.749Z</time></trkpt><trkpt lat="44.0380556" lon="10.8822504"><ele>664.8</ele><time>2026-05-02T14:11:02.762Z</time></trkpt><trkpt lat="44.0380343" lon="10.8820751"><ele>666.0</ele><time>2026-05-02T14:11:03.759Z</time></trkpt><trkpt lat="44.0380129" lon="10.8818814"><ele>669.6666666666666</ele><time>2026-05-02T14:11:04.758Z</time></trkpt><trkpt lat="44.0379934" lon="10.8816741"><ele>673.3333333333333</ele><time>2026-05-02T14:11:05.761Z</time></trkpt><trkpt lat="44.0379712" lon="10.8814623"><ele>677.0</ele><time>2026-05-02T14:11:06.76Z</time></trkpt><trkpt lat="44.0379559" lon="10.8812382"><ele>677.0</ele><time>2026-05-02T14:11:07.761Z</time></trkpt><trkpt lat="44.0379378" lon="10.8810076"><ele>677.0</ele><time>2026-05-02T14:11:08.768Z</time></trkpt><trkpt lat="44.0379101" lon="10.8807867"><ele>677.0</ele><time>2026-05-02T14:11:09.759Z</time></trkpt><trkpt lat="44.0378896" lon="10.8805652"><ele>677.6666666666666</ele><time>2026-05-02T14:11:10.756Z</time></trkpt><trkpt lat="44.037866" lon="10.8803444"><ele>678.3333333333334</ele><time>2026-05-02T14:11:11.752Z</time></trkpt><trkpt lat="44.0378459" lon="10.8801131"><ele>679.0</ele><time>2026-05-02T14:11:12.752Z</time></trkpt><trkpt lat="44.0378254" lon="10.8798818"><ele>679.3333333333334</ele><time>2026-05-02T14:11:13.761Z</time></trkpt><trkpt lat="44.0378081" lon="10.8796457"><ele>679.6666666666666</ele><time>2026-05-02T14:11:14.763Z</time></trkpt><trkpt lat="44.037795" lon="10.8794086"><ele>680.0</ele><time>2026-05-02T14:11:15.764Z</time></trkpt><trkpt lat="44.0377972" lon="10.8791643"><ele>684.3333333333333</ele><time>2026-05-02T14:11:16.76Z</time></trkpt><trkpt lat="44.0378074" lon="10.8789118"><ele>688.6666666666666</ele><time>2026-05-02T14:11:17.765Z</time></trkpt><trkpt lat="44.0378253" lon="10.8786525"><ele>693.0</ele><time>2026-05-02T14:11:18.76Z</time></trkpt><trkpt lat="44.037842" lon="10.8783833"><ele>694.0</ele><time>2026-05-02T14:11:19.747Z</time></trkpt><trkpt lat="44.0378678" lon="10.8781037"><ele>695.0</ele><time>2026-05-02T14:11:20.761Z</time></trkpt><trkpt lat="44.0378906" lon="10.8778377"><ele>696.0</ele><time>2026-05-02T14:11:21.763Z</time></trkpt><trkpt lat="44.0379084" lon="10.8775798"><ele>696.3333333333334</ele><time>2026-05-02T14:11:22.762Z</time></trkpt><trkpt lat="44.037925" lon="10.8773368"><ele>696.6666666666667</ele><time>2026-05-02T14:11:23.761Z</time></trkpt><trkpt lat="44.0379389" lon="10.8771057"><ele>697.0</ele><time>2026-05-02T14:11:24.765Z</time></trkpt><trkpt lat="44.0379542" lon="10.8768869"><ele>697.25</ele><time>2026-05-02T14:11:25.759Z</time></trkpt><trkpt lat="44.037962" lon="10.8766873"><ele>697.5</ele><time>2026-05-02T14:11:26.761Z</time></trkpt><trkpt lat="44.0379772" lon="10.8765106"><ele>697.75</ele><time>2026-05-02T14:11:27.762Z</time></trkpt><trkpt lat="44.0380174" lon="10.8763548"><ele>698.0</ele><time>2026-05-02T14:11:28.762Z</time></trkpt><trkpt lat="44.0380818" lon="10.8762329"><ele>698.0</ele><time>2026-05-02T14:11:29.763Z</time></trkpt><trkpt lat="44.0381727" lon="10.8761247"><ele>698.0</ele><time>2026-05-02T14:11:30.765Z</time></trkpt><trkpt lat="44.0382859" lon="10.8760206"><ele>698.0</ele><time>2026-05-02T14:11:31.761Z</time></trkpt><trkpt lat="44.0383952" lon="10.8759067"><ele>698.0</ele><time>2026-05-02T14:11:32.769Z</time></trkpt><trkpt lat="44.0384935" lon="10.8757655"><ele>692.0</ele><time>2026-05-02T14:11:33.765Z</time></trkpt><trkpt lat="44.0385637" lon="10.875615"><ele>686.0</ele><time>2026-05-02T14:11:34.76Z</time></trkpt><trkpt lat="44.0385995" lon="10.8754503"><ele>680.0</ele><time>2026-05-02T14:11:35.758Z</time></trkpt><trkpt lat="44.0385824" lon="10.8752564"><ele>674.0</ele><time>2026-05-02T14:11:36.765Z</time></trkpt><trkpt lat="44.0385588" lon="10.8750784"><ele>674.0</ele><time>2026-05-02T14:11:37.757Z</time></trkpt><trkpt lat="44.0385063" lon="10.8749336"><ele>674.0</ele><time>2026-05-02T14:11:38.762Z</time></trkpt><trkpt lat="44.0383863" lon="10.8748141"><ele>674.0</ele><time>2026-05-02T14:11:39.762Z</time></trkpt><trkpt lat="44.0382617" lon="10.8747083"><ele>674.0</ele><time>2026-05-02T14:11:40.754Z</time></trkpt><trkpt lat="44.0381375" lon="10.874611"><ele>674.25</ele><time>2026-05-02T14:11:41.759Z</time></trkpt><trkpt lat="44.0380502" lon="10.8744855"><ele>674.5</ele><time>2026-05-02T14:11:42.742Z</time></trkpt><trkpt lat="44.0379613" lon="10.874377"><ele>674.75</ele><time>2026-05-02T14:11:43.761Z</time></trkpt><trkpt lat="44.037922" lon="10.8742039"><ele>675.0</ele><time>2026-05-02T14:11:44.76Z</time></trkpt><trkpt lat="44.0379259" lon="10.874003"><ele>675.0</ele><time>2026-05-02T14:11:45.758Z</time></trkpt><trkpt lat="44.0379093" lon="10.8738037"><ele>675.0</ele><time>2026-05-02T14:11:46.765Z</time></trkpt><trkpt lat="44.0378997" lon="10.8735884"><ele>675.0</ele><time>2026-05-02T14:11:47.763Z</time></trkpt><trkpt lat="44.0378971" lon="10.8733698"><ele>675.3333333333334</ele><time>2026-05-02T14:11:48.766Z</time></trkpt><trkpt lat="44.0378849" lon="10.8731539"><ele>675.6666666666667</ele><time>2026-05-02T14:11:49.76Z</time></trkpt><trkpt lat="44.0378837" lon="10.8729364"><ele>676.0</ele><time>2026-05-02T14:11:50.768Z</time></trkpt><trkpt lat="44.0378994" lon="10.8727125"><ele>676.6666666666667</ele><time>2026-05-02T14:11:51.761Z</time></trkpt><trkpt lat="44.0379208" lon="10.8724872"><ele>677.3333333333334</ele><time>2026-05-02T14:11:52.76Z</time></trkpt><trkpt lat="44.0379343" lon="10.872251"><ele>678.0</ele><time>2026-05-02T14:11:53.756Z</time></trkpt><trkpt lat="44.037945" lon="10.8719973"><ele>678.0</ele><time>2026-05-02T14:11:54.761Z</time></trkpt><trkpt lat="44.0379576" lon="10.8717237"><ele>678.0</ele><time>2026-05-02T14:11:55.761Z</time></trkpt><trkpt lat="44.037985" lon="10.8714333"><ele>678.0</ele><time>2026-05-02T14:11:56.758Z</time></trkpt><trkpt lat="44.0380213" lon="10.871143"><ele>678.3333333333334</ele><time>2026-05-02T14:11:57.759Z</time></trkpt><trkpt lat="44.0380562" lon="10.8708594"><ele>678.6666666666667</ele><time>2026-05-02T14:11:58.762Z</time></trkpt><trkpt lat="44.0380862" lon="10.8705719"><ele>679.0</ele><time>2026-05-02T14:11:59.763Z</time></trkpt><trkpt lat="44.0381139" lon="10.8703069"><ele>680.3333333333334</ele><time>2026-05-02T14:12:00.759Z</time></trkpt><trkpt lat="44.0381315" lon="10.8700603"><ele>681.6666666666666</ele><time>2026-05-02T14:12:01.759Z</time></trkpt><trkpt lat="44.038134" lon="10.8698115"><ele>683.0</ele><time>2026-05-02T14:12:02.762Z</time></trkpt><trkpt lat="44.0381159" lon="10.8695693"><ele>683.0</ele><time>2026-05-02T14:12:03.759Z</time></trkpt><trkpt lat="44.0380947" lon="10.8693276"><ele>683.0</ele><time>2026-05-02T14:12:04.76Z</time></trkpt><trkpt lat="44.0380852" lon="10.8690839"><ele>683.0</ele><time>2026-05-02T14:12:05.759Z</time></trkpt><trkpt lat="44.0381058" lon="10.8688305"><ele>684.0</ele><time>2026-05-02T14:12:06.765Z</time></trkpt><trkpt lat="44.0381347" lon="10.8685825"><ele>685.0</ele><time>2026-05-02T14:12:07.762Z</time></trkpt><trkpt lat="44.0381635" lon="10.8683362"><ele>686.0</ele><time>2026-05-02T14:12:08.764Z</time></trkpt><trkpt lat="44.0381945" lon="10.8680972"><ele>687.3333333333333</ele><time>2026-05-02T14:12:09.755Z</time></trkpt><trkpt lat="44.0382186" lon="10.8678664"><ele>688.6666666666666</ele><time>2026-05-02T14:12:10.76Z</time></trkpt><trkpt lat="44.0382422" lon="10.8676361"><ele>690.0</ele><time>2026-05-02T14:12:11.758Z</time></trkpt><trkpt lat="44.0382676" lon="10.8674153"><ele>691.3333333333334</ele><time>2026-05-02T14:12:12.757Z</time></trkpt><trkpt lat="44.0382984" lon="10.8671943"><ele>692.6666666666667</ele><time>2026-05-02T14:12:13.754Z</time></trkpt><trkpt lat="44.0383171" lon="10.8669629"><ele>694.0</ele><time>2026-05-02T14:12:14.76Z</time></trkpt><trkpt lat="44.0383437" lon="10.866734"><ele>695.6666666666667</ele><time>2026-05-02T14:12:15.771Z</time></trkpt><trkpt lat="44.0383627" lon="10.8665033"><ele>697.3333333333334</ele><time>2026-05-02T14:12:16.768Z</time></trkpt><trkpt lat="44.0383894" lon="10.8662702"><ele>699.0</ele><time>2026-05-02T14:12:17.752Z</time></trkpt><trkpt lat="44.0384162" lon="10.8660379"><ele>698.6666666666666</ele><time>2026-05-02T14:12:18.761Z</time></trkpt><trkpt lat="44.038442" lon="10.8658064"><ele>698.3333333333333</ele><time>2026-05-02T14:12:19.763Z</time></trkpt><trkpt lat="44.0384711" lon="10.8655783"><ele>698.0</ele><time>2026-05-02T14:12:20.759Z</time></trkpt><trkpt lat="44.0384997" lon="10.8653495"><ele>698.0</ele><time>2026-05-02T14:12:21.763Z</time></trkpt><trkpt lat="44.0385289" lon="10.865122"><ele>698.0</ele><time>2026-05-02T14:12:22.761Z</time></trkpt><trkpt lat="44.0385584" lon="10.8648993"><ele>698.0</ele><time>2026-05-02T14:12:23.76Z</time></trkpt><trkpt lat="44.0385859" lon="10.864682"><ele>698.0</ele><time>2026-05-02T14:12:24.748Z</time></trkpt><trkpt lat="44.038612" lon="10.8644699"><ele>698.0</ele><time>2026-05-02T14:12:25.759Z</time></trkpt><trkpt lat="44.0386346" lon="10.864285"><ele>698.0</ele><time>2026-05-02T14:12:26.771Z</time></trkpt><trkpt lat="44.0386503" lon="10.8641263"><ele>698.0</ele><time>2026-05-02T14:12:27.765Z</time></trkpt><trkpt lat="44.0386763" lon="10.8639859"><ele>698.0</ele><time>2026-05-02T14:12:28.765Z</time></trkpt><trkpt lat="44.0386893" lon="10.8638874"><ele>698.0</ele><time>2026-05-02T14:12:29.763Z</time></trkpt><trkpt lat="44.0387033" lon="10.8637879"><ele>698.0</ele><time>2026-05-02T14:12:35.763Z</time></trkpt><trkpt lat="44.0387204" lon="10.8636319"><ele>698.0</ele><time>2026-05-02T14:12:37.763Z</time></trkpt><trkpt lat="44.0387305" lon="10.8635279"><ele>698.0</ele><time>2026-05-02T14:12:38.759Z</time></trkpt><trkpt lat="44.038735" lon="10.8634051"><ele>698.0</ele><time>2026-05-02T14:12:39.761Z</time></trkpt><trkpt lat="44.0387358" lon="10.8632735"><ele>697.5</ele><time>2026-05-02T14:12:40.751Z</time></trkpt><trkpt lat="44.0387397" lon="10.8631382"><ele>697.0</ele><time>2026-05-02T14:12:41.764Z</time></trkpt><trkpt lat="44.0387467" lon="10.8629803"><ele>696.5</ele><time>2026-05-02T14:12:42.76Z</time></trkpt><trkpt lat="44.0387378" lon="10.8628168"><ele>696.0</ele><time>2026-05-02T14:12:43.762Z</time></trkpt><trkpt lat="44.0387204" lon="10.8626431"><ele>695.5</ele><time>2026-05-02T14:12:44.759Z</time></trkpt><trkpt lat="44.0387034" lon="10.8624727"><ele>695.0</ele><time>2026-05-02T14:12:45.76Z</time></trkpt><trkpt lat="44.0386833" lon="10.8623183"><ele>694.5</ele><time>2026-05-02T14:12:46.762Z</time></trkpt><trkpt lat="44.0386625" lon="10.8621539"><ele>694.0</ele><time>2026-05-02T14:12:47.764Z</time></trkpt><trkpt lat="44.0386474" lon="10.8619875"><ele>694.0</ele><time>2026-05-02T14:12:48.761Z</time></trkpt><trkpt lat="44.0386625" lon="10.8618114"><ele>694.0</ele><time>2026-05-02T14:12:49.768Z</time></trkpt><trkpt lat="44.0386991" lon="10.8616358"><ele>694.0</ele><time>2026-05-02T14:12:50.751Z</time></trkpt><trkpt lat="44.0387493" lon="10.8614618"><ele>694.0</ele><time>2026-05-02T14:12:51.761Z</time></trkpt><trkpt lat="44.0387926" lon="10.8612994"><ele>693.8000000000001</ele><time>2026-05-02T14:12:52.763Z</time></trkpt><trkpt lat="44.0388532" lon="10.8611451"><ele>693.6</ele><time>2026-05-02T14:12:53.771Z</time></trkpt><trkpt lat="44.0389085" lon="10.8609989"><ele>693.4</ele><time>2026-05-02T14:12:54.758Z</time></trkpt><trkpt lat="44.0389375" lon="10.8608625"><ele>693.2</ele><time>2026-05-02T14:12:55.758Z</time></trkpt><trkpt lat="44.0389651" lon="10.8607502"><ele>693.0</ele><time>2026-05-02T14:12:56.768Z</time></trkpt><trkpt lat="44.0389181" lon="10.8606014"><ele>693.0</ele><time>2026-05-02T14:12:57.767Z</time></trkpt><trkpt lat="44.0388671" lon="10.8604399"><ele>693.0</ele><time>2026-05-02T14:12:58.769Z</time></trkpt><trkpt lat="44.0388384" lon="10.8602622"><ele>693.0</ele><time>2026-05-02T14:12:59.753Z</time></trkpt><trkpt lat="44.0388185" lon="10.8600772"><ele>693.0</ele><time>2026-05-02T14:13:00.764Z</time></trkpt><trkpt lat="44.0388112" lon="10.8598784"><ele>695.3333333333334</ele><time>2026-05-02T14:13:01.761Z</time></trkpt><trkpt lat="44.0388055" lon="10.8596787"><ele>697.6666666666667</ele><time>2026-05-02T14:13:02.76Z</time></trkpt><trkpt lat="44.0387994" lon="10.8594654"><ele>700.0</ele><time>2026-05-02T14:13:03.755Z</time></trkpt><trkpt lat="44.0387888" lon="10.8592486"><ele>703.0</ele><time>2026-05-02T14:13:04.786Z</time></trkpt><trkpt lat="44.0387476" lon="10.8590297"><ele>706.0</ele><time>2026-05-02T14:13:05.747Z</time></trkpt><trkpt lat="44.0387163" lon="10.8588066"><ele>709.0</ele><time>2026-05-02T14:13:06.764Z</time></trkpt><trkpt lat="44.0386718" lon="10.8585884"><ele>708.6666666666667</ele><time>2026-05-02T14:13:07.76Z</time></trkpt><trkpt lat="44.0386117" lon="10.8583756"><ele>708.3333333333334</ele><time>2026-05-02T14:13:08.757Z</time></trkpt><trkpt lat="44.0385633" lon="10.8581592"><ele>708.0</ele><time>2026-05-02T14:13:09.761Z</time></trkpt><trkpt lat="44.0385201" lon="10.857951"><ele>708.0</ele><time>2026-05-02T14:13:10.759Z</time></trkpt><trkpt lat="44.0384874" lon="10.857756"><ele>708.0</ele><time>2026-05-02T14:13:11.759Z</time></trkpt><trkpt lat="44.0384479" lon="10.8575724"><ele>708.0</ele><time>2026-05-02T14:13:12.739Z</time></trkpt><trkpt lat="44.0383984" lon="10.8574118"><ele>708.0</ele><time>2026-05-02T14:13:13.759Z</time></trkpt><trkpt lat="44.0383188" lon="10.8572869"><ele>710.25</ele><time>2026-05-02T14:13:14.77Z</time></trkpt><trkpt lat="44.0382339" lon="10.8571881"><ele>712.5</ele><time>2026-05-02T14:13:15.763Z</time></trkpt><trkpt lat="44.0381263" lon="10.857094"><ele>714.75</ele><time>2026-05-02T14:13:16.757Z</time></trkpt><trkpt lat="44.038027" lon="10.8569752"><ele>717.0</ele><time>2026-05-02T14:13:17.758Z</time></trkpt><trkpt lat="44.0379596" lon="10.8568462"><ele>716.5</ele><time>2026-05-02T14:13:18.76Z</time></trkpt><trkpt lat="44.0379114" lon="10.8566811"><ele>716.0</ele><time>2026-05-02T14:13:19.763Z</time></trkpt><trkpt lat="44.0378874" lon="10.8564843"><ele>715.5</ele><time>2026-05-02T14:13:20.768Z</time></trkpt><trkpt lat="44.0378667" lon="10.8562705"><ele>715.0</ele><time>2026-05-02T14:13:21.76Z</time></trkpt><trkpt lat="44.0378565" lon="10.8560395"><ele>715.0</ele><time>2026-05-02T14:13:22.761Z</time></trkpt><trkpt lat="44.0378401" lon="10.8557922"><ele>715.0</ele><time>2026-05-02T14:13:23.764Z</time></trkpt><trkpt lat="44.037817" lon="10.8555488"><ele>715.0</ele><time>2026-05-02T14:13:24.765Z</time></trkpt><trkpt lat="44.0377985" lon="10.8553244"><ele>714.5</ele><time>2026-05-02T14:13:25.756Z</time></trkpt><trkpt lat="44.0377825" lon="10.8551131"><ele>714.0</ele><time>2026-05-02T14:13:26.762Z</time></trkpt><trkpt lat="44.0377528" lon="10.8549148"><ele>713.5</ele><time>2026-05-02T14:13:27.76Z</time></trkpt><trkpt lat="44.0377079" lon="10.854731"><ele>713.0</ele><time>2026-05-02T14:13:28.762Z</time></trkpt><trkpt lat="44.0376312" lon="10.8545532"><ele>713.0</ele><time>2026-05-02T14:13:29.76Z</time></trkpt><trkpt lat="44.0375415" lon="10.8543835"><ele>713.0</ele><time>2026-05-02T14:13:30.764Z</time></trkpt><trkpt lat="44.03747" lon="10.8542094"><ele>713.0</ele><time>2026-05-02T14:13:31.752Z</time></trkpt><trkpt lat="44.0374107" lon="10.8540363"><ele>713.0</ele><time>2026-05-02T14:13:32.751Z</time></trkpt><trkpt lat="44.037402" lon="10.853865"><ele>714.25</ele><time>2026-05-02T14:13:33.761Z</time></trkpt><trkpt lat="44.0374113" lon="10.8536853"><ele>715.5</ele><time>2026-05-02T14:13:34.767Z</time></trkpt><trkpt lat="44.0374488" lon="10.8535365"><ele>716.75</ele><time>2026-05-02T14:13:35.783Z</time></trkpt><trkpt lat="44.0375066" lon="10.8534153"><ele>718.0</ele><time>2026-05-02T14:13:36.758Z</time></trkpt><trkpt lat="44.0376" lon="10.853323"><ele>715.5</ele><time>2026-05-02T14:13:37.766Z</time></trkpt><trkpt lat="44.0376887" lon="10.8532246"><ele>713.0</ele><time>2026-05-02T14:13:38.762Z</time></trkpt><trkpt lat="44.037761" lon="10.8531085"><ele>710.5</ele><time>2026-05-02T14:13:39.762Z</time></trkpt><trkpt lat="44.0377912" lon="10.852932"><ele>708.0</ele><time>2026-05-02T14:13:40.76Z</time></trkpt><trkpt lat="44.0378202" lon="10.8527879"><ele>708.0</ele><time>2026-05-02T14:13:41.76Z</time></trkpt><trkpt lat="44.0378229" lon="10.8526279"><ele>708.0</ele><time>2026-05-02T14:13:42.761Z</time></trkpt><trkpt lat="44.0377747" lon="10.8523904"><ele>708.0</ele><time>2026-05-02T14:13:43.76Z</time></trkpt><trkpt lat="44.0377385" lon="10.8521674"><ele>709.3333333333334</ele><time>2026-05-02T14:13:44.754Z</time></trkpt><trkpt lat="44.0376995" lon="10.8519472"><ele>710.6666666666667</ele><time>2026-05-02T14:13:45.763Z</time></trkpt><trkpt lat="44.0376585" lon="10.8517322"><ele>712.0</ele><time>2026-05-02T14:13:46.771Z</time></trkpt><trkpt lat="44.0376172" lon="10.8515357"><ele>712.0</ele><time>2026-05-02T14:13:47.76Z</time></trkpt><trkpt lat="44.0375933" lon="10.8513509"><ele>712.0</ele><time>2026-05-02T14:13:48.741Z</time></trkpt><trkpt lat="44.0376273" lon="10.8511428"><ele>712.0</ele><time>2026-05-02T14:13:49.757Z</time></trkpt><trkpt lat="44.0376659" lon="10.8509404"><ele>712.0</ele><time>2026-05-02T14:13:50.759Z</time></trkpt><trkpt lat="44.037722" lon="10.850721"><ele>712.3333333333334</ele><time>2026-05-02T14:13:51.767Z</time></trkpt><trkpt lat="44.037782" lon="10.8504947"><ele>712.6666666666666</ele><time>2026-05-02T14:13:52.761Z</time></trkpt><trkpt lat="44.037852" lon="10.8502633"><ele>713.0</ele><time>2026-05-02T14:13:53.763Z</time></trkpt><trkpt lat="44.03792" lon="10.8500435"><ele>713.0</ele><time>2026-05-02T14:13:54.764Z</time></trkpt><trkpt lat="44.037993" lon="10.8498443"><ele>713.0</ele><time>2026-05-02T14:13:55.765Z</time></trkpt><trkpt lat="44.0380849" lon="10.8496617"><ele>713.0</ele><time>2026-05-02T14:13:56.757Z</time></trkpt><trkpt lat="44.0381882" lon="10.8494741"><ele>712.6666666666666</ele><time>2026-05-02T14:13:57.76Z</time></trkpt><trkpt lat="44.0382814" lon="10.8492801"><ele>712.3333333333334</ele><time>2026-05-02T14:13:58.763Z</time></trkpt><trkpt lat="44.0383821" lon="10.849074"><ele>712.0</ele><time>2026-05-02T14:13:59.761Z</time></trkpt><trkpt lat="44.0384931" lon="10.8488598"><ele>714.3333333333334</ele><time>2026-05-02T14:14:00.76Z</time></trkpt><trkpt lat="44.0386054" lon="10.8486513"><ele>716.6666666666666</ele><time>2026-05-02T14:14:01.763Z</time></trkpt><trkpt lat="44.0387104" lon="10.8484294"><ele>719.0</ele><time>2026-05-02T14:14:02.785Z</time></trkpt><trkpt lat="44.0388245" lon="10.8482142"><ele>719.0</ele><time>2026-05-02T14:14:03.752Z</time></trkpt><trkpt lat="44.0389162" lon="10.8480068"><ele>719.0</ele><time>2026-05-02T14:14:04.751Z</time></trkpt><trkpt lat="44.0390226" lon="10.847823"><ele>719.0</ele><time>2026-05-02T14:14:05.757Z</time></trkpt><trkpt lat="44.0391494" lon="10.8476562"><ele>722.0</ele><time>2026-05-02T14:14:06.757Z</time></trkpt><trkpt lat="44.0392896" lon="10.8475076"><ele>725.0</ele><time>2026-05-02T14:14:07.756Z</time></trkpt><trkpt lat="44.0394409" lon="10.8473692"><ele>728.0</ele><time>2026-05-02T14:14:08.767Z</time></trkpt><trkpt lat="44.0395794" lon="10.8472356"><ele>728.0</ele><time>2026-05-02T14:14:09.768Z</time></trkpt><trkpt lat="44.039709" lon="10.8471313"><ele>728.0</ele><time>2026-05-02T14:14:10.762Z</time></trkpt><trkpt lat="44.0398395" lon="10.8470659"><ele>728.0</ele><time>2026-05-02T14:14:11.759Z</time></trkpt><trkpt lat="44.0399664" lon="10.8470434"><ele>728.0</ele><time>2026-05-02T14:14:12.756Z</time></trkpt><trkpt lat="44.0400893" lon="10.8470407"><ele>729.4</ele><time>2026-05-02T14:14:13.76Z</time></trkpt><trkpt lat="44.0402013" lon="10.8470319"><ele>730.8</ele><time>2026-05-02T14:14:14.761Z</time></trkpt><trkpt lat="44.0402959" lon="10.8469999"><ele>732.2</ele><time>2026-05-02T14:14:15.764Z</time></trkpt><trkpt lat="44.04035" lon="10.8469049"><ele>733.6</ele><time>2026-05-02T14:14:16.76Z</time></trkpt><trkpt lat="44.0403928" lon="10.8467887"><ele>735.0</ele><time>2026-05-02T14:14:17.767Z</time></trkpt><trkpt lat="44.0404327" lon="10.8466546"><ele>735.0</ele><time>2026-05-02T14:14:18.76Z</time></trkpt><trkpt lat="44.0404943" lon="10.8465392"><ele>735.0</ele><time>2026-05-02T14:14:19.761Z</time></trkpt><trkpt lat="44.0405748" lon="10.8464398"><ele>735.0</ele><time>2026-05-02T14:14:20.75Z</time></trkpt><trkpt lat="44.0406451" lon="10.846363"><ele>735.0</ele><time>2026-05-02T14:14:21.76Z</time></trkpt><trkpt lat="44.0407705" lon="10.8464243"><ele>735.0</ele><time>2026-05-02T14:14:22.763Z</time></trkpt><trkpt lat="44.0408727" lon="10.8464231"><ele>736.6</ele><time>2026-05-02T14:14:23.759Z</time></trkpt><trkpt lat="44.0409573" lon="10.8463775"><ele>738.2</ele><time>2026-05-02T14:14:24.76Z</time></trkpt><trkpt lat="44.0410241" lon="10.8462825"><ele>739.8</ele><time>2026-05-02T14:14:25.75Z</time></trkpt><trkpt lat="44.0410883" lon="10.8461563"><ele>741.4</ele><time>2026-05-02T14:14:26.763Z</time></trkpt><trkpt lat="44.0411602" lon="10.8460033"><ele>743.0</ele><time>2026-05-02T14:14:27.77Z</time></trkpt><trkpt lat="44.0412392" lon="10.8458303"><ele>743.0</ele><time>2026-05-02T14:14:28.764Z</time></trkpt><trkpt lat="44.0413439" lon="10.8456669"><ele>743.0</ele><time>2026-05-02T14:14:29.755Z</time></trkpt><trkpt lat="44.0414648" lon="10.8455061"><ele>743.0</ele><time>2026-05-02T14:14:30.761Z</time></trkpt><trkpt lat="44.0416049" lon="10.8453655"><ele>747.3333333333333</ele><time>2026-05-02T14:14:31.751Z</time></trkpt><trkpt lat="44.0417254" lon="10.8452099"><ele>751.6666666666666</ele><time>2026-05-02T14:14:32.761Z</time></trkpt><trkpt lat="44.0418308" lon="10.8450214"><ele>756.0</ele><time>2026-05-02T14:14:33.761Z</time></trkpt><trkpt lat="44.0419287" lon="10.8448105"><ele>756.0</ele><time>2026-05-02T14:14:34.774Z</time></trkpt><trkpt lat="44.0420158" lon="10.8446068"><ele>756.0</ele><time>2026-05-02T14:14:35.762Z</time></trkpt><trkpt lat="44.0421047" lon="10.8444245"><ele>756.0</ele><time>2026-05-02T14:14:36.76Z</time></trkpt><trkpt lat="44.0422107" lon="10.8442795"><ele>755.0</ele><time>2026-05-02T14:14:37.76Z</time></trkpt><trkpt lat="44.0423314" lon="10.8441633"><ele>754.0</ele><time>2026-05-02T14:14:38.768Z</time></trkpt><trkpt lat="44.0424803" lon="10.8440616"><ele>753.0</ele><time>2026-05-02T14:14:39.761Z</time></trkpt><trkpt lat="44.0426357" lon="10.8439627"><ele>757.3333333333334</ele><time>2026-05-02T14:14:40.763Z</time></trkpt><trkpt lat="44.0427978" lon="10.8438521"><ele>761.6666666666667</ele><time>2026-05-02T14:14:41.76Z</time></trkpt><trkpt lat="44.0429653" lon="10.8437292"><ele>766.0</ele><time>2026-05-02T14:14:42.762Z</time></trkpt><trkpt lat="44.0431295" lon="10.8435926"><ele>766.0</ele><time>2026-05-02T14:14:43.76Z</time></trkpt><trkpt lat="44.0432916" lon="10.843469"><ele>766.0</ele><time>2026-05-02T14:14:44.764Z</time></trkpt><trkpt lat="44.0434469" lon="10.8433835"><ele>766.0</ele><time>2026-05-02T14:14:45.764Z</time></trkpt><trkpt lat="44.0435936" lon="10.8433222"><ele>768.1999999999999</ele><time>2026-05-02T14:14:46.758Z</time></trkpt><trkpt lat="44.0437247" lon="10.8432645"><ele>770.4</ele><time>2026-05-02T14:14:47.76Z</time></trkpt><trkpt lat="44.0438211" lon="10.8431991"><ele>772.6</ele><time>2026-05-02T14:14:48.766Z</time></trkpt><trkpt lat="44.0439129" lon="10.8431274"><ele>774.8</ele><time>2026-05-02T14:14:49.76Z</time></trkpt><trkpt lat="44.0439828" lon="10.8430454"><ele>777.0</ele><time>2026-05-02T14:14:50.759Z</time></trkpt><trkpt lat="44.0439141" lon="10.8429166"><ele>777.0</ele><time>2026-05-02T14:14:51.76Z</time></trkpt><trkpt lat="44.0438548" lon="10.8428253"><ele>777.0</ele><time>2026-05-02T14:14:52.744Z</time></trkpt><trkpt lat="44.0437622" lon="10.8427557"><ele>777.0</ele><time>2026-05-02T14:14:53.765Z</time></trkpt><trkpt lat="44.04364" lon="10.8427071"><ele>777.0</ele><time>2026-05-02T14:14:54.751Z</time></trkpt><trkpt lat="44.043505" lon="10.8426381"><ele>777.6666666666667</ele><time>2026-05-02T14:14:55.765Z</time></trkpt><trkpt lat="44.0433729" lon="10.8425393"><ele>778.3333333333334</ele><time>2026-05-02T14:14:56.761Z</time></trkpt><trkpt lat="44.0432686" lon="10.8423885"><ele>779.0</ele><time>2026-05-02T14:14:57.774Z</time></trkpt><trkpt lat="44.0431728" lon="10.8422202"><ele>780.0</ele><time>2026-05-02T14:14:58.764Z</time></trkpt><trkpt lat="44.0430759" lon="10.8420261"><ele>781.0</ele><time>2026-05-02T14:14:59.763Z</time></trkpt><trkpt lat="44.0429985" lon="10.8418309"><ele>782.0</ele><time>2026-05-02T14:15:00.76Z</time></trkpt><trkpt lat="44.0429144" lon="10.8416472"><ele>782.0</ele><time>2026-05-02T14:15:01.761Z</time></trkpt><trkpt lat="44.0428686" lon="10.841467"><ele>782.0</ele><time>2026-05-02T14:15:02.756Z</time></trkpt><trkpt lat="44.0428644" lon="10.8412961"><ele>782.0</ele><time>2026-05-02T14:15:03.756Z</time></trkpt><trkpt lat="44.0428917" lon="10.8411007"><ele>782.0</ele><time>2026-05-02T14:15:04.756Z</time></trkpt><trkpt lat="44.0429101" lon="10.8408902"><ele>782.3333333333334</ele><time>2026-05-02T14:15:05.766Z</time></trkpt><trkpt lat="44.0429597" lon="10.8406931"><ele>782.6666666666667</ele><time>2026-05-02T14:15:06.768Z</time></trkpt><trkpt lat="44.0430607" lon="10.8405315"><ele>783.0</ele><time>2026-05-02T14:15:07.765Z</time></trkpt><trkpt lat="44.0431079" lon="10.84034"><ele>783.0</ele><time>2026-05-02T14:15:08.769Z</time></trkpt><trkpt lat="44.0431332" lon="10.8401359"><ele>783.0</ele><time>2026-05-02T14:15:09.764Z</time></trkpt><trkpt lat="44.0431414" lon="10.8399482"><ele>783.0</ele><time>2026-05-02T14:15:10.752Z</time></trkpt><trkpt lat="44.0431563" lon="10.8397598"><ele>783.0</ele><time>2026-05-02T14:15:11.758Z</time></trkpt><trkpt lat="44.0430766" lon="10.8396408"><ele>784.5</ele><time>2026-05-02T14:15:12.757Z</time></trkpt><trkpt lat="44.0429933" lon="10.8395344"><ele>786.0</ele><time>2026-05-02T14:15:13.755Z</time></trkpt><trkpt lat="44.0428933" lon="10.8394478"><ele>787.5</ele><time>2026-05-02T14:15:14.743Z</time></trkpt><trkpt lat="44.0427475" lon="10.8393912"><ele>789.0</ele><time>2026-05-02T14:15:15.739Z</time></trkpt><trkpt lat="44.0425949" lon="10.8393154"><ele>789.6</ele><time>2026-05-02T14:15:16.743Z</time></trkpt><trkpt lat="44.0424614" lon="10.8392709"><ele>790.2</ele><time>2026-05-02T14:15:17.743Z</time></trkpt><trkpt lat="44.0423615" lon="10.839213"><ele>790.8000000000001</ele><time>2026-05-02T14:15:18.76Z</time></trkpt><trkpt lat="44.0423002" lon="10.8391204"><ele>791.4000000000001</ele><time>2026-05-02T14:15:19.762Z</time></trkpt><trkpt lat="44.0422567" lon="10.8390305"><ele>792.0</ele><time>2026-05-02T14:15:20.764Z</time></trkpt><trkpt lat="44.0422384" lon="10.83894"><ele>792.0</ele><time>2026-05-02T14:15:21.76Z</time></trkpt><trkpt lat="44.0422462" lon="10.8388224"><ele>792.0</ele><time>2026-05-02T14:15:22.765Z</time></trkpt><trkpt lat="44.0423312" lon="10.838701"><ele>792.0</ele><time>2026-05-02T14:15:23.738Z</time></trkpt><trkpt lat="44.0424201" lon="10.8385684"><ele>792.0</ele><time>2026-05-02T14:15:24.738Z</time></trkpt><trkpt lat="44.042509" lon="10.8384239"><ele>796.75</ele><time>2026-05-02T14:15:25.743Z</time></trkpt><trkpt lat="44.0425837" lon="10.838278"><ele>801.5</ele><time>2026-05-02T14:15:26.761Z</time></trkpt><trkpt lat="44.042589" lon="10.8380914"><ele>806.25</ele><time>2026-05-02T14:15:27.759Z</time></trkpt><trkpt lat="44.0425895" lon="10.8379007"><ele>811.0</ele><time>2026-05-02T14:15:28.759Z</time></trkpt><trkpt lat="44.042588" lon="10.8377009"><ele>813.6666666666666</ele><time>2026-05-02T14:15:29.751Z</time></trkpt><trkpt lat="44.0425891" lon="10.8374826"><ele>816.3333333333333</ele><time>2026-05-02T14:15:30.761Z</time></trkpt><trkpt lat="44.0425989" lon="10.8372627"><ele>819.0</ele><time>2026-05-02T14:15:31.762Z</time></trkpt><trkpt lat="44.0426194" lon="10.8370498"><ele>819.0</ele><time>2026-05-02T14:15:32.76Z</time></trkpt><trkpt lat="44.0426466" lon="10.8368536"><ele>819.0</ele><time>2026-05-02T14:15:33.764Z</time></trkpt><trkpt lat="44.0427217" lon="10.8366985"><ele>819.0</ele><time>2026-05-02T14:15:34.762Z</time></trkpt><trkpt lat="44.042799" lon="10.8365655"><ele>819.0</ele><time>2026-05-02T14:15:35.762Z</time></trkpt><trkpt lat="44.0428826" lon="10.8364444"><ele>820.25</ele><time>2026-05-02T14:15:36.761Z</time></trkpt><trkpt lat="44.0429456" lon="10.8362979"><ele>821.5</ele><time>2026-05-02T14:15:37.749Z</time></trkpt><trkpt lat="44.0429812" lon="10.8361356"><ele>822.75</ele><time>2026-05-02T14:15:38.761Z</time></trkpt><trkpt lat="44.0429781" lon="10.8359477"><ele>824.0</ele><time>2026-05-02T14:15:39.768Z</time></trkpt><trkpt lat="44.0429738" lon="10.8357394"><ele>825.0</ele><time>2026-05-02T14:15:40.749Z</time></trkpt><trkpt lat="44.0429703" lon="10.8355103"><ele>826.0</ele><time>2026-05-02T14:15:41.76Z</time></trkpt><trkpt lat="44.042975" lon="10.8352859"><ele>827.0</ele><time>2026-05-02T14:15:42.733Z</time></trkpt><trkpt lat="44.0429298" lon="10.8350574"><ele>824.6666666666667</ele><time>2026-05-02T14:15:43.761Z</time></trkpt><trkpt lat="44.0428992" lon="10.8348363"><ele>822.3333333333333</ele><time>2026-05-02T14:15:44.746Z</time></trkpt><trkpt lat="44.0428881" lon="10.8346296"><ele>820.0</ele><time>2026-05-02T14:15:45.759Z</time></trkpt><trkpt lat="44.0429007" lon="10.8344232"><ele>817.5</ele><time>2026-05-02T14:15:46.762Z</time></trkpt><trkpt lat="44.0429378" lon="10.8342271"><ele>815.0</ele><time>2026-05-02T14:15:47.76Z</time></trkpt><trkpt lat="44.0429821" lon="10.8340393"><ele>812.5</ele><time>2026-05-02T14:15:48.758Z</time></trkpt><trkpt lat="44.043032" lon="10.8338529"><ele>810.0</ele><time>2026-05-02T14:15:49.761Z</time></trkpt><trkpt lat="44.0430776" lon="10.83368"><ele>810.0</ele><time>2026-05-02T14:15:50.759Z</time></trkpt><trkpt lat="44.043108" lon="10.8335015"><ele>810.0</ele><time>2026-05-02T14:15:51.765Z</time></trkpt><trkpt lat="44.0431205" lon="10.8333131"><ele>810.0</ele><time>2026-05-02T14:15:52.756Z</time></trkpt><trkpt lat="44.0431115" lon="10.8331122"><ele>810.0</ele><time>2026-05-02T14:15:53.769Z</time></trkpt><trkpt lat="44.0430874" lon="10.8328997"><ele>808.6666666666667</ele><time>2026-05-02T14:15:54.762Z</time></trkpt><trkpt lat="44.0430569" lon="10.8326885"><ele>807.3333333333334</ele><time>2026-05-02T14:15:55.764Z</time></trkpt><trkpt lat="44.0430279" lon="10.8324739"><ele>806.0</ele><time>2026-05-02T14:15:56.775Z</time></trkpt><trkpt lat="44.042995" lon="10.8322652"><ele>804.75</ele><time>2026-05-02T14:15:57.763Z</time></trkpt><trkpt lat="44.0429689" lon="10.832055"><ele>803.5</ele><time>2026-05-02T14:15:58.753Z</time></trkpt><trkpt lat="44.0429351" lon="10.8318794"><ele>802.25</ele><time>2026-05-02T14:15:59.761Z</time></trkpt><trkpt lat="44.0429054" lon="10.8317257"><ele>801.0</ele><time>2026-05-02T14:16:00.76Z</time></trkpt><trkpt lat="44.0428631" lon="10.8315901"><ele>800.0</ele><time>2026-05-02T14:16:01.75Z</time></trkpt><trkpt lat="44.042795" lon="10.8314878"><ele>799.0</ele><time>2026-05-02T14:16:02.76Z</time></trkpt><trkpt lat="44.0426982" lon="10.831408"><ele>798.0</ele><time>2026-05-02T14:16:03.762Z</time></trkpt><trkpt lat="44.0425827" lon="10.8313473"><ele>797.0</ele><time>2026-05-02T14:16:04.76Z</time></trkpt><trkpt lat="44.0424639" lon="10.831285"><ele>797.0</ele><time>2026-05-02T14:16:05.764Z</time></trkpt><trkpt lat="44.0423357" lon="10.831258"><ele>797.0</ele><time>2026-05-02T14:16:06.762Z</time></trkpt><trkpt lat="44.0422264" lon="10.8312309"><ele>797.0</ele><time>2026-05-02T14:16:07.768Z</time></trkpt><trkpt lat="44.0421369" lon="10.8311732"><ele>797.0</ele><time>2026-05-02T14:16:08.762Z</time></trkpt><trkpt lat="44.042058" lon="10.831092"><ele>797.0</ele><time>2026-05-02T14:16:09.771Z</time></trkpt><trkpt lat="44.0419998" lon="10.8309658"><ele>796.5</ele><time>2026-05-02T14:16:10.764Z</time></trkpt><trkpt lat="44.0419904" lon="10.8307773"><ele>796.0</ele><time>2026-05-02T14:16:11.76Z</time></trkpt><trkpt lat="44.0419808" lon="10.830595"><ele>795.5</ele><time>2026-05-02T14:16:12.758Z</time></trkpt><trkpt lat="44.0420156" lon="10.8303873"><ele>795.0</ele><time>2026-05-02T14:16:13.765Z</time></trkpt><trkpt lat="44.042062" lon="10.8301771"><ele>796.6666666666667</ele><time>2026-05-02T14:16:14.763Z</time></trkpt><trkpt lat="44.0421289" lon="10.8299689"><ele>798.3333333333334</ele><time>2026-05-02T14:16:15.76Z</time></trkpt><trkpt lat="44.0421754" lon="10.8297515"><ele>800.0</ele><time>2026-05-02T14:16:16.763Z</time></trkpt><trkpt lat="44.0421919" lon="10.8295345"><ele>800.0</ele><time>2026-05-02T14:16:17.765Z</time></trkpt><trkpt lat="44.0421857" lon="10.8293179"><ele>800.0</ele><time>2026-05-02T14:16:18.76Z</time></trkpt><trkpt lat="44.0421681" lon="10.8291153"><ele>800.0</ele><time>2026-05-02T14:16:19.76Z</time></trkpt><trkpt lat="44.0421374" lon="10.8289223"><ele>800.0</ele><time>2026-05-02T14:16:20.762Z</time></trkpt><trkpt lat="44.0421038" lon="10.8287371"><ele>797.5</ele><time>2026-05-02T14:16:21.77Z</time></trkpt><trkpt lat="44.0420715" lon="10.8285581"><ele>795.0</ele><time>2026-05-02T14:16:22.762Z</time></trkpt><trkpt lat="44.0420525" lon="10.8283718"><ele>792.5</ele><time>2026-05-02T14:16:23.746Z</time></trkpt><trkpt lat="44.0420512" lon="10.8281897"><ele>790.0</ele><time>2026-05-02T14:16:24.75Z</time></trkpt><trkpt lat="44.0420627" lon="10.8280133"><ele>788.75</ele><time>2026-05-02T14:16:25.761Z</time></trkpt><trkpt lat="44.0420873" lon="10.8278292"><ele>787.5</ele><time>2026-05-02T14:16:26.76Z</time></trkpt><trkpt lat="44.0421292" lon="10.8276421"><ele>786.25</ele><time>2026-05-02T14:16:27.76Z</time></trkpt><trkpt lat="44.0421896" lon="10.8274545"><ele>785.0</ele><time>2026-05-02T14:16:28.76Z</time></trkpt><trkpt lat="44.0422664" lon="10.8272832"><ele>785.0</ele><time>2026-05-02T14:16:29.756Z</time></trkpt><trkpt lat="44.0423567" lon="10.8271132"><ele>785.0</ele><time>2026-05-02T14:16:30.757Z</time></trkpt><trkpt lat="44.042456" lon="10.8269368"><ele>785.0</ele><time>2026-05-02T14:16:31.772Z</time></trkpt><trkpt lat="44.0425676" lon="10.8267605"><ele>776.3333333333334</ele><time>2026-05-02T14:16:32.759Z</time></trkpt><trkpt lat="44.0426748" lon="10.8265842"><ele>767.6666666666667</ele><time>2026-05-02T14:16:33.763Z</time></trkpt><trkpt lat="44.0427768" lon="10.8264137"><ele>759.0</ele><time>2026-05-02T14:16:34.762Z</time></trkpt><trkpt lat="44.0428765" lon="10.8262534"><ele>759.0</ele><time>2026-05-02T14:16:35.763Z</time></trkpt><trkpt lat="44.042982" lon="10.8261013"><ele>759.0</ele><time>2026-05-02T14:16:36.766Z</time></trkpt><trkpt lat="44.0430915" lon="10.8259509"><ele>759.0</ele><time>2026-05-02T14:16:37.76Z</time></trkpt><trkpt lat="44.0432035" lon="10.8258017"><ele>756.3333333333334</ele><time>2026-05-02T14:16:38.758Z</time></trkpt><trkpt lat="44.0433278" lon="10.8256565"><ele>753.6666666666667</ele><time>2026-05-02T14:16:39.756Z</time></trkpt><trkpt lat="44.043446" lon="10.8255147"><ele>751.0</ele><time>2026-05-02T14:16:40.763Z</time></trkpt><trkpt lat="44.0435415" lon="10.8253745"><ele>751.0</ele><time>2026-05-02T14:16:41.779Z</time></trkpt><trkpt lat="44.0436108" lon="10.8252217"><ele>751.0</ele><time>2026-05-02T14:16:42.766Z</time></trkpt><trkpt lat="44.0436485" lon="10.8250432"><ele>751.0</ele><time>2026-05-02T14:16:43.76Z</time></trkpt><trkpt lat="44.0436548" lon="10.8248386"><ele>751.0</ele><time>2026-05-02T14:16:44.76Z</time></trkpt><trkpt lat="44.0436381" lon="10.8246262"><ele>750.75</ele><time>2026-05-02T14:16:45.753Z</time></trkpt><trkpt lat="44.0436057" lon="10.8244082"><ele>750.5</ele><time>2026-05-02T14:16:46.762Z</time></trkpt><trkpt lat="44.04356" lon="10.8242064"><ele>750.25</ele><time>2026-05-02T14:16:47.76Z</time></trkpt><trkpt lat="44.0435176" lon="10.824032"><ele>750.0</ele><time>2026-05-02T14:16:48.761Z</time></trkpt><trkpt lat="44.0435008" lon="10.8238695"><ele>748.6666666666666</ele><time>2026-05-02T14:16:49.761Z</time></trkpt><trkpt lat="44.0435121" lon="10.823683"><ele>747.3333333333333</ele><time>2026-05-02T14:16:50.763Z</time></trkpt><trkpt lat="44.0435383" lon="10.823475"><ele>746.0</ele><time>2026-05-02T14:16:51.762Z</time></trkpt><trkpt lat="44.0435949" lon="10.8232593"><ele>746.0</ele><time>2026-05-02T14:16:52.764Z</time></trkpt><trkpt lat="44.0436378" lon="10.8230141"><ele>746.0</ele><time>2026-05-02T14:16:53.759Z</time></trkpt><trkpt lat="44.0436877" lon="10.822761"><ele>746.0</ele><time>2026-05-02T14:16:54.76Z</time></trkpt><trkpt lat="44.0437473" lon="10.8225052"><ele>744.6666666666666</ele><time>2026-05-02T14:16:55.763Z</time></trkpt><trkpt lat="44.0438048" lon="10.8222658"><ele>743.3333333333334</ele><time>2026-05-02T14:16:56.757Z</time></trkpt><trkpt lat="44.043863" lon="10.8220352"><ele>742.0</ele><time>2026-05-02T14:16:57.761Z</time></trkpt><trkpt lat="44.0439175" lon="10.8218097"><ele>741.25</ele><time>2026-05-02T14:16:58.762Z</time></trkpt><trkpt lat="44.0439711" lon="10.8216104"><ele>740.5</ele><time>2026-05-02T14:16:59.761Z</time></trkpt><trkpt lat="44.0440093" lon="10.8214369"><ele>739.75</ele><time>2026-05-02T14:17:00.76Z</time></trkpt><trkpt lat="44.0440116" lon="10.8212777"><ele>739.0</ele><time>2026-05-02T14:17:01.754Z</time></trkpt><trkpt lat="44.0439788" lon="10.8211195"><ele>737.75</ele><time>2026-05-02T14:17:02.766Z</time></trkpt><trkpt lat="44.0439143" lon="10.8209518"><ele>736.5</ele><time>2026-05-02T14:17:03.761Z</time></trkpt><trkpt lat="44.0438541" lon="10.8207911"><ele>735.25</ele><time>2026-05-02T14:17:04.758Z</time></trkpt><trkpt lat="44.0438096" lon="10.8206145"><ele>734.0</ele><time>2026-05-02T14:17:05.76Z</time></trkpt><trkpt lat="44.0438237" lon="10.8204074"><ele>734.0</ele><time>2026-05-02T14:17:06.759Z</time></trkpt><trkpt lat="44.0438226" lon="10.8201815"><ele>734.0</ele><time>2026-05-02T14:17:07.765Z</time></trkpt><trkpt lat="44.0438142" lon="10.8199552"><ele>734.0</ele><time>2026-05-02T14:17:08.762Z</time></trkpt><trkpt lat="44.0437927" lon="10.8197435"><ele>732.0</ele><time>2026-05-02T14:17:09.762Z</time></trkpt><trkpt lat="44.0437548" lon="10.8195583"><ele>730.0</ele><time>2026-05-02T14:17:10.765Z</time></trkpt><trkpt lat="44.0436978" lon="10.8193789"><ele>728.0</ele><time>2026-05-02T14:17:11.757Z</time></trkpt><trkpt lat="44.0436749" lon="10.8192151"><ele>726.0</ele><time>2026-05-02T14:17:12.757Z</time></trkpt><trkpt lat="44.0436719" lon="10.8190552"><ele>724.75</ele><time>2026-05-02T14:17:13.761Z</time></trkpt><trkpt lat="44.043699" lon="10.8188742"><ele>723.5</ele><time>2026-05-02T14:17:14.767Z</time></trkpt><trkpt lat="44.0437395" lon="10.8186748"><ele>722.25</ele><time>2026-05-02T14:17:15.761Z</time></trkpt><trkpt lat="44.0437882" lon="10.8184674"><ele>721.0</ele><time>2026-05-02T14:17:16.749Z</time></trkpt><trkpt lat="44.0438388" lon="10.8182449"><ele>719.6666666666667</ele><time>2026-05-02T14:17:17.759Z</time></trkpt><trkpt lat="44.0438894" lon="10.8180227"><ele>718.3333333333334</ele><time>2026-05-02T14:17:18.761Z</time></trkpt><trkpt lat="44.0439382" lon="10.8177943"><ele>717.0</ele><time>2026-05-02T14:17:19.761Z</time></trkpt><trkpt lat="44.0439869" lon="10.8175577"><ele>716.3333333333334</ele><time>2026-05-02T14:17:20.757Z</time></trkpt><trkpt lat="44.0440339" lon="10.8173113"><ele>715.6666666666667</ele><time>2026-05-02T14:17:21.762Z</time></trkpt><trkpt lat="44.0440846" lon="10.8170728"><ele>715.0</ele><time>2026-05-02T14:17:22.763Z</time></trkpt><trkpt lat="44.0441326" lon="10.8168331"><ele>709.3333333333334</ele><time>2026-05-02T14:17:23.76Z</time></trkpt><trkpt lat="44.0441838" lon="10.8165961"><ele>703.6666666666666</ele><time>2026-05-02T14:17:24.758Z</time></trkpt><trkpt lat="44.044231" lon="10.8163682"><ele>698.0</ele><time>2026-05-02T14:17:25.773Z</time></trkpt><trkpt lat="44.0442711" lon="10.816139"><ele>699.6666666666666</ele><time>2026-05-02T14:17:26.761Z</time></trkpt><trkpt lat="44.0443323" lon="10.815938"><ele>701.3333333333334</ele><time>2026-05-02T14:17:27.762Z</time></trkpt><trkpt lat="44.0444078" lon="10.8157525"><ele>703.0</ele><time>2026-05-02T14:17:28.759Z</time></trkpt><trkpt lat="44.0445009" lon="10.8155612"><ele>703.0</ele><time>2026-05-02T14:17:29.757Z</time></trkpt><trkpt lat="44.0446045" lon="10.8153766"><ele>703.0</ele><time>2026-05-02T14:17:30.765Z</time></trkpt><trkpt lat="44.0447077" lon="10.8151886"><ele>703.0</ele><time>2026-05-02T14:17:31.761Z</time></trkpt><trkpt lat="44.0448274" lon="10.8150256"><ele>701.3333333333334</ele><time>2026-05-02T14:17:32.754Z</time></trkpt><trkpt lat="44.044942" lon="10.8148456"><ele>699.6666666666666</ele><time>2026-05-02T14:17:33.766Z</time></trkpt><trkpt lat="44.0450477" lon="10.8146715"><ele>698.0</ele><time>2026-05-02T14:17:34.764Z</time></trkpt><trkpt lat="44.0451492" lon="10.8145107"><ele>695.5</ele><time>2026-05-02T14:17:35.759Z</time></trkpt><trkpt lat="44.0452467" lon="10.8143588"><ele>693.0</ele><time>2026-05-02T14:17:36.76Z</time></trkpt><trkpt lat="44.0453309" lon="10.8142087"><ele>690.5</ele><time>2026-05-02T14:17:37.745Z</time></trkpt><trkpt lat="44.0454232" lon="10.81407"><ele>688.0</ele><time>2026-05-02T14:17:38.76Z</time></trkpt><trkpt lat="44.0454804" lon="10.8139293"><ele>687.75</ele><time>2026-05-02T14:17:39.739Z</time></trkpt><trkpt lat="44.0455417" lon="10.813803"><ele>687.5</ele><time>2026-05-02T14:17:40.74Z</time></trkpt><trkpt lat="44.0455925" lon="10.8136668"><ele>687.25</ele><time>2026-05-02T14:17:41.73Z</time></trkpt><trkpt lat="44.0454765" lon="10.8134975"><ele>687.0</ele><time>2026-05-02T14:17:42.748Z</time></trkpt><trkpt lat="44.0454133" lon="10.8133946"><ele>685.0</ele><time>2026-05-02T14:17:43.743Z</time></trkpt><trkpt lat="44.0453453" lon="10.8132681"><ele>683.0</ele><time>2026-05-02T14:17:44.745Z</time></trkpt><trkpt lat="44.045206" lon="10.8132125"><ele>681.0</ele><time>2026-05-02T14:17:45.762Z</time></trkpt><trkpt lat="44.0450728" lon="10.8131403"><ele>679.0</ele><time>2026-05-02T14:17:46.773Z</time></trkpt><trkpt lat="44.0449322" lon="10.8130696"><ele>679.0</ele><time>2026-05-02T14:17:47.769Z</time></trkpt><trkpt lat="44.0447926" lon="10.8130068"><ele>679.0</ele><time>2026-05-02T14:17:48.776Z</time></trkpt><trkpt lat="44.0446858" lon="10.8129413"><ele>679.0</ele><time>2026-05-02T14:17:49.765Z</time></trkpt><trkpt lat="44.0445715" lon="10.8128681"><ele>679.0</ele><time>2026-05-02T14:17:50.756Z</time></trkpt><trkpt lat="44.0444789" lon="10.8127867"><ele>679.0</ele><time>2026-05-02T14:17:51.764Z</time></trkpt><trkpt lat="44.0444124" lon="10.8126902"><ele>679.0</ele><time>2026-05-02T14:17:52.769Z</time></trkpt><trkpt lat="44.0443698" lon="10.8125788"><ele>679.0</ele><time>2026-05-02T14:17:53.762Z</time></trkpt><trkpt lat="44.0443478" lon="10.812455"><ele>679.0</ele><time>2026-05-02T14:17:54.762Z</time></trkpt><trkpt lat="44.0443474" lon="10.8123385"><ele>679.0</ele><time>2026-05-02T14:17:55.759Z</time></trkpt><trkpt lat="44.044372" lon="10.8121954"><ele>677.75</ele><time>2026-05-02T14:17:56.758Z</time></trkpt><trkpt lat="44.044406" lon="10.8120354"><ele>676.5</ele><time>2026-05-02T14:17:57.76Z</time></trkpt><trkpt lat="44.0444537" lon="10.8118927"><ele>675.25</ele><time>2026-05-02T14:17:58.76Z</time></trkpt><trkpt lat="44.0445223" lon="10.8117647"><ele>674.0</ele><time>2026-05-02T14:17:59.762Z</time></trkpt><trkpt lat="44.0446046" lon="10.81165"><ele>674.0</ele><time>2026-05-02T14:18:00.76Z</time></trkpt><trkpt lat="44.0447072" lon="10.8115433"><ele>674.0</ele><time>2026-05-02T14:18:01.759Z</time></trkpt><trkpt lat="44.0448185" lon="10.8114469"><ele>674.0</ele><time>2026-05-02T14:18:02.759Z</time></trkpt><trkpt lat="44.0449372" lon="10.8113624"><ele>674.0</ele><time>2026-05-02T14:18:03.765Z</time></trkpt><trkpt lat="44.0450517" lon="10.8112707"><ele>671.75</ele><time>2026-05-02T14:18:04.751Z</time></trkpt><trkpt lat="44.0451644" lon="10.8111798"><ele>669.5</ele><time>2026-05-02T14:18:05.769Z</time></trkpt><trkpt lat="44.0452798" lon="10.8110767"><ele>667.25</ele><time>2026-05-02T14:18:06.76Z</time></trkpt><trkpt lat="44.0453937" lon="10.8109795"><ele>665.0</ele><time>2026-05-02T14:18:07.76Z</time></trkpt><trkpt lat="44.0455133" lon="10.8108911"><ele>665.0</ele><time>2026-05-02T14:18:08.763Z</time></trkpt><trkpt lat="44.0456281" lon="10.810799"><ele>665.0</ele><time>2026-05-02T14:18:09.772Z</time></trkpt><trkpt lat="44.0457446" lon="10.810713"><ele>665.0</ele><time>2026-05-02T14:18:10.76Z</time></trkpt><trkpt lat="44.0458637" lon="10.8106364"><ele>665.0</ele><time>2026-05-02T14:18:11.762Z</time></trkpt><trkpt lat="44.0459806" lon="10.8105592"><ele>661.75</ele><time>2026-05-02T14:18:12.755Z</time></trkpt><trkpt lat="44.0460903" lon="10.8104893"><ele>658.5</ele><time>2026-05-02T14:18:13.762Z</time></trkpt><trkpt lat="44.0461947" lon="10.8104302"><ele>655.25</ele><time>2026-05-02T14:18:14.745Z</time></trkpt><trkpt lat="44.0462959" lon="10.8103622"><ele>652.0</ele><time>2026-05-02T14:18:15.757Z</time></trkpt><trkpt lat="44.0464023" lon="10.8102976"><ele>652.0</ele><time>2026-05-02T14:18:16.761Z</time></trkpt><trkpt lat="44.0464997" lon="10.8102366"><ele>652.0</ele><time>2026-05-02T14:18:17.76Z</time></trkpt><trkpt lat="44.0465943" lon="10.8101761"><ele>652.0</ele><time>2026-05-02T14:18:18.767Z</time></trkpt><trkpt lat="44.0466781" lon="10.8101072"><ele>652.0</ele><time>2026-05-02T14:18:19.763Z</time></trkpt><trkpt lat="44.0467526" lon="10.8100232"><ele>652.0</ele><time>2026-05-02T14:18:20.762Z</time></trkpt><trkpt lat="44.046818" lon="10.80992"><ele>650.2</ele><time>2026-05-02T14:18:21.759Z</time></trkpt><trkpt lat="44.0468762" lon="10.8098119"><ele>648.4000000000001</ele><time>2026-05-02T14:18:22.76Z</time></trkpt><trkpt lat="44.0469272" lon="10.8096878"><ele>646.5999999999999</ele><time>2026-05-02T14:18:23.761Z</time></trkpt><trkpt lat="44.0469705" lon="10.8095568"><ele>644.8</ele><time>2026-05-02T14:18:24.762Z</time></trkpt><trkpt lat="44.0470016" lon="10.8094173"><ele>643.0</ele><time>2026-05-02T14:18:25.759Z</time></trkpt><trkpt lat="44.0469929" lon="10.8092748"><ele>642.5</ele><time>2026-05-02T14:18:26.753Z</time></trkpt><trkpt lat="44.0469686" lon="10.8091423"><ele>642.0</ele><time>2026-05-02T14:18:27.766Z</time></trkpt><trkpt lat="44.046937" lon="10.8090267"><ele>641.5</ele><time>2026-05-02T14:18:28.761Z</time></trkpt><trkpt lat="44.0469014" lon="10.8089087"><ele>641.0</ele><time>2026-05-02T14:18:29.756Z</time></trkpt><trkpt lat="44.0468738" lon="10.8088064"><ele>640.5</ele><time>2026-05-02T14:18:30.745Z</time></trkpt><trkpt lat="44.0468652" lon="10.8087092"><ele>640.0</ele><time>2026-05-02T14:18:31.761Z</time></trkpt><trkpt lat="44.0468677" lon="10.8086101"><ele>639.0</ele><time>2026-05-02T14:18:32.761Z</time></trkpt><trkpt lat="44.0469239" lon="10.8084501"><ele>638.0</ele><time>2026-05-02T14:18:34.766Z</time></trkpt><trkpt lat="44.0469986" lon="10.8083224"><ele>637.0</ele><time>2026-05-02T14:18:36.759Z</time></trkpt><trkpt lat="44.0470676" lon="10.8083105"><ele>636.0</ele><time>2026-05-02T14:18:37.76Z</time></trkpt><trkpt lat="44.0471454" lon="10.8083086"><ele>635.0</ele><time>2026-05-02T14:18:38.759Z</time></trkpt><trkpt lat="44.047242" lon="10.8083227"><ele>635.0</ele><time>2026-05-02T14:18:39.766Z</time></trkpt><trkpt lat="44.047336" lon="10.8083315"><ele>635.0</ele><time>2026-05-02T14:18:40.758Z</time></trkpt><trkpt lat="44.0474306" lon="10.8083409"><ele>635.0</ele><time>2026-05-02T14:18:41.766Z</time></trkpt><trkpt lat="44.0475258" lon="10.8083499"><ele>635.0</ele><time>2026-05-02T14:18:42.757Z</time></trkpt><trkpt lat="44.0476131" lon="10.8083653"><ele>635.0</ele><time>2026-05-02T14:18:43.764Z</time></trkpt><trkpt lat="44.0477" lon="10.8083672"><ele>633.8333333333333</ele><time>2026-05-02T14:18:44.758Z</time></trkpt><trkpt lat="44.0477904" lon="10.8083648"><ele>632.6666666666666</ele><time>2026-05-02T14:18:45.763Z</time></trkpt><trkpt lat="44.0478832" lon="10.8083786"><ele>631.5</ele><time>2026-05-02T14:18:46.763Z</time></trkpt><trkpt lat="44.0479684" lon="10.8083933"><ele>630.3333333333334</ele><time>2026-05-02T14:18:47.759Z</time></trkpt><trkpt lat="44.0480622" lon="10.8083967"><ele>629.1666666666667</ele><time>2026-05-02T14:18:48.758Z</time></trkpt><trkpt lat="44.0481362" lon="10.808389"><ele>628.0</ele><time>2026-05-02T14:18:49.759Z</time></trkpt><trkpt lat="44.0482002" lon="10.8083585"><ele>628.0</ele><time>2026-05-02T14:18:50.757Z</time></trkpt><trkpt lat="44.0482667" lon="10.8082817"><ele>628.0</ele><time>2026-05-02T14:18:51.759Z</time></trkpt><trkpt lat="44.0483177" lon="10.8081758"><ele>628.0</ele><time>2026-05-02T14:18:52.757Z</time></trkpt><trkpt lat="44.048361" lon="10.8080598"><ele>628.0</ele><time>2026-05-02T14:18:53.759Z</time></trkpt><trkpt lat="44.0484018" lon="10.8079585"><ele>628.0</ele><time>2026-05-02T14:18:54.762Z</time></trkpt><trkpt lat="44.0484452" lon="10.8078535"><ele>628.0</ele><time>2026-05-02T14:18:55.756Z</time></trkpt><trkpt lat="44.0484852" lon="10.8077487"><ele>629.8</ele><time>2026-05-02T14:18:56.759Z</time></trkpt><trkpt lat="44.0485281" lon="10.8076344"><ele>631.5999999999999</ele><time>2026-05-02T14:18:57.76Z</time></trkpt><trkpt lat="44.0485742" lon="10.8075163"><ele>633.4000000000001</ele><time>2026-05-02T14:18:58.749Z</time></trkpt><trkpt lat="44.0486204" lon="10.8073985"><ele>635.2</ele><time>2026-05-02T14:18:59.76Z</time></trkpt><trkpt lat="44.0486624" lon="10.8072852"><ele>637.0</ele><time>2026-05-02T14:19:00.745Z</time></trkpt><trkpt lat="44.0487063" lon="10.8071792"><ele>637.0</ele><time>2026-05-02T14:19:01.76Z</time></trkpt><trkpt lat="44.0487598" lon="10.8070891"><ele>637.0</ele><time>2026-05-02T14:19:02.76Z</time></trkpt><trkpt lat="44.0488265" lon="10.8070272"><ele>637.0</ele><time>2026-05-02T14:19:03.76Z</time></trkpt><trkpt lat="44.0489106" lon="10.8069892"><ele>637.0</ele><time>2026-05-02T14:19:04.769Z</time></trkpt><trkpt lat="44.049015" lon="10.8069794"><ele>637.0</ele><time>2026-05-02T14:19:05.761Z</time></trkpt><trkpt lat="44.0491209" lon="10.8069792"><ele>637.8</ele><time>2026-05-02T14:19:06.772Z</time></trkpt><trkpt lat="44.0492326" lon="10.8069891"><ele>638.6</ele><time>2026-05-02T14:19:07.761Z</time></trkpt><trkpt lat="44.0493387" lon="10.8069975"><ele>639.4</ele><time>2026-05-02T14:19:08.764Z</time></trkpt><trkpt lat="44.0494404" lon="10.8069918"><ele>640.1999999999999</ele><time>2026-05-02T14:19:09.76Z</time></trkpt><trkpt lat="44.0495394" lon="10.8069603"><ele>641.0</ele><time>2026-05-02T14:19:10.77Z</time></trkpt><trkpt lat="44.0496398" lon="10.8069132"><ele>641.0</ele><time>2026-05-02T14:19:11.753Z</time></trkpt><trkpt lat="44.0497367" lon="10.8068539"><ele>641.0</ele><time>2026-05-02T14:19:12.764Z</time></trkpt><trkpt lat="44.0498358" lon="10.8067834"><ele>641.0</ele><time>2026-05-02T14:19:13.777Z</time></trkpt><trkpt lat="44.0499245" lon="10.8066988"><ele>641.0</ele><time>2026-05-02T14:19:14.747Z</time></trkpt><trkpt lat="44.0500104" lon="10.8065795"><ele>641.0</ele><time>2026-05-02T14:19:15.764Z</time></trkpt><trkpt lat="44.0500941" lon="10.8064211"><ele>640.3333333333333</ele><time>2026-05-02T14:19:16.757Z</time></trkpt><trkpt lat="44.0501837" lon="10.8062197"><ele>639.6666666666666</ele><time>2026-05-02T14:19:17.76Z</time></trkpt><trkpt lat="44.0502755" lon="10.8060056"><ele>639.0</ele><time>2026-05-02T14:19:18.77Z</time></trkpt><trkpt lat="44.0503762" lon="10.8057798"><ele>639.0</ele><time>2026-05-02T14:19:19.76Z</time></trkpt><trkpt lat="44.0504808" lon="10.8055713"><ele>639.0</ele><time>2026-05-02T14:19:20.761Z</time></trkpt><trkpt lat="44.0505949" lon="10.8053959"><ele>639.0</ele><time>2026-05-02T14:19:21.759Z</time></trkpt><trkpt lat="44.0507155" lon="10.805262"><ele>640.0</ele><time>2026-05-02T14:19:22.763Z</time></trkpt><trkpt lat="44.0508446" lon="10.8051641"><ele>641.0</ele><time>2026-05-02T14:19:23.766Z</time></trkpt><trkpt lat="44.0509811" lon="10.8051158"><ele>642.0</ele><time>2026-05-02T14:19:24.76Z</time></trkpt><trkpt lat="44.0511164" lon="10.8050952"><ele>643.0</ele><time>2026-05-02T14:19:25.764Z</time></trkpt><trkpt lat="44.0512497" lon="10.8050789"><ele>643.0</ele><time>2026-05-02T14:19:26.741Z</time></trkpt><trkpt lat="44.0513689" lon="10.8050558"><ele>643.0</ele><time>2026-05-02T14:19:27.76Z</time></trkpt><trkpt lat="44.0514834" lon="10.8049971"><ele>643.0</ele><time>2026-05-02T14:19:28.743Z</time></trkpt><trkpt lat="44.0515761" lon="10.8049146"><ele>643.0</ele><time>2026-05-02T14:19:29.764Z</time></trkpt><trkpt lat="44.0516679" lon="10.8048218"><ele>644.4</ele><time>2026-05-02T14:19:30.761Z</time></trkpt><trkpt lat="44.0517597" lon="10.8047292"><ele>645.8</ele><time>2026-05-02T14:19:31.765Z</time></trkpt><trkpt lat="44.0518469" lon="10.8046381"><ele>647.2</ele><time>2026-05-02T14:19:32.759Z</time></trkpt><trkpt lat="44.0519285" lon="10.8045343"><ele>648.6</ele><time>2026-05-02T14:19:33.758Z</time></trkpt><trkpt lat="44.0520136" lon="10.8044423"><ele>650.0</ele><time>2026-05-02T14:19:34.757Z</time></trkpt><trkpt lat="44.0520826" lon="10.8043122"><ele>645.0</ele><time>2026-05-02T14:19:35.767Z</time></trkpt><trkpt lat="44.052144" lon="10.8041344"><ele>640.0</ele><time>2026-05-02T14:19:36.766Z</time></trkpt><trkpt lat="44.0522042" lon="10.8039103"><ele>635.0</ele><time>2026-05-02T14:19:37.768Z</time></trkpt><trkpt lat="44.0522727" lon="10.8036835"><ele>637.0</ele><time>2026-05-02T14:19:38.76Z</time></trkpt><trkpt lat="44.0523599" lon="10.8034724"><ele>639.0</ele><time>2026-05-02T14:19:39.762Z</time></trkpt><trkpt lat="44.0524429" lon="10.8032608"><ele>641.0</ele><time>2026-05-02T14:19:40.787Z</time></trkpt><trkpt lat="44.0525275" lon="10.8030642"><ele>641.0</ele><time>2026-05-02T14:19:41.77Z</time></trkpt><trkpt lat="44.0526161" lon="10.802887"><ele>641.0</ele><time>2026-05-02T14:19:42.761Z</time></trkpt><trkpt lat="44.0527126" lon="10.8027171"><ele>641.0</ele><time>2026-05-02T14:19:43.737Z</time></trkpt><trkpt lat="44.0528151" lon="10.8025653"><ele>639.75</ele><time>2026-05-02T14:19:44.758Z</time></trkpt><trkpt lat="44.0529155" lon="10.8024179"><ele>638.5</ele><time>2026-05-02T14:19:45.764Z</time></trkpt><trkpt lat="44.053014" lon="10.8022703"><ele>637.25</ele><time>2026-05-02T14:19:46.76Z</time></trkpt><trkpt lat="44.0531162" lon="10.8021273"><ele>636.0</ele><time>2026-05-02T14:19:47.758Z</time></trkpt><trkpt lat="44.0532205" lon="10.8019772"><ele>636.0</ele><time>2026-05-02T14:19:48.765Z</time></trkpt><trkpt lat="44.0533288" lon="10.8018403"><ele>636.0</ele><time>2026-05-02T14:19:49.754Z</time></trkpt><trkpt lat="44.0534434" lon="10.8017122"><ele>636.0</ele><time>2026-05-02T14:19:50.759Z</time></trkpt><trkpt lat="44.0535457" lon="10.8015946"><ele>636.0</ele><time>2026-05-02T14:19:51.768Z</time></trkpt><trkpt lat="44.0536383" lon="10.8014742"><ele>636.0</ele><time>2026-05-02T14:19:52.749Z</time></trkpt><trkpt lat="44.0537107" lon="10.8013412"><ele>636.0</ele><time>2026-05-02T14:19:53.759Z</time></trkpt><trkpt lat="44.05377" lon="10.8011918"><ele>636.0</ele><time>2026-05-02T14:19:54.761Z</time></trkpt><trkpt lat="44.0538268" lon="10.8010321"><ele>636.0</ele><time>2026-05-02T14:19:55.76Z</time></trkpt><trkpt lat="44.0538878" lon="10.8008728"><ele>637.25</ele><time>2026-05-02T14:19:56.764Z</time></trkpt><trkpt lat="44.0539521" lon="10.8007076"><ele>638.5</ele><time>2026-05-02T14:19:57.757Z</time></trkpt><trkpt lat="44.054019" lon="10.8005472"><ele>639.75</ele><time>2026-05-02T14:19:58.753Z</time></trkpt><trkpt lat="44.0540871" lon="10.8003862"><ele>641.0</ele><time>2026-05-02T14:19:59.756Z</time></trkpt><trkpt lat="44.0541528" lon="10.8002359"><ele>639.75</ele><time>2026-05-02T14:20:00.757Z</time></trkpt><trkpt lat="44.054214" lon="10.8000802"><ele>638.5</ele><time>2026-05-02T14:20:01.761Z</time></trkpt><trkpt lat="44.0542721" lon="10.7999276"><ele>637.25</ele><time>2026-05-02T14:20:02.76Z</time></trkpt><trkpt lat="44.054336" lon="10.7997867"><ele>636.0</ele><time>2026-05-02T14:20:03.76Z</time></trkpt><trkpt lat="44.0544106" lon="10.7996556"><ele>636.0</ele><time>2026-05-02T14:20:04.765Z</time></trkpt><trkpt lat="44.054503" lon="10.7995366"><ele>636.0</ele><time>2026-05-02T14:20:05.761Z</time></trkpt><trkpt lat="44.0546048" lon="10.7994292"><ele>636.0</ele><time>2026-05-02T14:20:06.764Z</time></trkpt><trkpt lat="44.0547147" lon="10.7993144"><ele>636.0</ele><time>2026-05-02T14:20:07.765Z</time></trkpt><trkpt lat="44.0548249" lon="10.7991984"><ele>635.75</ele><time>2026-05-02T14:20:08.762Z</time></trkpt><trkpt lat="44.0549392" lon="10.7990673"><ele>635.5</ele><time>2026-05-02T14:20:09.759Z</time></trkpt><trkpt lat="44.0550415" lon="10.7989268"><ele>635.25</ele><time>2026-05-02T14:20:10.758Z</time></trkpt><trkpt lat="44.0551381" lon="10.7987673"><ele>635.0</ele><time>2026-05-02T14:20:11.754Z</time></trkpt><trkpt lat="44.0552287" lon="10.7985972"><ele>632.6666666666666</ele><time>2026-05-02T14:20:12.754Z</time></trkpt><trkpt lat="44.0553224" lon="10.7984302"><ele>630.3333333333334</ele><time>2026-05-02T14:20:13.753Z</time></trkpt><trkpt lat="44.0554121" lon="10.7982604"><ele>628.0</ele><time>2026-05-02T14:20:14.762Z</time></trkpt><trkpt lat="44.0555005" lon="10.798087"><ele>628.0</ele><time>2026-05-02T14:20:15.759Z</time></trkpt><trkpt lat="44.0555783" lon="10.7979001"><ele>628.0</ele><time>2026-05-02T14:20:16.765Z</time></trkpt><trkpt lat="44.0556334" lon="10.7977008"><ele>628.0</ele><time>2026-05-02T14:20:17.764Z</time></trkpt><trkpt lat="44.0556683" lon="10.7974893"><ele>624.3333333333334</ele><time>2026-05-02T14:20:18.76Z</time></trkpt><trkpt lat="44.0556944" lon="10.7972657"><ele>620.6666666666666</ele><time>2026-05-02T14:20:19.769Z</time></trkpt><trkpt lat="44.0557174" lon="10.7970416"><ele>617.0</ele><time>2026-05-02T14:20:20.76Z</time></trkpt><trkpt lat="44.0557419" lon="10.7968156"><ele>615.6666666666666</ele><time>2026-05-02T14:20:21.76Z</time></trkpt><trkpt lat="44.0557659" lon="10.7965839"><ele>614.3333333333334</ele><time>2026-05-02T14:20:22.76Z</time></trkpt><trkpt lat="44.055783" lon="10.7963609"><ele>613.0</ele><time>2026-05-02T14:20:23.769Z</time></trkpt><trkpt lat="44.0557983" lon="10.7961365"><ele>620.0</ele><time>2026-05-02T14:20:24.764Z</time></trkpt><trkpt lat="44.0558208" lon="10.7959047"><ele>627.0</ele><time>2026-05-02T14:20:25.763Z</time></trkpt><trkpt lat="44.0558602" lon="10.7956917"><ele>634.0</ele><time>2026-05-02T14:20:26.761Z</time></trkpt><trkpt lat="44.0559174" lon="10.7954898"><ele>634.0</ele><time>2026-05-02T14:20:27.761Z</time></trkpt><trkpt lat="44.0559836" lon="10.7952951"><ele>634.0</ele><time>2026-05-02T14:20:28.761Z</time></trkpt><trkpt lat="44.0560522" lon="10.7951004"><ele>634.0</ele><time>2026-05-02T14:20:29.763Z</time></trkpt><trkpt lat="44.0561145" lon="10.7949002"><ele>631.5</ele><time>2026-05-02T14:20:30.765Z</time></trkpt><trkpt lat="44.0561712" lon="10.7947075"><ele>629.0</ele><time>2026-05-02T14:20:31.761Z</time></trkpt><trkpt lat="44.0562209" lon="10.7945181"><ele>626.5</ele><time>2026-05-02T14:20:32.76Z</time></trkpt><trkpt lat="44.0562524" lon="10.7943392"><ele>624.0</ele><time>2026-05-02T14:20:33.778Z</time></trkpt><trkpt lat="44.056267" lon="10.7941604"><ele>622.75</ele><time>2026-05-02T14:20:34.76Z</time></trkpt><trkpt lat="44.0562681" lon="10.7939881"><ele>621.5</ele><time>2026-05-02T14:20:35.76Z</time></trkpt><trkpt lat="44.0562539" lon="10.7938203"><ele>620.25</ele><time>2026-05-02T14:20:36.76Z</time></trkpt><trkpt lat="44.0562247" lon="10.7936516"><ele>619.0</ele><time>2026-05-02T14:20:37.759Z</time></trkpt><trkpt lat="44.0561799" lon="10.7934885"><ele>618.75</ele><time>2026-05-02T14:20:38.756Z</time></trkpt><trkpt lat="44.0561404" lon="10.7933243"><ele>618.5</ele><time>2026-05-02T14:20:39.759Z</time></trkpt><trkpt lat="44.0560975" lon="10.7931709"><ele>618.25</ele><time>2026-05-02T14:20:40.759Z</time></trkpt><trkpt lat="44.0560581" lon="10.7930161"><ele>618.0</ele><time>2026-05-02T14:20:41.764Z</time></trkpt><trkpt lat="44.0560157" lon="10.7928654"><ele>618.0</ele><time>2026-05-02T14:20:42.763Z</time></trkpt><trkpt lat="44.0559817" lon="10.7927321"><ele>618.0</ele><time>2026-05-02T14:20:43.764Z</time></trkpt><trkpt lat="44.0559518" lon="10.7926047"><ele>618.0</ele><time>2026-05-02T14:20:44.757Z</time></trkpt><trkpt lat="44.0559227" lon="10.792493"><ele>618.0</ele><time>2026-05-02T14:20:45.768Z</time></trkpt><trkpt lat="44.055892" lon="10.7923823"><ele>618.0</ele><time>2026-05-02T14:20:46.759Z</time></trkpt><trkpt lat="44.0558652" lon="10.7922824"><ele>618.0</ele><time>2026-05-02T14:20:47.759Z</time></trkpt><trkpt lat="44.0558364" lon="10.7922007"><ele>618.4</ele><time>2026-05-02T14:20:48.759Z</time></trkpt><trkpt lat="44.0558015" lon="10.7920739"><ele>618.8</ele><time>2026-05-02T14:20:50.759Z</time></trkpt><trkpt lat="44.0557814" lon="10.791978"><ele>619.2</ele><time>2026-05-02T14:20:52.752Z</time></trkpt><trkpt lat="44.0557509" lon="10.7918433"><ele>619.6</ele><time>2026-05-02T14:20:55.765Z</time></trkpt><trkpt lat="44.0557262" lon="10.7916997"><ele>620.0</ele><time>2026-05-02T14:20:57.76Z</time></trkpt><trkpt lat="44.0556958" lon="10.7915793"><ele>620.5</ele><time>2026-05-02T14:20:59.762Z</time></trkpt><trkpt lat="44.0556785" lon="10.7914673"><ele>621.0</ele><time>2026-05-02T14:21:01.75Z</time></trkpt><trkpt lat="44.0556532" lon="10.7913314"><ele>621.5</ele><time>2026-05-02T14:21:03.763Z</time></trkpt><trkpt lat="44.0556284" lon="10.7912473"><ele>622.0</ele><time>2026-05-02T14:21:04.763Z</time></trkpt><trkpt lat="44.0555944" lon="10.7911449"><ele>622.5</ele><time>2026-05-02T14:21:05.766Z</time></trkpt><trkpt lat="44.0555471" lon="10.7910488"><ele>623.0</ele><time>2026-05-02T14:21:06.761Z</time></trkpt><trkpt lat="44.0555161" lon="10.7909461"><ele>623.0</ele><time>2026-05-02T14:21:07.763Z</time></trkpt><trkpt lat="44.0554822" lon="10.7908385"><ele>623.0</ele><time>2026-05-02T14:21:08.757Z</time></trkpt><trkpt lat="44.0554645" lon="10.7907088"><ele>623.0</ele><time>2026-05-02T14:21:09.759Z</time></trkpt><trkpt lat="44.0554572" lon="10.790571"><ele>623.0</ele><time>2026-05-02T14:21:10.754Z</time></trkpt><trkpt lat="44.0554603" lon="10.7904159"><ele>623.0</ele><time>2026-05-02T14:21:11.759Z</time></trkpt><trkpt lat="44.0554703" lon="10.7902561"><ele>621.5</ele><time>2026-05-02T14:21:12.759Z</time></trkpt><trkpt lat="44.0554761" lon="10.7900891"><ele>620.0</ele><time>2026-05-02T14:21:13.755Z</time></trkpt><trkpt lat="44.0554889" lon="10.78991"><ele>618.5</ele><time>2026-05-02T14:21:14.761Z</time></trkpt><trkpt lat="44.0555012" lon="10.7897256"><ele>617.0</ele><time>2026-05-02T14:21:15.763Z</time></trkpt><trkpt lat="44.0555075" lon="10.7895375"><ele>617.0</ele><time>2026-05-02T14:21:16.761Z</time></trkpt><trkpt lat="44.0555123" lon="10.7893452"><ele>617.0</ele><time>2026-05-02T14:21:17.756Z</time></trkpt><trkpt lat="44.0555268" lon="10.7891488"><ele>617.0</ele><time>2026-05-02T14:21:18.76Z</time></trkpt><trkpt lat="44.0555329" lon="10.7889715"><ele>617.0</ele><time>2026-05-02T14:21:19.76Z</time></trkpt><trkpt lat="44.0555425" lon="10.7888096"><ele>616.25</ele><time>2026-05-02T14:21:20.762Z</time></trkpt><trkpt lat="44.0555486" lon="10.7886494"><ele>615.5</ele><time>2026-05-02T14:21:21.765Z</time></trkpt><trkpt lat="44.0555489" lon="10.7884859"><ele>614.75</ele><time>2026-05-02T14:21:22.761Z</time></trkpt><trkpt lat="44.0555563" lon="10.7883134"><ele>614.0</ele><time>2026-05-02T14:21:23.763Z</time></trkpt><trkpt lat="44.0555641" lon="10.788136"><ele>614.0</ele><time>2026-05-02T14:21:24.762Z</time></trkpt><trkpt lat="44.0555693" lon="10.7879649"><ele>614.0</ele><time>2026-05-02T14:21:25.759Z</time></trkpt><trkpt lat="44.0555794" lon="10.7878036"><ele>614.0</ele><time>2026-05-02T14:21:26.757Z</time></trkpt><trkpt lat="44.0555777" lon="10.7876542"><ele>614.0</ele><time>2026-05-02T14:21:27.758Z</time></trkpt><trkpt lat="44.0555855" lon="10.787501"><ele>614.0</ele><time>2026-05-02T14:21:28.772Z</time></trkpt><trkpt lat="44.0555884" lon="10.7873533"><ele>614.0</ele><time>2026-05-02T14:21:29.756Z</time></trkpt><trkpt lat="44.0555914" lon="10.7872309"><ele>614.0</ele><time>2026-05-02T14:21:30.76Z</time></trkpt><trkpt lat="44.0555959" lon="10.7870942"><ele>614.0</ele><time>2026-05-02T14:21:31.766Z</time></trkpt><trkpt lat="44.0555954" lon="10.7869515"><ele>614.0</ele><time>2026-05-02T14:21:32.764Z</time></trkpt><trkpt lat="44.0556026" lon="10.7868003"><ele>614.0</ele><time>2026-05-02T14:21:33.759Z</time></trkpt><trkpt lat="44.0556149" lon="10.7866438"><ele>614.0</ele><time>2026-05-02T14:21:34.76Z</time></trkpt><trkpt lat="44.0556293" lon="10.7864766"><ele>614.0</ele><time>2026-05-02T14:21:35.762Z</time></trkpt><trkpt lat="44.0556404" lon="10.7863084"><ele>614.0</ele><time>2026-05-02T14:21:36.769Z</time></trkpt><trkpt lat="44.0556519" lon="10.786152"><ele>610.75</ele><time>2026-05-02T14:21:37.761Z</time></trkpt><trkpt lat="44.0556699" lon="10.7859991"><ele>607.5</ele><time>2026-05-02T14:21:38.761Z</time></trkpt><trkpt lat="44.0556971" lon="10.7858475"><ele>604.25</ele><time>2026-05-02T14:21:39.761Z</time></trkpt><trkpt lat="44.0557488" lon="10.7857116"><ele>601.0</ele><time>2026-05-02T14:21:40.76Z</time></trkpt><trkpt lat="44.0558221" lon="10.7855872"><ele>608.0</ele><time>2026-05-02T14:21:41.76Z</time></trkpt><trkpt lat="44.0559077" lon="10.7854809"><ele>615.0</ele><time>2026-05-02T14:21:42.759Z</time></trkpt><trkpt lat="44.0560235" lon="10.7853873"><ele>622.0</ele><time>2026-05-02T14:21:43.764Z</time></trkpt><trkpt lat="44.0561153" lon="10.7852961"><ele>629.0</ele><time>2026-05-02T14:21:44.756Z</time></trkpt><trkpt lat="44.0562079" lon="10.7851976"><ele>625.25</ele><time>2026-05-02T14:21:45.761Z</time></trkpt><trkpt lat="44.0562937" lon="10.785078"><ele>621.5</ele><time>2026-05-02T14:21:46.761Z</time></trkpt><trkpt lat="44.0563757" lon="10.7849553"><ele>617.75</ele><time>2026-05-02T14:21:47.764Z</time></trkpt><trkpt lat="44.0564475" lon="10.7848256"><ele>614.0</ele><time>2026-05-02T14:21:48.767Z</time></trkpt><trkpt lat="44.056517" lon="10.7846939"><ele>614.0</ele><time>2026-05-02T14:21:49.756Z</time></trkpt><trkpt lat="44.0565842" lon="10.7845689"><ele>614.0</ele><time>2026-05-02T14:21:50.762Z</time></trkpt><trkpt lat="44.0566424" lon="10.7844366"><ele>614.0</ele><time>2026-05-02T14:21:51.762Z</time></trkpt><trkpt lat="44.0566856" lon="10.7842901"><ele>614.0</ele><time>2026-05-02T14:21:52.758Z</time></trkpt><trkpt lat="44.0566927" lon="10.7841108"><ele>618.0</ele><time>2026-05-02T14:21:53.761Z</time></trkpt><trkpt lat="44.0566881" lon="10.7839346"><ele>622.0</ele><time>2026-05-02T14:21:54.765Z</time></trkpt><trkpt lat="44.0566761" lon="10.7837586"><ele>626.0</ele><time>2026-05-02T14:21:55.755Z</time></trkpt><trkpt lat="44.056654" lon="10.7835925"><ele>630.0</ele><time>2026-05-02T14:21:56.761Z</time></trkpt><trkpt lat="44.0566354" lon="10.7834242"><ele>623.75</ele><time>2026-05-02T14:21:57.763Z</time></trkpt><trkpt lat="44.056607" lon="10.7832524"><ele>617.5</ele><time>2026-05-02T14:21:58.757Z</time></trkpt><trkpt lat="44.0565854" lon="10.7830981"><ele>611.25</ele><time>2026-05-02T14:21:59.76Z</time></trkpt><trkpt lat="44.0565597" lon="10.7829359"><ele>605.0</ele><time>2026-05-02T14:22:00.771Z</time></trkpt><trkpt lat="44.0565427" lon="10.7827813"><ele>605.0</ele><time>2026-05-02T14:22:01.757Z</time></trkpt><trkpt lat="44.0565342" lon="10.7826201"><ele>605.0</ele><time>2026-05-02T14:22:02.759Z</time></trkpt><trkpt lat="44.0565377" lon="10.7824584"><ele>605.0</ele><time>2026-05-02T14:22:03.757Z</time></trkpt><trkpt lat="44.0565646" lon="10.7823002"><ele>605.0</ele><time>2026-05-02T14:22:04.76Z</time></trkpt><trkpt lat="44.0566116" lon="10.782137"><ele>607.5</ele><time>2026-05-02T14:22:05.757Z</time></trkpt><trkpt lat="44.0566821" lon="10.7819796"><ele>610.0</ele><time>2026-05-02T14:22:06.761Z</time></trkpt><trkpt lat="44.0567725" lon="10.7818599"><ele>612.5</ele><time>2026-05-02T14:22:07.759Z</time></trkpt><trkpt lat="44.0568714" lon="10.781737"><ele>615.0</ele><time>2026-05-02T14:22:08.762Z</time></trkpt><trkpt lat="44.0569805" lon="10.7816176"><ele>615.0</ele><time>2026-05-02T14:22:09.757Z</time></trkpt><trkpt lat="44.0570779" lon="10.7814934"><ele>615.0</ele><time>2026-05-02T14:22:10.762Z</time></trkpt><trkpt lat="44.0571748" lon="10.7813715"><ele>615.0</ele><time>2026-05-02T14:22:11.756Z</time></trkpt><trkpt lat="44.0572606" lon="10.7812458"><ele>615.0</ele><time>2026-05-02T14:22:12.753Z</time></trkpt><trkpt lat="44.0573424" lon="10.7811159"><ele>615.8</ele><time>2026-05-02T14:22:13.754Z</time></trkpt><trkpt lat="44.0574134" lon="10.7809926"><ele>616.6</ele><time>2026-05-02T14:22:14.759Z</time></trkpt><trkpt lat="44.0574795" lon="10.7808769"><ele>617.4</ele><time>2026-05-02T14:22:15.756Z</time></trkpt><trkpt lat="44.0575408" lon="10.7807614"><ele>618.2</ele><time>2026-05-02T14:22:16.747Z</time></trkpt><trkpt lat="44.0575926" lon="10.7806425"><ele>619.0</ele><time>2026-05-02T14:22:17.76Z</time></trkpt><trkpt lat="44.0576258" lon="10.7805149"><ele>619.0</ele><time>2026-05-02T14:22:18.756Z</time></trkpt><trkpt lat="44.0575946" lon="10.7803726"><ele>619.0</ele><time>2026-05-02T14:22:19.74Z</time></trkpt><trkpt lat="44.0575773" lon="10.7802343"><ele>619.0</ele><time>2026-05-02T14:22:20.742Z</time></trkpt><trkpt lat="44.0575202" lon="10.7801138"><ele>619.0</ele><time>2026-05-02T14:22:21.74Z</time></trkpt><trkpt lat="44.0574523" lon="10.7800102"><ele>619.0</ele><time>2026-05-02T14:22:22.742Z</time></trkpt><trkpt lat="44.0573673" lon="10.7798981"><ele>613.6666666666667</ele><time>2026-05-02T14:22:23.768Z</time></trkpt><trkpt lat="44.0571953" lon="10.7797079"><ele>608.3333333333334</ele><time>2026-05-02T14:22:24.759Z</time></trkpt><trkpt lat="44.0570237" lon="10.7795259"><ele>603.0</ele><time>2026-05-02T14:22:25.745Z</time></trkpt><trkpt lat="44.0568647" lon="10.7793547"><ele>606.6666666666666</ele><time>2026-05-02T14:22:26.739Z</time></trkpt><trkpt lat="44.0567088" lon="10.7791752"><ele>610.3333333333333</ele><time>2026-05-02T14:22:27.76Z</time></trkpt><trkpt lat="44.0565733" lon="10.7789764"><ele>614.0</ele><time>2026-05-02T14:22:28.759Z</time></trkpt><trkpt lat="44.0564467" lon="10.7787791"><ele>608.3333333333333</ele><time>2026-05-02T14:22:29.76Z</time></trkpt><trkpt lat="44.0563373" lon="10.7785704"><ele>602.6666666666666</ele><time>2026-05-02T14:22:30.745Z</time></trkpt><trkpt lat="44.0562335" lon="10.7783729"><ele>597.0</ele><time>2026-05-02T14:22:31.742Z</time></trkpt><trkpt lat="44.0561315" lon="10.7781799"><ele>597.0</ele><time>2026-05-02T14:22:32.767Z</time></trkpt><trkpt lat="44.0560222" lon="10.7779958"><ele>597.0</ele><time>2026-05-02T14:22:33.758Z</time></trkpt><trkpt lat="44.0559076" lon="10.7778271"><ele>597.0</ele><time>2026-05-02T14:22:34.76Z</time></trkpt><trkpt lat="44.0557851" lon="10.7776586"><ele>589.3333333333334</ele><time>2026-05-02T14:22:35.76Z</time></trkpt><trkpt lat="44.0556629" lon="10.7774923"><ele>581.6666666666667</ele><time>2026-05-02T14:22:36.762Z</time></trkpt><trkpt lat="44.0555471" lon="10.7773321"><ele>574.0</ele><time>2026-05-02T14:22:37.757Z</time></trkpt><trkpt lat="44.055438" lon="10.7771719"><ele>574.0</ele><time>2026-05-02T14:22:38.767Z</time></trkpt><trkpt lat="44.0553293" lon="10.7770412"><ele>574.0</ele><time>2026-05-02T14:22:39.754Z</time></trkpt><trkpt lat="44.0552218" lon="10.7769034"><ele>574.0</ele><time>2026-05-02T14:22:40.764Z</time></trkpt><trkpt lat="44.0551256" lon="10.7767568"><ele>574.0</ele><time>2026-05-02T14:22:41.743Z</time></trkpt><trkpt lat="44.0550457" lon="10.776597"><ele>582.0</ele><time>2026-05-02T14:22:42.741Z</time></trkpt><trkpt lat="44.0549655" lon="10.7764056"><ele>590.0</ele><time>2026-05-02T14:22:43.753Z</time></trkpt><trkpt lat="44.0548901" lon="10.7762213"><ele>598.0</ele><time>2026-05-02T14:22:44.738Z</time></trkpt><trkpt lat="44.0548355" lon="10.7760371"><ele>588.0</ele><time>2026-05-02T14:22:45.742Z</time></trkpt><trkpt lat="44.0547793" lon="10.7758479"><ele>578.0</ele><time>2026-05-02T14:22:46.738Z</time></trkpt><trkpt lat="44.054725" lon="10.7756762"><ele>568.0</ele><time>2026-05-02T14:22:47.76Z</time></trkpt><trkpt lat="44.0546841" lon="10.7755317"><ele>558.0</ele><time>2026-05-02T14:22:48.758Z</time></trkpt><trkpt lat="44.0546793" lon="10.7753986"><ele>558.0</ele><time>2026-05-02T14:22:49.756Z</time></trkpt><trkpt lat="44.0547015" lon="10.7752974"><ele>558.0</ele><time>2026-05-02T14:22:50.777Z</time></trkpt><trkpt lat="44.0547575" lon="10.7752159"><ele>558.0</ele><time>2026-05-02T14:22:51.772Z</time></trkpt><trkpt lat="44.0548323" lon="10.7751751"><ele>558.0</ele><time>2026-05-02T14:22:52.757Z</time></trkpt><trkpt lat="44.0549344" lon="10.7751628"><ele>558.0</ele><time>2026-05-02T14:22:53.757Z</time></trkpt><trkpt lat="44.0550336" lon="10.7751848"><ele>558.0</ele><time>2026-05-02T14:22:54.759Z</time></trkpt><trkpt lat="44.0551538" lon="10.7752203"><ele>568.0</ele><time>2026-05-02T14:22:55.758Z</time></trkpt><trkpt lat="44.0552709" lon="10.7752601"><ele>578.0</ele><time>2026-05-02T14:22:56.733Z</time></trkpt><trkpt lat="44.0554315" lon="10.775264"><ele>588.0</ele><time>2026-05-02T14:22:57.742Z</time></trkpt><trkpt lat="44.0555963" lon="10.7752903"><ele>598.0</ele><time>2026-05-02T14:22:58.759Z</time></trkpt><trkpt lat="44.0557702" lon="10.7753152"><ele>600.3333333333334</ele><time>2026-05-02T14:22:59.738Z</time></trkpt><trkpt lat="44.055946" lon="10.7753351"><ele>602.6666666666666</ele><time>2026-05-02T14:23:00.74Z</time></trkpt><trkpt lat="44.0561294" lon="10.7753563"><ele>605.0</ele><time>2026-05-02T14:23:01.74Z</time></trkpt><trkpt lat="44.0563141" lon="10.7753644"><ele>605.0</ele><time>2026-05-02T14:23:02.743Z</time></trkpt><trkpt lat="44.0564979" lon="10.7753821"><ele>605.0</ele><time>2026-05-02T14:23:03.737Z</time></trkpt><trkpt lat="44.0566784" lon="10.7754072"><ele>605.0</ele><time>2026-05-02T14:23:04.746Z</time></trkpt><trkpt lat="44.0568637" lon="10.7754258"><ele>601.3333333333333</ele><time>2026-05-02T14:23:05.744Z</time></trkpt><trkpt lat="44.0570421" lon="10.7754433"><ele>597.6666666666666</ele><time>2026-05-02T14:23:06.746Z</time></trkpt><trkpt lat="44.057216" lon="10.7754734"><ele>594.0</ele><time>2026-05-02T14:23:07.737Z</time></trkpt><trkpt lat="44.0573721" lon="10.7755032"><ele>593.0</ele><time>2026-05-02T14:23:08.741Z</time></trkpt><trkpt lat="44.0575189" lon="10.7755178"><ele>592.0</ele><time>2026-05-02T14:23:09.74Z</time></trkpt><trkpt lat="44.0576326" lon="10.7754646"><ele>591.0</ele><time>2026-05-02T14:23:10.738Z</time></trkpt><trkpt lat="44.0577273" lon="10.7753743"><ele>590.0</ele><time>2026-05-02T14:23:11.745Z</time></trkpt><trkpt lat="44.0578048" lon="10.7752627"><ele>583.5</ele><time>2026-05-02T14:23:12.744Z</time></trkpt><trkpt lat="44.057845" lon="10.7751139"><ele>577.0</ele><time>2026-05-02T14:23:13.739Z</time></trkpt><trkpt lat="44.0578324" lon="10.774938"><ele>570.5</ele><time>2026-05-02T14:23:14.739Z</time></trkpt><trkpt lat="44.0578105" lon="10.7747598"><ele>564.0</ele><time>2026-05-02T14:23:15.736Z</time></trkpt><trkpt lat="44.0577817" lon="10.7745607"><ele>564.0</ele><time>2026-05-02T14:23:16.742Z</time></trkpt><trkpt lat="44.0577448" lon="10.7743666"><ele>564.0</ele><time>2026-05-02T14:23:17.741Z</time></trkpt><trkpt lat="44.057704" lon="10.7742006"><ele>564.0</ele><time>2026-05-02T14:23:18.736Z</time></trkpt><trkpt lat="44.0576503" lon="10.7740712"><ele>564.0</ele><time>2026-05-02T14:23:19.738Z</time></trkpt><trkpt lat="44.057573" lon="10.7739707"><ele>563.0</ele><time>2026-05-02T14:23:20.737Z</time></trkpt><trkpt lat="44.0574858" lon="10.7738897"><ele>562.0</ele><time>2026-05-02T14:23:21.738Z</time></trkpt><trkpt lat="44.057384" lon="10.7738825"><ele>561.0</ele><time>2026-05-02T14:23:22.738Z</time></trkpt><trkpt lat="44.0572795" lon="10.7739069"><ele>560.0</ele><time>2026-05-02T14:23:23.738Z</time></trkpt><trkpt lat="44.0571725" lon="10.7739911"><ele>559.0</ele><time>2026-05-02T14:23:24.738Z</time></trkpt><trkpt lat="44.057071" lon="10.7740471"><ele>557.8</ele><time>2026-05-02T14:23:25.737Z</time></trkpt><trkpt lat="44.0569652" lon="10.7741302"><ele>556.5999999999999</ele><time>2026-05-02T14:23:26.74Z</time></trkpt><trkpt lat="44.0568595" lon="10.7741536"><ele>555.4</ele><time>2026-05-02T14:23:27.737Z</time></trkpt><trkpt lat="44.0567558" lon="10.7741275"><ele>554.1999999999999</ele><time>2026-05-02T14:23:28.738Z</time></trkpt><trkpt lat="44.0566563" lon="10.7740491"><ele>553.0</ele><time>2026-05-02T14:23:29.742Z</time></trkpt><trkpt lat="44.0565576" lon="10.7739357"><ele>553.0</ele><time>2026-05-02T14:23:30.741Z</time></trkpt><trkpt lat="44.0564652" lon="10.7737767"><ele>553.0</ele><time>2026-05-02T14:23:31.746Z</time></trkpt><trkpt lat="44.0563826" lon="10.77361"><ele>553.0</ele><time>2026-05-02T14:23:32.743Z</time></trkpt><trkpt lat="44.0563198" lon="10.7734543"><ele>553.0</ele><time>2026-05-02T14:23:33.739Z</time></trkpt><trkpt lat="44.056282" lon="10.7733279"><ele>550.1999999999999</ele><time>2026-05-02T14:23:34.736Z</time></trkpt><trkpt lat="44.0562772" lon="10.7732042"><ele>547.4</ele><time>2026-05-02T14:23:35.736Z</time></trkpt><trkpt lat="44.0563072" lon="10.7730969"><ele>544.5999999999999</ele><time>2026-05-02T14:23:36.744Z</time></trkpt><trkpt lat="44.0563801" lon="10.7730079"><ele>541.8</ele><time>2026-05-02T14:23:37.735Z</time></trkpt><trkpt lat="44.0564808" lon="10.7729512"><ele>539.0</ele><time>2026-05-02T14:23:38.739Z</time></trkpt><trkpt lat="44.0565957" lon="10.7728967"><ele>539.5</ele><time>2026-05-02T14:23:39.737Z</time></trkpt><trkpt lat="44.0567206" lon="10.7728234"><ele>540.0</ele><time>2026-05-02T14:23:40.746Z</time></trkpt><trkpt lat="44.0568332" lon="10.7727263"><ele>540.5</ele><time>2026-05-02T14:23:41.738Z</time></trkpt><trkpt lat="44.0569153" lon="10.7726048"><ele>541.0</ele><time>2026-05-02T14:23:42.738Z</time></trkpt><trkpt lat="44.0569853" lon="10.7724494"><ele>536.6666666666667</ele><time>2026-05-02T14:23:43.737Z</time></trkpt><trkpt lat="44.0570582" lon="10.7722653"><ele>532.3333333333334</ele><time>2026-05-02T14:23:44.74Z</time></trkpt><trkpt lat="44.0571342" lon="10.7720738"><ele>528.0</ele><time>2026-05-02T14:23:45.735Z</time></trkpt><trkpt lat="44.0572273" lon="10.7718868"><ele>526.6666666666666</ele><time>2026-05-02T14:23:46.74Z</time></trkpt><trkpt lat="44.0573321" lon="10.7717194"><ele>525.3333333333333</ele><time>2026-05-02T14:23:47.741Z</time></trkpt><trkpt lat="44.0574374" lon="10.7715484"><ele>524.0</ele><time>2026-05-02T14:23:48.74Z</time></trkpt><trkpt lat="44.0575311" lon="10.7713908"><ele>524.0</ele><time>2026-05-02T14:23:49.738Z</time></trkpt><trkpt lat="44.0575915" lon="10.7712126"><ele>524.0</ele><time>2026-05-02T14:23:50.75Z</time></trkpt><trkpt lat="44.0576215" lon="10.7710313"><ele>524.0</ele><time>2026-05-02T14:23:51.741Z</time></trkpt><trkpt lat="44.0576426" lon="10.7708468"><ele>524.0</ele><time>2026-05-02T14:23:52.739Z</time></trkpt><trkpt lat="44.057687" lon="10.7706883"><ele>522.0</ele><time>2026-05-02T14:23:53.74Z</time></trkpt><trkpt lat="44.0577364" lon="10.7705533"><ele>520.0</ele><time>2026-05-02T14:23:54.738Z</time></trkpt><trkpt lat="44.0578194" lon="10.7704618"><ele>518.0</ele><time>2026-05-02T14:23:55.74Z</time></trkpt><trkpt lat="44.0579078" lon="10.7703962"><ele>516.0</ele><time>2026-05-02T14:23:56.743Z</time></trkpt><trkpt lat="44.0579976" lon="10.7703386"><ele>514.0</ele><time>2026-05-02T14:23:57.741Z</time></trkpt><trkpt lat="44.0580687" lon="10.7702565"><ele>511.6</ele><time>2026-05-02T14:23:58.737Z</time></trkpt><trkpt lat="44.0581403" lon="10.7701627"><ele>509.2</ele><time>2026-05-02T14:23:59.738Z</time></trkpt><trkpt lat="44.0581771" lon="10.770049"><ele>506.80000000000007</ele><time>2026-05-02T14:24:00.729Z</time></trkpt><trkpt lat="44.0581151" lon="10.7698689"><ele>504.40000000000003</ele><time>2026-05-02T14:24:01.742Z</time></trkpt><trkpt lat="44.0580706" lon="10.7697255"><ele>502.0</ele><time>2026-05-02T14:24:02.744Z</time></trkpt><trkpt lat="44.0580464" lon="10.7695744"><ele>502.0</ele><time>2026-05-02T14:24:03.736Z</time></trkpt><trkpt lat="44.058051" lon="10.7694133"><ele>502.00000000000006</ele><time>2026-05-02T14:24:04.738Z</time></trkpt><trkpt lat="44.0580552" lon="10.7692636"><ele>502.00000000000006</ele><time>2026-05-02T14:24:05.739Z</time></trkpt><trkpt lat="44.058079" lon="10.7691131"><ele>502.0</ele><time>2026-05-02T14:24:06.742Z</time></trkpt><trkpt lat="44.0581094" lon="10.7689768"><ele>502.0</ele><time>2026-05-02T14:24:07.74Z</time></trkpt><trkpt lat="44.0582667" lon="10.768899"><ele>503.5</ele><time>2026-05-02T14:24:08.741Z</time></trkpt><trkpt lat="44.0583834" lon="10.7687974"><ele>505.0</ele><time>2026-05-02T14:24:09.743Z</time></trkpt><trkpt lat="44.0584988" lon="10.7687354"><ele>506.5</ele><time>2026-05-02T14:24:10.742Z</time></trkpt><trkpt lat="44.0586262" lon="10.768635"><ele>508.0</ele><time>2026-05-02T14:24:11.737Z</time></trkpt><trkpt lat="44.0587415" lon="10.7685354"><ele>506.33333333333337</ele><time>2026-05-02T14:24:12.74Z</time></trkpt><trkpt lat="44.0588904" lon="10.7684075"><ele>504.66666666666663</ele><time>2026-05-02T14:24:13.745Z</time></trkpt><trkpt lat="44.0590384" lon="10.7682725"><ele>503.0</ele><time>2026-05-02T14:24:14.737Z</time></trkpt><trkpt lat="44.0591959" lon="10.7681352"><ele>503.0</ele><time>2026-05-02T14:24:15.742Z</time></trkpt><trkpt lat="44.0593329" lon="10.767999"><ele>503.0</ele><time>2026-05-02T14:24:16.738Z</time></trkpt><trkpt lat="44.0594689" lon="10.7679178"><ele>503.0</ele><time>2026-05-02T14:24:17.747Z</time></trkpt><trkpt lat="44.05959" lon="10.7678458"><ele>503.0</ele><time>2026-05-02T14:24:18.741Z</time></trkpt><trkpt lat="44.0597086" lon="10.7677882"><ele>503.0</ele><time>2026-05-02T14:24:19.74Z</time></trkpt><trkpt lat="44.0598743" lon="10.7678218"><ele>503.0</ele><time>2026-05-02T14:24:20.736Z</time></trkpt><trkpt lat="44.0600268" lon="10.7678212"><ele>503.0</ele><time>2026-05-02T14:24:21.74Z</time></trkpt><trkpt lat="44.0602148" lon="10.7678146"><ele>503.66666666666663</ele><time>2026-05-02T14:24:22.738Z</time></trkpt><trkpt lat="44.0604023" lon="10.7678869"><ele>504.33333333333337</ele><time>2026-05-02T14:24:23.737Z</time></trkpt><trkpt lat="44.0605919" lon="10.76794"><ele>505.0</ele><time>2026-05-02T14:24:24.74Z</time></trkpt><trkpt lat="44.0607716" lon="10.7680068"><ele>501.0</ele><time>2026-05-02T14:24:25.739Z</time></trkpt><trkpt lat="44.0608743" lon="10.7680722"><ele>497.0</ele><time>2026-05-02T14:24:26.737Z</time></trkpt><trkpt lat="44.0610261" lon="10.7681459"><ele>493.0</ele><time>2026-05-02T14:24:27.739Z</time></trkpt><trkpt lat="44.0611451" lon="10.768154"><ele>489.0</ele><time>2026-05-02T14:24:28.741Z</time></trkpt><trkpt lat="44.0612329" lon="10.768106"><ele>489.0</ele><time>2026-05-02T14:24:29.74Z</time></trkpt><trkpt lat="44.0613052" lon="10.7679162"><ele>489.0</ele><time>2026-05-02T14:24:30.744Z</time></trkpt><trkpt lat="44.0614057" lon="10.7677656"><ele>489.0</ele><time>2026-05-02T14:24:31.737Z</time></trkpt><trkpt lat="44.0615134" lon="10.7676143"><ele>484.33333333333337</ele><time>2026-05-02T14:24:32.738Z</time></trkpt><trkpt lat="44.0616264" lon="10.76746"><ele>479.6666666666667</ele><time>2026-05-02T14:24:33.741Z</time></trkpt><trkpt lat="44.0617335" lon="10.7672994"><ele>475.0</ele><time>2026-05-02T14:24:34.739Z</time></trkpt><trkpt lat="44.0618399" lon="10.7671233"><ele>475.0</ele><time>2026-05-02T14:24:35.737Z</time></trkpt><trkpt lat="44.0619073" lon="10.7669135"><ele>475.0</ele><time>2026-05-02T14:24:36.738Z</time></trkpt><trkpt lat="44.0620189" lon="10.7667149"><ele>475.0</ele><time>2026-05-02T14:24:37.742Z</time></trkpt><trkpt lat="44.0621213" lon="10.7665115"><ele>475.0</ele><time>2026-05-02T14:24:38.736Z</time></trkpt><trkpt lat="44.0622342" lon="10.7663486"><ele>475.0</ele><time>2026-05-02T14:24:39.738Z</time></trkpt><trkpt lat="44.0623319" lon="10.7662287"><ele>475.0</ele><time>2026-05-02T14:24:40.747Z</time></trkpt><trkpt lat="44.0624229" lon="10.766148"><ele>475.0</ele><time>2026-05-02T14:24:41.752Z</time></trkpt><trkpt lat="44.0624956" lon="10.7660869"><ele>475.0</ele><time>2026-05-02T14:24:42.737Z</time></trkpt><trkpt lat="44.0625269" lon="10.7660033"><ele>475.0</ele><time>2026-05-02T14:24:43.744Z</time></trkpt><trkpt lat="44.0626393" lon="10.7660018"><ele>475.0</ele><time>2026-05-02T14:24:44.744Z</time></trkpt><trkpt lat="44.0627172" lon="10.7662048"><ele>475.0</ele><time>2026-05-02T14:24:45.745Z</time></trkpt><trkpt lat="44.0627909" lon="10.7663531"><ele>475.0</ele><time>2026-05-02T14:24:46.738Z</time></trkpt><trkpt lat="44.0628507" lon="10.7665134"><ele>475.0</ele><time>2026-05-02T14:24:47.741Z</time></trkpt><trkpt lat="44.0629504" lon="10.7666847"><ele>475.0</ele><time>2026-05-02T14:24:48.742Z</time></trkpt><trkpt lat="44.0630562" lon="10.7668538"><ele>475.0</ele><time>2026-05-02T14:24:49.738Z</time></trkpt><trkpt lat="44.0631469" lon="10.7670031"><ele>475.5</ele><time>2026-05-02T14:24:50.739Z</time></trkpt><trkpt lat="44.0632319" lon="10.7671429"><ele>476.0</ele><time>2026-05-02T14:24:51.737Z</time></trkpt><trkpt lat="44.0633195" lon="10.7672563"><ele>476.5</ele><time>2026-05-02T14:24:52.736Z</time></trkpt><trkpt lat="44.0634128" lon="10.7673464"><ele>477.0</ele><time>2026-05-02T14:24:53.739Z</time></trkpt><trkpt lat="44.063492" lon="10.7674076"><ele>477.0</ele><time>2026-05-02T14:24:54.74Z</time></trkpt><trkpt lat="44.0635763" lon="10.767443"><ele>477.00000000000006</ele><time>2026-05-02T14:24:55.741Z</time></trkpt><trkpt lat="44.0636921" lon="10.7673954"><ele>477.00000000000006</ele><time>2026-05-02T14:24:56.735Z</time></trkpt><trkpt lat="44.063802" lon="10.7673443"><ele>477.0</ele><time>2026-05-02T14:24:57.741Z</time></trkpt><trkpt lat="44.0638858" lon="10.7672644"><ele>477.0</ele><time>2026-05-02T14:24:58.739Z</time></trkpt><trkpt lat="44.0639665" lon="10.7671941"><ele>477.0</ele><time>2026-05-02T14:24:59.735Z</time></trkpt><trkpt lat="44.0640209" lon="10.7671123"><ele>477.0</ele><time>2026-05-02T14:25:00.739Z</time></trkpt><trkpt lat="44.0640745" lon="10.7670384"><ele>477.0</ele><time>2026-05-02T14:25:01.75Z</time></trkpt><trkpt lat="44.0641199" lon="10.7669671"><ele>477.0</ele><time>2026-05-02T14:25:02.745Z</time></trkpt><trkpt lat="44.0641815" lon="10.7668588"><ele>477.0</ele><time>2026-05-02T14:25:04.743Z</time></trkpt><trkpt lat="44.0642148" lon="10.7667734"><ele>477.0</ele><time>2026-05-02T14:25:06.741Z</time></trkpt><trkpt lat="44.0642585" lon="10.7666945"><ele>472.8</ele><time>2026-05-02T14:25:08.74Z</time></trkpt><trkpt lat="44.0642962" lon="10.7665999"><ele>468.6</ele><time>2026-05-02T14:25:11.738Z</time></trkpt><trkpt lat="44.0642866" lon="10.7664645"><ele>464.40000000000003</ele><time>2026-05-02T14:25:14.74Z</time></trkpt><trkpt lat="44.0642479" lon="10.7663584"><ele>460.20000000000005</ele><time>2026-05-02T14:25:16.738Z</time></trkpt><trkpt lat="44.064199" lon="10.7662209"><ele>456.0</ele><time>2026-05-02T14:25:18.739Z</time></trkpt><trkpt lat="44.0641254" lon="10.7660509"><ele>454.6</ele><time>2026-05-02T14:25:20.738Z</time></trkpt><trkpt lat="44.0640892" lon="10.765953"><ele>453.20000000000005</ele><time>2026-05-02T14:25:21.74Z</time></trkpt><trkpt lat="44.0640217" lon="10.7658289"><ele>451.79999999999995</ele><time>2026-05-02T14:25:22.739Z</time></trkpt><trkpt lat="44.0639484" lon="10.7656968"><ele>450.4</ele><time>2026-05-02T14:25:23.738Z</time></trkpt><trkpt lat="44.0638671" lon="10.7655465"><ele>449.0</ele><time>2026-05-02T14:25:24.737Z</time></trkpt><trkpt lat="44.0637831" lon="10.7654127"><ele>449.0</ele><time>2026-05-02T14:25:25.733Z</time></trkpt><trkpt lat="44.0636585" lon="10.7653104"><ele>449.0</ele><time>2026-05-02T14:25:26.738Z</time></trkpt><trkpt lat="44.0635287" lon="10.7652216"><ele>449.0</ele><time>2026-05-02T14:25:27.74Z</time></trkpt><trkpt lat="44.0633996" lon="10.7651545"><ele>449.0</ele><time>2026-05-02T14:25:28.736Z</time></trkpt><trkpt lat="44.0632882" lon="10.7650766"><ele>456.5</ele><time>2026-05-02T14:25:29.747Z</time></trkpt><trkpt lat="44.0632069" lon="10.7649794"><ele>464.0</ele><time>2026-05-02T14:25:30.736Z</time></trkpt><trkpt lat="44.0631298" lon="10.764861"><ele>471.5</ele><time>2026-05-02T14:25:31.74Z</time></trkpt><trkpt lat="44.0630289" lon="10.7647729"><ele>479.0</ele><time>2026-05-02T14:25:32.739Z</time></trkpt><trkpt lat="44.0629038" lon="10.7647282"><ele>479.0</ele><time>2026-05-02T14:25:33.739Z</time></trkpt><trkpt lat="44.0627633" lon="10.7647094"><ele>479.0</ele><time>2026-05-02T14:25:34.741Z</time></trkpt><trkpt lat="44.0626116" lon="10.7646857"><ele>479.0</ele><time>2026-05-02T14:25:35.742Z</time></trkpt><trkpt lat="44.0624594" lon="10.7646614"><ele>479.0</ele><time>2026-05-02T14:25:36.743Z</time></trkpt><trkpt lat="44.0623054" lon="10.7646509"><ele>481.5</ele><time>2026-05-02T14:25:37.744Z</time></trkpt><trkpt lat="44.0621593" lon="10.7646528"><ele>484.0</ele><time>2026-05-02T14:25:38.743Z</time></trkpt><trkpt lat="44.0620146" lon="10.76469"><ele>486.5</ele><time>2026-05-02T14:25:39.74Z</time></trkpt><trkpt lat="44.0619102" lon="10.7647376"><ele>489.0</ele><time>2026-05-02T14:25:40.741Z</time></trkpt><trkpt lat="44.0618213" lon="10.7647869"><ele>489.0</ele><time>2026-05-02T14:25:41.739Z</time></trkpt><trkpt lat="44.0617614" lon="10.7648488"><ele>489.0</ele><time>2026-05-02T14:25:42.746Z</time></trkpt><trkpt lat="44.0616979" lon="10.7650128"><ele>489.0</ele><time>2026-05-02T14:25:43.74Z</time></trkpt><trkpt lat="44.0616294" lon="10.7651518"><ele>489.0</ele><time>2026-05-02T14:25:44.743Z</time></trkpt><trkpt lat="44.0614972" lon="10.7651638"><ele>482.25</ele><time>2026-05-02T14:25:45.74Z</time></trkpt><trkpt lat="44.0613958" lon="10.7652"><ele>475.5</ele><time>2026-05-02T14:25:46.737Z</time></trkpt><trkpt lat="44.0612542" lon="10.7652377"><ele>468.75</ele><time>2026-05-02T14:25:47.74Z</time></trkpt><trkpt lat="44.0611123" lon="10.7652362"><ele>462.0</ele><time>2026-05-02T14:25:48.741Z</time></trkpt><trkpt lat="44.0609693" lon="10.7652402"><ele>462.0</ele><time>2026-05-02T14:25:49.742Z</time></trkpt><trkpt lat="44.0608309" lon="10.7652391"><ele>462.0</ele><time>2026-05-02T14:25:50.739Z</time></trkpt><trkpt lat="44.0607446" lon="10.7651592"><ele>462.0</ele><time>2026-05-02T14:25:51.74Z</time></trkpt><trkpt lat="44.0606417" lon="10.7651037"><ele>462.0</ele><time>2026-05-02T14:25:52.741Z</time></trkpt><trkpt lat="44.0605586" lon="10.7649863"><ele>465.25</ele><time>2026-05-02T14:25:53.738Z</time></trkpt><trkpt lat="44.0604829" lon="10.7648399"><ele>468.5</ele><time>2026-05-02T14:25:54.741Z</time></trkpt><trkpt lat="44.0604303" lon="10.7646697"><ele>471.75</ele><time>2026-05-02T14:25:55.745Z</time></trkpt><trkpt lat="44.0603844" lon="10.7645156"><ele>475.0</ele><time>2026-05-02T14:25:56.741Z</time></trkpt><trkpt lat="44.0603353" lon="10.764397"><ele>479.8</ele><time>2026-05-02T14:25:57.74Z</time></trkpt><trkpt lat="44.0602782" lon="10.7643093"><ele>484.6</ele><time>2026-05-02T14:25:58.735Z</time></trkpt><trkpt lat="44.0601953" lon="10.7642755"><ele>489.4</ele><time>2026-05-02T14:25:59.738Z</time></trkpt><trkpt lat="44.0601167" lon="10.7642345"><ele>494.2</ele><time>2026-05-02T14:26:00.737Z</time></trkpt><trkpt lat="44.0600289" lon="10.7641958"><ele>499.0</ele><time>2026-05-02T14:26:01.731Z</time></trkpt><trkpt lat="44.0599141" lon="10.7642471"><ele>492.75</ele><time>2026-05-02T14:26:02.738Z</time></trkpt><trkpt lat="44.0597704" lon="10.7643865"><ele>486.5</ele><time>2026-05-02T14:26:03.738Z</time></trkpt><trkpt lat="44.0596561" lon="10.7644476"><ele>480.25</ele><time>2026-05-02T14:26:04.738Z</time></trkpt><trkpt lat="44.0595349" lon="10.764488"><ele>474.0</ele><time>2026-05-02T14:26:05.742Z</time></trkpt><trkpt lat="44.0594095" lon="10.764497"><ele>474.0</ele><time>2026-05-02T14:26:06.738Z</time></trkpt><trkpt lat="44.0593031" lon="10.764472"><ele>474.0</ele><time>2026-05-02T14:26:07.741Z</time></trkpt><trkpt lat="44.0592076" lon="10.7644538"><ele>474.0</ele><time>2026-05-02T14:26:08.741Z</time></trkpt><trkpt lat="44.0591299" lon="10.7644511"><ele>474.0</ele><time>2026-05-02T14:26:09.739Z</time></trkpt><trkpt lat="44.0590595" lon="10.7644493"><ele>474.0</ele><time>2026-05-02T14:26:11.739Z</time></trkpt><trkpt lat="44.0589809" lon="10.7644798"><ele>474.0</ele><time>2026-05-02T14:27:36.752Z</time></trkpt><trkpt lat="44.0588893" lon="10.7644324"><ele>472.6</ele><time>2026-05-02T14:27:37.764Z</time></trkpt><trkpt lat="44.0588002" lon="10.7643902"><ele>471.2</ele><time>2026-05-02T14:27:38.747Z</time></trkpt><trkpt lat="44.0587098" lon="10.7643034"><ele>469.80000000000007</ele><time>2026-05-02T14:27:39.738Z</time></trkpt><trkpt lat="44.0586353" lon="10.7642078"><ele>468.40000000000003</ele><time>2026-05-02T14:27:40.744Z</time></trkpt><trkpt lat="44.0585534" lon="10.7641456"><ele>467.0</ele><time>2026-05-02T14:27:41.748Z</time></trkpt><trkpt lat="44.0584415" lon="10.7641805"><ele>468.75</ele><time>2026-05-02T14:27:42.736Z</time></trkpt><trkpt lat="44.0583316" lon="10.7642179"><ele>470.5</ele><time>2026-05-02T14:27:43.748Z</time></trkpt><trkpt lat="44.0582073" lon="10.7642826"><ele>472.25</ele><time>2026-05-02T14:27:44.746Z</time></trkpt><trkpt lat="44.0580751" lon="10.7643385"><ele>474.0</ele><time>2026-05-02T14:27:45.744Z</time></trkpt><trkpt lat="44.0579297" lon="10.764365"><ele>478.0</ele><time>2026-05-02T14:27:46.741Z</time></trkpt><trkpt lat="44.0577868" lon="10.764356"><ele>482.0</ele><time>2026-05-02T14:27:47.743Z</time></trkpt><trkpt lat="44.0576473" lon="10.7643489"><ele>486.0</ele><time>2026-05-02T14:27:48.751Z</time></trkpt><trkpt lat="44.057515" lon="10.7643369"><ele>490.0</ele><time>2026-05-02T14:27:49.741Z</time></trkpt><trkpt lat="44.0574182" lon="10.7642413"><ele>490.0</ele><time>2026-05-02T14:27:50.751Z</time></trkpt><trkpt lat="44.0573021" lon="10.7641496"><ele>490.0</ele><time>2026-05-02T14:27:51.744Z</time></trkpt><trkpt lat="44.0571813" lon="10.7640627"><ele>490.0</ele><time>2026-05-02T14:27:52.739Z</time></trkpt><trkpt lat="44.0570734" lon="10.7639756"><ele>490.0</ele><time>2026-05-02T14:27:53.741Z</time></trkpt><trkpt lat="44.05695" lon="10.7639492"><ele>490.0</ele><time>2026-05-02T14:27:54.756Z</time></trkpt><trkpt lat="44.0568245" lon="10.7639687"><ele>490.0</ele><time>2026-05-02T14:27:55.742Z</time></trkpt><trkpt lat="44.0567385" lon="10.7640639"><ele>490.0</ele><time>2026-05-02T14:27:56.738Z</time></trkpt><trkpt lat="44.0566343" lon="10.7641378"><ele>490.0</ele><time>2026-05-02T14:27:57.745Z</time></trkpt><trkpt lat="44.0565472" lon="10.7641678"><ele>490.0</ele><time>2026-05-02T14:27:58.748Z</time></trkpt><trkpt lat="44.0564358" lon="10.7641935"><ele>489.0</ele><time>2026-05-02T14:27:59.743Z</time></trkpt><trkpt lat="44.0563218" lon="10.7642081"><ele>488.0</ele><time>2026-05-02T14:28:00.746Z</time></trkpt><trkpt lat="44.0562255" lon="10.7640195"><ele>487.0</ele><time>2026-05-02T14:28:01.752Z</time></trkpt><trkpt lat="44.0561036" lon="10.7639392"><ele>486.0</ele><time>2026-05-02T14:28:02.751Z</time></trkpt><trkpt lat="44.0559761" lon="10.7638929"><ele>486.0</ele><time>2026-05-02T14:28:03.754Z</time></trkpt><trkpt lat="44.0558454" lon="10.7638916"><ele>486.0</ele><time>2026-05-02T14:28:04.744Z</time></trkpt><trkpt lat="44.0557215" lon="10.7638942"><ele>486.0</ele><time>2026-05-02T14:28:05.754Z</time></trkpt><trkpt lat="44.0555365" lon="10.7640555"><ele>489.0</ele><time>2026-05-02T14:28:06.763Z</time></trkpt><trkpt lat="44.0553678" lon="10.7641545"><ele>492.0</ele><time>2026-05-02T14:28:07.747Z</time></trkpt><trkpt lat="44.0551841" lon="10.7642342"><ele>495.0</ele><time>2026-05-02T14:28:08.748Z</time></trkpt><trkpt lat="44.0549961" lon="10.7643244"><ele>484.33333333333337</ele><time>2026-05-02T14:28:09.745Z</time></trkpt><trkpt lat="44.0548121" lon="10.7644286"><ele>473.6666666666667</ele><time>2026-05-02T14:28:10.742Z</time></trkpt><trkpt lat="44.0546286" lon="10.7644898"><ele>463.0</ele><time>2026-05-02T14:28:11.743Z</time></trkpt><trkpt lat="44.0545059" lon="10.764474"><ele>463.0</ele><time>2026-05-02T14:28:12.743Z</time></trkpt><trkpt lat="44.0543374" lon="10.7644719"><ele>463.0</ele><time>2026-05-02T14:28:13.746Z</time></trkpt><trkpt lat="44.0541617" lon="10.7644253"><ele>463.0</ele><time>2026-05-02T14:28:14.748Z</time></trkpt><trkpt lat="44.0539849" lon="10.764418"><ele>461.6666666666667</ele><time>2026-05-02T14:28:15.747Z</time></trkpt><trkpt lat="44.0537951" lon="10.764422"><ele>460.33333333333337</ele><time>2026-05-02T14:28:16.747Z</time></trkpt><trkpt lat="44.0536056" lon="10.7644064"><ele>459.0</ele><time>2026-05-02T14:28:17.753Z</time></trkpt><trkpt lat="44.0534484" lon="10.7643545"><ele>467.33333333333337</ele><time>2026-05-02T14:28:18.743Z</time></trkpt><trkpt lat="44.0533042" lon="10.7642719"><ele>475.6666666666667</ele><time>2026-05-02T14:28:19.741Z</time></trkpt><trkpt lat="44.0531521" lon="10.7641838"><ele>484.0</ele><time>2026-05-02T14:28:20.745Z</time></trkpt><trkpt lat="44.0529816" lon="10.7640997"><ele>484.0</ele><time>2026-05-02T14:28:21.738Z</time></trkpt><trkpt lat="44.0527968" lon="10.7640198"><ele>484.0</ele><time>2026-05-02T14:28:22.749Z</time></trkpt><trkpt lat="44.0526078" lon="10.7639146"><ele>484.0</ele><time>2026-05-02T14:28:23.748Z</time></trkpt><trkpt lat="44.0524072" lon="10.7638096"><ele>479.33333333333337</ele><time>2026-05-02T14:28:24.762Z</time></trkpt><trkpt lat="44.0522037" lon="10.7637177"><ele>474.66666666666663</ele><time>2026-05-02T14:28:25.745Z</time></trkpt><trkpt lat="44.0519956" lon="10.7636312"><ele>470.0</ele><time>2026-05-02T14:28:26.747Z</time></trkpt><trkpt lat="44.0517859" lon="10.7635891"><ele>476.66666666666663</ele><time>2026-05-02T14:28:27.743Z</time></trkpt><trkpt lat="44.0515795" lon="10.763514"><ele>483.33333333333337</ele><time>2026-05-02T14:28:28.738Z</time></trkpt><trkpt lat="44.0514072" lon="10.7634233"><ele>490.0</ele><time>2026-05-02T14:28:29.749Z</time></trkpt><trkpt lat="44.0512351" lon="10.7633332"><ele>490.0</ele><time>2026-05-02T14:28:30.743Z</time></trkpt><trkpt lat="44.0511079" lon="10.7632902"><ele>490.0</ele><time>2026-05-02T14:28:31.74Z</time></trkpt><trkpt lat="44.0509913" lon="10.7632254"><ele>490.0</ele><time>2026-05-02T14:28:32.743Z</time></trkpt><trkpt lat="44.0509104" lon="10.7631419"><ele>490.0</ele><time>2026-05-02T14:28:33.748Z</time></trkpt><trkpt lat="44.0508409" lon="10.763027"><ele>487.33333333333337</ele><time>2026-05-02T14:28:34.745Z</time></trkpt><trkpt lat="44.0507785" lon="10.7628643"><ele>484.66666666666663</ele><time>2026-05-02T14:28:35.741Z</time></trkpt><trkpt lat="44.0507045" lon="10.7626877"><ele>482.0</ele><time>2026-05-02T14:28:36.745Z</time></trkpt><trkpt lat="44.0506186" lon="10.7624808"><ele>482.0</ele><time>2026-05-02T14:28:37.744Z</time></trkpt><trkpt lat="44.0505337" lon="10.762307"><ele>482.0</ele><time>2026-05-02T14:28:38.746Z</time></trkpt><trkpt lat="44.0504226" lon="10.7621509"><ele>482.0</ele><time>2026-05-02T14:28:39.744Z</time></trkpt><trkpt lat="44.0502806" lon="10.7620202"><ele>482.0</ele><time>2026-05-02T14:28:40.748Z</time></trkpt><trkpt lat="44.0501206" lon="10.761894"><ele>482.0</ele><time>2026-05-02T14:28:41.747Z</time></trkpt><trkpt lat="44.0499574" lon="10.7617489"><ele>482.0</ele><time>2026-05-02T14:28:42.748Z</time></trkpt><trkpt lat="44.0498066" lon="10.7616021"><ele>479.0</ele><time>2026-05-02T14:28:43.744Z</time></trkpt><trkpt lat="44.0496747" lon="10.7614666"><ele>476.0</ele><time>2026-05-02T14:28:44.748Z</time></trkpt><trkpt lat="44.0495681" lon="10.7613306"><ele>473.0</ele><time>2026-05-02T14:28:45.741Z</time></trkpt><trkpt lat="44.0494895" lon="10.7611906"><ele>470.0</ele><time>2026-05-02T14:28:46.757Z</time></trkpt><trkpt lat="44.0494273" lon="10.7610318"><ele>468.25</ele><time>2026-05-02T14:28:47.745Z</time></trkpt><trkpt lat="44.0493768" lon="10.7608533"><ele>466.5</ele><time>2026-05-02T14:28:48.743Z</time></trkpt><trkpt lat="44.0493097" lon="10.7607316"><ele>464.75</ele><time>2026-05-02T14:28:49.743Z</time></trkpt><trkpt lat="44.0491879" lon="10.7606276"><ele>463.0</ele><time>2026-05-02T14:28:50.744Z</time></trkpt><trkpt lat="44.0490377" lon="10.7605301"><ele>463.0</ele><time>2026-05-02T14:28:51.74Z</time></trkpt><trkpt lat="44.0488941" lon="10.7604349"><ele>463.0</ele><time>2026-05-02T14:28:52.739Z</time></trkpt><trkpt lat="44.048738" lon="10.7603431"><ele>463.0</ele><time>2026-05-02T14:28:53.741Z</time></trkpt><trkpt lat="44.0486058" lon="10.7602386"><ele>467.25</ele><time>2026-05-02T14:28:54.739Z</time></trkpt><trkpt lat="44.048493" lon="10.760131"><ele>471.5</ele><time>2026-05-02T14:28:55.742Z</time></trkpt><trkpt lat="44.048398" lon="10.7600004"><ele>475.75</ele><time>2026-05-02T14:28:56.741Z</time></trkpt><trkpt lat="44.0483174" lon="10.7598825"><ele>480.0</ele><time>2026-05-02T14:28:57.746Z</time></trkpt><trkpt lat="44.0482225" lon="10.7598052"><ele>480.0</ele><time>2026-05-02T14:28:58.738Z</time></trkpt><trkpt lat="44.0480907" lon="10.7597635"><ele>480.0</ele><time>2026-05-02T14:28:59.743Z</time></trkpt><trkpt lat="44.0479553" lon="10.7597078"><ele>480.0</ele><time>2026-05-02T14:29:00.746Z</time></trkpt><trkpt lat="44.0478191" lon="10.7595865"><ele>480.0</ele><time>2026-05-02T14:29:01.744Z</time></trkpt><trkpt lat="44.0476675" lon="10.7594709"><ele>480.0</ele><time>2026-05-02T14:29:02.744Z</time></trkpt><trkpt lat="44.047504" lon="10.759377"><ele>480.0</ele><time>2026-05-02T14:29:03.745Z</time></trkpt><trkpt lat="44.0473472" lon="10.7592881"><ele>480.0</ele><time>2026-05-02T14:29:04.746Z</time></trkpt><trkpt lat="44.0472191" lon="10.7591661"><ele>480.25</ele><time>2026-05-02T14:29:05.74Z</time></trkpt><trkpt lat="44.0470996" lon="10.7590655"><ele>480.5</ele><time>2026-05-02T14:29:06.748Z</time></trkpt><trkpt lat="44.0470276" lon="10.7589248"><ele>480.75</ele><time>2026-05-02T14:29:07.741Z</time></trkpt><trkpt lat="44.0469719" lon="10.7587411"><ele>481.0</ele><time>2026-05-02T14:29:08.745Z</time></trkpt><trkpt lat="44.0469268" lon="10.7585839"><ele>485.5</ele><time>2026-05-02T14:29:09.741Z</time></trkpt><trkpt lat="44.0468776" lon="10.758411"><ele>490.0</ele><time>2026-05-02T14:29:10.764Z</time></trkpt><trkpt lat="44.0468432" lon="10.7582232"><ele>494.5</ele><time>2026-05-02T14:29:11.743Z</time></trkpt><trkpt lat="44.0467933" lon="10.7580389"><ele>499.0</ele><time>2026-05-02T14:29:12.729Z</time></trkpt><trkpt lat="44.046788" lon="10.757797"><ele>502.25</ele><time>2026-05-02T14:29:13.744Z</time></trkpt><trkpt lat="44.0467556" lon="10.7575825"><ele>505.5</ele><time>2026-05-02T14:29:14.753Z</time></trkpt><trkpt lat="44.0467181" lon="10.7573786"><ele>508.75</ele><time>2026-05-02T14:29:15.736Z</time></trkpt><trkpt lat="44.0466524" lon="10.7572199"><ele>512.0</ele><time>2026-05-02T14:29:16.74Z</time></trkpt><trkpt lat="44.0465704" lon="10.7570882"><ele>504.0</ele><time>2026-05-02T14:29:17.753Z</time></trkpt><trkpt lat="44.0464795" lon="10.7569408"><ele>496.0</ele><time>2026-05-02T14:29:18.745Z</time></trkpt><trkpt lat="44.0464196" lon="10.7568148"><ele>488.0</ele><time>2026-05-02T14:29:19.737Z</time></trkpt><trkpt lat="44.0463653" lon="10.7566892"><ele>480.0</ele><time>2026-05-02T14:29:20.742Z</time></trkpt><trkpt lat="44.046379" lon="10.7564948"><ele>480.0</ele><time>2026-05-02T14:29:21.75Z</time></trkpt><trkpt lat="44.0463529" lon="10.7563162"><ele>480.0</ele><time>2026-05-02T14:29:22.744Z</time></trkpt><trkpt lat="44.0463279" lon="10.7561298"><ele>480.0</ele><time>2026-05-02T14:29:23.741Z</time></trkpt><trkpt lat="44.046293" lon="10.7559482"><ele>480.0</ele><time>2026-05-02T14:29:24.746Z</time></trkpt><trkpt lat="44.0462903" lon="10.7557572"><ele>486.5</ele><time>2026-05-02T14:29:25.741Z</time></trkpt><trkpt lat="44.0462636" lon="10.7555731"><ele>493.0</ele><time>2026-05-02T14:29:26.753Z</time></trkpt><trkpt lat="44.0462081" lon="10.7554201"><ele>499.5</ele><time>2026-05-02T14:29:27.756Z</time></trkpt><trkpt lat="44.0461272" lon="10.7552848"><ele>506.0</ele><time>2026-05-02T14:29:28.743Z</time></trkpt><trkpt lat="44.0460555" lon="10.7551517"><ele>507.25</ele><time>2026-05-02T14:29:29.748Z</time></trkpt><trkpt lat="44.0459877" lon="10.7550099"><ele>508.5</ele><time>2026-05-02T14:29:30.745Z</time></trkpt><trkpt lat="44.0459013" lon="10.7548654"><ele>509.75</ele><time>2026-05-02T14:29:31.744Z</time></trkpt><trkpt lat="44.0458213" lon="10.7547198"><ele>511.0</ele><time>2026-05-02T14:29:32.761Z</time></trkpt><trkpt lat="44.045751" lon="10.7545776"><ele>511.0</ele><time>2026-05-02T14:29:33.753Z</time></trkpt><trkpt lat="44.0456752" lon="10.7544266"><ele>511.0</ele><time>2026-05-02T14:29:34.747Z</time></trkpt><trkpt lat="44.0456203" lon="10.7542813"><ele>511.0</ele><time>2026-05-02T14:29:35.763Z</time></trkpt><trkpt lat="44.0455584" lon="10.7541529"><ele>511.0</ele><time>2026-05-02T14:29:36.752Z</time></trkpt><trkpt lat="44.0455006" lon="10.7540163"><ele>511.4</ele><time>2026-05-02T14:29:37.748Z</time></trkpt><trkpt lat="44.0454582" lon="10.7538832"><ele>511.8</ele><time>2026-05-02T14:29:38.743Z</time></trkpt><trkpt lat="44.0454262" lon="10.7537604"><ele>512.1999999999999</ele><time>2026-05-02T14:29:39.748Z</time></trkpt><trkpt lat="44.0453386" lon="10.7536531"><ele>512.6</ele><time>2026-05-02T14:29:40.763Z</time></trkpt><trkpt lat="44.0452657" lon="10.7535361"><ele>513.0</ele><time>2026-05-02T14:29:41.747Z</time></trkpt><trkpt lat="44.0451938" lon="10.7534273"><ele>514.4</ele><time>2026-05-02T14:29:42.746Z</time></trkpt><trkpt lat="44.0451241" lon="10.7533032"><ele>515.8</ele><time>2026-05-02T14:29:43.748Z</time></trkpt><trkpt lat="44.0450614" lon="10.7531833"><ele>517.2</ele><time>2026-05-02T14:29:44.743Z</time></trkpt><trkpt lat="44.0449955" lon="10.7530655"><ele>518.6</ele><time>2026-05-02T14:29:45.745Z</time></trkpt><trkpt lat="44.0449292" lon="10.7529286"><ele>520.0</ele><time>2026-05-02T14:29:46.738Z</time></trkpt><trkpt lat="44.0448709" lon="10.752798"><ele>517.25</ele><time>2026-05-02T14:29:47.743Z</time></trkpt><trkpt lat="44.0448195" lon="10.7526662"><ele>514.5</ele><time>2026-05-02T14:29:48.747Z</time></trkpt><trkpt lat="44.0447533" lon="10.7525444"><ele>511.75</ele><time>2026-05-02T14:29:49.752Z</time></trkpt><trkpt lat="44.0446857" lon="10.7524075"><ele>509.0</ele><time>2026-05-02T14:29:50.744Z</time></trkpt><trkpt lat="44.0446164" lon="10.7522706"><ele>509.0</ele><time>2026-05-02T14:29:51.743Z</time></trkpt><trkpt lat="44.044536" lon="10.7521438"><ele>509.0</ele><time>2026-05-02T14:29:52.742Z</time></trkpt><trkpt lat="44.0444615" lon="10.7520037"><ele>509.0</ele><time>2026-05-02T14:29:53.751Z</time></trkpt><trkpt lat="44.0443798" lon="10.7518897"><ele>509.0</ele><time>2026-05-02T14:29:54.741Z</time></trkpt><trkpt lat="44.0443051" lon="10.7517754"><ele>509.0</ele><time>2026-05-02T14:29:55.742Z</time></trkpt><trkpt lat="44.0442471" lon="10.7516552"><ele>509.0</ele><time>2026-05-02T14:29:56.73Z</time></trkpt><trkpt lat="44.0441341" lon="10.7516276"><ele>509.0</ele><time>2026-05-02T14:29:57.762Z</time></trkpt><trkpt lat="44.0440726" lon="10.7515404"><ele>509.0</ele><time>2026-05-02T14:29:58.747Z</time></trkpt><trkpt lat="44.0440087" lon="10.7514712"><ele>509.0</ele><time>2026-05-02T14:29:59.762Z</time></trkpt><trkpt lat="44.0438962" lon="10.7514982"><ele>509.0</ele><time>2026-05-02T14:30:00.744Z</time></trkpt><trkpt lat="44.0438196" lon="10.7514572"><ele>509.0</ele><time>2026-05-02T14:30:01.743Z</time></trkpt><trkpt lat="44.0437537" lon="10.7513156"><ele>509.0</ele><time>2026-05-02T14:30:03.763Z</time></trkpt><trkpt lat="44.0437871" lon="10.7511382"><ele>509.0</ele><time>2026-05-02T14:30:05.743Z</time></trkpt><trkpt lat="44.0438766" lon="10.7511208"><ele>509.0</ele><time>2026-05-02T14:30:06.744Z</time></trkpt><trkpt lat="44.0439561" lon="10.7511257"><ele>509.0</ele><time>2026-05-02T14:30:07.747Z</time></trkpt><trkpt lat="44.044042" lon="10.7511397"><ele>509.0</ele><time>2026-05-02T14:30:08.744Z</time></trkpt><trkpt lat="44.0441345" lon="10.751146"><ele>509.0</ele><time>2026-05-02T14:30:09.751Z</time></trkpt><trkpt lat="44.0442435" lon="10.7511492"><ele>509.0</ele><time>2026-05-02T14:30:10.743Z</time></trkpt><trkpt lat="44.0443493" lon="10.7510864"><ele>509.0</ele><time>2026-05-02T14:30:11.742Z</time></trkpt><trkpt lat="44.0444446" lon="10.751056"><ele>507.66666666666663</ele><time>2026-05-02T14:30:12.738Z</time></trkpt><trkpt lat="44.0445422" lon="10.7510364"><ele>506.33333333333337</ele><time>2026-05-02T14:30:13.729Z</time></trkpt><trkpt lat="44.0446646" lon="10.7507777"><ele>505.0</ele><time>2026-05-02T14:30:14.746Z</time></trkpt><trkpt lat="44.0447837" lon="10.7506861"><ele>505.0</ele><time>2026-05-02T14:30:15.745Z</time></trkpt><trkpt lat="44.0448757" lon="10.750585"><ele>505.0</ele><time>2026-05-02T14:30:16.749Z</time></trkpt><trkpt lat="44.044962" lon="10.7505083"><ele>505.0</ele><time>2026-05-02T14:30:17.745Z</time></trkpt><trkpt lat="44.0450804" lon="10.7504923"><ele>505.0</ele><time>2026-05-02T14:30:18.747Z</time></trkpt><trkpt lat="44.045205" lon="10.7504419"><ele>510.0</ele><time>2026-05-02T14:30:19.737Z</time></trkpt><trkpt lat="44.0453401" lon="10.750412"><ele>515.0</ele><time>2026-05-02T14:30:20.751Z</time></trkpt><trkpt lat="44.0454664" lon="10.7503759"><ele>520.0</ele><time>2026-05-02T14:30:21.746Z</time></trkpt><trkpt lat="44.045564" lon="10.7503157"><ele>525.0</ele><time>2026-05-02T14:30:22.748Z</time></trkpt><trkpt lat="44.0456353" lon="10.7502881"><ele>530.0</ele><time>2026-05-02T14:30:23.74Z</time></trkpt><trkpt lat="44.0457121" lon="10.7502441"><ele>524.5</ele><time>2026-05-02T14:30:24.748Z</time></trkpt><trkpt lat="44.0457856" lon="10.7501035"><ele>519.0</ele><time>2026-05-02T14:30:26.761Z</time></trkpt><trkpt lat="44.045762" lon="10.7500002"><ele>513.5</ele><time>2026-05-02T14:30:27.744Z</time></trkpt><trkpt lat="44.0456953" lon="10.7498983"><ele>508.0</ele><time>2026-05-02T14:30:28.741Z</time></trkpt><trkpt lat="44.0454376" lon="10.7498392"><ele>508.0</ele><time>2026-05-02T14:30:29.763Z</time></trkpt><trkpt lat="44.0452916" lon="10.7497843"><ele>508.0</ele><time>2026-05-02T14:30:30.744Z</time></trkpt><trkpt lat="44.0451171" lon="10.749723"><ele>508.0</ele><time>2026-05-02T14:30:31.766Z</time></trkpt><trkpt lat="44.044949" lon="10.7496632"><ele>502.33333333333337</ele><time>2026-05-02T14:30:32.745Z</time></trkpt><trkpt lat="44.0447815" lon="10.7495853"><ele>496.66666666666663</ele><time>2026-05-02T14:30:33.74Z</time></trkpt><trkpt lat="44.0446091" lon="10.7494751"><ele>491.0</ele><time>2026-05-02T14:30:34.741Z</time></trkpt><trkpt lat="44.0444557" lon="10.7494031"><ele>491.0</ele><time>2026-05-02T14:30:35.741Z</time></trkpt><trkpt lat="44.0443139" lon="10.7493767"><ele>491.0</ele><time>2026-05-02T14:30:36.748Z</time></trkpt><trkpt lat="44.0441656" lon="10.7493966"><ele>491.0</ele><time>2026-05-02T14:30:37.741Z</time></trkpt><trkpt lat="44.0440073" lon="10.7494695"><ele>487.66666666666663</ele><time>2026-05-02T14:30:38.744Z</time></trkpt><trkpt lat="44.0438583" lon="10.7495299"><ele>484.33333333333337</ele><time>2026-05-02T14:30:39.746Z</time></trkpt><trkpt lat="44.0437175" lon="10.7495899"><ele>481.0</ele><time>2026-05-02T14:30:40.729Z</time></trkpt><trkpt lat="44.0435594" lon="10.7496087"><ele>481.0</ele><time>2026-05-02T14:30:41.768Z</time></trkpt><trkpt lat="44.043403" lon="10.749631"><ele>481.0</ele><time>2026-05-02T14:30:42.748Z</time></trkpt><trkpt lat="44.0432351" lon="10.7496396"><ele>481.0</ele><time>2026-05-02T14:30:43.737Z</time></trkpt><trkpt lat="44.0430944" lon="10.7495507"><ele>483.6666666666667</ele><time>2026-05-02T14:30:44.739Z</time></trkpt><trkpt lat="44.0429418" lon="10.749471"><ele>486.33333333333337</ele><time>2026-05-02T14:30:45.748Z</time></trkpt><trkpt lat="44.0427883" lon="10.749354"><ele>489.0</ele><time>2026-05-02T14:30:46.743Z</time></trkpt><trkpt lat="44.0426235" lon="10.749268"><ele>489.0</ele><time>2026-05-02T14:30:47.748Z</time></trkpt><trkpt lat="44.0424649" lon="10.7491724"><ele>489.0</ele><time>2026-05-02T14:30:48.741Z</time></trkpt><trkpt lat="44.0423031" lon="10.7490567"><ele>489.0</ele><time>2026-05-02T14:30:49.752Z</time></trkpt><trkpt lat="44.0421564" lon="10.7489085"><ele>491.0</ele><time>2026-05-02T14:30:50.745Z</time></trkpt><trkpt lat="44.0419951" lon="10.7487615"><ele>493.0</ele><time>2026-05-02T14:30:51.749Z</time></trkpt><trkpt lat="44.0418297" lon="10.748622"><ele>495.0</ele><time>2026-05-02T14:30:52.745Z</time></trkpt><trkpt lat="44.041646" lon="10.7485061"><ele>485.66666666666663</ele><time>2026-05-02T14:30:53.743Z</time></trkpt><trkpt lat="44.0414679" lon="10.7483959"><ele>476.3333333333333</ele><time>2026-05-02T14:30:54.742Z</time></trkpt><trkpt lat="44.0412743" lon="10.7482854"><ele>467.0</ele><time>2026-05-02T14:30:55.742Z</time></trkpt><trkpt lat="44.0410857" lon="10.7481932"><ele>467.0</ele><time>2026-05-02T14:30:56.737Z</time></trkpt><trkpt lat="44.0409088" lon="10.7480906"><ele>467.0</ele><time>2026-05-02T14:30:57.741Z</time></trkpt><trkpt lat="44.0407321" lon="10.7479906"><ele>467.0</ele><time>2026-05-02T14:30:58.753Z</time></trkpt><trkpt lat="44.0405719" lon="10.7478832"><ele>465.5</ele><time>2026-05-02T14:30:59.742Z</time></trkpt><trkpt lat="44.0404206" lon="10.7477786"><ele>464.0</ele><time>2026-05-02T14:31:00.752Z</time></trkpt><trkpt lat="44.0402883" lon="10.7476786"><ele>462.5</ele><time>2026-05-02T14:31:01.744Z</time></trkpt><trkpt lat="44.0401777" lon="10.7475854"><ele>461.0</ele><time>2026-05-02T14:31:02.746Z</time></trkpt><trkpt lat="44.0400878" lon="10.7474769"><ele>461.0</ele><time>2026-05-02T14:31:03.748Z</time></trkpt><trkpt lat="44.0400191" lon="10.7473862"><ele>461.0</ele><time>2026-05-02T14:31:04.748Z</time></trkpt><trkpt lat="44.0399727" lon="10.7472395"><ele>461.0</ele><time>2026-05-02T14:31:05.744Z</time></trkpt><trkpt lat="44.0399682" lon="10.7470866"><ele>461.0</ele><time>2026-05-02T14:31:06.741Z</time></trkpt><trkpt lat="44.0399872" lon="10.7468971"><ele>461.3333333333333</ele><time>2026-05-02T14:31:07.751Z</time></trkpt><trkpt lat="44.040014" lon="10.7466888"><ele>461.66666666666663</ele><time>2026-05-02T14:31:08.743Z</time></trkpt><trkpt lat="44.0400442" lon="10.7464784"><ele>462.0</ele><time>2026-05-02T14:31:09.745Z</time></trkpt><trkpt lat="44.040052" lon="10.7462682"><ele>462.0</ele><time>2026-05-02T14:31:10.751Z</time></trkpt><trkpt lat="44.0400341" lon="10.7460713"><ele>462.0</ele><time>2026-05-02T14:31:11.742Z</time></trkpt><trkpt lat="44.0399734" lon="10.7458432"><ele>462.0</ele><time>2026-05-02T14:31:12.744Z</time></trkpt><trkpt lat="44.0399018" lon="10.7456231"><ele>450.66666666666663</ele><time>2026-05-02T14:31:13.741Z</time></trkpt><trkpt lat="44.0398325" lon="10.7454178"><ele>439.3333333333333</ele><time>2026-05-02T14:31:14.746Z</time></trkpt><trkpt lat="44.0398009" lon="10.7452206"><ele>428.0</ele><time>2026-05-02T14:31:15.742Z</time></trkpt><trkpt lat="44.0397687" lon="10.7450133"><ele>427.3333333333333</ele><time>2026-05-02T14:31:16.741Z</time></trkpt><trkpt lat="44.0397909" lon="10.7447766"><ele>426.66666666666663</ele><time>2026-05-02T14:31:17.743Z</time></trkpt><trkpt lat="44.0397935" lon="10.7445397"><ele>426.0</ele><time>2026-05-02T14:31:18.766Z</time></trkpt><trkpt lat="44.039785" lon="10.7443"><ele>420.66666666666663</ele><time>2026-05-02T14:31:19.741Z</time></trkpt><trkpt lat="44.0397968" lon="10.7440647"><ele>415.3333333333333</ele><time>2026-05-02T14:31:20.741Z</time></trkpt><trkpt lat="44.0398247" lon="10.7438277"><ele>410.0</ele><time>2026-05-02T14:31:21.741Z</time></trkpt><trkpt lat="44.0398551" lon="10.7435672"><ele>403.0</ele><time>2026-05-02T14:31:22.745Z</time></trkpt><trkpt lat="44.0398831" lon="10.7433038"><ele>396.0</ele><time>2026-05-02T14:31:23.749Z</time></trkpt><trkpt lat="44.0399206" lon="10.7430636"><ele>389.0</ele><time>2026-05-02T14:31:24.748Z</time></trkpt><trkpt lat="44.0399513" lon="10.7428152"><ele>398.75</ele><time>2026-05-02T14:31:25.75Z</time></trkpt><trkpt lat="44.0399957" lon="10.7425939"><ele>408.5</ele><time>2026-05-02T14:31:26.747Z</time></trkpt><trkpt lat="44.0400313" lon="10.7423906"><ele>418.25</ele><time>2026-05-02T14:31:27.744Z</time></trkpt><trkpt lat="44.0400661" lon="10.7422162"><ele>428.0</ele><time>2026-05-02T14:31:28.742Z</time></trkpt><trkpt lat="44.0401217" lon="10.7420476"><ele>428.0</ele><time>2026-05-02T14:31:29.748Z</time></trkpt><trkpt lat="44.040194" lon="10.7418928"><ele>428.0</ele><time>2026-05-02T14:31:30.744Z</time></trkpt><trkpt lat="44.0402714" lon="10.741742"><ele>428.0</ele><time>2026-05-02T14:31:31.746Z</time></trkpt><trkpt lat="44.0403755" lon="10.7416481"><ele>428.0</ele><time>2026-05-02T14:31:32.742Z</time></trkpt><trkpt lat="44.0404499" lon="10.7415275"><ele>423.2</ele><time>2026-05-02T14:31:33.74Z</time></trkpt><trkpt lat="44.0405042" lon="10.7414523"><ele>418.4</ele><time>2026-05-02T14:31:34.754Z</time></trkpt><trkpt lat="44.0405321" lon="10.7413278"><ele>413.59999999999997</ele><time>2026-05-02T14:31:35.745Z</time></trkpt><trkpt lat="44.0405462" lon="10.7412037"><ele>408.79999999999995</ele><time>2026-05-02T14:31:36.741Z</time></trkpt><trkpt lat="44.040499" lon="10.7410868"><ele>404.0</ele><time>2026-05-02T14:31:37.74Z</time></trkpt><trkpt lat="44.0404573" lon="10.7409389"><ele>403.25</ele><time>2026-05-02T14:31:38.742Z</time></trkpt><trkpt lat="44.0404157" lon="10.740766"><ele>402.5</ele><time>2026-05-02T14:31:39.741Z</time></trkpt><trkpt lat="44.0404432" lon="10.7405813"><ele>401.75</ele><time>2026-05-02T14:31:40.747Z</time></trkpt><trkpt lat="44.0404897" lon="10.7403633"><ele>401.0</ele><time>2026-05-02T14:31:41.742Z</time></trkpt><trkpt lat="44.0405209" lon="10.7401244"><ele>399.0</ele><time>2026-05-02T14:31:42.74Z</time></trkpt><trkpt lat="44.0405576" lon="10.7398699"><ele>397.0</ele><time>2026-05-02T14:31:43.745Z</time></trkpt><trkpt lat="44.0405905" lon="10.7396307"><ele>395.0</ele><time>2026-05-02T14:31:44.739Z</time></trkpt><trkpt lat="44.0406455" lon="10.7394352"><ele>393.25</ele><time>2026-05-02T14:31:45.74Z</time></trkpt><trkpt lat="44.0406884" lon="10.7392391"><ele>391.5</ele><time>2026-05-02T14:31:46.753Z</time></trkpt><trkpt lat="44.0407204" lon="10.7390654"><ele>389.75</ele><time>2026-05-02T14:31:47.739Z</time></trkpt><trkpt lat="44.0407608" lon="10.7389145"><ele>388.0</ele><time>2026-05-02T14:31:48.74Z</time></trkpt><trkpt lat="44.0408082" lon="10.7387792"><ele>387.59999999999997</ele><time>2026-05-02T14:31:49.744Z</time></trkpt><trkpt lat="44.0408296" lon="10.7386434"><ele>387.2</ele><time>2026-05-02T14:31:50.743Z</time></trkpt><trkpt lat="44.0408191" lon="10.7385084"><ele>386.8</ele><time>2026-05-02T14:31:51.744Z</time></trkpt><trkpt lat="44.0408013" lon="10.7383792"><ele>386.4</ele><time>2026-05-02T14:31:52.74Z</time></trkpt><trkpt lat="44.0407847" lon="10.738255"><ele>386.0</ele><time>2026-05-02T14:31:53.741Z</time></trkpt><trkpt lat="44.0407737" lon="10.7381355"><ele>386.00000000000006</ele><time>2026-05-02T14:31:54.742Z</time></trkpt><trkpt lat="44.0407858" lon="10.7380265"><ele>386.0</ele><time>2026-05-02T14:31:55.74Z</time></trkpt><trkpt lat="44.0408068" lon="10.7379294"><ele>386.0</ele><time>2026-05-02T14:31:56.74Z</time></trkpt><trkpt lat="44.040832" lon="10.7378365"><ele>386.0</ele><time>2026-05-02T14:31:57.731Z</time></trkpt><trkpt lat="44.040866" lon="10.7377559"><ele>386.0</ele><time>2026-05-02T14:31:58.753Z</time></trkpt><trkpt lat="44.0408976" lon="10.7376637"><ele>386.00000000000006</ele><time>2026-05-02T14:31:59.744Z</time></trkpt><trkpt lat="44.0409073" lon="10.7375748"><ele>386.0</ele><time>2026-05-02T14:32:00.744Z</time></trkpt><trkpt lat="44.0408828" lon="10.7374779"><ele>385.6</ele><time>2026-05-02T14:32:01.748Z</time></trkpt><trkpt lat="44.0408194" lon="10.7373143"><ele>385.20000000000005</ele><time>2026-05-02T14:32:03.742Z</time></trkpt><trkpt lat="44.0407445" lon="10.7371566"><ele>384.79999999999995</ele><time>2026-05-02T14:32:05.736Z</time></trkpt><trkpt lat="44.0407463" lon="10.7370654"><ele>384.4</ele><time>2026-05-02T14:32:06.742Z</time></trkpt><trkpt lat="44.0407489" lon="10.7369615"><ele>384.0</ele><time>2026-05-02T14:32:07.745Z</time></trkpt><trkpt lat="44.0407663" lon="10.7368418"><ele>383.5</ele><time>2026-05-02T14:32:08.743Z</time></trkpt><trkpt lat="44.0407906" lon="10.7367218"><ele>383.0</ele><time>2026-05-02T14:32:09.747Z</time></trkpt><trkpt lat="44.0408076" lon="10.736606"><ele>382.5</ele><time>2026-05-02T14:32:10.744Z</time></trkpt><trkpt lat="44.0408054" lon="10.7364925"><ele>382.0</ele><time>2026-05-02T14:32:11.746Z</time></trkpt><trkpt lat="44.0407933" lon="10.7363816"><ele>381.5</ele><time>2026-05-02T14:32:12.75Z</time></trkpt><trkpt lat="44.040783" lon="10.7362515"><ele>381.0</ele><time>2026-05-02T14:32:13.748Z</time></trkpt><trkpt lat="44.0407786" lon="10.7361249"><ele>380.1666666666667</ele><time>2026-05-02T14:32:14.746Z</time></trkpt><trkpt lat="44.040789" lon="10.7360043"><ele>379.3333333333333</ele><time>2026-05-02T14:32:15.743Z</time></trkpt><trkpt lat="44.0408109" lon="10.7358741"><ele>378.5</ele><time>2026-05-02T14:32:16.744Z</time></trkpt><trkpt lat="44.0408354" lon="10.735751"><ele>377.66666666666663</ele><time>2026-05-02T14:32:17.748Z</time></trkpt><trkpt lat="44.0408533" lon="10.735639"><ele>376.8333333333333</ele><time>2026-05-02T14:32:18.743Z</time></trkpt><trkpt lat="44.0408455" lon="10.7355314"><ele>376.0</ele><time>2026-05-02T14:32:19.747Z</time></trkpt><trkpt lat="44.0408208" lon="10.7354382"><ele>376.0</ele><time>2026-05-02T14:32:20.747Z</time></trkpt><trkpt lat="44.040778" lon="10.7353362"><ele>376.0</ele><time>2026-05-02T14:32:21.745Z</time></trkpt><trkpt lat="44.0407558" lon="10.7352179"><ele>376.0</ele><time>2026-05-02T14:32:22.743Z</time></trkpt><trkpt lat="44.0407344" lon="10.7351031"><ele>376.0</ele><time>2026-05-02T14:32:23.742Z</time></trkpt><trkpt lat="44.0407111" lon="10.7349742"><ele>376.0</ele><time>2026-05-02T14:32:24.751Z</time></trkpt><trkpt lat="44.0406862" lon="10.7348489"><ele>376.0</ele><time>2026-05-02T14:32:25.748Z</time></trkpt><trkpt lat="44.0406708" lon="10.7347277"><ele>376.0</ele><time>2026-05-02T14:32:26.741Z</time></trkpt><trkpt lat="44.0406715" lon="10.7345909"><ele>376.0</ele><time>2026-05-02T14:32:27.742Z</time></trkpt><trkpt lat="44.0407013" lon="10.7344633"><ele>376.0</ele><time>2026-05-02T14:32:28.744Z</time></trkpt><trkpt lat="44.0407408" lon="10.7343416"><ele>376.0</ele><time>2026-05-02T14:32:29.751Z</time></trkpt><trkpt lat="44.0408011" lon="10.7342312"><ele>376.0</ele><time>2026-05-02T14:32:30.747Z</time></trkpt><trkpt lat="44.040861" lon="10.7341419"><ele>380.66666666666663</ele><time>2026-05-02T14:32:31.743Z</time></trkpt><trkpt lat="44.0409253" lon="10.7340604"><ele>385.3333333333333</ele><time>2026-05-02T14:32:32.743Z</time></trkpt><trkpt lat="44.0409862" lon="10.7339953"><ele>390.0</ele><time>2026-05-02T14:32:33.745Z</time></trkpt><trkpt lat="44.0410255" lon="10.7339098"><ele>394.66666666666663</ele><time>2026-05-02T14:32:34.743Z</time></trkpt><trkpt lat="44.041047" lon="10.7338092"><ele>399.3333333333333</ele><time>2026-05-02T14:32:35.748Z</time></trkpt><trkpt lat="44.0410337" lon="10.7336813"><ele>404.0</ele><time>2026-05-02T14:32:36.744Z</time></trkpt><trkpt lat="44.0409923" lon="10.7335177"><ele>404.0</ele><time>2026-05-02T14:32:37.76Z</time></trkpt><trkpt lat="44.0409136" lon="10.7333073"><ele>404.0</ele><time>2026-05-02T14:32:38.743Z</time></trkpt><trkpt lat="44.0408303" lon="10.7330725"><ele>404.0</ele><time>2026-05-02T14:32:39.747Z</time></trkpt><trkpt lat="44.0407474" lon="10.7328599"><ele>393.3333333333333</ele><time>2026-05-02T14:32:40.745Z</time></trkpt><trkpt lat="44.0406716" lon="10.7326521"><ele>382.66666666666663</ele><time>2026-05-02T14:32:41.751Z</time></trkpt><trkpt lat="44.0406225" lon="10.7324422"><ele>372.0</ele><time>2026-05-02T14:32:42.742Z</time></trkpt><trkpt lat="44.0405825" lon="10.7322423"><ele>372.0</ele><time>2026-05-02T14:32:43.742Z</time></trkpt><trkpt lat="44.0405555" lon="10.7320619"><ele>372.0</ele><time>2026-05-02T14:32:44.748Z</time></trkpt><trkpt lat="44.0405707" lon="10.7318533"><ele>372.0</ele><time>2026-05-02T14:32:45.735Z</time></trkpt><trkpt lat="44.0406168" lon="10.7316748"><ele>372.0</ele><time>2026-05-02T14:32:46.755Z</time></trkpt><trkpt lat="44.0406199" lon="10.7315057"><ele>371.75</ele><time>2026-05-02T14:32:47.744Z</time></trkpt><trkpt lat="44.0406051" lon="10.7313458"><ele>371.5</ele><time>2026-05-02T14:32:48.747Z</time></trkpt><trkpt lat="44.0405099" lon="10.7311838"><ele>371.25</ele><time>2026-05-02T14:32:49.743Z</time></trkpt><trkpt lat="44.0404105" lon="10.7310134"><ele>371.0</ele><time>2026-05-02T14:32:50.747Z</time></trkpt><trkpt lat="44.0403039" lon="10.730832"><ele>372.6666666666667</ele><time>2026-05-02T14:32:51.748Z</time></trkpt><trkpt lat="44.0402019" lon="10.7306366"><ele>374.3333333333333</ele><time>2026-05-02T14:32:52.747Z</time></trkpt><trkpt lat="44.0401235" lon="10.7304492"><ele>376.0</ele><time>2026-05-02T14:32:53.76Z</time></trkpt><trkpt lat="44.0400518" lon="10.7302537"><ele>378.5</ele><time>2026-05-02T14:32:54.741Z</time></trkpt><trkpt lat="44.0399962" lon="10.7300617"><ele>381.0</ele><time>2026-05-02T14:32:55.743Z</time></trkpt><trkpt lat="44.0399564" lon="10.7298752"><ele>383.5</ele><time>2026-05-02T14:32:56.743Z</time></trkpt><trkpt lat="44.0399389" lon="10.7296963"><ele>386.0</ele><time>2026-05-02T14:32:57.737Z</time></trkpt><trkpt lat="44.0399212" lon="10.7295198"><ele>379.25</ele><time>2026-05-02T14:32:58.746Z</time></trkpt><trkpt lat="44.0399255" lon="10.729335"><ele>372.5</ele><time>2026-05-02T14:32:59.745Z</time></trkpt><trkpt lat="44.0399429" lon="10.7291383"><ele>365.75</ele><time>2026-05-02T14:33:00.741Z</time></trkpt><trkpt lat="44.0399501" lon="10.7289366"><ele>359.0</ele><time>2026-05-02T14:33:01.75Z</time></trkpt><trkpt lat="44.0399568" lon="10.7287197"><ele>359.0</ele><time>2026-05-02T14:33:02.75Z</time></trkpt><trkpt lat="44.0399628" lon="10.7285067"><ele>359.0</ele><time>2026-05-02T14:33:03.745Z</time></trkpt><trkpt lat="44.0399706" lon="10.7282928"><ele>359.0</ele><time>2026-05-02T14:33:04.746Z</time></trkpt><trkpt lat="44.039984" lon="10.7280872"><ele>364.33333333333337</ele><time>2026-05-02T14:33:05.743Z</time></trkpt><trkpt lat="44.0400089" lon="10.7278896"><ele>369.6666666666667</ele><time>2026-05-02T14:33:06.768Z</time></trkpt><trkpt lat="44.0400362" lon="10.7276909"><ele>375.0</ele><time>2026-05-02T14:33:07.743Z</time></trkpt><trkpt lat="44.0401173" lon="10.7274922"><ele>375.0</ele><time>2026-05-02T14:33:08.743Z</time></trkpt><trkpt lat="44.0401802" lon="10.727294"><ele>375.0</ele><time>2026-05-02T14:33:09.747Z</time></trkpt><trkpt lat="44.0402811" lon="10.7271071"><ele>375.0</ele><time>2026-05-02T14:33:10.747Z</time></trkpt><trkpt lat="44.0403759" lon="10.726922"><ele>368.6666666666667</ele><time>2026-05-02T14:33:11.739Z</time></trkpt><trkpt lat="44.0404675" lon="10.726748"><ele>362.33333333333337</ele><time>2026-05-02T14:33:12.75Z</time></trkpt><trkpt lat="44.0405828" lon="10.7265848"><ele>356.0</ele><time>2026-05-02T14:33:13.742Z</time></trkpt><trkpt lat="44.0407175" lon="10.7264365"><ele>357.6666666666667</ele><time>2026-05-02T14:33:14.741Z</time></trkpt><trkpt lat="44.040854" lon="10.7263025"><ele>359.3333333333333</ele><time>2026-05-02T14:33:15.745Z</time></trkpt><trkpt lat="44.041012" lon="10.7261562"><ele>361.0</ele><time>2026-05-02T14:33:16.742Z</time></trkpt><trkpt lat="44.0411555" lon="10.7260019"><ele>361.0</ele><time>2026-05-02T14:33:17.745Z</time></trkpt><trkpt lat="44.0413026" lon="10.7258633"><ele>361.0</ele><time>2026-05-02T14:33:18.744Z</time></trkpt><trkpt lat="44.0414268" lon="10.7256545"><ele>361.0</ele><time>2026-05-02T14:33:19.747Z</time></trkpt><trkpt lat="44.0415668" lon="10.7254585"><ele>361.3333333333333</ele><time>2026-05-02T14:33:20.74Z</time></trkpt><trkpt lat="44.0417118" lon="10.7252618"><ele>361.6666666666667</ele><time>2026-05-02T14:33:21.742Z</time></trkpt><trkpt lat="44.0418452" lon="10.7250725"><ele>362.0</ele><time>2026-05-02T14:33:22.751Z</time></trkpt><trkpt lat="44.0419568" lon="10.7248686"><ele>362.0</ele><time>2026-05-02T14:33:23.752Z</time></trkpt><trkpt lat="44.0420585" lon="10.7246479"><ele>362.0</ele><time>2026-05-02T14:33:24.742Z</time></trkpt><trkpt lat="44.0421521" lon="10.7244066"><ele>362.0</ele><time>2026-05-02T14:33:25.74Z</time></trkpt><trkpt lat="44.0422323" lon="10.7241533"><ele>361.33333333333337</ele><time>2026-05-02T14:33:26.739Z</time></trkpt><trkpt lat="44.0423139" lon="10.7239152"><ele>360.6666666666667</ele><time>2026-05-02T14:33:27.739Z</time></trkpt><trkpt lat="44.0423955" lon="10.7236699"><ele>360.0</ele><time>2026-05-02T14:33:28.739Z</time></trkpt><trkpt lat="44.0424802" lon="10.7234332"><ele>360.0</ele><time>2026-05-02T14:33:29.762Z</time></trkpt><trkpt lat="44.0425724" lon="10.7232114"><ele>360.0</ele><time>2026-05-02T14:33:30.742Z</time></trkpt><trkpt lat="44.0426717" lon="10.7229829"><ele>360.0</ele><time>2026-05-02T14:33:31.742Z</time></trkpt><trkpt lat="44.0427798" lon="10.7227512"><ele>355.3333333333333</ele><time>2026-05-02T14:33:32.739Z</time></trkpt><trkpt lat="44.0429024" lon="10.7225349"><ele>350.66666666666663</ele><time>2026-05-02T14:33:33.737Z</time></trkpt><trkpt lat="44.0430389" lon="10.7223272"><ele>346.0</ele><time>2026-05-02T14:33:34.75Z</time></trkpt><trkpt lat="44.0431708" lon="10.722093"><ele>348.3333333333333</ele><time>2026-05-02T14:33:35.738Z</time></trkpt><trkpt lat="44.0433059" lon="10.7218705"><ele>350.6666666666667</ele><time>2026-05-02T14:33:36.734Z</time></trkpt><trkpt lat="44.0434059" lon="10.7216381"><ele>353.0</ele><time>2026-05-02T14:33:37.745Z</time></trkpt><trkpt lat="44.0434823" lon="10.7214156"><ele>353.0</ele><time>2026-05-02T14:33:38.739Z</time></trkpt><trkpt lat="44.0435367" lon="10.7212129"><ele>353.0</ele><time>2026-05-02T14:33:39.739Z</time></trkpt><trkpt lat="44.0436164" lon="10.7210195"><ele>353.0</ele><time>2026-05-02T14:33:40.764Z</time></trkpt><trkpt lat="44.0436943" lon="10.720833"><ele>349.0</ele><time>2026-05-02T14:33:41.729Z</time></trkpt><trkpt lat="44.0437235" lon="10.7205856"><ele>345.0</ele><time>2026-05-02T14:33:42.739Z</time></trkpt><trkpt lat="44.0437771" lon="10.7203495"><ele>341.0</ele><time>2026-05-02T14:33:43.745Z</time></trkpt><trkpt lat="44.0438373" lon="10.7201359"><ele>341.0</ele><time>2026-05-02T14:33:44.749Z</time></trkpt><trkpt lat="44.0439044" lon="10.7199227"><ele>341.0</ele><time>2026-05-02T14:33:45.75Z</time></trkpt><trkpt lat="44.043996" lon="10.7197177"><ele>341.0</ele><time>2026-05-02T14:33:46.742Z</time></trkpt><trkpt lat="44.0440824" lon="10.7195009"><ele>342.0</ele><time>2026-05-02T14:33:47.757Z</time></trkpt><trkpt lat="44.0441882" lon="10.7192873"><ele>343.0</ele><time>2026-05-02T14:33:48.747Z</time></trkpt><trkpt lat="44.0442962" lon="10.7190694"><ele>344.0</ele><time>2026-05-02T14:33:49.743Z</time></trkpt><trkpt lat="44.0443993" lon="10.7188574"><ele>344.0</ele><time>2026-05-02T14:33:50.742Z</time></trkpt><trkpt lat="44.0445078" lon="10.7186553"><ele>344.0</ele><time>2026-05-02T14:33:51.743Z</time></trkpt><trkpt lat="44.0446075" lon="10.7184457"><ele>344.0</ele><time>2026-05-02T14:33:52.741Z</time></trkpt><trkpt lat="44.0446905" lon="10.7182212"><ele>342.6666666666667</ele><time>2026-05-02T14:33:53.74Z</time></trkpt><trkpt lat="44.0447623" lon="10.7179837"><ele>341.3333333333333</ele><time>2026-05-02T14:33:54.742Z</time></trkpt><trkpt lat="44.0448288" lon="10.7177291"><ele>340.0</ele><time>2026-05-02T14:33:55.74Z</time></trkpt><trkpt lat="44.0448608" lon="10.7174681"><ele>338.3333333333333</ele><time>2026-05-02T14:33:56.739Z</time></trkpt><trkpt lat="44.0448679" lon="10.7172083"><ele>336.6666666666667</ele><time>2026-05-02T14:33:57.753Z</time></trkpt><trkpt lat="44.044865" lon="10.7169491"><ele>335.0</ele><time>2026-05-02T14:33:58.743Z</time></trkpt><trkpt lat="44.0448376" lon="10.7166978"><ele>334.0</ele><time>2026-05-02T14:33:59.743Z</time></trkpt><trkpt lat="44.0447869" lon="10.7164351"><ele>333.0</ele><time>2026-05-02T14:34:00.74Z</time></trkpt><trkpt lat="44.0447134" lon="10.7161837"><ele>332.0</ele><time>2026-05-02T14:34:01.745Z</time></trkpt><trkpt lat="44.0446211" lon="10.7159329"><ele>332.0</ele><time>2026-05-02T14:34:02.744Z</time></trkpt><trkpt lat="44.0445222" lon="10.7156678"><ele>332.0</ele><time>2026-05-02T14:34:03.741Z</time></trkpt><trkpt lat="44.0444277" lon="10.715429"><ele>332.0</ele><time>2026-05-02T14:34:04.742Z</time></trkpt><trkpt lat="44.04433" lon="10.7151863"><ele>332.0</ele><time>2026-05-02T14:34:05.738Z</time></trkpt><trkpt lat="44.044227" lon="10.7149428"><ele>332.0</ele><time>2026-05-02T14:34:06.743Z</time></trkpt><trkpt lat="44.04413" lon="10.7146928"><ele>332.0</ele><time>2026-05-02T14:34:07.74Z</time></trkpt><trkpt lat="44.04403" lon="10.7144543"><ele>332.0</ele><time>2026-05-02T14:34:08.758Z</time></trkpt><trkpt lat="44.0439286" lon="10.7142125"><ele>332.0</ele><time>2026-05-02T14:34:09.74Z</time></trkpt><trkpt lat="44.0438274" lon="10.7139595"><ele>332.0</ele><time>2026-05-02T14:34:10.738Z</time></trkpt><trkpt lat="44.0437229" lon="10.7137123"><ele>336.33333333333337</ele><time>2026-05-02T14:34:11.739Z</time></trkpt><trkpt lat="44.0436131" lon="10.7134699"><ele>340.6666666666667</ele><time>2026-05-02T14:34:12.74Z</time></trkpt><trkpt lat="44.0435107" lon="10.7132152"><ele>345.0</ele><time>2026-05-02T14:34:13.74Z</time></trkpt><trkpt lat="44.04342" lon="10.7129545"><ele>344.3333333333333</ele><time>2026-05-02T14:34:14.742Z</time></trkpt><trkpt lat="44.0433514" lon="10.7126848"><ele>343.66666666666663</ele><time>2026-05-02T14:34:15.741Z</time></trkpt><trkpt lat="44.0432889" lon="10.7124271"><ele>343.0</ele><time>2026-05-02T14:34:16.74Z</time></trkpt><trkpt lat="44.0432413" lon="10.7121555"><ele>343.0</ele><time>2026-05-02T14:34:17.739Z</time></trkpt><trkpt lat="44.0432095" lon="10.711874"><ele>343.0</ele><time>2026-05-02T14:34:18.761Z</time></trkpt><trkpt lat="44.0432104" lon="10.7115832"><ele>343.0</ele><time>2026-05-02T14:34:19.745Z</time></trkpt><trkpt lat="44.0431972" lon="10.7112902"><ele>340.3333333333333</ele><time>2026-05-02T14:34:20.748Z</time></trkpt><trkpt lat="44.0431904" lon="10.7109958"><ele>337.6666666666667</ele><time>2026-05-02T14:34:21.729Z</time></trkpt><trkpt lat="44.0431927" lon="10.7106893"><ele>335.0</ele><time>2026-05-02T14:34:22.746Z</time></trkpt><trkpt lat="44.0431995" lon="10.7103851"><ele>328.0</ele><time>2026-05-02T14:34:23.742Z</time></trkpt><trkpt lat="44.0431964" lon="10.7100737"><ele>321.0</ele><time>2026-05-02T14:34:24.739Z</time></trkpt><trkpt lat="44.0432012" lon="10.7097482"><ele>321.0</ele><time>2026-05-02T14:34:25.74Z</time></trkpt><trkpt lat="44.0431782" lon="10.7094487"><ele>321.0</ele><time>2026-05-02T14:34:26.74Z</time></trkpt><trkpt lat="44.0431667" lon="10.709148"><ele>321.0</ele><time>2026-05-02T14:34:27.751Z</time></trkpt><trkpt lat="44.0431441" lon="10.7088586"><ele>320.3333333333333</ele><time>2026-05-02T14:34:28.741Z</time></trkpt><trkpt lat="44.0431422" lon="10.7085816"><ele>319.66666666666663</ele><time>2026-05-02T14:34:29.744Z</time></trkpt><trkpt lat="44.0431409" lon="10.7083243"><ele>319.0</ele><time>2026-05-02T14:34:30.741Z</time></trkpt><trkpt lat="44.0431515" lon="10.7080779"><ele>319.0</ele><time>2026-05-02T14:34:31.761Z</time></trkpt><trkpt lat="44.0431693" lon="10.7078221"><ele>319.0</ele><time>2026-05-02T14:34:32.733Z</time></trkpt><trkpt lat="44.043239" lon="10.7075199"><ele>319.0</ele><time>2026-05-02T14:34:33.743Z</time></trkpt><trkpt lat="44.0433066" lon="10.7072358"><ele>322.0</ele><time>2026-05-02T14:34:34.748Z</time></trkpt><trkpt lat="44.0433692" lon="10.7069413"><ele>325.0</ele><time>2026-05-02T14:34:35.746Z</time></trkpt><trkpt lat="44.0434191" lon="10.7066548"><ele>328.0</ele><time>2026-05-02T14:34:36.742Z</time></trkpt><trkpt lat="44.0434716" lon="10.7063785"><ele>328.0</ele><time>2026-05-02T14:34:37.746Z</time></trkpt><trkpt lat="44.0435204" lon="10.7061091"><ele>328.0</ele><time>2026-05-02T14:34:38.749Z</time></trkpt><trkpt lat="44.0435633" lon="10.7058723"><ele>328.0</ele><time>2026-05-02T14:34:39.746Z</time></trkpt><trkpt lat="44.0436198" lon="10.7056381"><ele>327.66666666666663</ele><time>2026-05-02T14:34:40.739Z</time></trkpt><trkpt lat="44.0436891" lon="10.705428"><ele>327.3333333333333</ele><time>2026-05-02T14:34:41.752Z</time></trkpt><trkpt lat="44.0437856" lon="10.7052215"><ele>327.0</ele><time>2026-05-02T14:34:42.748Z</time></trkpt><trkpt lat="44.0438876" lon="10.7050051"><ele>327.0</ele><time>2026-05-02T14:34:43.744Z</time></trkpt><trkpt lat="44.0439985" lon="10.7047816"><ele>327.0</ele><time>2026-05-02T14:34:44.745Z</time></trkpt><trkpt lat="44.0441105" lon="10.7045506"><ele>327.0</ele><time>2026-05-02T14:34:45.744Z</time></trkpt><trkpt lat="44.044223" lon="10.7043218"><ele>327.3333333333333</ele><time>2026-05-02T14:34:46.74Z</time></trkpt><trkpt lat="44.0443214" lon="10.7041249"><ele>327.66666666666663</ele><time>2026-05-02T14:34:47.744Z</time></trkpt><trkpt lat="44.0444712" lon="10.7039327"><ele>328.0</ele><time>2026-05-02T14:34:48.741Z</time></trkpt><trkpt lat="44.0445945" lon="10.7037489"><ele>330.0</ele><time>2026-05-02T14:34:49.741Z</time></trkpt><trkpt lat="44.0447311" lon="10.7035435"><ele>332.0</ele><time>2026-05-02T14:34:50.761Z</time></trkpt><trkpt lat="44.0448594" lon="10.7033458"><ele>334.0</ele><time>2026-05-02T14:34:51.739Z</time></trkpt><trkpt lat="44.0449984" lon="10.7031427"><ele>332.3333333333333</ele><time>2026-05-02T14:34:52.751Z</time></trkpt><trkpt lat="44.0451386" lon="10.7029466"><ele>330.6666666666667</ele><time>2026-05-02T14:34:53.729Z</time></trkpt><trkpt lat="44.0452237" lon="10.7027531"><ele>329.0</ele><time>2026-05-02T14:34:54.744Z</time></trkpt><trkpt lat="44.0453226" lon="10.7025555"><ele>329.0</ele><time>2026-05-02T14:34:55.752Z</time></trkpt><trkpt lat="44.0454028" lon="10.7023442"><ele>329.0</ele><time>2026-05-02T14:34:56.744Z</time></trkpt><trkpt lat="44.0454838" lon="10.7021158"><ele>329.0</ele><time>2026-05-02T14:34:57.763Z</time></trkpt><trkpt lat="44.0455404" lon="10.7018982"><ele>330.6666666666667</ele><time>2026-05-02T14:34:58.744Z</time></trkpt><trkpt lat="44.0456074" lon="10.7016445"><ele>332.3333333333333</ele><time>2026-05-02T14:34:59.745Z</time></trkpt><trkpt lat="44.0456761" lon="10.7013843"><ele>334.0</ele><time>2026-05-02T14:35:00.748Z</time></trkpt><trkpt lat="44.0457486" lon="10.7011199"><ele>337.3333333333333</ele><time>2026-05-02T14:35:01.741Z</time></trkpt><trkpt lat="44.0458321" lon="10.7008517"><ele>340.6666666666667</ele><time>2026-05-02T14:35:02.743Z</time></trkpt><trkpt lat="44.0458466" lon="10.7005599"><ele>344.0</ele><time>2026-05-02T14:35:03.757Z</time></trkpt><trkpt lat="44.0458675" lon="10.7002696"><ele>336.5</ele><time>2026-05-02T14:35:04.748Z</time></trkpt><trkpt lat="44.0458429" lon="10.6999582"><ele>329.0</ele><time>2026-05-02T14:35:05.747Z</time></trkpt><trkpt lat="44.0457962" lon="10.6996527"><ele>328.33333333333337</ele><time>2026-05-02T14:35:06.745Z</time></trkpt><trkpt lat="44.0457513" lon="10.6993695"><ele>327.6666666666667</ele><time>2026-05-02T14:35:07.75Z</time></trkpt><trkpt lat="44.0457196" lon="10.6991194"><ele>327.0</ele><time>2026-05-02T14:35:08.744Z</time></trkpt><trkpt lat="44.0457152" lon="10.6988849"><ele>327.0</ele><time>2026-05-02T14:35:09.742Z</time></trkpt><trkpt lat="44.0457652" lon="10.6986506"><ele>327.0</ele><time>2026-05-02T14:35:10.748Z</time></trkpt><trkpt lat="44.0458181" lon="10.6984016"><ele>327.0</ele><time>2026-05-02T14:35:11.748Z</time></trkpt><trkpt lat="44.0458699" lon="10.6981397"><ele>323.3333333333333</ele><time>2026-05-02T14:35:12.745Z</time></trkpt><trkpt lat="44.0459252" lon="10.6978779"><ele>319.66666666666663</ele><time>2026-05-02T14:35:13.749Z</time></trkpt><trkpt lat="44.0459827" lon="10.6976266"><ele>316.0</ele><time>2026-05-02T14:35:14.745Z</time></trkpt><trkpt lat="44.0460227" lon="10.6973842"><ele>313.66666666666663</ele><time>2026-05-02T14:35:15.745Z</time></trkpt><trkpt lat="44.0460775" lon="10.6971466"><ele>311.3333333333333</ele><time>2026-05-02T14:35:16.741Z</time></trkpt><trkpt lat="44.0461192" lon="10.696897"><ele>309.0</ele><time>2026-05-02T14:35:17.743Z</time></trkpt><trkpt lat="44.0460894" lon="10.6966325"><ele>308.0</ele><time>2026-05-02T14:35:18.753Z</time></trkpt><trkpt lat="44.0460862" lon="10.6963446"><ele>307.0</ele><time>2026-05-02T14:35:19.743Z</time></trkpt><trkpt lat="44.0460521" lon="10.6960373"><ele>306.0</ele><time>2026-05-02T14:35:20.749Z</time></trkpt><trkpt lat="44.0460349" lon="10.6957148"><ele>308.0</ele><time>2026-05-02T14:35:21.738Z</time></trkpt><trkpt lat="44.046034" lon="10.6954143"><ele>310.0</ele><time>2026-05-02T14:35:22.743Z</time></trkpt><trkpt lat="44.0460381" lon="10.6951283"><ele>312.0</ele><time>2026-05-02T14:35:23.744Z</time></trkpt><trkpt lat="44.0460622" lon="10.6948569"><ele>312.3333333333333</ele><time>2026-05-02T14:35:24.741Z</time></trkpt><trkpt lat="44.0461021" lon="10.6945992"><ele>312.66666666666663</ele><time>2026-05-02T14:35:25.744Z</time></trkpt><trkpt lat="44.0461569" lon="10.6943468"><ele>313.0</ele><time>2026-05-02T14:35:26.746Z</time></trkpt><trkpt lat="44.0462018" lon="10.6941015"><ele>311.66666666666663</ele><time>2026-05-02T14:35:27.738Z</time></trkpt><trkpt lat="44.0462528" lon="10.6938611"><ele>310.3333333333333</ele><time>2026-05-02T14:35:28.737Z</time></trkpt><trkpt lat="44.0462852" lon="10.693647"><ele>309.0</ele><time>2026-05-02T14:35:29.74Z</time></trkpt><trkpt lat="44.046337" lon="10.6934353"><ele>307.75</ele><time>2026-05-02T14:35:30.747Z</time></trkpt><trkpt lat="44.0463686" lon="10.6932471"><ele>306.5</ele><time>2026-05-02T14:35:31.747Z</time></trkpt><trkpt lat="44.0463741" lon="10.6930616"><ele>305.25</ele><time>2026-05-02T14:35:32.74Z</time></trkpt><trkpt lat="44.04637" lon="10.6928848"><ele>304.0</ele><time>2026-05-02T14:35:33.731Z</time></trkpt><trkpt lat="44.0462961" lon="10.69277"><ele>305.0</ele><time>2026-05-02T14:35:34.752Z</time></trkpt><trkpt lat="44.0462367" lon="10.6926386"><ele>306.0</ele><time>2026-05-02T14:35:35.743Z</time></trkpt><trkpt lat="44.0461296" lon="10.6924927"><ele>307.0</ele><time>2026-05-02T14:35:36.758Z</time></trkpt><trkpt lat="44.0460132" lon="10.6923441"><ele>308.0</ele><time>2026-05-02T14:35:37.745Z</time></trkpt><trkpt lat="44.0459065" lon="10.6921859"><ele>308.0</ele><time>2026-05-02T14:35:38.746Z</time></trkpt><trkpt lat="44.0457959" lon="10.6920172"><ele>308.0</ele><time>2026-05-02T14:35:39.74Z</time></trkpt><trkpt lat="44.0456835" lon="10.6918346"><ele>308.0</ele><time>2026-05-02T14:35:40.744Z</time></trkpt><trkpt lat="44.0455711" lon="10.691665"><ele>305.6666666666667</ele><time>2026-05-02T14:35:41.742Z</time></trkpt><trkpt lat="44.0454485" lon="10.6915129"><ele>303.3333333333333</ele><time>2026-05-02T14:35:42.757Z</time></trkpt><trkpt lat="44.0453303" lon="10.6913793"><ele>301.0</ele><time>2026-05-02T14:35:43.75Z</time></trkpt><trkpt lat="44.0451997" lon="10.6912386"><ele>301.0</ele><time>2026-05-02T14:35:44.744Z</time></trkpt><trkpt lat="44.0450657" lon="10.6910923"><ele>301.0</ele><time>2026-05-02T14:35:45.74Z</time></trkpt><trkpt lat="44.0449274" lon="10.6909606"><ele>301.0</ele><time>2026-05-02T14:35:46.741Z</time></trkpt><trkpt lat="44.044778" lon="10.690855"><ele>301.0</ele><time>2026-05-02T14:35:47.749Z</time></trkpt><trkpt lat="44.0446315" lon="10.6907428"><ele>301.0</ele><time>2026-05-02T14:35:48.749Z</time></trkpt><trkpt lat="44.0444899" lon="10.6906408"><ele>301.0</ele><time>2026-05-02T14:35:49.761Z</time></trkpt><trkpt lat="44.0443528" lon="10.6905516"><ele>301.0</ele><time>2026-05-02T14:35:50.742Z</time></trkpt><trkpt lat="44.0442159" lon="10.6904731"><ele>301.0</ele><time>2026-05-02T14:35:51.741Z</time></trkpt><trkpt lat="44.0440896" lon="10.6904087"><ele>301.0</ele><time>2026-05-02T14:35:52.749Z</time></trkpt><trkpt lat="44.0439771" lon="10.6903681"><ele>301.0</ele><time>2026-05-02T14:35:53.744Z</time></trkpt><trkpt lat="44.0438742" lon="10.6903322"><ele>300.2</ele><time>2026-05-02T14:35:54.745Z</time></trkpt><trkpt lat="44.0437742" lon="10.6902957"><ele>299.40000000000003</ele><time>2026-05-02T14:35:55.741Z</time></trkpt><trkpt lat="44.0436862" lon="10.6902535"><ele>298.6</ele><time>2026-05-02T14:35:56.749Z</time></trkpt><trkpt lat="44.0436031" lon="10.6902023"><ele>297.8</ele><time>2026-05-02T14:35:57.748Z</time></trkpt><trkpt lat="44.043526" lon="10.6901413"><ele>297.0</ele><time>2026-05-02T14:35:58.749Z</time></trkpt><trkpt lat="44.0434566" lon="10.6900639"><ele>296.8</ele><time>2026-05-02T14:35:59.743Z</time></trkpt><trkpt lat="44.0433883" lon="10.6899667"><ele>296.6</ele><time>2026-05-02T14:36:00.747Z</time></trkpt><trkpt lat="44.0433308" lon="10.6898428"><ele>296.40000000000003</ele><time>2026-05-02T14:36:01.747Z</time></trkpt><trkpt lat="44.0432702" lon="10.6897263"><ele>296.2</ele><time>2026-05-02T14:36:02.747Z</time></trkpt><trkpt lat="44.0432033" lon="10.6895988"><ele>296.0</ele><time>2026-05-02T14:36:03.759Z</time></trkpt><trkpt lat="44.0431208" lon="10.6894834"><ele>296.0</ele><time>2026-05-02T14:36:04.739Z</time></trkpt><trkpt lat="44.0430494" lon="10.6893856"><ele>296.0</ele><time>2026-05-02T14:36:05.74Z</time></trkpt><trkpt lat="44.0429776" lon="10.689283"><ele>296.0</ele><time>2026-05-02T14:36:06.752Z</time></trkpt><trkpt lat="44.0428981" lon="10.6891818"><ele>296.0</ele><time>2026-05-02T14:36:07.741Z</time></trkpt><trkpt lat="44.0428245" lon="10.6890893"><ele>296.0</ele><time>2026-05-02T14:36:08.736Z</time></trkpt><trkpt lat="44.0427483" lon="10.6889962"><ele>296.0</ele><time>2026-05-02T14:36:09.755Z</time></trkpt><trkpt lat="44.0426728" lon="10.688894"><ele>296.0</ele><time>2026-05-02T14:36:10.743Z</time></trkpt><trkpt lat="44.0426046" lon="10.6888027"><ele>296.0</ele><time>2026-05-02T14:36:11.736Z</time></trkpt><trkpt lat="44.0425467" lon="10.688698"><ele>296.0</ele><time>2026-05-02T14:36:12.738Z</time></trkpt><trkpt lat="44.0424946" lon="10.6885776"><ele>296.0</ele><time>2026-05-02T14:36:13.739Z</time></trkpt><trkpt lat="44.0424543" lon="10.6884475"><ele>295.2</ele><time>2026-05-02T14:36:14.752Z</time></trkpt><trkpt lat="44.0424167" lon="10.6883069"><ele>294.40000000000003</ele><time>2026-05-02T14:36:15.741Z</time></trkpt><trkpt lat="44.0424078" lon="10.6881616"><ele>293.6</ele><time>2026-05-02T14:36:16.74Z</time></trkpt><trkpt lat="44.0424091" lon="10.6880202"><ele>292.8</ele><time>2026-05-02T14:36:17.739Z</time></trkpt><trkpt lat="44.0424027" lon="10.6878764"><ele>292.0</ele><time>2026-05-02T14:36:18.739Z</time></trkpt><trkpt lat="44.042413" lon="10.6877209"><ele>292.0</ele><time>2026-05-02T14:36:19.749Z</time></trkpt><trkpt lat="44.0424424" lon="10.6875361"><ele>292.0</ele><time>2026-05-02T14:36:20.738Z</time></trkpt><trkpt lat="44.0424878" lon="10.6873223"><ele>292.0</ele><time>2026-05-02T14:36:21.736Z</time></trkpt><trkpt lat="44.0425257" lon="10.6871068"><ele>293.3333333333333</ele><time>2026-05-02T14:36:22.741Z</time></trkpt><trkpt lat="44.0426124" lon="10.6868816"><ele>294.6666666666667</ele><time>2026-05-02T14:36:23.741Z</time></trkpt><trkpt lat="44.0426923" lon="10.6866495"><ele>296.0</ele><time>2026-05-02T14:36:24.748Z</time></trkpt><trkpt lat="44.0427718" lon="10.6864106"><ele>296.0</ele><time>2026-05-02T14:36:25.737Z</time></trkpt><trkpt lat="44.0428436" lon="10.6861707"><ele>296.0</ele><time>2026-05-02T14:36:26.742Z</time></trkpt><trkpt lat="44.0429045" lon="10.6859366"><ele>296.0</ele><time>2026-05-02T14:36:27.731Z</time></trkpt><trkpt lat="44.0429311" lon="10.685682"><ele>295.33333333333337</ele><time>2026-05-02T14:36:28.74Z</time></trkpt><trkpt lat="44.0429784" lon="10.685434"><ele>294.6666666666667</ele><time>2026-05-02T14:36:29.741Z</time></trkpt><trkpt lat="44.0430254" lon="10.6851845"><ele>294.0</ele><time>2026-05-02T14:36:30.743Z</time></trkpt><trkpt lat="44.0430578" lon="10.6849343"><ele>294.0</ele><time>2026-05-02T14:36:31.741Z</time></trkpt><trkpt lat="44.0430999" lon="10.6846743"><ele>294.0</ele><time>2026-05-02T14:36:32.751Z</time></trkpt><trkpt lat="44.0431344" lon="10.6844153"><ele>294.0</ele><time>2026-05-02T14:36:33.747Z</time></trkpt><trkpt lat="44.0431713" lon="10.6841504"><ele>294.0</ele><time>2026-05-02T14:36:34.752Z</time></trkpt><trkpt lat="44.043213" lon="10.6838792"><ele>294.0</ele><time>2026-05-02T14:36:35.742Z</time></trkpt><trkpt lat="44.0432541" lon="10.6836152"><ele>294.0</ele><time>2026-05-02T14:36:36.738Z</time></trkpt><trkpt lat="44.0432838" lon="10.6833567"><ele>293.3333333333333</ele><time>2026-05-02T14:36:37.74Z</time></trkpt><trkpt lat="44.0433214" lon="10.6830975"><ele>292.66666666666663</ele><time>2026-05-02T14:36:38.748Z</time></trkpt><trkpt lat="44.0433657" lon="10.6828449"><ele>292.0</ele><time>2026-05-02T14:36:39.739Z</time></trkpt><trkpt lat="44.0433999" lon="10.6825921"><ele>292.0</ele><time>2026-05-02T14:36:40.739Z</time></trkpt><trkpt lat="44.0434309" lon="10.6823448"><ele>292.0</ele><time>2026-05-02T14:36:41.739Z</time></trkpt><trkpt lat="44.0434718" lon="10.6821104"><ele>292.0</ele><time>2026-05-02T14:36:42.74Z</time></trkpt><trkpt lat="44.0435102" lon="10.6818904"><ele>293.0</ele><time>2026-05-02T14:36:43.74Z</time></trkpt><trkpt lat="44.0435382" lon="10.6816626"><ele>294.0</ele><time>2026-05-02T14:36:44.758Z</time></trkpt><trkpt lat="44.043559" lon="10.6814207"><ele>295.0</ele><time>2026-05-02T14:36:45.738Z</time></trkpt><trkpt lat="44.0435752" lon="10.6811718"><ele>295.3333333333333</ele><time>2026-05-02T14:36:46.739Z</time></trkpt><trkpt lat="44.0435149" lon="10.6809444"><ele>295.6666666666667</ele><time>2026-05-02T14:36:47.743Z</time></trkpt><trkpt lat="44.0434675" lon="10.6807292"><ele>296.0</ele><time>2026-05-02T14:36:48.74Z</time></trkpt><trkpt lat="44.0433985" lon="10.6805213"><ele>296.0</ele><time>2026-05-02T14:36:49.75Z</time></trkpt><trkpt lat="44.0433216" lon="10.6803504"><ele>296.0</ele><time>2026-05-02T14:36:50.738Z</time></trkpt><trkpt lat="44.0432294" lon="10.6802014"><ele>296.0</ele><time>2026-05-02T14:36:51.742Z</time></trkpt><trkpt lat="44.0431377" lon="10.6800118"><ele>292.33333333333337</ele><time>2026-05-02T14:36:52.741Z</time></trkpt><trkpt lat="44.0430644" lon="10.6798331"><ele>288.6666666666667</ele><time>2026-05-02T14:36:53.775Z</time></trkpt><trkpt lat="44.0430007" lon="10.679567"><ele>285.0</ele><time>2026-05-02T14:36:54.748Z</time></trkpt><trkpt lat="44.0429413" lon="10.6793259"><ele>283.3333333333333</ele><time>2026-05-02T14:36:55.728Z</time></trkpt><trkpt lat="44.0428661" lon="10.6790706"><ele>281.66666666666663</ele><time>2026-05-02T14:36:56.749Z</time></trkpt><trkpt lat="44.0427977" lon="10.6788141"><ele>280.0</ele><time>2026-05-02T14:36:57.74Z</time></trkpt><trkpt lat="44.0427227" lon="10.6785827"><ele>280.0</ele><time>2026-05-02T14:36:58.755Z</time></trkpt><trkpt lat="44.0426823" lon="10.6783498"><ele>280.0</ele><time>2026-05-02T14:36:59.739Z</time></trkpt><trkpt lat="44.0426171" lon="10.6781154"><ele>280.0</ele><time>2026-05-02T14:37:00.749Z</time></trkpt><trkpt lat="44.0425411" lon="10.6778879"><ele>280.0</ele><time>2026-05-02T14:37:01.743Z</time></trkpt><trkpt lat="44.0424905" lon="10.6776567"><ele>280.0</ele><time>2026-05-02T14:37:02.74Z</time></trkpt><trkpt lat="44.0424405" lon="10.6773994"><ele>280.0</ele><time>2026-05-02T14:37:03.738Z</time></trkpt><trkpt lat="44.0423874" lon="10.6771436"><ele>279.3333333333333</ele><time>2026-05-02T14:37:04.741Z</time></trkpt><trkpt lat="44.0423604" lon="10.6768964"><ele>278.6666666666667</ele><time>2026-05-02T14:37:05.744Z</time></trkpt><trkpt lat="44.0423522" lon="10.6766604"><ele>278.0</ele><time>2026-05-02T14:37:06.739Z</time></trkpt><trkpt lat="44.042358" lon="10.6764163"><ele>278.0</ele><time>2026-05-02T14:37:07.749Z</time></trkpt><trkpt lat="44.0423762" lon="10.6761651"><ele>278.0</ele><time>2026-05-02T14:37:08.749Z</time></trkpt><trkpt lat="44.0424183" lon="10.675931"><ele>278.0</ele><time>2026-05-02T14:37:09.74Z</time></trkpt><trkpt lat="44.0424637" lon="10.675701"><ele>277.6666666666667</ele><time>2026-05-02T14:37:10.757Z</time></trkpt><trkpt lat="44.0425188" lon="10.6754667"><ele>277.3333333333333</ele><time>2026-05-02T14:37:11.743Z</time></trkpt><trkpt lat="44.0425998" lon="10.6752611"><ele>277.0</ele><time>2026-05-02T14:37:12.758Z</time></trkpt><trkpt lat="44.0426918" lon="10.675053"><ele>276.3333333333333</ele><time>2026-05-02T14:37:13.742Z</time></trkpt><trkpt lat="44.0427859" lon="10.674848"><ele>275.6666666666667</ele><time>2026-05-02T14:37:14.744Z</time></trkpt><trkpt lat="44.0429085" lon="10.6746584"><ele>275.0</ele><time>2026-05-02T14:37:15.737Z</time></trkpt><trkpt lat="44.0430368" lon="10.6744618"><ele>274.33333333333337</ele><time>2026-05-02T14:37:16.747Z</time></trkpt><trkpt lat="44.0431567" lon="10.6742645"><ele>273.6666666666667</ele><time>2026-05-02T14:37:17.747Z</time></trkpt><trkpt lat="44.043264" lon="10.6740655"><ele>273.0</ele><time>2026-05-02T14:37:18.749Z</time></trkpt><trkpt lat="44.0433807" lon="10.6738553"><ele>272.6666666666667</ele><time>2026-05-02T14:37:19.761Z</time></trkpt><trkpt lat="44.0434619" lon="10.6736287"><ele>272.33333333333337</ele><time>2026-05-02T14:37:20.744Z</time></trkpt><trkpt lat="44.043528" lon="10.6733757"><ele>272.0</ele><time>2026-05-02T14:37:21.74Z</time></trkpt><trkpt lat="44.0436013" lon="10.6731156"><ele>272.0</ele><time>2026-05-02T14:37:22.754Z</time></trkpt><trkpt lat="44.0436738" lon="10.6728457"><ele>272.0</ele><time>2026-05-02T14:37:23.746Z</time></trkpt><trkpt lat="44.0437526" lon="10.672559"><ele>272.0</ele><time>2026-05-02T14:37:24.74Z</time></trkpt><trkpt lat="44.0438188" lon="10.672251"><ele>274.5</ele><time>2026-05-02T14:37:25.744Z</time></trkpt><trkpt lat="44.0438992" lon="10.6719307"><ele>277.0</ele><time>2026-05-02T14:37:26.74Z</time></trkpt><trkpt lat="44.0439788" lon="10.6715888"><ele>277.0</ele><time>2026-05-02T14:37:27.744Z</time></trkpt><trkpt lat="44.0440662" lon="10.6712581"><ele>277.0</ele><time>2026-05-02T14:37:28.737Z</time></trkpt><trkpt lat="44.0441502" lon="10.6709326"><ele>279.0</ele><time>2026-05-02T14:37:29.748Z</time></trkpt><trkpt lat="44.0442248" lon="10.6706177"><ele>281.0</ele><time>2026-05-02T14:37:30.74Z</time></trkpt><trkpt lat="44.0443058" lon="10.6703076"><ele>282.0</ele><time>2026-05-02T14:37:31.728Z</time></trkpt><trkpt lat="44.044381" lon="10.6700356"><ele>283.0</ele><time>2026-05-02T14:37:32.749Z</time></trkpt><trkpt lat="44.04447" lon="10.6697865"><ele>284.0</ele><time>2026-05-02T14:37:33.743Z</time></trkpt><trkpt lat="44.0445471" lon="10.6695203"><ele>286.0</ele><time>2026-05-02T14:37:34.743Z</time></trkpt><trkpt lat="44.0446124" lon="10.6692554"><ele>288.0</ele><time>2026-05-02T14:37:35.75Z</time></trkpt><trkpt lat="44.04466" lon="10.6689664"><ele>290.0</ele><time>2026-05-02T14:37:36.743Z</time></trkpt><trkpt lat="44.0446736" lon="10.6686664"><ele>290.6666666666667</ele><time>2026-05-02T14:37:37.74Z</time></trkpt><trkpt lat="44.0446816" lon="10.668378"><ele>291.3333333333333</ele><time>2026-05-02T14:37:38.745Z</time></trkpt><trkpt lat="44.0446808" lon="10.668082"><ele>292.0</ele><time>2026-05-02T14:37:39.754Z</time></trkpt><trkpt lat="44.0446694" lon="10.6677831"><ele>283.5</ele><time>2026-05-02T14:37:40.729Z</time></trkpt><trkpt lat="44.0445665" lon="10.6675062"><ele>275.0</ele><time>2026-05-02T14:37:41.743Z</time></trkpt><trkpt lat="44.0444418" lon="10.6672347"><ele>275.0</ele><time>2026-05-02T14:37:42.745Z</time></trkpt><trkpt lat="44.0443582" lon="10.6669567"><ele>275.0</ele><time>2026-05-02T14:37:43.746Z</time></trkpt><trkpt lat="44.0442722" lon="10.6667"><ele>275.0</ele><time>2026-05-02T14:37:44.738Z</time></trkpt><trkpt lat="44.0442059" lon="10.6664831"><ele>274.6666666666667</ele><time>2026-05-02T14:37:45.737Z</time></trkpt><trkpt lat="44.0441741" lon="10.6662679"><ele>274.3333333333333</ele><time>2026-05-02T14:37:46.738Z</time></trkpt><trkpt lat="44.0441675" lon="10.6660616"><ele>274.0</ele><time>2026-05-02T14:37:47.741Z</time></trkpt><trkpt lat="44.0441464" lon="10.6658438"><ele>274.0</ele><time>2026-05-02T14:37:48.728Z</time></trkpt><trkpt lat="44.0441438" lon="10.665561"><ele>274.0</ele><time>2026-05-02T14:37:49.759Z</time></trkpt><trkpt lat="44.0441108" lon="10.6653272"><ele>274.0</ele><time>2026-05-02T14:37:50.74Z</time></trkpt><trkpt lat="44.0440448" lon="10.6650682"><ele>274.66666666666663</ele><time>2026-05-02T14:37:51.744Z</time></trkpt><trkpt lat="44.044003" lon="10.6648126"><ele>275.3333333333333</ele><time>2026-05-02T14:37:52.746Z</time></trkpt><trkpt lat="44.0439206" lon="10.6646206"><ele>276.0</ele><time>2026-05-02T14:37:53.747Z</time></trkpt><trkpt lat="44.0438637" lon="10.664422"><ele>275.0</ele><time>2026-05-02T14:37:54.745Z</time></trkpt><trkpt lat="44.0437855" lon="10.6642458"><ele>274.0</ele><time>2026-05-02T14:37:55.744Z</time></trkpt><trkpt lat="44.0436871" lon="10.6641019"><ele>273.0</ele><time>2026-05-02T14:37:56.748Z</time></trkpt><trkpt lat="44.0435603" lon="10.663993"><ele>272.0</ele><time>2026-05-02T14:37:57.738Z</time></trkpt><trkpt lat="44.0434046" lon="10.6639511"><ele>269.33333333333337</ele><time>2026-05-02T14:37:58.737Z</time></trkpt><trkpt lat="44.0432204" lon="10.6639035"><ele>266.6666666666667</ele><time>2026-05-02T14:37:59.749Z</time></trkpt><trkpt lat="44.0429603" lon="10.6639491"><ele>264.0</ele><time>2026-05-02T14:38:00.751Z</time></trkpt><trkpt lat="44.0427372" lon="10.6639093"><ele>264.0</ele><time>2026-05-02T14:38:01.746Z</time></trkpt><trkpt lat="44.0425047" lon="10.6638806"><ele>264.0</ele><time>2026-05-02T14:38:02.742Z</time></trkpt><trkpt lat="44.0422867" lon="10.6638428"><ele>264.6666666666667</ele><time>2026-05-02T14:38:03.744Z</time></trkpt><trkpt lat="44.0420771" lon="10.6637631"><ele>265.33333333333337</ele><time>2026-05-02T14:38:04.764Z</time></trkpt><trkpt lat="44.0418751" lon="10.6637246"><ele>266.0</ele><time>2026-05-02T14:38:05.743Z</time></trkpt><trkpt lat="44.0416972" lon="10.6636694"><ele>267.0</ele><time>2026-05-02T14:38:06.735Z</time></trkpt><trkpt lat="44.0415205" lon="10.6636165"><ele>268.0</ele><time>2026-05-02T14:38:07.764Z</time></trkpt><trkpt lat="44.0413534" lon="10.6635483"><ele>269.0</ele><time>2026-05-02T14:38:08.742Z</time></trkpt><trkpt lat="44.041181" lon="10.6634985"><ele>269.0</ele><time>2026-05-02T14:38:09.748Z</time></trkpt><trkpt lat="44.0410136" lon="10.6634142"><ele>269.0</ele><time>2026-05-02T14:38:10.749Z</time></trkpt><trkpt lat="44.0408365" lon="10.663308"><ele>269.0</ele><time>2026-05-02T14:38:11.747Z</time></trkpt><trkpt lat="44.0406588" lon="10.6632012"><ele>274.6666666666667</ele><time>2026-05-02T14:38:12.748Z</time></trkpt><trkpt lat="44.0404734" lon="10.6630728"><ele>280.3333333333333</ele><time>2026-05-02T14:38:13.745Z</time></trkpt><trkpt lat="44.0402903" lon="10.662939"><ele>286.0</ele><time>2026-05-02T14:38:14.75Z</time></trkpt><trkpt lat="44.0401115" lon="10.6628226"><ele>286.0</ele><time>2026-05-02T14:38:15.744Z</time></trkpt><trkpt lat="44.0399396" lon="10.66269"><ele>286.0</ele><time>2026-05-02T14:38:16.741Z</time></trkpt><trkpt lat="44.0397741" lon="10.6625756"><ele>286.0</ele><time>2026-05-02T14:38:17.741Z</time></trkpt><trkpt lat="44.039603" lon="10.6624836"><ele>286.0</ele><time>2026-05-02T14:38:18.745Z</time></trkpt><trkpt lat="44.0394223" lon="10.6624493"><ele>286.0</ele><time>2026-05-02T14:38:19.748Z</time></trkpt><trkpt lat="44.039241" lon="10.662444"><ele>286.0</ele><time>2026-05-02T14:38:20.75Z</time></trkpt><trkpt lat="44.0390601" lon="10.6624512"><ele>284.3333333333333</ele><time>2026-05-02T14:38:21.753Z</time></trkpt><trkpt lat="44.0388794" lon="10.6624707"><ele>282.6666666666667</ele><time>2026-05-02T14:38:22.742Z</time></trkpt><trkpt lat="44.0386959" lon="10.6624752"><ele>281.0</ele><time>2026-05-02T14:38:23.743Z</time></trkpt><trkpt lat="44.0385057" lon="10.662497"><ele>281.0</ele><time>2026-05-02T14:38:24.763Z</time></trkpt><trkpt lat="44.0383317" lon="10.6624999"><ele>281.0</ele><time>2026-05-02T14:38:25.74Z</time></trkpt><trkpt lat="44.0381627" lon="10.6625052"><ele>281.0</ele><time>2026-05-02T14:38:26.743Z</time></trkpt><trkpt lat="44.0379965" lon="10.6625174"><ele>274.75</ele><time>2026-05-02T14:38:27.744Z</time></trkpt><trkpt lat="44.0378553" lon="10.6624918"><ele>268.5</ele><time>2026-05-02T14:38:28.746Z</time></trkpt><trkpt lat="44.0377325" lon="10.662466"><ele>262.25</ele><time>2026-05-02T14:38:29.742Z</time></trkpt><trkpt lat="44.0376293" lon="10.6624134"><ele>256.0</ele><time>2026-05-02T14:38:30.745Z</time></trkpt><trkpt lat="44.0375681" lon="10.6622461"><ele>256.0</ele><time>2026-05-02T14:38:31.747Z</time></trkpt><trkpt lat="44.0374909" lon="10.6621035"><ele>256.0</ele><time>2026-05-02T14:38:32.748Z</time></trkpt><trkpt lat="44.0374251" lon="10.6618978"><ele>256.0</ele><time>2026-05-02T14:38:33.746Z</time></trkpt><trkpt lat="44.037362" lon="10.6617073"><ele>256.0</ele><time>2026-05-02T14:38:34.738Z</time></trkpt><trkpt lat="44.03729" lon="10.6615087"><ele>253.0</ele><time>2026-05-02T14:38:35.738Z</time></trkpt><trkpt lat="44.0372113" lon="10.6613346"><ele>250.0</ele><time>2026-05-02T14:38:36.752Z</time></trkpt><trkpt lat="44.037137" lon="10.6611644"><ele>247.0</ele><time>2026-05-02T14:38:37.745Z</time></trkpt><trkpt lat="44.0370587" lon="10.6609969"><ele>244.0</ele><time>2026-05-02T14:38:38.741Z</time></trkpt><trkpt lat="44.0369936" lon="10.6608401"><ele>244.0</ele><time>2026-05-02T14:38:39.745Z</time></trkpt><trkpt lat="44.0369229" lon="10.6606699"><ele>244.0</ele><time>2026-05-02T14:38:40.743Z</time></trkpt><trkpt lat="44.036837" lon="10.6605158"><ele>244.0</ele><time>2026-05-02T14:38:41.74Z</time></trkpt><trkpt lat="44.0367424" lon="10.6603553"><ele>244.0</ele><time>2026-05-02T14:38:42.756Z</time></trkpt><trkpt lat="44.0366461" lon="10.6601866"><ele>241.75</ele><time>2026-05-02T14:38:43.74Z</time></trkpt><trkpt lat="44.0365509" lon="10.6600337"><ele>239.5</ele><time>2026-05-02T14:38:44.738Z</time></trkpt><trkpt lat="44.0364623" lon="10.6598692"><ele>237.25</ele><time>2026-05-02T14:38:45.748Z</time></trkpt><trkpt lat="44.0363748" lon="10.6597097"><ele>235.0</ele><time>2026-05-02T14:38:46.741Z</time></trkpt><trkpt lat="44.0362909" lon="10.659554"><ele>235.2</ele><time>2026-05-02T14:38:47.747Z</time></trkpt><trkpt lat="44.0362181" lon="10.6594"><ele>235.4</ele><time>2026-05-02T14:38:48.747Z</time></trkpt><trkpt lat="44.0361463" lon="10.6592768"><ele>235.60000000000002</ele><time>2026-05-02T14:38:49.736Z</time></trkpt><trkpt lat="44.0361179" lon="10.6591528"><ele>235.8</ele><time>2026-05-02T14:38:50.764Z</time></trkpt><trkpt lat="44.0361393" lon="10.6590162"><ele>236.0</ele><time>2026-05-02T14:38:51.738Z</time></trkpt><trkpt lat="44.0361801" lon="10.6588803"><ele>236.0</ele><time>2026-05-02T14:38:52.744Z</time></trkpt><trkpt lat="44.0362286" lon="10.658744"><ele>236.00000000000003</ele><time>2026-05-02T14:38:53.74Z</time></trkpt><trkpt lat="44.0363014" lon="10.6586131"><ele>236.00000000000003</ele><time>2026-05-02T14:38:54.743Z</time></trkpt><trkpt lat="44.0363631" lon="10.6585051"><ele>236.0</ele><time>2026-05-02T14:38:55.737Z</time></trkpt><trkpt lat="44.0364254" lon="10.6584216"><ele>236.0</ele><time>2026-05-02T14:38:56.745Z</time></trkpt><trkpt lat="44.036499" lon="10.6583924"><ele>236.0</ele><time>2026-05-02T14:38:57.744Z</time></trkpt><trkpt lat="44.0365831" lon="10.6583817"><ele>236.0</ele><time>2026-05-02T14:38:58.743Z</time></trkpt><trkpt lat="44.0366985" lon="10.6583703"><ele>236.0</ele><time>2026-05-02T14:38:59.74Z</time></trkpt><trkpt lat="44.0368252" lon="10.658332"><ele>236.0</ele><time>2026-05-02T14:39:00.742Z</time></trkpt><trkpt lat="44.0369462" lon="10.6582508"><ele>236.0</ele><time>2026-05-02T14:39:01.742Z</time></trkpt><trkpt lat="44.0370422" lon="10.6581467"><ele>236.0</ele><time>2026-05-02T14:39:02.741Z</time></trkpt><trkpt lat="44.0371428" lon="10.6580252"><ele>236.0</ele><time>2026-05-02T14:39:03.746Z</time></trkpt><trkpt lat="44.0372206" lon="10.6578657"><ele>236.0</ele><time>2026-05-02T14:39:04.741Z</time></trkpt><trkpt lat="44.0372595" lon="10.6576746"><ele>234.75</ele><time>2026-05-02T14:39:05.752Z</time></trkpt><trkpt lat="44.03725" lon="10.6574268"><ele>233.5</ele><time>2026-05-02T14:39:06.744Z</time></trkpt><trkpt lat="44.037266" lon="10.6572295"><ele>232.25</ele><time>2026-05-02T14:39:07.741Z</time></trkpt><trkpt lat="44.0372505" lon="10.6570654"><ele>231.0</ele><time>2026-05-02T14:39:08.746Z</time></trkpt><trkpt lat="44.0372027" lon="10.656899"><ele>231.0</ele><time>2026-05-02T14:39:09.741Z</time></trkpt><trkpt lat="44.0371405" lon="10.6566968"><ele>231.0</ele><time>2026-05-02T14:39:10.74Z</time></trkpt><trkpt lat="44.0370895" lon="10.6564867"><ele>231.0</ele><time>2026-05-02T14:39:11.741Z</time></trkpt><trkpt lat="44.03707" lon="10.6562653"><ele>232.66666666666669</ele><time>2026-05-02T14:39:12.745Z</time></trkpt><trkpt lat="44.0370587" lon="10.6560353"><ele>234.33333333333334</ele><time>2026-05-02T14:39:13.74Z</time></trkpt><trkpt lat="44.037075" lon="10.6557901"><ele>236.0</ele><time>2026-05-02T14:39:14.745Z</time></trkpt><trkpt lat="44.0370853" lon="10.655549"><ele>236.0</ele><time>2026-05-02T14:39:15.766Z</time></trkpt><trkpt lat="44.0370963" lon="10.6553267"><ele>236.0</ele><time>2026-05-02T14:39:16.741Z</time></trkpt><trkpt lat="44.0371111" lon="10.6551343"><ele>236.0</ele><time>2026-05-02T14:39:17.738Z</time></trkpt><trkpt lat="44.0370791" lon="10.6549519"><ele>236.0</ele><time>2026-05-02T14:39:18.742Z</time></trkpt><trkpt lat="44.0370666" lon="10.654763"><ele>237.0</ele><time>2026-05-02T14:39:19.729Z</time></trkpt><trkpt lat="44.0368788" lon="10.6546723"><ele>238.0</ele><time>2026-05-02T14:39:20.742Z</time></trkpt><trkpt lat="44.0367754" lon="10.6544888"><ele>239.0</ele><time>2026-05-02T14:39:21.745Z</time></trkpt><trkpt lat="44.0366877" lon="10.6543163"><ele>240.66666666666669</ele><time>2026-05-02T14:39:22.738Z</time></trkpt><trkpt lat="44.0365675" lon="10.65412"><ele>242.33333333333331</ele><time>2026-05-02T14:39:23.739Z</time></trkpt><trkpt lat="44.0364693" lon="10.6539517"><ele>244.0</ele><time>2026-05-02T14:39:24.747Z</time></trkpt><trkpt lat="44.0363614" lon="10.6537758"><ele>244.0</ele><time>2026-05-02T14:39:25.731Z</time></trkpt><trkpt lat="44.0362638" lon="10.6536851"><ele>244.0</ele><time>2026-05-02T14:39:26.744Z</time></trkpt><trkpt lat="44.0361669" lon="10.6535998"><ele>244.0</ele><time>2026-05-02T14:39:27.745Z</time></trkpt><trkpt lat="44.0360417" lon="10.6535846"><ele>244.0</ele><time>2026-05-02T14:39:28.764Z</time></trkpt><trkpt lat="44.0359036" lon="10.6535757"><ele>245.5</ele><time>2026-05-02T14:39:29.756Z</time></trkpt><trkpt lat="44.0357554" lon="10.6535158"><ele>247.0</ele><time>2026-05-02T14:39:30.736Z</time></trkpt><trkpt lat="44.0356202" lon="10.6534735"><ele>248.5</ele><time>2026-05-02T14:39:31.729Z</time></trkpt><trkpt lat="44.0354832" lon="10.6534407"><ele>250.0</ele><time>2026-05-02T14:39:32.739Z</time></trkpt><trkpt lat="44.0353382" lon="10.6534383"><ele>250.0</ele><time>2026-05-02T14:39:33.738Z</time></trkpt><trkpt lat="44.0352058" lon="10.6533741"><ele>250.0</ele><time>2026-05-02T14:39:34.74Z</time></trkpt><trkpt lat="44.0350793" lon="10.6533832"><ele>250.0</ele><time>2026-05-02T14:39:35.741Z</time></trkpt><trkpt lat="44.0349292" lon="10.6533363"><ele>250.0</ele><time>2026-05-02T14:39:36.741Z</time></trkpt><trkpt lat="44.03478" lon="10.6532925"><ele>247.75</ele><time>2026-05-02T14:39:37.746Z</time></trkpt><trkpt lat="44.0346245" lon="10.6532443"><ele>245.5</ele><time>2026-05-02T14:39:38.741Z</time></trkpt><trkpt lat="44.0344861" lon="10.6531986"><ele>243.25</ele><time>2026-05-02T14:39:39.737Z</time></trkpt><trkpt lat="44.0343592" lon="10.6531504"><ele>241.0</ele><time>2026-05-02T14:39:40.737Z</time></trkpt><trkpt lat="44.034253" lon="10.6530862"><ele>241.0</ele><time>2026-05-02T14:39:41.745Z</time></trkpt><trkpt lat="44.0341717" lon="10.6529422"><ele>241.0</ele><time>2026-05-02T14:39:42.75Z</time></trkpt><trkpt lat="44.0340884" lon="10.6528476"><ele>241.0</ele><time>2026-05-02T14:39:43.743Z</time></trkpt><trkpt lat="44.0340225" lon="10.6527124"><ele>241.0</ele><time>2026-05-02T14:39:44.744Z</time></trkpt><trkpt lat="44.0339863" lon="10.6525623"><ele>239.60000000000002</ele><time>2026-05-02T14:39:45.74Z</time></trkpt><trkpt lat="44.0339704" lon="10.6524292"><ele>238.20000000000002</ele><time>2026-05-02T14:39:46.748Z</time></trkpt><trkpt lat="44.0339989" lon="10.6522779"><ele>236.79999999999998</ele><time>2026-05-02T14:39:47.768Z</time></trkpt><trkpt lat="44.0340284" lon="10.6521502"><ele>235.39999999999998</ele><time>2026-05-02T14:39:48.739Z</time></trkpt><trkpt lat="44.0340845" lon="10.6519943"><ele>234.0</ele><time>2026-05-02T14:39:49.744Z</time></trkpt><trkpt lat="44.0341522" lon="10.6518313"><ele>234.0</ele><time>2026-05-02T14:39:50.743Z</time></trkpt><trkpt lat="44.0342331" lon="10.6516654"><ele>234.0</ele><time>2026-05-02T14:39:51.746Z</time></trkpt><trkpt lat="44.034322" lon="10.6514966"><ele>234.0</ele><time>2026-05-02T14:39:52.738Z</time></trkpt><trkpt lat="44.0344123" lon="10.6513355"><ele>234.0</ele><time>2026-05-02T14:39:53.743Z</time></trkpt><trkpt lat="44.0344977" lon="10.6511865"><ele>232.5</ele><time>2026-05-02T14:39:54.746Z</time></trkpt><trkpt lat="44.0345931" lon="10.6510377"><ele>231.0</ele><time>2026-05-02T14:39:55.737Z</time></trkpt><trkpt lat="44.0346938" lon="10.6508794"><ele>229.5</ele><time>2026-05-02T14:39:56.742Z</time></trkpt><trkpt lat="44.0347933" lon="10.650729"><ele>228.0</ele><time>2026-05-02T14:39:57.739Z</time></trkpt><trkpt lat="44.0348946" lon="10.6505905"><ele>228.5</ele><time>2026-05-02T14:39:58.746Z</time></trkpt><trkpt lat="44.0349988" lon="10.6504672"><ele>229.0</ele><time>2026-05-02T14:39:59.742Z</time></trkpt><trkpt lat="44.0351041" lon="10.6503696"><ele>229.5</ele><time>2026-05-02T14:40:00.746Z</time></trkpt><trkpt lat="44.035232" lon="10.6502992"><ele>230.0</ele><time>2026-05-02T14:40:01.736Z</time></trkpt><trkpt lat="44.0353629" lon="10.6502322"><ele>230.0</ele><time>2026-05-02T14:40:02.747Z</time></trkpt><trkpt lat="44.0354924" lon="10.6501611"><ele>230.0</ele><time>2026-05-02T14:40:03.743Z</time></trkpt><trkpt lat="44.0356354" lon="10.6500832"><ele>230.0</ele><time>2026-05-02T14:40:04.739Z</time></trkpt><trkpt lat="44.0357721" lon="10.6499873"><ele>230.0</ele><time>2026-05-02T14:40:05.744Z</time></trkpt><trkpt lat="44.0359018" lon="10.6498947"><ele>229.33333333333334</ele><time>2026-05-02T14:40:06.738Z</time></trkpt><trkpt lat="44.0360379" lon="10.6497931"><ele>228.66666666666669</ele><time>2026-05-02T14:40:07.744Z</time></trkpt><trkpt lat="44.0361747" lon="10.6496961"><ele>228.0</ele><time>2026-05-02T14:40:08.741Z</time></trkpt><trkpt lat="44.0362919" lon="10.6495731"><ele>228.5</ele><time>2026-05-02T14:40:09.741Z</time></trkpt><trkpt lat="44.0363948" lon="10.6494359"><ele>229.0</ele><time>2026-05-02T14:40:10.739Z</time></trkpt><trkpt lat="44.0364882" lon="10.6492772"><ele>229.5</ele><time>2026-05-02T14:40:11.748Z</time></trkpt><trkpt lat="44.0365681" lon="10.6491054"><ele>230.0</ele><time>2026-05-02T14:40:12.744Z</time></trkpt><trkpt lat="44.0366407" lon="10.6489381"><ele>230.0</ele><time>2026-05-02T14:40:13.739Z</time></trkpt><trkpt lat="44.0367153" lon="10.6487836"><ele>230.0</ele><time>2026-05-02T14:40:14.738Z</time></trkpt><trkpt lat="44.0367569" lon="10.6486322"><ele>230.0</ele><time>2026-05-02T14:40:15.743Z</time></trkpt><trkpt lat="44.0367755" lon="10.6484909"><ele>230.0</ele><time>2026-05-02T14:40:16.742Z</time></trkpt><trkpt lat="44.0367108" lon="10.6483416"><ele>231.25</ele><time>2026-05-02T14:40:17.742Z</time></trkpt><trkpt lat="44.0366441" lon="10.6482098"><ele>232.5</ele><time>2026-05-02T14:40:18.743Z</time></trkpt><trkpt lat="44.0365435" lon="10.6480903"><ele>233.75</ele><time>2026-05-02T14:40:19.744Z</time></trkpt><trkpt lat="44.0364355" lon="10.6479889"><ele>235.0</ele><time>2026-05-02T14:40:20.738Z</time></trkpt><trkpt lat="44.0363211" lon="10.647886"><ele>232.0</ele><time>2026-05-02T14:40:21.753Z</time></trkpt><trkpt lat="44.0362018" lon="10.6477796"><ele>229.0</ele><time>2026-05-02T14:40:22.744Z</time></trkpt><trkpt lat="44.0360643" lon="10.6476437"><ele>226.0</ele><time>2026-05-02T14:40:23.744Z</time></trkpt><trkpt lat="44.0359339" lon="10.6475589"><ele>226.66666666666666</ele><time>2026-05-02T14:40:24.741Z</time></trkpt><trkpt lat="44.035792" lon="10.6474625"><ele>227.33333333333331</ele><time>2026-05-02T14:40:25.747Z</time></trkpt><trkpt lat="44.0356645" lon="10.6474013"><ele>228.0</ele><time>2026-05-02T14:40:26.738Z</time></trkpt><trkpt lat="44.0354851" lon="10.6473635"><ele>228.0</ele><time>2026-05-02T14:40:27.739Z</time></trkpt><trkpt lat="44.0353296" lon="10.6473528"><ele>228.0</ele><time>2026-05-02T14:40:28.741Z</time></trkpt><trkpt lat="44.0352188" lon="10.6473153"><ele>228.0</ele><time>2026-05-02T14:40:29.741Z</time></trkpt><trkpt lat="44.0350801" lon="10.6472946"><ele>228.0</ele><time>2026-05-02T14:40:30.748Z</time></trkpt><trkpt lat="44.0349303" lon="10.6472956"><ele>228.5</ele><time>2026-05-02T14:40:31.742Z</time></trkpt><trkpt lat="44.0347871" lon="10.6472883"><ele>229.0</ele><time>2026-05-02T14:40:32.744Z</time></trkpt><trkpt lat="44.0346512" lon="10.6472643"><ele>229.5</ele><time>2026-05-02T14:40:33.74Z</time></trkpt><trkpt lat="44.0344986" lon="10.6472671"><ele>230.0</ele><time>2026-05-02T14:40:34.752Z</time></trkpt><trkpt lat="44.0343633" lon="10.6472936"><ele>230.0</ele><time>2026-05-02T14:40:35.741Z</time></trkpt><trkpt lat="44.0342268" lon="10.6472634"><ele>230.0</ele><time>2026-05-02T14:40:36.746Z</time></trkpt><trkpt lat="44.034092" lon="10.6472598"><ele>230.0</ele><time>2026-05-02T14:40:37.742Z</time></trkpt><trkpt lat="44.0339469" lon="10.6472537"><ele>230.0</ele><time>2026-05-02T14:40:38.737Z</time></trkpt><trkpt lat="44.0337964" lon="10.6472534"><ele>229.75</ele><time>2026-05-02T14:40:39.748Z</time></trkpt><trkpt lat="44.0336491" lon="10.6472611"><ele>229.5</ele><time>2026-05-02T14:40:40.739Z</time></trkpt><trkpt lat="44.033502" lon="10.6472604"><ele>229.25</ele><time>2026-05-02T14:40:41.738Z</time></trkpt><trkpt lat="44.0333585" lon="10.6472738"><ele>229.0</ele><time>2026-05-02T14:40:42.747Z</time></trkpt><trkpt lat="44.0332236" lon="10.6472701"><ele>229.0</ele><time>2026-05-02T14:40:43.745Z</time></trkpt><trkpt lat="44.033083" lon="10.6472673"><ele>229.0</ele><time>2026-05-02T14:40:44.77Z</time></trkpt><trkpt lat="44.0329389" lon="10.6472749"><ele>229.0</ele><time>2026-05-02T14:40:45.742Z</time></trkpt><trkpt lat="44.032798" lon="10.6473095"><ele>229.0</ele><time>2026-05-02T14:40:46.737Z</time></trkpt><trkpt lat="44.0326294" lon="10.6473668"><ele>229.33333333333331</ele><time>2026-05-02T14:40:47.732Z</time></trkpt><trkpt lat="44.0324588" lon="10.6473849"><ele>229.66666666666669</ele><time>2026-05-02T14:40:48.736Z</time></trkpt><trkpt lat="44.0323508" lon="10.6472445"><ele>230.0</ele><time>2026-05-02T14:40:49.742Z</time></trkpt><trkpt lat="44.0322006" lon="10.647195"><ele>230.0</ele><time>2026-05-02T14:40:50.741Z</time></trkpt><trkpt lat="44.0320675" lon="10.6471381"><ele>230.0</ele><time>2026-05-02T14:40:51.737Z</time></trkpt><trkpt lat="44.0319214" lon="10.6470988"><ele>230.0</ele><time>2026-05-02T14:40:52.741Z</time></trkpt><trkpt lat="44.0317887" lon="10.6470565"><ele>230.0</ele><time>2026-05-02T14:40:53.744Z</time></trkpt><trkpt lat="44.0316523" lon="10.6470148"><ele>231.0</ele><time>2026-05-02T14:40:54.746Z</time></trkpt><trkpt lat="44.0315115" lon="10.64697"><ele>232.0</ele><time>2026-05-02T14:40:55.741Z</time></trkpt><trkpt lat="44.0313768" lon="10.6469222"><ele>233.0</ele><time>2026-05-02T14:40:56.745Z</time></trkpt><trkpt lat="44.0312391" lon="10.6468754"><ele>234.0</ele><time>2026-05-02T14:40:57.744Z</time></trkpt><trkpt lat="44.0311033" lon="10.6468325"><ele>231.0</ele><time>2026-05-02T14:40:58.749Z</time></trkpt><trkpt lat="44.0309745" lon="10.6467919"><ele>228.0</ele><time>2026-05-02T14:40:59.754Z</time></trkpt><trkpt lat="44.0308467" lon="10.6467539"><ele>225.0</ele><time>2026-05-02T14:41:00.743Z</time></trkpt><trkpt lat="44.0307213" lon="10.6467059"><ele>222.0</ele><time>2026-05-02T14:41:01.742Z</time></trkpt><trkpt lat="44.0305964" lon="10.6466677"><ele>222.0</ele><time>2026-05-02T14:41:02.759Z</time></trkpt><trkpt lat="44.0304675" lon="10.6466371"><ele>222.0</ele><time>2026-05-02T14:41:03.744Z</time></trkpt><trkpt lat="44.0303406" lon="10.6466067"><ele>222.0</ele><time>2026-05-02T14:41:04.747Z</time></trkpt><trkpt lat="44.0302136" lon="10.6465642"><ele>222.0</ele><time>2026-05-02T14:41:05.753Z</time></trkpt><trkpt lat="44.0300898" lon="10.6465141"><ele>222.0</ele><time>2026-05-02T14:41:06.744Z</time></trkpt><trkpt lat="44.0299755" lon="10.6464523"><ele>222.0</ele><time>2026-05-02T14:41:07.759Z</time></trkpt><trkpt lat="44.0298666" lon="10.6463642"><ele>222.0</ele><time>2026-05-02T14:41:08.739Z</time></trkpt><trkpt lat="44.029763" lon="10.6462532"><ele>222.0</ele><time>2026-05-02T14:41:09.743Z</time></trkpt><trkpt lat="44.0296565" lon="10.6461493"><ele>221.0</ele><time>2026-05-02T14:41:10.739Z</time></trkpt><trkpt lat="44.029549" lon="10.6460317"><ele>220.0</ele><time>2026-05-02T14:41:11.744Z</time></trkpt><trkpt lat="44.0294307" lon="10.6459123"><ele>219.0</ele><time>2026-05-02T14:41:12.742Z</time></trkpt><trkpt lat="44.0293112" lon="10.6457924"><ele>218.0</ele><time>2026-05-02T14:41:13.744Z</time></trkpt><trkpt lat="44.0291876" lon="10.645673"><ele>218.0</ele><time>2026-05-02T14:41:14.743Z</time></trkpt><trkpt lat="44.0290713" lon="10.6455511"><ele>218.0</ele><time>2026-05-02T14:41:15.745Z</time></trkpt><trkpt lat="44.0289509" lon="10.6454294"><ele>218.0</ele><time>2026-05-02T14:41:16.738Z</time></trkpt><trkpt lat="44.0288322" lon="10.6453148"><ele>218.0</ele><time>2026-05-02T14:41:17.74Z</time></trkpt><trkpt lat="44.0287141" lon="10.6451927"><ele>218.0</ele><time>2026-05-02T14:41:18.737Z</time></trkpt><trkpt lat="44.0285998" lon="10.6450712"><ele>218.0</ele><time>2026-05-02T14:41:19.741Z</time></trkpt><trkpt lat="44.0284861" lon="10.6449565"><ele>218.0</ele><time>2026-05-02T14:41:20.742Z</time></trkpt><trkpt lat="44.0283741" lon="10.6448305"><ele>218.0</ele><time>2026-05-02T14:41:21.749Z</time></trkpt><trkpt lat="44.028267" lon="10.6447157"><ele>217.75</ele><time>2026-05-02T14:41:22.746Z</time></trkpt><trkpt lat="44.028166" lon="10.6446054"><ele>217.5</ele><time>2026-05-02T14:41:23.747Z</time></trkpt><trkpt lat="44.0280551" lon="10.6444974"><ele>217.25</ele><time>2026-05-02T14:41:24.748Z</time></trkpt><trkpt lat="44.0279496" lon="10.6443863"><ele>217.0</ele><time>2026-05-02T14:41:25.744Z</time></trkpt><trkpt lat="44.0278392" lon="10.6442706"><ele>217.0</ele><time>2026-05-02T14:41:26.745Z</time></trkpt><trkpt lat="44.0277341" lon="10.644153"><ele>217.0</ele><time>2026-05-02T14:41:27.746Z</time></trkpt><trkpt lat="44.0276227" lon="10.6440333"><ele>217.0</ele><time>2026-05-02T14:41:28.742Z</time></trkpt><trkpt lat="44.0275153" lon="10.6439049"><ele>217.0</ele><time>2026-05-02T14:41:29.742Z</time></trkpt><trkpt lat="44.0274058" lon="10.6437866"><ele>218.0</ele><time>2026-05-02T14:41:30.741Z</time></trkpt><trkpt lat="44.0272911" lon="10.6436653"><ele>219.0</ele><time>2026-05-02T14:41:31.739Z</time></trkpt><trkpt lat="44.0271844" lon="10.643548"><ele>220.0</ele><time>2026-05-02T14:41:32.744Z</time></trkpt><trkpt lat="44.0270666" lon="10.6434315"><ele>221.0</ele><time>2026-05-02T14:41:33.74Z</time></trkpt><trkpt lat="44.0269538" lon="10.6433101"><ele>221.0</ele><time>2026-05-02T14:41:34.74Z</time></trkpt><trkpt lat="44.0268266" lon="10.6431928"><ele>221.0</ele><time>2026-05-02T14:41:35.74Z</time></trkpt><trkpt lat="44.0267183" lon="10.6430732"><ele>221.0</ele><time>2026-05-02T14:41:36.743Z</time></trkpt><trkpt lat="44.0266006" lon="10.6429497"><ele>221.0</ele><time>2026-05-02T14:41:37.74Z</time></trkpt><trkpt lat="44.0264896" lon="10.6428273"><ele>219.0</ele><time>2026-05-02T14:41:38.742Z</time></trkpt><trkpt lat="44.0263794" lon="10.6427022"><ele>217.0</ele><time>2026-05-02T14:41:39.739Z</time></trkpt><trkpt lat="44.0262697" lon="10.6425855"><ele>215.0</ele><time>2026-05-02T14:41:40.738Z</time></trkpt><trkpt lat="44.0261593" lon="10.6424569"><ele>213.0</ele><time>2026-05-02T14:41:41.738Z</time></trkpt><trkpt lat="44.0260504" lon="10.6423397"><ele>213.0</ele><time>2026-05-02T14:41:42.74Z</time></trkpt><trkpt lat="44.0259367" lon="10.6422219"><ele>213.0</ele><time>2026-05-02T14:41:43.749Z</time></trkpt><trkpt lat="44.0258219" lon="10.6421153"><ele>213.0</ele><time>2026-05-02T14:41:44.751Z</time></trkpt><trkpt lat="44.0256978" lon="10.6420236"><ele>213.0</ele><time>2026-05-02T14:41:45.742Z</time></trkpt><trkpt lat="44.0255695" lon="10.6419413"><ele>212.25</ele><time>2026-05-02T14:41:46.739Z</time></trkpt><trkpt lat="44.0254378" lon="10.6418616"><ele>211.5</ele><time>2026-05-02T14:41:47.747Z</time></trkpt><trkpt lat="44.02531" lon="10.6417766"><ele>210.75</ele><time>2026-05-02T14:41:48.742Z</time></trkpt><trkpt lat="44.0251738" lon="10.6417111"><ele>210.0</ele><time>2026-05-02T14:41:49.746Z</time></trkpt><trkpt lat="44.0250386" lon="10.6416311"><ele>214.5</ele><time>2026-05-02T14:41:50.747Z</time></trkpt><trkpt lat="44.0249137" lon="10.6415679"><ele>219.0</ele><time>2026-05-02T14:41:51.738Z</time></trkpt><trkpt lat="44.0247935" lon="10.6415013"><ele>223.5</ele><time>2026-05-02T14:41:52.739Z</time></trkpt><trkpt lat="44.0246797" lon="10.6414428"><ele>228.0</ele><time>2026-05-02T14:41:53.74Z</time></trkpt><trkpt lat="44.0245671" lon="10.6413694"><ele>228.0</ele><time>2026-05-02T14:41:54.737Z</time></trkpt><trkpt lat="44.0244599" lon="10.6412833"><ele>228.0</ele><time>2026-05-02T14:41:55.745Z</time></trkpt><trkpt lat="44.0243649" lon="10.6411869"><ele>228.0</ele><time>2026-05-02T14:41:56.763Z</time></trkpt><trkpt lat="44.0242782" lon="10.641078"><ele>228.0</ele><time>2026-05-02T14:41:57.74Z</time></trkpt><trkpt lat="44.0242064" lon="10.6409436"><ele>224.25</ele><time>2026-05-02T14:41:58.743Z</time></trkpt><trkpt lat="44.0241443" lon="10.6407948"><ele>220.5</ele><time>2026-05-02T14:41:59.75Z</time></trkpt><trkpt lat="44.0240846" lon="10.6406511"><ele>216.75</ele><time>2026-05-02T14:42:00.74Z</time></trkpt><trkpt lat="44.0240204" lon="10.640501"><ele>213.0</ele><time>2026-05-02T14:42:01.747Z</time></trkpt><trkpt lat="44.0239527" lon="10.640354"><ele>211.75</ele><time>2026-05-02T14:42:02.744Z</time></trkpt><trkpt lat="44.0238816" lon="10.6401945"><ele>210.5</ele><time>2026-05-02T14:42:03.742Z</time></trkpt><trkpt lat="44.0238222" lon="10.6400413"><ele>209.25</ele><time>2026-05-02T14:42:04.747Z</time></trkpt><trkpt lat="44.0237607" lon="10.6398957"><ele>208.0</ele><time>2026-05-02T14:42:05.739Z</time></trkpt><trkpt lat="44.023694" lon="10.639753"><ele>208.0</ele><time>2026-05-02T14:42:06.745Z</time></trkpt><trkpt lat="44.0236275" lon="10.6396007"><ele>208.0</ele><time>2026-05-02T14:42:07.746Z</time></trkpt><trkpt lat="44.0235662" lon="10.6394502"><ele>208.0</ele><time>2026-05-02T14:42:08.74Z</time></trkpt><trkpt lat="44.0234959" lon="10.6392913"><ele>208.0</ele><time>2026-05-02T14:42:09.753Z</time></trkpt><trkpt lat="44.0234231" lon="10.6391256"><ele>209.0</ele><time>2026-05-02T14:42:10.744Z</time></trkpt><trkpt lat="44.0233532" lon="10.6389686"><ele>210.0</ele><time>2026-05-02T14:42:11.744Z</time></trkpt><trkpt lat="44.0232853" lon="10.6388121"><ele>211.0</ele><time>2026-05-02T14:42:12.747Z</time></trkpt><trkpt lat="44.0232192" lon="10.6386492"><ele>212.0</ele><time>2026-05-02T14:42:13.743Z</time></trkpt><trkpt lat="44.023155" lon="10.638502"><ele>212.0</ele><time>2026-05-02T14:42:14.741Z</time></trkpt><trkpt lat="44.0230949" lon="10.6383546"><ele>212.0</ele><time>2026-05-02T14:42:15.745Z</time></trkpt><trkpt lat="44.0230348" lon="10.6382075"><ele>212.0</ele><time>2026-05-02T14:42:16.743Z</time></trkpt><trkpt lat="44.0229726" lon="10.6380695"><ele>212.0</ele><time>2026-05-02T14:42:17.741Z</time></trkpt><trkpt lat="44.0229108" lon="10.6379364"><ele>210.25</ele><time>2026-05-02T14:42:18.746Z</time></trkpt><trkpt lat="44.0228477" lon="10.6377856"><ele>208.5</ele><time>2026-05-02T14:42:19.739Z</time></trkpt><trkpt lat="44.0227833" lon="10.63764"><ele>206.75</ele><time>2026-05-02T14:42:20.744Z</time></trkpt><trkpt lat="44.0227191" lon="10.6374872"><ele>205.0</ele><time>2026-05-02T14:42:21.741Z</time></trkpt><trkpt lat="44.0226532" lon="10.6373321"><ele>205.0</ele><time>2026-05-02T14:42:22.739Z</time></trkpt><trkpt lat="44.0225823" lon="10.6371739"><ele>205.0</ele><time>2026-05-02T14:42:23.745Z</time></trkpt><trkpt lat="44.0225163" lon="10.6370209"><ele>205.0</ele><time>2026-05-02T14:42:24.743Z</time></trkpt><trkpt lat="44.022445" lon="10.6368723"><ele>205.0</ele><time>2026-05-02T14:42:25.764Z</time></trkpt><trkpt lat="44.022389" lon="10.6367299"><ele>204.0</ele><time>2026-05-02T14:42:26.754Z</time></trkpt><trkpt lat="44.0223049" lon="10.6366064"><ele>203.0</ele><time>2026-05-02T14:42:27.744Z</time></trkpt><trkpt lat="44.0222194" lon="10.6364826"><ele>202.0</ele><time>2026-05-02T14:42:28.736Z</time></trkpt><trkpt lat="44.0221377" lon="10.6363701"><ele>201.0</ele><time>2026-05-02T14:42:29.743Z</time></trkpt><trkpt lat="44.0220527" lon="10.6362495"><ele>200.5</ele><time>2026-05-02T14:42:30.74Z</time></trkpt><trkpt lat="44.0219713" lon="10.6361263"><ele>200.0</ele><time>2026-05-02T14:42:31.757Z</time></trkpt><trkpt lat="44.0219037" lon="10.6359884"><ele>199.5</ele><time>2026-05-02T14:42:32.742Z</time></trkpt><trkpt lat="44.0218542" lon="10.6358249"><ele>199.0</ele><time>2026-05-02T14:42:33.741Z</time></trkpt><trkpt lat="44.0218087" lon="10.6356596"><ele>199.0</ele><time>2026-05-02T14:42:34.739Z</time></trkpt><trkpt lat="44.0217676" lon="10.6354901"><ele>199.0</ele><time>2026-05-02T14:42:35.749Z</time></trkpt><trkpt lat="44.0217165" lon="10.6353287"><ele>199.0</ele><time>2026-05-02T14:42:36.742Z</time></trkpt><trkpt lat="44.0216643" lon="10.6351646"><ele>199.0</ele><time>2026-05-02T14:42:37.741Z</time></trkpt><trkpt lat="44.0215893" lon="10.6350061"><ele>200.5</ele><time>2026-05-02T14:42:38.746Z</time></trkpt><trkpt lat="44.0215031" lon="10.6348574"><ele>202.0</ele><time>2026-05-02T14:42:39.743Z</time></trkpt><trkpt lat="44.0214048" lon="10.634715"><ele>203.5</ele><time>2026-05-02T14:42:40.74Z</time></trkpt><trkpt lat="44.021292" lon="10.634588"><ele>205.0</ele><time>2026-05-02T14:42:41.747Z</time></trkpt><trkpt lat="44.0211758" lon="10.6344617"><ele>205.0</ele><time>2026-05-02T14:42:42.742Z</time></trkpt><trkpt lat="44.0210557" lon="10.6343292"><ele>205.0</ele><time>2026-05-02T14:42:43.744Z</time></trkpt><trkpt lat="44.0209332" lon="10.6342039"><ele>205.0</ele><time>2026-05-02T14:42:44.74Z</time></trkpt><trkpt lat="44.0208126" lon="10.6340818"><ele>208.5</ele><time>2026-05-02T14:42:45.741Z</time></trkpt><trkpt lat="44.020705" lon="10.6339614"><ele>212.0</ele><time>2026-05-02T14:42:46.741Z</time></trkpt><trkpt lat="44.0206032" lon="10.6338212"><ele>215.5</ele><time>2026-05-02T14:42:47.741Z</time></trkpt><trkpt lat="44.0205102" lon="10.6336676"><ele>219.0</ele><time>2026-05-02T14:42:48.745Z</time></trkpt><trkpt lat="44.020431" lon="10.6335024"><ele>219.0</ele><time>2026-05-02T14:42:49.757Z</time></trkpt><trkpt lat="44.0203625" lon="10.6333232"><ele>219.0</ele><time>2026-05-02T14:42:50.747Z</time></trkpt><trkpt lat="44.0202965" lon="10.6331415"><ele>219.0</ele><time>2026-05-02T14:42:51.738Z</time></trkpt><trkpt lat="44.020228" lon="10.6329476"><ele>219.0</ele><time>2026-05-02T14:42:52.749Z</time></trkpt><trkpt lat="44.0201667" lon="10.6327475"><ele>213.5</ele><time>2026-05-02T14:42:53.738Z</time></trkpt><trkpt lat="44.0201048" lon="10.6325529"><ele>208.0</ele><time>2026-05-02T14:42:54.742Z</time></trkpt><trkpt lat="44.0200476" lon="10.6323674"><ele>202.5</ele><time>2026-05-02T14:42:55.741Z</time></trkpt><trkpt lat="44.0199878" lon="10.6321846"><ele>197.0</ele><time>2026-05-02T14:42:56.742Z</time></trkpt><trkpt lat="44.0199377" lon="10.6319983"><ele>204.5</ele><time>2026-05-02T14:42:57.748Z</time></trkpt><trkpt lat="44.0198927" lon="10.6318156"><ele>212.0</ele><time>2026-05-02T14:42:58.746Z</time></trkpt><trkpt lat="44.0198475" lon="10.6316185"><ele>219.5</ele><time>2026-05-02T14:42:59.745Z</time></trkpt><trkpt lat="44.0197952" lon="10.6314201"><ele>227.0</ele><time>2026-05-02T14:43:00.739Z</time></trkpt><trkpt lat="44.0197363" lon="10.6312321"><ele>221.0</ele><time>2026-05-02T14:43:01.742Z</time></trkpt><trkpt lat="44.0196618" lon="10.6310467"><ele>215.0</ele><time>2026-05-02T14:43:02.749Z</time></trkpt><trkpt lat="44.0195849" lon="10.630878"><ele>209.0</ele><time>2026-05-02T14:43:03.744Z</time></trkpt><trkpt lat="44.0194852" lon="10.6307095"><ele>209.0</ele><time>2026-05-02T14:43:04.737Z</time></trkpt><trkpt lat="44.019372" lon="10.6305475"><ele>209.0</ele><time>2026-05-02T14:43:05.741Z</time></trkpt><trkpt lat="44.0192589" lon="10.6303739"><ele>209.0</ele><time>2026-05-02T14:43:06.739Z</time></trkpt><trkpt lat="44.0191615" lon="10.630219"><ele>213.5</ele><time>2026-05-02T14:43:07.742Z</time></trkpt><trkpt lat="44.0190558" lon="10.6300795"><ele>218.0</ele><time>2026-05-02T14:43:08.746Z</time></trkpt><trkpt lat="44.0189669" lon="10.6299567"><ele>222.5</ele><time>2026-05-02T14:43:09.742Z</time></trkpt><trkpt lat="44.0188869" lon="10.6298393"><ele>227.0</ele><time>2026-05-02T14:43:10.743Z</time></trkpt><trkpt lat="44.0188126" lon="10.629719"><ele>227.0</ele><time>2026-05-02T14:43:11.742Z</time></trkpt><trkpt lat="44.0187589" lon="10.6295691"><ele>227.0</ele><time>2026-05-02T14:43:12.744Z</time></trkpt><trkpt lat="44.0187005" lon="10.6294205"><ele>227.0</ele><time>2026-05-02T14:43:13.752Z</time></trkpt><trkpt lat="44.0186283" lon="10.6292724"><ele>227.0</ele><time>2026-05-02T14:43:14.737Z</time></trkpt><trkpt lat="44.0185563" lon="10.6291275"><ele>225.6</ele><time>2026-05-02T14:43:15.752Z</time></trkpt><trkpt lat="44.018485" lon="10.6289994"><ele>224.2</ele><time>2026-05-02T14:43:16.74Z</time></trkpt><trkpt lat="44.0184162" lon="10.6288798"><ele>222.8</ele><time>2026-05-02T14:43:17.742Z</time></trkpt><trkpt lat="44.0183258" lon="10.6287905"><ele>221.4</ele><time>2026-05-02T14:43:18.74Z</time></trkpt><trkpt lat="44.0182404" lon="10.628703"><ele>220.0</ele><time>2026-05-02T14:43:19.75Z</time></trkpt><trkpt lat="44.018151" lon="10.6286371"><ele>220.0</ele><time>2026-05-02T14:43:20.739Z</time></trkpt><trkpt lat="44.0180624" lon="10.6285489"><ele>220.0</ele><time>2026-05-02T14:43:21.741Z</time></trkpt><trkpt lat="44.0179851" lon="10.6284451"><ele>220.0</ele><time>2026-05-02T14:43:22.738Z</time></trkpt><trkpt lat="44.0179151" lon="10.6283179"><ele>220.0</ele><time>2026-05-02T14:43:23.746Z</time></trkpt><trkpt lat="44.0178447" lon="10.628183"><ele>220.0</ele><time>2026-05-02T14:43:24.746Z</time></trkpt><trkpt lat="44.0177951" lon="10.6280321"><ele>220.0</ele><time>2026-05-02T14:43:25.738Z</time></trkpt><trkpt lat="44.0177343" lon="10.6278912"><ele>220.0</ele><time>2026-05-02T14:43:26.74Z</time></trkpt><trkpt lat="44.0176621" lon="10.6277521"><ele>220.0</ele><time>2026-05-02T14:43:27.741Z</time></trkpt><trkpt lat="44.0175947" lon="10.6276121"><ele>226.5</ele><time>2026-05-02T14:43:28.744Z</time></trkpt><trkpt lat="44.0175188" lon="10.6274627"><ele>233.0</ele><time>2026-05-02T14:43:29.741Z</time></trkpt><trkpt lat="44.0174358" lon="10.6273096"><ele>239.5</ele><time>2026-05-02T14:43:30.739Z</time></trkpt><trkpt lat="44.017353" lon="10.6271575"><ele>246.0</ele><time>2026-05-02T14:43:31.754Z</time></trkpt><trkpt lat="44.0172727" lon="10.626996"><ele>237.25</ele><time>2026-05-02T14:43:32.742Z</time></trkpt><trkpt lat="44.0171946" lon="10.6268338"><ele>228.5</ele><time>2026-05-02T14:43:33.742Z</time></trkpt><trkpt lat="44.0171013" lon="10.6266742"><ele>219.75</ele><time>2026-05-02T14:43:34.741Z</time></trkpt><trkpt lat="44.017007" lon="10.6265096"><ele>211.0</ele><time>2026-05-02T14:43:35.755Z</time></trkpt><trkpt lat="44.0169174" lon="10.6263536"><ele>211.0</ele><time>2026-05-02T14:43:36.741Z</time></trkpt><trkpt lat="44.0168259" lon="10.6261964"><ele>211.0</ele><time>2026-05-02T14:43:37.743Z</time></trkpt><trkpt lat="44.0167403" lon="10.6260457"><ele>211.0</ele><time>2026-05-02T14:43:38.747Z</time></trkpt><trkpt lat="44.0166634" lon="10.6258896"><ele>211.0</ele><time>2026-05-02T14:43:39.741Z</time></trkpt><trkpt lat="44.0165756" lon="10.6257338"><ele>210.25</ele><time>2026-05-02T14:43:40.741Z</time></trkpt><trkpt lat="44.0164986" lon="10.6255684"><ele>209.5</ele><time>2026-05-02T14:43:41.739Z</time></trkpt><trkpt lat="44.0164297" lon="10.6253926"><ele>208.75</ele><time>2026-05-02T14:43:42.748Z</time></trkpt><trkpt lat="44.0163609" lon="10.6252169"><ele>208.0</ele><time>2026-05-02T14:43:43.74Z</time></trkpt><trkpt lat="44.0162935" lon="10.6250401"><ele>208.0</ele><time>2026-05-02T14:43:44.745Z</time></trkpt><trkpt lat="44.0162217" lon="10.6248623"><ele>208.0</ele><time>2026-05-02T14:43:45.739Z</time></trkpt><trkpt lat="44.0161406" lon="10.6247036"><ele>208.0</ele><time>2026-05-02T14:43:46.74Z</time></trkpt><trkpt lat="44.0160371" lon="10.6245473"><ele>208.0</ele><time>2026-05-02T14:43:47.739Z</time></trkpt><trkpt lat="44.0159398" lon="10.6243944"><ele>206.75</ele><time>2026-05-02T14:43:48.742Z</time></trkpt><trkpt lat="44.0158534" lon="10.624241"><ele>205.5</ele><time>2026-05-02T14:43:49.737Z</time></trkpt><trkpt lat="44.0157587" lon="10.6240973"><ele>204.25</ele><time>2026-05-02T14:43:50.745Z</time></trkpt><trkpt lat="44.0156685" lon="10.6239515"><ele>203.0</ele><time>2026-05-02T14:43:51.746Z</time></trkpt><trkpt lat="44.0155786" lon="10.6238057"><ele>199.0</ele><time>2026-05-02T14:43:52.742Z</time></trkpt><trkpt lat="44.0155002" lon="10.6236466"><ele>195.0</ele><time>2026-05-02T14:43:53.746Z</time></trkpt><trkpt lat="44.0154256" lon="10.6234827"><ele>191.0</ele><time>2026-05-02T14:43:54.745Z</time></trkpt><trkpt lat="44.0153564" lon="10.6233168"><ele>187.0</ele><time>2026-05-02T14:43:55.739Z</time></trkpt><trkpt lat="44.0152834" lon="10.6231644"><ele>187.0</ele><time>2026-05-02T14:43:56.738Z</time></trkpt><trkpt lat="44.0151965" lon="10.623017"><ele>187.0</ele><time>2026-05-02T14:43:57.749Z</time></trkpt><trkpt lat="44.0150953" lon="10.6228842"><ele>187.0</ele><time>2026-05-02T14:43:58.741Z</time></trkpt><trkpt lat="44.0149835" lon="10.6227604"><ele>187.0</ele><time>2026-05-02T14:43:59.741Z</time></trkpt><trkpt lat="44.0148682" lon="10.6226542"><ele>186.0</ele><time>2026-05-02T14:44:00.742Z</time></trkpt><trkpt lat="44.0147433" lon="10.6225735"><ele>185.0</ele><time>2026-05-02T14:44:01.742Z</time></trkpt><trkpt lat="44.014613" lon="10.6225047"><ele>184.0</ele><time>2026-05-02T14:44:02.744Z</time></trkpt><trkpt lat="44.0144735" lon="10.6224576"><ele>183.0</ele><time>2026-05-02T14:44:03.74Z</time></trkpt><trkpt lat="44.0143349" lon="10.6224059"><ele>183.0</ele><time>2026-05-02T14:44:04.741Z</time></trkpt><trkpt lat="44.0141975" lon="10.6223503"><ele>183.0</ele><time>2026-05-02T14:44:05.75Z</time></trkpt><trkpt lat="44.0140516" lon="10.6223078"><ele>183.0</ele><time>2026-05-02T14:44:06.743Z</time></trkpt><trkpt lat="44.0139061" lon="10.6222487"><ele>183.0</ele><time>2026-05-02T14:44:07.741Z</time></trkpt><trkpt lat="44.0137598" lon="10.6221744"><ele>182.66666666666666</ele><time>2026-05-02T14:44:08.745Z</time></trkpt><trkpt lat="44.0136059" lon="10.6220947"><ele>182.33333333333331</ele><time>2026-05-02T14:44:09.744Z</time></trkpt><trkpt lat="44.0134604" lon="10.6220068"><ele>182.0</ele><time>2026-05-02T14:44:10.741Z</time></trkpt><trkpt lat="44.0133094" lon="10.6219153"><ele>182.0</ele><time>2026-05-02T14:44:11.746Z</time></trkpt><trkpt lat="44.0131638" lon="10.6218141"><ele>182.0</ele><time>2026-05-02T14:44:12.738Z</time></trkpt><trkpt lat="44.0130277" lon="10.6217205"><ele>182.0</ele><time>2026-05-02T14:44:13.746Z</time></trkpt><trkpt lat="44.0128873" lon="10.6216246"><ele>182.0</ele><time>2026-05-02T14:44:14.748Z</time></trkpt><trkpt lat="44.0127484" lon="10.6215385"><ele>182.0</ele><time>2026-05-02T14:44:15.742Z</time></trkpt><trkpt lat="44.0126139" lon="10.6214459"><ele>182.0</ele><time>2026-05-02T14:44:16.747Z</time></trkpt><trkpt lat="44.0124865" lon="10.6213633"><ele>182.0</ele><time>2026-05-02T14:44:17.739Z</time></trkpt><trkpt lat="44.0123562" lon="10.6212773"><ele>180.66666666666666</ele><time>2026-05-02T14:44:18.751Z</time></trkpt><trkpt lat="44.0122159" lon="10.6212013"><ele>179.33333333333334</ele><time>2026-05-02T14:44:19.74Z</time></trkpt><trkpt lat="44.0120757" lon="10.6211081"><ele>178.0</ele><time>2026-05-02T14:44:20.739Z</time></trkpt><trkpt lat="44.011937" lon="10.6210196"><ele>178.0</ele><time>2026-05-02T14:44:21.738Z</time></trkpt><trkpt lat="44.0118075" lon="10.6209142"><ele>178.0</ele><time>2026-05-02T14:44:22.742Z</time></trkpt><trkpt lat="44.0116906" lon="10.6207903"><ele>178.0</ele><time>2026-05-02T14:44:23.743Z</time></trkpt><trkpt lat="44.0115786" lon="10.620668"><ele>178.0</ele><time>2026-05-02T14:44:24.739Z</time></trkpt><trkpt lat="44.0114592" lon="10.6205559"><ele>177.75</ele><time>2026-05-02T14:44:25.75Z</time></trkpt><trkpt lat="44.0113443" lon="10.6204355"><ele>177.5</ele><time>2026-05-02T14:44:26.741Z</time></trkpt><trkpt lat="44.011229" lon="10.6203122"><ele>177.25</ele><time>2026-05-02T14:44:27.736Z</time></trkpt><trkpt lat="44.0111114" lon="10.6201934"><ele>177.0</ele><time>2026-05-02T14:44:28.74Z</time></trkpt><trkpt lat="44.0109992" lon="10.6200732"><ele>177.0</ele><time>2026-05-02T14:44:29.747Z</time></trkpt><trkpt lat="44.0108858" lon="10.6199606"><ele>177.0</ele><time>2026-05-02T14:44:30.741Z</time></trkpt><trkpt lat="44.0107775" lon="10.6198499"><ele>177.0</ele><time>2026-05-02T14:44:31.74Z</time></trkpt><trkpt lat="44.0106659" lon="10.6197447"><ele>177.0</ele><time>2026-05-02T14:44:32.743Z</time></trkpt><trkpt lat="44.0105794" lon="10.6196399"><ele>177.25</ele><time>2026-05-02T14:44:33.741Z</time></trkpt><trkpt lat="44.010485" lon="10.6195396"><ele>177.5</ele><time>2026-05-02T14:44:34.762Z</time></trkpt><trkpt lat="44.0103879" lon="10.6194403"><ele>177.75</ele><time>2026-05-02T14:44:35.748Z</time></trkpt><trkpt lat="44.0103008" lon="10.6193396"><ele>178.0</ele><time>2026-05-02T14:44:36.75Z</time></trkpt><trkpt lat="44.010201" lon="10.6192302"><ele>178.0</ele><time>2026-05-02T14:44:37.75Z</time></trkpt><trkpt lat="44.0100923" lon="10.6191228"><ele>178.0</ele><time>2026-05-02T14:44:38.745Z</time></trkpt><trkpt lat="44.0099999" lon="10.6190116"><ele>178.0</ele><time>2026-05-02T14:44:39.741Z</time></trkpt><trkpt lat="44.0099171" lon="10.6189212"><ele>178.0</ele><time>2026-05-02T14:44:40.74Z</time></trkpt><trkpt lat="44.0098437" lon="10.6188398"><ele>176.8</ele><time>2026-05-02T14:44:41.75Z</time></trkpt><trkpt lat="44.0097776" lon="10.6187735"><ele>175.60000000000002</ele><time>2026-05-02T14:44:42.74Z</time></trkpt><trkpt lat="44.0096911" lon="10.6186905"><ele>174.39999999999998</ele><time>2026-05-02T14:44:44.741Z</time></trkpt><trkpt lat="44.0096267" lon="10.6186385"><ele>173.2</ele><time>2026-05-02T14:44:46.737Z</time></trkpt><trkpt lat="44.0095064" lon="10.6185698"><ele>172.0</ele><time>2026-05-02T14:44:48.748Z</time></trkpt><trkpt lat="44.0094182" lon="10.6185325"><ele>172.0</ele><time>2026-05-02T14:44:49.739Z</time></trkpt><trkpt lat="44.0093148" lon="10.6185084"><ele>172.0</ele><time>2026-05-02T14:44:50.744Z</time></trkpt><trkpt lat="44.0092028" lon="10.6184908"><ele>172.0</ele><time>2026-05-02T14:44:51.742Z</time></trkpt><trkpt lat="44.0090803" lon="10.6184669"><ele>172.0</ele><time>2026-05-02T14:44:52.739Z</time></trkpt><trkpt lat="44.0089562" lon="10.6184385"><ele>175.0</ele><time>2026-05-02T14:44:53.741Z</time></trkpt><trkpt lat="44.0088585" lon="10.6183577"><ele>178.0</ele><time>2026-05-02T14:44:54.743Z</time></trkpt><trkpt lat="44.0087648" lon="10.6182706"><ele>181.0</ele><time>2026-05-02T14:44:55.738Z</time></trkpt><trkpt lat="44.00866" lon="10.6181876"><ele>184.0</ele><time>2026-05-02T14:44:56.74Z</time></trkpt><trkpt lat="44.0086253" lon="10.6180099"><ele>184.0</ele><time>2026-05-02T14:44:57.744Z</time></trkpt><trkpt lat="44.0086076" lon="10.6178202"><ele>184.0</ele><time>2026-05-02T14:44:58.746Z</time></trkpt><trkpt lat="44.0085883" lon="10.6176208"><ele>184.0</ele><time>2026-05-02T14:44:59.739Z</time></trkpt><trkpt lat="44.0085516" lon="10.6174333"><ele>184.0</ele><time>2026-05-02T14:45:00.75Z</time></trkpt><trkpt lat="44.0085083" lon="10.6172141"><ele>185.33333333333334</ele><time>2026-05-02T14:45:01.741Z</time></trkpt><trkpt lat="44.008461" lon="10.6169968"><ele>186.66666666666666</ele><time>2026-05-02T14:45:02.743Z</time></trkpt><trkpt lat="44.0084004" lon="10.616799"><ele>188.0</ele><time>2026-05-02T14:45:03.747Z</time></trkpt><trkpt lat="44.008351" lon="10.6165818"><ele>196.33333333333331</ele><time>2026-05-02T14:45:04.745Z</time></trkpt><trkpt lat="44.008315" lon="10.6163695"><ele>204.66666666666666</ele><time>2026-05-02T14:45:05.739Z</time></trkpt><trkpt lat="44.0082772" lon="10.6161508"><ele>213.0</ele><time>2026-05-02T14:45:06.741Z</time></trkpt><trkpt lat="44.0082678" lon="10.6159553"><ele>213.0</ele><time>2026-05-02T14:45:07.745Z</time></trkpt><trkpt lat="44.0082855" lon="10.6157516"><ele>213.0</ele><time>2026-05-02T14:45:08.738Z</time></trkpt><trkpt lat="44.0083222" lon="10.6155413"><ele>213.0</ele><time>2026-05-02T14:45:09.742Z</time></trkpt><trkpt lat="44.0083564" lon="10.6153302"><ele>199.33333333333334</ele><time>2026-05-02T14:45:10.746Z</time></trkpt><trkpt lat="44.0083987" lon="10.6151286"><ele>185.66666666666669</ele><time>2026-05-02T14:45:11.743Z</time></trkpt><trkpt lat="44.0084554" lon="10.6149385"><ele>172.0</ele><time>2026-05-02T14:45:12.745Z</time></trkpt><trkpt lat="44.0085469" lon="10.6147607"><ele>172.0</ele><time>2026-05-02T14:45:13.745Z</time></trkpt><trkpt lat="44.0086403" lon="10.6145861"><ele>172.0</ele><time>2026-05-02T14:45:14.749Z</time></trkpt><trkpt lat="44.0087334" lon="10.6144048"><ele>172.0</ele><time>2026-05-02T14:45:15.744Z</time></trkpt><trkpt lat="44.0088218" lon="10.6142087"><ele>175.66666666666669</ele><time>2026-05-02T14:45:16.755Z</time></trkpt><trkpt lat="44.0088497" lon="10.613964"><ele>179.33333333333334</ele><time>2026-05-02T14:45:17.74Z</time></trkpt><trkpt lat="44.0088793" lon="10.6137099"><ele>183.0</ele><time>2026-05-02T14:45:18.745Z</time></trkpt><trkpt lat="44.0089099" lon="10.613483"><ele>187.33333333333331</ele><time>2026-05-02T14:45:19.737Z</time></trkpt><trkpt lat="44.0089641" lon="10.6132511"><ele>191.66666666666666</ele><time>2026-05-02T14:45:20.752Z</time></trkpt><trkpt lat="44.0090478" lon="10.6130059"><ele>196.0</ele><time>2026-05-02T14:45:21.742Z</time></trkpt><trkpt lat="44.0091527" lon="10.6127827"><ele>191.33333333333331</ele><time>2026-05-02T14:45:22.742Z</time></trkpt><trkpt lat="44.0092602" lon="10.6125657"><ele>186.66666666666666</ele><time>2026-05-02T14:45:23.741Z</time></trkpt><trkpt lat="44.0093801" lon="10.612353"><ele>182.0</ele><time>2026-05-02T14:45:24.74Z</time></trkpt><trkpt lat="44.0095193" lon="10.6121249"><ele>189.33333333333331</ele><time>2026-05-02T14:45:25.746Z</time></trkpt><trkpt lat="44.0096559" lon="10.6118865"><ele>196.66666666666666</ele><time>2026-05-02T14:45:26.74Z</time></trkpt><trkpt lat="44.0098015" lon="10.6116505"><ele>204.0</ele><time>2026-05-02T14:45:27.744Z</time></trkpt><trkpt lat="44.0099387" lon="10.6114085"><ele>195.33333333333334</ele><time>2026-05-02T14:45:28.739Z</time></trkpt><trkpt lat="44.0100841" lon="10.6111665"><ele>186.66666666666669</ele><time>2026-05-02T14:45:29.742Z</time></trkpt><trkpt lat="44.0102197" lon="10.6109221"><ele>178.0</ele><time>2026-05-02T14:45:30.739Z</time></trkpt><trkpt lat="44.0103479" lon="10.6106724"><ele>178.0</ele><time>2026-05-02T14:45:31.743Z</time></trkpt><trkpt lat="44.0104762" lon="10.6104516"><ele>178.0</ele><time>2026-05-02T14:45:32.742Z</time></trkpt><trkpt lat="44.0105972" lon="10.6102311"><ele>178.0</ele><time>2026-05-02T14:45:33.741Z</time></trkpt><trkpt lat="44.0107084" lon="10.6100078"><ele>175.66666666666669</ele><time>2026-05-02T14:45:34.741Z</time></trkpt><trkpt lat="44.0108043" lon="10.6097776"><ele>173.33333333333334</ele><time>2026-05-02T14:45:35.745Z</time></trkpt><trkpt lat="44.0109027" lon="10.6095356"><ele>171.0</ele><time>2026-05-02T14:45:36.738Z</time></trkpt><trkpt lat="44.0110056" lon="10.6092937"><ele>171.0</ele><time>2026-05-02T14:45:37.739Z</time></trkpt><trkpt lat="44.0111013" lon="10.6090613"><ele>171.0</ele><time>2026-05-02T14:45:38.745Z</time></trkpt><trkpt lat="44.0111796" lon="10.6088464"><ele>171.0</ele><time>2026-05-02T14:45:39.744Z</time></trkpt><trkpt lat="44.0112476" lon="10.6086248"><ele>172.0</ele><time>2026-05-02T14:45:40.748Z</time></trkpt><trkpt lat="44.0112928" lon="10.6083999"><ele>173.0</ele><time>2026-05-02T14:45:41.741Z</time></trkpt><trkpt lat="44.0113379" lon="10.6081775"><ele>174.0</ele><time>2026-05-02T14:45:42.746Z</time></trkpt><trkpt lat="44.011377" lon="10.6079512"><ele>174.33333333333334</ele><time>2026-05-02T14:45:43.743Z</time></trkpt><trkpt lat="44.0114101" lon="10.6077305"><ele>174.66666666666669</ele><time>2026-05-02T14:45:44.744Z</time></trkpt><trkpt lat="44.0114283" lon="10.6075249"><ele>175.0</ele><time>2026-05-02T14:45:45.748Z</time></trkpt><trkpt lat="44.0114015" lon="10.6073256"><ele>175.0</ele><time>2026-05-02T14:45:46.745Z</time></trkpt><trkpt lat="44.0113661" lon="10.6071198"><ele>175.0</ele><time>2026-05-02T14:45:47.741Z</time></trkpt><trkpt lat="44.011323" lon="10.6069007"><ele>175.0</ele><time>2026-05-02T14:45:48.738Z</time></trkpt><trkpt lat="44.0112832" lon="10.6066696"><ele>175.66666666666669</ele><time>2026-05-02T14:45:49.74Z</time></trkpt><trkpt lat="44.0112498" lon="10.6064414"><ele>176.33333333333334</ele><time>2026-05-02T14:45:50.742Z</time></trkpt><trkpt lat="44.011238" lon="10.6062142"><ele>177.0</ele><time>2026-05-02T14:45:51.752Z</time></trkpt><trkpt lat="44.0112495" lon="10.6059886"><ele>179.33333333333334</ele><time>2026-05-02T14:45:52.749Z</time></trkpt><trkpt lat="44.0112918" lon="10.6057595"><ele>181.66666666666669</ele><time>2026-05-02T14:45:53.742Z</time></trkpt><trkpt lat="44.0113487" lon="10.6055228"><ele>184.0</ele><time>2026-05-02T14:45:54.736Z</time></trkpt><trkpt lat="44.011401" lon="10.6052648"><ele>188.0</ele><time>2026-05-02T14:45:55.739Z</time></trkpt><trkpt lat="44.0114348" lon="10.6049968"><ele>192.0</ele><time>2026-05-02T14:45:56.739Z</time></trkpt><trkpt lat="44.0114683" lon="10.604723"><ele>196.0</ele><time>2026-05-02T14:45:57.757Z</time></trkpt><trkpt lat="44.0114735" lon="10.6044293"><ele>200.66666666666666</ele><time>2026-05-02T14:45:58.741Z</time></trkpt><trkpt lat="44.0114644" lon="10.6041381"><ele>205.33333333333331</ele><time>2026-05-02T14:45:59.742Z</time></trkpt><trkpt lat="44.0114601" lon="10.603853"><ele>210.0</ele><time>2026-05-02T14:46:00.743Z</time></trkpt><trkpt lat="44.0114706" lon="10.6035902"><ele>215.0</ele><time>2026-05-02T14:46:01.739Z</time></trkpt><trkpt lat="44.0114998" lon="10.6033448"><ele>220.0</ele><time>2026-05-02T14:46:02.751Z</time></trkpt><trkpt lat="44.0115405" lon="10.6030948"><ele>225.0</ele><time>2026-05-02T14:46:03.74Z</time></trkpt><trkpt lat="44.0115926" lon="10.6028428"><ele>230.66666666666669</ele><time>2026-05-02T14:46:04.739Z</time></trkpt><trkpt lat="44.0116465" lon="10.6025875"><ele>236.33333333333334</ele><time>2026-05-02T14:46:05.737Z</time></trkpt><trkpt lat="44.0117192" lon="10.6023376"><ele>242.0</ele><time>2026-05-02T14:46:06.758Z</time></trkpt><trkpt lat="44.0118035" lon="10.6020903"><ele>224.66666666666669</ele><time>2026-05-02T14:46:07.742Z</time></trkpt><trkpt lat="44.0118901" lon="10.6018351"><ele>207.33333333333334</ele><time>2026-05-02T14:46:08.743Z</time></trkpt><trkpt lat="44.0119919" lon="10.6015905"><ele>190.0</ele><time>2026-05-02T14:46:09.741Z</time></trkpt><trkpt lat="44.0120923" lon="10.6013334"><ele>195.33333333333334</ele><time>2026-05-02T14:46:10.739Z</time></trkpt><trkpt lat="44.0121976" lon="10.6010744"><ele>200.66666666666669</ele><time>2026-05-02T14:46:11.738Z</time></trkpt><trkpt lat="44.0122876" lon="10.6008281"><ele>206.0</ele><time>2026-05-02T14:46:12.746Z</time></trkpt><trkpt lat="44.0123673" lon="10.6005882"><ele>206.0</ele><time>2026-05-02T14:46:13.739Z</time></trkpt><trkpt lat="44.0124263" lon="10.6003504"><ele>206.0</ele><time>2026-05-02T14:46:14.737Z</time></trkpt><trkpt lat="44.012478" lon="10.600129"><ele>206.0</ele><time>2026-05-02T14:46:15.741Z</time></trkpt><trkpt lat="44.0125097" lon="10.5999211"><ele>204.0</ele><time>2026-05-02T14:46:16.736Z</time></trkpt><trkpt lat="44.0125241" lon="10.5997194"><ele>202.0</ele><time>2026-05-02T14:46:17.751Z</time></trkpt><trkpt lat="44.0125095" lon="10.5995027"><ele>200.0</ele><time>2026-05-02T14:46:18.738Z</time></trkpt><trkpt lat="44.0124886" lon="10.5992861"><ele>200.0</ele><time>2026-05-02T14:46:19.742Z</time></trkpt><trkpt lat="44.0124723" lon="10.5990818"><ele>200.0</ele><time>2026-05-02T14:46:20.743Z</time></trkpt><trkpt lat="44.012458" lon="10.5988845"><ele>200.0</ele><time>2026-05-02T14:46:21.74Z</time></trkpt><trkpt lat="44.012428" lon="10.5987053"><ele>200.0</ele><time>2026-05-02T14:46:22.745Z</time></trkpt><trkpt lat="44.0123987" lon="10.598526"><ele>196.5</ele><time>2026-05-02T14:46:23.74Z</time></trkpt><trkpt lat="44.0123632" lon="10.5983602"><ele>193.0</ele><time>2026-05-02T14:46:24.738Z</time></trkpt><trkpt lat="44.0123224" lon="10.5981966"><ele>189.5</ele><time>2026-05-02T14:46:25.738Z</time></trkpt><trkpt lat="44.0122791" lon="10.5980214"><ele>186.0</ele><time>2026-05-02T14:46:26.741Z</time></trkpt><trkpt lat="44.0122353" lon="10.5978559"><ele>181.75</ele><time>2026-05-02T14:46:27.739Z</time></trkpt><trkpt lat="44.0121897" lon="10.5976957"><ele>177.5</ele><time>2026-05-02T14:46:28.742Z</time></trkpt><trkpt lat="44.0121438" lon="10.5975312"><ele>173.25</ele><time>2026-05-02T14:46:29.741Z</time></trkpt><trkpt lat="44.0121012" lon="10.5973841"><ele>169.0</ele><time>2026-05-02T14:46:30.737Z</time></trkpt><trkpt lat="44.0120663" lon="10.5972256"><ele>169.0</ele><time>2026-05-02T14:46:31.746Z</time></trkpt><trkpt lat="44.0120294" lon="10.5970649"><ele>169.0</ele><time>2026-05-02T14:46:32.736Z</time></trkpt><trkpt lat="44.0119986" lon="10.596899"><ele>169.0</ele><time>2026-05-02T14:46:33.743Z</time></trkpt><trkpt lat="44.0119538" lon="10.5967387"><ele>169.0</ele><time>2026-05-02T14:46:34.74Z</time></trkpt><trkpt lat="44.0119024" lon="10.5965805"><ele>166.25</ele><time>2026-05-02T14:46:35.738Z</time></trkpt><trkpt lat="44.0118622" lon="10.5964173"><ele>163.5</ele><time>2026-05-02T14:46:36.746Z</time></trkpt><trkpt lat="44.0118194" lon="10.5962498"><ele>160.75</ele><time>2026-05-02T14:46:37.743Z</time></trkpt><trkpt lat="44.0117761" lon="10.5960957"><ele>158.0</ele><time>2026-05-02T14:46:38.747Z</time></trkpt><trkpt lat="44.0117334" lon="10.5959309"><ele>156.75</ele><time>2026-05-02T14:46:39.74Z</time></trkpt><trkpt lat="44.0116869" lon="10.5957593"><ele>155.5</ele><time>2026-05-02T14:46:40.74Z</time></trkpt><trkpt lat="44.011641" lon="10.595584"><ele>154.25</ele><time>2026-05-02T14:46:41.751Z</time></trkpt><trkpt lat="44.0116004" lon="10.5954047"><ele>153.0</ele><time>2026-05-02T14:46:42.74Z</time></trkpt><trkpt lat="44.0115546" lon="10.5952284"><ele>161.0</ele><time>2026-05-02T14:46:43.737Z</time></trkpt><trkpt lat="44.0115078" lon="10.5950488"><ele>169.0</ele><time>2026-05-02T14:46:44.746Z</time></trkpt><trkpt lat="44.0114666" lon="10.5948725"><ele>177.0</ele><time>2026-05-02T14:46:45.739Z</time></trkpt><trkpt lat="44.0114206" lon="10.5947082"><ele>185.0</ele><time>2026-05-02T14:46:46.752Z</time></trkpt><trkpt lat="44.0113776" lon="10.594545"><ele>180.5</ele><time>2026-05-02T14:46:47.74Z</time></trkpt><trkpt lat="44.0113226" lon="10.5943855"><ele>176.0</ele><time>2026-05-02T14:46:48.744Z</time></trkpt><trkpt lat="44.0112606" lon="10.5942299"><ele>171.5</ele><time>2026-05-02T14:46:49.746Z</time></trkpt><trkpt lat="44.0111802" lon="10.5940823"><ele>167.0</ele><time>2026-05-02T14:46:50.74Z</time></trkpt><trkpt lat="44.0110999" lon="10.5939264"><ele>167.0</ele><time>2026-05-02T14:46:51.739Z</time></trkpt><trkpt lat="44.011021" lon="10.5937568"><ele>167.0</ele><time>2026-05-02T14:46:52.739Z</time></trkpt><trkpt lat="44.0109348" lon="10.5935899"><ele>167.0</ele><time>2026-05-02T14:46:53.739Z</time></trkpt><trkpt lat="44.0108254" lon="10.5934421"><ele>167.0</ele><time>2026-05-02T14:46:54.736Z</time></trkpt><trkpt lat="44.010706" lon="10.5933137"><ele>169.33333333333331</ele><time>2026-05-02T14:46:55.749Z</time></trkpt><trkpt lat="44.0105791" lon="10.5931834"><ele>171.66666666666666</ele><time>2026-05-02T14:46:56.74Z</time></trkpt><trkpt lat="44.0104405" lon="10.593055"><ele>174.0</ele><time>2026-05-02T14:46:57.743Z</time></trkpt><trkpt lat="44.0102982" lon="10.5929299"><ele>172.66666666666666</ele><time>2026-05-02T14:46:58.741Z</time></trkpt><trkpt lat="44.0101601" lon="10.5928035"><ele>171.33333333333331</ele><time>2026-05-02T14:46:59.736Z</time></trkpt><trkpt lat="44.010005" lon="10.5926665"><ele>170.0</ele><time>2026-05-02T14:47:00.744Z</time></trkpt><trkpt lat="44.0098574" lon="10.5925141"><ele>170.0</ele><time>2026-05-02T14:47:01.739Z</time></trkpt><trkpt lat="44.0096985" lon="10.5923631"><ele>170.0</ele><time>2026-05-02T14:47:02.74Z</time></trkpt><trkpt lat="44.0095262" lon="10.5922049"><ele>170.0</ele><time>2026-05-02T14:47:03.74Z</time></trkpt><trkpt lat="44.0093669" lon="10.5920738"><ele>168.0</ele><time>2026-05-02T14:47:04.743Z</time></trkpt><trkpt lat="44.0092143" lon="10.5919326"><ele>166.0</ele><time>2026-05-02T14:47:05.738Z</time></trkpt><trkpt lat="44.0090689" lon="10.5917841"><ele>164.0</ele><time>2026-05-02T14:47:06.744Z</time></trkpt><trkpt lat="44.0089158" lon="10.5916468"><ele>164.0</ele><time>2026-05-02T14:47:07.744Z</time></trkpt><trkpt lat="44.0087841" lon="10.5915139"><ele>164.0</ele><time>2026-05-02T14:47:08.74Z</time></trkpt><trkpt lat="44.0086418" lon="10.5913814"><ele>164.0</ele><time>2026-05-02T14:47:09.74Z</time></trkpt><trkpt lat="44.0085116" lon="10.5912504"><ele>162.0</ele><time>2026-05-02T14:47:10.748Z</time></trkpt><trkpt lat="44.0083804" lon="10.5911184"><ele>160.0</ele><time>2026-05-02T14:47:11.746Z</time></trkpt><trkpt lat="44.0082487" lon="10.5909739"><ele>158.0</ele><time>2026-05-02T14:47:12.744Z</time></trkpt><trkpt lat="44.0081086" lon="10.590842"><ele>158.0</ele><time>2026-05-02T14:47:13.738Z</time></trkpt><trkpt lat="44.007975" lon="10.5907042"><ele>158.0</ele><time>2026-05-02T14:47:14.744Z</time></trkpt><trkpt lat="44.0078468" lon="10.5905678"><ele>158.0</ele><time>2026-05-02T14:47:15.736Z</time></trkpt><trkpt lat="44.0077132" lon="10.5904287"><ele>156.0</ele><time>2026-05-02T14:47:16.738Z</time></trkpt><trkpt lat="44.0075766" lon="10.5902843"><ele>154.0</ele><time>2026-05-02T14:47:17.743Z</time></trkpt><trkpt lat="44.0074325" lon="10.5901478"><ele>152.0</ele><time>2026-05-02T14:47:18.738Z</time></trkpt><trkpt lat="44.0072898" lon="10.5900001"><ele>152.0</ele><time>2026-05-02T14:47:19.744Z</time></trkpt><trkpt lat="44.0071517" lon="10.5898529"><ele>152.0</ele><time>2026-05-02T14:47:20.744Z</time></trkpt><trkpt lat="44.007016" lon="10.5897078"><ele>152.0</ele><time>2026-05-02T14:47:21.738Z</time></trkpt><trkpt lat="44.006877" lon="10.5895611"><ele>150.66666666666666</ele><time>2026-05-02T14:47:22.744Z</time></trkpt><trkpt lat="44.0067397" lon="10.5894138"><ele>149.33333333333334</ele><time>2026-05-02T14:47:23.739Z</time></trkpt><trkpt lat="44.0066005" lon="10.5892662"><ele>148.0</ele><time>2026-05-02T14:47:24.742Z</time></trkpt><trkpt lat="44.0064566" lon="10.589115"><ele>148.0</ele><time>2026-05-02T14:47:25.743Z</time></trkpt><trkpt lat="44.0063148" lon="10.5889644"><ele>148.0</ele><time>2026-05-02T14:47:26.737Z</time></trkpt><trkpt lat="44.0061761" lon="10.5888103"><ele>148.0</ele><time>2026-05-02T14:47:27.74Z</time></trkpt><trkpt lat="44.0060438" lon="10.5886519"><ele>146.33333333333334</ele><time>2026-05-02T14:47:28.741Z</time></trkpt><trkpt lat="44.0059241" lon="10.5884801"><ele>144.66666666666666</ele><time>2026-05-02T14:47:29.743Z</time></trkpt><trkpt lat="44.0058097" lon="10.5883065"><ele>143.0</ele><time>2026-05-02T14:47:30.746Z</time></trkpt><trkpt lat="44.0057007" lon="10.588116"><ele>144.0</ele><time>2026-05-02T14:47:31.744Z</time></trkpt><trkpt lat="44.0056004" lon="10.5879248"><ele>145.0</ele><time>2026-05-02T14:47:32.739Z</time></trkpt><trkpt lat="44.0054915" lon="10.5877305"><ele>146.0</ele><time>2026-05-02T14:47:33.744Z</time></trkpt><trkpt lat="44.0053859" lon="10.5875306"><ele>146.0</ele><time>2026-05-02T14:47:34.737Z</time></trkpt><trkpt lat="44.0052748" lon="10.5873383"><ele>146.0</ele><time>2026-05-02T14:47:35.738Z</time></trkpt><trkpt lat="44.0051667" lon="10.5871298"><ele>146.0</ele><time>2026-05-02T14:47:36.737Z</time></trkpt><trkpt lat="44.0050513" lon="10.5869341"><ele>152.0</ele><time>2026-05-02T14:47:37.74Z</time></trkpt><trkpt lat="44.0049385" lon="10.5867238"><ele>158.0</ele><time>2026-05-02T14:47:38.739Z</time></trkpt><trkpt lat="44.0048225" lon="10.5865207"><ele>164.0</ele><time>2026-05-02T14:47:39.736Z</time></trkpt><trkpt lat="44.0047103" lon="10.586316"><ele>159.66666666666666</ele><time>2026-05-02T14:47:40.741Z</time></trkpt><trkpt lat="44.0046104" lon="10.5861089"><ele>155.33333333333334</ele><time>2026-05-02T14:47:41.738Z</time></trkpt><trkpt lat="44.0045147" lon="10.5858889"><ele>151.0</ele><time>2026-05-02T14:47:42.769Z</time></trkpt><trkpt lat="44.0044221" lon="10.5856579"><ele>151.0</ele><time>2026-05-02T14:47:43.74Z</time></trkpt><trkpt lat="44.0043289" lon="10.5854202"><ele>151.0</ele><time>2026-05-02T14:47:44.736Z</time></trkpt><trkpt lat="44.0042311" lon="10.5851767"><ele>151.0</ele><time>2026-05-02T14:47:45.746Z</time></trkpt><trkpt lat="44.0041433" lon="10.5849306"><ele>158.0</ele><time>2026-05-02T14:47:46.739Z</time></trkpt><trkpt lat="44.0040512" lon="10.5846891"><ele>165.0</ele><time>2026-05-02T14:47:47.738Z</time></trkpt><trkpt lat="44.0039482" lon="10.5844309"><ele>172.0</ele><time>2026-05-02T14:47:48.745Z</time></trkpt><trkpt lat="44.003851" lon="10.584173"><ele>172.0</ele><time>2026-05-02T14:47:49.746Z</time></trkpt><trkpt lat="44.003764" lon="10.5839351"><ele>172.0</ele><time>2026-05-02T14:47:50.744Z</time></trkpt><trkpt lat="44.0036657" lon="10.583696"><ele>172.0</ele><time>2026-05-02T14:47:51.757Z</time></trkpt><trkpt lat="44.0035864" lon="10.5834533"><ele>165.0</ele><time>2026-05-02T14:47:52.744Z</time></trkpt><trkpt lat="44.0035145" lon="10.5832135"><ele>158.0</ele><time>2026-05-02T14:47:53.739Z</time></trkpt><trkpt lat="44.0034418" lon="10.5829712"><ele>151.0</ele><time>2026-05-02T14:47:54.755Z</time></trkpt><trkpt lat="44.0033753" lon="10.5827288"><ele>159.33333333333334</ele><time>2026-05-02T14:47:55.741Z</time></trkpt><trkpt lat="44.0033178" lon="10.5824994"><ele>167.66666666666666</ele><time>2026-05-02T14:47:56.74Z</time></trkpt><trkpt lat="44.003266" lon="10.5822761"><ele>176.0</ele><time>2026-05-02T14:47:57.747Z</time></trkpt><trkpt lat="44.003228" lon="10.5820542"><ele>171.33333333333331</ele><time>2026-05-02T14:47:58.739Z</time></trkpt><trkpt lat="44.0031972" lon="10.5818322"><ele>166.66666666666666</ele><time>2026-05-02T14:47:59.736Z</time></trkpt><trkpt lat="44.0031703" lon="10.5816156"><ele>162.0</ele><time>2026-05-02T14:48:00.749Z</time></trkpt><trkpt lat="44.0031358" lon="10.5813958"><ele>158.5</ele><time>2026-05-02T14:48:01.745Z</time></trkpt><trkpt lat="44.0031136" lon="10.5811813"><ele>155.0</ele><time>2026-05-02T14:48:02.743Z</time></trkpt><trkpt lat="44.0030899" lon="10.5809814"><ele>151.5</ele><time>2026-05-02T14:48:03.742Z</time></trkpt><trkpt lat="44.0030774" lon="10.5807962"><ele>148.0</ele><time>2026-05-02T14:48:04.74Z</time></trkpt><trkpt lat="44.0030764" lon="10.5806193"><ele>148.0</ele><time>2026-05-02T14:48:05.742Z</time></trkpt><trkpt lat="44.0030874" lon="10.5804406"><ele>148.0</ele><time>2026-05-02T14:48:06.744Z</time></trkpt><trkpt lat="44.0031321" lon="10.5802668"><ele>148.0</ele><time>2026-05-02T14:48:07.748Z</time></trkpt><trkpt lat="44.003193" lon="10.5800758"><ele>148.0</ele><time>2026-05-02T14:48:08.735Z</time></trkpt><trkpt lat="44.0032714" lon="10.5798915"><ele>147.66666666666669</ele><time>2026-05-02T14:48:09.74Z</time></trkpt><trkpt lat="44.0033707" lon="10.5797133"><ele>147.33333333333334</ele><time>2026-05-02T14:48:10.737Z</time></trkpt><trkpt lat="44.0034776" lon="10.5795244"><ele>147.0</ele><time>2026-05-02T14:48:11.74Z</time></trkpt><trkpt lat="44.0035934" lon="10.5793318"><ele>147.0</ele><time>2026-05-02T14:48:12.741Z</time></trkpt><trkpt lat="44.0037171" lon="10.5791401"><ele>147.0</ele><time>2026-05-02T14:48:13.738Z</time></trkpt><trkpt lat="44.0038299" lon="10.5789528"><ele>147.0</ele><time>2026-05-02T14:48:14.737Z</time></trkpt><trkpt lat="44.0039453" lon="10.5787787"><ele>146.33333333333334</ele><time>2026-05-02T14:48:15.738Z</time></trkpt><trkpt lat="44.0040603" lon="10.5786168"><ele>145.66666666666669</ele><time>2026-05-02T14:48:16.739Z</time></trkpt><trkpt lat="44.0041765" lon="10.5784687"><ele>145.0</ele><time>2026-05-02T14:48:17.744Z</time></trkpt><trkpt lat="44.0042832" lon="10.5783331"><ele>145.0</ele><time>2026-05-02T14:48:18.741Z</time></trkpt><trkpt lat="44.004399" lon="10.578238"><ele>145.0</ele><time>2026-05-02T14:48:19.738Z</time></trkpt><trkpt lat="44.0045135" lon="10.578157"><ele>145.0</ele><time>2026-05-02T14:48:20.74Z</time></trkpt><trkpt lat="44.0046271" lon="10.5781024"><ele>145.0</ele><time>2026-05-02T14:48:21.744Z</time></trkpt><trkpt lat="44.0047804" lon="10.5780878"><ele>145.0</ele><time>2026-05-02T14:48:22.738Z</time></trkpt><trkpt lat="44.004921" lon="10.5780902"><ele>145.0</ele><time>2026-05-02T14:48:23.75Z</time></trkpt><trkpt lat="44.0050726" lon="10.5781008"><ele>145.0</ele><time>2026-05-02T14:48:24.737Z</time></trkpt><trkpt lat="44.0052251" lon="10.5781155"><ele>145.0</ele><time>2026-05-02T14:48:25.744Z</time></trkpt><trkpt lat="44.0053778" lon="10.57812"><ele>140.5</ele><time>2026-05-02T14:48:26.745Z</time></trkpt><trkpt lat="44.0055316" lon="10.5781249"><ele>136.0</ele><time>2026-05-02T14:48:27.745Z</time></trkpt><trkpt lat="44.0056677" lon="10.5781317"><ele>131.5</ele><time>2026-05-02T14:48:28.744Z</time></trkpt><trkpt lat="44.0057961" lon="10.5781403"><ele>127.0</ele><time>2026-05-02T14:48:29.738Z</time></trkpt><trkpt lat="44.0059093" lon="10.5781497"><ele>126.8</ele><time>2026-05-02T14:48:30.74Z</time></trkpt><trkpt lat="44.0060272" lon="10.5781594"><ele>126.6</ele><time>2026-05-02T14:48:31.741Z</time></trkpt><trkpt lat="44.0061315" lon="10.5781521"><ele>126.39999999999999</ele><time>2026-05-02T14:48:32.743Z</time></trkpt><trkpt lat="44.0062336" lon="10.5781677"><ele>126.19999999999999</ele><time>2026-05-02T14:48:33.736Z</time></trkpt><trkpt lat="44.0063282" lon="10.578182"><ele>126.0</ele><time>2026-05-02T14:48:34.742Z</time></trkpt><trkpt lat="44.0064137" lon="10.5781917"><ele>126.0</ele><time>2026-05-02T14:48:35.744Z</time></trkpt><trkpt lat="44.006502" lon="10.578204"><ele>126.0</ele><time>2026-05-02T14:48:36.744Z</time></trkpt><trkpt lat="44.0065838" lon="10.5782208"><ele>126.0</ele><time>2026-05-02T14:48:37.739Z</time></trkpt><trkpt lat="44.0066627" lon="10.5782149"><ele>126.0</ele><time>2026-05-02T14:48:38.736Z</time></trkpt><trkpt lat="44.0067415" lon="10.5782064"><ele>126.0</ele><time>2026-05-02T14:48:39.743Z</time></trkpt><trkpt lat="44.0068131" lon="10.5782141"><ele>126.0</ele><time>2026-05-02T14:48:40.742Z</time></trkpt><trkpt lat="44.0068803" lon="10.5782322"><ele>127.8</ele><time>2026-05-02T14:48:41.747Z</time></trkpt><trkpt lat="44.0069492" lon="10.5782355"><ele>129.6</ele><time>2026-05-02T14:48:42.741Z</time></trkpt><trkpt lat="44.0070471" lon="10.5782449"><ele>131.4</ele><time>2026-05-02T14:48:44.74Z</time></trkpt><trkpt lat="44.0071634" lon="10.578252"><ele>133.2</ele><time>2026-05-02T14:48:52.738Z</time></trkpt><trkpt lat="44.0072459" lon="10.5782975"><ele>135.0</ele><time>2026-05-02T14:49:07.74Z</time></trkpt><trkpt lat="44.0074064" lon="10.5782906"><ele>137.25</ele><time>2026-05-02T14:51:22.739Z</time></trkpt><trkpt lat="44.0075195" lon="10.5783077"><ele>139.5</ele><time>2026-05-02T14:51:23.739Z</time></trkpt><trkpt lat="44.0076221" lon="10.5782989"><ele>141.75</ele><time>2026-05-02T14:51:24.746Z</time></trkpt><trkpt lat="44.0077392" lon="10.5783049"><ele>144.0</ele><time>2026-05-02T14:51:25.738Z</time></trkpt><trkpt lat="44.007867" lon="10.5783305"><ele>144.0</ele><time>2026-05-02T14:51:26.736Z</time></trkpt><trkpt lat="44.0079883" lon="10.5783584"><ele>144.0</ele><time>2026-05-02T14:51:27.739Z</time></trkpt><trkpt lat="44.0081094" lon="10.5783689"><ele>144.0</ele><time>2026-05-02T14:51:28.741Z</time></trkpt><trkpt lat="44.0082238" lon="10.578396"><ele>144.0</ele><time>2026-05-02T14:51:29.741Z</time></trkpt><trkpt lat="44.0083322" lon="10.5784108"><ele>141.5</ele><time>2026-05-02T14:51:30.74Z</time></trkpt><trkpt lat="44.0084485" lon="10.5784234"><ele>139.0</ele><time>2026-05-02T14:51:31.74Z</time></trkpt><trkpt lat="44.0085856" lon="10.5783721"><ele>136.5</ele><time>2026-05-02T14:51:32.738Z</time></trkpt><trkpt lat="44.0086896" lon="10.578335"><ele>134.0</ele><time>2026-05-02T14:51:33.738Z</time></trkpt><trkpt lat="44.008816" lon="10.5782738"><ele>134.0</ele><time>2026-05-02T14:51:34.739Z</time></trkpt><trkpt lat="44.0089128" lon="10.5782409"><ele>134.0</ele><time>2026-05-02T14:51:35.74Z</time></trkpt><trkpt lat="44.0090132" lon="10.5782269"><ele>134.0</ele><time>2026-05-02T14:51:36.737Z</time></trkpt><trkpt lat="44.0091167" lon="10.5782521"><ele>134.0</ele><time>2026-05-02T14:51:37.743Z</time></trkpt><trkpt lat="44.0092336" lon="10.5781765"><ele>134.0</ele><time>2026-05-02T14:51:38.743Z</time></trkpt><trkpt lat="44.0093398" lon="10.5781259"><ele>133.6</ele><time>2026-05-02T14:51:39.739Z</time></trkpt><trkpt lat="44.0094442" lon="10.5780618"><ele>133.2</ele><time>2026-05-02T14:51:40.741Z</time></trkpt><trkpt lat="44.0095375" lon="10.5779819"><ele>132.79999999999998</ele><time>2026-05-02T14:51:41.739Z</time></trkpt><trkpt lat="44.0096129" lon="10.577919"><ele>132.4</ele><time>2026-05-02T14:51:42.742Z</time></trkpt><trkpt lat="44.0096653" lon="10.5778268"><ele>132.0</ele><time>2026-05-02T14:51:43.738Z</time></trkpt><trkpt lat="44.0096866" lon="10.5776832"><ele>135.0</ele><time>2026-05-02T14:51:44.738Z</time></trkpt><trkpt lat="44.0096858" lon="10.5775194"><ele>138.0</ele><time>2026-05-02T14:51:45.752Z</time></trkpt><trkpt lat="44.00956" lon="10.5772955"><ele>141.0</ele><time>2026-05-02T14:51:46.739Z</time></trkpt><trkpt lat="44.0095217" lon="10.5771255"><ele>140.66666666666666</ele><time>2026-05-02T14:51:47.748Z</time></trkpt><trkpt lat="44.0094642" lon="10.5769359"><ele>140.33333333333331</ele><time>2026-05-02T14:51:48.736Z</time></trkpt><trkpt lat="44.0094122" lon="10.5767375"><ele>140.0</ele><time>2026-05-02T14:51:49.738Z</time></trkpt><trkpt lat="44.0093675" lon="10.5765379"><ele>140.0</ele><time>2026-05-02T14:51:50.737Z</time></trkpt><trkpt lat="44.00934" lon="10.5763273"><ele>140.0</ele><time>2026-05-02T14:51:51.74Z</time></trkpt><trkpt lat="44.0093124" lon="10.5761145"><ele>140.0</ele><time>2026-05-02T14:51:52.743Z</time></trkpt><trkpt lat="44.0092862" lon="10.5759006"><ele>137.0</ele><time>2026-05-02T14:51:53.743Z</time></trkpt><trkpt lat="44.0092555" lon="10.5756812"><ele>134.0</ele><time>2026-05-02T14:51:54.741Z</time></trkpt><trkpt lat="44.0092361" lon="10.5754492"><ele>131.0</ele><time>2026-05-02T14:51:55.739Z</time></trkpt><trkpt lat="44.0092116" lon="10.575226"><ele>130.66666666666666</ele><time>2026-05-02T14:51:56.747Z</time></trkpt><trkpt lat="44.0091863" lon="10.5750104"><ele>130.33333333333334</ele><time>2026-05-02T14:51:57.736Z</time></trkpt><trkpt lat="44.0091662" lon="10.5747989"><ele>130.0</ele><time>2026-05-02T14:51:58.738Z</time></trkpt><trkpt lat="44.0091322" lon="10.5745686"><ele>143.0</ele><time>2026-05-02T14:51:59.748Z</time></trkpt><trkpt lat="44.0091043" lon="10.5743228"><ele>156.0</ele><time>2026-05-02T14:52:00.739Z</time></trkpt><trkpt lat="44.0090741" lon="10.5740782"><ele>169.0</ele><time>2026-05-02T14:52:01.74Z</time></trkpt><trkpt lat="44.0090486" lon="10.5738389"><ele>168.33333333333334</ele><time>2026-05-02T14:52:02.744Z</time></trkpt><trkpt lat="44.0090097" lon="10.5735814"><ele>167.66666666666666</ele><time>2026-05-02T14:52:03.741Z</time></trkpt><trkpt lat="44.0089583" lon="10.5733325"><ele>167.0</ele><time>2026-05-02T14:52:04.744Z</time></trkpt><trkpt lat="44.0089339" lon="10.5731052"><ele>167.0</ele><time>2026-05-02T14:52:05.75Z</time></trkpt><trkpt lat="44.0089081" lon="10.5728789"><ele>167.0</ele><time>2026-05-02T14:52:06.741Z</time></trkpt><trkpt lat="44.0088798" lon="10.5726627"><ele>167.0</ele><time>2026-05-02T14:52:07.739Z</time></trkpt><trkpt lat="44.008856" lon="10.5724461"><ele>166.66666666666666</ele><time>2026-05-02T14:52:08.743Z</time></trkpt><trkpt lat="44.0088585" lon="10.5722307"><ele>166.33333333333334</ele><time>2026-05-02T14:52:09.745Z</time></trkpt><trkpt lat="44.0088655" lon="10.5720098"><ele>166.0</ele><time>2026-05-02T14:52:10.741Z</time></trkpt><trkpt lat="44.008866" lon="10.5717902"><ele>164.0</ele><time>2026-05-02T14:52:11.739Z</time></trkpt><trkpt lat="44.008852" lon="10.5715726"><ele>162.0</ele><time>2026-05-02T14:52:12.743Z</time></trkpt><trkpt lat="44.0088207" lon="10.5713516"><ele>160.0</ele><time>2026-05-02T14:52:13.736Z</time></trkpt><trkpt lat="44.0087879" lon="10.5711277"><ele>155.66666666666669</ele><time>2026-05-02T14:52:14.743Z</time></trkpt><trkpt lat="44.0087209" lon="10.5708932"><ele>151.33333333333334</ele><time>2026-05-02T14:52:15.741Z</time></trkpt><trkpt lat="44.0086523" lon="10.5706499"><ele>147.0</ele><time>2026-05-02T14:52:16.744Z</time></trkpt><trkpt lat="44.0085978" lon="10.5703985"><ele>144.0</ele><time>2026-05-02T14:52:17.746Z</time></trkpt><trkpt lat="44.008551" lon="10.5701607"><ele>141.0</ele><time>2026-05-02T14:52:18.739Z</time></trkpt><trkpt lat="44.0084914" lon="10.5699001"><ele>138.0</ele><time>2026-05-02T14:52:19.738Z</time></trkpt><trkpt lat="44.0084377" lon="10.5696315"><ele>135.33333333333334</ele><time>2026-05-02T14:52:20.738Z</time></trkpt><trkpt lat="44.0083831" lon="10.5693652"><ele>132.66666666666669</ele><time>2026-05-02T14:52:21.743Z</time></trkpt><trkpt lat="44.0083027" lon="10.5690827"><ele>130.0</ele><time>2026-05-02T14:52:22.739Z</time></trkpt><trkpt lat="44.0082348" lon="10.5688201"><ele>135.33333333333334</ele><time>2026-05-02T14:52:23.741Z</time></trkpt><trkpt lat="44.008153" lon="10.5685599"><ele>140.66666666666666</ele><time>2026-05-02T14:52:24.746Z</time></trkpt><trkpt lat="44.0080634" lon="10.5683222"><ele>146.0</ele><time>2026-05-02T14:52:25.743Z</time></trkpt><trkpt lat="44.0079779" lon="10.5681046"><ele>146.0</ele><time>2026-05-02T14:52:26.736Z</time></trkpt><trkpt lat="44.0078857" lon="10.5678945"><ele>146.0</ele><time>2026-05-02T14:52:27.736Z</time></trkpt><trkpt lat="44.0077972" lon="10.5677053"><ele>146.0</ele><time>2026-05-02T14:52:28.739Z</time></trkpt><trkpt lat="44.0077153" lon="10.5675144"><ele>141.5</ele><time>2026-05-02T14:52:29.745Z</time></trkpt><trkpt lat="44.0076418" lon="10.5673468"><ele>137.0</ele><time>2026-05-02T14:52:30.743Z</time></trkpt><trkpt lat="44.0075679" lon="10.5671781"><ele>132.5</ele><time>2026-05-02T14:52:31.739Z</time></trkpt><trkpt lat="44.0074918" lon="10.5670046"><ele>128.0</ele><time>2026-05-02T14:52:32.741Z</time></trkpt><trkpt lat="44.0074294" lon="10.5668383"><ele>128.0</ele><time>2026-05-02T14:52:33.76Z</time></trkpt><trkpt lat="44.0073448" lon="10.5666788"><ele>128.0</ele><time>2026-05-02T14:52:34.745Z</time></trkpt><trkpt lat="44.0072891" lon="10.566514"><ele>128.0</ele><time>2026-05-02T14:52:35.739Z</time></trkpt><trkpt lat="44.007213" lon="10.5663241"><ele>128.0</ele><time>2026-05-02T14:52:36.738Z</time></trkpt><trkpt lat="44.0071305" lon="10.5661596"><ele>125.25</ele><time>2026-05-02T14:52:37.742Z</time></trkpt><trkpt lat="44.007061" lon="10.5659948"><ele>122.5</ele><time>2026-05-02T14:52:38.738Z</time></trkpt><trkpt lat="44.0069885" lon="10.565829"><ele>119.75</ele><time>2026-05-02T14:52:39.739Z</time></trkpt><trkpt lat="44.0069139" lon="10.5656746"><ele>117.0</ele><time>2026-05-02T14:52:40.736Z</time></trkpt><trkpt lat="44.0068473" lon="10.5655105"><ele>116.75</ele><time>2026-05-02T14:52:41.755Z</time></trkpt><trkpt lat="44.0067546" lon="10.565356"><ele>116.5</ele><time>2026-05-02T14:52:42.743Z</time></trkpt><trkpt lat="44.006649" lon="10.5652104"><ele>116.25</ele><time>2026-05-02T14:52:43.743Z</time></trkpt><trkpt lat="44.0065411" lon="10.5650834"><ele>116.0</ele><time>2026-05-02T14:52:44.738Z</time></trkpt><trkpt lat="44.0064317" lon="10.564968"><ele>116.25</ele><time>2026-05-02T14:52:45.74Z</time></trkpt><trkpt lat="44.0063173" lon="10.5648493"><ele>116.5</ele><time>2026-05-02T14:52:46.736Z</time></trkpt><trkpt lat="44.006209" lon="10.5647283"><ele>116.75</ele><time>2026-05-02T14:52:47.74Z</time></trkpt><trkpt lat="44.0061005" lon="10.5646213"><ele>117.0</ele><time>2026-05-02T14:52:48.756Z</time></trkpt><trkpt lat="44.0060001" lon="10.5644977"><ele>117.0</ele><time>2026-05-02T14:52:49.739Z</time></trkpt><trkpt lat="44.0058971" lon="10.5643771"><ele>117.0</ele><time>2026-05-02T14:52:50.74Z</time></trkpt><trkpt lat="44.0057987" lon="10.5642761"><ele>117.0</ele><time>2026-05-02T14:52:51.739Z</time></trkpt><trkpt lat="44.0056969" lon="10.5641727"><ele>117.0</ele><time>2026-05-02T14:52:52.742Z</time></trkpt><trkpt lat="44.0056014" lon="10.5640726"><ele>116.5</ele><time>2026-05-02T14:52:53.736Z</time></trkpt><trkpt lat="44.005503" lon="10.5639719"><ele>116.0</ele><time>2026-05-02T14:52:54.74Z</time></trkpt><trkpt lat="44.0054008" lon="10.5638597"><ele>115.5</ele><time>2026-05-02T14:52:55.74Z</time></trkpt><trkpt lat="44.0052934" lon="10.5637357"><ele>115.0</ele><time>2026-05-02T14:52:56.74Z</time></trkpt><trkpt lat="44.0051851" lon="10.5636201"><ele>115.0</ele><time>2026-05-02T14:52:57.738Z</time></trkpt><trkpt lat="44.0050803" lon="10.5635016"><ele>115.0</ele><time>2026-05-02T14:52:58.749Z</time></trkpt><trkpt lat="44.0049673" lon="10.5633653"><ele>115.0</ele><time>2026-05-02T14:52:59.736Z</time></trkpt><trkpt lat="44.0048483" lon="10.5632298"><ele>115.0</ele><time>2026-05-02T14:53:00.737Z</time></trkpt><trkpt lat="44.0047312" lon="10.5631017"><ele>115.0</ele><time>2026-05-02T14:53:01.739Z</time></trkpt><trkpt lat="44.0046103" lon="10.5629695"><ele>115.0</ele><time>2026-05-02T14:53:02.745Z</time></trkpt><trkpt lat="44.0044894" lon="10.5628409"><ele>115.0</ele><time>2026-05-02T14:53:03.739Z</time></trkpt><trkpt lat="44.0043805" lon="10.5627079"><ele>115.0</ele><time>2026-05-02T14:53:04.745Z</time></trkpt><trkpt lat="44.0042688" lon="10.5625884"><ele>115.0</ele><time>2026-05-02T14:53:05.738Z</time></trkpt><trkpt lat="44.0041661" lon="10.5624699"><ele>115.0</ele><time>2026-05-02T14:53:06.749Z</time></trkpt><trkpt lat="44.0040591" lon="10.5623393"><ele>115.0</ele><time>2026-05-02T14:53:07.743Z</time></trkpt><trkpt lat="44.0039453" lon="10.5622037"><ele>118.33333333333334</ele><time>2026-05-02T14:53:08.739Z</time></trkpt><trkpt lat="44.0038246" lon="10.5620749"><ele>121.66666666666666</ele><time>2026-05-02T14:53:09.74Z</time></trkpt><trkpt lat="44.0037047" lon="10.5619352"><ele>125.0</ele><time>2026-05-02T14:53:10.751Z</time></trkpt><trkpt lat="44.0035837" lon="10.5618026"><ele>125.0</ele><time>2026-05-02T14:53:11.74Z</time></trkpt><trkpt lat="44.0034569" lon="10.5616651"><ele>125.0</ele><time>2026-05-02T14:53:12.739Z</time></trkpt><trkpt lat="44.0033267" lon="10.5615273"><ele>125.0</ele><time>2026-05-02T14:53:13.736Z</time></trkpt><trkpt lat="44.0031952" lon="10.5613864"><ele>123.66666666666666</ele><time>2026-05-02T14:53:14.742Z</time></trkpt><trkpt lat="44.0030693" lon="10.561243"><ele>122.33333333333334</ele><time>2026-05-02T14:53:15.737Z</time></trkpt><trkpt lat="44.0029519" lon="10.5610787"><ele>121.0</ele><time>2026-05-02T14:53:16.739Z</time></trkpt><trkpt lat="44.0028128" lon="10.560955"><ele>121.0</ele><time>2026-05-02T14:53:17.764Z</time></trkpt><trkpt lat="44.0026791" lon="10.5608343"><ele>121.0</ele><time>2026-05-02T14:53:18.742Z</time></trkpt><trkpt lat="44.002545" lon="10.5607194"><ele>121.0</ele><time>2026-05-02T14:53:19.737Z</time></trkpt><trkpt lat="44.0024119" lon="10.5605995"><ele>118.66666666666667</ele><time>2026-05-02T14:53:20.74Z</time></trkpt><trkpt lat="44.0022672" lon="10.5604936"><ele>116.33333333333334</ele><time>2026-05-02T14:53:21.748Z</time></trkpt><trkpt lat="44.0021207" lon="10.5603857"><ele>114.0</ele><time>2026-05-02T14:53:22.74Z</time></trkpt><trkpt lat="44.0019796" lon="10.5602676"><ele>114.0</ele><time>2026-05-02T14:53:23.744Z</time></trkpt><trkpt lat="44.0018282" lon="10.560166"><ele>114.0</ele><time>2026-05-02T14:53:24.737Z</time></trkpt><trkpt lat="44.00169" lon="10.5600568"><ele>114.0</ele><time>2026-05-02T14:53:25.751Z</time></trkpt><trkpt lat="44.0015405" lon="10.5599538"><ele>114.66666666666666</ele><time>2026-05-02T14:53:26.748Z</time></trkpt><trkpt lat="44.0013845" lon="10.5598482"><ele>115.33333333333333</ele><time>2026-05-02T14:53:27.747Z</time></trkpt><trkpt lat="44.0012315" lon="10.5597394"><ele>116.0</ele><time>2026-05-02T14:53:28.737Z</time></trkpt><trkpt lat="44.0010861" lon="10.5596206"><ele>114.33333333333333</ele><time>2026-05-02T14:53:29.759Z</time></trkpt><trkpt lat="44.000938" lon="10.559531"><ele>112.66666666666666</ele><time>2026-05-02T14:53:30.741Z</time></trkpt><trkpt lat="44.0007908" lon="10.5594422"><ele>111.0</ele><time>2026-05-02T14:53:31.737Z</time></trkpt><trkpt lat="44.0006422" lon="10.5593367"><ele>111.0</ele><time>2026-05-02T14:53:32.759Z</time></trkpt><trkpt lat="44.0005045" lon="10.5592203"><ele>111.0</ele><time>2026-05-02T14:53:33.747Z</time></trkpt><trkpt lat="44.0003658" lon="10.559135"><ele>111.0</ele><time>2026-05-02T14:53:34.738Z</time></trkpt><trkpt lat="44.000231" lon="10.5590426"><ele>111.0</ele><time>2026-05-02T14:53:35.749Z</time></trkpt><trkpt lat="44.0001114" lon="10.5589661"><ele>111.0</ele><time>2026-05-02T14:53:36.737Z</time></trkpt><trkpt lat="43.9999924" lon="10.5588871"><ele>111.0</ele><time>2026-05-02T14:53:37.738Z</time></trkpt><trkpt lat="43.999879" lon="10.5587996"><ele>111.0</ele><time>2026-05-02T14:53:38.741Z</time></trkpt><trkpt lat="43.9997723" lon="10.5587188"><ele>110.19999999999999</ele><time>2026-05-02T14:53:39.741Z</time></trkpt><trkpt lat="43.999664" lon="10.5586471"><ele>109.39999999999999</ele><time>2026-05-02T14:53:40.737Z</time></trkpt><trkpt lat="43.999566" lon="10.558582"><ele>108.6</ele><time>2026-05-02T14:53:41.746Z</time></trkpt><trkpt lat="43.9994736" lon="10.5585049"><ele>107.8</ele><time>2026-05-02T14:53:42.745Z</time></trkpt><trkpt lat="43.9993817" lon="10.5584308"><ele>107.0</ele><time>2026-05-02T14:53:43.742Z</time></trkpt><trkpt lat="43.9992816" lon="10.5583571"><ele>107.0</ele><time>2026-05-02T14:53:44.736Z</time></trkpt><trkpt lat="43.9991728" lon="10.5582794"><ele>107.0</ele><time>2026-05-02T14:53:45.74Z</time></trkpt><trkpt lat="43.9990551" lon="10.5581979"><ele>107.0</ele><time>2026-05-02T14:53:46.742Z</time></trkpt><trkpt lat="43.9989404" lon="10.5581131"><ele>107.0</ele><time>2026-05-02T14:53:47.741Z</time></trkpt><trkpt lat="43.9988099" lon="10.5580236"><ele>106.33333333333333</ele><time>2026-05-02T14:53:48.748Z</time></trkpt><trkpt lat="43.9986742" lon="10.5579255"><ele>105.66666666666666</ele><time>2026-05-02T14:53:49.74Z</time></trkpt><trkpt lat="43.9985251" lon="10.557815"><ele>105.0</ele><time>2026-05-02T14:53:50.74Z</time></trkpt><trkpt lat="43.9983661" lon="10.5577058"><ele>105.33333333333334</ele><time>2026-05-02T14:53:51.74Z</time></trkpt><trkpt lat="43.9982094" lon="10.5575914"><ele>105.66666666666667</ele><time>2026-05-02T14:53:52.738Z</time></trkpt><trkpt lat="43.9980495" lon="10.557483"><ele>106.0</ele><time>2026-05-02T14:53:53.74Z</time></trkpt><trkpt lat="43.9978922" lon="10.5573739"><ele>106.0</ele><time>2026-05-02T14:53:54.762Z</time></trkpt><trkpt lat="43.9977382" lon="10.5572632"><ele>106.0</ele><time>2026-05-02T14:53:55.737Z</time></trkpt><trkpt lat="43.9975886" lon="10.5571511"><ele>106.0</ele><time>2026-05-02T14:53:56.739Z</time></trkpt><trkpt lat="43.9974346" lon="10.5570379"><ele>106.0</ele><time>2026-05-02T14:53:57.742Z</time></trkpt><trkpt lat="43.9972893" lon="10.556938"><ele>106.0</ele><time>2026-05-02T14:53:58.744Z</time></trkpt><trkpt lat="43.9971426" lon="10.5568583"><ele>106.0</ele><time>2026-05-02T14:53:59.741Z</time></trkpt><trkpt lat="43.9970056" lon="10.5567796"><ele>106.0</ele><time>2026-05-02T14:54:00.741Z</time></trkpt><trkpt lat="43.9968692" lon="10.5567103"><ele>106.0</ele><time>2026-05-02T14:54:01.74Z</time></trkpt><trkpt lat="43.9967389" lon="10.5566478"><ele>106.0</ele><time>2026-05-02T14:54:02.743Z</time></trkpt><trkpt lat="43.996616" lon="10.5565826"><ele>106.0</ele><time>2026-05-02T14:54:03.744Z</time></trkpt><trkpt lat="43.996488" lon="10.5565279"><ele>106.0</ele><time>2026-05-02T14:54:04.741Z</time></trkpt><trkpt lat="43.9963511" lon="10.5564838"><ele>106.0</ele><time>2026-05-02T14:54:05.747Z</time></trkpt><trkpt lat="43.9962001" lon="10.5564302"><ele>106.0</ele><time>2026-05-02T14:54:06.758Z</time></trkpt><trkpt lat="43.9960344" lon="10.5563558"><ele>106.0</ele><time>2026-05-02T14:54:07.743Z</time></trkpt><trkpt lat="43.9958664" lon="10.5562905"><ele>106.0</ele><time>2026-05-02T14:54:08.74Z</time></trkpt><trkpt lat="43.9956897" lon="10.5562233"><ele>106.0</ele><time>2026-05-02T14:54:09.743Z</time></trkpt><trkpt lat="43.995514" lon="10.5561458"><ele>106.0</ele><time>2026-05-02T14:54:10.737Z</time></trkpt><trkpt lat="43.9953375" lon="10.5560566"><ele>106.0</ele><time>2026-05-02T14:54:11.745Z</time></trkpt><trkpt lat="43.9951722" lon="10.5559416"><ele>106.0</ele><time>2026-05-02T14:54:12.738Z</time></trkpt><trkpt lat="43.9949989" lon="10.5558234"><ele>106.0</ele><time>2026-05-02T14:54:13.74Z</time></trkpt><trkpt lat="43.9948848" lon="10.5556578"><ele>106.0</ele><time>2026-05-02T14:54:14.738Z</time></trkpt><trkpt lat="43.9947475" lon="10.5554964"><ele>106.0</ele><time>2026-05-02T14:54:15.742Z</time></trkpt><trkpt lat="43.9945904" lon="10.5553524"><ele>106.33333333333334</ele><time>2026-05-02T14:54:16.739Z</time></trkpt><trkpt lat="43.9944264" lon="10.5552251"><ele>106.66666666666666</ele><time>2026-05-02T14:54:17.738Z</time></trkpt><trkpt lat="43.9942574" lon="10.5550963"><ele>107.0</ele><time>2026-05-02T14:54:18.739Z</time></trkpt><trkpt lat="43.9940884" lon="10.5549809"><ele>107.0</ele><time>2026-05-02T14:54:19.748Z</time></trkpt><trkpt lat="43.9939262" lon="10.5548188"><ele>107.0</ele><time>2026-05-02T14:54:20.741Z</time></trkpt><trkpt lat="43.9937518" lon="10.5546559"><ele>107.0</ele><time>2026-05-02T14:54:21.734Z</time></trkpt><trkpt lat="43.9935721" lon="10.5544706"><ele>106.0</ele><time>2026-05-02T14:54:22.746Z</time></trkpt><trkpt lat="43.9934048" lon="10.5542875"><ele>105.0</ele><time>2026-05-02T14:54:23.738Z</time></trkpt><trkpt lat="43.993228" lon="10.5541058"><ele>104.0</ele><time>2026-05-02T14:54:24.74Z</time></trkpt><trkpt lat="43.9930602" lon="10.553945"><ele>104.0</ele><time>2026-05-02T14:54:25.738Z</time></trkpt><trkpt lat="43.9928772" lon="10.5538126"><ele>104.0</ele><time>2026-05-02T14:54:26.742Z</time></trkpt><trkpt lat="43.9926862" lon="10.5537045"><ele>104.0</ele><time>2026-05-02T14:54:27.741Z</time></trkpt><trkpt lat="43.9924946" lon="10.5535916"><ele>103.33333333333333</ele><time>2026-05-02T14:54:28.739Z</time></trkpt><trkpt lat="43.992285" lon="10.5535288"><ele>102.66666666666666</ele><time>2026-05-02T14:54:29.742Z</time></trkpt><trkpt lat="43.992069" lon="10.5534541"><ele>102.0</ele><time>2026-05-02T14:54:30.744Z</time></trkpt><trkpt lat="43.9918615" lon="10.5533621"><ele>106.0</ele><time>2026-05-02T14:54:31.738Z</time></trkpt><trkpt lat="43.9916041" lon="10.5533234"><ele>110.0</ele><time>2026-05-02T14:54:32.744Z</time></trkpt><trkpt lat="43.9913745" lon="10.5532507"><ele>110.0</ele><time>2026-05-02T14:54:33.736Z</time></trkpt><trkpt lat="43.9911352" lon="10.5531746"><ele>110.0</ele><time>2026-05-02T14:54:34.736Z</time></trkpt><trkpt lat="43.9908902" lon="10.5531326"><ele>115.66666666666666</ele><time>2026-05-02T14:54:35.735Z</time></trkpt><trkpt lat="43.990671" lon="10.5530857"><ele>121.33333333333334</ele><time>2026-05-02T14:54:36.761Z</time></trkpt><trkpt lat="43.9904528" lon="10.5530434"><ele>127.0</ele><time>2026-05-02T14:54:37.739Z</time></trkpt><trkpt lat="43.9902334" lon="10.5530041"><ele>127.0</ele><time>2026-05-02T14:54:38.739Z</time></trkpt><trkpt lat="43.9900225" lon="10.5529781"><ele>127.0</ele><time>2026-05-02T14:54:39.739Z</time></trkpt><trkpt lat="43.9898271" lon="10.5529796"><ele>127.0</ele><time>2026-05-02T14:54:40.745Z</time></trkpt><trkpt lat="43.989621" lon="10.5529749"><ele>129.33333333333334</ele><time>2026-05-02T14:54:41.738Z</time></trkpt><trkpt lat="43.9894081" lon="10.5529719"><ele>131.66666666666666</ele><time>2026-05-02T14:54:42.747Z</time></trkpt><trkpt lat="43.9892124" lon="10.5529716"><ele>134.0</ele><time>2026-05-02T14:54:43.739Z</time></trkpt><trkpt lat="43.9890108" lon="10.5529775"><ele>140.0</ele><time>2026-05-02T14:54:44.741Z</time></trkpt><trkpt lat="43.9887997" lon="10.5529634"><ele>146.0</ele><time>2026-05-02T14:54:45.738Z</time></trkpt><trkpt lat="43.9885863" lon="10.5529594"><ele>152.0</ele><time>2026-05-02T14:54:46.74Z</time></trkpt><trkpt lat="43.9883731" lon="10.5529499"><ele>155.66666666666666</ele><time>2026-05-02T14:54:47.745Z</time></trkpt><trkpt lat="43.9881679" lon="10.552947"><ele>159.33333333333334</ele><time>2026-05-02T14:54:48.737Z</time></trkpt><trkpt lat="43.9879575" lon="10.5529404"><ele>163.0</ele><time>2026-05-02T14:54:49.743Z</time></trkpt><trkpt lat="43.9877508" lon="10.5529455"><ele>163.0</ele><time>2026-05-02T14:54:50.744Z</time></trkpt><trkpt lat="43.9875299" lon="10.5529513"><ele>163.0</ele><time>2026-05-02T14:54:51.734Z</time></trkpt><trkpt lat="43.9873229" lon="10.5529625"><ele>163.0</ele><time>2026-05-02T14:54:52.74Z</time></trkpt><trkpt lat="43.9871265" lon="10.5529529"><ele>158.33333333333334</ele><time>2026-05-02T14:54:53.745Z</time></trkpt><trkpt lat="43.9869439" lon="10.5529317"><ele>153.66666666666666</ele><time>2026-05-02T14:54:54.74Z</time></trkpt><trkpt lat="43.9867636" lon="10.5528941"><ele>149.0</ele><time>2026-05-02T14:54:55.743Z</time></trkpt><trkpt lat="43.9865952" lon="10.5528569"><ele>135.66666666666666</ele><time>2026-05-02T14:54:56.738Z</time></trkpt><trkpt lat="43.9864301" lon="10.5528092"><ele>122.33333333333334</ele><time>2026-05-02T14:54:57.744Z</time></trkpt><trkpt lat="43.9862677" lon="10.5527594"><ele>109.0</ele><time>2026-05-02T14:54:58.738Z</time></trkpt><trkpt lat="43.986115" lon="10.5527089"><ele>109.0</ele><time>2026-05-02T14:54:59.741Z</time></trkpt><trkpt lat="43.9859804" lon="10.5526855"><ele>109.0</ele><time>2026-05-02T14:55:00.759Z</time></trkpt><trkpt lat="43.9858479" lon="10.5526734"><ele>109.0</ele><time>2026-05-02T14:55:01.744Z</time></trkpt><trkpt lat="43.9857224" lon="10.5526555"><ele>109.0</ele><time>2026-05-02T14:55:02.737Z</time></trkpt><trkpt lat="43.9856055" lon="10.5526572"><ele>108.33333333333334</ele><time>2026-05-02T14:55:03.738Z</time></trkpt><trkpt lat="43.9855033" lon="10.5526726"><ele>107.66666666666667</ele><time>2026-05-02T14:55:04.74Z</time></trkpt><trkpt lat="43.9854152" lon="10.5526804"><ele>107.0</ele><time>2026-05-02T14:55:05.74Z</time></trkpt><trkpt lat="43.9853474" lon="10.5526895"><ele>106.33333333333334</ele><time>2026-05-02T14:55:06.735Z</time></trkpt><trkpt lat="43.9852812" lon="10.5526858"><ele>105.66666666666667</ele><time>2026-05-02T14:55:07.738Z</time></trkpt><trkpt lat="43.9852054" lon="10.5526547"><ele>105.0</ele><time>2026-05-02T14:55:09.738Z</time></trkpt><trkpt lat="43.9851352" lon="10.5526091"><ele>105.0</ele><time>2026-05-02T14:55:11.739Z</time></trkpt></trkseg><trkseg><trkpt lat="43.9890501" lon="10.5529984"><ele>143.0</ele><time>2026-05-02T15:53:34.729Z</time></trkpt><trkpt lat="43.9891927" lon="10.5529982"><ele>134.0</ele><time>2026-05-02T15:53:35.721Z</time></trkpt><trkpt lat="43.9896133" lon="10.553016"><ele>134.0</ele><time>2026-05-02T15:53:38.72Z</time></trkpt><trkpt lat="43.989774" lon="10.5530287"><ele>134.0</ele><time>2026-05-02T15:53:39.724Z</time></trkpt><trkpt lat="43.9899458" lon="10.5530423"><ele>134.0</ele><time>2026-05-02T15:53:40.723Z</time></trkpt><trkpt lat="43.9901195" lon="10.5530635"><ele>131.66666666666666</ele><time>2026-05-02T15:53:41.724Z</time></trkpt><trkpt lat="43.9903078" lon="10.5531108"><ele>129.33333333333334</ele><time>2026-05-02T15:53:42.734Z</time></trkpt><trkpt lat="43.9904983" lon="10.5531416"><ele>127.0</ele><time>2026-05-02T15:53:43.723Z</time></trkpt><trkpt lat="43.9906934" lon="10.5531845"><ele>121.33333333333334</ele><time>2026-05-02T15:53:44.725Z</time></trkpt><trkpt lat="43.9908925" lon="10.5532193"><ele>115.66666666666666</ele><time>2026-05-02T15:53:45.736Z</time></trkpt><trkpt lat="43.9910928" lon="10.5532655"><ele>110.0</ele><time>2026-05-02T15:53:46.725Z</time></trkpt><trkpt lat="43.9913171" lon="10.5533266"><ele>110.0</ele><time>2026-05-02T15:53:47.724Z</time></trkpt><trkpt lat="43.991522" lon="10.5533786"><ele>110.0</ele><time>2026-05-02T15:53:48.747Z</time></trkpt><trkpt lat="43.9917242" lon="10.5534187"><ele>110.0</ele><time>2026-05-02T15:53:49.724Z</time></trkpt><trkpt lat="43.9919515" lon="10.5534982"><ele>107.33333333333333</ele><time>2026-05-02T15:53:50.726Z</time></trkpt><trkpt lat="43.9921659" lon="10.5535665"><ele>104.66666666666666</ele><time>2026-05-02T15:53:51.721Z</time></trkpt><trkpt lat="43.9923707" lon="10.5536194"><ele>102.0</ele><time>2026-05-02T15:53:52.723Z</time></trkpt><trkpt lat="43.9925634" lon="10.553691"><ele>102.66666666666666</ele><time>2026-05-02T15:53:53.724Z</time></trkpt><trkpt lat="43.992744" lon="10.553775"><ele>103.33333333333333</ele><time>2026-05-02T15:53:54.729Z</time></trkpt><trkpt lat="43.9929141" lon="10.5538829"><ele>104.0</ele><time>2026-05-02T15:53:55.724Z</time></trkpt><trkpt lat="43.9930827" lon="10.5540207"><ele>104.0</ele><time>2026-05-02T15:53:56.727Z</time></trkpt><trkpt lat="43.9932446" lon="10.5541825"><ele>104.0</ele><time>2026-05-02T15:53:57.739Z</time></trkpt><trkpt lat="43.993405" lon="10.5543559"><ele>104.0</ele><time>2026-05-02T15:53:58.726Z</time></trkpt><trkpt lat="43.993574" lon="10.5545436"><ele>105.0</ele><time>2026-05-02T15:53:59.724Z</time></trkpt><trkpt lat="43.9937516" lon="10.5547129"><ele>106.0</ele><time>2026-05-02T15:54:00.743Z</time></trkpt><trkpt lat="43.9939382" lon="10.5548831"><ele>107.0</ele><time>2026-05-02T15:54:01.727Z</time></trkpt><trkpt lat="43.9941429" lon="10.5550364"><ele>106.66666666666666</ele><time>2026-05-02T15:54:02.725Z</time></trkpt><trkpt lat="43.9943382" lon="10.5551949"><ele>106.33333333333334</ele><time>2026-05-02T15:54:03.721Z</time></trkpt><trkpt lat="43.9945155" lon="10.5553373"><ele>106.0</ele><time>2026-05-02T15:54:04.719Z</time></trkpt><trkpt lat="43.994692" lon="10.5554946"><ele>106.0</ele><time>2026-05-02T15:54:05.726Z</time></trkpt><trkpt lat="43.9948545" lon="10.555676"><ele>106.0</ele><time>2026-05-02T15:54:06.729Z</time></trkpt><trkpt lat="43.995022" lon="10.5558634"><ele>106.0</ele><time>2026-05-02T15:54:07.726Z</time></trkpt><trkpt lat="43.9952009" lon="10.5560302"><ele>104.33333333333334</ele><time>2026-05-02T15:54:08.731Z</time></trkpt><trkpt lat="43.9953875" lon="10.5561698"><ele>102.66666666666666</ele><time>2026-05-02T15:54:09.725Z</time></trkpt><trkpt lat="43.9955887" lon="10.5562673"><ele>101.0</ele><time>2026-05-02T15:54:10.723Z</time></trkpt><trkpt lat="43.9957945" lon="10.5563555"><ele>102.66666666666666</ele><time>2026-05-02T15:54:11.743Z</time></trkpt><trkpt lat="43.9960054" lon="10.5564315"><ele>104.33333333333334</ele><time>2026-05-02T15:54:12.724Z</time></trkpt><trkpt lat="43.9962177" lon="10.5565204"><ele>106.0</ele><time>2026-05-02T15:54:13.728Z</time></trkpt><trkpt lat="43.9964205" lon="10.5566021"><ele>106.0</ele><time>2026-05-02T15:54:14.725Z</time></trkpt><trkpt lat="43.9966099" lon="10.5566851"><ele>106.0</ele><time>2026-05-02T15:54:15.725Z</time></trkpt><trkpt lat="43.9967832" lon="10.5567681"><ele>106.0</ele><time>2026-05-02T15:54:16.724Z</time></trkpt><trkpt lat="43.9969454" lon="10.5568479"><ele>106.0</ele><time>2026-05-02T15:54:17.725Z</time></trkpt><trkpt lat="43.9970945" lon="10.5569237"><ele>106.0</ele><time>2026-05-02T15:54:18.73Z</time></trkpt><trkpt lat="43.9972249" lon="10.5569876"><ele>106.0</ele><time>2026-05-02T15:54:19.725Z</time></trkpt><trkpt lat="43.9973374" lon="10.5570537"><ele>106.0</ele><time>2026-05-02T15:54:20.723Z</time></trkpt><trkpt lat="43.9974605" lon="10.5571364"><ele>106.0</ele><time>2026-05-02T15:54:21.741Z</time></trkpt><trkpt lat="43.9975974" lon="10.5572304"><ele>106.0</ele><time>2026-05-02T15:54:22.727Z</time></trkpt><trkpt lat="43.9977435" lon="10.5573214"><ele>106.0</ele><time>2026-05-02T15:54:23.724Z</time></trkpt><trkpt lat="43.9979058" lon="10.5574347"><ele>106.0</ele><time>2026-05-02T15:54:24.722Z</time></trkpt><trkpt lat="43.9980782" lon="10.5575593"><ele>106.0</ele><time>2026-05-02T15:54:25.721Z</time></trkpt><trkpt lat="43.9982528" lon="10.5576982"><ele>106.0</ele><time>2026-05-02T15:54:26.724Z</time></trkpt><trkpt lat="43.9984212" lon="10.5578265"><ele>107.33333333333334</ele><time>2026-05-02T15:54:27.726Z</time></trkpt><trkpt lat="43.9985871" lon="10.5579362"><ele>108.66666666666666</ele><time>2026-05-02T15:54:28.733Z</time></trkpt><trkpt lat="43.9987434" lon="10.5580503"><ele>110.0</ele><time>2026-05-02T15:54:29.723Z</time></trkpt><trkpt lat="43.9989044" lon="10.5581586"><ele>110.0</ele><time>2026-05-02T15:54:30.728Z</time></trkpt><trkpt lat="43.9990619" lon="10.55827"><ele>110.0</ele><time>2026-05-02T15:54:31.725Z</time></trkpt><trkpt lat="43.9992219" lon="10.558389"><ele>110.0</ele><time>2026-05-02T15:54:32.717Z</time></trkpt><trkpt lat="43.9993794" lon="10.5585051"><ele>110.33333333333333</ele><time>2026-05-02T15:54:33.72Z</time></trkpt><trkpt lat="43.9995462" lon="10.5586255"><ele>110.66666666666666</ele><time>2026-05-02T15:54:34.724Z</time></trkpt><trkpt lat="43.9997106" lon="10.5587322"><ele>111.0</ele><time>2026-05-02T15:54:35.726Z</time></trkpt><trkpt lat="43.9998747" lon="10.5588535"><ele>111.0</ele><time>2026-05-02T15:54:36.725Z</time></trkpt><trkpt lat="44.0000419" lon="10.5589703"><ele>111.0</ele><time>2026-05-02T15:54:37.735Z</time></trkpt><trkpt lat="44.0002055" lon="10.5590936"><ele>111.0</ele><time>2026-05-02T15:54:38.727Z</time></trkpt><trkpt lat="44.0003698" lon="10.5592121"><ele>111.0</ele><time>2026-05-02T15:54:39.726Z</time></trkpt><trkpt lat="44.0005329" lon="10.5593238"><ele>111.0</ele><time>2026-05-02T15:54:40.725Z</time></trkpt><trkpt lat="44.0006922" lon="10.5594294"><ele>111.0</ele><time>2026-05-02T15:54:41.722Z</time></trkpt><trkpt lat="44.00086" lon="10.5595402"><ele>112.66666666666666</ele><time>2026-05-02T15:54:42.718Z</time></trkpt><trkpt lat="44.0010426" lon="10.5596619"><ele>114.33333333333333</ele><time>2026-05-02T15:54:43.728Z</time></trkpt><trkpt lat="44.0012301" lon="10.5598015"><ele>116.0</ele><time>2026-05-02T15:54:44.725Z</time></trkpt><trkpt lat="44.0014367" lon="10.5599626"><ele>116.0</ele><time>2026-05-02T15:54:45.724Z</time></trkpt><trkpt lat="44.0016444" lon="10.5601214"><ele>116.0</ele><time>2026-05-02T15:54:46.716Z</time></trkpt><trkpt lat="44.001846" lon="10.5602596"><ele>124.33333333333333</ele><time>2026-05-02T15:54:47.722Z</time></trkpt><trkpt lat="44.0020326" lon="10.5603957"><ele>132.66666666666666</ele><time>2026-05-02T15:54:48.746Z</time></trkpt><trkpt lat="44.0022182" lon="10.5605212"><ele>141.0</ele><time>2026-05-02T15:54:49.738Z</time></trkpt><trkpt lat="44.0023831" lon="10.5606542"><ele>134.33333333333334</ele><time>2026-05-02T15:54:50.719Z</time></trkpt><trkpt lat="44.0025414" lon="10.5607905"><ele>127.66666666666667</ele><time>2026-05-02T15:54:51.718Z</time></trkpt><trkpt lat="44.0026967" lon="10.5609339"><ele>121.0</ele><time>2026-05-02T15:54:52.723Z</time></trkpt><trkpt lat="44.0028504" lon="10.5610842"><ele>122.33333333333334</ele><time>2026-05-02T15:54:53.723Z</time></trkpt><trkpt lat="44.0030101" lon="10.5612389"><ele>123.66666666666666</ele><time>2026-05-02T15:54:54.718Z</time></trkpt><trkpt lat="44.0031739" lon="10.5614088"><ele>125.0</ele><time>2026-05-02T15:54:55.735Z</time></trkpt><trkpt lat="44.0033309" lon="10.5615838"><ele>125.0</ele><time>2026-05-02T15:54:56.725Z</time></trkpt><trkpt lat="44.0034889" lon="10.5617556"><ele>125.0</ele><time>2026-05-02T15:54:57.741Z</time></trkpt><trkpt lat="44.0036371" lon="10.5619184"><ele>125.0</ele><time>2026-05-02T15:54:58.724Z</time></trkpt><trkpt lat="44.003776" lon="10.5620694"><ele>121.66666666666666</ele><time>2026-05-02T15:54:59.722Z</time></trkpt><trkpt lat="44.0039108" lon="10.5622129"><ele>118.33333333333334</ele><time>2026-05-02T15:55:00.729Z</time></trkpt><trkpt lat="44.0040424" lon="10.5623693"><ele>115.0</ele><time>2026-05-02T15:55:01.73Z</time></trkpt><trkpt lat="44.0041705" lon="10.5625038"><ele>115.0</ele><time>2026-05-02T15:55:02.722Z</time></trkpt><trkpt lat="44.0042831" lon="10.562634"><ele>115.0</ele><time>2026-05-02T15:55:03.723Z</time></trkpt><trkpt lat="44.0043979" lon="10.5627728"><ele>115.0</ele><time>2026-05-02T15:55:04.727Z</time></trkpt><trkpt lat="44.0045188" lon="10.5628911"><ele>115.0</ele><time>2026-05-02T15:55:05.735Z</time></trkpt><trkpt lat="44.0046412" lon="10.5630192"><ele>115.0</ele><time>2026-05-02T15:55:06.726Z</time></trkpt><trkpt lat="44.0047622" lon="10.5631581"><ele>115.0</ele><time>2026-05-02T15:55:07.729Z</time></trkpt><trkpt lat="44.0048707" lon="10.5632887"><ele>115.0</ele><time>2026-05-02T15:55:08.726Z</time></trkpt><trkpt lat="44.0049753" lon="10.5634118"><ele>115.0</ele><time>2026-05-02T15:55:09.721Z</time></trkpt><trkpt lat="44.0050829" lon="10.5635332"><ele>115.0</ele><time>2026-05-02T15:55:10.723Z</time></trkpt><trkpt lat="44.0051915" lon="10.5636598"><ele>115.0</ele><time>2026-05-02T15:55:11.725Z</time></trkpt><trkpt lat="44.0052913" lon="10.563766"><ele>115.0</ele><time>2026-05-02T15:55:12.728Z</time></trkpt><trkpt lat="44.0053871" lon="10.5638704"><ele>115.0</ele><time>2026-05-02T15:55:13.769Z</time></trkpt><trkpt lat="44.0054776" lon="10.5639742"><ele>115.5</ele><time>2026-05-02T15:55:14.727Z</time></trkpt><trkpt lat="44.0055755" lon="10.564071"><ele>116.0</ele><time>2026-05-02T15:55:15.722Z</time></trkpt><trkpt lat="44.0056718" lon="10.5641715"><ele>116.5</ele><time>2026-05-02T15:55:16.723Z</time></trkpt><trkpt lat="44.0057644" lon="10.5642758"><ele>117.0</ele><time>2026-05-02T15:55:17.719Z</time></trkpt><trkpt lat="44.0058641" lon="10.5643862"><ele>117.0</ele><time>2026-05-02T15:55:18.723Z</time></trkpt><trkpt lat="44.0059682" lon="10.5645084"><ele>117.0</ele><time>2026-05-02T15:55:19.735Z</time></trkpt><trkpt lat="44.0060788" lon="10.5646293"><ele>117.0</ele><time>2026-05-02T15:55:20.728Z</time></trkpt><trkpt lat="44.0061929" lon="10.5647543"><ele>117.0</ele><time>2026-05-02T15:55:21.734Z</time></trkpt><trkpt lat="44.0063079" lon="10.5648826"><ele>117.0</ele><time>2026-05-02T15:55:22.721Z</time></trkpt><trkpt lat="44.006423" lon="10.5650153"><ele>117.0</ele><time>2026-05-02T15:55:23.728Z</time></trkpt><trkpt lat="44.0065381" lon="10.5651397"><ele>117.0</ele><time>2026-05-02T15:55:24.742Z</time></trkpt><trkpt lat="44.0066431" lon="10.5652646"><ele>117.0</ele><time>2026-05-02T15:55:25.727Z</time></trkpt><trkpt lat="44.0067387" lon="10.5654011"><ele>117.0</ele><time>2026-05-02T15:55:26.723Z</time></trkpt><trkpt lat="44.0068284" lon="10.5655556"><ele>117.0</ele><time>2026-05-02T15:55:27.731Z</time></trkpt><trkpt lat="44.0069027" lon="10.5657184"><ele>117.0</ele><time>2026-05-02T15:55:28.721Z</time></trkpt><trkpt lat="44.0069759" lon="10.5658956"><ele>117.0</ele><time>2026-05-02T15:55:29.721Z</time></trkpt><trkpt lat="44.0070542" lon="10.56608"><ele>120.66666666666666</ele><time>2026-05-02T15:55:30.723Z</time></trkpt><trkpt lat="44.0071319" lon="10.5662652"><ele>124.33333333333333</ele><time>2026-05-02T15:55:31.723Z</time></trkpt><trkpt lat="44.0072195" lon="10.5664606"><ele>128.0</ele><time>2026-05-02T15:55:32.727Z</time></trkpt><trkpt lat="44.007303" lon="10.5666576"><ele>128.0</ele><time>2026-05-02T15:55:33.724Z</time></trkpt><trkpt lat="44.0073941" lon="10.5668531"><ele>128.0</ele><time>2026-05-02T15:55:34.739Z</time></trkpt><trkpt lat="44.0074922" lon="10.5670549"><ele>128.0</ele><time>2026-05-02T15:55:35.72Z</time></trkpt><trkpt lat="44.007583" lon="10.5672417"><ele>126.66666666666666</ele><time>2026-05-02T15:55:36.719Z</time></trkpt><trkpt lat="44.0076575" lon="10.5674323"><ele>125.33333333333334</ele><time>2026-05-02T15:55:37.722Z</time></trkpt><trkpt lat="44.0077332" lon="10.5676138"><ele>124.0</ele><time>2026-05-02T15:55:38.734Z</time></trkpt><trkpt lat="44.0078037" lon="10.5677882"><ele>129.5</ele><time>2026-05-02T15:55:39.723Z</time></trkpt><trkpt lat="44.0078737" lon="10.5679528"><ele>135.0</ele><time>2026-05-02T15:55:40.717Z</time></trkpt><trkpt lat="44.0079365" lon="10.5681211"><ele>140.5</ele><time>2026-05-02T15:55:41.726Z</time></trkpt><trkpt lat="44.0079986" lon="10.5682858"><ele>146.0</ele><time>2026-05-02T15:55:42.725Z</time></trkpt><trkpt lat="44.0080614" lon="10.5684576"><ele>146.0</ele><time>2026-05-02T15:55:43.719Z</time></trkpt><trkpt lat="44.0081377" lon="10.5686313"><ele>146.0</ele><time>2026-05-02T15:55:44.732Z</time></trkpt><trkpt lat="44.0081933" lon="10.5688397"><ele>146.0</ele><time>2026-05-02T15:55:45.728Z</time></trkpt><trkpt lat="44.0082618" lon="10.5690644"><ele>143.33333333333331</ele><time>2026-05-02T15:55:46.741Z</time></trkpt><trkpt lat="44.0083338" lon="10.5693223"><ele>140.66666666666666</ele><time>2026-05-02T15:55:47.723Z</time></trkpt><trkpt lat="44.0084016" lon="10.5696094"><ele>138.0</ele><time>2026-05-02T15:55:48.732Z</time></trkpt><trkpt lat="44.0084723" lon="10.5699067"><ele>138.0</ele><time>2026-05-02T15:55:49.724Z</time></trkpt><trkpt lat="44.0085471" lon="10.5702134"><ele>138.0</ele><time>2026-05-02T15:55:50.74Z</time></trkpt><trkpt lat="44.0086077" lon="10.5705264"><ele>141.0</ele><time>2026-05-02T15:55:51.728Z</time></trkpt><trkpt lat="44.008673" lon="10.5707921"><ele>144.0</ele><time>2026-05-02T15:55:52.724Z</time></trkpt><trkpt lat="44.0087411" lon="10.571036"><ele>147.0</ele><time>2026-05-02T15:55:53.726Z</time></trkpt><trkpt lat="44.0088087" lon="10.5712742"><ele>151.33333333333334</ele><time>2026-05-02T15:55:54.743Z</time></trkpt><trkpt lat="44.008834" lon="10.5715139"><ele>155.66666666666669</ele><time>2026-05-02T15:55:55.72Z</time></trkpt><trkpt lat="44.0088242" lon="10.5717532"><ele>160.0</ele><time>2026-05-02T15:55:56.723Z</time></trkpt><trkpt lat="44.0088295" lon="10.5720052"><ele>162.0</ele><time>2026-05-02T15:55:57.727Z</time></trkpt><trkpt lat="44.0088618" lon="10.5722669"><ele>164.0</ele><time>2026-05-02T15:55:58.725Z</time></trkpt><trkpt lat="44.0088494" lon="10.5725241"><ele>166.0</ele><time>2026-05-02T15:55:59.721Z</time></trkpt><trkpt lat="44.0088749" lon="10.5727745"><ele>166.33333333333334</ele><time>2026-05-02T15:56:00.718Z</time></trkpt><trkpt lat="44.008922" lon="10.5730339"><ele>166.66666666666666</ele><time>2026-05-02T15:56:01.716Z</time></trkpt><trkpt lat="44.0089518" lon="10.5733091"><ele>167.0</ele><time>2026-05-02T15:56:02.727Z</time></trkpt><trkpt lat="44.0089789" lon="10.573567"><ele>167.66666666666666</ele><time>2026-05-02T15:56:03.719Z</time></trkpt><trkpt lat="44.0090163" lon="10.5737922"><ele>168.33333333333334</ele><time>2026-05-02T15:56:04.729Z</time></trkpt><trkpt lat="44.0090385" lon="10.5740154"><ele>169.0</ele><time>2026-05-02T15:56:05.722Z</time></trkpt><trkpt lat="44.0090652" lon="10.5742227"><ele>169.0</ele><time>2026-05-02T15:56:06.72Z</time></trkpt><trkpt lat="44.0090828" lon="10.5744319"><ele>169.0</ele><time>2026-05-02T15:56:07.72Z</time></trkpt><trkpt lat="44.0091129" lon="10.5746586"><ele>169.0</ele><time>2026-05-02T15:56:08.735Z</time></trkpt><trkpt lat="44.0091223" lon="10.5749033"><ele>168.66666666666669</ele><time>2026-05-02T15:56:09.724Z</time></trkpt><trkpt lat="44.0091535" lon="10.5751415"><ele>168.33333333333334</ele><time>2026-05-02T15:56:10.727Z</time></trkpt><trkpt lat="44.0091826" lon="10.5753816"><ele>168.0</ele><time>2026-05-02T15:56:11.727Z</time></trkpt><trkpt lat="44.0092042" lon="10.5756058"><ele>161.0</ele><time>2026-05-02T15:56:12.724Z</time></trkpt><trkpt lat="44.00922" lon="10.5758127"><ele>154.0</ele><time>2026-05-02T15:56:13.719Z</time></trkpt><trkpt lat="44.0092478" lon="10.5759994"><ele>147.0</ele><time>2026-05-02T15:56:14.732Z</time></trkpt><trkpt lat="44.0092648" lon="10.5761726"><ele>140.0</ele><time>2026-05-02T15:56:15.722Z</time></trkpt><trkpt lat="44.0092807" lon="10.5763193"><ele>140.0</ele><time>2026-05-02T15:56:16.722Z</time></trkpt><trkpt lat="44.0093007" lon="10.576435"><ele>140.0</ele><time>2026-05-02T15:56:17.719Z</time></trkpt><trkpt lat="44.0093139" lon="10.5765368"><ele>140.0</ele><time>2026-05-02T15:56:18.721Z</time></trkpt><trkpt lat="44.0093316" lon="10.5766548"><ele>140.0</ele><time>2026-05-02T15:56:20.722Z</time></trkpt><trkpt lat="44.0093487" lon="10.576753"><ele>140.0</ele><time>2026-05-02T15:56:23.721Z</time></trkpt><trkpt lat="44.0093681" lon="10.576841"><ele>140.0</ele><time>2026-05-02T15:58:36.721Z</time></trkpt><trkpt lat="44.0094238" lon="10.577007"><ele>140.25</ele><time>2026-05-02T15:58:38.722Z</time></trkpt><trkpt lat="44.0094764" lon="10.5771995"><ele>140.5</ele><time>2026-05-02T15:58:39.728Z</time></trkpt><trkpt lat="44.0095192" lon="10.5773711"><ele>140.75</ele><time>2026-05-02T15:58:40.72Z</time></trkpt><trkpt lat="44.0095322" lon="10.5775352"><ele>141.0</ele><time>2026-05-02T15:58:41.726Z</time></trkpt><trkpt lat="44.0095423" lon="10.5777125"><ele>139.2</ele><time>2026-05-02T15:58:42.723Z</time></trkpt><trkpt lat="44.0095336" lon="10.5778695"><ele>137.39999999999998</ele><time>2026-05-02T15:58:43.722Z</time></trkpt><trkpt lat="44.0094933" lon="10.5779935"><ele>135.6</ele><time>2026-05-02T15:58:44.716Z</time></trkpt><trkpt lat="44.0094454" lon="10.5781047"><ele>133.79999999999998</ele><time>2026-05-02T15:58:45.731Z</time></trkpt><trkpt lat="44.0093552" lon="10.5781485"><ele>132.0</ele><time>2026-05-02T15:58:46.731Z</time></trkpt><trkpt lat="44.0092618" lon="10.5781947"><ele>132.0</ele><time>2026-05-02T15:58:47.725Z</time></trkpt><trkpt lat="44.0091596" lon="10.578212"><ele>132.0</ele><time>2026-05-02T15:58:48.726Z</time></trkpt><trkpt lat="44.0090531" lon="10.5782588"><ele>132.0</ele><time>2026-05-02T15:58:49.725Z</time></trkpt><trkpt lat="44.0089607" lon="10.578335"><ele>132.0</ele><time>2026-05-02T15:58:50.724Z</time></trkpt><trkpt lat="44.0088495" lon="10.5783929"><ele>132.0</ele><time>2026-05-02T15:58:51.724Z</time></trkpt><trkpt lat="44.0087212" lon="10.5784048"><ele>132.5</ele><time>2026-05-02T15:58:52.719Z</time></trkpt><trkpt lat="44.0086306" lon="10.5784647"><ele>133.0</ele><time>2026-05-02T15:58:53.726Z</time></trkpt><trkpt lat="44.008533" lon="10.5785226"><ele>133.5</ele><time>2026-05-02T15:58:54.74Z</time></trkpt><trkpt lat="44.0083555" lon="10.5784075"><ele>134.0</ele><time>2026-05-02T15:58:55.721Z</time></trkpt><trkpt lat="44.008247" lon="10.5784251"><ele>136.5</ele><time>2026-05-02T15:58:56.725Z</time></trkpt><trkpt lat="44.0081175" lon="10.5784163"><ele>139.0</ele><time>2026-05-02T15:58:57.722Z</time></trkpt><trkpt lat="44.0079744" lon="10.5784034"><ele>141.5</ele><time>2026-05-02T15:58:58.722Z</time></trkpt><trkpt lat="44.0078369" lon="10.5783737"><ele>144.0</ele><time>2026-05-02T15:58:59.736Z</time></trkpt><trkpt lat="44.0076741" lon="10.5783255"><ele>144.0</ele><time>2026-05-02T15:59:00.722Z</time></trkpt><trkpt lat="44.0075217" lon="10.5782988"><ele>144.0</ele><time>2026-05-02T15:59:01.722Z</time></trkpt><trkpt lat="44.0073662" lon="10.5782828"><ele>144.0</ele><time>2026-05-02T15:59:02.725Z</time></trkpt><trkpt lat="44.0072012" lon="10.5782584"><ele>141.0</ele><time>2026-05-02T15:59:03.719Z</time></trkpt><trkpt lat="44.0070567" lon="10.5782518"><ele>138.0</ele><time>2026-05-02T15:59:04.753Z</time></trkpt><trkpt lat="44.0069033" lon="10.5782461"><ele>135.0</ele><time>2026-05-02T15:59:05.72Z</time></trkpt><trkpt lat="44.0067459" lon="10.5782308"><ele>132.0</ele><time>2026-05-02T15:59:06.727Z</time></trkpt><trkpt lat="44.0065888" lon="10.5782196"><ele>129.0</ele><time>2026-05-02T15:59:07.724Z</time></trkpt><trkpt lat="44.0064333" lon="10.5782072"><ele>126.0</ele><time>2026-05-02T15:59:08.721Z</time></trkpt><trkpt lat="44.0062705" lon="10.578202"><ele>126.0</ele><time>2026-05-02T15:59:09.726Z</time></trkpt><trkpt lat="44.0061014" lon="10.5781845"><ele>126.0</ele><time>2026-05-02T15:59:10.74Z</time></trkpt><trkpt lat="44.0059375" lon="10.5781721"><ele>126.0</ele><time>2026-05-02T15:59:11.72Z</time></trkpt><trkpt lat="44.0057702" lon="10.5781552"><ele>126.33333333333334</ele><time>2026-05-02T15:59:12.726Z</time></trkpt><trkpt lat="44.0056023" lon="10.5781448"><ele>126.66666666666667</ele><time>2026-05-02T15:59:13.733Z</time></trkpt><trkpt lat="44.0054333" lon="10.5781347"><ele>127.0</ele><time>2026-05-02T15:59:14.721Z</time></trkpt><trkpt lat="44.0052548" lon="10.5781147"><ele>127.0</ele><time>2026-05-02T15:59:15.719Z</time></trkpt><trkpt lat="44.0050826" lon="10.5780987"><ele>127.0</ele><time>2026-05-02T15:59:16.722Z</time></trkpt><trkpt lat="44.0049233" lon="10.5781023"><ele>127.0</ele><time>2026-05-02T15:59:17.719Z</time></trkpt><trkpt lat="44.0047714" lon="10.5781071"><ele>131.5</ele><time>2026-05-02T15:59:18.741Z</time></trkpt><trkpt lat="44.0046312" lon="10.5781296"><ele>136.0</ele><time>2026-05-02T15:59:19.723Z</time></trkpt><trkpt lat="44.0044923" lon="10.5781938"><ele>140.5</ele><time>2026-05-02T15:59:20.728Z</time></trkpt><trkpt lat="44.0043621" lon="10.5782842"><ele>145.0</ele><time>2026-05-02T15:59:21.72Z</time></trkpt><trkpt lat="44.0042275" lon="10.5784137"><ele>145.66666666666669</ele><time>2026-05-02T15:59:22.723Z</time></trkpt><trkpt lat="44.0040958" lon="10.5785705"><ele>146.33333333333334</ele><time>2026-05-02T15:59:23.72Z</time></trkpt><trkpt lat="44.003959" lon="10.5787578"><ele>147.0</ele><time>2026-05-02T15:59:24.724Z</time></trkpt><trkpt lat="44.0038286" lon="10.5789532"><ele>147.0</ele><time>2026-05-02T15:59:25.718Z</time></trkpt><trkpt lat="44.0036954" lon="10.5791573"><ele>147.0</ele><time>2026-05-02T15:59:26.722Z</time></trkpt><trkpt lat="44.0035631" lon="10.5793642"><ele>147.0</ele><time>2026-05-02T15:59:27.721Z</time></trkpt><trkpt lat="44.003437" lon="10.5795764"><ele>146.0</ele><time>2026-05-02T15:59:28.739Z</time></trkpt><trkpt lat="44.0033137" lon="10.5797728"><ele>145.0</ele><time>2026-05-02T15:59:29.736Z</time></trkpt><trkpt lat="44.0032176" lon="10.5799704"><ele>144.0</ele><time>2026-05-02T15:59:30.72Z</time></trkpt><trkpt lat="44.0031343" lon="10.5801612"><ele>145.33333333333334</ele><time>2026-05-02T15:59:31.733Z</time></trkpt><trkpt lat="44.0030774" lon="10.5803559"><ele>146.66666666666669</ele><time>2026-05-02T15:59:32.725Z</time></trkpt><trkpt lat="44.0030488" lon="10.5805589"><ele>148.0</ele><time>2026-05-02T15:59:33.72Z</time></trkpt><trkpt lat="44.0030386" lon="10.5807749"><ele>148.0</ele><time>2026-05-02T15:59:34.727Z</time></trkpt><trkpt lat="44.0030449" lon="10.5810053"><ele>148.0</ele><time>2026-05-02T15:59:35.718Z</time></trkpt><trkpt lat="44.0030608" lon="10.5812442"><ele>148.0</ele><time>2026-05-02T15:59:36.729Z</time></trkpt><trkpt lat="44.003092" lon="10.5815045"><ele>152.66666666666669</ele><time>2026-05-02T15:59:37.721Z</time></trkpt><trkpt lat="44.0031378" lon="10.5817789"><ele>157.33333333333334</ele><time>2026-05-02T15:59:38.732Z</time></trkpt><trkpt lat="44.003187" lon="10.5820679"><ele>162.0</ele><time>2026-05-02T15:59:39.754Z</time></trkpt><trkpt lat="44.003243" lon="10.5823642"><ele>156.5</ele><time>2026-05-02T15:59:40.722Z</time></trkpt><trkpt lat="44.0033133" lon="10.5826602"><ele>151.0</ele><time>2026-05-02T15:59:41.723Z</time></trkpt><trkpt lat="44.0033895" lon="10.5829614"><ele>151.0</ele><time>2026-05-02T15:59:42.722Z</time></trkpt><trkpt lat="44.0034814" lon="10.5832615"><ele>151.0</ele><time>2026-05-02T15:59:43.72Z</time></trkpt><trkpt lat="44.0035846" lon="10.5835631"><ele>161.5</ele><time>2026-05-02T15:59:44.724Z</time></trkpt><trkpt lat="44.0036895" lon="10.5838638"><ele>172.0</ele><time>2026-05-02T15:59:45.729Z</time></trkpt><trkpt lat="44.0037808" lon="10.5841685"><ele>172.0</ele><time>2026-05-02T15:59:46.725Z</time></trkpt><trkpt lat="44.0038857" lon="10.5844633"><ele>172.0</ele><time>2026-05-02T15:59:47.724Z</time></trkpt><trkpt lat="44.0039863" lon="10.5847644"><ele>180.0</ele><time>2026-05-02T15:59:48.717Z</time></trkpt><trkpt lat="44.0040733" lon="10.585062"><ele>188.0</ele><time>2026-05-02T15:59:49.721Z</time></trkpt><trkpt lat="44.0041826" lon="10.5853549"><ele>169.5</ele><time>2026-05-02T15:59:50.727Z</time></trkpt><trkpt lat="44.0043456" lon="10.5856216"><ele>151.0</ele><time>2026-05-02T15:59:51.732Z</time></trkpt><trkpt lat="44.0044668" lon="10.5858898"><ele>151.0</ele><time>2026-05-02T15:59:52.73Z</time></trkpt><trkpt lat="44.0045675" lon="10.5861378"><ele>151.0</ele><time>2026-05-02T15:59:53.725Z</time></trkpt><trkpt lat="44.004684" lon="10.5863916"><ele>151.0</ele><time>2026-05-02T15:59:54.715Z</time></trkpt><trkpt lat="44.0048114" lon="10.5866329"><ele>149.33333333333334</ele><time>2026-05-02T15:59:55.719Z</time></trkpt><trkpt lat="44.0049463" lon="10.5868738"><ele>147.66666666666666</ele><time>2026-05-02T15:59:56.72Z</time></trkpt><trkpt lat="44.0050832" lon="10.587115"><ele>146.0</ele><time>2026-05-02T15:59:57.742Z</time></trkpt><trkpt lat="44.0052201" lon="10.5873505"><ele>146.0</ele><time>2026-05-02T15:59:58.721Z</time></trkpt><trkpt lat="44.005356" lon="10.58758"><ele>146.0</ele><time>2026-05-02T15:59:59.73Z</time></trkpt><trkpt lat="44.0054862" lon="10.587791"><ele>146.0</ele><time>2026-05-02T16:00:00.75Z</time></trkpt><trkpt lat="44.0056101" lon="10.5879999"><ele>145.0</ele><time>2026-05-02T16:00:01.724Z</time></trkpt><trkpt lat="44.0057312" lon="10.5881973"><ele>144.0</ele><time>2026-05-02T16:00:02.719Z</time></trkpt><trkpt lat="44.0058493" lon="10.5884054"><ele>143.0</ele><time>2026-05-02T16:00:03.717Z</time></trkpt><trkpt lat="44.005971" lon="10.5886076"><ele>144.66666666666666</ele><time>2026-05-02T16:00:04.721Z</time></trkpt><trkpt lat="44.006106" lon="10.5888"><ele>146.33333333333334</ele><time>2026-05-02T16:00:05.719Z</time></trkpt><trkpt lat="44.0062568" lon="10.5889741"><ele>148.0</ele><time>2026-05-02T16:00:06.722Z</time></trkpt><trkpt lat="44.0064098" lon="10.5891404"><ele>148.0</ele><time>2026-05-02T16:00:07.72Z</time></trkpt><trkpt lat="44.0065703" lon="10.5893103"><ele>148.0</ele><time>2026-05-02T16:00:08.724Z</time></trkpt><trkpt lat="44.0067383" lon="10.5894691"><ele>148.0</ele><time>2026-05-02T16:00:09.72Z</time></trkpt><trkpt lat="44.006908" lon="10.5896366"><ele>149.33333333333334</ele><time>2026-05-02T16:00:10.721Z</time></trkpt><trkpt lat="44.0070747" lon="10.5898112"><ele>150.66666666666666</ele><time>2026-05-02T16:00:11.72Z</time></trkpt><trkpt lat="44.0072405" lon="10.5899894"><ele>152.0</ele><time>2026-05-02T16:00:12.72Z</time></trkpt><trkpt lat="44.0074105" lon="10.5901679"><ele>154.0</ele><time>2026-05-02T16:00:13.744Z</time></trkpt><trkpt lat="44.0075798" lon="10.5903436"><ele>156.0</ele><time>2026-05-02T16:00:14.719Z</time></trkpt><trkpt lat="44.0077467" lon="10.5905168"><ele>158.0</ele><time>2026-05-02T16:00:15.726Z</time></trkpt><trkpt lat="44.0079175" lon="10.5906969"><ele>158.0</ele><time>2026-05-02T16:00:16.724Z</time></trkpt><trkpt lat="44.0080882" lon="10.5908779"><ele>158.0</ele><time>2026-05-02T16:00:17.725Z</time></trkpt><trkpt lat="44.0082589" lon="10.5910562"><ele>158.0</ele><time>2026-05-02T16:00:18.722Z</time></trkpt><trkpt lat="44.0084381" lon="10.5912296"><ele>160.0</ele><time>2026-05-02T16:00:19.718Z</time></trkpt><trkpt lat="44.0086197" lon="10.5914053"><ele>162.0</ele><time>2026-05-02T16:00:20.721Z</time></trkpt><trkpt lat="44.0088043" lon="10.5915865"><ele>164.0</ele><time>2026-05-02T16:00:21.719Z</time></trkpt><trkpt lat="44.0089922" lon="10.5917647"><ele>167.0</ele><time>2026-05-02T16:00:22.74Z</time></trkpt><trkpt lat="44.0091793" lon="10.591944"><ele>170.0</ele><time>2026-05-02T16:00:23.728Z</time></trkpt><trkpt lat="44.0093701" lon="10.5921226"><ele>170.0</ele><time>2026-05-02T16:00:24.737Z</time></trkpt><trkpt lat="44.009556" lon="10.5923057"><ele>170.0</ele><time>2026-05-02T16:00:25.726Z</time></trkpt><trkpt lat="44.0097442" lon="10.5924732"><ele>170.0</ele><time>2026-05-02T16:00:26.723Z</time></trkpt><trkpt lat="44.0099217" lon="10.5926436"><ele>170.0</ele><time>2026-05-02T16:00:27.72Z</time></trkpt><trkpt lat="44.0101019" lon="10.5928173"><ele>170.0</ele><time>2026-05-02T16:00:28.727Z</time></trkpt><trkpt lat="44.0102808" lon="10.5929913"><ele>171.33333333333331</ele><time>2026-05-02T16:00:29.723Z</time></trkpt><trkpt lat="44.010458" lon="10.593153"><ele>172.66666666666666</ele><time>2026-05-02T16:00:30.73Z</time></trkpt><trkpt lat="44.0106319" lon="10.5933109"><ele>174.0</ele><time>2026-05-02T16:00:31.724Z</time></trkpt><trkpt lat="44.0107849" lon="10.5934702"><ele>171.66666666666666</ele><time>2026-05-02T16:00:32.727Z</time></trkpt><trkpt lat="44.0109407" lon="10.5936333"><ele>169.33333333333331</ele><time>2026-05-02T16:00:33.717Z</time></trkpt><trkpt lat="44.0110299" lon="10.5938437"><ele>167.0</ele><time>2026-05-02T16:00:34.719Z</time></trkpt><trkpt lat="44.0111312" lon="10.5940434"><ele>167.0</ele><time>2026-05-02T16:00:35.745Z</time></trkpt><trkpt lat="44.0112416" lon="10.5942301"><ele>167.0</ele><time>2026-05-02T16:00:36.726Z</time></trkpt><trkpt lat="44.0113144" lon="10.5944361"><ele>167.0</ele><time>2026-05-02T16:00:37.72Z</time></trkpt><trkpt lat="44.0113746" lon="10.5946646"><ele>173.0</ele><time>2026-05-02T16:00:38.724Z</time></trkpt><trkpt lat="44.0114532" lon="10.5948972"><ele>179.0</ele><time>2026-05-02T16:00:39.726Z</time></trkpt><trkpt lat="44.0115179" lon="10.5951473"><ele>185.0</ele><time>2026-05-02T16:00:40.72Z</time></trkpt><trkpt lat="44.0115792" lon="10.5954073"><ele>188.33333333333331</ele><time>2026-05-02T16:00:41.728Z</time></trkpt><trkpt lat="44.0116461" lon="10.5956771"><ele>191.66666666666666</ele><time>2026-05-02T16:00:42.728Z</time></trkpt><trkpt lat="44.0117189" lon="10.5959421"><ele>195.0</ele><time>2026-05-02T16:00:43.724Z</time></trkpt><trkpt lat="44.0118004" lon="10.5962049"><ele>182.66666666666666</ele><time>2026-05-02T16:00:44.723Z</time></trkpt><trkpt lat="44.0118871" lon="10.5964628"><ele>170.33333333333331</ele><time>2026-05-02T16:00:45.719Z</time></trkpt><trkpt lat="44.0119616" lon="10.5967273"><ele>158.0</ele><time>2026-05-02T16:00:46.748Z</time></trkpt><trkpt lat="44.0120242" lon="10.5969985"><ele>161.66666666666666</ele><time>2026-05-02T16:00:47.723Z</time></trkpt><trkpt lat="44.0120597" lon="10.5972882"><ele>165.33333333333334</ele><time>2026-05-02T16:00:48.72Z</time></trkpt><trkpt lat="44.012133" lon="10.5975563"><ele>169.0</ele><time>2026-05-02T16:00:49.721Z</time></trkpt><trkpt lat="44.0122152" lon="10.5978249"><ele>174.66666666666669</ele><time>2026-05-02T16:00:50.72Z</time></trkpt><trkpt lat="44.012282" lon="10.598093"><ele>180.33333333333334</ele><time>2026-05-02T16:00:51.739Z</time></trkpt><trkpt lat="44.0123409" lon="10.5983701"><ele>186.0</ele><time>2026-05-02T16:00:52.722Z</time></trkpt><trkpt lat="44.01239" lon="10.5986431"><ele>190.66666666666669</ele><time>2026-05-02T16:00:53.72Z</time></trkpt><trkpt lat="44.0124324" lon="10.5989153"><ele>195.33333333333334</ele><time>2026-05-02T16:00:54.718Z</time></trkpt><trkpt lat="44.0124797" lon="10.5991568"><ele>200.0</ele><time>2026-05-02T16:00:55.728Z</time></trkpt><trkpt lat="44.0124989" lon="10.5994011"><ele>203.33333333333334</ele><time>2026-05-02T16:00:56.741Z</time></trkpt><trkpt lat="44.0125211" lon="10.5996202"><ele>206.66666666666669</ele><time>2026-05-02T16:00:57.72Z</time></trkpt><trkpt lat="44.0125439" lon="10.5998344"><ele>210.0</ele><time>2026-05-02T16:00:58.723Z</time></trkpt><trkpt lat="44.0124861" lon="10.6000398"><ele>210.0</ele><time>2026-05-02T16:00:59.727Z</time></trkpt><trkpt lat="44.0124362" lon="10.6002499"><ele>210.0</ele><time>2026-05-02T16:01:00.716Z</time></trkpt><trkpt lat="44.0123934" lon="10.6004518"><ele>210.0</ele><time>2026-05-02T16:01:01.727Z</time></trkpt><trkpt lat="44.0123295" lon="10.6006648"><ele>208.66666666666669</ele><time>2026-05-02T16:01:02.724Z</time></trkpt><trkpt lat="44.0122648" lon="10.6008819"><ele>207.33333333333334</ele><time>2026-05-02T16:01:03.727Z</time></trkpt><trkpt lat="44.0121923" lon="10.6010852"><ele>206.0</ele><time>2026-05-02T16:01:04.72Z</time></trkpt><trkpt lat="44.0121194" lon="10.6012879"><ele>200.66666666666669</ele><time>2026-05-02T16:01:05.719Z</time></trkpt><trkpt lat="44.0120558" lon="10.6014872"><ele>195.33333333333334</ele><time>2026-05-02T16:01:06.718Z</time></trkpt><trkpt lat="44.0119996" lon="10.6016923"><ele>190.0</ele><time>2026-05-02T16:01:07.721Z</time></trkpt><trkpt lat="44.0119166" lon="10.6018754"><ele>183.0</ele><time>2026-05-02T16:01:08.721Z</time></trkpt><trkpt lat="44.0118407" lon="10.602073"><ele>176.0</ele><time>2026-05-02T16:01:09.732Z</time></trkpt><trkpt lat="44.0117789" lon="10.6023023"><ele>169.0</ele><time>2026-05-02T16:01:10.724Z</time></trkpt><trkpt lat="44.0117068" lon="10.602557"><ele>187.66666666666669</ele><time>2026-05-02T16:01:11.726Z</time></trkpt><trkpt lat="44.0116377" lon="10.6028197"><ele>206.33333333333334</ele><time>2026-05-02T16:01:12.724Z</time></trkpt><trkpt lat="44.0115612" lon="10.6031108"><ele>225.0</ele><time>2026-05-02T16:01:13.716Z</time></trkpt><trkpt lat="44.0115003" lon="10.603379"><ele>220.0</ele><time>2026-05-02T16:01:14.717Z</time></trkpt><trkpt lat="44.0114605" lon="10.6036668"><ele>215.0</ele><time>2026-05-02T16:01:15.723Z</time></trkpt><trkpt lat="44.0114437" lon="10.6039521"><ele>210.0</ele><time>2026-05-02T16:01:16.717Z</time></trkpt><trkpt lat="44.0114165" lon="10.6042449"><ele>205.33333333333331</ele><time>2026-05-02T16:01:17.721Z</time></trkpt><trkpt lat="44.0114278" lon="10.6045484"><ele>200.66666666666666</ele><time>2026-05-02T16:01:18.742Z</time></trkpt><trkpt lat="44.0114241" lon="10.6048478"><ele>196.0</ele><time>2026-05-02T16:01:19.72Z</time></trkpt><trkpt lat="44.0114016" lon="10.6051196"><ele>192.0</ele><time>2026-05-02T16:01:20.723Z</time></trkpt><trkpt lat="44.0113481" lon="10.6053796"><ele>188.0</ele><time>2026-05-02T16:01:21.743Z</time></trkpt><trkpt lat="44.0112915" lon="10.605636"><ele>184.0</ele><time>2026-05-02T16:01:22.724Z</time></trkpt><trkpt lat="44.0112461" lon="10.6058919"><ele>184.0</ele><time>2026-05-02T16:01:23.721Z</time></trkpt><trkpt lat="44.0112182" lon="10.6061305"><ele>184.0</ele><time>2026-05-02T16:01:24.724Z</time></trkpt><trkpt lat="44.0112277" lon="10.6063678"><ele>184.0</ele><time>2026-05-02T16:01:25.729Z</time></trkpt><trkpt lat="44.0112377" lon="10.6066144"><ele>181.66666666666669</ele><time>2026-05-02T16:01:26.719Z</time></trkpt><trkpt lat="44.0112479" lon="10.6068504"><ele>179.33333333333334</ele><time>2026-05-02T16:01:27.72Z</time></trkpt><trkpt lat="44.0112645" lon="10.607102"><ele>177.0</ele><time>2026-05-02T16:01:28.743Z</time></trkpt><trkpt lat="44.0113261" lon="10.6073832"><ele>176.33333333333334</ele><time>2026-05-02T16:01:29.725Z</time></trkpt><trkpt lat="44.0113508" lon="10.6076311"><ele>175.66666666666669</ele><time>2026-05-02T16:01:30.725Z</time></trkpt><trkpt lat="44.0113541" lon="10.6078606"><ele>175.0</ele><time>2026-05-02T16:01:31.722Z</time></trkpt><trkpt lat="44.0113424" lon="10.6081099"><ele>174.66666666666669</ele><time>2026-05-02T16:01:32.72Z</time></trkpt><trkpt lat="44.0113052" lon="10.6083743"><ele>174.33333333333334</ele><time>2026-05-02T16:01:33.714Z</time></trkpt><trkpt lat="44.0112376" lon="10.6086217"><ele>174.0</ele><time>2026-05-02T16:01:34.724Z</time></trkpt><trkpt lat="44.0111638" lon="10.6088549"><ele>173.0</ele><time>2026-05-02T16:01:35.728Z</time></trkpt><trkpt lat="44.0110768" lon="10.6090915"><ele>172.0</ele><time>2026-05-02T16:01:36.726Z</time></trkpt><trkpt lat="44.010992" lon="10.6093375"><ele>171.0</ele><time>2026-05-02T16:01:37.724Z</time></trkpt><trkpt lat="44.0109065" lon="10.6095799"><ele>173.33333333333334</ele><time>2026-05-02T16:01:38.732Z</time></trkpt><trkpt lat="44.0108146" lon="10.6098302"><ele>175.66666666666669</ele><time>2026-05-02T16:01:39.729Z</time></trkpt><trkpt lat="44.0107223" lon="10.6100832"><ele>178.0</ele><time>2026-05-02T16:01:40.728Z</time></trkpt><trkpt lat="44.0106042" lon="10.6103285"><ele>178.0</ele><time>2026-05-02T16:01:41.721Z</time></trkpt><trkpt lat="44.0104812" lon="10.6105706"><ele>178.0</ele><time>2026-05-02T16:01:42.73Z</time></trkpt><trkpt lat="44.0103489" lon="10.6108117"><ele>178.0</ele><time>2026-05-02T16:01:43.731Z</time></trkpt><trkpt lat="44.0102036" lon="10.6110567"><ele>171.5</ele><time>2026-05-02T16:01:44.729Z</time></trkpt><trkpt lat="44.0100575" lon="10.6113133"><ele>165.0</ele><time>2026-05-02T16:01:45.727Z</time></trkpt><trkpt lat="44.0099153" lon="10.6115657"><ele>173.5</ele><time>2026-05-02T16:01:46.716Z</time></trkpt><trkpt lat="44.0097527" lon="10.6118157"><ele>182.0</ele><time>2026-05-02T16:01:47.728Z</time></trkpt><trkpt lat="44.0095878" lon="10.6120657"><ele>182.0</ele><time>2026-05-02T16:01:48.727Z</time></trkpt><trkpt lat="44.0094259" lon="10.6123169"><ele>182.0</ele><time>2026-05-02T16:01:49.722Z</time></trkpt><trkpt lat="44.0092729" lon="10.6125676"><ele>186.66666666666666</ele><time>2026-05-02T16:01:50.718Z</time></trkpt><trkpt lat="44.0091516" lon="10.6128182"><ele>191.33333333333331</ele><time>2026-05-02T16:01:51.725Z</time></trkpt><trkpt lat="44.009046" lon="10.6130672"><ele>196.0</ele><time>2026-05-02T16:01:52.715Z</time></trkpt><trkpt lat="44.0089652" lon="10.613308"><ele>196.0</ele><time>2026-05-02T16:01:53.721Z</time></trkpt><trkpt lat="44.0089084" lon="10.6135645"><ele>196.0</ele><time>2026-05-02T16:01:54.719Z</time></trkpt><trkpt lat="44.0088461" lon="10.6138156"><ele>196.0</ele><time>2026-05-02T16:01:55.726Z</time></trkpt><trkpt lat="44.0088386" lon="10.614045"><ele>191.66666666666666</ele><time>2026-05-02T16:01:56.719Z</time></trkpt><trkpt lat="44.0087953" lon="10.6142508"><ele>187.33333333333331</ele><time>2026-05-02T16:01:57.727Z</time></trkpt><trkpt lat="44.0087297" lon="10.6144409"><ele>183.0</ele><time>2026-05-02T16:01:58.731Z</time></trkpt><trkpt lat="44.00863" lon="10.6146131"><ele>179.33333333333334</ele><time>2026-05-02T16:01:59.722Z</time></trkpt><trkpt lat="44.0085257" lon="10.6147773"><ele>175.66666666666669</ele><time>2026-05-02T16:02:00.724Z</time></trkpt><trkpt lat="44.008437" lon="10.6149718"><ele>172.0</ele><time>2026-05-02T16:02:01.729Z</time></trkpt><trkpt lat="44.008371" lon="10.6152121"><ele>185.66666666666669</ele><time>2026-05-02T16:02:02.717Z</time></trkpt><trkpt lat="44.0083219" lon="10.6154632"><ele>199.33333333333334</ele><time>2026-05-02T16:02:03.723Z</time></trkpt><trkpt lat="44.0082844" lon="10.6157064"><ele>213.0</ele><time>2026-05-02T16:02:04.725Z</time></trkpt><trkpt lat="44.0082711" lon="10.6159373"><ele>214.66666666666669</ele><time>2026-05-02T16:02:05.729Z</time></trkpt><trkpt lat="44.0082555" lon="10.6161656"><ele>216.33333333333334</ele><time>2026-05-02T16:02:06.724Z</time></trkpt><trkpt lat="44.008314" lon="10.6164141"><ele>218.0</ele><time>2026-05-02T16:02:07.724Z</time></trkpt><trkpt lat="44.0083633" lon="10.6166661"><ele>208.0</ele><time>2026-05-02T16:02:08.726Z</time></trkpt><trkpt lat="44.0084345" lon="10.616907"><ele>198.0</ele><time>2026-05-02T16:02:09.722Z</time></trkpt><trkpt lat="44.0085058" lon="10.6171585"><ele>188.0</ele><time>2026-05-02T16:02:10.72Z</time></trkpt><trkpt lat="44.0085536" lon="10.6174071"><ele>188.0</ele><time>2026-05-02T16:02:11.723Z</time></trkpt><trkpt lat="44.0085876" lon="10.6176574"><ele>188.0</ele><time>2026-05-02T16:02:12.718Z</time></trkpt><trkpt lat="44.0086286" lon="10.6178932"><ele>188.0</ele><time>2026-05-02T16:02:13.725Z</time></trkpt><trkpt lat="44.0086578" lon="10.6181243"><ele>187.25</ele><time>2026-05-02T16:02:14.718Z</time></trkpt><trkpt lat="44.0086967" lon="10.6183297"><ele>186.5</ele><time>2026-05-02T16:02:15.719Z</time></trkpt><trkpt lat="44.0087638" lon="10.6184988"><ele>185.75</ele><time>2026-05-02T16:02:16.722Z</time></trkpt><trkpt lat="44.0088782" lon="10.6185838"><ele>185.0</ele><time>2026-05-02T16:02:17.721Z</time></trkpt><trkpt lat="44.0090099" lon="10.618657"><ele>187.33333333333331</ele><time>2026-05-02T16:02:18.722Z</time></trkpt><trkpt lat="44.0091856" lon="10.6186725"><ele>189.66666666666666</ele><time>2026-05-02T16:02:19.718Z</time></trkpt><trkpt lat="44.0093757" lon="10.6186562"><ele>192.0</ele><time>2026-05-02T16:02:20.723Z</time></trkpt><trkpt lat="44.0095666" lon="10.6186602"><ele>192.0</ele><time>2026-05-02T16:02:21.724Z</time></trkpt><trkpt lat="44.0097274" lon="10.6187199"><ele>192.0</ele><time>2026-05-02T16:02:22.72Z</time></trkpt><trkpt lat="44.0098631" lon="10.6188846"><ele>192.0</ele><time>2026-05-02T16:02:23.714Z</time></trkpt><trkpt lat="44.0099963" lon="10.6190885"><ele>194.66666666666669</ele><time>2026-05-02T16:02:24.724Z</time></trkpt><trkpt lat="44.010155" lon="10.6192688"><ele>197.33333333333334</ele><time>2026-05-02T16:02:25.722Z</time></trkpt><trkpt lat="44.0103254" lon="10.6194578"><ele>200.0</ele><time>2026-05-02T16:02:26.731Z</time></trkpt><trkpt lat="44.0105124" lon="10.619651"><ele>200.0</ele><time>2026-05-02T16:02:27.716Z</time></trkpt><trkpt lat="44.0107005" lon="10.6198716"><ele>200.0</ele><time>2026-05-02T16:02:28.719Z</time></trkpt><trkpt lat="44.0108895" lon="10.6200976"><ele>196.5</ele><time>2026-05-02T16:02:29.721Z</time></trkpt><trkpt lat="44.0110887" lon="10.6202778"><ele>193.0</ele><time>2026-05-02T16:02:30.717Z</time></trkpt><trkpt lat="44.0112734" lon="10.6204839"><ele>193.0</ele><time>2026-05-02T16:02:31.728Z</time></trkpt><trkpt lat="44.0114851" lon="10.6206682"><ele>193.0</ele><time>2026-05-02T16:02:32.724Z</time></trkpt><trkpt lat="44.0116737" lon="10.6208511"><ele>195.0</ele><time>2026-05-02T16:02:33.725Z</time></trkpt><trkpt lat="44.011869" lon="10.6210169"><ele>197.0</ele><time>2026-05-02T16:02:34.72Z</time></trkpt><trkpt lat="44.012073" lon="10.6211672"><ele>197.0</ele><time>2026-05-02T16:02:35.718Z</time></trkpt><trkpt lat="44.0122764" lon="10.6213005"><ele>197.0</ele><time>2026-05-02T16:02:36.726Z</time></trkpt><trkpt lat="44.0124725" lon="10.6214455"><ele>197.0</ele><time>2026-05-02T16:02:37.716Z</time></trkpt><trkpt lat="44.0126767" lon="10.6215701"><ele>192.0</ele><time>2026-05-02T16:02:38.718Z</time></trkpt><trkpt lat="44.012877" lon="10.6216958"><ele>187.0</ele><time>2026-05-02T16:02:39.719Z</time></trkpt><trkpt lat="44.0130814" lon="10.6218178"><ele>182.0</ele><time>2026-05-02T16:02:40.737Z</time></trkpt><trkpt lat="44.0132851" lon="10.6219348"><ele>183.0</ele><time>2026-05-02T16:02:41.721Z</time></trkpt><trkpt lat="44.0134744" lon="10.6220568"><ele>184.0</ele><time>2026-05-02T16:02:42.722Z</time></trkpt><trkpt lat="44.0136646" lon="10.6221757"><ele>185.0</ele><time>2026-05-02T16:02:43.721Z</time></trkpt><trkpt lat="44.0138546" lon="10.62228"><ele>185.0</ele><time>2026-05-02T16:02:44.713Z</time></trkpt><trkpt lat="44.0140532" lon="10.6223577"><ele>185.0</ele><time>2026-05-02T16:02:45.724Z</time></trkpt><trkpt lat="44.0142583" lon="10.6224316"><ele>185.0</ele><time>2026-05-02T16:02:46.72Z</time></trkpt><trkpt lat="44.0144638" lon="10.6225013"><ele>184.33333333333331</ele><time>2026-05-02T16:02:47.72Z</time></trkpt><trkpt lat="44.0146558" lon="10.6225846"><ele>183.66666666666666</ele><time>2026-05-02T16:02:48.722Z</time></trkpt><trkpt lat="44.0148304" lon="10.6227002"><ele>183.0</ele><time>2026-05-02T16:02:49.72Z</time></trkpt><trkpt lat="44.01499" lon="10.6228279"><ele>184.33333333333334</ele><time>2026-05-02T16:02:50.731Z</time></trkpt><trkpt lat="44.015132" lon="10.623"><ele>185.66666666666669</ele><time>2026-05-02T16:02:51.747Z</time></trkpt><trkpt lat="44.0152641" lon="10.6232036"><ele>187.0</ele><time>2026-05-02T16:02:52.721Z</time></trkpt><trkpt lat="44.0153708" lon="10.6234377"><ele>192.33333333333334</ele><time>2026-05-02T16:02:53.718Z</time></trkpt><trkpt lat="44.0154884" lon="10.6236748"><ele>197.66666666666669</ele><time>2026-05-02T16:02:54.741Z</time></trkpt><trkpt lat="44.0156191" lon="10.6239013"><ele>203.0</ele><time>2026-05-02T16:02:55.728Z</time></trkpt><trkpt lat="44.0157497" lon="10.6241183"><ele>204.66666666666669</ele><time>2026-05-02T16:02:56.723Z</time></trkpt><trkpt lat="44.0158865" lon="10.624326"><ele>206.33333333333331</ele><time>2026-05-02T16:02:57.728Z</time></trkpt><trkpt lat="44.0160182" lon="10.6245337"><ele>208.0</ele><time>2026-05-02T16:02:58.729Z</time></trkpt><trkpt lat="44.0161365" lon="10.6247522"><ele>208.0</ele><time>2026-05-02T16:02:59.729Z</time></trkpt><trkpt lat="44.0162441" lon="10.6249819"><ele>208.0</ele><time>2026-05-02T16:03:00.715Z</time></trkpt><trkpt lat="44.0163444" lon="10.6252186"><ele>208.0</ele><time>2026-05-02T16:03:01.719Z</time></trkpt><trkpt lat="44.0164395" lon="10.6254533"><ele>200.33333333333331</ele><time>2026-05-02T16:03:02.728Z</time></trkpt><trkpt lat="44.0165475" lon="10.6256797"><ele>192.66666666666666</ele><time>2026-05-02T16:03:03.721Z</time></trkpt><trkpt lat="44.0166583" lon="10.6259014"><ele>185.0</ele><time>2026-05-02T16:03:04.737Z</time></trkpt><trkpt lat="44.0167797" lon="10.6261345"><ele>193.66666666666666</ele><time>2026-05-02T16:03:05.725Z</time></trkpt><trkpt lat="44.0169106" lon="10.6263785"><ele>202.33333333333331</ele><time>2026-05-02T16:03:06.724Z</time></trkpt><trkpt lat="44.0170368" lon="10.6266313"><ele>211.0</ele><time>2026-05-02T16:03:07.72Z</time></trkpt><trkpt lat="44.0171761" lon="10.6268933"><ele>228.5</ele><time>2026-05-02T16:03:08.726Z</time></trkpt><trkpt lat="44.0173057" lon="10.627157"><ele>246.0</ele><time>2026-05-02T16:03:09.721Z</time></trkpt><trkpt lat="44.0174291" lon="10.6274242"><ele>237.33333333333331</ele><time>2026-05-02T16:03:10.728Z</time></trkpt><trkpt lat="44.0175637" lon="10.627676"><ele>228.66666666666666</ele><time>2026-05-02T16:03:11.736Z</time></trkpt><trkpt lat="44.0176861" lon="10.6279173"><ele>220.0</ele><time>2026-05-02T16:03:12.722Z</time></trkpt><trkpt lat="44.0177944" lon="10.6281479"><ele>220.0</ele><time>2026-05-02T16:03:13.721Z</time></trkpt><trkpt lat="44.0178835" lon="10.6283401"><ele>220.0</ele><time>2026-05-02T16:03:14.731Z</time></trkpt><trkpt lat="44.0179802" lon="10.6285063"><ele>220.0</ele><time>2026-05-02T16:03:15.722Z</time></trkpt><trkpt lat="44.0181021" lon="10.628643"><ele>213.33333333333331</ele><time>2026-05-02T16:03:16.721Z</time></trkpt><trkpt lat="44.0182482" lon="10.6287691"><ele>206.66666666666669</ele><time>2026-05-02T16:03:17.722Z</time></trkpt><trkpt lat="44.0183731" lon="10.6289138"><ele>200.0</ele><time>2026-05-02T16:03:18.725Z</time></trkpt><trkpt lat="44.018493" lon="10.6290708"><ele>200.0</ele><time>2026-05-02T16:03:19.72Z</time></trkpt><trkpt lat="44.0186068" lon="10.6292698"><ele>200.0</ele><time>2026-05-02T16:03:20.717Z</time></trkpt><trkpt lat="44.0187086" lon="10.6294302"><ele>200.0</ele><time>2026-05-02T16:03:21.734Z</time></trkpt><trkpt lat="44.0188251" lon="10.6296643"><ele>198.33333333333334</ele><time>2026-05-02T16:03:22.717Z</time></trkpt><trkpt lat="44.0189458" lon="10.6298659"><ele>196.66666666666669</ele><time>2026-05-02T16:03:23.718Z</time></trkpt><trkpt lat="44.0190791" lon="10.6300548"><ele>195.0</ele><time>2026-05-02T16:03:24.726Z</time></trkpt><trkpt lat="44.0191976" lon="10.6302638"><ele>199.66666666666669</ele><time>2026-05-02T16:03:25.73Z</time></trkpt><trkpt lat="44.0193091" lon="10.6304706"><ele>204.33333333333334</ele><time>2026-05-02T16:03:26.725Z</time></trkpt><trkpt lat="44.0194418" lon="10.6306664"><ele>209.0</ele><time>2026-05-02T16:03:27.74Z</time></trkpt><trkpt lat="44.0195723" lon="10.6308536"><ele>209.0</ele><time>2026-05-02T16:03:28.724Z</time></trkpt><trkpt lat="44.0197" lon="10.6310466"><ele>209.0</ele><time>2026-05-02T16:03:29.722Z</time></trkpt><trkpt lat="44.019771" lon="10.6312929"><ele>209.0</ele><time>2026-05-02T16:03:30.726Z</time></trkpt><trkpt lat="44.0198429" lon="10.6315342"><ele>205.0</ele><time>2026-05-02T16:03:31.726Z</time></trkpt><trkpt lat="44.0199185" lon="10.6317822"><ele>201.0</ele><time>2026-05-02T16:03:32.718Z</time></trkpt><trkpt lat="44.0199678" lon="10.6320583"><ele>197.0</ele><time>2026-05-02T16:03:33.721Z</time></trkpt><trkpt lat="44.0200442" lon="10.6323221"><ele>197.0</ele><time>2026-05-02T16:03:34.722Z</time></trkpt><trkpt lat="44.020119" lon="10.632593"><ele>197.0</ele><time>2026-05-02T16:03:35.744Z</time></trkpt><trkpt lat="44.0201949" lon="10.6328627"><ele>197.0</ele><time>2026-05-02T16:03:36.718Z</time></trkpt><trkpt lat="44.0202745" lon="10.6331238"><ele>204.33333333333334</ele><time>2026-05-02T16:03:37.72Z</time></trkpt><trkpt lat="44.0203572" lon="10.6333701"><ele>211.66666666666669</ele><time>2026-05-02T16:03:38.723Z</time></trkpt><trkpt lat="44.0204461" lon="10.6335889"><ele>219.0</ele><time>2026-05-02T16:03:39.723Z</time></trkpt><trkpt lat="44.0205368" lon="10.6337845"><ele>214.33333333333331</ele><time>2026-05-02T16:03:40.723Z</time></trkpt><trkpt lat="44.0206439" lon="10.6339644"><ele>209.66666666666666</ele><time>2026-05-02T16:03:41.719Z</time></trkpt><trkpt lat="44.0207853" lon="10.6341271"><ele>205.0</ele><time>2026-05-02T16:03:42.717Z</time></trkpt><trkpt lat="44.0209311" lon="10.6342907"><ele>205.0</ele><time>2026-05-02T16:03:43.731Z</time></trkpt><trkpt lat="44.0210826" lon="10.6344628"><ele>205.0</ele><time>2026-05-02T16:03:44.722Z</time></trkpt><trkpt lat="44.021228" lon="10.6346344"><ele>205.0</ele><time>2026-05-02T16:03:45.715Z</time></trkpt><trkpt lat="44.0213627" lon="10.6348001"><ele>203.0</ele><time>2026-05-02T16:03:46.743Z</time></trkpt><trkpt lat="44.0214948" lon="10.6349669"><ele>201.0</ele><time>2026-05-02T16:03:47.718Z</time></trkpt><trkpt lat="44.0215992" lon="10.635149"><ele>199.0</ele><time>2026-05-02T16:03:48.724Z</time></trkpt><trkpt lat="44.0216975" lon="10.6353426"><ele>199.0</ele><time>2026-05-02T16:03:49.72Z</time></trkpt><trkpt lat="44.0217524" lon="10.6355719"><ele>199.0</ele><time>2026-05-02T16:03:50.724Z</time></trkpt><trkpt lat="44.0218152" lon="10.6358035"><ele>199.0</ele><time>2026-05-02T16:03:51.723Z</time></trkpt><trkpt lat="44.0218871" lon="10.6360279"><ele>199.66666666666666</ele><time>2026-05-02T16:03:52.721Z</time></trkpt><trkpt lat="44.0219699" lon="10.6362201"><ele>200.33333333333331</ele><time>2026-05-02T16:03:53.72Z</time></trkpt><trkpt lat="44.0221016" lon="10.6363898"><ele>201.0</ele><time>2026-05-02T16:03:54.735Z</time></trkpt><trkpt lat="44.0222223" lon="10.6365642"><ele>201.0</ele><time>2026-05-02T16:03:55.719Z</time></trkpt><trkpt lat="44.0223444" lon="10.6367595"><ele>201.0</ele><time>2026-05-02T16:03:56.719Z</time></trkpt><trkpt lat="44.0224543" lon="10.6369682"><ele>201.0</ele><time>2026-05-02T16:03:57.719Z</time></trkpt><trkpt lat="44.0225596" lon="10.6371812"><ele>202.33333333333331</ele><time>2026-05-02T16:03:58.742Z</time></trkpt><trkpt lat="44.0226635" lon="10.6373979"><ele>203.66666666666666</ele><time>2026-05-02T16:03:59.719Z</time></trkpt><trkpt lat="44.0227652" lon="10.6376169"><ele>205.0</ele><time>2026-05-02T16:04:00.72Z</time></trkpt><trkpt lat="44.0228619" lon="10.6378374"><ele>207.33333333333331</ele><time>2026-05-02T16:04:01.732Z</time></trkpt><trkpt lat="44.0229602" lon="10.6380608"><ele>209.66666666666669</ele><time>2026-05-02T16:04:02.724Z</time></trkpt><trkpt lat="44.0230583" lon="10.6382888"><ele>212.0</ele><time>2026-05-02T16:04:03.724Z</time></trkpt><trkpt lat="44.0231518" lon="10.6385138"><ele>214.33333333333334</ele><time>2026-05-02T16:04:04.73Z</time></trkpt><trkpt lat="44.0232464" lon="10.6387345"><ele>216.66666666666669</ele><time>2026-05-02T16:04:05.721Z</time></trkpt><trkpt lat="44.0233382" lon="10.6389596"><ele>219.0</ele><time>2026-05-02T16:04:06.723Z</time></trkpt><trkpt lat="44.0234226" lon="10.6391763"><ele>215.33333333333331</ele><time>2026-05-02T16:04:07.713Z</time></trkpt><trkpt lat="44.0235142" lon="10.6394003"><ele>211.66666666666666</ele><time>2026-05-02T16:04:08.723Z</time></trkpt><trkpt lat="44.0236076" lon="10.6396235"><ele>208.0</ele><time>2026-05-02T16:04:09.726Z</time></trkpt><trkpt lat="44.0237021" lon="10.6398486"><ele>208.0</ele><time>2026-05-02T16:04:10.744Z</time></trkpt><trkpt lat="44.0237942" lon="10.6400701"><ele>208.0</ele><time>2026-05-02T16:04:11.725Z</time></trkpt><trkpt lat="44.0238868" lon="10.6402973"><ele>208.0</ele><time>2026-05-02T16:04:12.719Z</time></trkpt><trkpt lat="44.0239836" lon="10.6405233"><ele>207.0</ele><time>2026-05-02T16:04:13.74Z</time></trkpt><trkpt lat="44.0240809" lon="10.6407578"><ele>206.0</ele><time>2026-05-02T16:04:14.722Z</time></trkpt><trkpt lat="44.0241804" lon="10.6409696"><ele>205.0</ele><time>2026-05-02T16:04:15.726Z</time></trkpt><trkpt lat="44.0242903" lon="10.6411566"><ele>212.66666666666666</ele><time>2026-05-02T16:04:16.718Z</time></trkpt><trkpt lat="44.0244194" lon="10.6413134"><ele>220.33333333333331</ele><time>2026-05-02T16:04:17.721Z</time></trkpt><trkpt lat="44.024573" lon="10.6414384"><ele>228.0</ele><time>2026-05-02T16:04:18.722Z</time></trkpt><trkpt lat="44.0247409" lon="10.6415468"><ele>228.0</ele><time>2026-05-02T16:04:19.726Z</time></trkpt><trkpt lat="44.0249182" lon="10.6416457"><ele>228.0</ele><time>2026-05-02T16:04:20.718Z</time></trkpt><trkpt lat="44.0251087" lon="10.6417551"><ele>228.0</ele><time>2026-05-02T16:04:21.742Z</time></trkpt><trkpt lat="44.0252997" lon="10.6418698"><ele>229.66666666666669</ele><time>2026-05-02T16:04:22.727Z</time></trkpt><trkpt lat="44.0254889" lon="10.6419761"><ele>231.33333333333334</ele><time>2026-05-02T16:04:23.722Z</time></trkpt><trkpt lat="44.0256787" lon="10.6421012"><ele>233.0</ele><time>2026-05-02T16:04:24.719Z</time></trkpt><trkpt lat="44.0258579" lon="10.6422425"><ele>226.33333333333334</ele><time>2026-05-02T16:04:25.726Z</time></trkpt><trkpt lat="44.0260195" lon="10.642405"><ele>219.66666666666669</ele><time>2026-05-02T16:04:26.719Z</time></trkpt><trkpt lat="44.0261804" lon="10.6425767"><ele>213.0</ele><time>2026-05-02T16:04:27.721Z</time></trkpt><trkpt lat="44.026342" lon="10.642747"><ele>215.66666666666669</ele><time>2026-05-02T16:04:28.717Z</time></trkpt><trkpt lat="44.0265066" lon="10.6429215"><ele>218.33333333333334</ele><time>2026-05-02T16:04:29.726Z</time></trkpt><trkpt lat="44.026675" lon="10.6431019"><ele>221.0</ele><time>2026-05-02T16:04:30.742Z</time></trkpt><trkpt lat="44.0268495" lon="10.6432758"><ele>221.0</ele><time>2026-05-02T16:04:31.721Z</time></trkpt><trkpt lat="44.0270106" lon="10.6434612"><ele>221.0</ele><time>2026-05-02T16:04:32.72Z</time></trkpt><trkpt lat="44.0271784" lon="10.6436379"><ele>221.0</ele><time>2026-05-02T16:04:33.737Z</time></trkpt><trkpt lat="44.0273402" lon="10.6438112"><ele>219.66666666666669</ele><time>2026-05-02T16:04:34.721Z</time></trkpt><trkpt lat="44.0275032" lon="10.6439881"><ele>218.33333333333331</ele><time>2026-05-02T16:04:35.725Z</time></trkpt><trkpt lat="44.0276653" lon="10.6441679"><ele>217.0</ele><time>2026-05-02T16:04:36.736Z</time></trkpt><trkpt lat="44.0278307" lon="10.6443475"><ele>217.33333333333331</ele><time>2026-05-02T16:04:37.719Z</time></trkpt><trkpt lat="44.0279996" lon="10.6445244"><ele>217.66666666666669</ele><time>2026-05-02T16:04:38.727Z</time></trkpt><trkpt lat="44.0281654" lon="10.6447049"><ele>218.0</ele><time>2026-05-02T16:04:39.717Z</time></trkpt><trkpt lat="44.0283394" lon="10.6448786"><ele>218.0</ele><time>2026-05-02T16:04:40.72Z</time></trkpt><trkpt lat="44.0285119" lon="10.6450557"><ele>218.0</ele><time>2026-05-02T16:04:41.72Z</time></trkpt><trkpt lat="44.0286856" lon="10.6452354"><ele>218.0</ele><time>2026-05-02T16:04:42.72Z</time></trkpt><trkpt lat="44.0288643" lon="10.645411"><ele>218.0</ele><time>2026-05-02T16:04:43.728Z</time></trkpt><trkpt lat="44.0290443" lon="10.6455953"><ele>218.0</ele><time>2026-05-02T16:04:44.721Z</time></trkpt><trkpt lat="44.0292267" lon="10.6457755"><ele>218.0</ele><time>2026-05-02T16:04:45.721Z</time></trkpt><trkpt lat="44.0294132" lon="10.6459524"><ele>218.0</ele><time>2026-05-02T16:04:46.72Z</time></trkpt><trkpt lat="44.0295855" lon="10.6461234"><ele>218.0</ele><time>2026-05-02T16:04:47.72Z</time></trkpt><trkpt lat="44.0297482" lon="10.6462981"><ele>218.0</ele><time>2026-05-02T16:04:48.737Z</time></trkpt><trkpt lat="44.0298973" lon="10.6464456"><ele>219.33333333333334</ele><time>2026-05-02T16:04:49.716Z</time></trkpt><trkpt lat="44.0300519" lon="10.6465393"><ele>220.66666666666669</ele><time>2026-05-02T16:04:50.719Z</time></trkpt><trkpt lat="44.0302309" lon="10.6466024"><ele>222.0</ele><time>2026-05-02T16:04:51.716Z</time></trkpt><trkpt lat="44.0304235" lon="10.6466652"><ele>222.0</ele><time>2026-05-02T16:04:52.72Z</time></trkpt><trkpt lat="44.0306318" lon="10.646726"><ele>222.0</ele><time>2026-05-02T16:04:53.72Z</time></trkpt><trkpt lat="44.0308472" lon="10.6467895"><ele>222.0</ele><time>2026-05-02T16:04:54.721Z</time></trkpt><trkpt lat="44.0310653" lon="10.6468579"><ele>220.0</ele><time>2026-05-02T16:04:55.719Z</time></trkpt><trkpt lat="44.0312808" lon="10.6469334"><ele>218.0</ele><time>2026-05-02T16:04:56.734Z</time></trkpt><trkpt lat="44.0315063" lon="10.6470105"><ele>224.0</ele><time>2026-05-02T16:04:57.733Z</time></trkpt><trkpt lat="44.0317329" lon="10.6470757"><ele>230.0</ele><time>2026-05-02T16:04:58.723Z</time></trkpt><trkpt lat="44.0319684" lon="10.6471463"><ele>230.0</ele><time>2026-05-02T16:04:59.724Z</time></trkpt><trkpt lat="44.0321947" lon="10.6472134"><ele>230.0</ele><time>2026-05-02T16:05:00.741Z</time></trkpt><trkpt lat="44.0324196" lon="10.6472736"><ele>229.5</ele><time>2026-05-02T16:05:01.727Z</time></trkpt><trkpt lat="44.0326445" lon="10.6473053"><ele>229.0</ele><time>2026-05-02T16:05:02.721Z</time></trkpt><trkpt lat="44.0328779" lon="10.6473224"><ele>229.0</ele><time>2026-05-02T16:05:03.719Z</time></trkpt><trkpt lat="44.0331098" lon="10.6473368"><ele>229.0</ele><time>2026-05-02T16:05:04.732Z</time></trkpt><trkpt lat="44.0333393" lon="10.6473515"><ele>228.5</ele><time>2026-05-02T16:05:05.724Z</time></trkpt><trkpt lat="44.0335678" lon="10.6473568"><ele>228.0</ele><time>2026-05-02T16:05:06.72Z</time></trkpt><trkpt lat="44.0337937" lon="10.6473671"><ele>228.0</ele><time>2026-05-02T16:05:07.716Z</time></trkpt><trkpt lat="44.0340253" lon="10.6473653"><ele>228.0</ele><time>2026-05-02T16:05:08.718Z</time></trkpt><trkpt lat="44.0342545" lon="10.6473904"><ele>229.0</ele><time>2026-05-02T16:05:09.728Z</time></trkpt><trkpt lat="44.0344831" lon="10.6473966"><ele>230.0</ele><time>2026-05-02T16:05:10.718Z</time></trkpt><trkpt lat="44.0347097" lon="10.6473976"><ele>230.0</ele><time>2026-05-02T16:05:11.722Z</time></trkpt><trkpt lat="44.0349295" lon="10.6473976"><ele>230.0</ele><time>2026-05-02T16:05:12.719Z</time></trkpt><trkpt lat="44.0351393" lon="10.6474041"><ele>230.0</ele><time>2026-05-02T16:05:13.725Z</time></trkpt><trkpt lat="44.0353329" lon="10.6474099"><ele>229.33333333333334</ele><time>2026-05-02T16:05:14.742Z</time></trkpt><trkpt lat="44.0355333" lon="10.6474384"><ele>228.66666666666669</ele><time>2026-05-02T16:05:15.724Z</time></trkpt><trkpt lat="44.0357012" lon="10.6475032"><ele>228.0</ele><time>2026-05-02T16:05:16.717Z</time></trkpt><trkpt lat="44.0358626" lon="10.6475981"><ele>227.33333333333331</ele><time>2026-05-02T16:05:17.749Z</time></trkpt><trkpt lat="44.0360322" lon="10.6477014"><ele>226.66666666666666</ele><time>2026-05-02T16:05:18.752Z</time></trkpt><trkpt lat="44.0361993" lon="10.6478142"><ele>226.0</ele><time>2026-05-02T16:05:19.725Z</time></trkpt><trkpt lat="44.0363421" lon="10.6479601"><ele>228.25</ele><time>2026-05-02T16:05:20.725Z</time></trkpt><trkpt lat="44.0364761" lon="10.6480812"><ele>230.5</ele><time>2026-05-02T16:05:21.73Z</time></trkpt><trkpt lat="44.0365821" lon="10.6481862"><ele>232.75</ele><time>2026-05-02T16:05:22.724Z</time></trkpt><trkpt lat="44.0366571" lon="10.6483101"><ele>235.0</ele><time>2026-05-02T16:05:23.739Z</time></trkpt><trkpt lat="44.0367157" lon="10.6484421"><ele>233.75</ele><time>2026-05-02T16:05:24.722Z</time></trkpt><trkpt lat="44.0367184" lon="10.6485904"><ele>232.5</ele><time>2026-05-02T16:05:25.721Z</time></trkpt><trkpt lat="44.0366902" lon="10.6487672"><ele>231.25</ele><time>2026-05-02T16:05:26.741Z</time></trkpt><trkpt lat="44.0366273" lon="10.6489495"><ele>230.0</ele><time>2026-05-02T16:05:27.728Z</time></trkpt><trkpt lat="44.0365383" lon="10.6491445"><ele>229.33333333333334</ele><time>2026-05-02T16:05:28.721Z</time></trkpt><trkpt lat="44.0364328" lon="10.6493447"><ele>228.66666666666669</ele><time>2026-05-02T16:05:29.723Z</time></trkpt><trkpt lat="44.0363263" lon="10.6495279"><ele>228.0</ele><time>2026-05-02T16:05:30.724Z</time></trkpt><trkpt lat="44.036202" lon="10.6496652"><ele>228.0</ele><time>2026-05-02T16:05:31.713Z</time></trkpt><trkpt lat="44.0360564" lon="10.6497948"><ele>228.0</ele><time>2026-05-02T16:05:32.749Z</time></trkpt><trkpt lat="44.0358853" lon="10.6499194"><ele>228.0</ele><time>2026-05-02T16:05:33.718Z</time></trkpt><trkpt lat="44.035703" lon="10.6500448"><ele>228.66666666666669</ele><time>2026-05-02T16:05:34.725Z</time></trkpt><trkpt lat="44.0355134" lon="10.6501505"><ele>229.33333333333334</ele><time>2026-05-02T16:05:35.72Z</time></trkpt><trkpt lat="44.0353222" lon="10.6502437"><ele>230.0</ele><time>2026-05-02T16:05:36.72Z</time></trkpt><trkpt lat="44.0351419" lon="10.6503351"><ele>229.33333333333334</ele><time>2026-05-02T16:05:37.722Z</time></trkpt><trkpt lat="44.0350054" lon="10.6504772"><ele>228.66666666666669</ele><time>2026-05-02T16:05:38.717Z</time></trkpt><trkpt lat="44.0348592" lon="10.6506056"><ele>228.0</ele><time>2026-05-02T16:05:39.713Z</time></trkpt><trkpt lat="44.0347327" lon="10.6508228"><ele>228.0</ele><time>2026-05-02T16:05:40.723Z</time></trkpt><trkpt lat="44.0345923" lon="10.6510311"><ele>228.0</ele><time>2026-05-02T16:05:41.729Z</time></trkpt><trkpt lat="44.0344596" lon="10.6512535"><ele>228.0</ele><time>2026-05-02T16:05:42.724Z</time></trkpt><trkpt lat="44.0343276" lon="10.6514735"><ele>228.66666666666669</ele><time>2026-05-02T16:05:43.725Z</time></trkpt><trkpt lat="44.0342168" lon="10.6516934"><ele>229.33333333333334</ele><time>2026-05-02T16:05:44.721Z</time></trkpt><trkpt lat="44.0341209" lon="10.6519054"><ele>230.0</ele><time>2026-05-02T16:05:45.717Z</time></trkpt><trkpt lat="44.0340372" lon="10.6521059"><ele>229.25</ele><time>2026-05-02T16:05:46.723Z</time></trkpt><trkpt lat="44.0339735" lon="10.6522811"><ele>228.5</ele><time>2026-05-02T16:05:47.713Z</time></trkpt><trkpt lat="44.033951" lon="10.6524666"><ele>227.75</ele><time>2026-05-02T16:05:48.714Z</time></trkpt><trkpt lat="44.0339719" lon="10.6526417"><ele>227.0</ele><time>2026-05-02T16:05:49.725Z</time></trkpt><trkpt lat="44.0340154" lon="10.652819"><ele>227.0</ele><time>2026-05-02T16:05:50.725Z</time></trkpt><trkpt lat="44.0340878" lon="10.6529787"><ele>227.0</ele><time>2026-05-02T16:05:51.727Z</time></trkpt><trkpt lat="44.034188" lon="10.6531009"><ele>227.0</ele><time>2026-05-02T16:05:52.727Z</time></trkpt><trkpt lat="44.0343035" lon="10.6531844"><ele>227.0</ele><time>2026-05-02T16:05:53.725Z</time></trkpt><trkpt lat="44.0344477" lon="10.6532454"><ele>231.66666666666669</ele><time>2026-05-02T16:05:54.723Z</time></trkpt><trkpt lat="44.0346174" lon="10.6532936"><ele>236.33333333333331</ele><time>2026-05-02T16:05:55.714Z</time></trkpt><trkpt lat="44.0347939" lon="10.6533396"><ele>241.0</ele><time>2026-05-02T16:05:56.721Z</time></trkpt><trkpt lat="44.0349732" lon="10.6533852"><ele>244.0</ele><time>2026-05-02T16:05:57.719Z</time></trkpt><trkpt lat="44.0351717" lon="10.6534438"><ele>247.0</ele><time>2026-05-02T16:05:58.718Z</time></trkpt><trkpt lat="44.0353663" lon="10.6534924"><ele>250.0</ele><time>2026-05-02T16:05:59.717Z</time></trkpt><trkpt lat="44.0355504" lon="10.6535451"><ele>250.0</ele><time>2026-05-02T16:06:00.719Z</time></trkpt><trkpt lat="44.0357362" lon="10.6535919"><ele>250.0</ele><time>2026-05-02T16:06:01.717Z</time></trkpt><trkpt lat="44.0359058" lon="10.6536454"><ele>250.0</ele><time>2026-05-02T16:06:02.72Z</time></trkpt><trkpt lat="44.0360568" lon="10.6536929"><ele>248.5</ele><time>2026-05-02T16:06:03.727Z</time></trkpt><trkpt lat="44.0361864" lon="10.6537465"><ele>247.0</ele><time>2026-05-02T16:06:04.72Z</time></trkpt><trkpt lat="44.0362917" lon="10.6538214"><ele>245.5</ele><time>2026-05-02T16:06:05.723Z</time></trkpt><trkpt lat="44.0363991" lon="10.6539436"><ele>244.0</ele><time>2026-05-02T16:06:06.727Z</time></trkpt><trkpt lat="44.0365112" lon="10.6541"><ele>242.33333333333331</ele><time>2026-05-02T16:06:07.724Z</time></trkpt><trkpt lat="44.0366374" lon="10.6542729"><ele>240.66666666666669</ele><time>2026-05-02T16:06:08.724Z</time></trkpt><trkpt lat="44.0367556" lon="10.6544473"><ele>239.0</ele><time>2026-05-02T16:06:09.719Z</time></trkpt><trkpt lat="44.0368635" lon="10.6546297"><ele>239.0</ele><time>2026-05-02T16:06:10.723Z</time></trkpt><trkpt lat="44.0369593" lon="10.6548043"><ele>239.0</ele><time>2026-05-02T16:06:11.717Z</time></trkpt><trkpt lat="44.0370287" lon="10.6549738"><ele>239.0</ele><time>2026-05-02T16:06:12.715Z</time></trkpt><trkpt lat="44.0370875" lon="10.6551093"><ele>239.0</ele><time>2026-05-02T16:06:13.728Z</time></trkpt><trkpt lat="44.0370694" lon="10.6553418"><ele>238.0</ele><time>2026-05-02T16:06:14.717Z</time></trkpt><trkpt lat="44.0370531" lon="10.6555622"><ele>237.0</ele><time>2026-05-02T16:06:15.717Z</time></trkpt><trkpt lat="44.0370463" lon="10.6558015"><ele>236.0</ele><time>2026-05-02T16:06:16.721Z</time></trkpt><trkpt lat="44.0370386" lon="10.6560441"><ele>234.33333333333334</ele><time>2026-05-02T16:06:17.725Z</time></trkpt><trkpt lat="44.037031" lon="10.6562713"><ele>232.66666666666669</ele><time>2026-05-02T16:06:18.737Z</time></trkpt><trkpt lat="44.0370598" lon="10.6564789"><ele>231.0</ele><time>2026-05-02T16:06:19.718Z</time></trkpt><trkpt lat="44.0370951" lon="10.6566754"><ele>231.0</ele><time>2026-05-02T16:06:20.719Z</time></trkpt><trkpt lat="44.0371537" lon="10.6568702"><ele>231.0</ele><time>2026-05-02T16:06:21.726Z</time></trkpt><trkpt lat="44.0372396" lon="10.6570753"><ele>231.0</ele><time>2026-05-02T16:06:22.715Z</time></trkpt><trkpt lat="44.0372616" lon="10.6572854"><ele>229.66666666666669</ele><time>2026-05-02T16:06:23.723Z</time></trkpt><trkpt lat="44.0372548" lon="10.6574907"><ele>228.33333333333334</ele><time>2026-05-02T16:06:24.72Z</time></trkpt><trkpt lat="44.0372227" lon="10.6577088"><ele>227.0</ele><time>2026-05-02T16:06:25.731Z</time></trkpt><trkpt lat="44.037175" lon="10.6579161"><ele>229.25</ele><time>2026-05-02T16:06:26.717Z</time></trkpt><trkpt lat="44.0371056" lon="10.6580951"><ele>231.5</ele><time>2026-05-02T16:06:27.725Z</time></trkpt><trkpt lat="44.0370253" lon="10.6582442"><ele>233.75</ele><time>2026-05-02T16:06:28.723Z</time></trkpt><trkpt lat="44.0369387" lon="10.6583708"><ele>236.0</ele><time>2026-05-02T16:06:29.732Z</time></trkpt><trkpt lat="44.0368136" lon="10.6584197"><ele>236.0</ele><time>2026-05-02T16:06:30.718Z</time></trkpt><trkpt lat="44.0366938" lon="10.6584334"><ele>236.00000000000003</ele><time>2026-05-02T16:06:31.722Z</time></trkpt><trkpt lat="44.0365765" lon="10.6584291"><ele>236.00000000000003</ele><time>2026-05-02T16:06:32.716Z</time></trkpt><trkpt lat="44.0364799" lon="10.6584358"><ele>236.0</ele><time>2026-05-02T16:06:33.72Z</time></trkpt><trkpt lat="44.0363889" lon="10.6584882"><ele>236.0</ele><time>2026-05-02T16:06:34.732Z</time></trkpt><trkpt lat="44.0363128" lon="10.6585577"><ele>236.0</ele><time>2026-05-02T16:06:35.719Z</time></trkpt><trkpt lat="44.036243" lon="10.6587"><ele>236.0</ele><time>2026-05-02T16:06:36.724Z</time></trkpt><trkpt lat="44.0361952" lon="10.6588661"><ele>236.0</ele><time>2026-05-02T16:06:37.725Z</time></trkpt><trkpt lat="44.0361462" lon="10.6590201"><ele>236.0</ele><time>2026-05-02T16:06:38.721Z</time></trkpt><trkpt lat="44.0361264" lon="10.6591719"><ele>236.0</ele><time>2026-05-02T16:06:39.72Z</time></trkpt><trkpt lat="44.0361336" lon="10.6593186"><ele>236.0</ele><time>2026-05-02T16:06:40.71Z</time></trkpt><trkpt lat="44.0361749" lon="10.659457"><ele>236.0</ele><time>2026-05-02T16:06:41.719Z</time></trkpt><trkpt lat="44.03625" lon="10.659595"><ele>236.0</ele><time>2026-05-02T16:06:42.725Z</time></trkpt><trkpt lat="44.0363403" lon="10.6597461"><ele>235.66666666666669</ele><time>2026-05-02T16:06:43.72Z</time></trkpt><trkpt lat="44.0364379" lon="10.6599158"><ele>235.33333333333331</ele><time>2026-05-02T16:06:44.721Z</time></trkpt><trkpt lat="44.0365442" lon="10.6600815"><ele>235.0</ele><time>2026-05-02T16:06:45.724Z</time></trkpt><trkpt lat="44.0366381" lon="10.6602652"><ele>238.0</ele><time>2026-05-02T16:06:46.728Z</time></trkpt><trkpt lat="44.0367359" lon="10.6604495"><ele>241.0</ele><time>2026-05-02T16:06:47.721Z</time></trkpt><trkpt lat="44.0368433" lon="10.6606496"><ele>244.0</ele><time>2026-05-02T16:06:48.725Z</time></trkpt><trkpt lat="44.0369484" lon="10.6608608"><ele>244.0</ele><time>2026-05-02T16:06:49.718Z</time></trkpt><trkpt lat="44.0370495" lon="10.6610782"><ele>244.0</ele><time>2026-05-02T16:06:50.723Z</time></trkpt><trkpt lat="44.0371444" lon="10.6612973"><ele>244.0</ele><time>2026-05-02T16:06:51.724Z</time></trkpt><trkpt lat="44.0372344" lon="10.6615185"><ele>242.0</ele><time>2026-05-02T16:06:52.719Z</time></trkpt><trkpt lat="44.0373157" lon="10.661731"><ele>240.0</ele><time>2026-05-02T16:06:53.719Z</time></trkpt><trkpt lat="44.0373978" lon="10.6619358"><ele>238.0</ele><time>2026-05-02T16:06:54.721Z</time></trkpt><trkpt lat="44.0374787" lon="10.6621371"><ele>242.5</ele><time>2026-05-02T16:06:55.721Z</time></trkpt><trkpt lat="44.0375465" lon="10.662315"><ele>247.0</ele><time>2026-05-02T16:06:56.741Z</time></trkpt><trkpt lat="44.0376128" lon="10.6624536"><ele>251.5</ele><time>2026-05-02T16:06:57.723Z</time></trkpt><trkpt lat="44.0376886" lon="10.6625832"><ele>256.0</ele><time>2026-05-02T16:06:58.717Z</time></trkpt><trkpt lat="44.0377871" lon="10.6626811"><ele>256.0</ele><time>2026-05-02T16:06:59.728Z</time></trkpt><trkpt lat="44.0379017" lon="10.6627613"><ele>256.0</ele><time>2026-05-02T16:07:00.715Z</time></trkpt><trkpt lat="44.0380426" lon="10.6627562"><ele>256.0</ele><time>2026-05-02T16:07:01.722Z</time></trkpt><trkpt lat="44.0382317" lon="10.6626652"><ele>264.3333333333333</ele><time>2026-05-02T16:07:02.724Z</time></trkpt><trkpt lat="44.0384015" lon="10.6626265"><ele>272.6666666666667</ele><time>2026-05-02T16:07:03.724Z</time></trkpt><trkpt lat="44.0386074" lon="10.6625886"><ele>281.0</ele><time>2026-05-02T16:07:04.726Z</time></trkpt><trkpt lat="44.0388079" lon="10.6625658"><ele>281.0</ele><time>2026-05-02T16:07:05.722Z</time></trkpt><trkpt lat="44.0389969" lon="10.6625446"><ele>281.0</ele><time>2026-05-02T16:07:06.727Z</time></trkpt><trkpt lat="44.0391984" lon="10.6625262"><ele>281.0</ele><time>2026-05-02T16:07:07.712Z</time></trkpt><trkpt lat="44.0393653" lon="10.6625262"><ele>282.6666666666667</ele><time>2026-05-02T16:07:08.714Z</time></trkpt><trkpt lat="44.0395302" lon="10.6625611"><ele>284.3333333333333</ele><time>2026-05-02T16:07:09.722Z</time></trkpt><trkpt lat="44.039701" lon="10.6626114"><ele>286.0</ele><time>2026-05-02T16:07:10.723Z</time></trkpt><trkpt lat="44.039865" lon="10.6627192"><ele>286.0</ele><time>2026-05-02T16:07:11.719Z</time></trkpt><trkpt lat="44.0400384" lon="10.6628464"><ele>286.0</ele><time>2026-05-02T16:07:12.74Z</time></trkpt><trkpt lat="44.040215" lon="10.6629697"><ele>286.0</ele><time>2026-05-02T16:07:13.723Z</time></trkpt><trkpt lat="44.0403899" lon="10.6630975"><ele>286.0</ele><time>2026-05-02T16:07:14.717Z</time></trkpt><trkpt lat="44.0405724" lon="10.6632285"><ele>286.0</ele><time>2026-05-02T16:07:15.721Z</time></trkpt><trkpt lat="44.040753" lon="10.6633634"><ele>286.0</ele><time>2026-05-02T16:07:16.725Z</time></trkpt><trkpt lat="44.0409404" lon="10.6634789"><ele>285.66666666666663</ele><time>2026-05-02T16:07:17.717Z</time></trkpt><trkpt lat="44.0411184" lon="10.6635994"><ele>285.3333333333333</ele><time>2026-05-02T16:07:18.723Z</time></trkpt><trkpt lat="44.04131" lon="10.6636825"><ele>285.0</ele><time>2026-05-02T16:07:19.718Z</time></trkpt><trkpt lat="44.0414995" lon="10.6637624"><ele>278.6666666666667</ele><time>2026-05-02T16:07:20.72Z</time></trkpt><trkpt lat="44.041696" lon="10.663836"><ele>272.33333333333337</ele><time>2026-05-02T16:07:21.722Z</time></trkpt><trkpt lat="44.0418957" lon="10.6638956"><ele>266.0</ele><time>2026-05-02T16:07:22.725Z</time></trkpt><trkpt lat="44.0421077" lon="10.6639599"><ele>266.0</ele><time>2026-05-02T16:07:23.716Z</time></trkpt><trkpt lat="44.0423204" lon="10.6640185"><ele>266.0</ele><time>2026-05-02T16:07:24.721Z</time></trkpt><trkpt lat="44.0425251" lon="10.6640712"><ele>266.0</ele><time>2026-05-02T16:07:25.741Z</time></trkpt><trkpt lat="44.0427401" lon="10.6641233"><ele>265.33333333333337</ele><time>2026-05-02T16:07:26.718Z</time></trkpt><trkpt lat="44.0429474" lon="10.6641521"><ele>264.6666666666667</ele><time>2026-05-02T16:07:27.723Z</time></trkpt><trkpt lat="44.0431473" lon="10.6641781"><ele>264.0</ele><time>2026-05-02T16:07:28.724Z</time></trkpt><trkpt lat="44.0433242" lon="10.6641948"><ele>266.0</ele><time>2026-05-02T16:07:29.732Z</time></trkpt><trkpt lat="44.043486" lon="10.664213"><ele>268.0</ele><time>2026-05-02T16:07:30.72Z</time></trkpt><trkpt lat="44.0436272" lon="10.6642616"><ele>270.0</ele><time>2026-05-02T16:07:31.723Z</time></trkpt><trkpt lat="44.0437501" lon="10.6643208"><ele>272.0</ele><time>2026-05-02T16:07:32.722Z</time></trkpt><trkpt lat="44.0438447" lon="10.6644248"><ele>273.33333333333337</ele><time>2026-05-02T16:07:33.718Z</time></trkpt><trkpt lat="44.0439255" lon="10.6645436"><ele>274.6666666666667</ele><time>2026-05-02T16:07:34.721Z</time></trkpt><trkpt lat="44.0439791" lon="10.6647537"><ele>276.0</ele><time>2026-05-02T16:07:35.717Z</time></trkpt><trkpt lat="44.0440304" lon="10.6650107"><ele>276.0</ele><time>2026-05-02T16:07:36.719Z</time></trkpt><trkpt lat="44.0440924" lon="10.6652503"><ele>276.0</ele><time>2026-05-02T16:07:37.722Z</time></trkpt><trkpt lat="44.0441413" lon="10.6654941"><ele>276.0</ele><time>2026-05-02T16:07:38.716Z</time></trkpt><trkpt lat="44.0441423" lon="10.6657213"><ele>275.3333333333333</ele><time>2026-05-02T16:07:39.722Z</time></trkpt><trkpt lat="44.0441473" lon="10.6659407"><ele>274.66666666666663</ele><time>2026-05-02T16:07:40.728Z</time></trkpt><trkpt lat="44.0441551" lon="10.6661653"><ele>274.0</ele><time>2026-05-02T16:07:41.714Z</time></trkpt><trkpt lat="44.0442024" lon="10.6663849"><ele>273.66666666666663</ele><time>2026-05-02T16:07:42.729Z</time></trkpt><trkpt lat="44.0442495" lon="10.6666217"><ele>273.3333333333333</ele><time>2026-05-02T16:07:43.719Z</time></trkpt><trkpt lat="44.0442869" lon="10.6668793"><ele>273.0</ele><time>2026-05-02T16:07:44.721Z</time></trkpt><trkpt lat="44.0443178" lon="10.6671339"><ele>274.0</ele><time>2026-05-02T16:07:45.739Z</time></trkpt><trkpt lat="44.0443489" lon="10.6673854"><ele>275.0</ele><time>2026-05-02T16:07:46.719Z</time></trkpt><trkpt lat="44.044523" lon="10.6676834"><ele>280.6666666666667</ele><time>2026-05-02T16:07:47.722Z</time></trkpt><trkpt lat="44.0445958" lon="10.667948"><ele>286.3333333333333</ele><time>2026-05-02T16:07:48.713Z</time></trkpt><trkpt lat="44.0446635" lon="10.6682266"><ele>292.0</ele><time>2026-05-02T16:07:49.714Z</time></trkpt><trkpt lat="44.0446795" lon="10.6685051"><ele>291.3333333333333</ele><time>2026-05-02T16:07:50.712Z</time></trkpt><trkpt lat="44.0446663" lon="10.6687883"><ele>290.6666666666667</ele><time>2026-05-02T16:07:51.725Z</time></trkpt><trkpt lat="44.0446343" lon="10.6690771"><ele>290.0</ele><time>2026-05-02T16:07:52.728Z</time></trkpt><trkpt lat="44.0445873" lon="10.6693541"><ele>288.0</ele><time>2026-05-02T16:07:53.737Z</time></trkpt><trkpt lat="44.0445154" lon="10.6696279"><ele>286.0</ele><time>2026-05-02T16:07:54.721Z</time></trkpt><trkpt lat="44.0444291" lon="10.6698902"><ele>284.0</ele><time>2026-05-02T16:07:55.718Z</time></trkpt><trkpt lat="44.0443485" lon="10.6701638"><ele>283.0</ele><time>2026-05-02T16:07:56.721Z</time></trkpt><trkpt lat="44.0442756" lon="10.6704407"><ele>282.0</ele><time>2026-05-02T16:07:57.724Z</time></trkpt><trkpt lat="44.0442037" lon="10.6707256"><ele>281.0</ele><time>2026-05-02T16:07:58.718Z</time></trkpt><trkpt lat="44.0441475" lon="10.6710118"><ele>279.6666666666667</ele><time>2026-05-02T16:07:59.718Z</time></trkpt><trkpt lat="44.0440941" lon="10.6713108"><ele>278.3333333333333</ele><time>2026-05-02T16:08:00.738Z</time></trkpt><trkpt lat="44.0440081" lon="10.6715956"><ele>277.0</ele><time>2026-05-02T16:08:01.724Z</time></trkpt><trkpt lat="44.0439163" lon="10.6718741"><ele>274.3333333333333</ele><time>2026-05-02T16:08:02.722Z</time></trkpt><trkpt lat="44.0438428" lon="10.6721634"><ele>271.6666666666667</ele><time>2026-05-02T16:08:03.72Z</time></trkpt><trkpt lat="44.0437685" lon="10.6724452"><ele>269.0</ele><time>2026-05-02T16:08:04.739Z</time></trkpt><trkpt lat="44.0437045" lon="10.6727006"><ele>270.0</ele><time>2026-05-02T16:08:05.714Z</time></trkpt><trkpt lat="44.0436419" lon="10.672945"><ele>271.0</ele><time>2026-05-02T16:08:06.718Z</time></trkpt><trkpt lat="44.0435845" lon="10.6731831"><ele>272.0</ele><time>2026-05-02T16:08:07.727Z</time></trkpt><trkpt lat="44.0435321" lon="10.6734073"><ele>274.0</ele><time>2026-05-02T16:08:08.727Z</time></trkpt><trkpt lat="44.0434711" lon="10.6736185"><ele>276.0</ele><time>2026-05-02T16:08:09.723Z</time></trkpt><trkpt lat="44.0434101" lon="10.6738127"><ele>278.0</ele><time>2026-05-02T16:08:10.724Z</time></trkpt><trkpt lat="44.0433338" lon="10.6739947"><ele>277.0</ele><time>2026-05-02T16:08:11.719Z</time></trkpt><trkpt lat="44.043236" lon="10.6741678"><ele>276.0</ele><time>2026-05-02T16:08:12.721Z</time></trkpt><trkpt lat="44.0431316" lon="10.6743339"><ele>275.0</ele><time>2026-05-02T16:08:13.737Z</time></trkpt><trkpt lat="44.0430274" lon="10.6745054"><ele>275.0</ele><time>2026-05-02T16:08:14.721Z</time></trkpt><trkpt lat="44.0429303" lon="10.674689"><ele>275.0</ele><time>2026-05-02T16:08:15.725Z</time></trkpt><trkpt lat="44.0428152" lon="10.6748677"><ele>275.0</ele><time>2026-05-02T16:08:16.727Z</time></trkpt><trkpt lat="44.0427155" lon="10.675056"><ele>275.0</ele><time>2026-05-02T16:08:17.737Z</time></trkpt><trkpt lat="44.0426312" lon="10.6752561"><ele>275.0</ele><time>2026-05-02T16:08:18.722Z</time></trkpt><trkpt lat="44.0425541" lon="10.6754583"><ele>275.0</ele><time>2026-05-02T16:08:19.724Z</time></trkpt><trkpt lat="44.0424836" lon="10.675668"><ele>276.0</ele><time>2026-05-02T16:08:20.719Z</time></trkpt><trkpt lat="44.0424301" lon="10.6758841"><ele>277.0</ele><time>2026-05-02T16:08:21.728Z</time></trkpt><trkpt lat="44.0423817" lon="10.6761065"><ele>278.0</ele><time>2026-05-02T16:08:22.721Z</time></trkpt><trkpt lat="44.0423477" lon="10.6763337"><ele>278.0</ele><time>2026-05-02T16:08:23.726Z</time></trkpt><trkpt lat="44.0423323" lon="10.6765725"><ele>278.0</ele><time>2026-05-02T16:08:24.717Z</time></trkpt><trkpt lat="44.0423308" lon="10.6768088"><ele>278.0</ele><time>2026-05-02T16:08:25.72Z</time></trkpt><trkpt lat="44.0423506" lon="10.6770435"><ele>277.33333333333337</ele><time>2026-05-02T16:08:26.713Z</time></trkpt><trkpt lat="44.0423744" lon="10.6772818"><ele>276.6666666666667</ele><time>2026-05-02T16:08:27.725Z</time></trkpt><trkpt lat="44.0423991" lon="10.6775185"><ele>276.0</ele><time>2026-05-02T16:08:28.723Z</time></trkpt><trkpt lat="44.0424597" lon="10.6777548"><ele>277.3333333333333</ele><time>2026-05-02T16:08:29.727Z</time></trkpt><trkpt lat="44.0425199" lon="10.6779998"><ele>278.66666666666663</ele><time>2026-05-02T16:08:30.728Z</time></trkpt><trkpt lat="44.0425883" lon="10.6782457"><ele>280.0</ele><time>2026-05-02T16:08:31.728Z</time></trkpt><trkpt lat="44.0426586" lon="10.6784937"><ele>280.0</ele><time>2026-05-02T16:08:32.74Z</time></trkpt><trkpt lat="44.0427132" lon="10.6787444"><ele>280.0</ele><time>2026-05-02T16:08:33.728Z</time></trkpt><trkpt lat="44.0428008" lon="10.679012"><ele>280.0</ele><time>2026-05-02T16:08:34.724Z</time></trkpt><trkpt lat="44.0428729" lon="10.6792798"><ele>281.66666666666663</ele><time>2026-05-02T16:08:35.729Z</time></trkpt><trkpt lat="44.0429448" lon="10.6795485"><ele>283.3333333333333</ele><time>2026-05-02T16:08:36.722Z</time></trkpt><trkpt lat="44.0430071" lon="10.6798034"><ele>285.0</ele><time>2026-05-02T16:08:37.719Z</time></trkpt><trkpt lat="44.0430534" lon="10.6800526"><ele>288.6666666666667</ele><time>2026-05-02T16:08:38.727Z</time></trkpt><trkpt lat="44.0430951" lon="10.680269"><ele>292.33333333333337</ele><time>2026-05-02T16:08:39.716Z</time></trkpt><trkpt lat="44.0431504" lon="10.6804615"><ele>296.0</ele><time>2026-05-02T16:08:40.717Z</time></trkpt><trkpt lat="44.0433183" lon="10.6805854"><ele>296.0</ele><time>2026-05-02T16:08:41.735Z</time></trkpt><trkpt lat="44.0434094" lon="10.680765"><ele>296.0</ele><time>2026-05-02T16:08:42.718Z</time></trkpt><trkpt lat="44.0434534" lon="10.6809549"><ele>296.0</ele><time>2026-05-02T16:08:43.729Z</time></trkpt><trkpt lat="44.0434844" lon="10.6811815"><ele>295.6666666666667</ele><time>2026-05-02T16:08:44.721Z</time></trkpt><trkpt lat="44.0435255" lon="10.6814217"><ele>295.3333333333333</ele><time>2026-05-02T16:08:45.717Z</time></trkpt><trkpt lat="44.0435306" lon="10.6816471"><ele>295.0</ele><time>2026-05-02T16:08:46.74Z</time></trkpt><trkpt lat="44.0435094" lon="10.6818708"><ele>294.0</ele><time>2026-05-02T16:08:47.719Z</time></trkpt><trkpt lat="44.04347" lon="10.6820962"><ele>293.0</ele><time>2026-05-02T16:08:48.717Z</time></trkpt><trkpt lat="44.0434374" lon="10.6823224"><ele>292.0</ele><time>2026-05-02T16:08:49.727Z</time></trkpt><trkpt lat="44.0434105" lon="10.6825511"><ele>293.66666666666663</ele><time>2026-05-02T16:08:50.724Z</time></trkpt><trkpt lat="44.0433809" lon="10.6827757"><ele>295.3333333333333</ele><time>2026-05-02T16:08:51.72Z</time></trkpt><trkpt lat="44.0433406" lon="10.6830098"><ele>297.0</ele><time>2026-05-02T16:08:52.725Z</time></trkpt><trkpt lat="44.0433162" lon="10.6832462"><ele>297.3333333333333</ele><time>2026-05-02T16:08:53.718Z</time></trkpt><trkpt lat="44.043283" lon="10.683478"><ele>297.66666666666663</ele><time>2026-05-02T16:08:54.72Z</time></trkpt><trkpt lat="44.043253" lon="10.6837165"><ele>298.0</ele><time>2026-05-02T16:08:55.726Z</time></trkpt><trkpt lat="44.0432205" lon="10.6839601"><ele>296.66666666666663</ele><time>2026-05-02T16:08:56.724Z</time></trkpt><trkpt lat="44.0431816" lon="10.6842045"><ele>295.3333333333333</ele><time>2026-05-02T16:08:57.719Z</time></trkpt><trkpt lat="44.0431436" lon="10.6844625"><ele>294.0</ele><time>2026-05-02T16:08:58.72Z</time></trkpt><trkpt lat="44.0430982" lon="10.6847152"><ele>294.0</ele><time>2026-05-02T16:08:59.723Z</time></trkpt><trkpt lat="44.0430581" lon="10.6849715"><ele>294.0</ele><time>2026-05-02T16:09:00.725Z</time></trkpt><trkpt lat="44.0430209" lon="10.685225"><ele>294.0</ele><time>2026-05-02T16:09:01.719Z</time></trkpt><trkpt lat="44.0429816" lon="10.6854777"><ele>294.6666666666667</ele><time>2026-05-02T16:09:02.745Z</time></trkpt><trkpt lat="44.0429518" lon="10.6857254"><ele>295.33333333333337</ele><time>2026-05-02T16:09:03.72Z</time></trkpt><trkpt lat="44.0429188" lon="10.6859579"><ele>296.0</ele><time>2026-05-02T16:09:04.72Z</time></trkpt><trkpt lat="44.0428773" lon="10.6861938"><ele>296.0</ele><time>2026-05-02T16:09:05.717Z</time></trkpt><trkpt lat="44.0428332" lon="10.6864367"><ele>296.0</ele><time>2026-05-02T16:09:06.726Z</time></trkpt><trkpt lat="44.0427767" lon="10.6866798"><ele>296.0</ele><time>2026-05-02T16:09:07.721Z</time></trkpt><trkpt lat="44.0427053" lon="10.6869208"><ele>296.6666666666667</ele><time>2026-05-02T16:09:08.721Z</time></trkpt><trkpt lat="44.042631" lon="10.6871702"><ele>297.3333333333333</ele><time>2026-05-02T16:09:09.724Z</time></trkpt><trkpt lat="44.0425602" lon="10.6874151"><ele>298.0</ele><time>2026-05-02T16:09:10.739Z</time></trkpt><trkpt lat="44.0425005" lon="10.6876562"><ele>296.0</ele><time>2026-05-02T16:09:11.718Z</time></trkpt><trkpt lat="44.042443" lon="10.6878834"><ele>294.0</ele><time>2026-05-02T16:09:12.719Z</time></trkpt><trkpt lat="44.0424386" lon="10.6881087"><ele>292.0</ele><time>2026-05-02T16:09:13.718Z</time></trkpt><trkpt lat="44.0424339" lon="10.6883159"><ele>292.0</ele><time>2026-05-02T16:09:14.715Z</time></trkpt><trkpt lat="44.0424336" lon="10.6885236"><ele>292.0</ele><time>2026-05-02T16:09:15.723Z</time></trkpt><trkpt lat="44.0424485" lon="10.688716"><ele>292.0</ele><time>2026-05-02T16:09:16.73Z</time></trkpt><trkpt lat="44.0425828" lon="10.6888873"><ele>293.3333333333333</ele><time>2026-05-02T16:09:17.726Z</time></trkpt><trkpt lat="44.0427358" lon="10.6890309"><ele>294.6666666666667</ele><time>2026-05-02T16:09:18.715Z</time></trkpt><trkpt lat="44.0428778" lon="10.6891945"><ele>296.0</ele><time>2026-05-02T16:09:19.723Z</time></trkpt><trkpt lat="44.0430174" lon="10.6893653"><ele>296.0</ele><time>2026-05-02T16:09:20.721Z</time></trkpt><trkpt lat="44.0431382" lon="10.6895451"><ele>296.0</ele><time>2026-05-02T16:09:21.728Z</time></trkpt><trkpt lat="44.0432392" lon="10.6897344"><ele>296.0</ele><time>2026-05-02T16:09:22.718Z</time></trkpt><trkpt lat="44.0433341" lon="10.6899205"><ele>296.0</ele><time>2026-05-02T16:09:23.739Z</time></trkpt><trkpt lat="44.0434281" lon="10.6900926"><ele>296.0</ele><time>2026-05-02T16:09:24.716Z</time></trkpt><trkpt lat="44.0435438" lon="10.690222"><ele>296.0</ele><time>2026-05-02T16:09:25.721Z</time></trkpt><trkpt lat="44.0436827" lon="10.6903251"><ele>296.33333333333337</ele><time>2026-05-02T16:09:26.718Z</time></trkpt><trkpt lat="44.0438319" lon="10.6904256"><ele>296.6666666666667</ele><time>2026-05-02T16:09:27.724Z</time></trkpt><trkpt lat="44.0440264" lon="10.6904856"><ele>297.0</ele><time>2026-05-02T16:09:28.721Z</time></trkpt><trkpt lat="44.0442233" lon="10.6905812"><ele>298.3333333333333</ele><time>2026-05-02T16:09:29.722Z</time></trkpt><trkpt lat="44.0444138" lon="10.6906989"><ele>299.66666666666663</ele><time>2026-05-02T16:09:30.717Z</time></trkpt><trkpt lat="44.0446111" lon="10.6908354"><ele>301.0</ele><time>2026-05-02T16:09:31.721Z</time></trkpt><trkpt lat="44.0448007" lon="10.690985"><ele>301.0</ele><time>2026-05-02T16:09:32.718Z</time></trkpt><trkpt lat="44.044996" lon="10.6911391"><ele>301.0</ele><time>2026-05-02T16:09:33.717Z</time></trkpt><trkpt lat="44.0451709" lon="10.6913069"><ele>301.0</ele><time>2026-05-02T16:09:34.73Z</time></trkpt><trkpt lat="44.0453462" lon="10.6914833"><ele>301.0</ele><time>2026-05-02T16:09:35.717Z</time></trkpt><trkpt lat="44.0455013" lon="10.6916805"><ele>301.0</ele><time>2026-05-02T16:09:36.722Z</time></trkpt><trkpt lat="44.0456451" lon="10.6918887"><ele>301.0</ele><time>2026-05-02T16:09:37.725Z</time></trkpt><trkpt lat="44.0457817" lon="10.6921034"><ele>303.3333333333333</ele><time>2026-05-02T16:09:38.725Z</time></trkpt><trkpt lat="44.0459222" lon="10.6923152"><ele>305.6666666666667</ele><time>2026-05-02T16:09:39.72Z</time></trkpt><trkpt lat="44.0460552" lon="10.6925048"><ele>308.0</ele><time>2026-05-02T16:09:40.733Z</time></trkpt><trkpt lat="44.0461807" lon="10.6926645"><ele>307.0</ele><time>2026-05-02T16:09:41.725Z</time></trkpt><trkpt lat="44.0462849" lon="10.6928217"><ele>306.0</ele><time>2026-05-02T16:09:42.72Z</time></trkpt><trkpt lat="44.0463488" lon="10.6929836"><ele>305.0</ele><time>2026-05-02T16:09:43.723Z</time></trkpt><trkpt lat="44.0463888" lon="10.6931529"><ele>304.0</ele><time>2026-05-02T16:09:44.723Z</time></trkpt><trkpt lat="44.0463909" lon="10.6933493"><ele>304.0</ele><time>2026-05-02T16:09:45.721Z</time></trkpt><trkpt lat="44.0463533" lon="10.6935661"><ele>304.0</ele><time>2026-05-02T16:09:46.72Z</time></trkpt><trkpt lat="44.0462973" lon="10.6938048"><ele>304.0</ele><time>2026-05-02T16:09:47.721Z</time></trkpt><trkpt lat="44.0462339" lon="10.6940558"><ele>305.66666666666663</ele><time>2026-05-02T16:09:48.718Z</time></trkpt><trkpt lat="44.0461643" lon="10.6943266"><ele>307.3333333333333</ele><time>2026-05-02T16:09:49.722Z</time></trkpt><trkpt lat="44.0461095" lon="10.6946028"><ele>309.0</ele><time>2026-05-02T16:09:50.722Z</time></trkpt><trkpt lat="44.0460659" lon="10.6949072"><ele>310.5</ele><time>2026-05-02T16:09:51.725Z</time></trkpt><trkpt lat="44.0460581" lon="10.6952231"><ele>312.0</ele><time>2026-05-02T16:09:52.717Z</time></trkpt><trkpt lat="44.0460657" lon="10.6955456"><ele>312.0</ele><time>2026-05-02T16:09:53.72Z</time></trkpt><trkpt lat="44.0460788" lon="10.6958739"><ele>312.0</ele><time>2026-05-02T16:09:54.719Z</time></trkpt><trkpt lat="44.0460965" lon="10.6962036"><ele>311.0</ele><time>2026-05-02T16:09:55.719Z</time></trkpt><trkpt lat="44.046107" lon="10.6965279"><ele>310.0</ele><time>2026-05-02T16:09:56.715Z</time></trkpt><trkpt lat="44.0461074" lon="10.6968258"><ele>309.0</ele><time>2026-05-02T16:09:57.722Z</time></trkpt><trkpt lat="44.0460719" lon="10.6971276"><ele>309.0</ele><time>2026-05-02T16:09:58.731Z</time></trkpt><trkpt lat="44.0460255" lon="10.6974209"><ele>309.0</ele><time>2026-05-02T16:09:59.712Z</time></trkpt><trkpt lat="44.0459595" lon="10.6977098"><ele>309.0</ele><time>2026-05-02T16:10:00.713Z</time></trkpt><trkpt lat="44.0458767" lon="10.6980038"><ele>311.3333333333333</ele><time>2026-05-02T16:10:01.722Z</time></trkpt><trkpt lat="44.0458103" lon="10.69828"><ele>313.66666666666663</ele><time>2026-05-02T16:10:02.718Z</time></trkpt><trkpt lat="44.0457421" lon="10.6985467"><ele>316.0</ele><time>2026-05-02T16:10:03.724Z</time></trkpt><trkpt lat="44.0456893" lon="10.6987854"><ele>319.66666666666663</ele><time>2026-05-02T16:10:04.72Z</time></trkpt><trkpt lat="44.0456402" lon="10.6990135"><ele>323.3333333333333</ele><time>2026-05-02T16:10:05.72Z</time></trkpt><trkpt lat="44.045679" lon="10.6992382"><ele>327.0</ele><time>2026-05-02T16:10:06.714Z</time></trkpt><trkpt lat="44.0456958" lon="10.69949"><ele>327.6666666666667</ele><time>2026-05-02T16:10:07.724Z</time></trkpt><trkpt lat="44.0457036" lon="10.699755"><ele>328.33333333333337</ele><time>2026-05-02T16:10:08.718Z</time></trkpt><trkpt lat="44.0456868" lon="10.7000268"><ele>329.0</ele><time>2026-05-02T16:10:09.726Z</time></trkpt><trkpt lat="44.0456691" lon="10.700317"><ele>330.33333333333337</ele><time>2026-05-02T16:10:10.721Z</time></trkpt><trkpt lat="44.0456331" lon="10.7006124"><ele>331.6666666666667</ele><time>2026-05-02T16:10:11.722Z</time></trkpt><trkpt lat="44.0456062" lon="10.7009143"><ele>333.0</ele><time>2026-05-02T16:10:12.723Z</time></trkpt><trkpt lat="44.0455836" lon="10.7012182"><ele>333.3333333333333</ele><time>2026-05-02T16:10:13.723Z</time></trkpt><trkpt lat="44.045567" lon="10.7015122"><ele>333.66666666666663</ele><time>2026-05-02T16:10:14.726Z</time></trkpt><trkpt lat="44.0455421" lon="10.7017852"><ele>334.0</ele><time>2026-05-02T16:10:15.731Z</time></trkpt><trkpt lat="44.0455112" lon="10.7020365"><ele>332.3333333333333</ele><time>2026-05-02T16:10:16.725Z</time></trkpt><trkpt lat="44.0454465" lon="10.7022738"><ele>330.6666666666667</ele><time>2026-05-02T16:10:17.714Z</time></trkpt><trkpt lat="44.0453737" lon="10.7025045"><ele>329.0</ele><time>2026-05-02T16:10:18.718Z</time></trkpt><trkpt lat="44.045263" lon="10.7027181"><ele>330.6666666666667</ele><time>2026-05-02T16:10:19.722Z</time></trkpt><trkpt lat="44.0451468" lon="10.7029371"><ele>332.3333333333333</ele><time>2026-05-02T16:10:20.723Z</time></trkpt><trkpt lat="44.0450041" lon="10.7031434"><ele>334.0</ele><time>2026-05-02T16:10:21.72Z</time></trkpt><trkpt lat="44.0448587" lon="10.703363"><ele>334.0</ele><time>2026-05-02T16:10:22.725Z</time></trkpt><trkpt lat="44.0447077" lon="10.70358"><ele>334.0</ele><time>2026-05-02T16:10:23.718Z</time></trkpt><trkpt lat="44.0445541" lon="10.7038036"><ele>334.0</ele><time>2026-05-02T16:10:24.72Z</time></trkpt><trkpt lat="44.044404" lon="10.7040249"><ele>332.0</ele><time>2026-05-02T16:10:25.721Z</time></trkpt><trkpt lat="44.0442677" lon="10.7042536"><ele>330.0</ele><time>2026-05-02T16:10:26.716Z</time></trkpt><trkpt lat="44.0441503" lon="10.7044995"><ele>328.0</ele><time>2026-05-02T16:10:27.724Z</time></trkpt><trkpt lat="44.0440262" lon="10.7047375"><ele>327.66666666666663</ele><time>2026-05-02T16:10:28.719Z</time></trkpt><trkpt lat="44.0439102" lon="10.7049677"><ele>327.3333333333333</ele><time>2026-05-02T16:10:29.712Z</time></trkpt><trkpt lat="44.0438018" lon="10.7051865"><ele>327.0</ele><time>2026-05-02T16:10:30.716Z</time></trkpt><trkpt lat="44.0437003" lon="10.7054069"><ele>327.3333333333333</ele><time>2026-05-02T16:10:31.723Z</time></trkpt><trkpt lat="44.0436086" lon="10.7056301"><ele>327.66666666666663</ele><time>2026-05-02T16:10:32.728Z</time></trkpt><trkpt lat="44.0435328" lon="10.7058782"><ele>328.0</ele><time>2026-05-02T16:10:33.741Z</time></trkpt><trkpt lat="44.043452" lon="10.7061223"><ele>328.0</ele><time>2026-05-02T16:10:34.721Z</time></trkpt><trkpt lat="44.0434157" lon="10.7064189"><ele>328.0</ele><time>2026-05-02T16:10:35.721Z</time></trkpt><trkpt lat="44.0433542" lon="10.7066969"><ele>328.0</ele><time>2026-05-02T16:10:36.72Z</time></trkpt><trkpt lat="44.0432927" lon="10.7069816"><ele>326.0</ele><time>2026-05-02T16:10:37.723Z</time></trkpt><trkpt lat="44.0432299" lon="10.7072624"><ele>324.0</ele><time>2026-05-02T16:10:38.742Z</time></trkpt><trkpt lat="44.0431818" lon="10.7075394"><ele>322.0</ele><time>2026-05-02T16:10:39.728Z</time></trkpt><trkpt lat="44.0431493" lon="10.7078202"><ele>321.0</ele><time>2026-05-02T16:10:40.725Z</time></trkpt><trkpt lat="44.0431174" lon="10.7080963"><ele>320.0</ele><time>2026-05-02T16:10:41.716Z</time></trkpt><trkpt lat="44.0431029" lon="10.7083837"><ele>319.0</ele><time>2026-05-02T16:10:42.74Z</time></trkpt><trkpt lat="44.0431028" lon="10.70867"><ele>318.66666666666663</ele><time>2026-05-02T16:10:43.722Z</time></trkpt><trkpt lat="44.0431065" lon="10.7089683"><ele>318.3333333333333</ele><time>2026-05-02T16:10:44.726Z</time></trkpt><trkpt lat="44.0431081" lon="10.7092653"><ele>318.0</ele><time>2026-05-02T16:10:45.72Z</time></trkpt><trkpt lat="44.0431306" lon="10.7095653"><ele>319.0</ele><time>2026-05-02T16:10:46.72Z</time></trkpt><trkpt lat="44.0431552" lon="10.7098611"><ele>320.0</ele><time>2026-05-02T16:10:47.721Z</time></trkpt><trkpt lat="44.043167" lon="10.7101492"><ele>321.0</ele><time>2026-05-02T16:10:48.722Z</time></trkpt><trkpt lat="44.043175" lon="10.7104214"><ele>325.6666666666667</ele><time>2026-05-02T16:10:49.717Z</time></trkpt><trkpt lat="44.0431758" lon="10.7106827"><ele>330.33333333333337</ele><time>2026-05-02T16:10:50.734Z</time></trkpt><trkpt lat="44.0431798" lon="10.7109352"><ele>335.0</ele><time>2026-05-02T16:10:51.721Z</time></trkpt><trkpt lat="44.043181" lon="10.7111838"><ele>337.6666666666667</ele><time>2026-05-02T16:10:52.725Z</time></trkpt><trkpt lat="44.0431967" lon="10.7114168"><ele>340.3333333333333</ele><time>2026-05-02T16:10:53.723Z</time></trkpt><trkpt lat="44.0432019" lon="10.7116395"><ele>343.0</ele><time>2026-05-02T16:10:54.724Z</time></trkpt><trkpt lat="44.0432001" lon="10.7118463"><ele>343.0</ele><time>2026-05-02T16:10:55.715Z</time></trkpt><trkpt lat="44.04321" lon="10.7120566"><ele>343.0</ele><time>2026-05-02T16:10:56.719Z</time></trkpt><trkpt lat="44.0432244" lon="10.7122744"><ele>343.0</ele><time>2026-05-02T16:10:57.72Z</time></trkpt><trkpt lat="44.0432462" lon="10.7125041"><ele>343.0</ele><time>2026-05-02T16:10:58.736Z</time></trkpt><trkpt lat="44.0432727" lon="10.7127386"><ele>343.0</ele><time>2026-05-02T16:10:59.721Z</time></trkpt><trkpt lat="44.0433052" lon="10.7129803"><ele>343.0</ele><time>2026-05-02T16:11:00.718Z</time></trkpt><trkpt lat="44.0433537" lon="10.7132186"><ele>343.66666666666663</ele><time>2026-05-02T16:11:01.725Z</time></trkpt><trkpt lat="44.0434212" lon="10.7134479"><ele>344.3333333333333</ele><time>2026-05-02T16:11:02.725Z</time></trkpt><trkpt lat="44.043599" lon="10.7136843"><ele>345.0</ele><time>2026-05-02T16:11:03.724Z</time></trkpt><trkpt lat="44.0437031" lon="10.7139327"><ele>340.6666666666667</ele><time>2026-05-02T16:11:04.713Z</time></trkpt><trkpt lat="44.043808" lon="10.714181"><ele>336.33333333333337</ele><time>2026-05-02T16:11:05.719Z</time></trkpt><trkpt lat="44.0439309" lon="10.7144219"><ele>332.0</ele><time>2026-05-02T16:11:06.717Z</time></trkpt><trkpt lat="44.044034" lon="10.7146682"><ele>332.0</ele><time>2026-05-02T16:11:07.724Z</time></trkpt><trkpt lat="44.044133" lon="10.7149148"><ele>332.0</ele><time>2026-05-02T16:11:08.727Z</time></trkpt><trkpt lat="44.0442238" lon="10.7151577"><ele>332.0</ele><time>2026-05-02T16:11:09.72Z</time></trkpt><trkpt lat="44.0443213" lon="10.7154049"><ele>332.0</ele><time>2026-05-02T16:11:10.718Z</time></trkpt><trkpt lat="44.0444122" lon="10.7156449"><ele>332.0</ele><time>2026-05-02T16:11:11.725Z</time></trkpt><trkpt lat="44.0445046" lon="10.7158758"><ele>332.0</ele><time>2026-05-02T16:11:12.72Z</time></trkpt><trkpt lat="44.0445928" lon="10.7161016"><ele>332.0</ele><time>2026-05-02T16:11:13.724Z</time></trkpt><trkpt lat="44.0446595" lon="10.7163331"><ele>332.0</ele><time>2026-05-02T16:11:14.723Z</time></trkpt><trkpt lat="44.0447185" lon="10.7165685"><ele>332.0</ele><time>2026-05-02T16:11:15.727Z</time></trkpt><trkpt lat="44.0447585" lon="10.716803"><ele>333.0</ele><time>2026-05-02T16:11:16.718Z</time></trkpt><trkpt lat="44.0447943" lon="10.7170366"><ele>334.0</ele><time>2026-05-02T16:11:17.714Z</time></trkpt><trkpt lat="44.044811" lon="10.7172718"><ele>335.0</ele><time>2026-05-02T16:11:18.712Z</time></trkpt><trkpt lat="44.0448057" lon="10.7175196"><ele>336.6666666666667</ele><time>2026-05-02T16:11:19.718Z</time></trkpt><trkpt lat="44.0447819" lon="10.7177692"><ele>338.3333333333333</ele><time>2026-05-02T16:11:20.721Z</time></trkpt><trkpt lat="44.0447471" lon="10.7180086"><ele>340.0</ele><time>2026-05-02T16:11:21.716Z</time></trkpt><trkpt lat="44.0446719" lon="10.7182355"><ele>340.0</ele><time>2026-05-02T16:11:22.718Z</time></trkpt><trkpt lat="44.0445703" lon="10.7184572"><ele>340.0</ele><time>2026-05-02T16:11:23.718Z</time></trkpt><trkpt lat="44.0444616" lon="10.7186773"><ele>340.0</ele><time>2026-05-02T16:11:24.714Z</time></trkpt><trkpt lat="44.0443453" lon="10.7188861"><ele>340.3333333333333</ele><time>2026-05-02T16:11:25.719Z</time></trkpt><trkpt lat="44.0442321" lon="10.7190938"><ele>340.6666666666667</ele><time>2026-05-02T16:11:26.718Z</time></trkpt><trkpt lat="44.0441277" lon="10.7193036"><ele>341.0</ele><time>2026-05-02T16:11:27.72Z</time></trkpt><trkpt lat="44.0440259" lon="10.7195118"><ele>341.0</ele><time>2026-05-02T16:11:28.74Z</time></trkpt><trkpt lat="44.0439267" lon="10.7197126"><ele>341.0</ele><time>2026-05-02T16:11:29.724Z</time></trkpt><trkpt lat="44.0438347" lon="10.7199114"><ele>341.0</ele><time>2026-05-02T16:11:30.719Z</time></trkpt><trkpt lat="44.0437555" lon="10.720117"><ele>340.6666666666667</ele><time>2026-05-02T16:11:31.71Z</time></trkpt><trkpt lat="44.0436957" lon="10.7203488"><ele>340.3333333333333</ele><time>2026-05-02T16:11:32.715Z</time></trkpt><trkpt lat="44.043647" lon="10.7205875"><ele>340.0</ele><time>2026-05-02T16:11:33.742Z</time></trkpt><trkpt lat="44.0436141" lon="10.7208265"><ele>340.0</ele><time>2026-05-02T16:11:34.718Z</time></trkpt><trkpt lat="44.0435945" lon="10.7210068"><ele>340.0</ele><time>2026-05-02T16:11:35.717Z</time></trkpt><trkpt lat="44.0434698" lon="10.7212071"><ele>340.0</ele><time>2026-05-02T16:11:36.714Z</time></trkpt><trkpt lat="44.0433796" lon="10.7214229"><ele>339.3333333333333</ele><time>2026-05-02T16:11:37.717Z</time></trkpt><trkpt lat="44.0432791" lon="10.7216406"><ele>338.6666666666667</ele><time>2026-05-02T16:11:38.715Z</time></trkpt><trkpt lat="44.043182" lon="10.7218594"><ele>338.0</ele><time>2026-05-02T16:11:39.714Z</time></trkpt><trkpt lat="44.043076" lon="10.7220904"><ele>340.6666666666667</ele><time>2026-05-02T16:11:40.72Z</time></trkpt><trkpt lat="44.0429674" lon="10.7223301"><ele>343.3333333333333</ele><time>2026-05-02T16:11:41.719Z</time></trkpt><trkpt lat="44.0428501" lon="10.7225708"><ele>346.0</ele><time>2026-05-02T16:11:42.724Z</time></trkpt><trkpt lat="44.0427303" lon="10.7228155"><ele>346.0</ele><time>2026-05-02T16:11:43.716Z</time></trkpt><trkpt lat="44.0426223" lon="10.7230704"><ele>346.0</ele><time>2026-05-02T16:11:44.716Z</time></trkpt><trkpt lat="44.0425238" lon="10.7233346"><ele>346.0</ele><time>2026-05-02T16:11:45.718Z</time></trkpt><trkpt lat="44.0424381" lon="10.7236005"><ele>346.0</ele><time>2026-05-02T16:11:46.718Z</time></trkpt><trkpt lat="44.0423547" lon="10.7238673"><ele>346.0</ele><time>2026-05-02T16:11:47.727Z</time></trkpt><trkpt lat="44.0422668" lon="10.7241241"><ele>346.0</ele><time>2026-05-02T16:11:48.716Z</time></trkpt><trkpt lat="44.0421786" lon="10.7243792"><ele>351.3333333333333</ele><time>2026-05-02T16:11:49.724Z</time></trkpt><trkpt lat="44.0421017" lon="10.7246298"><ele>356.6666666666667</ele><time>2026-05-02T16:11:50.732Z</time></trkpt><trkpt lat="44.0420057" lon="10.7248536"><ele>362.0</ele><time>2026-05-02T16:11:51.717Z</time></trkpt><trkpt lat="44.0418899" lon="10.7250451"><ele>361.6666666666667</ele><time>2026-05-02T16:11:52.73Z</time></trkpt><trkpt lat="44.0417653" lon="10.7252396"><ele>361.3333333333333</ele><time>2026-05-02T16:11:53.721Z</time></trkpt><trkpt lat="44.0416352" lon="10.7254332"><ele>361.0</ele><time>2026-05-02T16:11:54.718Z</time></trkpt><trkpt lat="44.0415052" lon="10.7256304"><ele>361.0</ele><time>2026-05-02T16:11:55.719Z</time></trkpt><trkpt lat="44.0413834" lon="10.7258079"><ele>361.0</ele><time>2026-05-02T16:11:56.725Z</time></trkpt><trkpt lat="44.0412549" lon="10.7259656"><ele>361.0</ele><time>2026-05-02T16:11:57.727Z</time></trkpt><trkpt lat="44.0411391" lon="10.7261145"><ele>359.75</ele><time>2026-05-02T16:11:58.717Z</time></trkpt><trkpt lat="44.0410239" lon="10.7262381"><ele>358.5</ele><time>2026-05-02T16:11:59.721Z</time></trkpt><trkpt lat="44.0409048" lon="10.7263496"><ele>357.25</ele><time>2026-05-02T16:12:00.718Z</time></trkpt><trkpt lat="44.0407876" lon="10.7264647"><ele>356.0</ele><time>2026-05-02T16:12:01.74Z</time></trkpt><trkpt lat="44.040676" lon="10.7265851"><ele>356.0</ele><time>2026-05-02T16:12:02.72Z</time></trkpt><trkpt lat="44.0405693" lon="10.726721"><ele>356.0</ele><time>2026-05-02T16:12:03.721Z</time></trkpt><trkpt lat="44.0404698" lon="10.7268822"><ele>356.0</ele><time>2026-05-02T16:12:04.716Z</time></trkpt><trkpt lat="44.0403714" lon="10.7270451"><ele>362.33333333333337</ele><time>2026-05-02T16:12:05.717Z</time></trkpt><trkpt lat="44.0402865" lon="10.727224"><ele>368.6666666666667</ele><time>2026-05-02T16:12:06.719Z</time></trkpt><trkpt lat="44.0402168" lon="10.7274054"><ele>375.0</ele><time>2026-05-02T16:12:07.718Z</time></trkpt><trkpt lat="44.0401436" lon="10.7275857"><ele>379.5</ele><time>2026-05-02T16:12:08.719Z</time></trkpt><trkpt lat="44.0400793" lon="10.7277668"><ele>384.0</ele><time>2026-05-02T16:12:09.727Z</time></trkpt><trkpt lat="44.0400335" lon="10.7279536"><ele>388.5</ele><time>2026-05-02T16:12:10.721Z</time></trkpt><trkpt lat="44.0400015" lon="10.7281418"><ele>393.0</ele><time>2026-05-02T16:12:11.72Z</time></trkpt><trkpt lat="44.0399818" lon="10.7283362"><ele>393.0</ele><time>2026-05-02T16:12:12.719Z</time></trkpt><trkpt lat="44.0399732" lon="10.7285406"><ele>393.0</ele><time>2026-05-02T16:12:13.728Z</time></trkpt><trkpt lat="44.0399683" lon="10.7287426"><ele>393.0</ele><time>2026-05-02T16:12:14.71Z</time></trkpt><trkpt lat="44.0399612" lon="10.728941"><ele>393.0</ele><time>2026-05-02T16:12:15.717Z</time></trkpt><trkpt lat="44.0399511" lon="10.7291228"><ele>384.5</ele><time>2026-05-02T16:12:16.726Z</time></trkpt><trkpt lat="44.0399297" lon="10.7292879"><ele>376.0</ele><time>2026-05-02T16:12:17.728Z</time></trkpt><trkpt lat="44.0399223" lon="10.729448"><ele>367.5</ele><time>2026-05-02T16:12:18.731Z</time></trkpt><trkpt lat="44.039918" lon="10.7296147"><ele>359.0</ele><time>2026-05-02T16:12:19.724Z</time></trkpt><trkpt lat="44.0399275" lon="10.7297879"><ele>358.25</ele><time>2026-05-02T16:12:20.723Z</time></trkpt><trkpt lat="44.0399547" lon="10.7299674"><ele>357.5</ele><time>2026-05-02T16:12:21.726Z</time></trkpt><trkpt lat="44.0399943" lon="10.7301538"><ele>356.75</ele><time>2026-05-02T16:12:22.717Z</time></trkpt><trkpt lat="44.0400276" lon="10.7303428"><ele>356.0</ele><time>2026-05-02T16:12:23.723Z</time></trkpt><trkpt lat="44.040087" lon="10.7305174"><ele>359.75</ele><time>2026-05-02T16:12:24.714Z</time></trkpt><trkpt lat="44.0401469" lon="10.7306879"><ele>363.5</ele><time>2026-05-02T16:12:25.716Z</time></trkpt><trkpt lat="44.040222" lon="10.7308343"><ele>367.25</ele><time>2026-05-02T16:12:26.725Z</time></trkpt><trkpt lat="44.0403087" lon="10.7309706"><ele>371.0</ele><time>2026-05-02T16:12:27.74Z</time></trkpt><trkpt lat="44.0403953" lon="10.7311068"><ele>371.0</ele><time>2026-05-02T16:12:28.724Z</time></trkpt><trkpt lat="44.040481" lon="10.7312447"><ele>371.0</ele><time>2026-05-02T16:12:29.734Z</time></trkpt><trkpt lat="44.0405544" lon="10.7313737"><ele>371.0</ele><time>2026-05-02T16:12:30.723Z</time></trkpt><trkpt lat="44.0405983" lon="10.731522"><ele>371.0</ele><time>2026-05-02T16:12:31.722Z</time></trkpt><trkpt lat="44.0406141" lon="10.7316688"><ele>371.0</ele><time>2026-05-02T16:12:32.721Z</time></trkpt><trkpt lat="44.0406012" lon="10.731813"><ele>371.0</ele><time>2026-05-02T16:12:33.721Z</time></trkpt><trkpt lat="44.040581" lon="10.7319746"><ele>371.0</ele><time>2026-05-02T16:12:34.726Z</time></trkpt><trkpt lat="44.0405713" lon="10.7321477"><ele>371.0</ele><time>2026-05-02T16:12:35.717Z</time></trkpt><trkpt lat="44.0405837" lon="10.7323273"><ele>371.25</ele><time>2026-05-02T16:12:36.715Z</time></trkpt><trkpt lat="44.0406075" lon="10.7325077"><ele>371.5</ele><time>2026-05-02T16:12:37.721Z</time></trkpt><trkpt lat="44.0406658" lon="10.7326893"><ele>371.75</ele><time>2026-05-02T16:12:38.727Z</time></trkpt><trkpt lat="44.0407256" lon="10.7328486"><ele>372.0</ele><time>2026-05-02T16:12:39.721Z</time></trkpt><trkpt lat="44.0408043" lon="10.7330072"><ele>380.0</ele><time>2026-05-02T16:12:40.728Z</time></trkpt><trkpt lat="44.0408704" lon="10.733155"><ele>388.0</ele><time>2026-05-02T16:12:41.716Z</time></trkpt><trkpt lat="44.0409324" lon="10.7332947"><ele>396.0</ele><time>2026-05-02T16:12:42.721Z</time></trkpt><trkpt lat="44.04098" lon="10.7334233"><ele>404.0</ele><time>2026-05-02T16:12:43.739Z</time></trkpt><trkpt lat="44.0410224" lon="10.7335567"><ele>405.2</ele><time>2026-05-02T16:12:44.713Z</time></trkpt><trkpt lat="44.0410358" lon="10.733702"><ele>406.4</ele><time>2026-05-02T16:12:45.721Z</time></trkpt><trkpt lat="44.0410308" lon="10.7338383"><ele>407.6</ele><time>2026-05-02T16:12:46.729Z</time></trkpt><trkpt lat="44.0409966" lon="10.733964"><ele>408.8</ele><time>2026-05-02T16:12:47.715Z</time></trkpt><trkpt lat="44.0409354" lon="10.7340715"><ele>410.0</ele><time>2026-05-02T16:12:48.73Z</time></trkpt><trkpt lat="44.0408545" lon="10.7341781"><ele>401.5</ele><time>2026-05-02T16:12:49.719Z</time></trkpt><trkpt lat="44.0407662" lon="10.734297"><ele>393.0</ele><time>2026-05-02T16:12:50.717Z</time></trkpt><trkpt lat="44.0406845" lon="10.7344263"><ele>384.5</ele><time>2026-05-02T16:12:51.721Z</time></trkpt><trkpt lat="44.0406855" lon="10.7346257"><ele>376.0</ele><time>2026-05-02T16:12:52.715Z</time></trkpt><trkpt lat="44.040691" lon="10.7348001"><ele>376.0</ele><time>2026-05-02T16:12:53.725Z</time></trkpt><trkpt lat="44.0407089" lon="10.734982"><ele>376.0</ele><time>2026-05-02T16:12:54.722Z</time></trkpt><trkpt lat="44.0407544" lon="10.7351574"><ele>376.0</ele><time>2026-05-02T16:12:55.716Z</time></trkpt><trkpt lat="44.0407915" lon="10.7353276"><ele>376.0</ele><time>2026-05-02T16:12:56.748Z</time></trkpt><trkpt lat="44.040832" lon="10.7354684"><ele>383.6</ele><time>2026-05-02T16:12:57.711Z</time></trkpt><trkpt lat="44.0408621" lon="10.7356121"><ele>391.20000000000005</ele><time>2026-05-02T16:12:58.71Z</time></trkpt><trkpt lat="44.040867" lon="10.7357537"><ele>398.79999999999995</ele><time>2026-05-02T16:12:59.71Z</time></trkpt><trkpt lat="44.0408481" lon="10.7358743"><ele>406.4</ele><time>2026-05-02T16:13:00.717Z</time></trkpt><trkpt lat="44.0408228" lon="10.7360096"><ele>414.0</ele><time>2026-05-02T16:13:01.723Z</time></trkpt><trkpt lat="44.0408252" lon="10.7361578"><ele>415.75</ele><time>2026-05-02T16:13:02.727Z</time></trkpt><trkpt lat="44.0408106" lon="10.736311"><ele>417.5</ele><time>2026-05-02T16:13:03.717Z</time></trkpt><trkpt lat="44.0408286" lon="10.7364914"><ele>419.25</ele><time>2026-05-02T16:13:04.719Z</time></trkpt><trkpt lat="44.0408241" lon="10.7366442"><ele>421.0</ele><time>2026-05-02T16:13:05.717Z</time></trkpt><trkpt lat="44.040803" lon="10.7367816"><ele>420.4</ele><time>2026-05-02T16:13:06.733Z</time></trkpt><trkpt lat="44.0407759" lon="10.7369118"><ele>419.8</ele><time>2026-05-02T16:13:07.717Z</time></trkpt><trkpt lat="44.040768" lon="10.7370204"><ele>419.2</ele><time>2026-05-02T16:13:08.723Z</time></trkpt><trkpt lat="44.0407796" lon="10.7371448"><ele>418.59999999999997</ele><time>2026-05-02T16:13:09.723Z</time></trkpt><trkpt lat="44.0408102" lon="10.7372551"><ele>418.0</ele><time>2026-05-02T16:13:10.727Z</time></trkpt><trkpt lat="44.040882" lon="10.7373623"><ele>418.0</ele><time>2026-05-02T16:13:11.72Z</time></trkpt><trkpt lat="44.0409285" lon="10.7374749"><ele>418.0</ele><time>2026-05-02T16:13:12.716Z</time></trkpt><trkpt lat="44.0409527" lon="10.7376011"><ele>418.0</ele><time>2026-05-02T16:13:13.72Z</time></trkpt><trkpt lat="44.0409457" lon="10.737724"><ele>418.0</ele><time>2026-05-02T16:13:14.714Z</time></trkpt><trkpt lat="44.0408865" lon="10.7378454"><ele>418.0</ele><time>2026-05-02T16:13:15.712Z</time></trkpt><trkpt lat="44.0408266" lon="10.7379683"><ele>421.79999999999995</ele><time>2026-05-02T16:13:16.725Z</time></trkpt><trkpt lat="44.0407875" lon="10.7381041"><ele>425.6</ele><time>2026-05-02T16:13:17.72Z</time></trkpt><trkpt lat="44.040788" lon="10.7382509"><ele>429.40000000000003</ele><time>2026-05-02T16:13:18.739Z</time></trkpt><trkpt lat="44.0407733" lon="10.7383943"><ele>433.20000000000005</ele><time>2026-05-02T16:13:19.725Z</time></trkpt><trkpt lat="44.0407964" lon="10.7385493"><ele>437.0</ele><time>2026-05-02T16:13:20.721Z</time></trkpt><trkpt lat="44.0408074" lon="10.7386828"><ele>428.6</ele><time>2026-05-02T16:13:21.737Z</time></trkpt><trkpt lat="44.0407817" lon="10.73881"><ele>420.20000000000005</ele><time>2026-05-02T16:13:22.714Z</time></trkpt><trkpt lat="44.0407454" lon="10.7389308"><ele>411.8</ele><time>2026-05-02T16:13:23.722Z</time></trkpt><trkpt lat="44.0407011" lon="10.7390812"><ele>403.4</ele><time>2026-05-02T16:13:24.721Z</time></trkpt><trkpt lat="44.0406612" lon="10.7392554"><ele>395.0</ele><time>2026-05-02T16:13:25.719Z</time></trkpt><trkpt lat="44.0406365" lon="10.7394461"><ele>395.0</ele><time>2026-05-02T16:13:26.718Z</time></trkpt><trkpt lat="44.0406176" lon="10.7396566"><ele>395.0</ele><time>2026-05-02T16:13:27.722Z</time></trkpt><trkpt lat="44.040597" lon="10.7398785"><ele>395.0</ele><time>2026-05-02T16:13:28.72Z</time></trkpt><trkpt lat="44.0405783" lon="10.7401061"><ele>396.5</ele><time>2026-05-02T16:13:29.717Z</time></trkpt><trkpt lat="44.0405575" lon="10.7403218"><ele>398.0</ele><time>2026-05-02T16:13:30.719Z</time></trkpt><trkpt lat="44.0405479" lon="10.7405362"><ele>399.5</ele><time>2026-05-02T16:13:31.717Z</time></trkpt><trkpt lat="44.0405058" lon="10.7407036"><ele>401.0</ele><time>2026-05-02T16:13:32.714Z</time></trkpt><trkpt lat="44.0404893" lon="10.7408683"><ele>401.0</ele><time>2026-05-02T16:13:33.721Z</time></trkpt><trkpt lat="44.0405014" lon="10.7410227"><ele>401.0</ele><time>2026-05-02T16:13:34.723Z</time></trkpt><trkpt lat="44.0405383" lon="10.7411612"><ele>401.0</ele><time>2026-05-02T16:13:35.721Z</time></trkpt><trkpt lat="44.0405878" lon="10.7412703"><ele>401.0</ele><time>2026-05-02T16:13:36.71Z</time></trkpt><trkpt lat="44.0406165" lon="10.7413769"><ele>401.0</ele><time>2026-05-02T16:13:37.715Z</time></trkpt><trkpt lat="44.0406304" lon="10.7414885"><ele>401.6</ele><time>2026-05-02T16:13:38.717Z</time></trkpt><trkpt lat="44.0406062" lon="10.7415938"><ele>402.20000000000005</ele><time>2026-05-02T16:13:39.719Z</time></trkpt><trkpt lat="44.0405582" lon="10.7416985"><ele>402.79999999999995</ele><time>2026-05-02T16:13:40.727Z</time></trkpt><trkpt lat="44.0404837" lon="10.7417768"><ele>403.4</ele><time>2026-05-02T16:13:41.727Z</time></trkpt><trkpt lat="44.0404129" lon="10.7418682"><ele>404.0</ele><time>2026-05-02T16:13:42.721Z</time></trkpt><trkpt lat="44.0403082" lon="10.7419415"><ele>408.79999999999995</ele><time>2026-05-02T16:13:43.723Z</time></trkpt><trkpt lat="44.0402504" lon="10.7420432"><ele>413.59999999999997</ele><time>2026-05-02T16:13:44.717Z</time></trkpt><trkpt lat="44.040176" lon="10.7421352"><ele>418.4</ele><time>2026-05-02T16:13:45.721Z</time></trkpt><trkpt lat="44.0401074" lon="10.7422356"><ele>423.2</ele><time>2026-05-02T16:13:46.72Z</time></trkpt><trkpt lat="44.040078" lon="10.7423786"><ele>428.0</ele><time>2026-05-02T16:13:47.74Z</time></trkpt><trkpt lat="44.0400481" lon="10.7425332"><ele>428.0</ele><time>2026-05-02T16:13:48.72Z</time></trkpt><trkpt lat="44.0400197" lon="10.7426953"><ele>428.0</ele><time>2026-05-02T16:13:49.719Z</time></trkpt><trkpt lat="44.0399877" lon="10.742857"><ele>428.0</ele><time>2026-05-02T16:13:50.727Z</time></trkpt><trkpt lat="44.0399511" lon="10.7430141"><ele>428.0</ele><time>2026-05-02T16:13:51.721Z</time></trkpt><trkpt lat="44.0399315" lon="10.7431943"><ele>423.5</ele><time>2026-05-02T16:13:52.724Z</time></trkpt><trkpt lat="44.0399139" lon="10.7433775"><ele>419.0</ele><time>2026-05-02T16:13:53.732Z</time></trkpt><trkpt lat="44.0398967" lon="10.7435533"><ele>414.5</ele><time>2026-05-02T16:13:54.726Z</time></trkpt><trkpt lat="44.0398789" lon="10.7437308"><ele>410.0</ele><time>2026-05-02T16:13:55.723Z</time></trkpt><trkpt lat="44.0398562" lon="10.7439101"><ele>410.0</ele><time>2026-05-02T16:13:56.738Z</time></trkpt><trkpt lat="44.0398328" lon="10.7440918"><ele>410.0</ele><time>2026-05-02T16:13:57.722Z</time></trkpt><trkpt lat="44.0398341" lon="10.7442677"><ele>410.0</ele><time>2026-05-02T16:13:58.725Z</time></trkpt><trkpt lat="44.0398226" lon="10.7444368"><ele>410.0</ele><time>2026-05-02T16:13:59.744Z</time></trkpt><trkpt lat="44.0398181" lon="10.7445898"><ele>413.2</ele><time>2026-05-02T16:14:00.718Z</time></trkpt><trkpt lat="44.0398169" lon="10.7447275"><ele>416.4</ele><time>2026-05-02T16:14:01.724Z</time></trkpt><trkpt lat="44.039795" lon="10.7448712"><ele>419.6</ele><time>2026-05-02T16:14:02.72Z</time></trkpt><trkpt lat="44.0397931" lon="10.7450153"><ele>422.8</ele><time>2026-05-02T16:14:03.71Z</time></trkpt><trkpt lat="44.0398081" lon="10.7451618"><ele>426.0</ele><time>2026-05-02T16:14:04.72Z</time></trkpt><trkpt lat="44.0398395" lon="10.7453142"><ele>426.4</ele><time>2026-05-02T16:14:05.727Z</time></trkpt><trkpt lat="44.0398703" lon="10.7454472"><ele>426.8</ele><time>2026-05-02T16:14:06.718Z</time></trkpt><trkpt lat="44.0399182" lon="10.7455708"><ele>427.19999999999993</ele><time>2026-05-02T16:14:07.72Z</time></trkpt><trkpt lat="44.039957" lon="10.7456959"><ele>427.59999999999997</ele><time>2026-05-02T16:14:08.722Z</time></trkpt><trkpt lat="44.0399906" lon="10.7458273"><ele>428.0</ele><time>2026-05-02T16:14:09.743Z</time></trkpt><trkpt lat="44.0400221" lon="10.7459706"><ele>436.5</ele><time>2026-05-02T16:14:10.72Z</time></trkpt><trkpt lat="44.0400454" lon="10.7461213"><ele>445.0</ele><time>2026-05-02T16:14:11.726Z</time></trkpt><trkpt lat="44.0400613" lon="10.746282"><ele>453.5</ele><time>2026-05-02T16:14:12.746Z</time></trkpt><trkpt lat="44.0400551" lon="10.7464625"><ele>462.0</ele><time>2026-05-02T16:14:13.716Z</time></trkpt><trkpt lat="44.0400356" lon="10.7466455"><ele>462.0</ele><time>2026-05-02T16:14:14.712Z</time></trkpt><trkpt lat="44.0400096" lon="10.7468269"><ele>462.00000000000006</ele><time>2026-05-02T16:14:15.739Z</time></trkpt><trkpt lat="44.0399858" lon="10.7469905"><ele>462.00000000000006</ele><time>2026-05-02T16:14:16.719Z</time></trkpt><trkpt lat="44.0399729" lon="10.7471348"><ele>462.0</ele><time>2026-05-02T16:14:17.717Z</time></trkpt><trkpt lat="44.0399779" lon="10.7472548"><ele>462.0</ele><time>2026-05-02T16:14:18.719Z</time></trkpt><trkpt lat="44.0400024" lon="10.7473732"><ele>461.75</ele><time>2026-05-02T16:14:19.719Z</time></trkpt><trkpt lat="44.0400577" lon="10.7474742"><ele>461.5</ele><time>2026-05-02T16:14:20.717Z</time></trkpt><trkpt lat="44.0401351" lon="10.7475669"><ele>461.25</ele><time>2026-05-02T16:14:21.714Z</time></trkpt><trkpt lat="44.0402408" lon="10.7476591"><ele>461.0</ele><time>2026-05-02T16:14:22.731Z</time></trkpt><trkpt lat="44.0403708" lon="10.747744"><ele>463.0</ele><time>2026-05-02T16:14:23.716Z</time></trkpt><trkpt lat="44.0405036" lon="10.7478443"><ele>465.0</ele><time>2026-05-02T16:14:24.719Z</time></trkpt><trkpt lat="44.0406701" lon="10.7479156"><ele>467.0</ele><time>2026-05-02T16:14:25.714Z</time></trkpt><trkpt lat="44.0408569" lon="10.7480433"><ele>467.0</ele><time>2026-05-02T16:14:26.718Z</time></trkpt><trkpt lat="44.0410533" lon="10.7481404"><ele>467.0</ele><time>2026-05-02T16:14:27.725Z</time></trkpt><trkpt lat="44.0412254" lon="10.748232"><ele>467.0</ele><time>2026-05-02T16:14:28.717Z</time></trkpt><trkpt lat="44.0413819" lon="10.7483251"><ele>467.0</ele><time>2026-05-02T16:14:29.73Z</time></trkpt><trkpt lat="44.0415276" lon="10.7484174"><ele>467.0</ele><time>2026-05-02T16:14:30.719Z</time></trkpt><trkpt lat="44.041673" lon="10.7484991"><ele>467.0</ele><time>2026-05-02T16:14:31.724Z</time></trkpt><trkpt lat="44.0418001" lon="10.7485982"><ele>465.5</ele><time>2026-05-02T16:14:32.731Z</time></trkpt><trkpt lat="44.0419219" lon="10.7486947"><ele>464.0</ele><time>2026-05-02T16:14:33.714Z</time></trkpt><trkpt lat="44.0420443" lon="10.7487987"><ele>462.5</ele><time>2026-05-02T16:14:34.715Z</time></trkpt><trkpt lat="44.042165" lon="10.7489009"><ele>461.0</ele><time>2026-05-02T16:14:35.724Z</time></trkpt><trkpt lat="44.0422858" lon="10.7490029"><ele>461.0</ele><time>2026-05-02T16:14:36.721Z</time></trkpt><trkpt lat="44.0424042" lon="10.7490982"><ele>461.0</ele><time>2026-05-02T16:14:37.717Z</time></trkpt><trkpt lat="44.042519" lon="10.7491828"><ele>461.0</ele><time>2026-05-02T16:14:38.735Z</time></trkpt><trkpt lat="44.042642" lon="10.7492592"><ele>461.0</ele><time>2026-05-02T16:14:39.726Z</time></trkpt><trkpt lat="44.042766" lon="10.7493353"><ele>462.75</ele><time>2026-05-02T16:14:40.719Z</time></trkpt><trkpt lat="44.042883" lon="10.749415"><ele>464.5</ele><time>2026-05-02T16:14:41.717Z</time></trkpt><trkpt lat="44.0430046" lon="10.7494882"><ele>466.25</ele><time>2026-05-02T16:14:42.725Z</time></trkpt><trkpt lat="44.0431393" lon="10.7495598"><ele>468.0</ele><time>2026-05-02T16:14:43.74Z</time></trkpt><trkpt lat="44.0432802" lon="10.7496008"><ele>471.25</ele><time>2026-05-02T16:14:44.722Z</time></trkpt><trkpt lat="44.0434157" lon="10.7496221"><ele>474.5</ele><time>2026-05-02T16:14:45.725Z</time></trkpt><trkpt lat="44.0435552" lon="10.7496289"><ele>477.75</ele><time>2026-05-02T16:14:46.724Z</time></trkpt><trkpt lat="44.0436935" lon="10.7496079"><ele>481.0</ele><time>2026-05-02T16:14:47.721Z</time></trkpt><trkpt lat="44.0438149" lon="10.7495581"><ele>481.0</ele><time>2026-05-02T16:14:48.722Z</time></trkpt><trkpt lat="44.0439442" lon="10.749471"><ele>481.0</ele><time>2026-05-02T16:14:49.731Z</time></trkpt><trkpt lat="44.0440679" lon="10.7494163"><ele>481.0</ele><time>2026-05-02T16:14:50.721Z</time></trkpt><trkpt lat="44.0442056" lon="10.7493874"><ele>481.0</ele><time>2026-05-02T16:14:51.722Z</time></trkpt><trkpt lat="44.0443463" lon="10.7493809"><ele>483.5</ele><time>2026-05-02T16:14:52.718Z</time></trkpt><trkpt lat="44.0444911" lon="10.7493858"><ele>486.0</ele><time>2026-05-02T16:14:53.717Z</time></trkpt><trkpt lat="44.0446276" lon="10.7494206"><ele>488.5</ele><time>2026-05-02T16:14:54.725Z</time></trkpt><trkpt lat="44.0447635" lon="10.7494699"><ele>491.0</ele><time>2026-05-02T16:14:55.724Z</time></trkpt><trkpt lat="44.0448896" lon="10.7495211"><ele>495.25</ele><time>2026-05-02T16:14:56.721Z</time></trkpt><trkpt lat="44.0450104" lon="10.7495619"><ele>499.5</ele><time>2026-05-02T16:14:57.723Z</time></trkpt><trkpt lat="44.0451269" lon="10.7495916"><ele>503.75</ele><time>2026-05-02T16:14:58.721Z</time></trkpt><trkpt lat="44.0452459" lon="10.7496194"><ele>508.0</ele><time>2026-05-02T16:14:59.739Z</time></trkpt><trkpt lat="44.045351" lon="10.7496484"><ele>508.0</ele><time>2026-05-02T16:15:00.728Z</time></trkpt><trkpt lat="44.045455" lon="10.7496762"><ele>507.99999999999994</ele><time>2026-05-02T16:15:01.724Z</time></trkpt><trkpt lat="44.0455239" lon="10.7497513"><ele>507.99999999999994</ele><time>2026-05-02T16:15:02.728Z</time></trkpt><trkpt lat="44.0455756" lon="10.7498375"><ele>508.0</ele><time>2026-05-02T16:15:03.716Z</time></trkpt><trkpt lat="44.0456117" lon="10.7499527"><ele>508.0</ele><time>2026-05-02T16:15:04.72Z</time></trkpt><trkpt lat="44.0455768" lon="10.7501021"><ele>512.4</ele><time>2026-05-02T16:15:05.721Z</time></trkpt><trkpt lat="44.0455442" lon="10.7502084"><ele>516.8</ele><time>2026-05-02T16:15:06.726Z</time></trkpt><trkpt lat="44.0454833" lon="10.7502882"><ele>521.2</ele><time>2026-05-02T16:15:07.718Z</time></trkpt><trkpt lat="44.0453951" lon="10.7503466"><ele>525.6</ele><time>2026-05-02T16:15:08.724Z</time></trkpt><trkpt lat="44.0452895" lon="10.7503851"><ele>530.0</ele><time>2026-05-02T16:15:09.719Z</time></trkpt><trkpt lat="44.0451758" lon="10.7504002"><ele>530.0</ele><time>2026-05-02T16:15:10.728Z</time></trkpt><trkpt lat="44.045064" lon="10.7504244"><ele>530.0</ele><time>2026-05-02T16:15:11.723Z</time></trkpt><trkpt lat="44.0449663" lon="10.7504376"><ele>530.0</ele><time>2026-05-02T16:15:12.717Z</time></trkpt><trkpt lat="44.0448771" lon="10.7504434"><ele>530.0</ele><time>2026-05-02T16:15:13.741Z</time></trkpt><trkpt lat="44.0447863" lon="10.7504573"><ele>530.0</ele><time>2026-05-02T16:15:14.718Z</time></trkpt><trkpt lat="44.0447013" lon="10.7505378"><ele>525.0</ele><time>2026-05-02T16:15:15.721Z</time></trkpt><trkpt lat="44.0446265" lon="10.7506216"><ele>520.0</ele><time>2026-05-02T16:15:16.731Z</time></trkpt><trkpt lat="44.0445488" lon="10.7507254"><ele>515.0</ele><time>2026-05-02T16:15:17.725Z</time></trkpt><trkpt lat="44.0444737" lon="10.75083"><ele>510.0</ele><time>2026-05-02T16:15:18.716Z</time></trkpt><trkpt lat="44.0444023" lon="10.7509295"><ele>505.0</ele><time>2026-05-02T16:15:19.722Z</time></trkpt><trkpt lat="44.0443499" lon="10.7510392"><ele>505.6666666666667</ele><time>2026-05-02T16:15:20.713Z</time></trkpt><trkpt lat="44.0442777" lon="10.7511332"><ele>506.33333333333337</ele><time>2026-05-02T16:15:21.733Z</time></trkpt><trkpt lat="44.0442023" lon="10.7511648"><ele>507.0</ele><time>2026-05-02T16:15:22.722Z</time></trkpt><trkpt lat="44.0441102" lon="10.7511738"><ele>507.66666666666663</ele><time>2026-05-02T16:15:23.725Z</time></trkpt><trkpt lat="44.0440212" lon="10.7511752"><ele>508.3333333333333</ele><time>2026-05-02T16:15:24.721Z</time></trkpt><trkpt lat="44.0439442" lon="10.7511653"><ele>509.0</ele><time>2026-05-02T16:15:25.719Z</time></trkpt><trkpt lat="44.0438689" lon="10.7511488"><ele>508.99999999999994</ele><time>2026-05-02T16:15:26.744Z</time></trkpt><trkpt lat="44.0437947" lon="10.7511754"><ele>509.0</ele><time>2026-05-02T16:15:27.721Z</time></trkpt><trkpt lat="44.0437133" lon="10.7512777"><ele>509.0</ele><time>2026-05-02T16:15:29.757Z</time></trkpt><trkpt lat="44.0437192" lon="10.7513728"><ele>509.0</ele><time>2026-05-02T16:15:30.719Z</time></trkpt><trkpt lat="44.0437364" lon="10.7514582"><ele>508.99999999999994</ele><time>2026-05-02T16:15:31.714Z</time></trkpt><trkpt lat="44.0437668" lon="10.7516167"><ele>509.0</ele><time>2026-05-02T16:15:33.718Z</time></trkpt><trkpt lat="44.0438443" lon="10.751618"><ele>509.0</ele><time>2026-05-02T16:15:34.725Z</time></trkpt><trkpt lat="44.0439277" lon="10.7516501"><ele>509.0</ele><time>2026-05-02T16:15:35.72Z</time></trkpt><trkpt lat="44.0440135" lon="10.7516817"><ele>509.0</ele><time>2026-05-02T16:15:36.725Z</time></trkpt><trkpt lat="44.0441033" lon="10.7517062"><ele>509.0</ele><time>2026-05-02T16:15:37.728Z</time></trkpt><trkpt lat="44.0441915" lon="10.7517416"><ele>509.0</ele><time>2026-05-02T16:15:38.74Z</time></trkpt><trkpt lat="44.0443019" lon="10.7518098"><ele>509.0</ele><time>2026-05-02T16:15:39.724Z</time></trkpt><trkpt lat="44.0444037" lon="10.7518661"><ele>509.0</ele><time>2026-05-02T16:15:40.731Z</time></trkpt><trkpt lat="44.0444665" lon="10.752022"><ele>509.0</ele><time>2026-05-02T16:15:41.742Z</time></trkpt><trkpt lat="44.0445492" lon="10.7521594"><ele>509.0</ele><time>2026-05-02T16:15:42.718Z</time></trkpt><trkpt lat="44.0446284" lon="10.7522964"><ele>509.0</ele><time>2026-05-02T16:15:43.719Z</time></trkpt><trkpt lat="44.044707" lon="10.7524469"><ele>509.0</ele><time>2026-05-02T16:15:44.714Z</time></trkpt><trkpt lat="44.0447839" lon="10.7526"><ele>509.0</ele><time>2026-05-02T16:15:45.721Z</time></trkpt><trkpt lat="44.044861" lon="10.7527509"><ele>509.0</ele><time>2026-05-02T16:15:46.723Z</time></trkpt><trkpt lat="44.0449364" lon="10.7529009"><ele>511.75</ele><time>2026-05-02T16:15:47.725Z</time></trkpt><trkpt lat="44.045014" lon="10.7530499"><ele>514.5</ele><time>2026-05-02T16:15:48.719Z</time></trkpt><trkpt lat="44.0450905" lon="10.7531906"><ele>517.25</ele><time>2026-05-02T16:15:49.72Z</time></trkpt><trkpt lat="44.0451515" lon="10.7533237"><ele>520.0</ele><time>2026-05-02T16:15:50.721Z</time></trkpt><trkpt lat="44.0452174" lon="10.7534315"><ele>520.0</ele><time>2026-05-02T16:15:51.717Z</time></trkpt><trkpt lat="44.0452896" lon="10.753538"><ele>520.0</ele><time>2026-05-02T16:15:52.725Z</time></trkpt><trkpt lat="44.0453578" lon="10.7536552"><ele>520.0</ele><time>2026-05-02T16:15:53.721Z</time></trkpt><trkpt lat="44.0454328" lon="10.7537826"><ele>520.0</ele><time>2026-05-02T16:15:54.726Z</time></trkpt><trkpt lat="44.0455024" lon="10.7539163"><ele>518.25</ele><time>2026-05-02T16:15:55.715Z</time></trkpt><trkpt lat="44.0455586" lon="10.7540659"><ele>516.5</ele><time>2026-05-02T16:15:56.725Z</time></trkpt><trkpt lat="44.0456206" lon="10.7542041"><ele>514.75</ele><time>2026-05-02T16:15:57.739Z</time></trkpt><trkpt lat="44.0456945" lon="10.7543572"><ele>513.0</ele><time>2026-05-02T16:15:58.716Z</time></trkpt><trkpt lat="44.0457764" lon="10.7545371"><ele>510.66666666666663</ele><time>2026-05-02T16:15:59.721Z</time></trkpt><trkpt lat="44.0458969" lon="10.7547407"><ele>508.3333333333333</ele><time>2026-05-02T16:16:00.719Z</time></trkpt><trkpt lat="44.0460226" lon="10.7549877"><ele>506.0</ele><time>2026-05-02T16:16:01.72Z</time></trkpt><trkpt lat="44.0461391" lon="10.7552042"><ele>506.0</ele><time>2026-05-02T16:16:02.716Z</time></trkpt><trkpt lat="44.0462362" lon="10.7554056"><ele>506.0</ele><time>2026-05-02T16:16:03.716Z</time></trkpt><trkpt lat="44.0462998" lon="10.7555804"><ele>506.0</ele><time>2026-05-02T16:16:04.714Z</time></trkpt><trkpt lat="44.0463322" lon="10.7557688"><ele>506.0</ele><time>2026-05-02T16:16:05.72Z</time></trkpt><trkpt lat="44.0463476" lon="10.7559885"><ele>506.0</ele><time>2026-05-02T16:16:06.725Z</time></trkpt><trkpt lat="44.0463719" lon="10.7562199"><ele>506.0</ele><time>2026-05-02T16:16:07.718Z</time></trkpt><trkpt lat="44.0463921" lon="10.7564579"><ele>507.5</ele><time>2026-05-02T16:16:08.721Z</time></trkpt><trkpt lat="44.0464095" lon="10.7566632"><ele>509.0</ele><time>2026-05-02T16:16:09.71Z</time></trkpt><trkpt lat="44.0464521" lon="10.7568327"><ele>510.5</ele><time>2026-05-02T16:16:10.72Z</time></trkpt><trkpt lat="44.0465254" lon="10.7569845"><ele>512.0</ele><time>2026-05-02T16:16:11.717Z</time></trkpt><trkpt lat="44.0466368" lon="10.7571347"><ele>512.0</ele><time>2026-05-02T16:16:12.716Z</time></trkpt><trkpt lat="44.0467353" lon="10.7573018"><ele>512.0</ele><time>2026-05-02T16:16:13.726Z</time></trkpt><trkpt lat="44.0468229" lon="10.7575028"><ele>512.0</ele><time>2026-05-02T16:16:14.718Z</time></trkpt><trkpt lat="44.0468834" lon="10.7577149"><ele>507.66666666666663</ele><time>2026-05-02T16:16:15.716Z</time></trkpt><trkpt lat="44.0469104" lon="10.7579478"><ele>503.33333333333337</ele><time>2026-05-02T16:16:16.718Z</time></trkpt><trkpt lat="44.046907" lon="10.7581684"><ele>499.0</ele><time>2026-05-02T16:16:17.718Z</time></trkpt><trkpt lat="44.0468995" lon="10.7584001"><ele>494.5</ele><time>2026-05-02T16:16:18.735Z</time></trkpt><trkpt lat="44.0469181" lon="10.7585973"><ele>490.0</ele><time>2026-05-02T16:16:19.722Z</time></trkpt><trkpt lat="44.0469583" lon="10.7588002"><ele>485.5</ele><time>2026-05-02T16:16:20.717Z</time></trkpt><trkpt lat="44.0470206" lon="10.7589853"><ele>481.0</ele><time>2026-05-02T16:16:21.717Z</time></trkpt><trkpt lat="44.0470977" lon="10.7591228"><ele>481.0</ele><time>2026-05-02T16:16:22.713Z</time></trkpt><trkpt lat="44.0471859" lon="10.759225"><ele>481.0</ele><time>2026-05-02T16:16:23.722Z</time></trkpt><trkpt lat="44.0473181" lon="10.7593105"><ele>481.0</ele><time>2026-05-02T16:16:24.721Z</time></trkpt><trkpt lat="44.0474632" lon="10.7593964"><ele>481.0</ele><time>2026-05-02T16:16:25.717Z</time></trkpt><trkpt lat="44.0476326" lon="10.7594919"><ele>480.6666666666667</ele><time>2026-05-02T16:16:26.729Z</time></trkpt><trkpt lat="44.0477805" lon="10.7596108"><ele>480.33333333333337</ele><time>2026-05-02T16:16:27.72Z</time></trkpt><trkpt lat="44.0479205" lon="10.7597077"><ele>480.0</ele><time>2026-05-02T16:16:28.722Z</time></trkpt><trkpt lat="44.0480605" lon="10.7597798"><ele>480.0</ele><time>2026-05-02T16:16:29.727Z</time></trkpt><trkpt lat="44.0481923" lon="10.7598202"><ele>480.0</ele><time>2026-05-02T16:16:30.715Z</time></trkpt><trkpt lat="44.0483006" lon="10.7598904"><ele>480.0</ele><time>2026-05-02T16:16:31.719Z</time></trkpt><trkpt lat="44.048389" lon="10.7600095"><ele>480.0</ele><time>2026-05-02T16:16:32.716Z</time></trkpt><trkpt lat="44.0484781" lon="10.7601301"><ele>474.33333333333337</ele><time>2026-05-02T16:16:33.719Z</time></trkpt><trkpt lat="44.0485911" lon="10.7602438"><ele>468.6666666666667</ele><time>2026-05-02T16:16:34.723Z</time></trkpt><trkpt lat="44.0487241" lon="10.7603389"><ele>463.0</ele><time>2026-05-02T16:16:35.717Z</time></trkpt><trkpt lat="44.0488879" lon="10.760438"><ele>463.0</ele><time>2026-05-02T16:16:36.716Z</time></trkpt><trkpt lat="44.0490385" lon="10.7605275"><ele>463.0</ele><time>2026-05-02T16:16:37.72Z</time></trkpt><trkpt lat="44.049163" lon="10.7606176"><ele>463.0</ele><time>2026-05-02T16:16:38.717Z</time></trkpt><trkpt lat="44.0492646" lon="10.760711"><ele>463.0</ele><time>2026-05-02T16:16:39.727Z</time></trkpt><trkpt lat="44.0493391" lon="10.7608264"><ele>464.75</ele><time>2026-05-02T16:16:40.719Z</time></trkpt><trkpt lat="44.0493958" lon="10.7609722"><ele>466.5</ele><time>2026-05-02T16:16:41.719Z</time></trkpt><trkpt lat="44.0494384" lon="10.7611503"><ele>468.25</ele><time>2026-05-02T16:16:42.724Z</time></trkpt><trkpt lat="44.0495153" lon="10.761322"><ele>470.0</ele><time>2026-05-02T16:16:43.716Z</time></trkpt><trkpt lat="44.0496277" lon="10.761484"><ele>470.0</ele><time>2026-05-02T16:16:44.724Z</time></trkpt><trkpt lat="44.0497551" lon="10.7616395"><ele>470.0</ele><time>2026-05-02T16:16:45.723Z</time></trkpt><trkpt lat="44.0499124" lon="10.7617805"><ele>470.0</ele><time>2026-05-02T16:16:46.724Z</time></trkpt><trkpt lat="44.0500832" lon="10.7619169"><ele>474.0</ele><time>2026-05-02T16:16:47.72Z</time></trkpt><trkpt lat="44.050249" lon="10.7620462"><ele>478.0</ele><time>2026-05-02T16:16:48.72Z</time></trkpt><trkpt lat="44.0504005" lon="10.7621792"><ele>482.0</ele><time>2026-05-02T16:16:49.717Z</time></trkpt><trkpt lat="44.0505122" lon="10.7623375"><ele>482.0</ele><time>2026-05-02T16:16:50.719Z</time></trkpt><trkpt lat="44.0506056" lon="10.7625201"><ele>482.0</ele><time>2026-05-02T16:16:51.742Z</time></trkpt><trkpt lat="44.050687" lon="10.7627362"><ele>482.0</ele><time>2026-05-02T16:16:52.72Z</time></trkpt><trkpt lat="44.0507646" lon="10.7629268"><ele>484.0</ele><time>2026-05-02T16:16:53.72Z</time></trkpt><trkpt lat="44.0508424" lon="10.7630977"><ele>486.0</ele><time>2026-05-02T16:16:54.719Z</time></trkpt><trkpt lat="44.05093" lon="10.7632358"><ele>488.0</ele><time>2026-05-02T16:16:55.725Z</time></trkpt><trkpt lat="44.0510369" lon="10.7633158"><ele>490.0</ele><time>2026-05-02T16:16:56.719Z</time></trkpt><trkpt lat="44.0511649" lon="10.7633756"><ele>490.0</ele><time>2026-05-02T16:16:57.718Z</time></trkpt><trkpt lat="44.0513187" lon="10.7634407"><ele>490.0</ele><time>2026-05-02T16:16:58.729Z</time></trkpt><trkpt lat="44.0514727" lon="10.7635215"><ele>490.0</ele><time>2026-05-02T16:16:59.722Z</time></trkpt><trkpt lat="44.0516418" lon="10.7636054"><ele>483.33333333333337</ele><time>2026-05-02T16:17:00.723Z</time></trkpt><trkpt lat="44.0518556" lon="10.7636243"><ele>476.66666666666663</ele><time>2026-05-02T16:17:01.723Z</time></trkpt><trkpt lat="44.052057" lon="10.7636751"><ele>470.0</ele><time>2026-05-02T16:17:02.723Z</time></trkpt><trkpt lat="44.0522423" lon="10.7637428"><ele>470.0</ele><time>2026-05-02T16:17:03.719Z</time></trkpt><trkpt lat="44.0524193" lon="10.7638256"><ele>470.0</ele><time>2026-05-02T16:17:04.74Z</time></trkpt><trkpt lat="44.0525882" lon="10.7639094"><ele>470.0</ele><time>2026-05-02T16:17:05.713Z</time></trkpt><trkpt lat="44.0527514" lon="10.7639755"><ele>474.66666666666663</ele><time>2026-05-02T16:17:06.718Z</time></trkpt><trkpt lat="44.0529077" lon="10.7640473"><ele>479.33333333333337</ele><time>2026-05-02T16:17:07.716Z</time></trkpt><trkpt lat="44.0530521" lon="10.7641388"><ele>484.0</ele><time>2026-05-02T16:17:08.721Z</time></trkpt><trkpt lat="44.0531889" lon="10.7642311"><ele>487.75</ele><time>2026-05-02T16:17:09.723Z</time></trkpt><trkpt lat="44.0533193" lon="10.7643196"><ele>491.5</ele><time>2026-05-02T16:17:10.722Z</time></trkpt><trkpt lat="44.0534439" lon="10.7643853"><ele>495.25</ele><time>2026-05-02T16:17:11.728Z</time></trkpt><trkpt lat="44.053566" lon="10.7644206"><ele>499.0</ele><time>2026-05-02T16:17:12.715Z</time></trkpt><trkpt lat="44.0536871" lon="10.7644451"><ele>490.0</ele><time>2026-05-02T16:17:13.723Z</time></trkpt><trkpt lat="44.0538056" lon="10.7644487"><ele>481.0</ele><time>2026-05-02T16:17:14.723Z</time></trkpt><trkpt lat="44.0539267" lon="10.7644585"><ele>472.0</ele><time>2026-05-02T16:17:15.725Z</time></trkpt><trkpt lat="44.0540622" lon="10.7644637"><ele>463.0</ele><time>2026-05-02T16:17:16.724Z</time></trkpt><trkpt lat="44.0541944" lon="10.7644914"><ele>463.0</ele><time>2026-05-02T16:17:17.721Z</time></trkpt><trkpt lat="44.0543371" lon="10.7645045"><ele>463.0</ele><time>2026-05-02T16:17:18.72Z</time></trkpt><trkpt lat="44.054472" lon="10.7645184"><ele>463.0</ele><time>2026-05-02T16:17:19.724Z</time></trkpt><trkpt lat="44.0546061" lon="10.7644936"><ele>463.0</ele><time>2026-05-02T16:17:20.723Z</time></trkpt><trkpt lat="44.0547405" lon="10.764456"><ele>463.0</ele><time>2026-05-02T16:17:21.742Z</time></trkpt><trkpt lat="44.0548953" lon="10.7643745"><ele>463.0</ele><time>2026-05-02T16:17:22.72Z</time></trkpt><trkpt lat="44.055051" lon="10.7642949"><ele>463.0</ele><time>2026-05-02T16:17:23.718Z</time></trkpt><trkpt lat="44.0552244" lon="10.7642034"><ele>473.6666666666667</ele><time>2026-05-02T16:17:24.723Z</time></trkpt><trkpt lat="44.0553952" lon="10.7641154"><ele>484.33333333333337</ele><time>2026-05-02T16:17:25.721Z</time></trkpt><trkpt lat="44.055557" lon="10.7640344"><ele>495.0</ele><time>2026-05-02T16:17:26.719Z</time></trkpt><trkpt lat="44.0557042" lon="10.7639584"><ele>492.75</ele><time>2026-05-02T16:17:27.72Z</time></trkpt><trkpt lat="44.0558474" lon="10.7639028"><ele>490.5</ele><time>2026-05-02T16:17:28.724Z</time></trkpt><trkpt lat="44.0559791" lon="10.763895"><ele>488.25</ele><time>2026-05-02T16:17:29.742Z</time></trkpt><trkpt lat="44.0561136" lon="10.7639308"><ele>486.0</ele><time>2026-05-02T16:17:30.72Z</time></trkpt><trkpt lat="44.0562399" lon="10.7639775"><ele>486.0</ele><time>2026-05-02T16:17:31.717Z</time></trkpt><trkpt lat="44.0563541" lon="10.7641151"><ele>486.0</ele><time>2026-05-02T16:17:32.726Z</time></trkpt><trkpt lat="44.056452" lon="10.7641674"><ele>486.0</ele><time>2026-05-02T16:17:33.724Z</time></trkpt><trkpt lat="44.0565488" lon="10.7641849"><ele>486.0</ele><time>2026-05-02T16:17:34.74Z</time></trkpt><trkpt lat="44.0566516" lon="10.7641358"><ele>487.0</ele><time>2026-05-02T16:17:35.719Z</time></trkpt><trkpt lat="44.0567562" lon="10.7640592"><ele>488.0</ele><time>2026-05-02T16:17:36.719Z</time></trkpt><trkpt lat="44.056865" lon="10.7639994"><ele>489.0</ele><time>2026-05-02T16:17:37.717Z</time></trkpt><trkpt lat="44.0569935" lon="10.7639957"><ele>490.0</ele><time>2026-05-02T16:17:38.729Z</time></trkpt><trkpt lat="44.0571116" lon="10.7640197"><ele>490.0</ele><time>2026-05-02T16:17:39.726Z</time></trkpt><trkpt lat="44.057218" lon="10.764102"><ele>490.0</ele><time>2026-05-02T16:17:40.72Z</time></trkpt><trkpt lat="44.0573309" lon="10.7642065"><ele>490.0</ele><time>2026-05-02T16:17:41.717Z</time></trkpt><trkpt lat="44.057437" lon="10.7643126"><ele>490.0</ele><time>2026-05-02T16:17:42.721Z</time></trkpt><trkpt lat="44.0575492" lon="10.7643626"><ele>486.0</ele><time>2026-05-02T16:17:43.724Z</time></trkpt><trkpt lat="44.0576638" lon="10.7643959"><ele>482.0</ele><time>2026-05-02T16:17:44.723Z</time></trkpt><trkpt lat="44.0577951" lon="10.7644132"><ele>478.0</ele><time>2026-05-02T16:17:45.723Z</time></trkpt><trkpt lat="44.0579321" lon="10.7644095"><ele>474.0</ele><time>2026-05-02T16:17:46.726Z</time></trkpt><trkpt lat="44.0580667" lon="10.7643811"><ele>478.75</ele><time>2026-05-02T16:17:47.721Z</time></trkpt><trkpt lat="44.0581879" lon="10.7643223"><ele>483.5</ele><time>2026-05-02T16:17:48.72Z</time></trkpt><trkpt lat="44.058307" lon="10.7642584"><ele>488.25</ele><time>2026-05-02T16:17:49.722Z</time></trkpt><trkpt lat="44.058414" lon="10.7642059"><ele>493.0</ele><time>2026-05-02T16:17:50.722Z</time></trkpt><trkpt lat="44.0585182" lon="10.764196"><ele>493.0</ele><time>2026-05-02T16:17:51.741Z</time></trkpt><trkpt lat="44.0586051" lon="10.7642297"><ele>492.99999999999994</ele><time>2026-05-02T16:17:52.719Z</time></trkpt><trkpt lat="44.0586869" lon="10.7643014"><ele>492.99999999999994</ele><time>2026-05-02T16:17:53.717Z</time></trkpt><trkpt lat="44.0587838" lon="10.7644028"><ele>493.0</ele><time>2026-05-02T16:17:54.719Z</time></trkpt><trkpt lat="44.0588806" lon="10.764476"><ele>493.0</ele><time>2026-05-02T16:17:55.72Z</time></trkpt><trkpt lat="44.0590022" lon="10.7645031"><ele>488.25</ele><time>2026-05-02T16:17:56.719Z</time></trkpt><trkpt lat="44.0591128" lon="10.764545"><ele>483.5</ele><time>2026-05-02T16:17:57.717Z</time></trkpt><trkpt lat="44.0592773" lon="10.7645512"><ele>478.75</ele><time>2026-05-02T16:17:58.741Z</time></trkpt><trkpt lat="44.059422" lon="10.7645824"><ele>474.0</ele><time>2026-05-02T16:17:59.724Z</time></trkpt><trkpt lat="44.0595735" lon="10.7645866"><ele>474.0</ele><time>2026-05-02T16:18:00.723Z</time></trkpt><trkpt lat="44.0597215" lon="10.7645918"><ele>474.0</ele><time>2026-05-02T16:18:01.725Z</time></trkpt><trkpt lat="44.059867" lon="10.7646012"><ele>474.0</ele><time>2026-05-02T16:18:02.721Z</time></trkpt><trkpt lat="44.0599692" lon="10.7646005"><ele>474.0</ele><time>2026-05-02T16:18:03.717Z</time></trkpt><trkpt lat="44.0600749" lon="10.7645712"><ele>474.2</ele><time>2026-05-02T16:18:04.721Z</time></trkpt><trkpt lat="44.0601389" lon="10.764441"><ele>474.4</ele><time>2026-05-02T16:18:05.719Z</time></trkpt><trkpt lat="44.0602174" lon="10.7644034"><ele>474.6</ele><time>2026-05-02T16:18:06.722Z</time></trkpt><trkpt lat="44.0603204" lon="10.7643519"><ele>474.8</ele><time>2026-05-02T16:18:07.72Z</time></trkpt><trkpt lat="44.0603472" lon="10.7644591"><ele>475.0</ele><time>2026-05-02T16:18:08.737Z</time></trkpt><trkpt lat="44.0603751" lon="10.7646027"><ele>475.0</ele><time>2026-05-02T16:18:09.722Z</time></trkpt><trkpt lat="44.0604055" lon="10.7647246"><ele>475.0</ele><time>2026-05-02T16:18:10.717Z</time></trkpt><trkpt lat="44.0604926" lon="10.7649247"><ele>475.0</ele><time>2026-05-02T16:18:11.722Z</time></trkpt><trkpt lat="44.0605713" lon="10.7650593"><ele>475.0</ele><time>2026-05-02T16:18:12.717Z</time></trkpt><trkpt lat="44.0606546" lon="10.7651858"><ele>471.75</ele><time>2026-05-02T16:18:13.728Z</time></trkpt><trkpt lat="44.0607539" lon="10.7652634"><ele>468.5</ele><time>2026-05-02T16:18:14.716Z</time></trkpt><trkpt lat="44.0608646" lon="10.765294"><ele>465.25</ele><time>2026-05-02T16:18:15.737Z</time></trkpt><trkpt lat="44.0610061" lon="10.765318"><ele>462.0</ele><time>2026-05-02T16:18:16.728Z</time></trkpt><trkpt lat="44.0611573" lon="10.7653212"><ele>462.0</ele><time>2026-05-02T16:18:17.723Z</time></trkpt><trkpt lat="44.0613155" lon="10.7653327"><ele>462.0</ele><time>2026-05-02T16:18:18.713Z</time></trkpt><trkpt lat="44.0614566" lon="10.7653494"><ele>462.0</ele><time>2026-05-02T16:18:19.71Z</time></trkpt><trkpt lat="44.0615947" lon="10.7653634"><ele>462.0</ele><time>2026-05-02T16:18:20.746Z</time></trkpt><trkpt lat="44.0617044" lon="10.7652855"><ele>461.0</ele><time>2026-05-02T16:18:21.725Z</time></trkpt><trkpt lat="44.0618055" lon="10.7652352"><ele>460.00000000000006</ele><time>2026-05-02T16:18:22.71Z</time></trkpt><trkpt lat="44.0618718" lon="10.7651756"><ele>459.00000000000006</ele><time>2026-05-02T16:18:23.711Z</time></trkpt><trkpt lat="44.0618989" lon="10.7649658"><ele>458.0</ele><time>2026-05-02T16:18:24.714Z</time></trkpt><trkpt lat="44.0619713" lon="10.764871"><ele>457.0</ele><time>2026-05-02T16:18:25.718Z</time></trkpt><trkpt lat="44.0620765" lon="10.7648255"><ele>462.5</ele><time>2026-05-02T16:18:26.717Z</time></trkpt><trkpt lat="44.0622023" lon="10.7648021"><ele>468.0</ele><time>2026-05-02T16:18:27.72Z</time></trkpt><trkpt lat="44.0623495" lon="10.764797"><ele>473.5</ele><time>2026-05-02T16:18:28.729Z</time></trkpt><trkpt lat="44.062505" lon="10.7647919"><ele>479.0</ele><time>2026-05-02T16:18:29.719Z</time></trkpt><trkpt lat="44.0626612" lon="10.764784"><ele>479.0</ele><time>2026-05-02T16:18:30.716Z</time></trkpt><trkpt lat="44.0628105" lon="10.7647925"><ele>479.0</ele><time>2026-05-02T16:18:31.721Z</time></trkpt><trkpt lat="44.0629458" lon="10.7647688"><ele>479.0</ele><time>2026-05-02T16:18:32.717Z</time></trkpt><trkpt lat="44.0630488" lon="10.7648268"><ele>479.0</ele><time>2026-05-02T16:18:33.718Z</time></trkpt><trkpt lat="44.0631354" lon="10.764923"><ele>478.99999999999994</ele><time>2026-05-02T16:18:34.719Z</time></trkpt><trkpt lat="44.0631984" lon="10.7650118"><ele>479.0</ele><time>2026-05-02T16:18:35.716Z</time></trkpt><trkpt lat="44.0632452" lon="10.7650926"><ele>479.0</ele><time>2026-05-02T16:18:36.724Z</time></trkpt><trkpt lat="44.0632978" lon="10.7651849"><ele>479.0</ele><time>2026-05-02T16:18:37.721Z</time></trkpt><trkpt lat="44.0633833" lon="10.7652369"><ele>478.99999999999994</ele><time>2026-05-02T16:18:38.742Z</time></trkpt><trkpt lat="44.063477" lon="10.7652879"><ele>479.0</ele><time>2026-05-02T16:18:39.72Z</time></trkpt><trkpt lat="44.063585" lon="10.7653489"><ele>471.5</ele><time>2026-05-02T16:18:40.727Z</time></trkpt><trkpt lat="44.0636899" lon="10.7654279"><ele>464.0</ele><time>2026-05-02T16:18:41.724Z</time></trkpt><trkpt lat="44.0637923" lon="10.7655083"><ele>456.5</ele><time>2026-05-02T16:18:42.719Z</time></trkpt><trkpt lat="44.0639052" lon="10.7655865"><ele>449.0</ele><time>2026-05-02T16:18:43.713Z</time></trkpt><trkpt lat="44.0639756" lon="10.7657604"><ele>449.0</ele><time>2026-05-02T16:18:44.716Z</time></trkpt><trkpt lat="44.064054" lon="10.7658843"><ele>449.0</ele><time>2026-05-02T16:18:45.728Z</time></trkpt><trkpt lat="44.0641166" lon="10.7660431"><ele>449.0</ele><time>2026-05-02T16:18:46.716Z</time></trkpt><trkpt lat="44.064182" lon="10.7661841"><ele>449.0</ele><time>2026-05-02T16:18:47.714Z</time></trkpt><trkpt lat="44.0642241" lon="10.7663284"><ele>450.16666666666663</ele><time>2026-05-02T16:18:48.714Z</time></trkpt><trkpt lat="44.0642274" lon="10.7664726"><ele>451.3333333333333</ele><time>2026-05-02T16:18:49.729Z</time></trkpt><trkpt lat="44.0642254" lon="10.7665901"><ele>452.5</ele><time>2026-05-02T16:18:50.72Z</time></trkpt><trkpt lat="44.0642117" lon="10.7666775"><ele>453.66666666666663</ele><time>2026-05-02T16:18:51.718Z</time></trkpt><trkpt lat="44.0641813" lon="10.7667781"><ele>454.8333333333333</ele><time>2026-05-02T16:18:53.719Z</time></trkpt><trkpt lat="44.0641272" lon="10.7668511"><ele>456.0</ele><time>2026-05-02T16:19:13.72Z</time></trkpt><trkpt lat="44.0640779" lon="10.7669404"><ele>460.20000000000005</ele><time>2026-05-02T16:19:14.722Z</time></trkpt><trkpt lat="44.0640132" lon="10.7670227"><ele>464.40000000000003</ele><time>2026-05-02T16:19:15.724Z</time></trkpt><trkpt lat="44.0639456" lon="10.7671128"><ele>468.6</ele><time>2026-05-02T16:19:16.713Z</time></trkpt><trkpt lat="44.0638592" lon="10.7671935"><ele>472.8</ele><time>2026-05-02T16:19:17.711Z</time></trkpt><trkpt lat="44.0637701" lon="10.7672606"><ele>477.0</ele><time>2026-05-02T16:19:18.721Z</time></trkpt><trkpt lat="44.0636717" lon="10.7672954"><ele>477.0</ele><time>2026-05-02T16:19:19.717Z</time></trkpt><trkpt lat="44.0635788" lon="10.7672964"><ele>477.00000000000006</ele><time>2026-05-02T16:19:20.721Z</time></trkpt><trkpt lat="44.0634796" lon="10.7672689"><ele>477.00000000000006</ele><time>2026-05-02T16:19:21.719Z</time></trkpt><trkpt lat="44.0633759" lon="10.7671877"><ele>477.0</ele><time>2026-05-02T16:19:22.725Z</time></trkpt><trkpt lat="44.0632721" lon="10.7670777"><ele>477.0</ele><time>2026-05-02T16:19:23.73Z</time></trkpt><trkpt lat="44.0631705" lon="10.7669923"><ele>476.33333333333337</ele><time>2026-05-02T16:19:24.725Z</time></trkpt><trkpt lat="44.0630844" lon="10.7667909"><ele>475.6666666666667</ele><time>2026-05-02T16:19:25.719Z</time></trkpt><trkpt lat="44.0629907" lon="10.7665969"><ele>475.0</ele><time>2026-05-02T16:19:26.742Z</time></trkpt><trkpt lat="44.0628998" lon="10.766403"><ele>475.0</ele><time>2026-05-02T16:19:27.718Z</time></trkpt><trkpt lat="44.062831" lon="10.7662413"><ele>475.0</ele><time>2026-05-02T16:19:28.715Z</time></trkpt><trkpt lat="44.0627591" lon="10.766136"><ele>475.0</ele><time>2026-05-02T16:19:29.725Z</time></trkpt><trkpt lat="44.0626572" lon="10.7660791"><ele>475.0</ele><time>2026-05-02T16:19:30.723Z</time></trkpt><trkpt lat="44.0625836" lon="10.7660179"><ele>475.0</ele><time>2026-05-02T16:19:31.722Z</time></trkpt><trkpt lat="44.0624634" lon="10.7660491"><ele>471.0</ele><time>2026-05-02T16:19:32.718Z</time></trkpt><trkpt lat="44.0623661" lon="10.7660613"><ele>467.0</ele><time>2026-05-02T16:19:33.719Z</time></trkpt><trkpt lat="44.0622494" lon="10.7661283"><ele>463.0</ele><time>2026-05-02T16:19:34.747Z</time></trkpt><trkpt lat="44.0621569" lon="10.7662175"><ele>459.0</ele><time>2026-05-02T16:19:35.717Z</time></trkpt><trkpt lat="44.0620612" lon="10.7664747"><ele>459.0</ele><time>2026-05-02T16:19:36.722Z</time></trkpt><trkpt lat="44.0619471" lon="10.7666897"><ele>459.0</ele><time>2026-05-02T16:19:37.72Z</time></trkpt><trkpt lat="44.0618821" lon="10.7669803"><ele>459.0</ele><time>2026-05-02T16:19:38.72Z</time></trkpt><trkpt lat="44.0618104" lon="10.7672214"><ele>457.33333333333337</ele><time>2026-05-02T16:19:39.741Z</time></trkpt><trkpt lat="44.0617059" lon="10.7674306"><ele>455.6666666666667</ele><time>2026-05-02T16:19:40.719Z</time></trkpt><trkpt lat="44.0616126" lon="10.7676245"><ele>454.0</ele><time>2026-05-02T16:19:41.717Z</time></trkpt><trkpt lat="44.061494" lon="10.7677924"><ele>462.75</ele><time>2026-05-02T16:19:42.722Z</time></trkpt><trkpt lat="44.0613776" lon="10.7679387"><ele>471.5</ele><time>2026-05-02T16:19:43.718Z</time></trkpt><trkpt lat="44.0612738" lon="10.7680814"><ele>480.25</ele><time>2026-05-02T16:19:44.746Z</time></trkpt><trkpt lat="44.0611783" lon="10.7682046"><ele>489.0</ele><time>2026-05-02T16:19:45.711Z</time></trkpt><trkpt lat="44.0610755" lon="10.7682743"><ele>489.0</ele><time>2026-05-02T16:19:46.722Z</time></trkpt><trkpt lat="44.0609644" lon="10.7682769"><ele>489.0</ele><time>2026-05-02T16:19:47.723Z</time></trkpt><trkpt lat="44.0608404" lon="10.7682496"><ele>489.0</ele><time>2026-05-02T16:19:48.717Z</time></trkpt><trkpt lat="44.0606826" lon="10.7681848"><ele>489.0</ele><time>2026-05-02T16:19:49.716Z</time></trkpt><trkpt lat="44.0605243" lon="10.7681191"><ele>494.33333333333337</ele><time>2026-05-02T16:19:50.717Z</time></trkpt><trkpt lat="44.0603459" lon="10.7680678"><ele>499.6666666666667</ele><time>2026-05-02T16:19:51.727Z</time></trkpt><trkpt lat="44.0601705" lon="10.7680141"><ele>505.0</ele><time>2026-05-02T16:19:52.723Z</time></trkpt><trkpt lat="44.060003" lon="10.7679657"><ele>504.5</ele><time>2026-05-02T16:19:53.722Z</time></trkpt><trkpt lat="44.0598578" lon="10.7679288"><ele>504.0</ele><time>2026-05-02T16:19:54.717Z</time></trkpt><trkpt lat="44.0597206" lon="10.7678839"><ele>503.5</ele><time>2026-05-02T16:19:55.721Z</time></trkpt><trkpt lat="44.0596002" lon="10.7678601"><ele>503.0</ele><time>2026-05-02T16:19:56.732Z</time></trkpt><trkpt lat="44.0594799" lon="10.7678576"><ele>503.0</ele><time>2026-05-02T16:19:57.719Z</time></trkpt><trkpt lat="44.0593814" lon="10.7679049"><ele>503.0</ele><time>2026-05-02T16:19:58.728Z</time></trkpt><trkpt lat="44.0592627" lon="10.7680428"><ele>503.0</ele><time>2026-05-02T16:19:59.716Z</time></trkpt><trkpt lat="44.0591426" lon="10.7681873"><ele>503.0</ele><time>2026-05-02T16:20:00.726Z</time></trkpt><trkpt lat="44.0590026" lon="10.7683306"><ele>504.66666666666663</ele><time>2026-05-02T16:20:01.719Z</time></trkpt><trkpt lat="44.0588716" lon="10.768465"><ele>506.33333333333337</ele><time>2026-05-02T16:20:02.719Z</time></trkpt><trkpt lat="44.0587542" lon="10.7685887"><ele>508.0</ele><time>2026-05-02T16:20:03.729Z</time></trkpt><trkpt lat="44.0586306" lon="10.7686937"><ele>508.0</ele><time>2026-05-02T16:20:04.715Z</time></trkpt><trkpt lat="44.0585072" lon="10.7687815"><ele>508.0</ele><time>2026-05-02T16:20:05.716Z</time></trkpt><trkpt lat="44.05841" lon="10.7688555"><ele>508.0</ele><time>2026-05-02T16:20:06.72Z</time></trkpt><trkpt lat="44.0583024" lon="10.768931"><ele>508.0</ele><time>2026-05-02T16:20:07.72Z</time></trkpt><trkpt lat="44.0582103" lon="10.7690171"><ele>506.79999999999995</ele><time>2026-05-02T16:20:08.716Z</time></trkpt><trkpt lat="44.0581311" lon="10.7691066"><ele>505.59999999999997</ele><time>2026-05-02T16:20:09.718Z</time></trkpt><trkpt lat="44.0580768" lon="10.7692273"><ele>504.40000000000003</ele><time>2026-05-02T16:20:10.725Z</time></trkpt><trkpt lat="44.058028" lon="10.7693602"><ele>503.20000000000005</ele><time>2026-05-02T16:20:11.716Z</time></trkpt><trkpt lat="44.0579663" lon="10.7694945"><ele>502.0</ele><time>2026-05-02T16:20:12.741Z</time></trkpt><trkpt lat="44.0580067" lon="10.7696574"><ele>502.0</ele><time>2026-05-02T16:20:13.714Z</time></trkpt><trkpt lat="44.0580339" lon="10.7698265"><ele>502.00000000000006</ele><time>2026-05-02T16:20:14.717Z</time></trkpt><trkpt lat="44.05806" lon="10.7699789"><ele>502.00000000000006</ele><time>2026-05-02T16:20:15.724Z</time></trkpt><trkpt lat="44.0580581" lon="10.7701166"><ele>502.0</ele><time>2026-05-02T16:20:16.723Z</time></trkpt><trkpt lat="44.0580606" lon="10.7702487"><ele>502.0</ele><time>2026-05-02T16:20:17.721Z</time></trkpt><trkpt lat="44.0579766" lon="10.7703302"><ele>504.00000000000006</ele><time>2026-05-02T16:20:18.717Z</time></trkpt><trkpt lat="44.0578932" lon="10.7704001"><ele>506.0</ele><time>2026-05-02T16:20:19.716Z</time></trkpt><trkpt lat="44.0577938" lon="10.7704459"><ele>508.0</ele><time>2026-05-02T16:20:20.72Z</time></trkpt><trkpt lat="44.0577224" lon="10.770507"><ele>510.0</ele><time>2026-05-02T16:20:21.715Z</time></trkpt><trkpt lat="44.0576655" lon="10.7705762"><ele>512.0</ele><time>2026-05-02T16:20:22.724Z</time></trkpt><trkpt lat="44.0576379" lon="10.7706828"><ele>514.0</ele><time>2026-05-02T16:20:23.721Z</time></trkpt><trkpt lat="44.0576224" lon="10.7708107"><ele>514.0</ele><time>2026-05-02T16:20:24.719Z</time></trkpt><trkpt lat="44.0576093" lon="10.7709473"><ele>514.0</ele><time>2026-05-02T16:20:25.718Z</time></trkpt><trkpt lat="44.0575948" lon="10.7711079"><ele>514.0</ele><time>2026-05-02T16:20:26.72Z</time></trkpt><trkpt lat="44.0575698" lon="10.7712698"><ele>514.0</ele><time>2026-05-02T16:20:27.739Z</time></trkpt><trkpt lat="44.057512" lon="10.7714257"><ele>514.6666666666667</ele><time>2026-05-02T16:20:28.717Z</time></trkpt><trkpt lat="44.0574241" lon="10.7715989"><ele>515.3333333333334</ele><time>2026-05-02T16:20:29.726Z</time></trkpt><trkpt lat="44.0573122" lon="10.7717842"><ele>516.0</ele><time>2026-05-02T16:20:30.715Z</time></trkpt><trkpt lat="44.0572013" lon="10.7719927"><ele>520.0</ele><time>2026-05-02T16:20:31.718Z</time></trkpt><trkpt lat="44.0571043" lon="10.7722087"><ele>524.0</ele><time>2026-05-02T16:20:32.721Z</time></trkpt><trkpt lat="44.0570261" lon="10.7724331"><ele>528.0</ele><time>2026-05-02T16:20:33.718Z</time></trkpt><trkpt lat="44.0569477" lon="10.7726281"><ele>530.75</ele><time>2026-05-02T16:20:34.713Z</time></trkpt><trkpt lat="44.0568723" lon="10.7727757"><ele>533.5</ele><time>2026-05-02T16:20:35.718Z</time></trkpt><trkpt lat="44.0567682" lon="10.7728725"><ele>536.25</ele><time>2026-05-02T16:20:36.716Z</time></trkpt><trkpt lat="44.0566561" lon="10.7729233"><ele>539.0</ele><time>2026-05-02T16:20:37.713Z</time></trkpt><trkpt lat="44.0565591" lon="10.7729645"><ele>539.0</ele><time>2026-05-02T16:20:38.719Z</time></trkpt><trkpt lat="44.0564753" lon="10.7730008"><ele>539.0</ele><time>2026-05-02T16:20:39.718Z</time></trkpt><trkpt lat="44.0564093" lon="10.7730344"><ele>539.0</ele><time>2026-05-02T16:20:40.716Z</time></trkpt><trkpt lat="44.0563447" lon="10.7730821"><ele>539.0</ele><time>2026-05-02T16:20:41.711Z</time></trkpt><trkpt lat="44.0562869" lon="10.7731441"><ele>539.0</ele><time>2026-05-02T16:20:42.719Z</time></trkpt><trkpt lat="44.0562524" lon="10.7732264"><ele>539.0</ele><time>2026-05-02T16:20:43.716Z</time></trkpt><trkpt lat="44.0562422" lon="10.773327"><ele>539.0</ele><time>2026-05-02T16:20:44.719Z</time></trkpt><trkpt lat="44.0562531" lon="10.7734416"><ele>541.8</ele><time>2026-05-02T16:20:45.711Z</time></trkpt><trkpt lat="44.0562836" lon="10.773559"><ele>544.5999999999999</ele><time>2026-05-02T16:20:46.722Z</time></trkpt><trkpt lat="44.0563381" lon="10.7736878"><ele>547.4</ele><time>2026-05-02T16:20:47.721Z</time></trkpt><trkpt lat="44.0563967" lon="10.7738248"><ele>550.1999999999999</ele><time>2026-05-02T16:20:48.716Z</time></trkpt><trkpt lat="44.0564514" lon="10.7739496"><ele>553.0</ele><time>2026-05-02T16:20:49.721Z</time></trkpt><trkpt lat="44.0565238" lon="10.7740734"><ele>553.0</ele><time>2026-05-02T16:20:50.722Z</time></trkpt><trkpt lat="44.0565917" lon="10.7741742"><ele>553.0</ele><time>2026-05-02T16:20:51.722Z</time></trkpt><trkpt lat="44.0566648" lon="10.7742437"><ele>553.0</ele><time>2026-05-02T16:20:52.72Z</time></trkpt><trkpt lat="44.0567331" lon="10.7742975"><ele>553.0</ele><time>2026-05-02T16:20:53.719Z</time></trkpt><trkpt lat="44.0568138" lon="10.7743011"><ele>553.0</ele><time>2026-05-02T16:20:54.718Z</time></trkpt><trkpt lat="44.0568948" lon="10.7742982"><ele>553.0</ele><time>2026-05-02T16:20:55.714Z</time></trkpt><trkpt lat="44.0569788" lon="10.7742614"><ele>552.8</ele><time>2026-05-02T16:20:56.721Z</time></trkpt><trkpt lat="44.0570605" lon="10.7742114"><ele>552.5999999999999</ele><time>2026-05-02T16:20:57.715Z</time></trkpt><trkpt lat="44.0571376" lon="10.7741382"><ele>552.4000000000001</ele><time>2026-05-02T16:20:58.723Z</time></trkpt><trkpt lat="44.0572233" lon="10.7740692"><ele>552.2</ele><time>2026-05-02T16:20:59.723Z</time></trkpt><trkpt lat="44.0573075" lon="10.774012"><ele>552.0</ele><time>2026-05-02T16:21:00.719Z</time></trkpt><trkpt lat="44.0573954" lon="10.7739801"><ele>553.4</ele><time>2026-05-02T16:21:01.728Z</time></trkpt><trkpt lat="44.0574798" lon="10.7739502"><ele>554.8000000000001</ele><time>2026-05-02T16:21:02.72Z</time></trkpt><trkpt lat="44.0575391" lon="10.7740633"><ele>556.2</ele><time>2026-05-02T16:21:03.728Z</time></trkpt><trkpt lat="44.0576074" lon="10.7741484"><ele>557.6</ele><time>2026-05-02T16:21:04.724Z</time></trkpt><trkpt lat="44.057652" lon="10.7742732"><ele>559.0</ele><time>2026-05-02T16:21:05.717Z</time></trkpt><trkpt lat="44.0576791" lon="10.7744325"><ele>560.0</ele><time>2026-05-02T16:21:06.719Z</time></trkpt><trkpt lat="44.0577089" lon="10.7745813"><ele>561.0</ele><time>2026-05-02T16:21:07.719Z</time></trkpt><trkpt lat="44.0577331" lon="10.7747332"><ele>562.0</ele><time>2026-05-02T16:21:08.714Z</time></trkpt><trkpt lat="44.0577495" lon="10.7748685"><ele>563.0</ele><time>2026-05-02T16:21:09.72Z</time></trkpt><trkpt lat="44.0577616" lon="10.7749863"><ele>564.0</ele><time>2026-05-02T16:21:10.719Z</time></trkpt><trkpt lat="44.0577651" lon="10.7751108"><ele>569.2</ele><time>2026-05-02T16:21:11.738Z</time></trkpt><trkpt lat="44.0577421" lon="10.7752337"><ele>574.4</ele><time>2026-05-02T16:21:12.72Z</time></trkpt><trkpt lat="44.0576969" lon="10.7753497"><ele>579.6</ele><time>2026-05-02T16:21:13.722Z</time></trkpt><trkpt lat="44.0576234" lon="10.7754442"><ele>584.8</ele><time>2026-05-02T16:21:14.72Z</time></trkpt><trkpt lat="44.0575307" lon="10.7755067"><ele>590.0</ele><time>2026-05-02T16:21:15.727Z</time></trkpt><trkpt lat="44.0574363" lon="10.77553"><ele>591.0</ele><time>2026-05-02T16:21:16.719Z</time></trkpt><trkpt lat="44.0573343" lon="10.7755356"><ele>592.0</ele><time>2026-05-02T16:21:17.712Z</time></trkpt><trkpt lat="44.0572222" lon="10.7755188"><ele>593.0</ele><time>2026-05-02T16:21:18.721Z</time></trkpt><trkpt lat="44.0570928" lon="10.7755034"><ele>594.0</ele><time>2026-05-02T16:21:19.725Z</time></trkpt><trkpt lat="44.0569537" lon="10.7754856"><ele>594.0</ele><time>2026-05-02T16:21:20.732Z</time></trkpt><trkpt lat="44.0568133" lon="10.7754659"><ele>594.0</ele><time>2026-05-02T16:21:21.72Z</time></trkpt><trkpt lat="44.0566732" lon="10.7754463"><ele>594.0</ele><time>2026-05-02T16:21:22.72Z</time></trkpt><trkpt lat="44.0565318" lon="10.7754331"><ele>594.0</ele><time>2026-05-02T16:21:23.724Z</time></trkpt><trkpt lat="44.0563897" lon="10.7754229"><ele>597.6666666666666</ele><time>2026-05-02T16:21:24.721Z</time></trkpt><trkpt lat="44.0562451" lon="10.7754111"><ele>601.3333333333333</ele><time>2026-05-02T16:21:25.739Z</time></trkpt><trkpt lat="44.0560935" lon="10.7753914"><ele>605.0</ele><time>2026-05-02T16:21:26.727Z</time></trkpt><trkpt lat="44.0559408" lon="10.7753684"><ele>605.0</ele><time>2026-05-02T16:21:27.719Z</time></trkpt><trkpt lat="44.0558114" lon="10.7753601"><ele>605.0</ele><time>2026-05-02T16:21:28.717Z</time></trkpt><trkpt lat="44.0556805" lon="10.7753589"><ele>605.0</ele><time>2026-05-02T16:21:29.719Z</time></trkpt><trkpt lat="44.0555297" lon="10.7753478"><ele>605.0</ele><time>2026-05-02T16:21:30.714Z</time></trkpt><trkpt lat="44.0553675" lon="10.7753246"><ele>602.6666666666666</ele><time>2026-05-02T16:21:31.717Z</time></trkpt><trkpt lat="44.0552028" lon="10.7752841"><ele>600.3333333333334</ele><time>2026-05-02T16:21:32.721Z</time></trkpt><trkpt lat="44.0550491" lon="10.7752402"><ele>598.0</ele><time>2026-05-02T16:21:33.731Z</time></trkpt><trkpt lat="44.0549212" lon="10.775196"><ele>594.1999999999999</ele><time>2026-05-02T16:21:34.718Z</time></trkpt><trkpt lat="44.0547991" lon="10.7751327"><ele>590.4</ele><time>2026-05-02T16:21:35.72Z</time></trkpt><trkpt lat="44.0547302" lon="10.7751847"><ele>586.5999999999999</ele><time>2026-05-02T16:21:36.727Z</time></trkpt><trkpt lat="44.0546691" lon="10.7752312"><ele>582.8</ele><time>2026-05-02T16:21:37.717Z</time></trkpt><trkpt lat="44.0546331" lon="10.775377"><ele>579.0</ele><time>2026-05-02T16:21:38.72Z</time></trkpt><trkpt lat="44.054658" lon="10.7755201"><ele>573.75</ele><time>2026-05-02T16:21:39.723Z</time></trkpt><trkpt lat="44.0546819" lon="10.7756808"><ele>568.5</ele><time>2026-05-02T16:21:40.717Z</time></trkpt><trkpt lat="44.054731" lon="10.7758523"><ele>563.25</ele><time>2026-05-02T16:21:41.717Z</time></trkpt><trkpt lat="44.054791" lon="10.7760409"><ele>558.0</ele><time>2026-05-02T16:21:42.722Z</time></trkpt><trkpt lat="44.0548667" lon="10.7762298"><ele>550.6666666666666</ele><time>2026-05-02T16:21:43.74Z</time></trkpt><trkpt lat="44.0549347" lon="10.7764605"><ele>543.3333333333333</ele><time>2026-05-02T16:21:44.72Z</time></trkpt><trkpt lat="44.0550196" lon="10.7766557"><ele>536.0</ele><time>2026-05-02T16:21:45.715Z</time></trkpt><trkpt lat="44.0551163" lon="10.7768353"><ele>548.6666666666666</ele><time>2026-05-02T16:21:46.726Z</time></trkpt><trkpt lat="44.0552441" lon="10.7770019"><ele>561.3333333333334</ele><time>2026-05-02T16:21:47.715Z</time></trkpt><trkpt lat="44.0553776" lon="10.7771719"><ele>574.0</ele><time>2026-05-02T16:21:48.719Z</time></trkpt><trkpt lat="44.0555204" lon="10.7773522"><ele>574.0</ele><time>2026-05-02T16:21:49.716Z</time></trkpt><trkpt lat="44.055655" lon="10.777539"><ele>574.0</ele><time>2026-05-02T16:21:50.721Z</time></trkpt><trkpt lat="44.0557976" lon="10.7777329"><ele>574.0</ele><time>2026-05-02T16:21:51.716Z</time></trkpt><trkpt lat="44.0559333" lon="10.7779468"><ele>575.3333333333334</ele><time>2026-05-02T16:21:52.72Z</time></trkpt><trkpt lat="44.0560637" lon="10.7781752"><ele>576.6666666666666</ele><time>2026-05-02T16:21:53.716Z</time></trkpt><trkpt lat="44.0561918" lon="10.7784136"><ele>578.0</ele><time>2026-05-02T16:21:54.723Z</time></trkpt><trkpt lat="44.0563188" lon="10.7786521"><ele>578.0</ele><time>2026-05-02T16:21:55.717Z</time></trkpt><trkpt lat="44.0564507" lon="10.7788864"><ele>578.0</ele><time>2026-05-02T16:21:56.719Z</time></trkpt><trkpt lat="44.0565913" lon="10.7791072"><ele>578.0</ele><time>2026-05-02T16:21:57.725Z</time></trkpt><trkpt lat="44.0567479" lon="10.7793104"><ele>586.3333333333333</ele><time>2026-05-02T16:21:58.723Z</time></trkpt><trkpt lat="44.0568999" lon="10.7795017"><ele>594.6666666666666</ele><time>2026-05-02T16:21:59.729Z</time></trkpt><trkpt lat="44.0570559" lon="10.7796905"><ele>603.0</ele><time>2026-05-02T16:22:00.718Z</time></trkpt><trkpt lat="44.0572048" lon="10.7798655"><ele>603.0</ele><time>2026-05-02T16:22:01.736Z</time></trkpt><trkpt lat="44.0573451" lon="10.7800312"><ele>603.0</ele><time>2026-05-02T16:22:02.718Z</time></trkpt><trkpt lat="44.0574704" lon="10.7801679"><ele>603.0</ele><time>2026-05-02T16:22:03.718Z</time></trkpt><trkpt lat="44.0575406" lon="10.7802999"><ele>602.0</ele><time>2026-05-02T16:22:04.717Z</time></trkpt><trkpt lat="44.0576118" lon="10.7804068"><ele>601.0</ele><time>2026-05-02T16:22:05.717Z</time></trkpt><trkpt lat="44.0576472" lon="10.7805605"><ele>600.0</ele><time>2026-05-02T16:22:06.722Z</time></trkpt><trkpt lat="44.0575823" lon="10.7806789"><ele>599.0</ele><time>2026-05-02T16:22:07.718Z</time></trkpt><trkpt lat="44.0575162" lon="10.7808174"><ele>598.0</ele><time>2026-05-02T16:22:08.718Z</time></trkpt><trkpt lat="44.0574348" lon="10.7809649"><ele>603.6666666666667</ele><time>2026-05-02T16:22:09.72Z</time></trkpt><trkpt lat="44.05734" lon="10.7811356"><ele>609.3333333333334</ele><time>2026-05-02T16:22:10.719Z</time></trkpt><trkpt lat="44.0572365" lon="10.7813143"><ele>615.0</ele><time>2026-05-02T16:22:11.718Z</time></trkpt><trkpt lat="44.0571297" lon="10.7815015"><ele>615.0</ele><time>2026-05-02T16:22:12.728Z</time></trkpt><trkpt lat="44.0570076" lon="10.781692"><ele>615.0</ele><time>2026-05-02T16:22:13.714Z</time></trkpt><trkpt lat="44.0568738" lon="10.7818662"><ele>615.0</ele><time>2026-05-02T16:22:14.709Z</time></trkpt><trkpt lat="44.0567409" lon="10.78204"><ele>611.6666666666666</ele><time>2026-05-02T16:22:15.709Z</time></trkpt><trkpt lat="44.0566561" lon="10.7822274"><ele>608.3333333333333</ele><time>2026-05-02T16:22:16.709Z</time></trkpt><trkpt lat="44.0565624" lon="10.7823993"><ele>605.0</ele><time>2026-05-02T16:22:17.724Z</time></trkpt><trkpt lat="44.0564943" lon="10.7825671"><ele>605.0</ele><time>2026-05-02T16:22:18.72Z</time></trkpt><trkpt lat="44.0565331" lon="10.7828121"><ele>605.0</ele><time>2026-05-02T16:22:19.719Z</time></trkpt><trkpt lat="44.056557" lon="10.7830283"><ele>605.0</ele><time>2026-05-02T16:22:20.71Z</time></trkpt><trkpt lat="44.0565895" lon="10.783249"><ele>605.0</ele><time>2026-05-02T16:22:21.714Z</time></trkpt><trkpt lat="44.0566103" lon="10.7834826"><ele>605.0</ele><time>2026-05-02T16:22:22.716Z</time></trkpt><trkpt lat="44.0566321" lon="10.7837086"><ele>605.0</ele><time>2026-05-02T16:22:23.72Z</time></trkpt><trkpt lat="44.0566482" lon="10.7839197"><ele>608.0</ele><time>2026-05-02T16:22:24.721Z</time></trkpt><trkpt lat="44.0566535" lon="10.7841321"><ele>611.0</ele><time>2026-05-02T16:22:25.727Z</time></trkpt><trkpt lat="44.0566198" lon="10.7843373"><ele>614.0</ele><time>2026-05-02T16:22:26.722Z</time></trkpt><trkpt lat="44.056555" lon="10.7845283"><ele>614.0</ele><time>2026-05-02T16:22:27.715Z</time></trkpt><trkpt lat="44.0564841" lon="10.7847169"><ele>614.0</ele><time>2026-05-02T16:22:28.716Z</time></trkpt><trkpt lat="44.0563757" lon="10.7848991"><ele>614.0</ele><time>2026-05-02T16:22:29.722Z</time></trkpt><trkpt lat="44.0562533" lon="10.7850676"><ele>619.0</ele><time>2026-05-02T16:22:30.715Z</time></trkpt><trkpt lat="44.0561364" lon="10.7852291"><ele>624.0</ele><time>2026-05-02T16:22:31.717Z</time></trkpt><trkpt lat="44.0560276" lon="10.7853714"><ele>629.0</ele><time>2026-05-02T16:22:32.715Z</time></trkpt><trkpt lat="44.0559121" lon="10.7854735"><ele>629.0</ele><time>2026-05-02T16:22:33.737Z</time></trkpt><trkpt lat="44.0558273" lon="10.785582"><ele>629.0</ele><time>2026-05-02T16:22:34.728Z</time></trkpt><trkpt lat="44.0557513" lon="10.785707"><ele>629.0</ele><time>2026-05-02T16:22:35.741Z</time></trkpt><trkpt lat="44.0557019" lon="10.7858501"><ele>629.0</ele><time>2026-05-02T16:22:36.717Z</time></trkpt><trkpt lat="44.055669" lon="10.7859828"><ele>629.0</ele><time>2026-05-02T16:22:37.73Z</time></trkpt><trkpt lat="44.0556537" lon="10.7861326"><ele>625.25</ele><time>2026-05-02T16:22:38.714Z</time></trkpt><trkpt lat="44.0556459" lon="10.7862976"><ele>621.5</ele><time>2026-05-02T16:22:39.717Z</time></trkpt><trkpt lat="44.0556398" lon="10.7864574"><ele>617.75</ele><time>2026-05-02T16:22:40.737Z</time></trkpt><trkpt lat="44.0556307" lon="10.786618"><ele>614.0</ele><time>2026-05-02T16:22:41.716Z</time></trkpt><trkpt lat="44.0556234" lon="10.7867655"><ele>614.2</ele><time>2026-05-02T16:22:42.722Z</time></trkpt><trkpt lat="44.0556242" lon="10.78691"><ele>614.4</ele><time>2026-05-02T16:22:43.721Z</time></trkpt><trkpt lat="44.055618" lon="10.7870662"><ele>614.6</ele><time>2026-05-02T16:22:44.741Z</time></trkpt><trkpt lat="44.0556066" lon="10.7872195"><ele>614.8</ele><time>2026-05-02T16:22:45.721Z</time></trkpt><trkpt lat="44.0555942" lon="10.7873699"><ele>615.0</ele><time>2026-05-02T16:22:46.714Z</time></trkpt><trkpt lat="44.0555904" lon="10.7875093"><ele>615.0</ele><time>2026-05-02T16:22:47.731Z</time></trkpt><trkpt lat="44.0555866" lon="10.7876454"><ele>615.0</ele><time>2026-05-02T16:22:48.719Z</time></trkpt><trkpt lat="44.0555866" lon="10.7877738"><ele>615.0</ele><time>2026-05-02T16:22:49.719Z</time></trkpt><trkpt lat="44.0555897" lon="10.7878902"><ele>615.0</ele><time>2026-05-02T16:22:50.719Z</time></trkpt><trkpt lat="44.0555888" lon="10.7880158"><ele>615.0</ele><time>2026-05-02T16:22:51.711Z</time></trkpt><trkpt lat="44.0555817" lon="10.7881526"><ele>614.8</ele><time>2026-05-02T16:22:52.719Z</time></trkpt><trkpt lat="44.0555827" lon="10.7882885"><ele>614.6</ele><time>2026-05-02T16:22:53.719Z</time></trkpt><trkpt lat="44.0555795" lon="10.7884338"><ele>614.4</ele><time>2026-05-02T16:22:54.734Z</time></trkpt><trkpt lat="44.0555596" lon="10.7885689"><ele>614.2</ele><time>2026-05-02T16:22:55.718Z</time></trkpt><trkpt lat="44.0555521" lon="10.788721"><ele>614.0</ele><time>2026-05-02T16:22:56.72Z</time></trkpt><trkpt lat="44.0555399" lon="10.788854"><ele>614.0</ele><time>2026-05-02T16:22:57.717Z</time></trkpt><trkpt lat="44.0555331" lon="10.7889852"><ele>614.0</ele><time>2026-05-02T16:22:58.724Z</time></trkpt><trkpt lat="44.0555341" lon="10.7891053"><ele>614.0</ele><time>2026-05-02T16:22:59.72Z</time></trkpt><trkpt lat="44.0555348" lon="10.7892061"><ele>614.0</ele><time>2026-05-02T16:23:00.723Z</time></trkpt><trkpt lat="44.0555319" lon="10.7892979"><ele>614.0</ele><time>2026-05-02T16:23:01.721Z</time></trkpt><trkpt lat="44.0555354" lon="10.7894021"><ele>614.0</ele><time>2026-05-02T16:23:03.717Z</time></trkpt><trkpt lat="44.0555297" lon="10.789509"><ele>614.6</ele><time>2026-05-02T16:23:06.715Z</time></trkpt><trkpt lat="44.0555359" lon="10.7896402"><ele>615.2</ele><time>2026-05-02T16:23:08.723Z</time></trkpt><trkpt lat="44.0555302" lon="10.7897934"><ele>615.8000000000001</ele><time>2026-05-02T16:23:10.716Z</time></trkpt><trkpt lat="44.0555211" lon="10.7899535"><ele>616.4</ele><time>2026-05-02T16:23:12.722Z</time></trkpt><trkpt lat="44.0555175" lon="10.79012"><ele>617.0</ele><time>2026-05-02T16:23:14.718Z</time></trkpt><trkpt lat="44.0554989" lon="10.7902917"><ele>618.0</ele><time>2026-05-02T16:23:16.72Z</time></trkpt><trkpt lat="44.0554999" lon="10.7903987"><ele>619.0</ele><time>2026-05-02T16:23:17.72Z</time></trkpt><trkpt lat="44.0554936" lon="10.7905092"><ele>620.0</ele><time>2026-05-02T16:23:18.718Z</time></trkpt><trkpt lat="44.0554917" lon="10.7906355"><ele>621.0</ele><time>2026-05-02T16:23:19.737Z</time></trkpt><trkpt lat="44.0554785" lon="10.7907682"><ele>622.0</ele><time>2026-05-02T16:23:20.719Z</time></trkpt><trkpt lat="44.0554853" lon="10.7908785"><ele>623.0</ele><time>2026-05-02T16:23:21.717Z</time></trkpt><trkpt lat="44.0554968" lon="10.7910149"><ele>623.0</ele><time>2026-05-02T16:23:23.723Z</time></trkpt><trkpt lat="44.0555442" lon="10.7910976"><ele>623.0</ele><time>2026-05-02T16:23:25.716Z</time></trkpt><trkpt lat="44.0555974" lon="10.7912064"><ele>623.0</ele><time>2026-05-02T16:23:27.727Z</time></trkpt><trkpt lat="44.0556594" lon="10.7913393"><ele>623.0</ele><time>2026-05-02T16:23:29.727Z</time></trkpt><trkpt lat="44.0556762" lon="10.7914316"><ele>623.0</ele><time>2026-05-02T16:23:30.72Z</time></trkpt><trkpt lat="44.0556937" lon="10.791555"><ele>623.0</ele><time>2026-05-02T16:23:31.723Z</time></trkpt><trkpt lat="44.0557245" lon="10.7916923"><ele>623.0</ele><time>2026-05-02T16:23:32.721Z</time></trkpt><trkpt lat="44.0557591" lon="10.7918237"><ele>623.0</ele><time>2026-05-02T16:23:33.713Z</time></trkpt><trkpt lat="44.0557841" lon="10.7919647"><ele>623.0</ele><time>2026-05-02T16:23:34.721Z</time></trkpt><trkpt lat="44.0558062" lon="10.7921112"><ele>623.0</ele><time>2026-05-02T16:23:35.72Z</time></trkpt><trkpt lat="44.0558366" lon="10.7922503"><ele>623.0</ele><time>2026-05-02T16:23:36.719Z</time></trkpt><trkpt lat="44.0558768" lon="10.7923782"><ele>622.4</ele><time>2026-05-02T16:23:37.717Z</time></trkpt><trkpt lat="44.0559094" lon="10.7924979"><ele>621.8</ele><time>2026-05-02T16:23:38.732Z</time></trkpt><trkpt lat="44.0559366" lon="10.7926079"><ele>621.2</ele><time>2026-05-02T16:23:39.718Z</time></trkpt><trkpt lat="44.0559666" lon="10.7927182"><ele>620.6</ele><time>2026-05-02T16:23:40.722Z</time></trkpt><trkpt lat="44.0559958" lon="10.7928401"><ele>620.0</ele><time>2026-05-02T16:23:41.739Z</time></trkpt><trkpt lat="44.0560332" lon="10.792973"><ele>619.8</ele><time>2026-05-02T16:23:42.716Z</time></trkpt><trkpt lat="44.056071" lon="10.7931165"><ele>619.6</ele><time>2026-05-02T16:23:43.717Z</time></trkpt><trkpt lat="44.056109" lon="10.7932638"><ele>619.4</ele><time>2026-05-02T16:23:44.721Z</time></trkpt><trkpt lat="44.0561471" lon="10.793417"><ele>619.2</ele><time>2026-05-02T16:23:45.728Z</time></trkpt><trkpt lat="44.0561835" lon="10.7935554"><ele>619.0</ele><time>2026-05-02T16:23:46.72Z</time></trkpt><trkpt lat="44.056221" lon="10.7936982"><ele>619.0</ele><time>2026-05-02T16:23:47.714Z</time></trkpt><trkpt lat="44.0562493" lon="10.793855"><ele>619.0</ele><time>2026-05-02T16:23:48.717Z</time></trkpt><trkpt lat="44.0562704" lon="10.7940225"><ele>619.0</ele><time>2026-05-02T16:23:49.715Z</time></trkpt><trkpt lat="44.0562838" lon="10.79419"><ele>619.0</ele><time>2026-05-02T16:23:50.717Z</time></trkpt><trkpt lat="44.0562437" lon="10.7943699"><ele>620.25</ele><time>2026-05-02T16:23:51.729Z</time></trkpt><trkpt lat="44.0562075" lon="10.7945392"><ele>621.5</ele><time>2026-05-02T16:23:52.72Z</time></trkpt><trkpt lat="44.0561621" lon="10.7947156"><ele>622.75</ele><time>2026-05-02T16:23:53.72Z</time></trkpt><trkpt lat="44.0561077" lon="10.7949004"><ele>624.0</ele><time>2026-05-02T16:23:54.719Z</time></trkpt><trkpt lat="44.0560467" lon="10.7950775"><ele>626.5</ele><time>2026-05-02T16:23:55.722Z</time></trkpt><trkpt lat="44.056" lon="10.7952516"><ele>629.0</ele><time>2026-05-02T16:23:56.721Z</time></trkpt><trkpt lat="44.0559488" lon="10.7954248"><ele>631.5</ele><time>2026-05-02T16:23:57.719Z</time></trkpt><trkpt lat="44.0558906" lon="10.7955737"><ele>634.0</ele><time>2026-05-02T16:23:58.72Z</time></trkpt><trkpt lat="44.0558541" lon="10.7957383"><ele>634.0</ele><time>2026-05-02T16:23:59.72Z</time></trkpt><trkpt lat="44.055821" lon="10.795918"><ele>634.0</ele><time>2026-05-02T16:24:00.717Z</time></trkpt><trkpt lat="44.0557968" lon="10.7960981"><ele>634.0</ele><time>2026-05-02T16:24:01.722Z</time></trkpt><trkpt lat="44.0557749" lon="10.7963048"><ele>634.0</ele><time>2026-05-02T16:24:02.713Z</time></trkpt><trkpt lat="44.0557575" lon="10.7964849"><ele>629.75</ele><time>2026-05-02T16:24:03.726Z</time></trkpt><trkpt lat="44.0557473" lon="10.7966558"><ele>625.5</ele><time>2026-05-02T16:24:04.717Z</time></trkpt><trkpt lat="44.0557279" lon="10.7968257"><ele>621.25</ele><time>2026-05-02T16:24:05.715Z</time></trkpt><trkpt lat="44.0557143" lon="10.7969873"><ele>617.0</ele><time>2026-05-02T16:24:06.721Z</time></trkpt><trkpt lat="44.0556916" lon="10.7971384"><ele>617.0</ele><time>2026-05-02T16:24:07.719Z</time></trkpt><trkpt lat="44.0556724" lon="10.7972792"><ele>617.0</ele><time>2026-05-02T16:24:08.74Z</time></trkpt><trkpt lat="44.0556696" lon="10.7974156"><ele>617.0</ele><time>2026-05-02T16:24:09.718Z</time></trkpt><trkpt lat="44.0556504" lon="10.7975475"><ele>617.0</ele><time>2026-05-02T16:24:10.722Z</time></trkpt><trkpt lat="44.05563" lon="10.7976807"><ele>617.0</ele><time>2026-05-02T16:24:11.734Z</time></trkpt><trkpt lat="44.0555993" lon="10.7978184"><ele>619.2</ele><time>2026-05-02T16:24:12.717Z</time></trkpt><trkpt lat="44.0555514" lon="10.7979427"><ele>621.4000000000001</ele><time>2026-05-02T16:24:13.719Z</time></trkpt><trkpt lat="44.0555041" lon="10.798058"><ele>623.5999999999999</ele><time>2026-05-02T16:24:14.717Z</time></trkpt><trkpt lat="44.0554414" lon="10.7981832"><ele>625.8</ele><time>2026-05-02T16:24:15.719Z</time></trkpt><trkpt lat="44.0553866" lon="10.798308"><ele>628.0</ele><time>2026-05-02T16:24:16.714Z</time></trkpt><trkpt lat="44.0553288" lon="10.7984168"><ele>629.4</ele><time>2026-05-02T16:24:17.725Z</time></trkpt><trkpt lat="44.0552746" lon="10.7985254"><ele>630.8</ele><time>2026-05-02T16:24:18.721Z</time></trkpt><trkpt lat="44.0552173" lon="10.7986355"><ele>632.2</ele><time>2026-05-02T16:24:19.714Z</time></trkpt><trkpt lat="44.0551606" lon="10.7987437"><ele>633.6</ele><time>2026-05-02T16:24:20.722Z</time></trkpt><trkpt lat="44.0551067" lon="10.7988607"><ele>635.0</ele><time>2026-05-02T16:24:21.72Z</time></trkpt><trkpt lat="44.0550356" lon="10.7989779"><ele>635.2</ele><time>2026-05-02T16:24:22.731Z</time></trkpt><trkpt lat="44.0549528" lon="10.7990913"><ele>635.4</ele><time>2026-05-02T16:24:23.717Z</time></trkpt><trkpt lat="44.0548671" lon="10.7991874"><ele>635.6</ele><time>2026-05-02T16:24:24.717Z</time></trkpt><trkpt lat="44.0547734" lon="10.7992854"><ele>635.8</ele><time>2026-05-02T16:24:25.717Z</time></trkpt><trkpt lat="44.0546898" lon="10.7993729"><ele>636.0</ele><time>2026-05-02T16:24:26.712Z</time></trkpt><trkpt lat="44.0546041" lon="10.7994576"><ele>636.0</ele><time>2026-05-02T16:24:27.714Z</time></trkpt><trkpt lat="44.0545145" lon="10.7995454"><ele>636.0</ele><time>2026-05-02T16:24:28.715Z</time></trkpt><trkpt lat="44.0544434" lon="10.799646"><ele>636.0</ele><time>2026-05-02T16:24:29.731Z</time></trkpt><trkpt lat="44.0543755" lon="10.7997463"><ele>636.0</ele><time>2026-05-02T16:24:30.714Z</time></trkpt><trkpt lat="44.0543093" lon="10.7998529"><ele>636.0</ele><time>2026-05-02T16:24:31.722Z</time></trkpt><trkpt lat="44.0542521" lon="10.7999651"><ele>636.0</ele><time>2026-05-02T16:24:32.714Z</time></trkpt><trkpt lat="44.0542035" lon="10.8000895"><ele>636.0</ele><time>2026-05-02T16:24:33.718Z</time></trkpt><trkpt lat="44.0541497" lon="10.8002121"><ele>636.0</ele><time>2026-05-02T16:24:34.712Z</time></trkpt><trkpt lat="44.0540954" lon="10.800335"><ele>636.0</ele><time>2026-05-02T16:24:35.722Z</time></trkpt><trkpt lat="44.0540536" lon="10.8004685"><ele>636.0</ele><time>2026-05-02T16:24:36.717Z</time></trkpt><trkpt lat="44.0539948" lon="10.800597"><ele>636.0</ele><time>2026-05-02T16:24:37.74Z</time></trkpt><trkpt lat="44.0539492" lon="10.8007091"><ele>636.0</ele><time>2026-05-02T16:24:38.73Z</time></trkpt><trkpt lat="44.0538979" lon="10.8008282"><ele>636.0</ele><time>2026-05-02T16:24:39.717Z</time></trkpt><trkpt lat="44.0538489" lon="10.8009582"><ele>636.0</ele><time>2026-05-02T16:24:40.718Z</time></trkpt><trkpt lat="44.0537884" lon="10.8010679"><ele>636.0</ele><time>2026-05-02T16:24:41.721Z</time></trkpt><trkpt lat="44.0537275" lon="10.8011938"><ele>636.0</ele><time>2026-05-02T16:24:42.716Z</time></trkpt><trkpt lat="44.0536674" lon="10.8013095"><ele>636.0</ele><time>2026-05-02T16:24:43.715Z</time></trkpt><trkpt lat="44.0536161" lon="10.8014146"><ele>636.0</ele><time>2026-05-02T16:24:44.716Z</time></trkpt><trkpt lat="44.0535478" lon="10.8015142"><ele>636.0</ele><time>2026-05-02T16:24:45.721Z</time></trkpt><trkpt lat="44.0534794" lon="10.8016001"><ele>636.0</ele><time>2026-05-02T16:24:46.718Z</time></trkpt><trkpt lat="44.0534009" lon="10.8016784"><ele>636.0</ele><time>2026-05-02T16:24:47.718Z</time></trkpt><trkpt lat="44.0533282" lon="10.801744"><ele>636.0</ele><time>2026-05-02T16:24:48.719Z</time></trkpt><trkpt lat="44.0532653" lon="10.8018142"><ele>636.0</ele><time>2026-05-02T16:24:49.72Z</time></trkpt><trkpt lat="44.0531901" lon="10.8018925"><ele>636.0</ele><time>2026-05-02T16:24:50.714Z</time></trkpt><trkpt lat="44.0531126" lon="10.8019773"><ele>636.0</ele><time>2026-05-02T16:24:51.715Z</time></trkpt><trkpt lat="44.0530366" lon="10.8021017"><ele>636.0</ele><time>2026-05-02T16:24:52.714Z</time></trkpt><trkpt lat="44.0529516" lon="10.8022438"><ele>636.0</ele><time>2026-05-02T16:24:53.718Z</time></trkpt><trkpt lat="44.0528566" lon="10.8023936"><ele>636.0</ele><time>2026-05-02T16:24:54.724Z</time></trkpt><trkpt lat="44.0527454" lon="10.802557"><ele>636.0</ele><time>2026-05-02T16:24:55.713Z</time></trkpt><trkpt lat="44.0526404" lon="10.8026947"><ele>637.6666666666666</ele><time>2026-05-02T16:24:56.719Z</time></trkpt><trkpt lat="44.0525581" lon="10.8028907"><ele>639.3333333333333</ele><time>2026-05-02T16:24:57.718Z</time></trkpt><trkpt lat="44.0524783" lon="10.803097"><ele>641.0</ele><time>2026-05-02T16:24:58.715Z</time></trkpt><trkpt lat="44.052394" lon="10.8032958"><ele>639.5</ele><time>2026-05-02T16:24:59.726Z</time></trkpt><trkpt lat="44.0523259" lon="10.8034816"><ele>638.0</ele><time>2026-05-02T16:25:00.718Z</time></trkpt><trkpt lat="44.0522568" lon="10.8036534"><ele>636.5</ele><time>2026-05-02T16:25:01.717Z</time></trkpt><trkpt lat="44.0522107" lon="10.8038329"><ele>635.0</ele><time>2026-05-02T16:25:02.718Z</time></trkpt><trkpt lat="44.0521659" lon="10.8040031"><ele>635.0</ele><time>2026-05-02T16:25:03.72Z</time></trkpt><trkpt lat="44.0521302" lon="10.8041575"><ele>635.0</ele><time>2026-05-02T16:25:04.719Z</time></trkpt><trkpt lat="44.0520752" lon="10.8042869"><ele>635.0</ele><time>2026-05-02T16:25:05.729Z</time></trkpt><trkpt lat="44.0519985" lon="10.8044156"><ele>635.0</ele><time>2026-05-02T16:25:06.72Z</time></trkpt><trkpt lat="44.0519072" lon="10.804542"><ele>637.0</ele><time>2026-05-02T16:25:07.723Z</time></trkpt><trkpt lat="44.0517981" lon="10.804657"><ele>639.0</ele><time>2026-05-02T16:25:08.723Z</time></trkpt><trkpt lat="44.0516976" lon="10.8047773"><ele>641.0</ele><time>2026-05-02T16:25:09.716Z</time></trkpt><trkpt lat="44.0516041" lon="10.8048757"><ele>643.0</ele><time>2026-05-02T16:25:10.712Z</time></trkpt><trkpt lat="44.051509" lon="10.8049834"><ele>643.0</ele><time>2026-05-02T16:25:11.718Z</time></trkpt><trkpt lat="44.0513946" lon="10.8050458"><ele>643.0</ele><time>2026-05-02T16:25:12.717Z</time></trkpt><trkpt lat="44.0512974" lon="10.8050653"><ele>643.0</ele><time>2026-05-02T16:25:13.714Z</time></trkpt><trkpt lat="44.0511938" lon="10.8050911"><ele>643.0</ele><time>2026-05-02T16:25:14.717Z</time></trkpt><trkpt lat="44.0510739" lon="10.8050681"><ele>643.0</ele><time>2026-05-02T16:25:15.715Z</time></trkpt><trkpt lat="44.0509593" lon="10.8050681"><ele>643.0</ele><time>2026-05-02T16:25:16.719Z</time></trkpt><trkpt lat="44.0508504" lon="10.8051011"><ele>643.0</ele><time>2026-05-02T16:25:17.723Z</time></trkpt><trkpt lat="44.0507513" lon="10.8051601"><ele>643.0</ele><time>2026-05-02T16:25:18.712Z</time></trkpt><trkpt lat="44.0506672" lon="10.805242"><ele>643.0</ele><time>2026-05-02T16:25:19.712Z</time></trkpt><trkpt lat="44.0505913" lon="10.8053453"><ele>643.0</ele><time>2026-05-02T16:25:20.715Z</time></trkpt><trkpt lat="44.0505159" lon="10.8054655"><ele>642.0</ele><time>2026-05-02T16:25:21.718Z</time></trkpt><trkpt lat="44.0504489" lon="10.8056101"><ele>641.0</ele><time>2026-05-02T16:25:22.718Z</time></trkpt><trkpt lat="44.0503778" lon="10.8057709"><ele>640.0</ele><time>2026-05-02T16:25:23.713Z</time></trkpt><trkpt lat="44.0503132" lon="10.8059287"><ele>639.0</ele><time>2026-05-02T16:25:24.72Z</time></trkpt><trkpt lat="44.0502511" lon="10.806088"><ele>641.25</ele><time>2026-05-02T16:25:25.71Z</time></trkpt><trkpt lat="44.0501872" lon="10.8062397"><ele>643.5</ele><time>2026-05-02T16:25:26.718Z</time></trkpt><trkpt lat="44.0501332" lon="10.8063914"><ele>645.75</ele><time>2026-05-02T16:25:27.714Z</time></trkpt><trkpt lat="44.0500659" lon="10.8065203"><ele>648.0</ele><time>2026-05-02T16:25:28.72Z</time></trkpt><trkpt lat="44.0499868" lon="10.8066329"><ele>646.25</ele><time>2026-05-02T16:25:29.717Z</time></trkpt><trkpt lat="44.0499028" lon="10.8067328"><ele>644.5</ele><time>2026-05-02T16:25:30.717Z</time></trkpt><trkpt lat="44.0498062" lon="10.8068155"><ele>642.75</ele><time>2026-05-02T16:25:31.713Z</time></trkpt><trkpt lat="44.0497003" lon="10.8068811"><ele>641.0</ele><time>2026-05-02T16:25:32.713Z</time></trkpt><trkpt lat="44.0495969" lon="10.806945"><ele>641.0</ele><time>2026-05-02T16:25:33.724Z</time></trkpt><trkpt lat="44.0494834" lon="10.8069725"><ele>641.0</ele><time>2026-05-02T16:25:34.715Z</time></trkpt><trkpt lat="44.0493671" lon="10.806992"><ele>641.0</ele><time>2026-05-02T16:25:35.712Z</time></trkpt><trkpt lat="44.0492418" lon="10.8069775"><ele>641.0</ele><time>2026-05-02T16:25:36.715Z</time></trkpt><trkpt lat="44.0491278" lon="10.8069745"><ele>640.3333333333333</ele><time>2026-05-02T16:25:37.724Z</time></trkpt><trkpt lat="44.0490378" lon="10.8069857"><ele>639.6666666666666</ele><time>2026-05-02T16:25:38.716Z</time></trkpt><trkpt lat="44.0489559" lon="10.8069632"><ele>639.0</ele><time>2026-05-02T16:25:39.713Z</time></trkpt><trkpt lat="44.0488841" lon="10.8069741"><ele>638.3333333333334</ele><time>2026-05-02T16:25:40.713Z</time></trkpt><trkpt lat="44.0488156" lon="10.8070262"><ele>637.6666666666667</ele><time>2026-05-02T16:25:41.714Z</time></trkpt><trkpt lat="44.0487611" lon="10.8070879"><ele>637.0</ele><time>2026-05-02T16:25:42.718Z</time></trkpt><trkpt lat="44.0487119" lon="10.8071946"><ele>637.0</ele><time>2026-05-02T16:25:43.714Z</time></trkpt><trkpt lat="44.0486588" lon="10.8073129"><ele>637.0</ele><time>2026-05-02T16:25:44.711Z</time></trkpt><trkpt lat="44.0486137" lon="10.8074261"><ele>637.0</ele><time>2026-05-02T16:25:45.712Z</time></trkpt><trkpt lat="44.0485726" lon="10.8075207"><ele>637.0</ele><time>2026-05-02T16:25:46.718Z</time></trkpt><trkpt lat="44.0485358" lon="10.8076093"><ele>637.0</ele><time>2026-05-02T16:25:47.715Z</time></trkpt><trkpt lat="44.0484989" lon="10.8076918"><ele>637.0</ele><time>2026-05-02T16:25:48.721Z</time></trkpt><trkpt lat="44.0484596" lon="10.8078323"><ele>636.6</ele><time>2026-05-02T16:25:50.717Z</time></trkpt><trkpt lat="44.0483892" lon="10.8079957"><ele>636.2</ele><time>2026-05-02T16:25:52.72Z</time></trkpt><trkpt lat="44.0483351" lon="10.8081126"><ele>635.8</ele><time>2026-05-02T16:25:53.708Z</time></trkpt><trkpt lat="44.0482851" lon="10.8082505"><ele>635.4</ele><time>2026-05-02T16:25:54.716Z</time></trkpt><trkpt lat="44.0482299" lon="10.8083545"><ele>635.0</ele><time>2026-05-02T16:25:55.725Z</time></trkpt><trkpt lat="44.0481452" lon="10.8084115"><ele>633.25</ele><time>2026-05-02T16:25:56.718Z</time></trkpt><trkpt lat="44.0480353" lon="10.8084292"><ele>631.5</ele><time>2026-05-02T16:25:57.725Z</time></trkpt><trkpt lat="44.0479426" lon="10.8084348"><ele>629.75</ele><time>2026-05-02T16:25:58.728Z</time></trkpt><trkpt lat="44.0477822" lon="10.8084011"><ele>628.0</ele><time>2026-05-02T16:25:59.717Z</time></trkpt><trkpt lat="44.0476285" lon="10.8083819"><ele>628.0</ele><time>2026-05-02T16:26:00.723Z</time></trkpt><trkpt lat="44.0474785" lon="10.8083621"><ele>628.0</ele><time>2026-05-02T16:26:01.719Z</time></trkpt><trkpt lat="44.0473186" lon="10.8083429"><ele>628.0</ele><time>2026-05-02T16:26:02.715Z</time></trkpt><trkpt lat="44.0471672" lon="10.8083325"><ele>629.75</ele><time>2026-05-02T16:26:03.716Z</time></trkpt><trkpt lat="44.04704" lon="10.8083393"><ele>631.5</ele><time>2026-05-02T16:26:04.717Z</time></trkpt><trkpt lat="44.0469384" lon="10.8083836"><ele>633.25</ele><time>2026-05-02T16:26:05.721Z</time></trkpt><trkpt lat="44.0468498" lon="10.8084331"><ele>635.0</ele><time>2026-05-02T16:26:06.712Z</time></trkpt><trkpt lat="44.0467939" lon="10.808653"><ele>636.25</ele><time>2026-05-02T16:26:08.717Z</time></trkpt><trkpt lat="44.0468173" lon="10.8088335"><ele>637.5</ele><time>2026-05-02T16:26:09.725Z</time></trkpt><trkpt lat="44.0468532" lon="10.8090231"><ele>638.75</ele><time>2026-05-02T16:26:10.721Z</time></trkpt><trkpt lat="44.0469274" lon="10.809239"><ele>640.0</ele><time>2026-05-02T16:26:11.717Z</time></trkpt><trkpt lat="44.046938" lon="10.8094135"><ele>640.75</ele><time>2026-05-02T16:26:12.713Z</time></trkpt><trkpt lat="44.0469017" lon="10.8095865"><ele>641.5</ele><time>2026-05-02T16:26:13.716Z</time></trkpt><trkpt lat="44.0468421" lon="10.8097676"><ele>642.25</ele><time>2026-05-02T16:26:14.721Z</time></trkpt><trkpt lat="44.0467605" lon="10.8099481"><ele>643.0</ele><time>2026-05-02T16:26:15.72Z</time></trkpt><trkpt lat="44.0467031" lon="10.810115"><ele>646.0</ele><time>2026-05-02T16:26:16.717Z</time></trkpt><trkpt lat="44.0466275" lon="10.8102753"><ele>649.0</ele><time>2026-05-02T16:26:17.713Z</time></trkpt><trkpt lat="44.046403" lon="10.8102811"><ele>652.0</ele><time>2026-05-02T16:26:18.714Z</time></trkpt><trkpt lat="44.0462345" lon="10.8103748"><ele>652.0</ele><time>2026-05-02T16:26:19.715Z</time></trkpt><trkpt lat="44.0460676" lon="10.8104902"><ele>652.0</ele><time>2026-05-02T16:26:20.721Z</time></trkpt><trkpt lat="44.045889" lon="10.8106265"><ele>652.0</ele><time>2026-05-02T16:26:21.715Z</time></trkpt><trkpt lat="44.0456926" lon="10.8107657"><ele>655.0</ele><time>2026-05-02T16:26:22.738Z</time></trkpt><trkpt lat="44.0454854" lon="10.8109174"><ele>658.0</ele><time>2026-05-02T16:26:23.718Z</time></trkpt><trkpt lat="44.0452768" lon="10.811081"><ele>658.0</ele><time>2026-05-02T16:26:24.714Z</time></trkpt><trkpt lat="44.0450767" lon="10.8112421"><ele>658.0</ele><time>2026-05-02T16:26:25.727Z</time></trkpt><trkpt lat="44.044904" lon="10.811378"><ele>658.0</ele><time>2026-05-02T16:26:26.708Z</time></trkpt><trkpt lat="44.0447453" lon="10.8115216"><ele>661.0</ele><time>2026-05-02T16:26:27.723Z</time></trkpt><trkpt lat="44.0446114" lon="10.8116317"><ele>664.0</ele><time>2026-05-02T16:26:28.711Z</time></trkpt><trkpt lat="44.0444973" lon="10.8117646"><ele>667.0</ele><time>2026-05-02T16:26:29.709Z</time></trkpt><trkpt lat="44.0444031" lon="10.8119076"><ele>670.0</ele><time>2026-05-02T16:26:30.721Z</time></trkpt><trkpt lat="44.0443431" lon="10.8120925"><ele>670.0</ele><time>2026-05-02T16:26:31.717Z</time></trkpt><trkpt lat="44.0442992" lon="10.8122838"><ele>670.0</ele><time>2026-05-02T16:26:32.713Z</time></trkpt><trkpt lat="44.0442891" lon="10.8124751"><ele>670.0</ele><time>2026-05-02T16:26:33.715Z</time></trkpt><trkpt lat="44.0443154" lon="10.812648"><ele>670.0</ele><time>2026-05-02T16:26:34.722Z</time></trkpt><trkpt lat="44.0443797" lon="10.8127857"><ele>673.0</ele><time>2026-05-02T16:26:35.727Z</time></trkpt><trkpt lat="44.0445247" lon="10.8128893"><ele>676.0</ele><time>2026-05-02T16:26:36.713Z</time></trkpt><trkpt lat="44.0446636" lon="10.8129901"><ele>679.0</ele><time>2026-05-02T16:26:37.723Z</time></trkpt><trkpt lat="44.0448311" lon="10.8130829"><ele>678.3333333333334</ele><time>2026-05-02T16:26:38.714Z</time></trkpt><trkpt lat="44.045018" lon="10.8131718"><ele>677.6666666666666</ele><time>2026-05-02T16:26:39.717Z</time></trkpt><trkpt lat="44.0451788" lon="10.8132547"><ele>677.0</ele><time>2026-05-02T16:26:40.739Z</time></trkpt><trkpt lat="44.0453074" lon="10.8133382"><ele>677.0</ele><time>2026-05-02T16:26:41.724Z</time></trkpt><trkpt lat="44.045398" lon="10.8134619"><ele>677.0</ele><time>2026-05-02T16:26:42.717Z</time></trkpt><trkpt lat="44.0454601" lon="10.8136142"><ele>677.0</ele><time>2026-05-02T16:26:43.713Z</time></trkpt><trkpt lat="44.0455219" lon="10.8137631"><ele>677.0</ele><time>2026-05-02T16:26:44.736Z</time></trkpt><trkpt lat="44.0455545" lon="10.8139077"><ele>679.5</ele><time>2026-05-02T16:26:45.715Z</time></trkpt><trkpt lat="44.0455703" lon="10.8140808"><ele>682.0</ele><time>2026-05-02T16:26:46.727Z</time></trkpt><trkpt lat="44.0455479" lon="10.8142639"><ele>684.5</ele><time>2026-05-02T16:26:47.71Z</time></trkpt><trkpt lat="44.0454431" lon="10.814458"><ele>687.0</ele><time>2026-05-02T16:26:48.718Z</time></trkpt><trkpt lat="44.0453416" lon="10.8146594"><ele>687.3333333333334</ele><time>2026-05-02T16:26:49.714Z</time></trkpt><trkpt lat="44.045205" lon="10.8148603"><ele>687.6666666666667</ele><time>2026-05-02T16:26:50.708Z</time></trkpt><trkpt lat="44.0450972" lon="10.8150713"><ele>688.0</ele><time>2026-05-02T16:26:51.714Z</time></trkpt><trkpt lat="44.0449305" lon="10.8153201"><ele>695.5</ele><time>2026-05-02T16:26:52.721Z</time></trkpt><trkpt lat="44.0447009" lon="10.8155256"><ele>703.0</ele><time>2026-05-02T16:26:53.713Z</time></trkpt><trkpt lat="44.0445458" lon="10.8157687"><ele>703.0</ele><time>2026-05-02T16:26:54.739Z</time></trkpt><trkpt lat="44.0444013" lon="10.8159632"><ele>703.0</ele><time>2026-05-02T16:26:55.716Z</time></trkpt><trkpt lat="44.0443502" lon="10.8162221"><ele>703.0</ele><time>2026-05-02T16:26:56.716Z</time></trkpt><trkpt lat="44.0442793" lon="10.8164704"><ele>702.3333333333334</ele><time>2026-05-02T16:26:57.715Z</time></trkpt><trkpt lat="44.0442106" lon="10.8167339"><ele>701.6666666666666</ele><time>2026-05-02T16:26:58.719Z</time></trkpt><trkpt lat="44.0441431" lon="10.8170173"><ele>701.0</ele><time>2026-05-02T16:26:59.715Z</time></trkpt><trkpt lat="44.0440745" lon="10.8172951"><ele>705.6666666666666</ele><time>2026-05-02T16:27:00.706Z</time></trkpt><trkpt lat="44.0440094" lon="10.8175831"><ele>710.3333333333334</ele><time>2026-05-02T16:27:01.712Z</time></trkpt><trkpt lat="44.0439504" lon="10.8178746"><ele>715.0</ele><time>2026-05-02T16:27:02.718Z</time></trkpt><trkpt lat="44.0438777" lon="10.818168"><ele>715.6666666666667</ele><time>2026-05-02T16:27:03.72Z</time></trkpt><trkpt lat="44.0438193" lon="10.8184491"><ele>716.3333333333334</ele><time>2026-05-02T16:27:04.715Z</time></trkpt><trkpt lat="44.0437604" lon="10.8187116"><ele>717.0</ele><time>2026-05-02T16:27:05.725Z</time></trkpt><trkpt lat="44.0437082" lon="10.8189416"><ele>718.0</ele><time>2026-05-02T16:27:06.717Z</time></trkpt><trkpt lat="44.043662" lon="10.8191564"><ele>719.0</ele><time>2026-05-02T16:27:07.717Z</time></trkpt><trkpt lat="44.0436529" lon="10.8193344"><ele>720.0</ele><time>2026-05-02T16:27:08.714Z</time></trkpt><trkpt lat="44.0436831" lon="10.8195199"><ele>721.0</ele><time>2026-05-02T16:27:09.72Z</time></trkpt><trkpt lat="44.0437298" lon="10.8197058"><ele>722.6666666666667</ele><time>2026-05-02T16:27:10.714Z</time></trkpt><trkpt lat="44.0437571" lon="10.8199351"><ele>724.3333333333334</ele><time>2026-05-02T16:27:11.718Z</time></trkpt><trkpt lat="44.0437871" lon="10.8201687"><ele>726.0</ele><time>2026-05-02T16:27:12.716Z</time></trkpt><trkpt lat="44.0437915" lon="10.82042"><ele>728.0</ele><time>2026-05-02T16:27:13.713Z</time></trkpt><trkpt lat="44.0438028" lon="10.8206453"><ele>730.0</ele><time>2026-05-02T16:27:14.716Z</time></trkpt><trkpt lat="44.0438208" lon="10.8208317"><ele>732.0</ele><time>2026-05-02T16:27:15.717Z</time></trkpt><trkpt lat="44.0438704" lon="10.8209864"><ele>734.0</ele><time>2026-05-02T16:27:16.718Z</time></trkpt><trkpt lat="44.0439427" lon="10.8211288"><ele>735.25</ele><time>2026-05-02T16:27:17.718Z</time></trkpt><trkpt lat="44.0439813" lon="10.8212689"><ele>736.5</ele><time>2026-05-02T16:27:18.717Z</time></trkpt><trkpt lat="44.0439776" lon="10.8214105"><ele>737.75</ele><time>2026-05-02T16:27:19.713Z</time></trkpt><trkpt lat="44.0439481" lon="10.8215685"><ele>739.0</ele><time>2026-05-02T16:27:20.716Z</time></trkpt><trkpt lat="44.0439024" lon="10.8217465"><ele>740.0</ele><time>2026-05-02T16:27:21.721Z</time></trkpt><trkpt lat="44.0438409" lon="10.8219506"><ele>741.0</ele><time>2026-05-02T16:27:22.715Z</time></trkpt><trkpt lat="44.0437831" lon="10.8221778"><ele>742.0</ele><time>2026-05-02T16:27:23.714Z</time></trkpt><trkpt lat="44.0437165" lon="10.8224264"><ele>743.3333333333334</ele><time>2026-05-02T16:27:24.741Z</time></trkpt><trkpt lat="44.0436661" lon="10.8226675"><ele>744.6666666666666</ele><time>2026-05-02T16:27:25.714Z</time></trkpt><trkpt lat="44.0436229" lon="10.8229293"><ele>746.0</ele><time>2026-05-02T16:27:26.72Z</time></trkpt><trkpt lat="44.0435875" lon="10.823174"><ele>746.0</ele><time>2026-05-02T16:27:27.72Z</time></trkpt><trkpt lat="44.0435586" lon="10.8234121"><ele>746.0</ele><time>2026-05-02T16:27:28.707Z</time></trkpt><trkpt lat="44.0435412" lon="10.8236262"><ele>746.0</ele><time>2026-05-02T16:27:29.721Z</time></trkpt><trkpt lat="44.0435339" lon="10.8238032"><ele>746.0</ele><time>2026-05-02T16:27:30.722Z</time></trkpt><trkpt lat="44.0435181" lon="10.8239645"><ele>746.0</ele><time>2026-05-02T16:27:31.717Z</time></trkpt><trkpt lat="44.0435315" lon="10.8241284"><ele>746.0</ele><time>2026-05-02T16:27:32.712Z</time></trkpt><trkpt lat="44.0435717" lon="10.8243249"><ele>746.0</ele><time>2026-05-02T16:27:33.721Z</time></trkpt><trkpt lat="44.0436178" lon="10.82453"><ele>747.3333333333333</ele><time>2026-05-02T16:27:34.716Z</time></trkpt><trkpt lat="44.0436298" lon="10.8247491"><ele>748.6666666666666</ele><time>2026-05-02T16:27:35.719Z</time></trkpt><trkpt lat="44.0436417" lon="10.8249648"><ele>750.0</ele><time>2026-05-02T16:27:36.714Z</time></trkpt><trkpt lat="44.0436144" lon="10.825162"><ele>750.25</ele><time>2026-05-02T16:27:37.722Z</time></trkpt><trkpt lat="44.0435625" lon="10.8253212"><ele>750.5</ele><time>2026-05-02T16:27:38.713Z</time></trkpt><trkpt lat="44.0434827" lon="10.825453"><ele>750.75</ele><time>2026-05-02T16:27:39.716Z</time></trkpt><trkpt lat="44.0433832" lon="10.8255755"><ele>751.0</ele><time>2026-05-02T16:27:40.721Z</time></trkpt><trkpt lat="44.0432742" lon="10.825713"><ele>753.0</ele><time>2026-05-02T16:27:41.715Z</time></trkpt><trkpt lat="44.0431584" lon="10.8258559"><ele>755.0</ele><time>2026-05-02T16:27:42.71Z</time></trkpt><trkpt lat="44.0430508" lon="10.8259888"><ele>757.0</ele><time>2026-05-02T16:27:43.718Z</time></trkpt><trkpt lat="44.0429488" lon="10.8261161"><ele>759.0</ele><time>2026-05-02T16:27:44.719Z</time></trkpt><trkpt lat="44.0428608" lon="10.8262493"><ele>759.0</ele><time>2026-05-02T16:27:45.729Z</time></trkpt><trkpt lat="44.0427671" lon="10.8263819"><ele>759.0</ele><time>2026-05-02T16:27:46.713Z</time></trkpt><trkpt lat="44.0426808" lon="10.8265258"><ele>759.0</ele><time>2026-05-02T16:27:47.713Z</time></trkpt><trkpt lat="44.0425848" lon="10.826657"><ele>759.0</ele><time>2026-05-02T16:27:48.717Z</time></trkpt><trkpt lat="44.0424967" lon="10.8268047"><ele>765.5</ele><time>2026-05-02T16:27:49.719Z</time></trkpt><trkpt lat="44.0424086" lon="10.8269527"><ele>772.0</ele><time>2026-05-02T16:27:50.714Z</time></trkpt><trkpt lat="44.0423348" lon="10.8271003"><ele>778.5</ele><time>2026-05-02T16:27:51.725Z</time></trkpt><trkpt lat="44.0422507" lon="10.8272422"><ele>785.0</ele><time>2026-05-02T16:27:52.719Z</time></trkpt><trkpt lat="44.0421757" lon="10.8273855"><ele>785.0</ele><time>2026-05-02T16:27:53.712Z</time></trkpt><trkpt lat="44.0421095" lon="10.8275378"><ele>785.0</ele><time>2026-05-02T16:27:54.723Z</time></trkpt><trkpt lat="44.0420594" lon="10.8277094"><ele>785.0</ele><time>2026-05-02T16:27:55.715Z</time></trkpt><trkpt lat="44.0420292" lon="10.8278962"><ele>785.0</ele><time>2026-05-02T16:27:56.716Z</time></trkpt><trkpt lat="44.0420061" lon="10.8281115"><ele>785.0</ele><time>2026-05-02T16:27:57.715Z</time></trkpt><trkpt lat="44.042016" lon="10.8283374"><ele>785.0</ele><time>2026-05-02T16:27:58.719Z</time></trkpt><trkpt lat="44.0420445" lon="10.8285692"><ele>785.0</ele><time>2026-05-02T16:27:59.721Z</time></trkpt><trkpt lat="44.0420903" lon="10.8288142"><ele>786.6666666666667</ele><time>2026-05-02T16:28:00.713Z</time></trkpt><trkpt lat="44.0421341" lon="10.8290572"><ele>788.3333333333333</ele><time>2026-05-02T16:28:01.74Z</time></trkpt><trkpt lat="44.0421579" lon="10.8292994"><ele>790.0</ele><time>2026-05-02T16:28:02.715Z</time></trkpt><trkpt lat="44.0421486" lon="10.8295468"><ele>791.6666666666666</ele><time>2026-05-02T16:28:03.715Z</time></trkpt><trkpt lat="44.042116" lon="10.8297904"><ele>793.3333333333333</ele><time>2026-05-02T16:28:04.712Z</time></trkpt><trkpt lat="44.0420682" lon="10.8300287"><ele>795.0</ele><time>2026-05-02T16:28:05.716Z</time></trkpt><trkpt lat="44.0420165" lon="10.8302473"><ele>795.0</ele><time>2026-05-02T16:28:06.716Z</time></trkpt><trkpt lat="44.0419712" lon="10.8304522"><ele>795.0</ele><time>2026-05-02T16:28:07.726Z</time></trkpt><trkpt lat="44.0419499" lon="10.8306472"><ele>795.0</ele><time>2026-05-02T16:28:08.712Z</time></trkpt><trkpt lat="44.0419651" lon="10.8308428"><ele>795.0</ele><time>2026-05-02T16:28:09.715Z</time></trkpt><trkpt lat="44.0420049" lon="10.83101"><ele>795.4</ele><time>2026-05-02T16:28:10.724Z</time></trkpt><trkpt lat="44.0420628" lon="10.8311453"><ele>795.8</ele><time>2026-05-02T16:28:11.721Z</time></trkpt><trkpt lat="44.0421386" lon="10.8312385"><ele>796.2</ele><time>2026-05-02T16:28:12.72Z</time></trkpt><trkpt lat="44.0422358" lon="10.8312825"><ele>796.6</ele><time>2026-05-02T16:28:13.715Z</time></trkpt><trkpt lat="44.0423599" lon="10.8313151"><ele>797.0</ele><time>2026-05-02T16:28:14.723Z</time></trkpt><trkpt lat="44.0425002" lon="10.8313561"><ele>798.0</ele><time>2026-05-02T16:28:15.731Z</time></trkpt><trkpt lat="44.0426369" lon="10.8314307"><ele>799.0</ele><time>2026-05-02T16:28:16.714Z</time></trkpt><trkpt lat="44.0427463" lon="10.8315375"><ele>800.0</ele><time>2026-05-02T16:28:17.717Z</time></trkpt><trkpt lat="44.0428257" lon="10.8316631"><ele>801.0</ele><time>2026-05-02T16:28:18.712Z</time></trkpt><trkpt lat="44.0428786" lon="10.8318248"><ele>801.0</ele><time>2026-05-02T16:28:19.729Z</time></trkpt><trkpt lat="44.0429151" lon="10.832024"><ele>801.0</ele><time>2026-05-02T16:28:20.719Z</time></trkpt><trkpt lat="44.042937" lon="10.832234"><ele>801.0</ele><time>2026-05-02T16:28:21.714Z</time></trkpt><trkpt lat="44.0429671" lon="10.8324384"><ele>802.6666666666667</ele><time>2026-05-02T16:28:22.709Z</time></trkpt><trkpt lat="44.0429978" lon="10.8326472"><ele>804.3333333333334</ele><time>2026-05-02T16:28:23.711Z</time></trkpt><trkpt lat="44.0430276" lon="10.8328585"><ele>806.0</ele><time>2026-05-02T16:28:24.714Z</time></trkpt><trkpt lat="44.0430681" lon="10.8330613"><ele>806.0</ele><time>2026-05-02T16:28:25.717Z</time></trkpt><trkpt lat="44.0430842" lon="10.8332648"><ele>806.0</ele><time>2026-05-02T16:28:26.709Z</time></trkpt><trkpt lat="44.043065" lon="10.8334734"><ele>806.0</ele><time>2026-05-02T16:28:27.709Z</time></trkpt><trkpt lat="44.0430401" lon="10.833676"><ele>806.0</ele><time>2026-05-02T16:28:28.72Z</time></trkpt><trkpt lat="44.0429873" lon="10.8338923"><ele>807.3333333333334</ele><time>2026-05-02T16:28:29.71Z</time></trkpt><trkpt lat="44.042938" lon="10.8340993"><ele>808.6666666666667</ele><time>2026-05-02T16:28:30.725Z</time></trkpt><trkpt lat="44.0429071" lon="10.8343148"><ele>810.0</ele><time>2026-05-02T16:28:31.714Z</time></trkpt><trkpt lat="44.0428836" lon="10.8345329"><ele>813.3333333333333</ele><time>2026-05-02T16:28:32.718Z</time></trkpt><trkpt lat="44.0428729" lon="10.8347236"><ele>816.6666666666666</ele><time>2026-05-02T16:28:33.714Z</time></trkpt><trkpt lat="44.0428891" lon="10.8349428"><ele>820.0</ele><time>2026-05-02T16:28:34.721Z</time></trkpt><trkpt lat="44.0429165" lon="10.8351653"><ele>821.75</ele><time>2026-05-02T16:28:35.714Z</time></trkpt><trkpt lat="44.0429411" lon="10.835385"><ele>823.5</ele><time>2026-05-02T16:28:36.739Z</time></trkpt><trkpt lat="44.0429575" lon="10.8355857"><ele>825.25</ele><time>2026-05-02T16:28:37.714Z</time></trkpt><trkpt lat="44.0429665" lon="10.8357826"><ele>827.0</ele><time>2026-05-02T16:28:38.724Z</time></trkpt><trkpt lat="44.0429694" lon="10.8359673"><ele>826.25</ele><time>2026-05-02T16:28:39.712Z</time></trkpt><trkpt lat="44.0429568" lon="10.8361304"><ele>825.5</ele><time>2026-05-02T16:28:40.72Z</time></trkpt><trkpt lat="44.042914" lon="10.8362857"><ele>824.75</ele><time>2026-05-02T16:28:41.715Z</time></trkpt><trkpt lat="44.0428492" lon="10.8364183"><ele>824.0</ele><time>2026-05-02T16:28:42.713Z</time></trkpt><trkpt lat="44.0427798" lon="10.8365141"><ele>824.0</ele><time>2026-05-02T16:28:43.715Z</time></trkpt><trkpt lat="44.0427147" lon="10.8366017"><ele>824.0</ele><time>2026-05-02T16:28:44.713Z</time></trkpt><trkpt lat="44.0426594" lon="10.8367133"><ele>824.0</ele><time>2026-05-02T16:28:45.717Z</time></trkpt><trkpt lat="44.0426136" lon="10.836856"><ele>824.0</ele><time>2026-05-02T16:28:46.713Z</time></trkpt><trkpt lat="44.0425712" lon="10.8370213"><ele>824.0</ele><time>2026-05-02T16:28:47.713Z</time></trkpt><trkpt lat="44.042544" lon="10.8371876"><ele>822.75</ele><time>2026-05-02T16:28:48.723Z</time></trkpt><trkpt lat="44.0425312" lon="10.8373496"><ele>821.5</ele><time>2026-05-02T16:28:49.72Z</time></trkpt><trkpt lat="44.0425322" lon="10.8375136"><ele>820.25</ele><time>2026-05-02T16:28:50.708Z</time></trkpt><trkpt lat="44.0425356" lon="10.8376707"><ele>819.0</ele><time>2026-05-02T16:28:51.722Z</time></trkpt><trkpt lat="44.0425431" lon="10.8378247"><ele>817.4000000000001</ele><time>2026-05-02T16:28:52.712Z</time></trkpt><trkpt lat="44.042545" lon="10.8379599"><ele>815.8</ele><time>2026-05-02T16:28:53.718Z</time></trkpt><trkpt lat="44.0425476" lon="10.8380923"><ele>814.2</ele><time>2026-05-02T16:28:54.722Z</time></trkpt><trkpt lat="44.0425431" lon="10.8382215"><ele>812.5999999999999</ele><time>2026-05-02T16:28:55.721Z</time></trkpt><trkpt lat="44.0425158" lon="10.8383436"><ele>811.0</ele><time>2026-05-02T16:28:56.725Z</time></trkpt><trkpt lat="44.0424543" lon="10.838451"><ele>807.1999999999999</ele><time>2026-05-02T16:28:57.713Z</time></trkpt><trkpt lat="44.0423861" lon="10.8385631"><ele>803.4</ele><time>2026-05-02T16:28:58.715Z</time></trkpt><trkpt lat="44.0423072" lon="10.8386815"><ele>799.6</ele><time>2026-05-02T16:28:59.716Z</time></trkpt><trkpt lat="44.0422472" lon="10.8387992"><ele>795.8</ele><time>2026-05-02T16:29:00.712Z</time></trkpt><trkpt lat="44.0421948" lon="10.8389181"><ele>792.0</ele><time>2026-05-02T16:29:01.71Z</time></trkpt><trkpt lat="44.0421756" lon="10.8390456"><ele>792.0</ele><time>2026-05-02T16:29:02.72Z</time></trkpt><trkpt lat="44.0421763" lon="10.8391698"><ele>792.0</ele><time>2026-05-02T16:29:03.712Z</time></trkpt><trkpt lat="44.0422562" lon="10.8392678"><ele>792.0</ele><time>2026-05-02T16:29:04.728Z</time></trkpt><trkpt lat="44.0423391" lon="10.839322"><ele>792.0</ele><time>2026-05-02T16:29:05.723Z</time></trkpt><trkpt lat="44.0424357" lon="10.8393463"><ele>792.0</ele><time>2026-05-02T16:29:06.721Z</time></trkpt><trkpt lat="44.0425427" lon="10.8393564"><ele>791.4000000000001</ele><time>2026-05-02T16:29:07.711Z</time></trkpt><trkpt lat="44.0426596" lon="10.8393752"><ele>790.8000000000001</ele><time>2026-05-02T16:29:08.73Z</time></trkpt><trkpt lat="44.0427619" lon="10.8394068"><ele>790.2</ele><time>2026-05-02T16:29:09.718Z</time></trkpt><trkpt lat="44.0428579" lon="10.8394758"><ele>789.6</ele><time>2026-05-02T16:29:10.738Z</time></trkpt><trkpt lat="44.0429374" lon="10.8395311"><ele>789.0</ele><time>2026-05-02T16:29:11.714Z</time></trkpt><trkpt lat="44.0430012" lon="10.8396023"><ele>789.0</ele><time>2026-05-02T16:29:12.722Z</time></trkpt><trkpt lat="44.0430543" lon="10.8396893"><ele>789.0</ele><time>2026-05-02T16:29:13.715Z</time></trkpt><trkpt lat="44.0431054" lon="10.839787"><ele>789.0</ele><time>2026-05-02T16:29:14.716Z</time></trkpt><trkpt lat="44.0431648" lon="10.8398901"><ele>789.0</ele><time>2026-05-02T16:29:15.711Z</time></trkpt><trkpt lat="44.0432207" lon="10.8400399"><ele>789.0</ele><time>2026-05-02T16:29:16.732Z</time></trkpt><trkpt lat="44.0431789" lon="10.8401691"><ele>787.5</ele><time>2026-05-02T16:29:17.718Z</time></trkpt><trkpt lat="44.043094" lon="10.8403732"><ele>786.0</ele><time>2026-05-02T16:29:18.714Z</time></trkpt><trkpt lat="44.0430244" lon="10.8405258"><ele>784.5</ele><time>2026-05-02T16:29:19.71Z</time></trkpt><trkpt lat="44.0429871" lon="10.8406978"><ele>783.0</ele><time>2026-05-02T16:29:20.711Z</time></trkpt><trkpt lat="44.042933" lon="10.8408621"><ele>782.8</ele><time>2026-05-02T16:29:21.716Z</time></trkpt><trkpt lat="44.0428932" lon="10.8410307"><ele>782.5999999999999</ele><time>2026-05-02T16:29:22.723Z</time></trkpt><trkpt lat="44.0428901" lon="10.8411919"><ele>782.4000000000001</ele><time>2026-05-02T16:29:23.716Z</time></trkpt><trkpt lat="44.0428721" lon="10.841331"><ele>782.2</ele><time>2026-05-02T16:29:24.713Z</time></trkpt><trkpt lat="44.0428806" lon="10.8414754"><ele>782.0</ele><time>2026-05-02T16:29:25.717Z</time></trkpt><trkpt lat="44.0429279" lon="10.8416221"><ele>782.0</ele><time>2026-05-02T16:29:26.711Z</time></trkpt><trkpt lat="44.0429729" lon="10.8417821"><ele>782.0</ele><time>2026-05-02T16:29:27.717Z</time></trkpt><trkpt lat="44.0430337" lon="10.841936"><ele>782.0</ele><time>2026-05-02T16:29:28.713Z</time></trkpt><trkpt lat="44.0430976" lon="10.8420786"><ele>782.0</ele><time>2026-05-02T16:29:29.714Z</time></trkpt><trkpt lat="44.04316" lon="10.8422192"><ele>781.25</ele><time>2026-05-02T16:29:30.712Z</time></trkpt><trkpt lat="44.0432367" lon="10.8423513"><ele>780.5</ele><time>2026-05-02T16:29:31.716Z</time></trkpt><trkpt lat="44.0433105" lon="10.8424607"><ele>779.75</ele><time>2026-05-02T16:29:32.717Z</time></trkpt><trkpt lat="44.0434041" lon="10.8425484"><ele>779.0</ele><time>2026-05-02T16:29:33.719Z</time></trkpt><trkpt lat="44.0434978" lon="10.8426306"><ele>778.6</ele><time>2026-05-02T16:29:34.712Z</time></trkpt><trkpt lat="44.0435924" lon="10.8426869"><ele>778.2</ele><time>2026-05-02T16:29:35.716Z</time></trkpt><trkpt lat="44.043689" lon="10.842734"><ele>777.8000000000001</ele><time>2026-05-02T16:29:36.713Z</time></trkpt><trkpt lat="44.0437754" lon="10.8427563"><ele>777.4000000000001</ele><time>2026-05-02T16:29:37.725Z</time></trkpt><trkpt lat="44.0438737" lon="10.8428566"><ele>777.0</ele><time>2026-05-02T16:29:39.716Z</time></trkpt><trkpt lat="44.0438765" lon="10.8430106"><ele>777.0</ele><time>2026-05-02T16:29:41.715Z</time></trkpt><trkpt lat="44.043832" lon="10.8430887"><ele>777.0</ele><time>2026-05-02T16:29:42.725Z</time></trkpt><trkpt lat="44.0437509" lon="10.8431597"><ele>777.0</ele><time>2026-05-02T16:29:43.729Z</time></trkpt><trkpt lat="44.0436522" lon="10.8432036"><ele>777.0</ele><time>2026-05-02T16:29:44.716Z</time></trkpt><trkpt lat="44.0435386" lon="10.8432455"><ele>777.0</ele><time>2026-05-02T16:29:45.715Z</time></trkpt><trkpt lat="44.0434318" lon="10.8432981"><ele>777.0</ele><time>2026-05-02T16:29:46.724Z</time></trkpt><trkpt lat="44.0433269" lon="10.843361"><ele>777.0</ele><time>2026-05-02T16:29:47.714Z</time></trkpt><trkpt lat="44.0432149" lon="10.8434379"><ele>777.0</ele><time>2026-05-02T16:29:48.716Z</time></trkpt><trkpt lat="44.0431003" lon="10.8435259"><ele>777.0</ele><time>2026-05-02T16:29:49.71Z</time></trkpt><trkpt lat="44.0429843" lon="10.843608"><ele>774.25</ele><time>2026-05-02T16:29:50.715Z</time></trkpt><trkpt lat="44.0428668" lon="10.8437129"><ele>771.5</ele><time>2026-05-02T16:29:51.715Z</time></trkpt><trkpt lat="44.0427668" lon="10.8437792"><ele>768.75</ele><time>2026-05-02T16:29:52.711Z</time></trkpt><trkpt lat="44.0426531" lon="10.843872"><ele>766.0</ele><time>2026-05-02T16:29:53.713Z</time></trkpt><trkpt lat="44.0425398" lon="10.8439712"><ele>763.5</ele><time>2026-05-02T16:29:54.714Z</time></trkpt><trkpt lat="44.0424191" lon="10.8440571"><ele>761.0</ele><time>2026-05-02T16:29:55.719Z</time></trkpt><trkpt lat="44.0423004" lon="10.844145"><ele>758.5</ele><time>2026-05-02T16:29:56.729Z</time></trkpt><trkpt lat="44.0422005" lon="10.8442365"><ele>756.0</ele><time>2026-05-02T16:29:57.734Z</time></trkpt><trkpt lat="44.042114" lon="10.8443607"><ele>756.0</ele><time>2026-05-02T16:29:58.715Z</time></trkpt><trkpt lat="44.0420385" lon="10.8445119"><ele>756.0</ele><time>2026-05-02T16:29:59.717Z</time></trkpt><trkpt lat="44.0419631" lon="10.8446596"><ele>756.0</ele><time>2026-05-02T16:30:00.717Z</time></trkpt><trkpt lat="44.0418999" lon="10.8448162"><ele>756.0</ele><time>2026-05-02T16:30:01.715Z</time></trkpt><trkpt lat="44.0418334" lon="10.8449693"><ele>756.0</ele><time>2026-05-02T16:30:02.716Z</time></trkpt><trkpt lat="44.0417669" lon="10.8451126"><ele>756.0</ele><time>2026-05-02T16:30:03.713Z</time></trkpt><trkpt lat="44.0416807" lon="10.8452354"><ele>756.0</ele><time>2026-05-02T16:30:04.729Z</time></trkpt><trkpt lat="44.0415795" lon="10.8453537"><ele>756.0</ele><time>2026-05-02T16:30:05.718Z</time></trkpt><trkpt lat="44.0414788" lon="10.8454635"><ele>752.75</ele><time>2026-05-02T16:30:06.709Z</time></trkpt><trkpt lat="44.0413875" lon="10.8455751"><ele>749.5</ele><time>2026-05-02T16:30:07.712Z</time></trkpt><trkpt lat="44.041306" lon="10.8456877"><ele>746.25</ele><time>2026-05-02T16:30:08.717Z</time></trkpt><trkpt lat="44.0412356" lon="10.8458047"><ele>743.0</ele><time>2026-05-02T16:30:09.709Z</time></trkpt><trkpt lat="44.0411734" lon="10.8459344"><ele>744.2</ele><time>2026-05-02T16:30:10.715Z</time></trkpt><trkpt lat="44.0411162" lon="10.8460712"><ele>745.4</ele><time>2026-05-02T16:30:11.713Z</time></trkpt><trkpt lat="44.0410734" lon="10.8461946"><ele>746.6</ele><time>2026-05-02T16:30:12.723Z</time></trkpt><trkpt lat="44.0410179" lon="10.8462956"><ele>747.8000000000001</ele><time>2026-05-02T16:30:13.713Z</time></trkpt><trkpt lat="44.0409613" lon="10.8463793"><ele>749.0</ele><time>2026-05-02T16:30:14.715Z</time></trkpt><trkpt lat="44.0408978" lon="10.8464113"><ele>749.0</ele><time>2026-05-02T16:30:15.728Z</time></trkpt><trkpt lat="44.0408177" lon="10.8464168"><ele>749.0</ele><time>2026-05-02T16:30:16.716Z</time></trkpt><trkpt lat="44.0407365" lon="10.8464116"><ele>749.0</ele><time>2026-05-02T16:30:17.728Z</time></trkpt><trkpt lat="44.0406579" lon="10.8464229"><ele>749.0</ele><time>2026-05-02T16:30:18.719Z</time></trkpt><trkpt lat="44.0405781" lon="10.8464484"><ele>749.0</ele><time>2026-05-02T16:30:19.71Z</time></trkpt><trkpt lat="44.0405085" lon="10.8465006"><ele>749.0</ele><time>2026-05-02T16:30:20.719Z</time></trkpt><trkpt lat="44.0404608" lon="10.8465588"><ele>747.4000000000001</ele><time>2026-05-02T16:30:21.72Z</time></trkpt><trkpt lat="44.0404257" lon="10.8466708"><ele>745.8</ele><time>2026-05-02T16:30:22.715Z</time></trkpt><trkpt lat="44.0403934" lon="10.8468124"><ele>744.2</ele><time>2026-05-02T16:30:23.715Z</time></trkpt><trkpt lat="44.0403528" lon="10.8469407"><ele>742.5999999999999</ele><time>2026-05-02T16:30:24.719Z</time></trkpt><trkpt lat="44.0402797" lon="10.8470234"><ele>741.0</ele><time>2026-05-02T16:30:25.725Z</time></trkpt><trkpt lat="44.0402006" lon="10.8470613"><ele>741.0</ele><time>2026-05-02T16:30:26.714Z</time></trkpt><trkpt lat="44.0401054" lon="10.8470613"><ele>741.0</ele><time>2026-05-02T16:30:27.716Z</time></trkpt><trkpt lat="44.0399898" lon="10.8470623"><ele>741.0</ele><time>2026-05-02T16:30:28.714Z</time></trkpt><trkpt lat="44.0398807" lon="10.8470647"><ele>741.0</ele><time>2026-05-02T16:30:29.714Z</time></trkpt><trkpt lat="44.0397765" lon="10.8470918"><ele>741.0</ele><time>2026-05-02T16:30:30.717Z</time></trkpt><trkpt lat="44.0396802" lon="10.8471153"><ele>736.6666666666666</ele><time>2026-05-02T16:30:31.714Z</time></trkpt><trkpt lat="44.0395808" lon="10.8471724"><ele>732.3333333333333</ele><time>2026-05-02T16:30:32.712Z</time></trkpt><trkpt lat="44.0394238" lon="10.8473385"><ele>728.0</ele><time>2026-05-02T16:30:33.717Z</time></trkpt><trkpt lat="44.0392898" lon="10.8474551"><ele>728.0</ele><time>2026-05-02T16:30:34.717Z</time></trkpt><trkpt lat="44.0391575" lon="10.8475881"><ele>728.0</ele><time>2026-05-02T16:30:35.719Z</time></trkpt><trkpt lat="44.0390578" lon="10.8477499"><ele>728.0</ele><time>2026-05-02T16:30:36.731Z</time></trkpt><trkpt lat="44.03897" lon="10.8479237"><ele>725.0</ele><time>2026-05-02T16:30:37.713Z</time></trkpt><trkpt lat="44.0388743" lon="10.8480908"><ele>722.0</ele><time>2026-05-02T16:30:38.716Z</time></trkpt><trkpt lat="44.0387834" lon="10.8482634"><ele>719.0</ele><time>2026-05-02T16:30:39.715Z</time></trkpt><trkpt lat="44.0386932" lon="10.8484487"><ele>720.3333333333333</ele><time>2026-05-02T16:30:40.716Z</time></trkpt><trkpt lat="44.0386033" lon="10.8486212"><ele>721.6666666666666</ele><time>2026-05-02T16:30:41.716Z</time></trkpt><trkpt lat="44.0385147" lon="10.848798"><ele>723.0</ele><time>2026-05-02T16:30:42.714Z</time></trkpt><trkpt lat="44.0384186" lon="10.848976"><ele>723.0</ele><time>2026-05-02T16:30:43.717Z</time></trkpt><trkpt lat="44.0383223" lon="10.8491529"><ele>723.0</ele><time>2026-05-02T16:30:44.711Z</time></trkpt><trkpt lat="44.0382338" lon="10.8493254"><ele>723.0</ele><time>2026-05-02T16:30:45.713Z</time></trkpt><trkpt lat="44.0381427" lon="10.8495037"><ele>720.5</ele><time>2026-05-02T16:30:46.712Z</time></trkpt><trkpt lat="44.038059" lon="10.8496558"><ele>718.0</ele><time>2026-05-02T16:30:47.714Z</time></trkpt><trkpt lat="44.0379841" lon="10.8498326"><ele>715.5</ele><time>2026-05-02T16:30:48.721Z</time></trkpt><trkpt lat="44.0379227" lon="10.8500098"><ele>713.0</ele><time>2026-05-02T16:30:49.715Z</time></trkpt><trkpt lat="44.0378645" lon="10.8501932"><ele>713.0</ele><time>2026-05-02T16:30:50.719Z</time></trkpt><trkpt lat="44.0378105" lon="10.8503566"><ele>713.0</ele><time>2026-05-02T16:30:51.717Z</time></trkpt><trkpt lat="44.0377599" lon="10.8505241"><ele>713.0</ele><time>2026-05-02T16:30:52.716Z</time></trkpt><trkpt lat="44.0377177" lon="10.8506999"><ele>713.0</ele><time>2026-05-02T16:30:53.715Z</time></trkpt><trkpt lat="44.0376621" lon="10.8508656"><ele>712.75</ele><time>2026-05-02T16:30:54.714Z</time></trkpt><trkpt lat="44.0376233" lon="10.8510311"><ele>712.5</ele><time>2026-05-02T16:30:55.715Z</time></trkpt><trkpt lat="44.0375946" lon="10.8511905"><ele>712.25</ele><time>2026-05-02T16:30:56.727Z</time></trkpt><trkpt lat="44.037582" lon="10.8513494"><ele>712.0</ele><time>2026-05-02T16:30:57.712Z</time></trkpt><trkpt lat="44.0375887" lon="10.8515166"><ele>712.0</ele><time>2026-05-02T16:30:58.715Z</time></trkpt><trkpt lat="44.0376191" lon="10.8516991"><ele>712.0</ele><time>2026-05-02T16:30:59.712Z</time></trkpt><trkpt lat="44.0376603" lon="10.8518943"><ele>712.0</ele><time>2026-05-02T16:31:00.715Z</time></trkpt><trkpt lat="44.0377031" lon="10.8520985"><ele>712.0</ele><time>2026-05-02T16:31:01.717Z</time></trkpt><trkpt lat="44.0377398" lon="10.8522958"><ele>712.0</ele><time>2026-05-02T16:31:02.715Z</time></trkpt><trkpt lat="44.0377721" lon="10.8524957"><ele>712.0</ele><time>2026-05-02T16:31:03.723Z</time></trkpt><trkpt lat="44.0377943" lon="10.8526774"><ele>712.0</ele><time>2026-05-02T16:31:04.715Z</time></trkpt><trkpt lat="44.0378011" lon="10.852827"><ele>712.0</ele><time>2026-05-02T16:31:05.733Z</time></trkpt><trkpt lat="44.0377977" lon="10.8529644"><ele>711.2</ele><time>2026-05-02T16:31:06.715Z</time></trkpt><trkpt lat="44.0377838" lon="10.8530919"><ele>710.4000000000001</ele><time>2026-05-02T16:31:07.716Z</time></trkpt><trkpt lat="44.0377609" lon="10.8532122"><ele>709.5999999999999</ele><time>2026-05-02T16:31:08.713Z</time></trkpt><trkpt lat="44.0376481" lon="10.8532822"><ele>708.8</ele><time>2026-05-02T16:31:09.711Z</time></trkpt><trkpt lat="44.037554" lon="10.8533556"><ele>708.0</ele><time>2026-05-02T16:31:10.712Z</time></trkpt><trkpt lat="44.0374768" lon="10.8534351"><ele>710.0</ele><time>2026-05-02T16:31:11.72Z</time></trkpt><trkpt lat="44.0374168" lon="10.8535526"><ele>712.0</ele><time>2026-05-02T16:31:12.714Z</time></trkpt><trkpt lat="44.0373915" lon="10.8536776"><ele>714.0</ele><time>2026-05-02T16:31:13.724Z</time></trkpt><trkpt lat="44.0373707" lon="10.8538287"><ele>716.0</ele><time>2026-05-02T16:31:14.716Z</time></trkpt><trkpt lat="44.0373814" lon="10.8539768"><ele>718.0</ele><time>2026-05-02T16:31:15.72Z</time></trkpt><trkpt lat="44.0374204" lon="10.8541264"><ele>716.75</ele><time>2026-05-02T16:31:16.717Z</time></trkpt><trkpt lat="44.0374797" lon="10.8542817"><ele>715.5</ele><time>2026-05-02T16:31:17.716Z</time></trkpt><trkpt lat="44.037547" lon="10.8544273"><ele>714.25</ele><time>2026-05-02T16:31:18.715Z</time></trkpt><trkpt lat="44.0376066" lon="10.854571"><ele>713.0</ele><time>2026-05-02T16:31:19.713Z</time></trkpt><trkpt lat="44.0376652" lon="10.8547092"><ele>713.0</ele><time>2026-05-02T16:31:20.715Z</time></trkpt><trkpt lat="44.0377123" lon="10.8548409"><ele>713.0</ele><time>2026-05-02T16:31:21.735Z</time></trkpt><trkpt lat="44.0377391" lon="10.8549835"><ele>713.0</ele><time>2026-05-02T16:31:22.717Z</time></trkpt><trkpt lat="44.0377466" lon="10.8551488"><ele>713.0</ele><time>2026-05-02T16:31:23.713Z</time></trkpt><trkpt lat="44.0377685" lon="10.8553274"><ele>713.5</ele><time>2026-05-02T16:31:24.72Z</time></trkpt><trkpt lat="44.0377833" lon="10.8555257"><ele>714.0</ele><time>2026-05-02T16:31:25.716Z</time></trkpt><trkpt lat="44.0377972" lon="10.8557304"><ele>714.5</ele><time>2026-05-02T16:31:26.722Z</time></trkpt><trkpt lat="44.037805" lon="10.8559342"><ele>715.0</ele><time>2026-05-02T16:31:27.711Z</time></trkpt><trkpt lat="44.0378198" lon="10.8561255"><ele>715.0</ele><time>2026-05-02T16:31:28.713Z</time></trkpt><trkpt lat="44.0378287" lon="10.8563116"><ele>715.0</ele><time>2026-05-02T16:31:29.723Z</time></trkpt><trkpt lat="44.0378352" lon="10.8564856"><ele>715.0</ele><time>2026-05-02T16:31:30.714Z</time></trkpt><trkpt lat="44.0378538" lon="10.8566436"><ele>715.0</ele><time>2026-05-02T16:31:31.728Z</time></trkpt><trkpt lat="44.0378809" lon="10.8567966"><ele>715.4</ele><time>2026-05-02T16:31:32.715Z</time></trkpt><trkpt lat="44.0379259" lon="10.8569276"><ele>715.8</ele><time>2026-05-02T16:31:33.717Z</time></trkpt><trkpt lat="44.0379961" lon="10.8570303"><ele>716.2</ele><time>2026-05-02T16:31:34.721Z</time></trkpt><trkpt lat="44.0380716" lon="10.8571084"><ele>716.6</ele><time>2026-05-02T16:31:35.715Z</time></trkpt><trkpt lat="44.0381486" lon="10.8571702"><ele>717.0</ele><time>2026-05-02T16:31:36.713Z</time></trkpt><trkpt lat="44.0382299" lon="10.8572373"><ele>717.0</ele><time>2026-05-02T16:31:37.715Z</time></trkpt><trkpt lat="44.0382986" lon="10.8573185"><ele>717.0</ele><time>2026-05-02T16:31:38.712Z</time></trkpt><trkpt lat="44.0383592" lon="10.8574185"><ele>717.0</ele><time>2026-05-02T16:31:39.716Z</time></trkpt><trkpt lat="44.0384064" lon="10.857536"><ele>717.0</ele><time>2026-05-02T16:31:40.716Z</time></trkpt><trkpt lat="44.0384393" lon="10.8576779"><ele>717.0</ele><time>2026-05-02T16:31:41.729Z</time></trkpt><trkpt lat="44.0384747" lon="10.8578441"><ele>715.0</ele><time>2026-05-02T16:31:42.721Z</time></trkpt><trkpt lat="44.038512" lon="10.858015"><ele>713.0</ele><time>2026-05-02T16:31:43.713Z</time></trkpt><trkpt lat="44.0385483" lon="10.8581967"><ele>711.0</ele><time>2026-05-02T16:31:44.71Z</time></trkpt><trkpt lat="44.0385868" lon="10.8583834"><ele>709.0</ele><time>2026-05-02T16:31:45.712Z</time></trkpt><trkpt lat="44.03862" lon="10.8585782"><ele>709.0</ele><time>2026-05-02T16:31:46.716Z</time></trkpt><trkpt lat="44.0386596" lon="10.8587542"><ele>709.0</ele><time>2026-05-02T16:31:47.715Z</time></trkpt><trkpt lat="44.0386984" lon="10.8589355"><ele>709.0</ele><time>2026-05-02T16:31:48.719Z</time></trkpt><trkpt lat="44.0387299" lon="10.8591225"><ele>709.0</ele><time>2026-05-02T16:31:49.713Z</time></trkpt><trkpt lat="44.0387524" lon="10.8593031"><ele>706.75</ele><time>2026-05-02T16:31:50.712Z</time></trkpt><trkpt lat="44.0387698" lon="10.8594871"><ele>704.5</ele><time>2026-05-02T16:31:51.713Z</time></trkpt><trkpt lat="44.0387729" lon="10.8596694"><ele>702.25</ele><time>2026-05-02T16:31:52.715Z</time></trkpt><trkpt lat="44.0387751" lon="10.8598494"><ele>700.0</ele><time>2026-05-02T16:31:53.72Z</time></trkpt><trkpt lat="44.0387826" lon="10.8600325"><ele>698.25</ele><time>2026-05-02T16:31:54.709Z</time></trkpt><trkpt lat="44.0387974" lon="10.8602123"><ele>696.5</ele><time>2026-05-02T16:31:55.71Z</time></trkpt><trkpt lat="44.0388363" lon="10.8603801"><ele>694.75</ele><time>2026-05-02T16:31:56.718Z</time></trkpt><trkpt lat="44.0388783" lon="10.8605351"><ele>693.0</ele><time>2026-05-02T16:31:57.714Z</time></trkpt><trkpt lat="44.0389094" lon="10.8606797"><ele>693.0</ele><time>2026-05-02T16:31:58.734Z</time></trkpt><trkpt lat="44.0389305" lon="10.8608159"><ele>693.0</ele><time>2026-05-02T16:31:59.713Z</time></trkpt><trkpt lat="44.0389193" lon="10.8609464"><ele>693.0</ele><time>2026-05-02T16:32:00.713Z</time></trkpt><trkpt lat="44.0388846" lon="10.8610706"><ele>693.0</ele><time>2026-05-02T16:32:01.728Z</time></trkpt><trkpt lat="44.0388472" lon="10.8611929"><ele>693.0</ele><time>2026-05-02T16:32:02.714Z</time></trkpt><trkpt lat="44.0388014" lon="10.8613265"><ele>693.0</ele><time>2026-05-02T16:32:03.716Z</time></trkpt><trkpt lat="44.0387496" lon="10.8614623"><ele>693.0</ele><time>2026-05-02T16:32:04.708Z</time></trkpt><trkpt lat="44.0387053" lon="10.8616073"><ele>693.0</ele><time>2026-05-02T16:32:05.715Z</time></trkpt><trkpt lat="44.0386786" lon="10.8617639"><ele>693.0</ele><time>2026-05-02T16:32:06.718Z</time></trkpt><trkpt lat="44.0386683" lon="10.8619282"><ele>693.25</ele><time>2026-05-02T16:32:07.719Z</time></trkpt><trkpt lat="44.0386759" lon="10.8620915"><ele>693.5</ele><time>2026-05-02T16:32:08.713Z</time></trkpt><trkpt lat="44.0386909" lon="10.8622687"><ele>693.75</ele><time>2026-05-02T16:32:09.711Z</time></trkpt><trkpt lat="44.0387115" lon="10.8624454"><ele>694.0</ele><time>2026-05-02T16:32:10.714Z</time></trkpt><trkpt lat="44.0387485" lon="10.8626116"><ele>694.5</ele><time>2026-05-02T16:32:11.712Z</time></trkpt><trkpt lat="44.038761" lon="10.8627692"><ele>695.0</ele><time>2026-05-02T16:32:12.71Z</time></trkpt><trkpt lat="44.0387865" lon="10.8629195"><ele>695.5</ele><time>2026-05-02T16:32:13.712Z</time></trkpt><trkpt lat="44.0387827" lon="10.8630792"><ele>696.0</ele><time>2026-05-02T16:32:14.73Z</time></trkpt><trkpt lat="44.0387679" lon="10.8632381"><ele>696.0</ele><time>2026-05-02T16:32:15.718Z</time></trkpt><trkpt lat="44.03877" lon="10.8633764"><ele>696.0</ele><time>2026-05-02T16:32:16.717Z</time></trkpt><trkpt lat="44.0387467" lon="10.8635283"><ele>696.0</ele><time>2026-05-02T16:32:17.716Z</time></trkpt><trkpt lat="44.0387312" lon="10.863679"><ele>696.0</ele><time>2026-05-02T16:32:18.714Z</time></trkpt><trkpt lat="44.03871" lon="10.8638246"><ele>696.0</ele><time>2026-05-02T16:32:19.714Z</time></trkpt><trkpt lat="44.0386799" lon="10.8639854"><ele>696.5</ele><time>2026-05-02T16:32:20.715Z</time></trkpt><trkpt lat="44.0386596" lon="10.864153"><ele>697.0</ele><time>2026-05-02T16:32:21.712Z</time></trkpt><trkpt lat="44.038636" lon="10.8643261"><ele>697.5</ele><time>2026-05-02T16:32:22.715Z</time></trkpt><trkpt lat="44.0386143" lon="10.864517"><ele>698.0</ele><time>2026-05-02T16:32:23.717Z</time></trkpt><trkpt lat="44.0385981" lon="10.864714"><ele>698.0</ele><time>2026-05-02T16:32:24.713Z</time></trkpt><trkpt lat="44.0385838" lon="10.8649243"><ele>698.0</ele><time>2026-05-02T16:32:25.724Z</time></trkpt><trkpt lat="44.038562" lon="10.8651666"><ele>698.0</ele><time>2026-05-02T16:32:26.719Z</time></trkpt><trkpt lat="44.0385353" lon="10.8654089"><ele>698.0</ele><time>2026-05-02T16:32:27.713Z</time></trkpt><trkpt lat="44.0385027" lon="10.8656401"><ele>698.0</ele><time>2026-05-02T16:32:28.718Z</time></trkpt><trkpt lat="44.0384731" lon="10.8658643"><ele>698.0</ele><time>2026-05-02T16:32:29.713Z</time></trkpt><trkpt lat="44.0384436" lon="10.8660734"><ele>698.25</ele><time>2026-05-02T16:32:30.714Z</time></trkpt><trkpt lat="44.0384212" lon="10.8662621"><ele>698.5</ele><time>2026-05-02T16:32:31.715Z</time></trkpt><trkpt lat="44.0384007" lon="10.8664466"><ele>698.75</ele><time>2026-05-02T16:32:32.714Z</time></trkpt><trkpt lat="44.0383765" lon="10.8666251"><ele>699.0</ele><time>2026-05-02T16:32:33.714Z</time></trkpt><trkpt lat="44.0383577" lon="10.8667933"><ele>699.0</ele><time>2026-05-02T16:32:34.71Z</time></trkpt><trkpt lat="44.0383318" lon="10.8669579"><ele>699.0</ele><time>2026-05-02T16:32:35.732Z</time></trkpt><trkpt lat="44.0383096" lon="10.8671199"><ele>699.0</ele><time>2026-05-02T16:32:36.714Z</time></trkpt><trkpt lat="44.0382936" lon="10.8672807"><ele>699.0</ele><time>2026-05-02T16:32:37.719Z</time></trkpt><trkpt lat="44.0382747" lon="10.8674374"><ele>699.0</ele><time>2026-05-02T16:32:38.715Z</time></trkpt><trkpt lat="44.038262" lon="10.8675932"><ele>699.0</ele><time>2026-05-02T16:32:39.713Z</time></trkpt><trkpt lat="44.0382467" lon="10.8677375"><ele>699.0</ele><time>2026-05-02T16:32:40.713Z</time></trkpt><trkpt lat="44.0382284" lon="10.8678865"><ele>699.0</ele><time>2026-05-02T16:32:41.724Z</time></trkpt><trkpt lat="44.0382056" lon="10.8680366"><ele>699.0</ele><time>2026-05-02T16:32:42.719Z</time></trkpt><trkpt lat="44.0381801" lon="10.8681945"><ele>696.75</ele><time>2026-05-02T16:32:43.716Z</time></trkpt><trkpt lat="44.038164" lon="10.8683511"><ele>694.5</ele><time>2026-05-02T16:32:44.712Z</time></trkpt><trkpt lat="44.0381618" lon="10.86852"><ele>692.25</ele><time>2026-05-02T16:32:45.728Z</time></trkpt><trkpt lat="44.0381453" lon="10.8686751"><ele>690.0</ele><time>2026-05-02T16:32:46.712Z</time></trkpt><trkpt lat="44.0381311" lon="10.8688388"><ele>689.0</ele><time>2026-05-02T16:32:47.713Z</time></trkpt><trkpt lat="44.0381176" lon="10.8690018"><ele>688.0</ele><time>2026-05-02T16:32:48.731Z</time></trkpt><trkpt lat="44.0381132" lon="10.8691703"><ele>687.0</ele><time>2026-05-02T16:32:49.717Z</time></trkpt><trkpt lat="44.0381288" lon="10.8693374"><ele>686.0</ele><time>2026-05-02T16:32:50.713Z</time></trkpt><trkpt lat="44.0381509" lon="10.869495"><ele>685.25</ele><time>2026-05-02T16:32:51.714Z</time></trkpt><trkpt lat="44.0381553" lon="10.8696559"><ele>684.5</ele><time>2026-05-02T16:32:52.715Z</time></trkpt><trkpt lat="44.0381633" lon="10.8698237"><ele>683.75</ele><time>2026-05-02T16:32:53.72Z</time></trkpt><trkpt lat="44.0381643" lon="10.8699869"><ele>683.0</ele><time>2026-05-02T16:32:54.721Z</time></trkpt><trkpt lat="44.0381472" lon="10.8701646"><ele>682.0</ele><time>2026-05-02T16:32:55.713Z</time></trkpt><trkpt lat="44.0381281" lon="10.8703501"><ele>681.0</ele><time>2026-05-02T16:32:56.716Z</time></trkpt><trkpt lat="44.0381053" lon="10.8705385"><ele>680.0</ele><time>2026-05-02T16:32:57.713Z</time></trkpt><trkpt lat="44.0380952" lon="10.870738"><ele>679.0</ele><time>2026-05-02T16:32:58.713Z</time></trkpt><trkpt lat="44.0380751" lon="10.870932"><ele>678.75</ele><time>2026-05-02T16:32:59.737Z</time></trkpt><trkpt lat="44.0380566" lon="10.8711205"><ele>678.5</ele><time>2026-05-02T16:33:00.714Z</time></trkpt><trkpt lat="44.0380387" lon="10.8713067"><ele>678.25</ele><time>2026-05-02T16:33:01.713Z</time></trkpt><trkpt lat="44.0380206" lon="10.8714855"><ele>678.0</ele><time>2026-05-02T16:33:02.717Z</time></trkpt><trkpt lat="44.0380035" lon="10.8716635"><ele>678.0</ele><time>2026-05-02T16:33:03.716Z</time></trkpt><trkpt lat="44.0379842" lon="10.871837"><ele>678.0</ele><time>2026-05-02T16:33:04.735Z</time></trkpt><trkpt lat="44.0379695" lon="10.8720156"><ele>678.0</ele><time>2026-05-02T16:33:05.712Z</time></trkpt><trkpt lat="44.0379521" lon="10.8721863"><ele>678.0</ele><time>2026-05-02T16:33:06.714Z</time></trkpt><trkpt lat="44.0379335" lon="10.8723633"><ele>678.0</ele><time>2026-05-02T16:33:07.712Z</time></trkpt><trkpt lat="44.0379206" lon="10.872538"><ele>678.0</ele><time>2026-05-02T16:33:08.716Z</time></trkpt><trkpt lat="44.0379092" lon="10.8727148"><ele>678.0</ele><time>2026-05-02T16:33:09.718Z</time></trkpt><trkpt lat="44.0378977" lon="10.8728996"><ele>678.0</ele><time>2026-05-02T16:33:10.716Z</time></trkpt><trkpt lat="44.0378976" lon="10.8730965"><ele>677.5</ele><time>2026-05-02T16:33:11.712Z</time></trkpt><trkpt lat="44.0378983" lon="10.8733054"><ele>677.0</ele><time>2026-05-02T16:33:12.712Z</time></trkpt><trkpt lat="44.0379112" lon="10.8735128"><ele>676.5</ele><time>2026-05-02T16:33:13.715Z</time></trkpt><trkpt lat="44.0379196" lon="10.8737082"><ele>676.0</ele><time>2026-05-02T16:33:14.715Z</time></trkpt><trkpt lat="44.0379274" lon="10.8738997"><ele>675.8</ele><time>2026-05-02T16:33:15.735Z</time></trkpt><trkpt lat="44.0379415" lon="10.8740857"><ele>675.5999999999999</ele><time>2026-05-02T16:33:16.716Z</time></trkpt><trkpt lat="44.0379567" lon="10.874248"><ele>675.4</ele><time>2026-05-02T16:33:17.714Z</time></trkpt><trkpt lat="44.0379906" lon="10.874383"><ele>675.2</ele><time>2026-05-02T16:33:18.743Z</time></trkpt><trkpt lat="44.0380332" lon="10.8744982"><ele>675.0</ele><time>2026-05-02T16:33:19.714Z</time></trkpt><trkpt lat="44.0380826" lon="10.8746051"><ele>674.8</ele><time>2026-05-02T16:33:20.728Z</time></trkpt><trkpt lat="44.0381334" lon="10.8746955"><ele>674.6</ele><time>2026-05-02T16:33:21.711Z</time></trkpt><trkpt lat="44.0382268" lon="10.8747342"><ele>674.4000000000001</ele><time>2026-05-02T16:33:22.714Z</time></trkpt><trkpt lat="44.0383089" lon="10.8747911"><ele>674.2</ele><time>2026-05-02T16:33:23.711Z</time></trkpt><trkpt lat="44.0383944" lon="10.8748809"><ele>674.0</ele><time>2026-05-02T16:33:24.715Z</time></trkpt><trkpt lat="44.0384701" lon="10.8749846"><ele>673.4000000000001</ele><time>2026-05-02T16:33:25.71Z</time></trkpt><trkpt lat="44.0385304" lon="10.8751084"><ele>672.8</ele><time>2026-05-02T16:33:26.714Z</time></trkpt><trkpt lat="44.0385704" lon="10.8752381"><ele>672.2</ele><time>2026-05-02T16:33:27.72Z</time></trkpt><trkpt lat="44.038572" lon="10.8753924"><ele>671.5999999999999</ele><time>2026-05-02T16:33:28.715Z</time></trkpt><trkpt lat="44.0385592" lon="10.8755381"><ele>671.0</ele><time>2026-05-02T16:33:29.717Z</time></trkpt><trkpt lat="44.0385123" lon="10.875678"><ele>671.0</ele><time>2026-05-02T16:33:30.712Z</time></trkpt><trkpt lat="44.0384469" lon="10.8758105"><ele>671.0</ele><time>2026-05-02T16:33:31.711Z</time></trkpt><trkpt lat="44.0383654" lon="10.8759215"><ele>671.0</ele><time>2026-05-02T16:33:32.719Z</time></trkpt><trkpt lat="44.0382776" lon="10.8760161"><ele>671.0</ele><time>2026-05-02T16:33:33.719Z</time></trkpt><trkpt lat="44.0382012" lon="10.876096"><ele>671.0</ele><time>2026-05-02T16:33:34.711Z</time></trkpt><trkpt lat="44.0381206" lon="10.8761703"><ele>676.1999999999999</ele><time>2026-05-02T16:33:35.712Z</time></trkpt><trkpt lat="44.0380548" lon="10.87627"><ele>681.4</ele><time>2026-05-02T16:33:36.714Z</time></trkpt><trkpt lat="44.0380019" lon="10.8763837"><ele>686.6</ele><time>2026-05-02T16:33:37.719Z</time></trkpt><trkpt lat="44.0379607" lon="10.8765149"><ele>691.8</ele><time>2026-05-02T16:33:38.715Z</time></trkpt><trkpt lat="44.037908" lon="10.8766625"><ele>697.0</ele><time>2026-05-02T16:33:39.719Z</time></trkpt><trkpt lat="44.0379037" lon="10.8768715"><ele>697.0</ele><time>2026-05-02T16:33:40.72Z</time></trkpt><trkpt lat="44.0378783" lon="10.8771659"><ele>697.0</ele><time>2026-05-02T16:33:41.716Z</time></trkpt><trkpt lat="44.0378582" lon="10.8774609"><ele>697.0</ele><time>2026-05-02T16:33:42.732Z</time></trkpt><trkpt lat="44.0378531" lon="10.8777493"><ele>696.6666666666667</ele><time>2026-05-02T16:33:43.713Z</time></trkpt><trkpt lat="44.0378299" lon="10.8780276"><ele>696.3333333333334</ele><time>2026-05-02T16:33:44.717Z</time></trkpt><trkpt lat="44.0378138" lon="10.8782949"><ele>696.0</ele><time>2026-05-02T16:33:45.725Z</time></trkpt><trkpt lat="44.0377943" lon="10.8785687"><ele>695.0</ele><time>2026-05-02T16:33:46.717Z</time></trkpt><trkpt lat="44.0377864" lon="10.8788235"><ele>694.0</ele><time>2026-05-02T16:33:47.714Z</time></trkpt><trkpt lat="44.0377784" lon="10.8790726"><ele>693.0</ele><time>2026-05-02T16:33:48.714Z</time></trkpt><trkpt lat="44.0377809" lon="10.8793072"><ele>689.75</ele><time>2026-05-02T16:33:49.714Z</time></trkpt><trkpt lat="44.0377896" lon="10.8795213"><ele>686.5</ele><time>2026-05-02T16:33:50.714Z</time></trkpt><trkpt lat="44.0378035" lon="10.8797134"><ele>683.25</ele><time>2026-05-02T16:33:51.731Z</time></trkpt><trkpt lat="44.0378203" lon="10.8798759"><ele>680.0</ele><time>2026-05-02T16:33:52.717Z</time></trkpt><trkpt lat="44.0378394" lon="10.8800098"><ele>679.8333333333333</ele><time>2026-05-02T16:33:53.718Z</time></trkpt><trkpt lat="44.0378405" lon="10.8801191"><ele>679.6666666666666</ele><time>2026-05-02T16:33:54.715Z</time></trkpt><trkpt lat="44.0378284" lon="10.8802194"><ele>679.5</ele><time>2026-05-02T16:33:55.714Z</time></trkpt><trkpt lat="44.0378342" lon="10.8803658"><ele>679.3333333333334</ele><time>2026-05-02T16:33:57.712Z</time></trkpt><trkpt lat="44.0378542" lon="10.8804644"><ele>679.1666666666667</ele><time>2026-05-02T16:33:59.71Z</time></trkpt><trkpt lat="44.037854" lon="10.8805527"><ele>679.0</ele><time>2026-05-02T16:34:03.711Z</time></trkpt><trkpt lat="44.0378868" lon="10.8806764"><ele>679.0</ele><time>2026-05-02T16:37:00.713Z</time></trkpt><trkpt lat="44.0379313" lon="10.8808145"><ele>679.0</ele><time>2026-05-02T16:37:02.72Z</time></trkpt><trkpt lat="44.0379485" lon="10.8809081"><ele>679.0</ele><time>2026-05-02T16:37:03.723Z</time></trkpt><trkpt lat="44.0379603" lon="10.8810193"><ele>679.0</ele><time>2026-05-02T16:37:04.716Z</time></trkpt><trkpt lat="44.0379731" lon="10.8811362"><ele>679.0</ele><time>2026-05-02T16:37:05.716Z</time></trkpt><trkpt lat="44.037988" lon="10.8812797"><ele>679.0</ele><time>2026-05-02T16:37:06.713Z</time></trkpt><trkpt lat="44.0379966" lon="10.881429"><ele>678.6</ele><time>2026-05-02T16:37:07.714Z</time></trkpt><trkpt lat="44.0380084" lon="10.8815846"><ele>678.2</ele><time>2026-05-02T16:37:08.719Z</time></trkpt><trkpt lat="44.0380213" lon="10.8817377"><ele>677.8000000000001</ele><time>2026-05-02T16:37:09.719Z</time></trkpt><trkpt lat="44.0380358" lon="10.8818812"><ele>677.4000000000001</ele><time>2026-05-02T16:37:10.714Z</time></trkpt><trkpt lat="44.038049" lon="10.8820123"><ele>677.0</ele><time>2026-05-02T16:37:11.716Z</time></trkpt><trkpt lat="44.0380626" lon="10.8821336"><ele>675.1666666666666</ele><time>2026-05-02T16:37:12.716Z</time></trkpt><trkpt lat="44.0380685" lon="10.8822421"><ele>673.3333333333333</ele><time>2026-05-02T16:37:13.715Z</time></trkpt><trkpt lat="44.038077" lon="10.8823404"><ele>671.5</ele><time>2026-05-02T16:37:14.717Z</time></trkpt><trkpt lat="44.0380917" lon="10.8824307"><ele>669.6666666666666</ele><time>2026-05-02T16:37:15.714Z</time></trkpt><trkpt lat="44.0380795" lon="10.8825802"><ele>667.8333333333334</ele><time>2026-05-02T16:37:17.721Z</time></trkpt><trkpt lat="44.0380066" lon="10.8826799"><ele>666.0</ele><time>2026-05-02T16:37:19.714Z</time></trkpt><trkpt lat="44.0378912" lon="10.8826625"><ele>666.0</ele><time>2026-05-02T16:37:21.722Z</time></trkpt><trkpt lat="44.0378211" lon="10.8826187"><ele>666.0</ele><time>2026-05-02T16:37:22.715Z</time></trkpt><trkpt lat="44.0377443" lon="10.882557"><ele>666.0</ele><time>2026-05-02T16:37:23.712Z</time></trkpt><trkpt lat="44.0376698" lon="10.8824992"><ele>666.0</ele><time>2026-05-02T16:37:24.712Z</time></trkpt><trkpt lat="44.0376057" lon="10.8824251"><ele>666.0</ele><time>2026-05-02T16:37:25.724Z</time></trkpt><trkpt lat="44.0375315" lon="10.8823363"><ele>666.0</ele><time>2026-05-02T16:37:26.712Z</time></trkpt><trkpt lat="44.0374585" lon="10.8822432"><ele>666.5</ele><time>2026-05-02T16:37:27.718Z</time></trkpt><trkpt lat="44.0373772" lon="10.8821342"><ele>667.0</ele><time>2026-05-02T16:37:28.715Z</time></trkpt><trkpt lat="44.0372988" lon="10.8820078"><ele>667.5</ele><time>2026-05-02T16:37:29.713Z</time></trkpt><trkpt lat="44.0372108" lon="10.8818653"><ele>668.0</ele><time>2026-05-02T16:37:30.713Z</time></trkpt><trkpt lat="44.0371192" lon="10.8816957"><ele>668.0</ele><time>2026-05-02T16:37:31.715Z</time></trkpt><trkpt lat="44.0370292" lon="10.8814964"><ele>668.0</ele><time>2026-05-02T16:37:32.716Z</time></trkpt><trkpt lat="44.0369482" lon="10.8812744"><ele>668.0</ele><time>2026-05-02T16:37:33.719Z</time></trkpt><trkpt lat="44.0368715" lon="10.8810414"><ele>668.6666666666666</ele><time>2026-05-02T16:37:34.715Z</time></trkpt><trkpt lat="44.0368037" lon="10.8808053"><ele>669.3333333333334</ele><time>2026-05-02T16:37:35.711Z</time></trkpt><trkpt lat="44.0367523" lon="10.8805529"><ele>670.0</ele><time>2026-05-02T16:37:36.729Z</time></trkpt><trkpt lat="44.0367417" lon="10.8802949"><ele>670.3333333333334</ele><time>2026-05-02T16:37:37.717Z</time></trkpt><trkpt lat="44.0367106" lon="10.8800683"><ele>670.6666666666666</ele><time>2026-05-02T16:37:38.713Z</time></trkpt><trkpt lat="44.0366764" lon="10.8798434"><ele>671.0</ele><time>2026-05-02T16:37:39.715Z</time></trkpt><trkpt lat="44.0365416" lon="10.8796426"><ele>671.0</ele><time>2026-05-02T16:37:40.714Z</time></trkpt><trkpt lat="44.0364066" lon="10.8794216"><ele>671.0</ele><time>2026-05-02T16:37:41.714Z</time></trkpt><trkpt lat="44.0362659" lon="10.8791974"><ele>671.0</ele><time>2026-05-02T16:37:42.721Z</time></trkpt><trkpt lat="44.0361188" lon="10.87898"><ele>670.6666666666666</ele><time>2026-05-02T16:37:43.716Z</time></trkpt><trkpt lat="44.035976" lon="10.8787715"><ele>670.3333333333334</ele><time>2026-05-02T16:37:44.717Z</time></trkpt><trkpt lat="44.0358367" lon="10.8785779"><ele>670.0</ele><time>2026-05-02T16:37:45.713Z</time></trkpt><trkpt lat="44.0356814" lon="10.878401"><ele>669.3333333333334</ele><time>2026-05-02T16:37:46.741Z</time></trkpt><trkpt lat="44.0355128" lon="10.8782372"><ele>668.6666666666666</ele><time>2026-05-02T16:37:47.714Z</time></trkpt><trkpt lat="44.0353429" lon="10.8780871"><ele>668.0</ele><time>2026-05-02T16:37:48.716Z</time></trkpt><trkpt lat="44.0351559" lon="10.8779351"><ele>668.0</ele><time>2026-05-02T16:37:49.717Z</time></trkpt><trkpt lat="44.0349725" lon="10.8777853"><ele>668.0</ele><time>2026-05-02T16:37:50.734Z</time></trkpt><trkpt lat="44.0347856" lon="10.8776374"><ele>668.0</ele><time>2026-05-02T16:37:51.712Z</time></trkpt><trkpt lat="44.0346047" lon="10.8774898"><ele>668.3333333333333</ele><time>2026-05-02T16:37:52.711Z</time></trkpt><trkpt lat="44.0344319" lon="10.8773463"><ele>668.6666666666666</ele><time>2026-05-02T16:37:53.726Z</time></trkpt><trkpt lat="44.0342728" lon="10.8771972"><ele>669.0</ele><time>2026-05-02T16:37:54.718Z</time></trkpt><trkpt lat="44.0341207" lon="10.8770366"><ele>670.3333333333334</ele><time>2026-05-02T16:37:55.715Z</time></trkpt><trkpt lat="44.0339957" lon="10.8768371"><ele>671.6666666666667</ele><time>2026-05-02T16:37:56.732Z</time></trkpt><trkpt lat="44.0338727" lon="10.8766261"><ele>673.0</ele><time>2026-05-02T16:37:57.716Z</time></trkpt><trkpt lat="44.0337462" lon="10.8764217"><ele>673.0</ele><time>2026-05-02T16:37:58.714Z</time></trkpt><trkpt lat="44.0336097" lon="10.8762241"><ele>673.0</ele><time>2026-05-02T16:37:59.715Z</time></trkpt><trkpt lat="44.0334555" lon="10.8760238"><ele>673.0</ele><time>2026-05-02T16:38:00.715Z</time></trkpt><trkpt lat="44.0332999" lon="10.8758285"><ele>671.6666666666667</ele><time>2026-05-02T16:38:01.721Z</time></trkpt><trkpt lat="44.0331477" lon="10.875618"><ele>670.3333333333334</ele><time>2026-05-02T16:38:02.714Z</time></trkpt><trkpt lat="44.0329924" lon="10.8754169"><ele>669.0</ele><time>2026-05-02T16:38:03.714Z</time></trkpt><trkpt lat="44.0328421" lon="10.875217"><ele>669.3333333333334</ele><time>2026-05-02T16:38:04.714Z</time></trkpt><trkpt lat="44.0326883" lon="10.8750067"><ele>669.6666666666667</ele><time>2026-05-02T16:38:05.726Z</time></trkpt><trkpt lat="44.0325377" lon="10.8747985"><ele>670.0</ele><time>2026-05-02T16:38:06.716Z</time></trkpt><trkpt lat="44.0323846" lon="10.8745903"><ele>670.0</ele><time>2026-05-02T16:38:07.716Z</time></trkpt><trkpt lat="44.0322308" lon="10.8743797"><ele>670.0</ele><time>2026-05-02T16:38:08.741Z</time></trkpt><trkpt lat="44.032076" lon="10.8741733"><ele>670.0</ele><time>2026-05-02T16:38:09.717Z</time></trkpt><trkpt lat="44.031921" lon="10.8739639"><ele>670.0</ele><time>2026-05-02T16:38:10.712Z</time></trkpt><trkpt lat="44.0317669" lon="10.8737525"><ele>670.0</ele><time>2026-05-02T16:38:11.716Z</time></trkpt><trkpt lat="44.031609" lon="10.8735472"><ele>670.0</ele><time>2026-05-02T16:38:12.713Z</time></trkpt><trkpt lat="44.03146" lon="10.8733479"><ele>670.0</ele><time>2026-05-02T16:38:13.719Z</time></trkpt><trkpt lat="44.0313206" lon="10.8731695"><ele>670.0</ele><time>2026-05-02T16:38:14.716Z</time></trkpt><trkpt lat="44.0311749" lon="10.8730029"><ele>670.0</ele><time>2026-05-02T16:38:15.713Z</time></trkpt><trkpt lat="44.0310151" lon="10.8728669"><ele>670.0</ele><time>2026-05-02T16:38:16.728Z</time></trkpt><trkpt lat="44.0308401" lon="10.8727547"><ele>670.0</ele><time>2026-05-02T16:38:17.716Z</time></trkpt><trkpt lat="44.0306419" lon="10.8727079"><ele>670.0</ele><time>2026-05-02T16:38:18.716Z</time></trkpt><trkpt lat="44.0304451" lon="10.8726348"><ele>671.0</ele><time>2026-05-02T16:38:19.711Z</time></trkpt><trkpt lat="44.0302299" lon="10.8725763"><ele>672.0</ele><time>2026-05-02T16:38:20.715Z</time></trkpt><trkpt lat="44.030021" lon="10.872506"><ele>673.0</ele><time>2026-05-02T16:38:21.719Z</time></trkpt><trkpt lat="44.0298095" lon="10.8724358"><ele>673.0</ele><time>2026-05-02T16:38:22.717Z</time></trkpt><trkpt lat="44.0295923" lon="10.8723766"><ele>673.0</ele><time>2026-05-02T16:38:23.713Z</time></trkpt><trkpt lat="44.0293801" lon="10.8723186"><ele>673.0</ele><time>2026-05-02T16:38:24.719Z</time></trkpt><trkpt lat="44.0291659" lon="10.8722535"><ele>672.6666666666667</ele><time>2026-05-02T16:38:25.733Z</time></trkpt><trkpt lat="44.0289528" lon="10.872193"><ele>672.3333333333334</ele><time>2026-05-02T16:38:26.717Z</time></trkpt><trkpt lat="44.0287583" lon="10.8721287"><ele>672.0</ele><time>2026-05-02T16:38:27.718Z</time></trkpt><trkpt lat="44.0285701" lon="10.8720716"><ele>672.0</ele><time>2026-05-02T16:38:28.723Z</time></trkpt><trkpt lat="44.028395" lon="10.8720068"><ele>672.0</ele><time>2026-05-02T16:38:29.712Z</time></trkpt><trkpt lat="44.0282381" lon="10.8719175"><ele>672.0</ele><time>2026-05-02T16:38:30.713Z</time></trkpt><trkpt lat="44.0280934" lon="10.871796"><ele>672.6666666666666</ele><time>2026-05-02T16:38:31.728Z</time></trkpt><trkpt lat="44.0279561" lon="10.8716412"><ele>673.3333333333333</ele><time>2026-05-02T16:38:32.719Z</time></trkpt><trkpt lat="44.0278179" lon="10.8714604"><ele>674.0</ele><time>2026-05-02T16:38:33.713Z</time></trkpt><trkpt lat="44.0276919" lon="10.8712585"><ele>674.0</ele><time>2026-05-02T16:38:34.715Z</time></trkpt><trkpt lat="44.0275495" lon="10.871062"><ele>674.0</ele><time>2026-05-02T16:38:35.717Z</time></trkpt><trkpt lat="44.0273991" lon="10.8708459"><ele>674.0</ele><time>2026-05-02T16:38:36.715Z</time></trkpt><trkpt lat="44.0272499" lon="10.8706323"><ele>674.0</ele><time>2026-05-02T16:38:37.713Z</time></trkpt><trkpt lat="44.0270869" lon="10.8704181"><ele>674.0</ele><time>2026-05-02T16:38:38.731Z</time></trkpt><trkpt lat="44.0269215" lon="10.8701845"><ele>674.5</ele><time>2026-05-02T16:38:39.713Z</time></trkpt><trkpt lat="44.026754" lon="10.8699548"><ele>675.0</ele><time>2026-05-02T16:38:40.716Z</time></trkpt><trkpt lat="44.026594" lon="10.869719"><ele>675.0</ele><time>2026-05-02T16:38:41.718Z</time></trkpt><trkpt lat="44.0264273" lon="10.8694868"><ele>675.0</ele><time>2026-05-02T16:38:42.737Z</time></trkpt><trkpt lat="44.0262717" lon="10.8692581"><ele>677.0</ele><time>2026-05-02T16:38:43.716Z</time></trkpt><trkpt lat="44.0261117" lon="10.8690412"><ele>679.0</ele><time>2026-05-02T16:38:44.718Z</time></trkpt><trkpt lat="44.025951" lon="10.868818"><ele>678.6666666666667</ele><time>2026-05-02T16:38:45.722Z</time></trkpt><trkpt lat="44.0257897" lon="10.8686055"><ele>678.3333333333334</ele><time>2026-05-02T16:38:46.717Z</time></trkpt><trkpt lat="44.0256385" lon="10.8683962"><ele>678.0</ele><time>2026-05-02T16:38:47.714Z</time></trkpt><trkpt lat="44.0254938" lon="10.8681866"><ele>677.6666666666666</ele><time>2026-05-02T16:38:48.72Z</time></trkpt><trkpt lat="44.0253556" lon="10.8679969"><ele>677.3333333333333</ele><time>2026-05-02T16:38:49.717Z</time></trkpt><trkpt lat="44.0252002" lon="10.8678312"><ele>677.0</ele><time>2026-05-02T16:38:50.725Z</time></trkpt><trkpt lat="44.0250416" lon="10.8676766"><ele>678.0</ele><time>2026-05-02T16:38:51.715Z</time></trkpt><trkpt lat="44.0248575" lon="10.8675729"><ele>679.0</ele><time>2026-05-02T16:38:52.716Z</time></trkpt><trkpt lat="44.0246528" lon="10.8674688"><ele>680.0</ele><time>2026-05-02T16:38:53.712Z</time></trkpt><trkpt lat="44.0244459" lon="10.8673615"><ele>680.0</ele><time>2026-05-02T16:38:54.716Z</time></trkpt><trkpt lat="44.0242419" lon="10.8672538"><ele>680.0</ele><time>2026-05-02T16:38:55.722Z</time></trkpt><trkpt lat="44.0240329" lon="10.8671429"><ele>680.0</ele><time>2026-05-02T16:38:56.714Z</time></trkpt><trkpt lat="44.0238227" lon="10.8670367"><ele>682.0</ele><time>2026-05-02T16:38:57.723Z</time></trkpt><trkpt lat="44.0236163" lon="10.8669317"><ele>684.0</ele><time>2026-05-02T16:38:58.725Z</time></trkpt><trkpt lat="44.0233953" lon="10.8668175"><ele>685.0</ele><time>2026-05-02T16:38:59.711Z</time></trkpt><trkpt lat="44.0231813" lon="10.8667008"><ele>686.0</ele><time>2026-05-02T16:39:00.718Z</time></trkpt><trkpt lat="44.0229615" lon="10.8665915"><ele>686.0</ele><time>2026-05-02T16:39:01.732Z</time></trkpt><trkpt lat="44.0227453" lon="10.8664771"><ele>686.0</ele><time>2026-05-02T16:39:02.717Z</time></trkpt><trkpt lat="44.0225357" lon="10.8663643"><ele>687.0</ele><time>2026-05-02T16:39:03.711Z</time></trkpt><trkpt lat="44.0223363" lon="10.8662628"><ele>688.0</ele><time>2026-05-02T16:39:04.713Z</time></trkpt><trkpt lat="44.0221466" lon="10.8661637"><ele>689.0</ele><time>2026-05-02T16:39:05.711Z</time></trkpt><trkpt lat="44.0219655" lon="10.8660972"><ele>689.0</ele><time>2026-05-02T16:39:06.712Z</time></trkpt><trkpt lat="44.0217794" lon="10.8660665"><ele>689.0</ele><time>2026-05-02T16:39:07.714Z</time></trkpt><trkpt lat="44.0215819" lon="10.8660728"><ele>689.0</ele><time>2026-05-02T16:39:08.718Z</time></trkpt><trkpt lat="44.0213765" lon="10.8660896"><ele>689.6666666666666</ele><time>2026-05-02T16:39:09.713Z</time></trkpt><trkpt lat="44.0211731" lon="10.8660923"><ele>690.3333333333334</ele><time>2026-05-02T16:39:10.711Z</time></trkpt><trkpt lat="44.020976" lon="10.8660844"><ele>691.0</ele><time>2026-05-02T16:39:11.718Z</time></trkpt><trkpt lat="44.0207844" lon="10.8660484"><ele>691.0</ele><time>2026-05-02T16:39:12.716Z</time></trkpt><trkpt lat="44.0205845" lon="10.8659832"><ele>691.0</ele><time>2026-05-02T16:39:13.715Z</time></trkpt><trkpt lat="44.0203866" lon="10.8659013"><ele>691.0</ele><time>2026-05-02T16:39:14.725Z</time></trkpt><trkpt lat="44.0201887" lon="10.8658277"><ele>691.0</ele><time>2026-05-02T16:39:15.715Z</time></trkpt><trkpt lat="44.020021" lon="10.8657266"><ele>691.0</ele><time>2026-05-02T16:39:16.712Z</time></trkpt><trkpt lat="44.0198751" lon="10.8656089"><ele>691.0</ele><time>2026-05-02T16:39:17.71Z</time></trkpt><trkpt lat="44.0197283" lon="10.86544"><ele>692.6666666666667</ele><time>2026-05-02T16:39:18.716Z</time></trkpt><trkpt lat="44.019582" lon="10.8652614"><ele>694.3333333333334</ele><time>2026-05-02T16:39:19.715Z</time></trkpt><trkpt lat="44.0194324" lon="10.8650458"><ele>696.0</ele><time>2026-05-02T16:39:20.715Z</time></trkpt><trkpt lat="44.0192792" lon="10.8648375"><ele>694.3333333333334</ele><time>2026-05-02T16:39:21.714Z</time></trkpt><trkpt lat="44.0191261" lon="10.8646264"><ele>692.6666666666667</ele><time>2026-05-02T16:39:22.715Z</time></trkpt><trkpt lat="44.0189765" lon="10.8644239"><ele>691.0</ele><time>2026-05-02T16:39:23.713Z</time></trkpt><trkpt lat="44.0188418" lon="10.8642302"><ele>690.6666666666667</ele><time>2026-05-02T16:39:24.722Z</time></trkpt><trkpt lat="44.0187077" lon="10.8640501"><ele>690.3333333333334</ele><time>2026-05-02T16:39:25.713Z</time></trkpt><trkpt lat="44.0185766" lon="10.8638902"><ele>690.0</ele><time>2026-05-02T16:39:26.712Z</time></trkpt><trkpt lat="44.0184197" lon="10.8637655"><ele>690.3333333333334</ele><time>2026-05-02T16:39:27.72Z</time></trkpt><trkpt lat="44.0182443" lon="10.8636602"><ele>690.6666666666667</ele><time>2026-05-02T16:39:28.712Z</time></trkpt><trkpt lat="44.0180613" lon="10.8635656"><ele>691.0</ele><time>2026-05-02T16:39:29.713Z</time></trkpt><trkpt lat="44.0178693" lon="10.8634757"><ele>693.0</ele><time>2026-05-02T16:39:30.718Z</time></trkpt><trkpt lat="44.0176802" lon="10.8633943"><ele>695.0</ele><time>2026-05-02T16:39:31.715Z</time></trkpt><trkpt lat="44.017511" lon="10.8633078"><ele>697.0</ele><time>2026-05-02T16:39:32.714Z</time></trkpt><trkpt lat="44.0173566" lon="10.8632125"><ele>697.0</ele><time>2026-05-02T16:39:33.714Z</time></trkpt><trkpt lat="44.0172149" lon="10.8631013"><ele>697.0</ele><time>2026-05-02T16:39:34.712Z</time></trkpt><trkpt lat="44.0170845" lon="10.8629777"><ele>697.0</ele><time>2026-05-02T16:39:35.721Z</time></trkpt><trkpt lat="44.0169535" lon="10.8628305"><ele>697.0</ele><time>2026-05-02T16:39:36.714Z</time></trkpt><trkpt lat="44.0168117" lon="10.8626493"><ele>697.0</ele><time>2026-05-02T16:39:37.717Z</time></trkpt><trkpt lat="44.0166688" lon="10.8624421"><ele>697.0</ele><time>2026-05-02T16:39:38.718Z</time></trkpt><trkpt lat="44.0165155" lon="10.8622216"><ele>698.0</ele><time>2026-05-02T16:39:39.71Z</time></trkpt><trkpt lat="44.0163413" lon="10.8619962"><ele>699.0</ele><time>2026-05-02T16:39:40.715Z</time></trkpt><trkpt lat="44.0161648" lon="10.8617368"><ele>701.0</ele><time>2026-05-02T16:39:41.711Z</time></trkpt><trkpt lat="44.0159846" lon="10.8614723"><ele>703.0</ele><time>2026-05-02T16:39:42.713Z</time></trkpt><trkpt lat="44.0158147" lon="10.8612121"><ele>698.0</ele><time>2026-05-02T16:39:43.72Z</time></trkpt><trkpt lat="44.0156624" lon="10.8609446"><ele>693.0</ele><time>2026-05-02T16:39:44.715Z</time></trkpt><trkpt lat="44.0155281" lon="10.8606726"><ele>693.0</ele><time>2026-05-02T16:39:45.716Z</time></trkpt><trkpt lat="44.0153916" lon="10.8603963"><ele>693.0</ele><time>2026-05-02T16:39:46.718Z</time></trkpt><trkpt lat="44.0152582" lon="10.860129"><ele>694.6666666666666</ele><time>2026-05-02T16:39:47.712Z</time></trkpt><trkpt lat="44.0151324" lon="10.8598561"><ele>696.3333333333333</ele><time>2026-05-02T16:39:48.716Z</time></trkpt><trkpt lat="44.0150096" lon="10.8596084"><ele>698.0</ele><time>2026-05-02T16:39:49.723Z</time></trkpt><trkpt lat="44.0148754" lon="10.8593801"><ele>697.6666666666666</ele><time>2026-05-02T16:39:50.713Z</time></trkpt><trkpt lat="44.0147362" lon="10.8591831"><ele>697.3333333333334</ele><time>2026-05-02T16:39:51.713Z</time></trkpt><trkpt lat="44.0145846" lon="10.8590089"><ele>697.0</ele><time>2026-05-02T16:39:52.712Z</time></trkpt><trkpt lat="44.0144139" lon="10.8588516"><ele>697.0</ele><time>2026-05-02T16:39:53.712Z</time></trkpt><trkpt lat="44.0142344" lon="10.8587035"><ele>697.0</ele><time>2026-05-02T16:39:54.718Z</time></trkpt><trkpt lat="44.0140631" lon="10.8585681"><ele>697.0</ele><time>2026-05-02T16:39:55.711Z</time></trkpt><trkpt lat="44.0139089" lon="10.8584374"><ele>698.0</ele><time>2026-05-02T16:39:56.714Z</time></trkpt><trkpt lat="44.0137716" lon="10.8583065"><ele>699.0</ele><time>2026-05-02T16:39:57.712Z</time></trkpt><trkpt lat="44.013654" lon="10.858142"><ele>700.0</ele><time>2026-05-02T16:39:58.721Z</time></trkpt><trkpt lat="44.0135321" lon="10.8579661"><ele>700.0</ele><time>2026-05-02T16:39:59.713Z</time></trkpt><trkpt lat="44.0134031" lon="10.8577902"><ele>700.0</ele><time>2026-05-02T16:40:00.715Z</time></trkpt><trkpt lat="44.0132498" lon="10.8576277"><ele>700.0</ele><time>2026-05-02T16:40:01.716Z</time></trkpt><trkpt lat="44.0130966" lon="10.8574698"><ele>699.6666666666667</ele><time>2026-05-02T16:40:02.715Z</time></trkpt><trkpt lat="44.0129308" lon="10.8573235"><ele>699.3333333333334</ele><time>2026-05-02T16:40:03.726Z</time></trkpt><trkpt lat="44.0127663" lon="10.8571887"><ele>699.0</ele><time>2026-05-02T16:40:04.711Z</time></trkpt><trkpt lat="44.0125985" lon="10.8570894"><ele>698.6666666666666</ele><time>2026-05-02T16:40:05.711Z</time></trkpt><trkpt lat="44.0124399" lon="10.8569852"><ele>698.3333333333333</ele><time>2026-05-02T16:40:06.715Z</time></trkpt><trkpt lat="44.012295" lon="10.8568438"><ele>698.0</ele><time>2026-05-02T16:40:07.715Z</time></trkpt><trkpt lat="44.0121626" lon="10.8566867"><ele>698.6666666666666</ele><time>2026-05-02T16:40:08.715Z</time></trkpt><trkpt lat="44.0120621" lon="10.8564772"><ele>699.3333333333334</ele><time>2026-05-02T16:40:09.713Z</time></trkpt><trkpt lat="44.011955" lon="10.8562577"><ele>700.0</ele><time>2026-05-02T16:40:10.725Z</time></trkpt><trkpt lat="44.0118771" lon="10.8559891"><ele>700.6666666666667</ele><time>2026-05-02T16:40:11.71Z</time></trkpt><trkpt lat="44.0117738" lon="10.8557305"><ele>701.3333333333334</ele><time>2026-05-02T16:40:12.716Z</time></trkpt><trkpt lat="44.0116735" lon="10.8554572"><ele>702.0</ele><time>2026-05-02T16:40:13.719Z</time></trkpt><trkpt lat="44.011559" lon="10.8551963"><ele>703.3333333333334</ele><time>2026-05-02T16:40:14.71Z</time></trkpt><trkpt lat="44.0114479" lon="10.854956"><ele>704.6666666666667</ele><time>2026-05-02T16:40:15.714Z</time></trkpt><trkpt lat="44.0113444" lon="10.8547402"><ele>706.0</ele><time>2026-05-02T16:40:16.711Z</time></trkpt><trkpt lat="44.0112533" lon="10.8545363"><ele>706.0</ele><time>2026-05-02T16:40:17.712Z</time></trkpt><trkpt lat="44.01116" lon="10.8543586"><ele>706.0</ele><time>2026-05-02T16:40:18.713Z</time></trkpt><trkpt lat="44.0110696" lon="10.8541915"><ele>706.0</ele><time>2026-05-02T16:40:19.711Z</time></trkpt><trkpt lat="44.0109796" lon="10.8540344"><ele>707.0</ele><time>2026-05-02T16:40:20.714Z</time></trkpt><trkpt lat="44.0108929" lon="10.8538851"><ele>708.0</ele><time>2026-05-02T16:40:21.715Z</time></trkpt><trkpt lat="44.0108059" lon="10.8537509"><ele>709.0</ele><time>2026-05-02T16:40:22.711Z</time></trkpt><trkpt lat="44.0107201" lon="10.8536151"><ele>710.0</ele><time>2026-05-02T16:40:23.714Z</time></trkpt><trkpt lat="44.0106297" lon="10.8534687"><ele>710.5</ele><time>2026-05-02T16:40:24.71Z</time></trkpt><trkpt lat="44.0105372" lon="10.8533165"><ele>711.0</ele><time>2026-05-02T16:40:25.71Z</time></trkpt><trkpt lat="44.0104446" lon="10.8531648"><ele>711.5</ele><time>2026-05-02T16:40:26.711Z</time></trkpt><trkpt lat="44.0103666" lon="10.8529956"><ele>712.0</ele><time>2026-05-02T16:40:27.725Z</time></trkpt><trkpt lat="44.0103063" lon="10.8528112"><ele>712.0</ele><time>2026-05-02T16:40:28.712Z</time></trkpt><trkpt lat="44.0102428" lon="10.8526245"><ele>712.0</ele><time>2026-05-02T16:40:29.721Z</time></trkpt><trkpt lat="44.0101601" lon="10.8524228"><ele>712.0</ele><time>2026-05-02T16:40:30.713Z</time></trkpt><trkpt lat="44.0100614" lon="10.8522184"><ele>714.0</ele><time>2026-05-02T16:40:31.708Z</time></trkpt><trkpt lat="44.009951" lon="10.8519936"><ele>716.0</ele><time>2026-05-02T16:40:32.708Z</time></trkpt><trkpt lat="44.0098264" lon="10.8517488"><ele>718.0</ele><time>2026-05-02T16:40:33.716Z</time></trkpt><trkpt lat="44.0096979" lon="10.8515092"><ele>718.0</ele><time>2026-05-02T16:40:34.711Z</time></trkpt><trkpt lat="44.0095612" lon="10.8512827"><ele>718.0</ele><time>2026-05-02T16:40:35.722Z</time></trkpt><trkpt lat="44.0094027" lon="10.8510735"><ele>718.0</ele><time>2026-05-02T16:40:36.709Z</time></trkpt><trkpt lat="44.0092482" lon="10.8508757"><ele>721.3333333333334</ele><time>2026-05-02T16:40:37.707Z</time></trkpt><trkpt lat="44.0090987" lon="10.8506868"><ele>724.6666666666666</ele><time>2026-05-02T16:40:38.709Z</time></trkpt><trkpt lat="44.0089526" lon="10.8505013"><ele>728.0</ele><time>2026-05-02T16:40:39.718Z</time></trkpt><trkpt lat="44.0087939" lon="10.8503299"><ele>728.0</ele><time>2026-05-02T16:40:40.709Z</time></trkpt><trkpt lat="44.0086142" lon="10.8501763"><ele>728.0</ele><time>2026-05-02T16:40:41.708Z</time></trkpt><trkpt lat="44.0084311" lon="10.8500012"><ele>728.0</ele><time>2026-05-02T16:40:42.711Z</time></trkpt><trkpt lat="44.0082371" lon="10.8498239"><ele>726.5</ele><time>2026-05-02T16:40:43.713Z</time></trkpt><trkpt lat="44.0080408" lon="10.8496332"><ele>725.0</ele><time>2026-05-02T16:40:44.713Z</time></trkpt><trkpt lat="44.0078488" lon="10.8494488"><ele>725.0</ele><time>2026-05-02T16:40:45.71Z</time></trkpt><trkpt lat="44.0076506" lon="10.84927"><ele>725.0</ele><time>2026-05-02T16:40:46.707Z</time></trkpt><trkpt lat="44.0074631" lon="10.8490958"><ele>724.3333333333333</ele><time>2026-05-02T16:40:47.71Z</time></trkpt><trkpt lat="44.0072825" lon="10.848935"><ele>723.6666666666666</ele><time>2026-05-02T16:40:48.708Z</time></trkpt><trkpt lat="44.0071244" lon="10.8487839"><ele>723.0</ele><time>2026-05-02T16:40:49.709Z</time></trkpt><trkpt lat="44.0069815" lon="10.8486432"><ele>723.0</ele><time>2026-05-02T16:40:50.71Z</time></trkpt><trkpt lat="44.0068804" lon="10.8484789"><ele>723.0</ele><time>2026-05-02T16:40:51.707Z</time></trkpt><trkpt lat="44.0068113" lon="10.8482881"><ele>723.0</ele><time>2026-05-02T16:40:52.71Z</time></trkpt><trkpt lat="44.006763" lon="10.848063"><ele>725.0</ele><time>2026-05-02T16:40:53.712Z</time></trkpt><trkpt lat="44.0067107" lon="10.8478129"><ele>727.0</ele><time>2026-05-02T16:40:54.714Z</time></trkpt><trkpt lat="44.0066451" lon="10.8475785"><ele>729.0</ele><time>2026-05-02T16:40:55.712Z</time></trkpt><trkpt lat="44.006561" lon="10.8473617"><ele>732.6666666666666</ele><time>2026-05-02T16:40:56.713Z</time></trkpt><trkpt lat="44.0064606" lon="10.8471631"><ele>736.3333333333333</ele><time>2026-05-02T16:40:57.71Z</time></trkpt><trkpt lat="44.0063544" lon="10.8469818"><ele>740.0</ele><time>2026-05-02T16:40:58.709Z</time></trkpt><trkpt lat="44.0062458" lon="10.8468166"><ele>738.0</ele><time>2026-05-02T16:40:59.715Z</time></trkpt><trkpt lat="44.0061446" lon="10.846656"><ele>736.0</ele><time>2026-05-02T16:41:00.713Z</time></trkpt><trkpt lat="44.0060583" lon="10.8465002"><ele>734.0</ele><time>2026-05-02T16:41:01.718Z</time></trkpt><trkpt lat="44.0059805" lon="10.8463182"><ele>732.0</ele><time>2026-05-02T16:41:02.712Z</time></trkpt><trkpt lat="44.0059302" lon="10.8461286"><ele>732.75</ele><time>2026-05-02T16:41:03.718Z</time></trkpt><trkpt lat="44.0058748" lon="10.845938"><ele>733.5</ele><time>2026-05-02T16:41:04.711Z</time></trkpt><trkpt lat="44.005828" lon="10.8457407"><ele>734.25</ele><time>2026-05-02T16:41:05.727Z</time></trkpt><trkpt lat="44.0057823" lon="10.8455485"><ele>735.0</ele><time>2026-05-02T16:41:06.719Z</time></trkpt><trkpt lat="44.0057541" lon="10.8453595"><ele>738.75</ele><time>2026-05-02T16:41:07.727Z</time></trkpt><trkpt lat="44.0057278" lon="10.845159"><ele>742.5</ele><time>2026-05-02T16:41:08.712Z</time></trkpt><trkpt lat="44.0057363" lon="10.8449637"><ele>746.25</ele><time>2026-05-02T16:41:09.713Z</time></trkpt><trkpt lat="44.0057401" lon="10.8447626"><ele>750.0</ele><time>2026-05-02T16:41:10.721Z</time></trkpt><trkpt lat="44.0057409" lon="10.8445652"><ele>750.5</ele><time>2026-05-02T16:41:11.719Z</time></trkpt><trkpt lat="44.00574" lon="10.8443626"><ele>751.0</ele><time>2026-05-02T16:41:12.721Z</time></trkpt><trkpt lat="44.0057532" lon="10.8441685"><ele>751.5</ele><time>2026-05-02T16:41:13.711Z</time></trkpt><trkpt lat="44.0057654" lon="10.8439747"><ele>752.0</ele><time>2026-05-02T16:41:14.714Z</time></trkpt><trkpt lat="44.0057797" lon="10.8437735"><ele>748.5</ele><time>2026-05-02T16:41:15.713Z</time></trkpt><trkpt lat="44.0058075" lon="10.8435796"><ele>745.0</ele><time>2026-05-02T16:41:16.711Z</time></trkpt><trkpt lat="44.0058329" lon="10.8433819"><ele>741.5</ele><time>2026-05-02T16:41:17.716Z</time></trkpt><trkpt lat="44.0058907" lon="10.8431935"><ele>738.0</ele><time>2026-05-02T16:41:18.716Z</time></trkpt><trkpt lat="44.0059389" lon="10.8430087"><ele>738.0</ele><time>2026-05-02T16:41:19.713Z</time></trkpt><trkpt lat="44.0060055" lon="10.8428239"><ele>738.0</ele><time>2026-05-02T16:41:20.712Z</time></trkpt><trkpt lat="44.0060755" lon="10.8426369"><ele>738.0</ele><time>2026-05-02T16:41:21.713Z</time></trkpt><trkpt lat="44.0061571" lon="10.8424495"><ele>741.0</ele><time>2026-05-02T16:41:22.711Z</time></trkpt><trkpt lat="44.0062095" lon="10.842247"><ele>744.0</ele><time>2026-05-02T16:41:23.713Z</time></trkpt><trkpt lat="44.0062545" lon="10.8420382"><ele>747.0</ele><time>2026-05-02T16:41:24.727Z</time></trkpt><trkpt lat="44.0063027" lon="10.8418232"><ele>751.6666666666666</ele><time>2026-05-02T16:41:25.712Z</time></trkpt><trkpt lat="44.0063626" lon="10.8416123"><ele>756.3333333333333</ele><time>2026-05-02T16:41:26.709Z</time></trkpt><trkpt lat="44.0064254" lon="10.8414078"><ele>761.0</ele><time>2026-05-02T16:41:27.71Z</time></trkpt><trkpt lat="44.0064787" lon="10.841204"><ele>761.0</ele><time>2026-05-02T16:41:28.714Z</time></trkpt><trkpt lat="44.0065181" lon="10.841003"><ele>761.0</ele><time>2026-05-02T16:41:29.712Z</time></trkpt><trkpt lat="44.0065169" lon="10.8407954"><ele>761.0</ele><time>2026-05-02T16:41:30.728Z</time></trkpt><trkpt lat="44.0065151" lon="10.8406118"><ele>761.0</ele><time>2026-05-02T16:41:31.711Z</time></trkpt><trkpt lat="44.0064809" lon="10.8404559"><ele>761.25</ele><time>2026-05-02T16:41:32.713Z</time></trkpt><trkpt lat="44.0064271" lon="10.8403415"><ele>761.5</ele><time>2026-05-02T16:41:33.715Z</time></trkpt><trkpt lat="44.0063465" lon="10.840204"><ele>761.75</ele><time>2026-05-02T16:41:34.712Z</time></trkpt><trkpt lat="44.006256" lon="10.8400761"><ele>762.0</ele><time>2026-05-02T16:41:35.713Z</time></trkpt><trkpt lat="44.0061452" lon="10.8399316"><ele>759.75</ele><time>2026-05-02T16:41:36.715Z</time></trkpt><trkpt lat="44.00598" lon="10.8398907"><ele>757.5</ele><time>2026-05-02T16:41:37.711Z</time></trkpt><trkpt lat="44.0058685" lon="10.8397981"><ele>755.25</ele><time>2026-05-02T16:41:38.714Z</time></trkpt><trkpt lat="44.005784" lon="10.8396724"><ele>753.0</ele><time>2026-05-02T16:41:39.712Z</time></trkpt><trkpt lat="44.0057413" lon="10.8395153"><ele>760.25</ele><time>2026-05-02T16:41:40.712Z</time></trkpt><trkpt lat="44.0057213" lon="10.8393534"><ele>767.5</ele><time>2026-05-02T16:41:41.711Z</time></trkpt><trkpt lat="44.0057377" lon="10.8392003"><ele>774.75</ele><time>2026-05-02T16:41:42.714Z</time></trkpt><trkpt lat="44.0057629" lon="10.8390265"><ele>782.0</ele><time>2026-05-02T16:41:43.711Z</time></trkpt><trkpt lat="44.0058094" lon="10.8388539"><ele>774.0</ele><time>2026-05-02T16:41:44.711Z</time></trkpt><trkpt lat="44.0058853" lon="10.8386957"><ele>766.0</ele><time>2026-05-02T16:41:45.716Z</time></trkpt><trkpt lat="44.0059606" lon="10.8385203"><ele>758.0</ele><time>2026-05-02T16:41:46.712Z</time></trkpt><trkpt lat="44.006026" lon="10.838355"><ele>750.0</ele><time>2026-05-02T16:41:47.711Z</time></trkpt><trkpt lat="44.0060606" lon="10.8381979"><ele>749.4</ele><time>2026-05-02T16:41:48.713Z</time></trkpt><trkpt lat="44.0060606" lon="10.8380508"><ele>748.8</ele><time>2026-05-02T16:41:49.713Z</time></trkpt><trkpt lat="44.0060412" lon="10.8379207"><ele>748.2</ele><time>2026-05-02T16:41:50.71Z</time></trkpt><trkpt lat="44.0059969" lon="10.8378124"><ele>747.6</ele><time>2026-05-02T16:41:51.711Z</time></trkpt><trkpt lat="44.0059457" lon="10.8377201"><ele>747.0</ele><time>2026-05-02T16:41:52.709Z</time></trkpt><trkpt lat="44.0058841" lon="10.8376109"><ele>746.8</ele><time>2026-05-02T16:41:53.711Z</time></trkpt><trkpt lat="44.0058292" lon="10.8374805"><ele>746.6</ele><time>2026-05-02T16:41:54.712Z</time></trkpt><trkpt lat="44.0057971" lon="10.8373443"><ele>746.4</ele><time>2026-05-02T16:41:55.713Z</time></trkpt><trkpt lat="44.005783" lon="10.8371913"><ele>746.1999999999999</ele><time>2026-05-02T16:41:56.717Z</time></trkpt><trkpt lat="44.0057785" lon="10.8370399"><ele>746.0</ele><time>2026-05-02T16:41:57.724Z</time></trkpt><trkpt lat="44.0057594" lon="10.8369097"><ele>748.1666666666666</ele><time>2026-05-02T16:41:58.71Z</time></trkpt><trkpt lat="44.0057762" lon="10.8367689"><ele>750.3333333333333</ele><time>2026-05-02T16:41:59.716Z</time></trkpt><trkpt lat="44.0057725" lon="10.836641"><ele>752.5</ele><time>2026-05-02T16:42:00.711Z</time></trkpt><trkpt lat="44.0057805" lon="10.8365304"><ele>754.6666666666666</ele><time>2026-05-02T16:42:01.711Z</time></trkpt><trkpt lat="44.0057775" lon="10.8364276"><ele>756.8333333333334</ele><time>2026-05-02T16:42:02.718Z</time></trkpt><trkpt lat="44.0057602" lon="10.8363333"><ele>759.0</ele><time>2026-05-02T16:42:03.72Z</time></trkpt><trkpt lat="44.0056922" lon="10.8362066"><ele>759.0</ele><time>2026-05-02T16:42:05.711Z</time></trkpt><trkpt lat="44.0055914" lon="10.836157"><ele>759.0</ele><time>2026-05-02T16:42:07.713Z</time></trkpt><trkpt lat="44.0054991" lon="10.8361254"><ele>759.0</ele><time>2026-05-02T16:42:09.711Z</time></trkpt><trkpt lat="44.0053975" lon="10.8361071"><ele>759.0</ele><time>2026-05-02T16:42:11.714Z</time></trkpt><trkpt lat="44.0052991" lon="10.8360459"><ele>759.0</ele><time>2026-05-02T16:42:13.712Z</time></trkpt><trkpt lat="44.0052132" lon="10.836047"><ele>759.0</ele><time>2026-05-02T16:42:15.71Z</time></trkpt><trkpt lat="44.0050658" lon="10.8360131"><ele>759.0</ele><time>2026-05-02T16:42:17.709Z</time></trkpt><trkpt lat="44.0049607" lon="10.8359737"><ele>759.0</ele><time>2026-05-02T16:42:18.715Z</time></trkpt><trkpt lat="44.0048434" lon="10.8359298"><ele>759.0</ele><time>2026-05-02T16:42:19.722Z</time></trkpt><trkpt lat="44.0047204" lon="10.8358745"><ele>756.25</ele><time>2026-05-02T16:42:20.717Z</time></trkpt><trkpt lat="44.0045968" lon="10.8358185"><ele>753.5</ele><time>2026-05-02T16:42:21.712Z</time></trkpt><trkpt lat="44.0044679" lon="10.8357721"><ele>750.75</ele><time>2026-05-02T16:42:22.712Z</time></trkpt><trkpt lat="44.0043416" lon="10.8357237"><ele>748.0</ele><time>2026-05-02T16:42:23.711Z</time></trkpt><trkpt lat="44.0042257" lon="10.83567"><ele>750.75</ele><time>2026-05-02T16:42:24.719Z</time></trkpt><trkpt lat="44.0041082" lon="10.8356244"><ele>753.5</ele><time>2026-05-02T16:42:25.724Z</time></trkpt><trkpt lat="44.0039916" lon="10.8355858"><ele>756.25</ele><time>2026-05-02T16:42:26.708Z</time></trkpt><trkpt lat="44.0038822" lon="10.8355376"><ele>759.0</ele><time>2026-05-02T16:42:27.719Z</time></trkpt><trkpt lat="44.003784" lon="10.8354515"><ele>759.0</ele><time>2026-05-02T16:42:28.711Z</time></trkpt><trkpt lat="44.0036783" lon="10.8353559"><ele>759.0</ele><time>2026-05-02T16:42:29.714Z</time></trkpt><trkpt lat="44.0035744" lon="10.8352328"><ele>759.0</ele><time>2026-05-02T16:42:30.717Z</time></trkpt><trkpt lat="44.0034687" lon="10.8351087"><ele>759.0</ele><time>2026-05-02T16:42:31.725Z</time></trkpt><trkpt lat="44.0033641" lon="10.8349958"><ele>759.0</ele><time>2026-05-02T16:42:32.721Z</time></trkpt><trkpt lat="44.0032561" lon="10.8348887"><ele>759.0</ele><time>2026-05-02T16:42:33.71Z</time></trkpt><trkpt lat="44.0031496" lon="10.8347695"><ele>759.0</ele><time>2026-05-02T16:42:34.715Z</time></trkpt><trkpt lat="44.0030489" lon="10.8346557"><ele>759.0</ele><time>2026-05-02T16:42:35.708Z</time></trkpt><trkpt lat="44.002957" lon="10.8345479"><ele>759.0</ele><time>2026-05-02T16:42:36.712Z</time></trkpt><trkpt lat="44.0028732" lon="10.8344527"><ele>759.0</ele><time>2026-05-02T16:42:37.71Z</time></trkpt><trkpt lat="44.0027931" lon="10.8343614"><ele>759.0</ele><time>2026-05-02T16:42:38.711Z</time></trkpt><trkpt lat="44.0027108" lon="10.8343008"><ele>759.0</ele><time>2026-05-02T16:42:39.732Z</time></trkpt><trkpt lat="44.0026239" lon="10.8342729"><ele>759.0</ele><time>2026-05-02T16:42:40.717Z</time></trkpt><trkpt lat="44.0025452" lon="10.8342615"><ele>759.8000000000001</ele><time>2026-05-02T16:42:41.712Z</time></trkpt><trkpt lat="44.0024589" lon="10.8342892"><ele>760.6</ele><time>2026-05-02T16:42:42.712Z</time></trkpt><trkpt lat="44.0024008" lon="10.8343986"><ele>761.4</ele><time>2026-05-02T16:42:43.712Z</time></trkpt><trkpt lat="44.0023278" lon="10.8345459"><ele>762.2</ele><time>2026-05-02T16:42:44.712Z</time></trkpt><trkpt lat="44.0022599" lon="10.8346963"><ele>763.0</ele><time>2026-05-02T16:42:45.723Z</time></trkpt><trkpt lat="44.0021803" lon="10.8348524"><ele>760.5</ele><time>2026-05-02T16:42:46.717Z</time></trkpt><trkpt lat="44.0020976" lon="10.8349832"><ele>758.0</ele><time>2026-05-02T16:42:47.714Z</time></trkpt><trkpt lat="44.001989" lon="10.8351145"><ele>755.5</ele><time>2026-05-02T16:42:48.711Z</time></trkpt><trkpt lat="44.0018753" lon="10.8352311"><ele>753.0</ele><time>2026-05-02T16:42:49.712Z</time></trkpt><trkpt lat="44.0017693" lon="10.8353405"><ele>748.25</ele><time>2026-05-02T16:42:50.71Z</time></trkpt><trkpt lat="44.0016539" lon="10.8354461"><ele>743.5</ele><time>2026-05-02T16:42:51.72Z</time></trkpt><trkpt lat="44.0015495" lon="10.8355693"><ele>738.75</ele><time>2026-05-02T16:42:52.716Z</time></trkpt><trkpt lat="44.0014531" lon="10.8356906"><ele>734.0</ele><time>2026-05-02T16:42:53.711Z</time></trkpt><trkpt lat="44.0013903" lon="10.8358256"><ele>732.5</ele><time>2026-05-02T16:42:54.714Z</time></trkpt><trkpt lat="44.0013666" lon="10.8360332"><ele>731.0</ele><time>2026-05-02T16:42:55.716Z</time></trkpt><trkpt lat="44.0013304" lon="10.8362047"><ele>729.5</ele><time>2026-05-02T16:42:56.71Z</time></trkpt><trkpt lat="44.0013346" lon="10.8363738"><ele>728.0</ele><time>2026-05-02T16:42:57.716Z</time></trkpt><trkpt lat="44.0013755" lon="10.836553"><ele>728.0</ele><time>2026-05-02T16:42:58.712Z</time></trkpt><trkpt lat="44.0015035" lon="10.8366403"><ele>728.0</ele><time>2026-05-02T16:42:59.721Z</time></trkpt><trkpt lat="44.0015654" lon="10.8367804"><ele>728.0</ele><time>2026-05-02T16:43:00.71Z</time></trkpt><trkpt lat="44.0016119" lon="10.8369213"><ele>728.0</ele><time>2026-05-02T16:43:01.713Z</time></trkpt><trkpt lat="44.0016395" lon="10.8370546"><ele>728.6666666666666</ele><time>2026-05-02T16:43:02.713Z</time></trkpt><trkpt lat="44.0016457" lon="10.837182"><ele>729.3333333333333</ele><time>2026-05-02T16:43:03.713Z</time></trkpt><trkpt lat="44.0016087" lon="10.8372766"><ele>730.0</ele><time>2026-05-02T16:43:04.713Z</time></trkpt><trkpt lat="44.0015771" lon="10.8373681"><ele>730.6666666666666</ele><time>2026-05-02T16:43:05.71Z</time></trkpt><trkpt lat="44.001495" lon="10.8374222"><ele>731.3333333333334</ele><time>2026-05-02T16:43:07.732Z</time></trkpt><trkpt lat="44.0014056" lon="10.837441"><ele>732.0</ele><time>2026-05-02T16:43:08.715Z</time></trkpt><trkpt lat="44.0012885" lon="10.8374803"><ele>729.0</ele><time>2026-05-02T16:43:09.721Z</time></trkpt><trkpt lat="44.0010727" lon="10.8377121"><ele>726.0</ele><time>2026-05-02T16:43:10.724Z</time></trkpt><trkpt lat="44.0009435" lon="10.837869"><ele>723.0</ele><time>2026-05-02T16:43:11.721Z</time></trkpt><trkpt lat="44.0008244" lon="10.8380421"><ele>723.0</ele><time>2026-05-02T16:43:12.711Z</time></trkpt><trkpt lat="44.0006862" lon="10.838209"><ele>723.0</ele><time>2026-05-02T16:43:13.711Z</time></trkpt><trkpt lat="44.0005223" lon="10.8383624"><ele>723.0</ele><time>2026-05-02T16:43:14.72Z</time></trkpt><trkpt lat="44.0003531" lon="10.8384904"><ele>724.3333333333334</ele><time>2026-05-02T16:43:15.71Z</time></trkpt><trkpt lat="44.0001922" lon="10.8386402"><ele>725.6666666666667</ele><time>2026-05-02T16:43:16.711Z</time></trkpt><trkpt lat="44.0000628" lon="10.8387817"><ele>727.0</ele><time>2026-05-02T16:43:17.714Z</time></trkpt><trkpt lat="43.9999508" lon="10.8389449"><ele>727.0</ele><time>2026-05-02T16:43:18.717Z</time></trkpt><trkpt lat="43.999893" lon="10.8391143"><ele>727.0</ele><time>2026-05-02T16:43:19.712Z</time></trkpt><trkpt lat="43.9998343" lon="10.8392377"><ele>727.0</ele><time>2026-05-02T16:43:20.713Z</time></trkpt><trkpt lat="43.9998092" lon="10.839365"><ele>727.0</ele><time>2026-05-02T16:43:21.732Z</time></trkpt><trkpt lat="43.9998505" lon="10.8394891"><ele>727.0</ele><time>2026-05-02T16:43:22.712Z</time></trkpt><trkpt lat="43.9998939" lon="10.8396425"><ele>726.75</ele><time>2026-05-02T16:43:23.716Z</time></trkpt><trkpt lat="44.0000322" lon="10.8397668"><ele>726.5</ele><time>2026-05-02T16:43:24.717Z</time></trkpt><trkpt lat="44.000153" lon="10.8398956"><ele>726.25</ele><time>2026-05-02T16:43:25.707Z</time></trkpt><trkpt lat="44.0002193" lon="10.8400296"><ele>726.0</ele><time>2026-05-02T16:43:26.71Z</time></trkpt><trkpt lat="44.0002385" lon="10.8401835"><ele>726.0</ele><time>2026-05-02T16:43:27.714Z</time></trkpt><trkpt lat="44.0002248" lon="10.840347"><ele>726.0</ele><time>2026-05-02T16:43:28.711Z</time></trkpt><trkpt lat="44.0001944" lon="10.8405129"><ele>726.0</ele><time>2026-05-02T16:43:29.727Z</time></trkpt><trkpt lat="44.0001297" lon="10.8406984"><ele>726.0</ele><time>2026-05-02T16:43:30.712Z</time></trkpt><trkpt lat="44.0000472" lon="10.8408935"><ele>730.6666666666666</ele><time>2026-05-02T16:43:31.712Z</time></trkpt><trkpt lat="43.9999204" lon="10.8410879"><ele>735.3333333333333</ele><time>2026-05-02T16:43:32.715Z</time></trkpt><trkpt lat="43.9997908" lon="10.8412671"><ele>740.0</ele><time>2026-05-02T16:43:33.716Z</time></trkpt><trkpt lat="43.9996589" lon="10.8414378"><ele>740.0</ele><time>2026-05-02T16:43:34.713Z</time></trkpt><trkpt lat="43.9995189" lon="10.8415905"><ele>740.0</ele><time>2026-05-02T16:43:35.705Z</time></trkpt><trkpt lat="43.999399" lon="10.8417161"><ele>740.0</ele><time>2026-05-02T16:43:36.705Z</time></trkpt><trkpt lat="43.9993127" lon="10.8418239"><ele>740.0</ele><time>2026-05-02T16:43:37.713Z</time></trkpt><trkpt lat="43.9992377" lon="10.8419562"><ele>741.0</ele><time>2026-05-02T16:43:38.712Z</time></trkpt><trkpt lat="43.9991937" lon="10.8421298"><ele>742.0</ele><time>2026-05-02T16:43:39.714Z</time></trkpt><trkpt lat="43.999178" lon="10.8423382"><ele>743.0</ele><time>2026-05-02T16:43:40.722Z</time></trkpt><trkpt lat="43.999163" lon="10.8425777"><ele>732.3333333333333</ele><time>2026-05-02T16:43:41.709Z</time></trkpt><trkpt lat="43.9991617" lon="10.8428248"><ele>721.6666666666666</ele><time>2026-05-02T16:43:42.711Z</time></trkpt><trkpt lat="43.9991608" lon="10.8430772"><ele>711.0</ele><time>2026-05-02T16:43:43.717Z</time></trkpt><trkpt lat="43.9991615" lon="10.8433174"><ele>712.75</ele><time>2026-05-02T16:43:44.709Z</time></trkpt><trkpt lat="43.9991604" lon="10.8435285"><ele>714.5</ele><time>2026-05-02T16:43:45.712Z</time></trkpt><trkpt lat="43.9991509" lon="10.8436994"><ele>716.25</ele><time>2026-05-02T16:43:46.719Z</time></trkpt><trkpt lat="43.999128" lon="10.8438386"><ele>718.0</ele><time>2026-05-02T16:43:47.711Z</time></trkpt><trkpt lat="43.9990793" lon="10.8439518"><ele>718.0</ele><time>2026-05-02T16:43:48.706Z</time></trkpt><trkpt lat="43.9990445" lon="10.8440522"><ele>718.0</ele><time>2026-05-02T16:43:49.712Z</time></trkpt><trkpt lat="43.9989644" lon="10.844089"><ele>718.0</ele><time>2026-05-02T16:43:50.709Z</time></trkpt><trkpt lat="43.9989012" lon="10.8441129"><ele>718.0</ele><time>2026-05-02T16:43:51.714Z</time></trkpt><trkpt lat="43.9987986" lon="10.8439199"><ele>718.0</ele><time>2026-05-02T16:43:52.714Z</time></trkpt><trkpt lat="43.9987574" lon="10.843803"><ele>718.0</ele><time>2026-05-02T16:43:53.712Z</time></trkpt><trkpt lat="43.9987523" lon="10.8436624"><ele>718.0</ele><time>2026-05-02T16:43:54.717Z</time></trkpt><trkpt lat="43.9987774" lon="10.8434953"><ele>718.0</ele><time>2026-05-02T16:43:55.728Z</time></trkpt><trkpt lat="43.9988157" lon="10.8433051"><ele>718.0</ele><time>2026-05-02T16:43:56.71Z</time></trkpt><trkpt lat="43.9988206" lon="10.8430861"><ele>718.0</ele><time>2026-05-02T16:43:57.718Z</time></trkpt><trkpt lat="43.998831" lon="10.8428676"><ele>718.0</ele><time>2026-05-02T16:43:58.716Z</time></trkpt><trkpt lat="43.998805" lon="10.8426668"><ele>718.0</ele><time>2026-05-02T16:43:59.706Z</time></trkpt><trkpt lat="43.9987777" lon="10.8424951"><ele>718.0</ele><time>2026-05-02T16:44:00.717Z</time></trkpt><trkpt lat="43.9987341" lon="10.8423605"><ele>718.0</ele><time>2026-05-02T16:44:01.71Z</time></trkpt><trkpt lat="43.9986851" lon="10.8422389"><ele>718.0</ele><time>2026-05-02T16:44:02.731Z</time></trkpt><trkpt lat="43.9986355" lon="10.8421433"><ele>718.0</ele><time>2026-05-02T16:44:03.717Z</time></trkpt><trkpt lat="43.9985621" lon="10.842069"><ele>718.0</ele><time>2026-05-02T16:44:04.719Z</time></trkpt><trkpt lat="43.9984384" lon="10.8421019"><ele>718.0</ele><time>2026-05-02T16:44:05.716Z</time></trkpt><trkpt lat="43.9983449" lon="10.8421305"><ele>718.0</ele><time>2026-05-02T16:44:06.711Z</time></trkpt><trkpt lat="43.9984008" lon="10.8425335"><ele>718.0</ele><time>2026-05-02T16:44:07.712Z</time></trkpt><trkpt lat="43.9984005" lon="10.8427053"><ele>718.0</ele><time>2026-05-02T16:44:08.717Z</time></trkpt><trkpt lat="43.9984095" lon="10.8429072"><ele>715.6666666666667</ele><time>2026-05-02T16:44:09.71Z</time></trkpt><trkpt lat="43.9983883" lon="10.8431139"><ele>713.3333333333334</ele><time>2026-05-02T16:44:10.719Z</time></trkpt><trkpt lat="43.9983305" lon="10.8433172"><ele>711.0</ele><time>2026-05-02T16:44:11.716Z</time></trkpt><trkpt lat="43.9982735" lon="10.8435329"><ele>703.0</ele><time>2026-05-02T16:44:12.716Z</time></trkpt><trkpt lat="43.9982003" lon="10.8437513"><ele>695.0</ele><time>2026-05-02T16:44:13.713Z</time></trkpt><trkpt lat="43.9981153" lon="10.8439998"><ele>687.0</ele><time>2026-05-02T16:44:14.719Z</time></trkpt><trkpt lat="43.9980285" lon="10.844238"><ele>688.6666666666666</ele><time>2026-05-02T16:44:15.711Z</time></trkpt><trkpt lat="43.9979493" lon="10.844496"><ele>690.3333333333333</ele><time>2026-05-02T16:44:16.711Z</time></trkpt><trkpt lat="43.9978706" lon="10.8447399"><ele>692.0</ele><time>2026-05-02T16:44:17.719Z</time></trkpt><trkpt lat="43.9977898" lon="10.8449747"><ele>695.0</ele><time>2026-05-02T16:44:18.712Z</time></trkpt><trkpt lat="43.9977065" lon="10.8452033"><ele>698.0</ele><time>2026-05-02T16:44:19.706Z</time></trkpt><trkpt lat="43.9976371" lon="10.8454117"><ele>701.0</ele><time>2026-05-02T16:44:20.708Z</time></trkpt><trkpt lat="43.9975588" lon="10.8456335"><ele>692.3333333333333</ele><time>2026-05-02T16:44:21.71Z</time></trkpt><trkpt lat="43.9974934" lon="10.8458368"><ele>683.6666666666666</ele><time>2026-05-02T16:44:22.709Z</time></trkpt><trkpt lat="43.9974268" lon="10.8460496"><ele>675.0</ele><time>2026-05-02T16:44:23.71Z</time></trkpt><trkpt lat="43.99738" lon="10.8462711"><ele>675.0</ele><time>2026-05-02T16:44:24.71Z</time></trkpt><trkpt lat="43.9973511" lon="10.846506"><ele>675.0</ele><time>2026-05-02T16:44:25.72Z</time></trkpt><trkpt lat="43.9973146" lon="10.846738"><ele>675.0</ele><time>2026-05-02T16:44:26.718Z</time></trkpt><trkpt lat="43.9972935" lon="10.846981"><ele>672.3333333333334</ele><time>2026-05-02T16:44:27.712Z</time></trkpt><trkpt lat="43.9972712" lon="10.8472198"><ele>669.6666666666667</ele><time>2026-05-02T16:44:28.723Z</time></trkpt><trkpt lat="43.997251" lon="10.8474577"><ele>667.0</ele><time>2026-05-02T16:44:29.711Z</time></trkpt><trkpt lat="43.9972237" lon="10.8476832"><ele>666.25</ele><time>2026-05-02T16:44:30.713Z</time></trkpt><trkpt lat="43.9971976" lon="10.8478887"><ele>665.5</ele><time>2026-05-02T16:44:31.726Z</time></trkpt><trkpt lat="43.9971511" lon="10.848073"><ele>664.75</ele><time>2026-05-02T16:44:32.714Z</time></trkpt><trkpt lat="43.9970829" lon="10.8482315"><ele>664.0</ele><time>2026-05-02T16:44:33.716Z</time></trkpt><trkpt lat="43.9969784" lon="10.8483624"><ele>668.0</ele><time>2026-05-02T16:44:34.718Z</time></trkpt><trkpt lat="43.996844" lon="10.8484973"><ele>672.0</ele><time>2026-05-02T16:44:35.718Z</time></trkpt><trkpt lat="43.9967156" lon="10.848608"><ele>676.0</ele><time>2026-05-02T16:44:36.709Z</time></trkpt><trkpt lat="43.9966076" lon="10.8487378"><ele>669.0</ele><time>2026-05-02T16:44:37.715Z</time></trkpt><trkpt lat="43.9965031" lon="10.8488626"><ele>662.0</ele><time>2026-05-02T16:44:38.711Z</time></trkpt><trkpt lat="43.9964075" lon="10.8489774"><ele>655.0</ele><time>2026-05-02T16:44:39.715Z</time></trkpt><trkpt lat="43.9963517" lon="10.8491597"><ele>648.0</ele><time>2026-05-02T16:44:40.71Z</time></trkpt><trkpt lat="43.996378" lon="10.8493996"><ele>648.0</ele><time>2026-05-02T16:44:41.71Z</time></trkpt><trkpt lat="43.9963914" lon="10.8496309"><ele>648.0</ele><time>2026-05-02T16:44:42.714Z</time></trkpt><trkpt lat="43.9963946" lon="10.8498539"><ele>648.0</ele><time>2026-05-02T16:44:43.709Z</time></trkpt><trkpt lat="43.996375" lon="10.8500606"><ele>649.25</ele><time>2026-05-02T16:44:44.708Z</time></trkpt><trkpt lat="43.9963229" lon="10.8502533"><ele>650.5</ele><time>2026-05-02T16:44:45.706Z</time></trkpt><trkpt lat="43.9962709" lon="10.8504291"><ele>651.75</ele><time>2026-05-02T16:44:46.718Z</time></trkpt><trkpt lat="43.9961929" lon="10.8505989"><ele>653.0</ele><time>2026-05-02T16:44:47.708Z</time></trkpt><trkpt lat="43.9961042" lon="10.8507626"><ele>653.0</ele><time>2026-05-02T16:44:48.714Z</time></trkpt><trkpt lat="43.9959412" lon="10.8508389"><ele>653.0</ele><time>2026-05-02T16:44:49.718Z</time></trkpt><trkpt lat="43.9958264" lon="10.8509494"><ele>653.0</ele><time>2026-05-02T16:44:50.71Z</time></trkpt><trkpt lat="43.995761" lon="10.8510605"><ele>653.0</ele><time>2026-05-02T16:44:51.713Z</time></trkpt><trkpt lat="43.9956963" lon="10.8511925"><ele>650.0</ele><time>2026-05-02T16:44:52.716Z</time></trkpt><trkpt lat="43.9956311" lon="10.8513178"><ele>647.0</ele><time>2026-05-02T16:44:53.71Z</time></trkpt><trkpt lat="43.995577" lon="10.8514531"><ele>644.0</ele><time>2026-05-02T16:44:54.716Z</time></trkpt><trkpt lat="43.9955381" lon="10.8516009"><ele>641.0</ele><time>2026-05-02T16:44:55.713Z</time></trkpt><trkpt lat="43.9954824" lon="10.8516768"><ele>638.0</ele><time>2026-05-02T16:44:56.713Z</time></trkpt><trkpt lat="43.9953523" lon="10.8517173"><ele>638.0</ele><time>2026-05-02T16:44:57.709Z</time></trkpt><trkpt lat="43.9952452" lon="10.8517787"><ele>638.0</ele><time>2026-05-02T16:44:58.715Z</time></trkpt><trkpt lat="43.9951353" lon="10.8518509"><ele>638.0</ele><time>2026-05-02T16:44:59.715Z</time></trkpt><trkpt lat="43.9950403" lon="10.8519334"><ele>638.0</ele><time>2026-05-02T16:45:00.716Z</time></trkpt><trkpt lat="43.994954" lon="10.8520214"><ele>634.8</ele><time>2026-05-02T16:45:01.708Z</time></trkpt><trkpt lat="43.9948815" lon="10.8521323"><ele>631.5999999999999</ele><time>2026-05-02T16:45:02.712Z</time></trkpt><trkpt lat="43.9948606" lon="10.8522647"><ele>628.4000000000001</ele><time>2026-05-02T16:45:03.711Z</time></trkpt><trkpt lat="43.9948139" lon="10.8523898"><ele>625.2</ele><time>2026-05-02T16:45:04.725Z</time></trkpt><trkpt lat="43.9947712" lon="10.8525203"><ele>622.0</ele><time>2026-05-02T16:45:05.713Z</time></trkpt><trkpt lat="43.9947242" lon="10.8526474"><ele>622.0</ele><time>2026-05-02T16:45:06.71Z</time></trkpt><trkpt lat="43.9946647" lon="10.8527642"><ele>622.0</ele><time>2026-05-02T16:45:07.723Z</time></trkpt><trkpt lat="43.9945885" lon="10.8528537"><ele>622.0</ele><time>2026-05-02T16:45:08.711Z</time></trkpt><trkpt lat="43.9945242" lon="10.852924"><ele>622.0</ele><time>2026-05-02T16:45:09.712Z</time></trkpt><trkpt lat="43.9944213" lon="10.8529417"><ele>622.0</ele><time>2026-05-02T16:45:10.71Z</time></trkpt><trkpt lat="43.9943347" lon="10.8529581"><ele>622.0</ele><time>2026-05-02T16:45:11.726Z</time></trkpt><trkpt lat="43.9942602" lon="10.8529859"><ele>622.0</ele><time>2026-05-02T16:45:12.707Z</time></trkpt><trkpt lat="43.9941955" lon="10.8530464"><ele>622.0</ele><time>2026-05-02T16:45:13.723Z</time></trkpt><trkpt lat="43.9941415" lon="10.8532015"><ele>622.0</ele><time>2026-05-02T16:45:15.715Z</time></trkpt><trkpt lat="43.9941207" lon="10.8533221"><ele>622.0</ele><time>2026-05-02T16:45:16.721Z</time></trkpt><trkpt lat="43.9940942" lon="10.8534502"><ele>620.8333333333334</ele><time>2026-05-02T16:45:17.707Z</time></trkpt><trkpt lat="43.994056" lon="10.8535685"><ele>619.6666666666667</ele><time>2026-05-02T16:45:18.713Z</time></trkpt><trkpt lat="43.9940252" lon="10.853695"><ele>618.5</ele><time>2026-05-02T16:45:19.714Z</time></trkpt><trkpt lat="43.9939983" lon="10.853816"><ele>617.3333333333334</ele><time>2026-05-02T16:45:20.711Z</time></trkpt><trkpt lat="43.9939568" lon="10.8539273"><ele>616.1666666666666</ele><time>2026-05-02T16:45:21.738Z</time></trkpt><trkpt lat="43.9939156" lon="10.8540129"><ele>615.0</ele><time>2026-05-02T16:45:22.712Z</time></trkpt><trkpt lat="43.9938556" lon="10.8540938"><ele>615.0</ele><time>2026-05-02T16:45:23.709Z</time></trkpt><trkpt lat="43.993783" lon="10.8541465"><ele>615.0</ele><time>2026-05-02T16:45:24.714Z</time></trkpt><trkpt lat="43.9936719" lon="10.8541303"><ele>615.0</ele><time>2026-05-02T16:45:25.715Z</time></trkpt><trkpt lat="43.9935662" lon="10.8541284"><ele>615.0</ele><time>2026-05-02T16:45:26.736Z</time></trkpt><trkpt lat="43.9934638" lon="10.8541271"><ele>615.0</ele><time>2026-05-02T16:45:27.71Z</time></trkpt><trkpt lat="43.993332" lon="10.8541169"><ele>612.25</ele><time>2026-05-02T16:45:28.713Z</time></trkpt><trkpt lat="43.9931997" lon="10.8541092"><ele>609.5</ele><time>2026-05-02T16:45:29.714Z</time></trkpt><trkpt lat="43.9930769" lon="10.8541251"><ele>606.75</ele><time>2026-05-02T16:45:30.71Z</time></trkpt><trkpt lat="43.9929651" lon="10.8541307"><ele>604.0</ele><time>2026-05-02T16:45:31.713Z</time></trkpt><trkpt lat="43.9928647" lon="10.8541364"><ele>604.0</ele><time>2026-05-02T16:45:32.712Z</time></trkpt><trkpt lat="43.9927892" lon="10.854134"><ele>604.0</ele><time>2026-05-02T16:45:33.711Z</time></trkpt><trkpt lat="43.9926972" lon="10.8541498"><ele>604.0</ele><time>2026-05-02T16:45:34.723Z</time></trkpt><trkpt lat="43.992622" lon="10.8541453"><ele>604.0</ele><time>2026-05-02T16:45:35.71Z</time></trkpt><trkpt lat="43.9925341" lon="10.8541482"><ele>604.0</ele><time>2026-05-02T16:45:36.72Z</time></trkpt><trkpt lat="43.9924435" lon="10.8541501"><ele>604.0</ele><time>2026-05-02T16:45:37.713Z</time></trkpt><trkpt lat="43.992358" lon="10.854157"><ele>602.8333333333334</ele><time>2026-05-02T16:45:38.711Z</time></trkpt><trkpt lat="43.9922731" lon="10.8541537"><ele>601.6666666666667</ele><time>2026-05-02T16:45:39.722Z</time></trkpt><trkpt lat="43.9921893" lon="10.8541561"><ele>600.5</ele><time>2026-05-02T16:45:40.717Z</time></trkpt><trkpt lat="43.9920944" lon="10.8541669"><ele>599.3333333333334</ele><time>2026-05-02T16:45:41.729Z</time></trkpt><trkpt lat="43.9920049" lon="10.8541696"><ele>598.1666666666666</ele><time>2026-05-02T16:45:42.717Z</time></trkpt><trkpt lat="43.9919096" lon="10.8541791"><ele>597.0</ele><time>2026-05-02T16:45:43.71Z</time></trkpt><trkpt lat="43.9918084" lon="10.8541877"><ele>597.0</ele><time>2026-05-02T16:45:44.712Z</time></trkpt><trkpt lat="43.9916995" lon="10.8542136"><ele>597.0</ele><time>2026-05-02T16:45:45.709Z</time></trkpt><trkpt lat="43.991611" lon="10.8542188"><ele>597.0</ele><time>2026-05-02T16:45:46.711Z</time></trkpt><trkpt lat="43.9915344" lon="10.8542212"><ele>597.0</ele><time>2026-05-02T16:45:47.726Z</time></trkpt><trkpt lat="43.9914741" lon="10.8542545"><ele>597.0</ele><time>2026-05-02T16:45:48.709Z</time></trkpt><trkpt lat="43.9914186" lon="10.8543082"><ele>597.0</ele><time>2026-05-02T16:45:49.714Z</time></trkpt><trkpt lat="43.991354" lon="10.8543588"><ele>597.0</ele><time>2026-05-02T16:45:50.715Z</time></trkpt><trkpt lat="43.9913326" lon="10.8545005"><ele>597.0</ele><time>2026-05-02T16:45:51.709Z</time></trkpt><trkpt lat="43.9912992" lon="10.8546062"><ele>597.0</ele><time>2026-05-02T16:45:52.709Z</time></trkpt><trkpt lat="43.9912634" lon="10.8547169"><ele>597.0</ele><time>2026-05-02T16:45:53.719Z</time></trkpt><trkpt lat="43.9912099" lon="10.8548326"><ele>597.0</ele><time>2026-05-02T16:45:54.717Z</time></trkpt><trkpt lat="43.9911563" lon="10.8549439"><ele>597.0</ele><time>2026-05-02T16:45:55.711Z</time></trkpt><trkpt lat="43.9910877" lon="10.8550484"><ele>597.0</ele><time>2026-05-02T16:45:56.72Z</time></trkpt><trkpt lat="43.9910026" lon="10.8551399"><ele>597.0</ele><time>2026-05-02T16:45:57.713Z</time></trkpt><trkpt lat="43.9909043" lon="10.8552238"><ele>597.0</ele><time>2026-05-02T16:45:58.711Z</time></trkpt><trkpt lat="43.9908019" lon="10.8552833"><ele>597.0</ele><time>2026-05-02T16:45:59.706Z</time></trkpt><trkpt lat="43.9906994" lon="10.855329"><ele>596.75</ele><time>2026-05-02T16:46:00.709Z</time></trkpt><trkpt lat="43.9905742" lon="10.8553456"><ele>596.5</ele><time>2026-05-02T16:46:01.715Z</time></trkpt><trkpt lat="43.9904517" lon="10.8553629"><ele>596.25</ele><time>2026-05-02T16:46:02.72Z</time></trkpt><trkpt lat="43.9903395" lon="10.8553797"><ele>596.0</ele><time>2026-05-02T16:46:03.711Z</time></trkpt><trkpt lat="43.9902188" lon="10.8554133"><ele>596.0</ele><time>2026-05-02T16:46:04.709Z</time></trkpt><trkpt lat="43.9901031" lon="10.8554764"><ele>596.0</ele><time>2026-05-02T16:46:05.713Z</time></trkpt><trkpt lat="43.9899635" lon="10.855552"><ele>596.0</ele><time>2026-05-02T16:46:06.706Z</time></trkpt><trkpt lat="43.9898397" lon="10.8557924"><ele>597.25</ele><time>2026-05-02T16:46:07.717Z</time></trkpt><trkpt lat="43.989719" lon="10.8559385"><ele>598.5</ele><time>2026-05-02T16:46:08.715Z</time></trkpt><trkpt lat="43.9895899" lon="10.8560403"><ele>599.75</ele><time>2026-05-02T16:46:09.71Z</time></trkpt><trkpt lat="43.9894606" lon="10.8561159"><ele>601.0</ele><time>2026-05-02T16:46:10.709Z</time></trkpt><trkpt lat="43.9892996" lon="10.8561616"><ele>595.3333333333334</ele><time>2026-05-02T16:46:11.71Z</time></trkpt><trkpt lat="43.9891083" lon="10.8561783"><ele>589.6666666666666</ele><time>2026-05-02T16:46:12.713Z</time></trkpt><trkpt lat="43.9889073" lon="10.8561909"><ele>584.0</ele><time>2026-05-02T16:46:13.713Z</time></trkpt><trkpt lat="43.9887039" lon="10.8562044"><ele>584.0</ele><time>2026-05-02T16:46:14.723Z</time></trkpt><trkpt lat="43.9884843" lon="10.8562599"><ele>584.0</ele><time>2026-05-02T16:46:15.711Z</time></trkpt><trkpt lat="43.9882721" lon="10.856292"><ele>584.0</ele><time>2026-05-02T16:46:16.714Z</time></trkpt><trkpt lat="43.9880594" lon="10.8563332"><ele>578.6666666666666</ele><time>2026-05-02T16:46:17.718Z</time></trkpt><trkpt lat="43.9878506" lon="10.8564046"><ele>573.3333333333334</ele><time>2026-05-02T16:46:18.738Z</time></trkpt><trkpt lat="43.9876607" lon="10.8564673"><ele>568.0</ele><time>2026-05-02T16:46:19.712Z</time></trkpt><trkpt lat="43.9875058" lon="10.8566453"><ele>570.25</ele><time>2026-05-02T16:46:20.714Z</time></trkpt><trkpt lat="43.9873617" lon="10.8567721"><ele>572.5</ele><time>2026-05-02T16:46:21.706Z</time></trkpt><trkpt lat="43.9872345" lon="10.8568603"><ele>574.75</ele><time>2026-05-02T16:46:22.708Z</time></trkpt><trkpt lat="43.987137" lon="10.8569084"><ele>577.0</ele><time>2026-05-02T16:46:23.71Z</time></trkpt><trkpt lat="43.9870393" lon="10.8569253"><ele>577.0</ele><time>2026-05-02T16:46:24.719Z</time></trkpt><trkpt lat="43.9869745" lon="10.8568381"><ele>577.0</ele><time>2026-05-02T16:46:25.715Z</time></trkpt><trkpt lat="43.9868909" lon="10.8567715"><ele>577.0</ele><time>2026-05-02T16:46:26.712Z</time></trkpt><trkpt lat="43.9868776" lon="10.8566255"><ele>577.0</ele><time>2026-05-02T16:46:27.719Z</time></trkpt><trkpt lat="43.9869287" lon="10.8564728"><ele>577.0</ele><time>2026-05-02T16:46:28.715Z</time></trkpt><trkpt lat="43.9870202" lon="10.8563349"><ele>570.3333333333334</ele><time>2026-05-02T16:46:29.71Z</time></trkpt><trkpt lat="43.9871363" lon="10.8562183"><ele>563.6666666666666</ele><time>2026-05-02T16:46:30.723Z</time></trkpt><trkpt lat="43.9872818" lon="10.8561128"><ele>557.0</ele><time>2026-05-02T16:46:31.71Z</time></trkpt><trkpt lat="43.9874144" lon="10.8560042"><ele>555.0</ele><time>2026-05-02T16:46:32.707Z</time></trkpt><trkpt lat="43.9875204" lon="10.8559064"><ele>553.0</ele><time>2026-05-02T16:46:33.704Z</time></trkpt><trkpt lat="43.9876194" lon="10.8558082"><ele>551.0</ele><time>2026-05-02T16:46:34.705Z</time></trkpt><trkpt lat="43.9876517" lon="10.855654"><ele>549.0</ele><time>2026-05-02T16:46:35.714Z</time></trkpt><trkpt lat="43.9876701" lon="10.8555102"><ele>549.0</ele><time>2026-05-02T16:46:36.708Z</time></trkpt><trkpt lat="43.9877123" lon="10.8553837"><ele>549.0</ele><time>2026-05-02T16:46:37.712Z</time></trkpt><trkpt lat="43.9876939" lon="10.8552396"><ele>549.0</ele><time>2026-05-02T16:46:38.709Z</time></trkpt><trkpt lat="43.9876788" lon="10.8551139"><ele>549.0</ele><time>2026-05-02T16:46:39.712Z</time></trkpt><trkpt lat="43.9876292" lon="10.8549932"><ele>549.0</ele><time>2026-05-02T16:46:40.714Z</time></trkpt><trkpt lat="43.98759" lon="10.8549004"><ele>545.5</ele><time>2026-05-02T16:46:41.714Z</time></trkpt><trkpt lat="43.9873138" lon="10.855064"><ele>542.0</ele><time>2026-05-02T16:46:42.711Z</time></trkpt><trkpt lat="43.9870883" lon="10.8551658"><ele>542.0</ele><time>2026-05-02T16:46:43.714Z</time></trkpt><trkpt lat="43.986943" lon="10.8552259"><ele>542.0</ele><time>2026-05-02T16:46:44.714Z</time></trkpt><trkpt lat="43.9867485" lon="10.855339"><ele>542.0</ele><time>2026-05-02T16:46:45.709Z</time></trkpt><trkpt lat="43.9865773" lon="10.8554768"><ele>541.6666666666666</ele><time>2026-05-02T16:46:46.718Z</time></trkpt><trkpt lat="43.986439" lon="10.855762"><ele>541.3333333333334</ele><time>2026-05-02T16:46:47.711Z</time></trkpt><trkpt lat="43.9862943" lon="10.8558982"><ele>541.0</ele><time>2026-05-02T16:46:48.711Z</time></trkpt><trkpt lat="43.9861631" lon="10.8560621"><ele>541.0</ele><time>2026-05-02T16:46:49.723Z</time></trkpt><trkpt lat="43.9860614" lon="10.8561833"><ele>541.0</ele><time>2026-05-02T16:46:50.711Z</time></trkpt><trkpt lat="43.985961" lon="10.8563342"><ele>541.0</ele><time>2026-05-02T16:46:51.714Z</time></trkpt><trkpt lat="43.9858522" lon="10.8564656"><ele>541.0</ele><time>2026-05-02T16:46:52.717Z</time></trkpt><trkpt lat="43.9857725" lon="10.8566131"><ele>534.25</ele><time>2026-05-02T16:46:53.71Z</time></trkpt><trkpt lat="43.9857001" lon="10.856749"><ele>527.5</ele><time>2026-05-02T16:46:54.712Z</time></trkpt><trkpt lat="43.9856443" lon="10.8568933"><ele>520.75</ele><time>2026-05-02T16:46:55.717Z</time></trkpt><trkpt lat="43.9855997" lon="10.8570438"><ele>514.0</ele><time>2026-05-02T16:46:56.713Z</time></trkpt><trkpt lat="43.9855969" lon="10.8571969"><ele>514.0</ele><time>2026-05-02T16:46:57.713Z</time></trkpt><trkpt lat="43.9856057" lon="10.8573743"><ele>514.0</ele><time>2026-05-02T16:46:58.712Z</time></trkpt><trkpt lat="43.9856578" lon="10.8575766"><ele>514.0</ele><time>2026-05-02T16:46:59.715Z</time></trkpt><trkpt lat="43.9856904" lon="10.8577732"><ele>514.0</ele><time>2026-05-02T16:47:00.709Z</time></trkpt><trkpt lat="43.9857467" lon="10.8580289"><ele>508.5</ele><time>2026-05-02T16:47:01.711Z</time></trkpt><trkpt lat="43.9858152" lon="10.8582579"><ele>503.0</ele><time>2026-05-02T16:47:02.712Z</time></trkpt><trkpt lat="43.9859214" lon="10.858406"><ele>497.5</ele><time>2026-05-02T16:47:03.705Z</time></trkpt><trkpt lat="43.9860157" lon="10.8584869"><ele>492.0</ele><time>2026-05-02T16:47:04.713Z</time></trkpt><trkpt lat="43.9860504" lon="10.8586023"><ele>493.8</ele><time>2026-05-02T16:47:05.711Z</time></trkpt><trkpt lat="43.9860359" lon="10.8587264"><ele>495.6</ele><time>2026-05-02T16:47:06.707Z</time></trkpt><trkpt lat="43.9860156" lon="10.8588599"><ele>497.40000000000003</ele><time>2026-05-02T16:47:07.713Z</time></trkpt><trkpt lat="43.9859145" lon="10.858971"><ele>499.20000000000005</ele><time>2026-05-02T16:47:08.716Z</time></trkpt><trkpt lat="43.9858088" lon="10.8590445"><ele>501.0</ele><time>2026-05-02T16:47:09.714Z</time></trkpt><trkpt lat="43.9856839" lon="10.8591056"><ele>501.0</ele><time>2026-05-02T16:47:10.714Z</time></trkpt><trkpt lat="43.9855638" lon="10.8591386"><ele>501.0</ele><time>2026-05-02T16:47:11.716Z</time></trkpt><trkpt lat="43.985449" lon="10.8591895"><ele>501.0</ele><time>2026-05-02T16:47:12.711Z</time></trkpt><trkpt lat="43.9853466" lon="10.8592668"><ele>501.0</ele><time>2026-05-02T16:47:13.711Z</time></trkpt><trkpt lat="43.985236" lon="10.8593756"><ele>496.66666666666663</ele><time>2026-05-02T16:47:14.712Z</time></trkpt><trkpt lat="43.9851299" lon="10.8595251"><ele>492.3333333333333</ele><time>2026-05-02T16:47:15.721Z</time></trkpt><trkpt lat="43.9850105" lon="10.8597158"><ele>488.0</ele><time>2026-05-02T16:47:16.71Z</time></trkpt><trkpt lat="43.9848853" lon="10.8599099"><ele>488.0</ele><time>2026-05-02T16:47:17.713Z</time></trkpt><trkpt lat="43.9847568" lon="10.8600726"><ele>488.0</ele><time>2026-05-02T16:47:18.714Z</time></trkpt><trkpt lat="43.9846287" lon="10.8601802"><ele>488.0</ele><time>2026-05-02T16:47:19.713Z</time></trkpt><trkpt lat="43.984491" lon="10.8602532"><ele>486.0</ele><time>2026-05-02T16:47:20.714Z</time></trkpt><trkpt lat="43.9843593" lon="10.8603107"><ele>484.0</ele><time>2026-05-02T16:47:21.714Z</time></trkpt><trkpt lat="43.9842478" lon="10.8603792"><ele>482.0</ele><time>2026-05-02T16:47:22.719Z</time></trkpt><trkpt lat="43.9841449" lon="10.8604769"><ele>480.0</ele><time>2026-05-02T16:47:23.711Z</time></trkpt><trkpt lat="43.9840485" lon="10.8606026"><ele>480.0</ele><time>2026-05-02T16:47:24.715Z</time></trkpt><trkpt lat="43.9839791" lon="10.860801"><ele>480.0</ele><time>2026-05-02T16:47:25.71Z</time></trkpt><trkpt lat="43.9838756" lon="10.8609616"><ele>480.0</ele><time>2026-05-02T16:47:26.709Z</time></trkpt><trkpt lat="43.9837663" lon="10.8610848"><ele>476.66666666666663</ele><time>2026-05-02T16:47:27.718Z</time></trkpt><trkpt lat="43.9836273" lon="10.8611703"><ele>473.3333333333333</ele><time>2026-05-02T16:47:28.71Z</time></trkpt><trkpt lat="43.9834838" lon="10.8612319"><ele>470.0</ele><time>2026-05-02T16:47:29.717Z</time></trkpt><trkpt lat="43.9833255" lon="10.8612879"><ele>470.0</ele><time>2026-05-02T16:47:30.71Z</time></trkpt><trkpt lat="43.9831866" lon="10.861346"><ele>470.0</ele><time>2026-05-02T16:47:31.711Z</time></trkpt><trkpt lat="43.9830976" lon="10.8614081"><ele>470.0</ele><time>2026-05-02T16:47:32.714Z</time></trkpt><trkpt lat="43.9830312" lon="10.861475"><ele>470.0</ele><time>2026-05-02T16:47:33.725Z</time></trkpt><trkpt lat="43.9829995" lon="10.8616083"><ele>470.0</ele><time>2026-05-02T16:47:35.713Z</time></trkpt><trkpt lat="43.9829822" lon="10.8616953"><ele>472.16666666666663</ele><time>2026-05-02T16:47:38.71Z</time></trkpt><trkpt lat="43.9829792" lon="10.8618671"><ele>474.3333333333333</ele><time>2026-05-02T16:47:42.713Z</time></trkpt><trkpt lat="43.9829586" lon="10.8619521"><ele>476.5</ele><time>2026-05-02T16:47:43.71Z</time></trkpt><trkpt lat="43.9829484" lon="10.8620865"><ele>478.66666666666663</ele><time>2026-05-02T16:47:44.714Z</time></trkpt><trkpt lat="43.9829281" lon="10.8621995"><ele>480.8333333333333</ele><time>2026-05-02T16:47:45.713Z</time></trkpt><trkpt lat="43.9829009" lon="10.8622799"><ele>483.0</ele><time>2026-05-02T16:47:46.711Z</time></trkpt><trkpt lat="43.9828532" lon="10.8623595"><ele>483.0</ele><time>2026-05-02T16:47:47.738Z</time></trkpt><trkpt lat="43.9827954" lon="10.8624175"><ele>483.0</ele><time>2026-05-02T16:47:48.711Z</time></trkpt><trkpt lat="43.9827355" lon="10.8624574"><ele>483.0</ele><time>2026-05-02T16:47:49.712Z</time></trkpt><trkpt lat="43.9826662" lon="10.862515"><ele>483.0</ele><time>2026-05-02T16:47:51.711Z</time></trkpt><trkpt lat="43.9826022" lon="10.8626635"><ele>483.0</ele><time>2026-05-02T16:48:09.707Z</time></trkpt><trkpt lat="43.9825485" lon="10.8627116"><ele>483.0</ele><time>2026-05-02T16:48:10.713Z</time></trkpt><trkpt lat="43.9824731" lon="10.8627623"><ele>481.59999999999997</ele><time>2026-05-02T16:48:11.711Z</time></trkpt><trkpt lat="43.9823903" lon="10.8628156"><ele>480.19999999999993</ele><time>2026-05-02T16:48:12.711Z</time></trkpt><trkpt lat="43.9822853" lon="10.8628526"><ele>478.8</ele><time>2026-05-02T16:48:13.712Z</time></trkpt><trkpt lat="43.9821891" lon="10.8629396"><ele>477.4</ele><time>2026-05-02T16:48:14.714Z</time></trkpt><trkpt lat="43.9820923" lon="10.8630243"><ele>476.0</ele><time>2026-05-02T16:48:15.715Z</time></trkpt><trkpt lat="43.9819937" lon="10.8631087"><ele>476.0</ele><time>2026-05-02T16:48:16.716Z</time></trkpt><trkpt lat="43.9818825" lon="10.8631507"><ele>476.0</ele><time>2026-05-02T16:48:17.71Z</time></trkpt><trkpt lat="43.9817699" lon="10.8631746"><ele>476.0</ele><time>2026-05-02T16:48:18.708Z</time></trkpt><trkpt lat="43.9816636" lon="10.8632128"><ele>476.0</ele><time>2026-05-02T16:48:19.712Z</time></trkpt><trkpt lat="43.9815457" lon="10.8633028"><ele>469.0</ele><time>2026-05-02T16:48:20.713Z</time></trkpt><trkpt lat="43.9814308" lon="10.8633784"><ele>462.0</ele><time>2026-05-02T16:48:21.715Z</time></trkpt><trkpt lat="43.9813117" lon="10.863394"><ele>455.0</ele><time>2026-05-02T16:48:22.713Z</time></trkpt><trkpt lat="43.9811748" lon="10.8633924"><ele>448.0</ele><time>2026-05-02T16:48:23.713Z</time></trkpt><trkpt lat="43.9810539" lon="10.8634178"><ele>447.5</ele><time>2026-05-02T16:48:24.713Z</time></trkpt><trkpt lat="43.9809283" lon="10.8634748"><ele>447.0</ele><time>2026-05-02T16:48:25.709Z</time></trkpt><trkpt lat="43.9808166" lon="10.8635489"><ele>446.5</ele><time>2026-05-02T16:48:26.712Z</time></trkpt><trkpt lat="43.9807129" lon="10.8636255"><ele>446.0</ele><time>2026-05-02T16:48:27.72Z</time></trkpt><trkpt lat="43.9806151" lon="10.8637251"><ele>446.0</ele><time>2026-05-02T16:48:28.717Z</time></trkpt><trkpt lat="43.9805365" lon="10.8638338"><ele>446.0</ele><time>2026-05-02T16:48:29.716Z</time></trkpt><trkpt lat="43.9804727" lon="10.8639552"><ele>446.0</ele><time>2026-05-02T16:48:30.707Z</time></trkpt><trkpt lat="43.98039" lon="10.8640788"><ele>446.0</ele><time>2026-05-02T16:48:31.726Z</time></trkpt><trkpt lat="43.9804161" lon="10.8642927"><ele>446.0</ele><time>2026-05-02T16:48:32.713Z</time></trkpt><trkpt lat="43.980416" lon="10.8644674"><ele>446.0</ele><time>2026-05-02T16:48:33.708Z</time></trkpt><trkpt lat="43.9804257" lon="10.8646626"><ele>446.0</ele><time>2026-05-02T16:48:34.721Z</time></trkpt><trkpt lat="43.9804267" lon="10.8648431"><ele>446.0</ele><time>2026-05-02T16:48:35.71Z</time></trkpt><trkpt lat="43.9804199" lon="10.8650193"><ele>443.0</ele><time>2026-05-02T16:48:36.713Z</time></trkpt><trkpt lat="43.9804038" lon="10.8651752"><ele>440.0</ele><time>2026-05-02T16:48:37.711Z</time></trkpt><trkpt lat="43.9804044" lon="10.8653434"><ele>437.0</ele><time>2026-05-02T16:48:38.713Z</time></trkpt><trkpt lat="43.9804255" lon="10.8655247"><ele>434.0</ele><time>2026-05-02T16:48:39.715Z</time></trkpt><trkpt lat="43.9804354" lon="10.865702"><ele>434.0</ele><time>2026-05-02T16:48:40.712Z</time></trkpt><trkpt lat="43.980455" lon="10.8658803"><ele>434.0</ele><time>2026-05-02T16:48:41.721Z</time></trkpt><trkpt lat="43.9804752" lon="10.8660528"><ele>434.0</ele><time>2026-05-02T16:48:42.714Z</time></trkpt><trkpt lat="43.9804822" lon="10.8662275"><ele>434.0</ele><time>2026-05-02T16:48:43.709Z</time></trkpt><trkpt lat="43.9805204" lon="10.8663987"><ele>431.25</ele><time>2026-05-02T16:48:44.714Z</time></trkpt><trkpt lat="43.980547" lon="10.8665658"><ele>428.5</ele><time>2026-05-02T16:48:45.712Z</time></trkpt><trkpt lat="43.9805743" lon="10.8667299"><ele>425.75</ele><time>2026-05-02T16:48:46.71Z</time></trkpt><trkpt lat="43.9806293" lon="10.8668732"><ele>423.0</ele><time>2026-05-02T16:48:47.712Z</time></trkpt><trkpt lat="43.9806808" lon="10.8670075"><ele>422.79999999999995</ele><time>2026-05-02T16:48:48.712Z</time></trkpt><trkpt lat="43.9807318" lon="10.8671323"><ele>422.6</ele><time>2026-05-02T16:48:49.714Z</time></trkpt><trkpt lat="43.9807775" lon="10.8672585"><ele>422.4</ele><time>2026-05-02T16:48:50.723Z</time></trkpt><trkpt lat="43.9808067" lon="10.8674045"><ele>422.20000000000005</ele><time>2026-05-02T16:48:51.711Z</time></trkpt><trkpt lat="43.9808109" lon="10.8675555"><ele>422.0</ele><time>2026-05-02T16:48:52.714Z</time></trkpt><trkpt lat="43.9807921" lon="10.8677175"><ele>422.0</ele><time>2026-05-02T16:48:53.713Z</time></trkpt><trkpt lat="43.9807649" lon="10.867887"><ele>422.0</ele><time>2026-05-02T16:48:54.713Z</time></trkpt><trkpt lat="43.9807379" lon="10.8680613"><ele>422.0</ele><time>2026-05-02T16:48:55.716Z</time></trkpt><trkpt lat="43.9807141" lon="10.8682272"><ele>422.0</ele><time>2026-05-02T16:48:56.712Z</time></trkpt><trkpt lat="43.9806853" lon="10.868407"><ele>423.75</ele><time>2026-05-02T16:48:57.713Z</time></trkpt><trkpt lat="43.9806505" lon="10.8685751"><ele>425.5</ele><time>2026-05-02T16:48:58.709Z</time></trkpt><trkpt lat="43.9806258" lon="10.8687481"><ele>427.25</ele><time>2026-05-02T16:48:59.713Z</time></trkpt><trkpt lat="43.9805876" lon="10.8689132"><ele>429.0</ele><time>2026-05-02T16:49:00.711Z</time></trkpt><trkpt lat="43.980529" lon="10.8690751"><ele>429.0</ele><time>2026-05-02T16:49:01.724Z</time></trkpt><trkpt lat="43.9804589" lon="10.8692255"><ele>429.0</ele><time>2026-05-02T16:49:02.709Z</time></trkpt><trkpt lat="43.9803851" lon="10.8693831"><ele>429.0</ele><time>2026-05-02T16:49:03.713Z</time></trkpt><trkpt lat="43.9802935" lon="10.8695372"><ele>429.0</ele><time>2026-05-02T16:49:04.723Z</time></trkpt><trkpt lat="43.9802206" lon="10.8697069"><ele>432.33333333333337</ele><time>2026-05-02T16:49:05.712Z</time></trkpt><trkpt lat="43.9801041" lon="10.8698653"><ele>435.6666666666667</ele><time>2026-05-02T16:49:06.716Z</time></trkpt><trkpt lat="43.9800118" lon="10.8700414"><ele>439.0</ele><time>2026-05-02T16:49:07.72Z</time></trkpt><trkpt lat="43.9798959" lon="10.870204"><ele>428.0</ele><time>2026-05-02T16:49:08.709Z</time></trkpt><trkpt lat="43.9797845" lon="10.870364"><ele>417.0</ele><time>2026-05-02T16:49:09.711Z</time></trkpt><trkpt lat="43.9796656" lon="10.8705132"><ele>406.0</ele><time>2026-05-02T16:49:10.707Z</time></trkpt><trkpt lat="43.9795499" lon="10.8706237"><ele>406.0</ele><time>2026-05-02T16:49:11.712Z</time></trkpt><trkpt lat="43.9794549" lon="10.8707618"><ele>406.0</ele><time>2026-05-02T16:49:12.71Z</time></trkpt><trkpt lat="43.979386" lon="10.8709255"><ele>406.0</ele><time>2026-05-02T16:49:13.708Z</time></trkpt><trkpt lat="43.9793212" lon="10.8711066"><ele>406.0</ele><time>2026-05-02T16:49:14.712Z</time></trkpt><trkpt lat="43.979274" lon="10.871261"><ele>404.25</ele><time>2026-05-02T16:49:15.714Z</time></trkpt><trkpt lat="43.9792189" lon="10.8714377"><ele>402.5</ele><time>2026-05-02T16:49:16.716Z</time></trkpt><trkpt lat="43.9791755" lon="10.8716339"><ele>400.75</ele><time>2026-05-02T16:49:17.71Z</time></trkpt><trkpt lat="43.9790959" lon="10.8718175"><ele>399.0</ele><time>2026-05-02T16:49:18.709Z</time></trkpt><trkpt lat="43.9790248" lon="10.8719807"><ele>392.75</ele><time>2026-05-02T16:49:19.722Z</time></trkpt><trkpt lat="43.978944" lon="10.8721464"><ele>386.5</ele><time>2026-05-02T16:49:20.715Z</time></trkpt><trkpt lat="43.9788693" lon="10.8723062"><ele>380.25</ele><time>2026-05-02T16:49:21.71Z</time></trkpt><trkpt lat="43.9788021" lon="10.8724625"><ele>374.0</ele><time>2026-05-02T16:49:22.725Z</time></trkpt><trkpt lat="43.9787137" lon="10.8725942"><ele>371.75</ele><time>2026-05-02T16:49:23.712Z</time></trkpt><trkpt lat="43.9786146" lon="10.8726965"><ele>369.5</ele><time>2026-05-02T16:49:24.716Z</time></trkpt><trkpt lat="43.9784936" lon="10.8727648"><ele>367.25</ele><time>2026-05-02T16:49:25.721Z</time></trkpt><trkpt lat="43.9783781" lon="10.8728285"><ele>365.0</ele><time>2026-05-02T16:49:26.709Z</time></trkpt><trkpt lat="43.9782703" lon="10.8729171"><ele>365.0</ele><time>2026-05-02T16:49:27.709Z</time></trkpt><trkpt lat="43.9781806" lon="10.873004"><ele>365.0</ele><time>2026-05-02T16:49:28.71Z</time></trkpt><trkpt lat="43.9781176" lon="10.8731126"><ele>365.0</ele><time>2026-05-02T16:49:29.709Z</time></trkpt><trkpt lat="43.9780824" lon="10.8732531"><ele>365.0</ele><time>2026-05-02T16:49:30.708Z</time></trkpt><trkpt lat="43.9780834" lon="10.8733977"><ele>365.0</ele><time>2026-05-02T16:49:31.71Z</time></trkpt><trkpt lat="43.9781117" lon="10.873534"><ele>363.0</ele><time>2026-05-02T16:49:32.716Z</time></trkpt><trkpt lat="43.978173" lon="10.8736551"><ele>361.0</ele><time>2026-05-02T16:49:33.711Z</time></trkpt><trkpt lat="43.9782599" lon="10.873737"><ele>359.0</ele><time>2026-05-02T16:49:34.722Z</time></trkpt><trkpt lat="43.9783481" lon="10.873806"><ele>357.0</ele><time>2026-05-02T16:49:35.713Z</time></trkpt><trkpt lat="43.9784733" lon="10.8737815"><ele>355.0</ele><time>2026-05-02T16:49:36.713Z</time></trkpt><trkpt lat="43.9785981" lon="10.8737255"><ele>353.0</ele><time>2026-05-02T16:49:37.713Z</time></trkpt><trkpt lat="43.9787288" lon="10.8736607"><ele>351.0</ele><time>2026-05-02T16:49:38.712Z</time></trkpt><trkpt lat="43.9788517" lon="10.8736057"><ele>349.0</ele><time>2026-05-02T16:49:39.712Z</time></trkpt><trkpt lat="43.9789756" lon="10.8735743"><ele>347.0</ele><time>2026-05-02T16:49:40.715Z</time></trkpt><trkpt lat="43.979095" lon="10.8735776"><ele>348.75</ele><time>2026-05-02T16:49:41.725Z</time></trkpt><trkpt lat="43.9792041" lon="10.8736104"><ele>350.5</ele><time>2026-05-02T16:49:42.713Z</time></trkpt><trkpt lat="43.9792975" lon="10.8737176"><ele>352.25</ele><time>2026-05-02T16:49:43.721Z</time></trkpt><trkpt lat="43.9793759" lon="10.8738359"><ele>354.0</ele><time>2026-05-02T16:49:44.726Z</time></trkpt><trkpt lat="43.9794618" lon="10.8739806"><ele>354.0</ele><time>2026-05-02T16:49:45.712Z</time></trkpt><trkpt lat="43.9795571" lon="10.8741048"><ele>354.0</ele><time>2026-05-02T16:49:46.711Z</time></trkpt><trkpt lat="43.9796643" lon="10.8742084"><ele>354.0</ele><time>2026-05-02T16:49:47.724Z</time></trkpt><trkpt lat="43.9797759" lon="10.8742781"><ele>354.0</ele><time>2026-05-02T16:49:48.711Z</time></trkpt><trkpt lat="43.979897" lon="10.8743295"><ele>353.2</ele><time>2026-05-02T16:49:49.711Z</time></trkpt><trkpt lat="43.9800197" lon="10.8743671"><ele>352.4</ele><time>2026-05-02T16:49:50.718Z</time></trkpt><trkpt lat="43.9801267" lon="10.8744124"><ele>351.6</ele><time>2026-05-02T16:49:51.716Z</time></trkpt><trkpt lat="43.9802113" lon="10.8744781"><ele>350.8</ele><time>2026-05-02T16:49:52.712Z</time></trkpt><trkpt lat="43.9802702" lon="10.8745704"><ele>350.0</ele><time>2026-05-02T16:49:53.713Z</time></trkpt><trkpt lat="43.980285" lon="10.8746791"><ele>350.0</ele><time>2026-05-02T16:49:54.72Z</time></trkpt><trkpt lat="43.9802607" lon="10.8747851"><ele>350.0</ele><time>2026-05-02T16:49:55.716Z</time></trkpt><trkpt lat="43.9802141" lon="10.8748744"><ele>350.0</ele><time>2026-05-02T16:49:56.708Z</time></trkpt><trkpt lat="43.9801249" lon="10.874919"><ele>350.0</ele><time>2026-05-02T16:49:57.717Z</time></trkpt><trkpt lat="43.9800296" lon="10.874923"><ele>350.0</ele><time>2026-05-02T16:49:58.717Z</time></trkpt><trkpt lat="43.9799388" lon="10.8748927"><ele>350.0</ele><time>2026-05-02T16:49:59.719Z</time></trkpt><trkpt lat="43.9798148" lon="10.8748192"><ele>347.0</ele><time>2026-05-02T16:50:00.722Z</time></trkpt><trkpt lat="43.9796911" lon="10.8747754"><ele>344.0</ele><time>2026-05-02T16:50:01.717Z</time></trkpt><trkpt lat="43.979572" lon="10.8747392"><ele>341.0</ele><time>2026-05-02T16:50:02.72Z</time></trkpt><trkpt lat="43.9794451" lon="10.8747113"><ele>338.0</ele><time>2026-05-02T16:50:03.714Z</time></trkpt><trkpt lat="43.9793166" lon="10.8747029"><ele>338.0</ele><time>2026-05-02T16:50:04.712Z</time></trkpt><trkpt lat="43.9791879" lon="10.8747137"><ele>338.0</ele><time>2026-05-02T16:50:05.707Z</time></trkpt><trkpt lat="43.9790673" lon="10.8747581"><ele>338.0</ele><time>2026-05-02T16:50:06.713Z</time></trkpt><trkpt lat="43.9789501" lon="10.8748147"><ele>338.0</ele><time>2026-05-02T16:50:07.71Z</time></trkpt><trkpt lat="43.9788351" lon="10.8748832"><ele>335.75</ele><time>2026-05-02T16:50:08.714Z</time></trkpt><trkpt lat="43.9787311" lon="10.8749923"><ele>333.5</ele><time>2026-05-02T16:50:09.714Z</time></trkpt><trkpt lat="43.9786279" lon="10.8750983"><ele>331.25</ele><time>2026-05-02T16:50:10.717Z</time></trkpt><trkpt lat="43.9785169" lon="10.8751917"><ele>329.0</ele><time>2026-05-02T16:50:11.717Z</time></trkpt><trkpt lat="43.9784147" lon="10.8752813"><ele>324.25</ele><time>2026-05-02T16:50:12.724Z</time></trkpt><trkpt lat="43.978308" lon="10.8753611"><ele>319.5</ele><time>2026-05-02T16:50:13.709Z</time></trkpt><trkpt lat="43.9781938" lon="10.8754274"><ele>314.75</ele><time>2026-05-02T16:50:14.714Z</time></trkpt><trkpt lat="43.9780707" lon="10.8754427"><ele>310.0</ele><time>2026-05-02T16:50:15.718Z</time></trkpt><trkpt lat="43.9779453" lon="10.8754464"><ele>310.0</ele><time>2026-05-02T16:50:16.709Z</time></trkpt><trkpt lat="43.9778184" lon="10.8754526"><ele>310.0</ele><time>2026-05-02T16:50:17.713Z</time></trkpt><trkpt lat="43.9776812" lon="10.8754657"><ele>310.0</ele><time>2026-05-02T16:50:18.711Z</time></trkpt><trkpt lat="43.977541" lon="10.8754919"><ele>310.0</ele><time>2026-05-02T16:50:19.719Z</time></trkpt><trkpt lat="43.9774018" lon="10.8755368"><ele>311.0</ele><time>2026-05-02T16:50:20.71Z</time></trkpt><trkpt lat="43.9772627" lon="10.8755837"><ele>312.0</ele><time>2026-05-02T16:50:21.713Z</time></trkpt><trkpt lat="43.9771233" lon="10.8756308"><ele>313.0</ele><time>2026-05-02T16:50:22.712Z</time></trkpt><trkpt lat="43.976983" lon="10.8756865"><ele>314.0</ele><time>2026-05-02T16:50:23.709Z</time></trkpt><trkpt lat="43.9768414" lon="10.875739"><ele>314.0</ele><time>2026-05-02T16:50:24.718Z</time></trkpt><trkpt lat="43.9767017" lon="10.8757811"><ele>314.0</ele><time>2026-05-02T16:50:25.713Z</time></trkpt><trkpt lat="43.976566" lon="10.87579"><ele>314.0</ele><time>2026-05-02T16:50:26.721Z</time></trkpt><trkpt lat="43.9764233" lon="10.8757238"><ele>314.0</ele><time>2026-05-02T16:50:27.71Z</time></trkpt><trkpt lat="43.9762718" lon="10.875658"><ele>312.25</ele><time>2026-05-02T16:50:28.712Z</time></trkpt><trkpt lat="43.9761249" lon="10.8755825"><ele>310.5</ele><time>2026-05-02T16:50:29.71Z</time></trkpt><trkpt lat="43.9759932" lon="10.8755185"><ele>308.75</ele><time>2026-05-02T16:50:30.716Z</time></trkpt><trkpt lat="43.9758663" lon="10.8754798"><ele>307.0</ele><time>2026-05-02T16:50:31.709Z</time></trkpt><trkpt lat="43.9757476" lon="10.8754495"><ele>305.25</ele><time>2026-05-02T16:50:32.712Z</time></trkpt><trkpt lat="43.9756329" lon="10.8754534"><ele>303.5</ele><time>2026-05-02T16:50:33.714Z</time></trkpt><trkpt lat="43.9755039" lon="10.8755114"><ele>301.75</ele><time>2026-05-02T16:50:34.712Z</time></trkpt><trkpt lat="43.9753732" lon="10.8755697"><ele>300.0</ele><time>2026-05-02T16:50:35.709Z</time></trkpt><trkpt lat="43.975246" lon="10.8756445"><ele>300.0</ele><time>2026-05-02T16:50:36.726Z</time></trkpt><trkpt lat="43.9751211" lon="10.8757032"><ele>300.0</ele><time>2026-05-02T16:50:37.714Z</time></trkpt><trkpt lat="43.9750113" lon="10.8757695"><ele>300.0</ele><time>2026-05-02T16:50:38.716Z</time></trkpt><trkpt lat="43.9749259" lon="10.8758672"><ele>300.0</ele><time>2026-05-02T16:50:39.726Z</time></trkpt><trkpt lat="43.9748559" lon="10.8759689"><ele>295.5</ele><time>2026-05-02T16:50:40.71Z</time></trkpt><trkpt lat="43.9747809" lon="10.8760762"><ele>291.0</ele><time>2026-05-02T16:50:41.719Z</time></trkpt><trkpt lat="43.9748279" lon="10.8762393"><ele>286.5</ele><time>2026-05-02T16:50:42.713Z</time></trkpt><trkpt lat="43.9748757" lon="10.8763666"><ele>282.0</ele><time>2026-05-02T16:50:43.713Z</time></trkpt><trkpt lat="43.9749697" lon="10.8764835"><ele>280.3333333333333</ele><time>2026-05-02T16:50:44.715Z</time></trkpt><trkpt lat="43.9750849" lon="10.8765951"><ele>278.66666666666663</ele><time>2026-05-02T16:50:45.711Z</time></trkpt><trkpt lat="43.9752179" lon="10.8767098"><ele>277.0</ele><time>2026-05-02T16:50:46.717Z</time></trkpt><trkpt lat="43.9753539" lon="10.8768231"><ele>277.0</ele><time>2026-05-02T16:50:47.72Z</time></trkpt><trkpt lat="43.9754853" lon="10.8769424"><ele>277.0</ele><time>2026-05-02T16:50:48.709Z</time></trkpt><trkpt lat="43.9756024" lon="10.8770518"><ele>277.0</ele><time>2026-05-02T16:50:49.711Z</time></trkpt><trkpt lat="43.975704" lon="10.8771506"><ele>277.0</ele><time>2026-05-02T16:50:50.716Z</time></trkpt><trkpt lat="43.9757781" lon="10.8772584"><ele>277.0</ele><time>2026-05-02T16:50:51.715Z</time></trkpt><trkpt lat="43.9758275" lon="10.8773823"><ele>277.0</ele><time>2026-05-02T16:50:52.712Z</time></trkpt><trkpt lat="43.975864" lon="10.8775113"><ele>277.0</ele><time>2026-05-02T16:50:53.714Z</time></trkpt><trkpt lat="43.975853" lon="10.8777084"><ele>277.0</ele><time>2026-05-02T16:50:54.71Z</time></trkpt><trkpt lat="43.9758392" lon="10.8778699"><ele>274.75</ele><time>2026-05-02T16:50:55.71Z</time></trkpt><trkpt lat="43.9758235" lon="10.8780175"><ele>272.5</ele><time>2026-05-02T16:50:56.716Z</time></trkpt><trkpt lat="43.9757577" lon="10.878171"><ele>270.25</ele><time>2026-05-02T16:50:57.709Z</time></trkpt><trkpt lat="43.9756316" lon="10.8782896"><ele>268.0</ele><time>2026-05-02T16:50:58.71Z</time></trkpt><trkpt lat="43.9755563" lon="10.8784228"><ele>263.75</ele><time>2026-05-02T16:50:59.714Z</time></trkpt><trkpt lat="43.9754917" lon="10.8785674"><ele>259.5</ele><time>2026-05-02T16:51:00.714Z</time></trkpt><trkpt lat="43.9754326" lon="10.8787576"><ele>255.25</ele><time>2026-05-02T16:51:01.715Z</time></trkpt><trkpt lat="43.9754" lon="10.8789434"><ele>251.0</ele><time>2026-05-02T16:51:02.729Z</time></trkpt><trkpt lat="43.9753639" lon="10.8791365"><ele>248.33333333333334</ele><time>2026-05-02T16:51:03.709Z</time></trkpt><trkpt lat="43.9753263" lon="10.87934"><ele>245.66666666666669</ele><time>2026-05-02T16:51:04.712Z</time></trkpt><trkpt lat="43.975274" lon="10.879554"><ele>243.0</ele><time>2026-05-02T16:51:05.71Z</time></trkpt><trkpt lat="43.9752437" lon="10.8797627"><ele>243.0</ele><time>2026-05-02T16:51:06.714Z</time></trkpt><trkpt lat="43.9752196" lon="10.8799786"><ele>243.0</ele><time>2026-05-02T16:51:07.716Z</time></trkpt><trkpt lat="43.9752005" lon="10.8801905"><ele>243.0</ele><time>2026-05-02T16:51:08.716Z</time></trkpt><trkpt lat="43.9752133" lon="10.880396"><ele>242.25</ele><time>2026-05-02T16:51:09.714Z</time></trkpt><trkpt lat="43.9752226" lon="10.8805988"><ele>241.5</ele><time>2026-05-02T16:51:10.71Z</time></trkpt><trkpt lat="43.9752389" lon="10.8807902"><ele>240.75</ele><time>2026-05-02T16:51:11.713Z</time></trkpt><trkpt lat="43.975244" lon="10.8809615"><ele>240.0</ele><time>2026-05-02T16:51:12.716Z</time></trkpt><trkpt lat="43.9752283" lon="10.8811114"><ele>240.75</ele><time>2026-05-02T16:51:13.722Z</time></trkpt><trkpt lat="43.9751858" lon="10.8812353"><ele>241.5</ele><time>2026-05-02T16:51:14.71Z</time></trkpt><trkpt lat="43.9751162" lon="10.8813357"><ele>242.25</ele><time>2026-05-02T16:51:15.709Z</time></trkpt><trkpt lat="43.975005" lon="10.8814026"><ele>243.0</ele><time>2026-05-02T16:51:16.709Z</time></trkpt><trkpt lat="43.9748748" lon="10.8814551"><ele>243.0</ele><time>2026-05-02T16:51:17.711Z</time></trkpt><trkpt lat="43.9747259" lon="10.8815011"><ele>243.0</ele><time>2026-05-02T16:51:18.713Z</time></trkpt><trkpt lat="43.9745835" lon="10.8815526"><ele>243.0</ele><time>2026-05-02T16:51:19.716Z</time></trkpt><trkpt lat="43.9744492" lon="10.8815983"><ele>243.0</ele><time>2026-05-02T16:51:20.71Z</time></trkpt><trkpt lat="43.9743234" lon="10.8816391"><ele>243.0</ele><time>2026-05-02T16:51:21.715Z</time></trkpt><trkpt lat="43.9742003" lon="10.8816828"><ele>243.0</ele><time>2026-05-02T16:51:22.715Z</time></trkpt><trkpt lat="43.9740792" lon="10.8817249"><ele>243.0</ele><time>2026-05-02T16:51:23.708Z</time></trkpt><trkpt lat="43.9739619" lon="10.8817788"><ele>243.0</ele><time>2026-05-02T16:51:24.708Z</time></trkpt><trkpt lat="43.9738566" lon="10.8818246"><ele>243.25</ele><time>2026-05-02T16:51:25.718Z</time></trkpt><trkpt lat="43.9737409" lon="10.8818815"><ele>243.5</ele><time>2026-05-02T16:51:26.714Z</time></trkpt><trkpt lat="43.9736295" lon="10.8819551"><ele>243.75</ele><time>2026-05-02T16:51:27.713Z</time></trkpt><trkpt lat="43.9735137" lon="10.8820406"><ele>244.0</ele><time>2026-05-02T16:51:28.709Z</time></trkpt><trkpt lat="43.9733887" lon="10.8821344"><ele>240.75</ele><time>2026-05-02T16:51:29.71Z</time></trkpt><trkpt lat="43.9732595" lon="10.8822384"><ele>237.5</ele><time>2026-05-02T16:51:30.705Z</time></trkpt><trkpt lat="43.9731335" lon="10.8823482"><ele>234.25</ele><time>2026-05-02T16:51:31.711Z</time></trkpt><trkpt lat="43.9730258" lon="10.8824627"><ele>231.0</ele><time>2026-05-02T16:51:32.709Z</time></trkpt><trkpt lat="43.9729516" lon="10.8825885"><ele>228.5</ele><time>2026-05-02T16:51:33.715Z</time></trkpt><trkpt lat="43.9729109" lon="10.8827495"><ele>226.0</ele><time>2026-05-02T16:51:34.719Z</time></trkpt><trkpt lat="43.9728938" lon="10.882914"><ele>223.5</ele><time>2026-05-02T16:51:35.706Z</time></trkpt><trkpt lat="43.9728974" lon="10.8830848"><ele>221.0</ele><time>2026-05-02T16:51:36.711Z</time></trkpt><trkpt lat="43.972891" lon="10.8832434"><ele>221.0</ele><time>2026-05-02T16:51:37.71Z</time></trkpt><trkpt lat="43.972864" lon="10.8833711"><ele>221.00000000000003</ele><time>2026-05-02T16:51:38.714Z</time></trkpt><trkpt lat="43.972812" lon="10.8834637"><ele>221.00000000000003</ele><time>2026-05-02T16:51:39.712Z</time></trkpt><trkpt lat="43.9727343" lon="10.8835209"><ele>221.0</ele><time>2026-05-02T16:51:40.711Z</time></trkpt><trkpt lat="43.972637" lon="10.8835608"><ele>221.0</ele><time>2026-05-02T16:51:41.72Z</time></trkpt><trkpt lat="43.9725243" lon="10.8835964"><ele>220.0</ele><time>2026-05-02T16:51:42.737Z</time></trkpt><trkpt lat="43.9724037" lon="10.8835795"><ele>219.0</ele><time>2026-05-02T16:51:43.717Z</time></trkpt><trkpt lat="43.9722573" lon="10.88339"><ele>218.0</ele><time>2026-05-02T16:51:44.709Z</time></trkpt><trkpt lat="43.9721238" lon="10.8832865"><ele>218.0</ele><time>2026-05-02T16:51:45.72Z</time></trkpt><trkpt lat="43.9720026" lon="10.8832421"><ele>218.0</ele><time>2026-05-02T16:51:46.707Z</time></trkpt><trkpt lat="43.9718767" lon="10.8832248"><ele>218.0</ele><time>2026-05-02T16:51:47.706Z</time></trkpt><trkpt lat="43.9717787" lon="10.8832622"><ele>218.0</ele><time>2026-05-02T16:51:48.722Z</time></trkpt><trkpt lat="43.9717065" lon="10.8833419"><ele>218.0</ele><time>2026-05-02T16:51:49.714Z</time></trkpt><trkpt lat="43.9716323" lon="10.8834492"><ele>214.25</ele><time>2026-05-02T16:51:50.706Z</time></trkpt><trkpt lat="43.9715889" lon="10.8835926"><ele>210.5</ele><time>2026-05-02T16:51:51.714Z</time></trkpt><trkpt lat="43.9715738" lon="10.8837749"><ele>206.75</ele><time>2026-05-02T16:51:52.709Z</time></trkpt><trkpt lat="43.9715923" lon="10.8839264"><ele>203.0</ele><time>2026-05-02T16:51:53.708Z</time></trkpt><trkpt lat="43.9716535" lon="10.8841068"><ele>204.0</ele><time>2026-05-02T16:51:54.709Z</time></trkpt><trkpt lat="43.971892" lon="10.8841243"><ele>205.0</ele><time>2026-05-02T16:51:55.709Z</time></trkpt><trkpt lat="43.9720711" lon="10.8842057"><ele>206.0</ele><time>2026-05-02T16:51:56.712Z</time></trkpt><trkpt lat="43.9722384" lon="10.8842817"><ele>204.5</ele><time>2026-05-02T16:51:57.71Z</time></trkpt><trkpt lat="43.9724002" lon="10.8843489"><ele>203.0</ele><time>2026-05-02T16:51:58.707Z</time></trkpt><trkpt lat="43.972548" lon="10.8844162"><ele>201.5</ele><time>2026-05-02T16:51:59.718Z</time></trkpt><trkpt lat="43.9726574" lon="10.8844914"><ele>200.0</ele><time>2026-05-02T16:52:00.72Z</time></trkpt><trkpt lat="43.9727313" lon="10.8846019"><ele>200.0</ele><time>2026-05-02T16:52:01.706Z</time></trkpt><trkpt lat="43.9727829" lon="10.8847298"><ele>200.0</ele><time>2026-05-02T16:52:02.709Z</time></trkpt><trkpt lat="43.9727953" lon="10.8848632"><ele>200.0</ele><time>2026-05-02T16:52:03.717Z</time></trkpt><trkpt lat="43.9727692" lon="10.8849825"><ele>200.0</ele><time>2026-05-02T16:52:04.712Z</time></trkpt><trkpt lat="43.9726935" lon="10.8851037"><ele>200.0</ele><time>2026-05-02T16:52:05.707Z</time></trkpt><trkpt lat="43.9726079" lon="10.8852116"><ele>198.33333333333334</ele><time>2026-05-02T16:52:06.715Z</time></trkpt><trkpt lat="43.9724541" lon="10.8853118"><ele>196.66666666666669</ele><time>2026-05-02T16:52:07.707Z</time></trkpt><trkpt lat="43.9723046" lon="10.8854326"><ele>195.0</ele><time>2026-05-02T16:52:08.709Z</time></trkpt><trkpt lat="43.9721622" lon="10.885589"><ele>195.0</ele><time>2026-05-02T16:52:09.709Z</time></trkpt><trkpt lat="43.9720407" lon="10.8857498"><ele>195.0</ele><time>2026-05-02T16:52:10.708Z</time></trkpt><trkpt lat="43.9719378" lon="10.885929"><ele>195.0</ele><time>2026-05-02T16:52:11.711Z</time></trkpt><trkpt lat="43.9718447" lon="10.8861102"><ele>191.0</ele><time>2026-05-02T16:52:12.709Z</time></trkpt><trkpt lat="43.9717887" lon="10.8863046"><ele>187.0</ele><time>2026-05-02T16:52:13.71Z</time></trkpt><trkpt lat="43.9717451" lon="10.8864727"><ele>183.0</ele><time>2026-05-02T16:52:14.712Z</time></trkpt><trkpt lat="43.9717212" lon="10.8866162"><ele>179.0</ele><time>2026-05-02T16:52:15.708Z</time></trkpt><trkpt lat="43.9717279" lon="10.8867588"><ele>175.39999999999998</ele><time>2026-05-02T16:52:16.716Z</time></trkpt><trkpt lat="43.9717693" lon="10.8868841"><ele>171.8</ele><time>2026-05-02T16:52:17.714Z</time></trkpt><trkpt lat="43.9718257" lon="10.8869796"><ele>168.2</ele><time>2026-05-02T16:52:18.71Z</time></trkpt><trkpt lat="43.9719249" lon="10.8870074"><ele>164.60000000000002</ele><time>2026-05-02T16:52:19.718Z</time></trkpt><trkpt lat="43.9720259" lon="10.8870499"><ele>161.0</ele><time>2026-05-02T16:52:20.718Z</time></trkpt><trkpt lat="43.9721599" lon="10.8870752"><ele>161.0</ele><time>2026-05-02T16:52:21.718Z</time></trkpt><trkpt lat="43.9723022" lon="10.8870943"><ele>161.0</ele><time>2026-05-02T16:52:22.712Z</time></trkpt><trkpt lat="43.9725343" lon="10.8870954"><ele>161.0</ele><time>2026-05-02T16:52:23.712Z</time></trkpt><trkpt lat="43.9727367" lon="10.8871401"><ele>162.33333333333331</ele><time>2026-05-02T16:52:24.718Z</time></trkpt><trkpt lat="43.9729302" lon="10.8872061"><ele>163.66666666666666</ele><time>2026-05-02T16:52:25.713Z</time></trkpt><trkpt lat="43.9731035" lon="10.8872558"><ele>165.0</ele><time>2026-05-02T16:52:26.713Z</time></trkpt><trkpt lat="43.9732718" lon="10.8872892"><ele>164.0</ele><time>2026-05-02T16:52:27.725Z</time></trkpt><trkpt lat="43.973411" lon="10.8873182"><ele>163.0</ele><time>2026-05-02T16:52:28.713Z</time></trkpt><trkpt lat="43.9735503" lon="10.8873293"><ele>162.0</ele><time>2026-05-02T16:52:29.705Z</time></trkpt><trkpt lat="43.9736844" lon="10.8873547"><ele>161.0</ele><time>2026-05-02T16:52:30.705Z</time></trkpt><trkpt lat="43.9737983" lon="10.8874262"><ele>161.0</ele><time>2026-05-02T16:52:31.716Z</time></trkpt><trkpt lat="43.9738709" lon="10.8875336"><ele>161.0</ele><time>2026-05-02T16:52:32.709Z</time></trkpt><trkpt lat="43.9739176" lon="10.8876715"><ele>161.0</ele><time>2026-05-02T16:52:33.717Z</time></trkpt><trkpt lat="43.9739357" lon="10.8878229"><ele>161.0</ele><time>2026-05-02T16:52:34.709Z</time></trkpt><trkpt lat="43.9739102" lon="10.8879839"><ele>161.0</ele><time>2026-05-02T16:52:35.712Z</time></trkpt><trkpt lat="43.9738595" lon="10.8881236"><ele>157.33333333333331</ele><time>2026-05-02T16:52:36.711Z</time></trkpt><trkpt lat="43.9737851" lon="10.8882732"><ele>153.66666666666666</ele><time>2026-05-02T16:52:37.709Z</time></trkpt><trkpt lat="43.9736427" lon="10.8883707"><ele>150.0</ele><time>2026-05-02T16:52:38.709Z</time></trkpt><trkpt lat="43.9734934" lon="10.8884525"><ele>145.33333333333334</ele><time>2026-05-02T16:52:39.715Z</time></trkpt><trkpt lat="43.9733213" lon="10.8885115"><ele>140.66666666666669</ele><time>2026-05-02T16:52:40.711Z</time></trkpt><trkpt lat="43.9731411" lon="10.888548"><ele>136.0</ele><time>2026-05-02T16:52:41.711Z</time></trkpt><trkpt lat="43.972948" lon="10.8885633"><ele>136.0</ele><time>2026-05-02T16:52:42.71Z</time></trkpt><trkpt lat="43.9727443" lon="10.8885676"><ele>136.0</ele><time>2026-05-02T16:52:43.71Z</time></trkpt><trkpt lat="43.9725425" lon="10.8885769"><ele>136.0</ele><time>2026-05-02T16:52:44.719Z</time></trkpt><trkpt lat="43.972349" lon="10.8885925"><ele>136.0</ele><time>2026-05-02T16:52:45.713Z</time></trkpt><trkpt lat="43.9721592" lon="10.8886297"><ele>136.0</ele><time>2026-05-02T16:52:46.714Z</time></trkpt><trkpt lat="43.9719814" lon="10.8886903"><ele>136.0</ele><time>2026-05-02T16:52:47.716Z</time></trkpt><trkpt lat="43.9718107" lon="10.8887743"><ele>135.33333333333334</ele><time>2026-05-02T16:52:48.717Z</time></trkpt><trkpt lat="43.9716393" lon="10.8888824"><ele>134.66666666666666</ele><time>2026-05-02T16:52:49.706Z</time></trkpt><trkpt lat="43.9714692" lon="10.8889802"><ele>134.0</ele><time>2026-05-02T16:52:50.722Z</time></trkpt><trkpt lat="43.9712839" lon="10.8890645"><ele>134.0</ele><time>2026-05-02T16:52:51.711Z</time></trkpt><trkpt lat="43.9710905" lon="10.8891469"><ele>134.0</ele><time>2026-05-02T16:52:52.719Z</time></trkpt><trkpt lat="43.970892" lon="10.8892051"><ele>134.0</ele><time>2026-05-02T16:52:53.712Z</time></trkpt><trkpt lat="43.9706979" lon="10.8892879"><ele>133.0</ele><time>2026-05-02T16:52:54.716Z</time></trkpt><trkpt lat="43.9704956" lon="10.8893625"><ele>132.0</ele><time>2026-05-02T16:52:55.716Z</time></trkpt><trkpt lat="43.9702934" lon="10.8894351"><ele>131.0</ele><time>2026-05-02T16:52:56.71Z</time></trkpt><trkpt lat="43.9700881" lon="10.889511"><ele>130.33333333333331</ele><time>2026-05-02T16:52:57.709Z</time></trkpt><trkpt lat="43.9698799" lon="10.8895919"><ele>129.66666666666666</ele><time>2026-05-02T16:52:58.725Z</time></trkpt><trkpt lat="43.9696748" lon="10.8896709"><ele>129.0</ele><time>2026-05-02T16:52:59.716Z</time></trkpt><trkpt lat="43.9694658" lon="10.8897527"><ele>129.0</ele><time>2026-05-02T16:53:00.714Z</time></trkpt><trkpt lat="43.9692487" lon="10.8898338"><ele>129.0</ele><time>2026-05-02T16:53:01.712Z</time></trkpt><trkpt lat="43.9690353" lon="10.8899079"><ele>129.0</ele><time>2026-05-02T16:53:02.714Z</time></trkpt><trkpt lat="43.9688252" lon="10.8899921"><ele>130.0</ele><time>2026-05-02T16:53:03.724Z</time></trkpt><trkpt lat="43.9686059" lon="10.890076"><ele>131.0</ele><time>2026-05-02T16:53:04.71Z</time></trkpt><trkpt lat="43.968381" lon="10.8901561"><ele>128.5</ele><time>2026-05-02T16:53:05.713Z</time></trkpt><trkpt lat="43.9681611" lon="10.8902443"><ele>126.0</ele><time>2026-05-02T16:53:06.723Z</time></trkpt><trkpt lat="43.9679356" lon="10.8903359"><ele>126.0</ele><time>2026-05-02T16:53:07.713Z</time></trkpt><trkpt lat="43.9677136" lon="10.890421"><ele>126.0</ele><time>2026-05-02T16:53:08.708Z</time></trkpt><trkpt lat="43.9675028" lon="10.8904958"><ele>126.0</ele><time>2026-05-02T16:53:09.71Z</time></trkpt><trkpt lat="43.9673078" lon="10.8905858"><ele>126.33333333333334</ele><time>2026-05-02T16:53:10.719Z</time></trkpt><trkpt lat="43.9671227" lon="10.8906784"><ele>126.66666666666667</ele><time>2026-05-02T16:53:11.705Z</time></trkpt><trkpt lat="43.966965" lon="10.8908055"><ele>127.0</ele><time>2026-05-02T16:53:12.72Z</time></trkpt><trkpt lat="43.966823" lon="10.8909657"><ele>126.33333333333334</ele><time>2026-05-02T16:53:13.72Z</time></trkpt><trkpt lat="43.9667044" lon="10.8911435"><ele>125.66666666666666</ele><time>2026-05-02T16:53:14.713Z</time></trkpt><trkpt lat="43.9666032" lon="10.8913827"><ele>125.0</ele><time>2026-05-02T16:53:15.712Z</time></trkpt><trkpt lat="43.9665279" lon="10.8916379"><ele>124.33333333333333</ele><time>2026-05-02T16:53:16.71Z</time></trkpt><trkpt lat="43.966458" lon="10.8919311"><ele>123.66666666666666</ele><time>2026-05-02T16:53:17.725Z</time></trkpt><trkpt lat="43.9663873" lon="10.8922189"><ele>123.0</ele><time>2026-05-02T16:53:18.712Z</time></trkpt><trkpt lat="43.9663108" lon="10.8925138"><ele>122.66666666666666</ele><time>2026-05-02T16:53:19.716Z</time></trkpt><trkpt lat="43.966218" lon="10.8928053"><ele>122.33333333333333</ele><time>2026-05-02T16:53:20.718Z</time></trkpt><trkpt lat="43.9661119" lon="10.8930554"><ele>122.0</ele><time>2026-05-02T16:53:21.709Z</time></trkpt><trkpt lat="43.9659855" lon="10.8932972"><ele>121.33333333333333</ele><time>2026-05-02T16:53:22.707Z</time></trkpt><trkpt lat="43.9658527" lon="10.8935147"><ele>120.66666666666666</ele><time>2026-05-02T16:53:23.717Z</time></trkpt><trkpt lat="43.9656915" lon="10.893691"><ele>120.0</ele><time>2026-05-02T16:53:24.711Z</time></trkpt><trkpt lat="43.9655119" lon="10.8938551"><ele>120.0</ele><time>2026-05-02T16:53:25.713Z</time></trkpt><trkpt lat="43.9653236" lon="10.8940087"><ele>120.0</ele><time>2026-05-02T16:53:26.721Z</time></trkpt><trkpt lat="43.9651124" lon="10.894126"><ele>120.0</ele><time>2026-05-02T16:53:27.716Z</time></trkpt><trkpt lat="43.9648939" lon="10.8942538"><ele>120.5</ele><time>2026-05-02T16:53:28.714Z</time></trkpt><trkpt lat="43.9646742" lon="10.8943656"><ele>121.0</ele><time>2026-05-02T16:53:29.711Z</time></trkpt><trkpt lat="43.9644458" lon="10.8944983"><ele>121.0</ele><time>2026-05-02T16:53:30.717Z</time></trkpt><trkpt lat="43.9642121" lon="10.8946291"><ele>121.0</ele><time>2026-05-02T16:53:31.711Z</time></trkpt><trkpt lat="43.963977" lon="10.894763"><ele>118.5</ele><time>2026-05-02T16:53:32.711Z</time></trkpt><trkpt lat="43.9637418" lon="10.8948778"><ele>116.0</ele><time>2026-05-02T16:53:33.715Z</time></trkpt><trkpt lat="43.9635105" lon="10.8949776"><ele>116.0</ele><time>2026-05-02T16:53:34.73Z</time></trkpt><trkpt lat="43.9632889" lon="10.8950356"><ele>116.0</ele><time>2026-05-02T16:53:35.709Z</time></trkpt><trkpt lat="43.9630639" lon="10.8950838"><ele>115.5</ele><time>2026-05-02T16:53:36.706Z</time></trkpt><trkpt lat="43.9628383" lon="10.8951279"><ele>115.0</ele><time>2026-05-02T16:53:37.708Z</time></trkpt><trkpt lat="43.9626129" lon="10.8951652"><ele>115.33333333333334</ele><time>2026-05-02T16:53:38.712Z</time></trkpt><trkpt lat="43.9624027" lon="10.8951955"><ele>115.66666666666666</ele><time>2026-05-02T16:53:39.713Z</time></trkpt><trkpt lat="43.962199" lon="10.8952164"><ele>116.0</ele><time>2026-05-02T16:53:40.72Z</time></trkpt><trkpt lat="43.9620118" lon="10.8952332"><ele>116.0</ele><time>2026-05-02T16:53:41.716Z</time></trkpt><trkpt lat="43.9618352" lon="10.895265"><ele>116.0</ele><time>2026-05-02T16:53:42.712Z</time></trkpt><trkpt lat="43.9616702" lon="10.8952952"><ele>116.0</ele><time>2026-05-02T16:53:43.721Z</time></trkpt><trkpt lat="43.9615278" lon="10.8953146"><ele>115.25</ele><time>2026-05-02T16:53:44.721Z</time></trkpt><trkpt lat="43.9613915" lon="10.8953372"><ele>114.5</ele><time>2026-05-02T16:53:45.714Z</time></trkpt><trkpt lat="43.9612609" lon="10.8953642"><ele>113.75</ele><time>2026-05-02T16:53:46.717Z</time></trkpt><trkpt lat="43.9611365" lon="10.8953707"><ele>113.0</ele><time>2026-05-02T16:53:47.743Z</time></trkpt><trkpt lat="43.9610059" lon="10.8953895"><ele>113.0</ele><time>2026-05-02T16:53:48.713Z</time></trkpt><trkpt lat="43.9608664" lon="10.895399"><ele>113.0</ele><time>2026-05-02T16:53:49.71Z</time></trkpt><trkpt lat="43.9607308" lon="10.8954167"><ele>113.0</ele><time>2026-05-02T16:53:50.712Z</time></trkpt><trkpt lat="43.9605962" lon="10.8954323"><ele>113.0</ele><time>2026-05-02T16:53:51.709Z</time></trkpt><trkpt lat="43.9604597" lon="10.895452"><ele>113.0</ele><time>2026-05-02T16:53:52.712Z</time></trkpt><trkpt lat="43.96032" lon="10.8954758"><ele>113.0</ele><time>2026-05-02T16:53:53.709Z</time></trkpt><trkpt lat="43.9601828" lon="10.8955002"><ele>113.0</ele><time>2026-05-02T16:53:54.717Z</time></trkpt><trkpt lat="43.9600402" lon="10.895521"><ele>113.0</ele><time>2026-05-02T16:53:55.726Z</time></trkpt><trkpt lat="43.9598967" lon="10.8955272"><ele>113.0</ele><time>2026-05-02T16:53:56.71Z</time></trkpt><trkpt lat="43.9597487" lon="10.8955468"><ele>113.0</ele><time>2026-05-02T16:53:57.712Z</time></trkpt><trkpt lat="43.9596116" lon="10.8955681"><ele>113.0</ele><time>2026-05-02T16:53:58.719Z</time></trkpt><trkpt lat="43.9594775" lon="10.8955841"><ele>113.0</ele><time>2026-05-02T16:53:59.711Z</time></trkpt><trkpt lat="43.9593438" lon="10.8956035"><ele>113.0</ele><time>2026-05-02T16:54:00.717Z</time></trkpt><trkpt lat="43.9592042" lon="10.8956202"><ele>113.0</ele><time>2026-05-02T16:54:01.718Z</time></trkpt><trkpt lat="43.9590616" lon="10.8956377"><ele>113.0</ele><time>2026-05-02T16:54:02.716Z</time></trkpt><trkpt lat="43.9589169" lon="10.8956523"><ele>113.0</ele><time>2026-05-02T16:54:03.708Z</time></trkpt><trkpt lat="43.9587702" lon="10.8956732"><ele>112.25</ele><time>2026-05-02T16:54:04.709Z</time></trkpt><trkpt lat="43.958628" lon="10.8956946"><ele>111.5</ele><time>2026-05-02T16:54:05.715Z</time></trkpt><trkpt lat="43.958492" lon="10.8957143"><ele>110.75</ele><time>2026-05-02T16:54:06.716Z</time></trkpt><trkpt lat="43.9583562" lon="10.8957294"><ele>110.0</ele><time>2026-05-02T16:54:07.709Z</time></trkpt><trkpt lat="43.9582232" lon="10.8957523"><ele>109.25</ele><time>2026-05-02T16:54:08.714Z</time></trkpt><trkpt lat="43.9580852" lon="10.8957822"><ele>108.5</ele><time>2026-05-02T16:54:09.714Z</time></trkpt><trkpt lat="43.9579519" lon="10.8957977"><ele>107.75</ele><time>2026-05-02T16:54:10.709Z</time></trkpt><trkpt lat="43.9578261" lon="10.895837"><ele>107.0</ele><time>2026-05-02T16:54:11.724Z</time></trkpt><trkpt lat="43.9577124" lon="10.8959061"><ele>107.0</ele><time>2026-05-02T16:54:12.723Z</time></trkpt><trkpt lat="43.9576065" lon="10.8959746"><ele>106.99999999999999</ele><time>2026-05-02T16:54:13.714Z</time></trkpt><trkpt lat="43.957517" lon="10.8960557"><ele>106.99999999999999</ele><time>2026-05-02T16:54:14.71Z</time></trkpt><trkpt lat="43.9574333" lon="10.8961419"><ele>107.0</ele><time>2026-05-02T16:54:15.724Z</time></trkpt><trkpt lat="43.9573518" lon="10.8962615"><ele>107.0</ele><time>2026-05-02T16:54:16.712Z</time></trkpt><trkpt lat="43.9572852" lon="10.8963714"><ele>107.25</ele><time>2026-05-02T16:54:17.716Z</time></trkpt><trkpt lat="43.9572252" lon="10.8965023"><ele>107.5</ele><time>2026-05-02T16:54:18.716Z</time></trkpt><trkpt lat="43.9571655" lon="10.8966464"><ele>107.75</ele><time>2026-05-02T16:54:19.733Z</time></trkpt><trkpt lat="43.9571187" lon="10.8967956"><ele>108.0</ele><time>2026-05-02T16:54:20.713Z</time></trkpt><trkpt lat="43.9570735" lon="10.8969417"><ele>108.0</ele><time>2026-05-02T16:54:21.711Z</time></trkpt><trkpt lat="43.9570329" lon="10.8970842"><ele>108.00000000000001</ele><time>2026-05-02T16:54:22.712Z</time></trkpt><trkpt lat="43.9569989" lon="10.8972193"><ele>108.00000000000001</ele><time>2026-05-02T16:54:23.723Z</time></trkpt><trkpt lat="43.9569559" lon="10.8973591"><ele>108.0</ele><time>2026-05-02T16:54:24.708Z</time></trkpt><trkpt lat="43.956919" lon="10.8974997"><ele>108.0</ele><time>2026-05-02T16:54:25.713Z</time></trkpt><trkpt lat="43.956881" lon="10.8976396"><ele>108.25</ele><time>2026-05-02T16:54:26.716Z</time></trkpt><trkpt lat="43.9568512" lon="10.8977771"><ele>108.5</ele><time>2026-05-02T16:54:27.714Z</time></trkpt><trkpt lat="43.9568143" lon="10.8979366"><ele>108.75</ele><time>2026-05-02T16:54:28.709Z</time></trkpt><trkpt lat="43.9567786" lon="10.8981043"><ele>109.0</ele><time>2026-05-02T16:54:29.71Z</time></trkpt><trkpt lat="43.956724" lon="10.8983055"><ele>109.0</ele><time>2026-05-02T16:54:30.713Z</time></trkpt><trkpt lat="43.9566635" lon="10.8985169"><ele>109.0</ele><time>2026-05-02T16:54:31.717Z</time></trkpt><trkpt lat="43.9566006" lon="10.8987354"><ele>109.0</ele><time>2026-05-02T16:54:32.713Z</time></trkpt><trkpt lat="43.9565342" lon="10.8989475"><ele>109.0</ele><time>2026-05-02T16:54:33.733Z</time></trkpt><trkpt lat="43.9564755" lon="10.8991482"><ele>109.0</ele><time>2026-05-02T16:54:34.71Z</time></trkpt><trkpt lat="43.9564138" lon="10.8993079"><ele>109.0</ele><time>2026-05-02T16:54:35.712Z</time></trkpt><trkpt lat="43.9563441" lon="10.8994547"><ele>109.0</ele><time>2026-05-02T16:54:36.71Z</time></trkpt><trkpt lat="43.9562601" lon="10.8995622"><ele>109.0</ele><time>2026-05-02T16:54:37.711Z</time></trkpt><trkpt lat="43.9561608" lon="10.8996253"><ele>109.0</ele><time>2026-05-02T16:54:38.727Z</time></trkpt><trkpt lat="43.9560562" lon="10.8996503"><ele>109.0</ele><time>2026-05-02T16:54:39.712Z</time></trkpt><trkpt lat="43.9559417" lon="10.8996311"><ele>109.0</ele><time>2026-05-02T16:54:40.718Z</time></trkpt><trkpt lat="43.9558376" lon="10.8995668"><ele>109.0</ele><time>2026-05-02T16:54:41.708Z</time></trkpt><trkpt lat="43.9557522" lon="10.8994675"><ele>108.4</ele><time>2026-05-02T16:54:42.711Z</time></trkpt><trkpt lat="43.9556991" lon="10.8993429"><ele>107.80000000000001</ele><time>2026-05-02T16:54:43.709Z</time></trkpt><trkpt lat="43.9556699" lon="10.8991929"><ele>107.19999999999999</ele><time>2026-05-02T16:54:44.71Z</time></trkpt><trkpt lat="43.9556577" lon="10.8990494"><ele>106.6</ele><time>2026-05-02T16:54:45.725Z</time></trkpt><trkpt lat="43.9556696" lon="10.8989081"><ele>106.0</ele><time>2026-05-02T16:54:46.715Z</time></trkpt><trkpt lat="43.9557459" lon="10.8987974"><ele>105.4</ele><time>2026-05-02T16:54:47.719Z</time></trkpt><trkpt lat="43.9558179" lon="10.8986989"><ele>104.8</ele><time>2026-05-02T16:54:48.721Z</time></trkpt><trkpt lat="43.955901" lon="10.8986308"><ele>104.2</ele><time>2026-05-02T16:54:49.713Z</time></trkpt><trkpt lat="43.9559807" lon="10.8985925"><ele>103.60000000000001</ele><time>2026-05-02T16:54:50.717Z</time></trkpt><trkpt lat="43.9560548" lon="10.8985812"><ele>103.0</ele><time>2026-05-02T16:54:51.712Z</time></trkpt><trkpt lat="43.9561714" lon="10.8985823"><ele>104.5</ele><time>2026-05-02T16:54:53.717Z</time></trkpt><trkpt lat="43.9563062" lon="10.8986056"><ele>106.0</ele><time>2026-05-02T16:54:55.713Z</time></trkpt><trkpt lat="43.9564043" lon="10.8986364"><ele>107.5</ele><time>2026-05-02T16:54:56.71Z</time></trkpt><trkpt lat="43.9565186" lon="10.8986843"><ele>109.0</ele><time>2026-05-02T16:54:57.708Z</time></trkpt><trkpt lat="43.9566516" lon="10.898743"><ele>110.0</ele><time>2026-05-02T16:54:58.711Z</time></trkpt><trkpt lat="43.9567833" lon="10.8988281"><ele>111.0</ele><time>2026-05-02T16:54:59.715Z</time></trkpt><trkpt lat="43.9569313" lon="10.8989185"><ele>112.0</ele><time>2026-05-02T16:55:00.711Z</time></trkpt><trkpt lat="43.957084" lon="10.8990335"><ele>112.0</ele><time>2026-05-02T16:55:01.712Z</time></trkpt><trkpt lat="43.9572347" lon="10.8991647"><ele>112.0</ele><time>2026-05-02T16:55:02.708Z</time></trkpt><trkpt lat="43.9573791" lon="10.8993117"><ele>112.0</ele><time>2026-05-02T16:55:03.719Z</time></trkpt><trkpt lat="43.9575127" lon="10.8994853"><ele>115.33333333333334</ele><time>2026-05-02T16:55:04.709Z</time></trkpt><trkpt lat="43.957638" lon="10.8996921"><ele>118.66666666666666</ele><time>2026-05-02T16:55:05.722Z</time></trkpt><trkpt lat="43.9577674" lon="10.8999208"><ele>122.0</ele><time>2026-05-02T16:55:06.71Z</time></trkpt><trkpt lat="43.9578874" lon="10.9001639"><ele>122.0</ele><time>2026-05-02T16:55:07.705Z</time></trkpt><trkpt lat="43.9579976" lon="10.9004041"><ele>122.0</ele><time>2026-05-02T16:55:08.705Z</time></trkpt><trkpt lat="43.9580919" lon="10.9006353"><ele>122.0</ele><time>2026-05-02T16:55:09.708Z</time></trkpt><trkpt lat="43.9581764" lon="10.9008518"><ele>122.0</ele><time>2026-05-02T16:55:10.71Z</time></trkpt><trkpt lat="43.9582512" lon="10.9010525"><ele>122.0</ele><time>2026-05-02T16:55:11.714Z</time></trkpt><trkpt lat="43.9583142" lon="10.9012267"><ele>122.0</ele><time>2026-05-02T16:55:12.705Z</time></trkpt><trkpt lat="43.9583658" lon="10.9013718"><ele>122.0</ele><time>2026-05-02T16:55:13.707Z</time></trkpt><trkpt lat="43.9584051" lon="10.901485"><ele>121.49999999999999</ele><time>2026-05-02T16:55:14.71Z</time></trkpt><trkpt lat="43.9584373" lon="10.901572"><ele>121.0</ele><time>2026-05-02T16:55:15.708Z</time></trkpt><trkpt lat="43.9584693" lon="10.9016716"><ele>120.5</ele><time>2026-05-02T16:55:17.715Z</time></trkpt><trkpt lat="43.9584937" lon="10.9017546"><ele>120.0</ele><time>2026-05-02T16:55:20.713Z</time></trkpt><trkpt lat="43.9585624" lon="10.9018123"><ele>119.49999999999999</ele><time>2026-05-02T16:55:25.708Z</time></trkpt><trkpt lat="43.9586367" lon="10.9018303"><ele>119.0</ele><time>2026-05-02T16:55:26.714Z</time></trkpt><trkpt lat="43.9587247" lon="10.9018386"><ele>119.0</ele><time>2026-05-02T16:55:27.71Z</time></trkpt><trkpt lat="43.9588078" lon="10.901848"><ele>119.0</ele><time>2026-05-02T16:55:28.706Z</time></trkpt><trkpt lat="43.9589202" lon="10.9018655"><ele>119.0</ele><time>2026-05-02T16:55:29.721Z</time></trkpt><trkpt lat="43.9590586" lon="10.9018756"><ele>119.0</ele><time>2026-05-02T16:55:30.715Z</time></trkpt><trkpt lat="43.959203" lon="10.901891"><ele>122.33333333333333</ele><time>2026-05-02T16:55:31.722Z</time></trkpt><trkpt lat="43.959368" lon="10.9019101"><ele>125.66666666666666</ele><time>2026-05-02T16:55:32.711Z</time></trkpt><trkpt lat="43.9595193" lon="10.9019397"><ele>129.0</ele><time>2026-05-02T16:55:33.713Z</time></trkpt><trkpt lat="43.9596722" lon="10.9019641"><ele>129.0</ele><time>2026-05-02T16:55:34.708Z</time></trkpt><trkpt lat="43.9598167" lon="10.9019763"><ele>129.0</ele><time>2026-05-02T16:55:35.711Z</time></trkpt><trkpt lat="43.9599405" lon="10.9019928"><ele>129.0</ele><time>2026-05-02T16:55:36.706Z</time></trkpt><trkpt lat="43.9600677" lon="10.9020119"><ele>129.0</ele><time>2026-05-02T16:55:37.712Z</time></trkpt><trkpt lat="43.9601795" lon="10.9020337"><ele>129.8</ele><time>2026-05-02T16:55:38.711Z</time></trkpt><trkpt lat="43.9602896" lon="10.9020462"><ele>130.60000000000002</ele><time>2026-05-02T16:55:39.71Z</time></trkpt><trkpt lat="43.9603951" lon="10.9020628"><ele>131.4</ele><time>2026-05-02T16:55:40.712Z</time></trkpt><trkpt lat="43.9604914" lon="10.9020697"><ele>132.20000000000002</ele><time>2026-05-02T16:55:41.714Z</time></trkpt><trkpt lat="43.9605863" lon="10.9020777"><ele>133.0</ele><time>2026-05-02T16:55:42.712Z</time></trkpt><trkpt lat="43.9606963" lon="10.9020924"><ele>133.0</ele><time>2026-05-02T16:55:43.712Z</time></trkpt><trkpt lat="43.9608125" lon="10.9021065"><ele>133.0</ele><time>2026-05-02T16:55:44.713Z</time></trkpt><trkpt lat="43.9609462" lon="10.9021133"><ele>133.0</ele><time>2026-05-02T16:55:45.711Z</time></trkpt><trkpt lat="43.9610901" lon="10.9021272"><ele>133.0</ele><time>2026-05-02T16:55:46.711Z</time></trkpt><trkpt lat="43.961238" lon="10.9021432"><ele>135.0</ele><time>2026-05-02T16:55:47.715Z</time></trkpt><trkpt lat="43.9614018" lon="10.9021581"><ele>137.0</ele><time>2026-05-02T16:55:48.716Z</time></trkpt><trkpt lat="43.9615888" lon="10.9021809"><ele>139.0</ele><time>2026-05-02T16:55:49.709Z</time></trkpt><trkpt lat="43.9617792" lon="10.9022044"><ele>141.33333333333334</ele><time>2026-05-02T16:55:50.709Z</time></trkpt><trkpt lat="43.9619866" lon="10.9022241"><ele>143.66666666666666</ele><time>2026-05-02T16:55:51.705Z</time></trkpt><trkpt lat="43.9621891" lon="10.9022502"><ele>146.0</ele><time>2026-05-02T16:55:52.706Z</time></trkpt><trkpt lat="43.9623896" lon="10.9022797"><ele>150.66666666666666</ele><time>2026-05-02T16:55:53.711Z</time></trkpt><trkpt lat="43.9625765" lon="10.9023042"><ele>155.33333333333334</ele><time>2026-05-02T16:55:54.713Z</time></trkpt><trkpt lat="43.962749" lon="10.9023356"><ele>160.0</ele><time>2026-05-02T16:55:55.707Z</time></trkpt><trkpt lat="43.9629163" lon="10.9023851"><ele>160.0</ele><time>2026-05-02T16:55:56.717Z</time></trkpt><trkpt lat="43.9630911" lon="10.9024642"><ele>160.0</ele><time>2026-05-02T16:55:57.711Z</time></trkpt><trkpt lat="43.9632484" lon="10.9025828"><ele>160.0</ele><time>2026-05-02T16:55:58.709Z</time></trkpt><trkpt lat="43.9633942" lon="10.9027295"><ele>163.0</ele><time>2026-05-02T16:55:59.715Z</time></trkpt><trkpt lat="43.9634947" lon="10.902919"><ele>166.0</ele><time>2026-05-02T16:56:00.715Z</time></trkpt><trkpt lat="43.963564" lon="10.9031053"><ele>169.0</ele><time>2026-05-02T16:56:01.711Z</time></trkpt><trkpt lat="43.9636033" lon="10.9033114"><ele>171.66666666666669</ele><time>2026-05-02T16:56:02.712Z</time></trkpt><trkpt lat="43.9636053" lon="10.9035272"><ele>174.33333333333334</ele><time>2026-05-02T16:56:03.71Z</time></trkpt><trkpt lat="43.9635797" lon="10.9037288"><ele>177.0</ele><time>2026-05-02T16:56:04.71Z</time></trkpt><trkpt lat="43.9635068" lon="10.9039241"><ele>177.0</ele><time>2026-05-02T16:56:05.721Z</time></trkpt><trkpt lat="43.9634071" lon="10.9041175"><ele>177.0</ele><time>2026-05-02T16:56:06.711Z</time></trkpt><trkpt lat="43.9633177" lon="10.9043037"><ele>177.0</ele><time>2026-05-02T16:56:07.716Z</time></trkpt><trkpt lat="43.9632598" lon="10.9044636"><ele>173.5</ele><time>2026-05-02T16:56:08.71Z</time></trkpt><trkpt lat="43.9632179" lon="10.9046281"><ele>170.0</ele><time>2026-05-02T16:56:09.717Z</time></trkpt><trkpt lat="43.9631912" lon="10.9048031"><ele>166.5</ele><time>2026-05-02T16:56:10.714Z</time></trkpt><trkpt lat="43.9632089" lon="10.9049888"><ele>163.0</ele><time>2026-05-02T16:56:11.71Z</time></trkpt><trkpt lat="43.9632573" lon="10.9051818"><ele>168.0</ele><time>2026-05-02T16:56:12.725Z</time></trkpt><trkpt lat="43.9635317" lon="10.9052547"><ele>173.0</ele><time>2026-05-02T16:56:13.712Z</time></trkpt><trkpt lat="43.9636878" lon="10.9054092"><ele>173.0</ele><time>2026-05-02T16:56:14.71Z</time></trkpt><trkpt lat="43.963851" lon="10.9055644"><ele>173.0</ele><time>2026-05-02T16:56:15.725Z</time></trkpt><trkpt lat="43.9639914" lon="10.905715"><ele>173.0</ele><time>2026-05-02T16:56:16.717Z</time></trkpt><trkpt lat="43.9641351" lon="10.9058504"><ele>173.75</ele><time>2026-05-02T16:56:17.71Z</time></trkpt><trkpt lat="43.9642655" lon="10.9059758"><ele>174.5</ele><time>2026-05-02T16:56:18.712Z</time></trkpt><trkpt lat="43.9643839" lon="10.9060873"><ele>175.25</ele><time>2026-05-02T16:56:19.71Z</time></trkpt><trkpt lat="43.9644935" lon="10.9061837"><ele>176.0</ele><time>2026-05-02T16:56:20.709Z</time></trkpt><trkpt lat="43.9646104" lon="10.9062717"><ele>176.0</ele><time>2026-05-02T16:56:21.715Z</time></trkpt><trkpt lat="43.9647366" lon="10.9063474"><ele>176.0</ele><time>2026-05-02T16:56:22.71Z</time></trkpt><trkpt lat="43.9648642" lon="10.9064116"><ele>176.0</ele><time>2026-05-02T16:56:23.717Z</time></trkpt><trkpt lat="43.9650245" lon="10.9064453"><ele>176.0</ele><time>2026-05-02T16:56:24.713Z</time></trkpt><trkpt lat="43.9651783" lon="10.9064729"><ele>176.5</ele><time>2026-05-02T16:56:25.709Z</time></trkpt><trkpt lat="43.9653271" lon="10.9064891"><ele>177.0</ele><time>2026-05-02T16:56:26.715Z</time></trkpt><trkpt lat="43.9654578" lon="10.9064978"><ele>177.5</ele><time>2026-05-02T16:56:27.722Z</time></trkpt><trkpt lat="43.9655898" lon="10.9065121"><ele>178.0</ele><time>2026-05-02T16:56:28.71Z</time></trkpt><trkpt lat="43.9656878" lon="10.9065174"><ele>178.0</ele><time>2026-05-02T16:56:29.713Z</time></trkpt><trkpt lat="43.9657834" lon="10.9064979"><ele>178.0</ele><time>2026-05-02T16:56:30.717Z</time></trkpt><trkpt lat="43.965881" lon="10.9064543"><ele>178.0</ele><time>2026-05-02T16:56:31.729Z</time></trkpt><trkpt lat="43.9659936" lon="10.9063424"><ele>178.0</ele><time>2026-05-02T16:56:32.711Z</time></trkpt><trkpt lat="43.9660647" lon="10.9062258"><ele>178.0</ele><time>2026-05-02T16:56:33.708Z</time></trkpt><trkpt lat="43.9661557" lon="10.9061043"><ele>178.75</ele><time>2026-05-02T16:56:34.715Z</time></trkpt><trkpt lat="43.9662584" lon="10.9060363"><ele>179.5</ele><time>2026-05-02T16:56:35.711Z</time></trkpt><trkpt lat="43.9663719" lon="10.9059973"><ele>180.25</ele><time>2026-05-02T16:56:36.712Z</time></trkpt><trkpt lat="43.966484" lon="10.9060136"><ele>181.0</ele><time>2026-05-02T16:56:37.709Z</time></trkpt><trkpt lat="43.9665992" lon="10.9060457"><ele>183.0</ele><time>2026-05-02T16:56:38.715Z</time></trkpt><trkpt lat="43.9667096" lon="10.9061211"><ele>185.0</ele><time>2026-05-02T16:56:39.718Z</time></trkpt><trkpt lat="43.9668364" lon="10.9062045"><ele>187.0</ele><time>2026-05-02T16:56:40.715Z</time></trkpt><trkpt lat="43.9669704" lon="10.9062953"><ele>189.0</ele><time>2026-05-02T16:56:41.708Z</time></trkpt><trkpt lat="43.9670904" lon="10.9063734"><ele>189.0</ele><time>2026-05-02T16:56:42.712Z</time></trkpt><trkpt lat="43.9672066" lon="10.9064301"><ele>189.0</ele><time>2026-05-02T16:56:43.71Z</time></trkpt><trkpt lat="43.9673305" lon="10.9064639"><ele>189.0</ele><time>2026-05-02T16:56:44.706Z</time></trkpt><trkpt lat="43.9674283" lon="10.9064514"><ele>189.0</ele><time>2026-05-02T16:56:45.711Z</time></trkpt><trkpt lat="43.9675328" lon="10.9064242"><ele>188.39999999999998</ele><time>2026-05-02T16:56:46.708Z</time></trkpt><trkpt lat="43.9676427" lon="10.9063425"><ele>187.8</ele><time>2026-05-02T16:56:47.717Z</time></trkpt><trkpt lat="43.9677223" lon="10.9062581"><ele>187.2</ele><time>2026-05-02T16:56:48.712Z</time></trkpt><trkpt lat="43.9678249" lon="10.9061861"><ele>186.60000000000002</ele><time>2026-05-02T16:56:49.721Z</time></trkpt><trkpt lat="43.9678765" lon="10.9060678"><ele>186.0</ele><time>2026-05-02T16:56:50.708Z</time></trkpt><trkpt lat="43.9679078" lon="10.9056555"><ele>186.0</ele><time>2026-05-02T16:56:51.708Z</time></trkpt><trkpt lat="43.9679751" lon="10.9053809"><ele>186.0</ele><time>2026-05-02T16:56:52.711Z</time></trkpt><trkpt lat="43.9680538" lon="10.9051203"><ele>186.0</ele><time>2026-05-02T16:56:53.709Z</time></trkpt><trkpt lat="43.9681231" lon="10.9048172"><ele>188.66666666666669</ele><time>2026-05-02T16:56:54.712Z</time></trkpt><trkpt lat="43.9682073" lon="10.904554"><ele>191.33333333333334</ele><time>2026-05-02T16:56:55.73Z</time></trkpt><trkpt lat="43.9683209" lon="10.9043301"><ele>194.0</ele><time>2026-05-02T16:56:56.713Z</time></trkpt><trkpt lat="43.9684414" lon="10.9041505"><ele>194.0</ele><time>2026-05-02T16:56:57.716Z</time></trkpt><trkpt lat="43.9685958" lon="10.9039802"><ele>194.0</ele><time>2026-05-02T16:56:58.706Z</time></trkpt><trkpt lat="43.9687526" lon="10.9038251"><ele>194.0</ele><time>2026-05-02T16:56:59.708Z</time></trkpt><trkpt lat="43.968928" lon="10.9036821"><ele>194.0</ele><time>2026-05-02T16:57:00.709Z</time></trkpt><trkpt lat="43.9691127" lon="10.9035583"><ele>194.0</ele><time>2026-05-02T16:57:01.712Z</time></trkpt><trkpt lat="43.9692929" lon="10.9034623"><ele>194.0</ele><time>2026-05-02T16:57:02.709Z</time></trkpt><trkpt lat="43.9694672" lon="10.9033989"><ele>197.33333333333334</ele><time>2026-05-02T16:57:03.723Z</time></trkpt><trkpt lat="43.9696414" lon="10.9033597"><ele>200.66666666666669</ele><time>2026-05-02T16:57:04.714Z</time></trkpt><trkpt lat="43.9698151" lon="10.9033545"><ele>204.0</ele><time>2026-05-02T16:57:05.712Z</time></trkpt><trkpt lat="43.9700027" lon="10.9033762"><ele>204.33333333333331</ele><time>2026-05-02T16:57:06.714Z</time></trkpt><trkpt lat="43.9701845" lon="10.9034328"><ele>204.66666666666666</ele><time>2026-05-02T16:57:07.721Z</time></trkpt><trkpt lat="43.9703681" lon="10.9034914"><ele>205.0</ele><time>2026-05-02T16:57:08.712Z</time></trkpt><trkpt lat="43.9705527" lon="10.9035553"><ele>205.0</ele><time>2026-05-02T16:57:09.72Z</time></trkpt><trkpt lat="43.9707375" lon="10.9036233"><ele>205.0</ele><time>2026-05-02T16:57:10.712Z</time></trkpt><trkpt lat="43.9709277" lon="10.9036929"><ele>205.0</ele><time>2026-05-02T16:57:11.711Z</time></trkpt><trkpt lat="43.9711079" lon="10.9037552"><ele>207.33333333333331</ele><time>2026-05-02T16:57:12.721Z</time></trkpt><trkpt lat="43.9712878" lon="10.9038299"><ele>209.66666666666669</ele><time>2026-05-02T16:57:13.708Z</time></trkpt><trkpt lat="43.9714513" lon="10.9038915"><ele>212.0</ele><time>2026-05-02T16:57:14.716Z</time></trkpt><trkpt lat="43.9715965" lon="10.9039429"><ele>214.0</ele><time>2026-05-02T16:57:15.717Z</time></trkpt><trkpt lat="43.9717356" lon="10.9039903"><ele>216.0</ele><time>2026-05-02T16:57:16.717Z</time></trkpt><trkpt lat="43.9718564" lon="10.9040378"><ele>218.0</ele><time>2026-05-02T16:57:17.712Z</time></trkpt><trkpt lat="43.9719808" lon="10.9040691"><ele>220.0</ele><time>2026-05-02T16:57:18.709Z</time></trkpt><trkpt lat="43.9721046" lon="10.9041064"><ele>220.0</ele><time>2026-05-02T16:57:19.709Z</time></trkpt><trkpt lat="43.9722331" lon="10.9041439"><ele>220.0</ele><time>2026-05-02T16:57:20.707Z</time></trkpt><trkpt lat="43.9723662" lon="10.9041696"><ele>220.0</ele><time>2026-05-02T16:57:21.734Z</time></trkpt><trkpt lat="43.9724843" lon="10.9041755"><ele>220.0</ele><time>2026-05-02T16:57:22.711Z</time></trkpt><trkpt lat="43.9725916" lon="10.9041515"><ele>219.75</ele><time>2026-05-02T16:57:23.718Z</time></trkpt><trkpt lat="43.9727088" lon="10.9041015"><ele>219.5</ele><time>2026-05-02T16:57:24.714Z</time></trkpt><trkpt lat="43.9728061" lon="10.9040224"><ele>219.25</ele><time>2026-05-02T16:57:25.707Z</time></trkpt><trkpt lat="43.9728944" lon="10.9039065"><ele>219.0</ele><time>2026-05-02T16:57:26.714Z</time></trkpt><trkpt lat="43.9729634" lon="10.903764"><ele>219.0</ele><time>2026-05-02T16:57:27.709Z</time></trkpt><trkpt lat="43.9730335" lon="10.9035994"><ele>219.0</ele><time>2026-05-02T16:57:28.723Z</time></trkpt><trkpt lat="43.9730978" lon="10.9034193"><ele>219.0</ele><time>2026-05-02T16:57:29.712Z</time></trkpt><trkpt lat="43.9731535" lon="10.903237"><ele>219.0</ele><time>2026-05-02T16:57:30.72Z</time></trkpt><trkpt lat="43.9732072" lon="10.9030741"><ele>220.2</ele><time>2026-05-02T16:57:31.715Z</time></trkpt><trkpt lat="43.9732503" lon="10.9029274"><ele>221.39999999999998</ele><time>2026-05-02T16:57:32.711Z</time></trkpt><trkpt lat="43.9732975" lon="10.9027912"><ele>222.6</ele><time>2026-05-02T16:57:33.716Z</time></trkpt><trkpt lat="43.9733439" lon="10.9026535"><ele>223.8</ele><time>2026-05-02T16:57:34.712Z</time></trkpt><trkpt lat="43.973413" lon="10.9025362"><ele>225.0</ele><time>2026-05-02T16:57:35.718Z</time></trkpt><trkpt lat="43.9735016" lon="10.9024533"><ele>228.0</ele><time>2026-05-02T16:57:36.712Z</time></trkpt><trkpt lat="43.9736007" lon="10.9024044"><ele>231.0</ele><time>2026-05-02T16:57:37.716Z</time></trkpt><trkpt lat="43.9737207" lon="10.9023726"><ele>234.0</ele><time>2026-05-02T16:57:38.728Z</time></trkpt><trkpt lat="43.9738505" lon="10.9023726"><ele>237.0</ele><time>2026-05-02T16:57:39.712Z</time></trkpt><trkpt lat="43.9739871" lon="10.9023708"><ele>237.0</ele><time>2026-05-02T16:57:40.71Z</time></trkpt><trkpt lat="43.9741223" lon="10.9023583"><ele>237.0</ele><time>2026-05-02T16:57:41.711Z</time></trkpt><trkpt lat="43.9742548" lon="10.9023302"><ele>237.0</ele><time>2026-05-02T16:57:42.707Z</time></trkpt><trkpt lat="43.9743876" lon="10.9022659"><ele>237.0</ele><time>2026-05-02T16:57:43.707Z</time></trkpt><trkpt lat="43.9745105" lon="10.9022057"><ele>237.75</ele><time>2026-05-02T16:57:44.71Z</time></trkpt><trkpt lat="43.9746263" lon="10.9021525"><ele>238.5</ele><time>2026-05-02T16:57:45.727Z</time></trkpt><trkpt lat="43.9747351" lon="10.902133"><ele>239.25</ele><time>2026-05-02T16:57:46.713Z</time></trkpt><trkpt lat="43.9748524" lon="10.9021352"><ele>240.0</ele><time>2026-05-02T16:57:47.711Z</time></trkpt><trkpt lat="43.9749801" lon="10.9021661"><ele>243.5</ele><time>2026-05-02T16:57:48.718Z</time></trkpt><trkpt lat="43.9751064" lon="10.9022433"><ele>247.0</ele><time>2026-05-02T16:57:49.71Z</time></trkpt><trkpt lat="43.9752428" lon="10.9023281"><ele>250.5</ele><time>2026-05-02T16:57:50.716Z</time></trkpt><trkpt lat="43.9753829" lon="10.9024018"><ele>254.0</ele><time>2026-05-02T16:57:51.72Z</time></trkpt><trkpt lat="43.9755029" lon="10.9024678"><ele>254.0</ele><time>2026-05-02T16:57:52.713Z</time></trkpt><trkpt lat="43.9756188" lon="10.9025257"><ele>253.99999999999997</ele><time>2026-05-02T16:57:53.715Z</time></trkpt><trkpt lat="43.9757191" lon="10.9025709"><ele>253.99999999999997</ele><time>2026-05-02T16:57:54.725Z</time></trkpt><trkpt lat="43.9758269" lon="10.9025929"><ele>254.0</ele><time>2026-05-02T16:57:55.715Z</time></trkpt><trkpt lat="43.9759368" lon="10.9025683"><ele>254.0</ele><time>2026-05-02T16:57:56.721Z</time></trkpt><trkpt lat="43.9760501" lon="10.9025261"><ele>254.0</ele><time>2026-05-02T16:57:57.705Z</time></trkpt><trkpt lat="43.9761511" lon="10.9024848"><ele>254.0</ele><time>2026-05-02T16:57:58.71Z</time></trkpt><trkpt lat="43.976281" lon="10.9024027"><ele>254.0</ele><time>2026-05-02T16:57:59.712Z</time></trkpt><trkpt lat="43.9764129" lon="10.9023278"><ele>254.0</ele><time>2026-05-02T16:58:00.712Z</time></trkpt><trkpt lat="43.9765673" lon="10.9022744"><ele>255.0</ele><time>2026-05-02T16:58:01.716Z</time></trkpt><trkpt lat="43.9767398" lon="10.9022248"><ele>256.0</ele><time>2026-05-02T16:58:02.716Z</time></trkpt><trkpt lat="43.9769226" lon="10.9022037"><ele>257.0</ele><time>2026-05-02T16:58:03.709Z</time></trkpt><trkpt lat="43.9770992" lon="10.9022346"><ele>257.0</ele><time>2026-05-02T16:58:04.709Z</time></trkpt><trkpt lat="43.9772978" lon="10.9022335"><ele>257.0</ele><time>2026-05-02T16:58:05.715Z</time></trkpt><trkpt lat="43.9775223" lon="10.9022372"><ele>257.0</ele><time>2026-05-02T16:58:06.71Z</time></trkpt><trkpt lat="43.9777481" lon="10.9022726"><ele>260.5</ele><time>2026-05-02T16:58:07.711Z</time></trkpt><trkpt lat="43.9779681" lon="10.9022783"><ele>264.0</ele><time>2026-05-02T16:58:08.71Z</time></trkpt><trkpt lat="43.9781968" lon="10.9022463"><ele>270.5</ele><time>2026-05-02T16:58:09.714Z</time></trkpt><trkpt lat="43.9784364" lon="10.9021861"><ele>277.0</ele><time>2026-05-02T16:58:10.723Z</time></trkpt><trkpt lat="43.9786724" lon="10.9021244"><ele>277.0</ele><time>2026-05-02T16:58:11.709Z</time></trkpt><trkpt lat="43.9788723" lon="10.9020667"><ele>277.0</ele><time>2026-05-02T16:58:12.708Z</time></trkpt><trkpt lat="43.9790727" lon="10.9020113"><ele>277.0</ele><time>2026-05-02T16:58:13.715Z</time></trkpt><trkpt lat="43.979251" lon="10.9019674"><ele>280.3333333333333</ele><time>2026-05-02T16:58:14.714Z</time></trkpt><trkpt lat="43.9793994" lon="10.9018888"><ele>283.6666666666667</ele><time>2026-05-02T16:58:15.723Z</time></trkpt><trkpt lat="43.9795388" lon="10.901785"><ele>287.0</ele><time>2026-05-02T16:58:16.719Z</time></trkpt><trkpt lat="43.9796577" lon="10.9016552"><ele>287.0</ele><time>2026-05-02T16:58:17.711Z</time></trkpt><trkpt lat="43.9797016" lon="10.9014868"><ele>287.0</ele><time>2026-05-02T16:58:18.711Z</time></trkpt><trkpt lat="43.9797585" lon="10.9013045"><ele>287.0</ele><time>2026-05-02T16:58:19.718Z</time></trkpt><trkpt lat="43.9797472" lon="10.9010885"><ele>287.0</ele><time>2026-05-02T16:58:20.709Z</time></trkpt><trkpt lat="43.9797296" lon="10.9008351"><ele>286.6666666666667</ele><time>2026-05-02T16:58:21.714Z</time></trkpt><trkpt lat="43.9797396" lon="10.9005857"><ele>286.3333333333333</ele><time>2026-05-02T16:58:22.711Z</time></trkpt><trkpt lat="43.979783" lon="10.9003526"><ele>286.0</ele><time>2026-05-02T16:58:23.711Z</time></trkpt><trkpt lat="43.9798338" lon="10.9001362"><ele>285.2</ele><time>2026-05-02T16:58:24.716Z</time></trkpt><trkpt lat="43.9798868" lon="10.8999472"><ele>284.40000000000003</ele><time>2026-05-02T16:58:25.713Z</time></trkpt><trkpt lat="43.9799425" lon="10.8997987"><ele>283.6</ele><time>2026-05-02T16:58:26.719Z</time></trkpt><trkpt lat="43.9800097" lon="10.8997038"><ele>282.8</ele><time>2026-05-02T16:58:27.712Z</time></trkpt><trkpt lat="43.9800848" lon="10.8996656"><ele>282.0</ele><time>2026-05-02T16:58:28.709Z</time></trkpt><trkpt lat="43.9801593" lon="10.8996898"><ele>287.0</ele><time>2026-05-02T16:58:29.712Z</time></trkpt><trkpt lat="43.9802209" lon="10.8997646"><ele>292.0</ele><time>2026-05-02T16:58:30.715Z</time></trkpt><trkpt lat="43.9802366" lon="10.8998738"><ele>297.0</ele><time>2026-05-02T16:58:31.708Z</time></trkpt><trkpt lat="43.9802314" lon="10.9000115"><ele>302.0</ele><time>2026-05-02T16:58:32.722Z</time></trkpt><trkpt lat="43.9802113" lon="10.9001848"><ele>307.0</ele><time>2026-05-02T16:58:33.716Z</time></trkpt><trkpt lat="43.9801859" lon="10.9003807"><ele>308.0</ele><time>2026-05-02T16:58:34.718Z</time></trkpt><trkpt lat="43.9801689" lon="10.9006107"><ele>309.0</ele><time>2026-05-02T16:58:35.714Z</time></trkpt><trkpt lat="43.980171" lon="10.9008586"><ele>310.0</ele><time>2026-05-02T16:58:36.718Z</time></trkpt><trkpt lat="43.9801907" lon="10.9011206"><ele>310.0</ele><time>2026-05-02T16:58:37.715Z</time></trkpt><trkpt lat="43.9802357" lon="10.9013879"><ele>310.0</ele><time>2026-05-02T16:58:38.723Z</time></trkpt><trkpt lat="43.9802748" lon="10.9016577"><ele>310.0</ele><time>2026-05-02T16:58:39.71Z</time></trkpt><trkpt lat="43.9802919" lon="10.9019141"><ele>311.0</ele><time>2026-05-02T16:58:40.71Z</time></trkpt><trkpt lat="43.9802606" lon="10.9021557"><ele>312.0</ele><time>2026-05-02T16:58:41.713Z</time></trkpt><trkpt lat="43.9802001" lon="10.9023964"><ele>313.0</ele><time>2026-05-02T16:58:42.712Z</time></trkpt><trkpt lat="43.9801282" lon="10.9026297"><ele>315.3333333333333</ele><time>2026-05-02T16:58:43.712Z</time></trkpt><trkpt lat="43.9800724" lon="10.9028661"><ele>317.6666666666667</ele><time>2026-05-02T16:58:44.703Z</time></trkpt><trkpt lat="43.9800311" lon="10.9030925"><ele>320.0</ele><time>2026-05-02T16:58:45.708Z</time></trkpt><trkpt lat="43.9800329" lon="10.9033327"><ele>320.33333333333337</ele><time>2026-05-02T16:58:46.709Z</time></trkpt><trkpt lat="43.9801534" lon="10.9035481"><ele>320.6666666666667</ele><time>2026-05-02T16:58:47.709Z</time></trkpt><trkpt lat="43.9802211" lon="10.9037829"><ele>321.0</ele><time>2026-05-02T16:58:48.707Z</time></trkpt><trkpt lat="43.9802696" lon="10.9040062"><ele>321.0</ele><time>2026-05-02T16:58:49.717Z</time></trkpt><trkpt lat="43.9802909" lon="10.9042288"><ele>321.0</ele><time>2026-05-02T16:58:50.712Z</time></trkpt><trkpt lat="43.9802926" lon="10.9044623"><ele>321.0</ele><time>2026-05-02T16:58:51.726Z</time></trkpt><trkpt lat="43.9802682" lon="10.904719"><ele>322.3333333333333</ele><time>2026-05-02T16:58:52.716Z</time></trkpt><trkpt lat="43.9802328" lon="10.9049875"><ele>323.66666666666663</ele><time>2026-05-02T16:58:53.721Z</time></trkpt><trkpt lat="43.9801831" lon="10.9052459"><ele>325.0</ele><time>2026-05-02T16:58:54.71Z</time></trkpt><trkpt lat="43.9801655" lon="10.9054734"><ele>325.25</ele><time>2026-05-02T16:58:55.709Z</time></trkpt><trkpt lat="43.9801631" lon="10.9056877"><ele>325.5</ele><time>2026-05-02T16:58:56.714Z</time></trkpt><trkpt lat="43.9801785" lon="10.9058769"><ele>325.75</ele><time>2026-05-02T16:58:57.712Z</time></trkpt><trkpt lat="43.9802398" lon="10.9060069"><ele>326.0</ele><time>2026-05-02T16:58:58.713Z</time></trkpt><trkpt lat="43.9803076" lon="10.9060953"><ele>326.0</ele><time>2026-05-02T16:58:59.711Z</time></trkpt><trkpt lat="43.9804006" lon="10.9061206"><ele>326.0</ele><time>2026-05-02T16:59:00.715Z</time></trkpt><trkpt lat="43.9804901" lon="10.9061001"><ele>326.0</ele><time>2026-05-02T16:59:01.71Z</time></trkpt><trkpt lat="43.980584" lon="10.9060793"><ele>326.0</ele><time>2026-05-02T16:59:02.72Z</time></trkpt><trkpt lat="43.9806821" lon="10.9060059"><ele>326.0</ele><time>2026-05-02T16:59:03.713Z</time></trkpt><trkpt lat="43.9807861" lon="10.9058093"><ele>326.0</ele><time>2026-05-02T16:59:04.714Z</time></trkpt><trkpt lat="43.9806915" lon="10.9054726"><ele>326.0</ele><time>2026-05-02T16:59:05.717Z</time></trkpt><trkpt lat="43.9806957" lon="10.9052074"><ele>325.6666666666667</ele><time>2026-05-02T16:59:06.715Z</time></trkpt><trkpt lat="43.9807232" lon="10.9049202"><ele>325.3333333333333</ele><time>2026-05-02T16:59:07.723Z</time></trkpt><trkpt lat="43.9807551" lon="10.904625"><ele>325.0</ele><time>2026-05-02T16:59:08.709Z</time></trkpt><trkpt lat="43.9807844" lon="10.9043189"><ele>323.66666666666663</ele><time>2026-05-02T16:59:09.712Z</time></trkpt><trkpt lat="43.980811" lon="10.9040498"><ele>322.3333333333333</ele><time>2026-05-02T16:59:10.709Z</time></trkpt><trkpt lat="43.980831" lon="10.9038053"><ele>321.0</ele><time>2026-05-02T16:59:11.704Z</time></trkpt><trkpt lat="43.9808699" lon="10.9035993"><ele>329.6666666666667</ele><time>2026-05-02T16:59:12.708Z</time></trkpt><trkpt lat="43.9809422" lon="10.9034122"><ele>338.33333333333337</ele><time>2026-05-02T16:59:13.706Z</time></trkpt><trkpt lat="43.9810474" lon="10.9032363"><ele>347.0</ele><time>2026-05-02T16:59:14.714Z</time></trkpt><trkpt lat="43.9811739" lon="10.9030572"><ele>347.0</ele><time>2026-05-02T16:59:15.709Z</time></trkpt><trkpt lat="43.9813224" lon="10.9028904"><ele>347.0</ele><time>2026-05-02T16:59:16.71Z</time></trkpt><trkpt lat="43.9814649" lon="10.9027321"><ele>347.0</ele><time>2026-05-02T16:59:17.707Z</time></trkpt><trkpt lat="43.9815775" lon="10.9025815"><ele>344.75</ele><time>2026-05-02T16:59:18.706Z</time></trkpt><trkpt lat="43.9816475" lon="10.9024076"><ele>342.5</ele><time>2026-05-02T16:59:19.711Z</time></trkpt><trkpt lat="43.9816917" lon="10.9022124"><ele>340.25</ele><time>2026-05-02T16:59:20.711Z</time></trkpt><trkpt lat="43.9817038" lon="10.9020045"><ele>338.0</ele><time>2026-05-02T16:59:21.711Z</time></trkpt><trkpt lat="43.9816848" lon="10.9017682"><ele>337.6666666666667</ele><time>2026-05-02T16:59:22.714Z</time></trkpt><trkpt lat="43.9816526" lon="10.9015155"><ele>337.3333333333333</ele><time>2026-05-02T16:59:23.717Z</time></trkpt><trkpt lat="43.9816257" lon="10.90128"><ele>337.0</ele><time>2026-05-02T16:59:24.708Z</time></trkpt><trkpt lat="43.9816218" lon="10.9010895"><ele>337.25</ele><time>2026-05-02T16:59:25.722Z</time></trkpt><trkpt lat="43.9816291" lon="10.9009042"><ele>337.5</ele><time>2026-05-02T16:59:26.717Z</time></trkpt><trkpt lat="43.9816771" lon="10.9007301"><ele>337.75</ele><time>2026-05-02T16:59:27.709Z</time></trkpt><trkpt lat="43.9817504" lon="10.9005807"><ele>338.0</ele><time>2026-05-02T16:59:28.715Z</time></trkpt><trkpt lat="43.9818596" lon="10.9004684"><ele>339.79999999999995</ele><time>2026-05-02T16:59:29.707Z</time></trkpt><trkpt lat="43.9819662" lon="10.9003963"><ele>341.6</ele><time>2026-05-02T16:59:30.711Z</time></trkpt><trkpt lat="43.9820712" lon="10.9003823"><ele>343.4</ele><time>2026-05-02T16:59:31.72Z</time></trkpt><trkpt lat="43.9821729" lon="10.9004191"><ele>345.20000000000005</ele><time>2026-05-02T16:59:32.71Z</time></trkpt><trkpt lat="43.9822663" lon="10.9004985"><ele>347.0</ele><time>2026-05-02T16:59:33.71Z</time></trkpt><trkpt lat="43.9823255" lon="10.9006112"><ele>347.0</ele><time>2026-05-02T16:59:34.721Z</time></trkpt><trkpt lat="43.9823531" lon="10.9007494"><ele>347.0</ele><time>2026-05-02T16:59:35.712Z</time></trkpt><trkpt lat="43.982367" lon="10.900916"><ele>347.0</ele><time>2026-05-02T16:59:36.709Z</time></trkpt><trkpt lat="43.9823591" lon="10.9011319"><ele>347.0</ele><time>2026-05-02T16:59:37.723Z</time></trkpt><trkpt lat="43.9823485" lon="10.9013649"><ele>350.0</ele><time>2026-05-02T16:59:38.721Z</time></trkpt><trkpt lat="43.9823369" lon="10.9016169"><ele>353.0</ele><time>2026-05-02T16:59:39.724Z</time></trkpt><trkpt lat="43.9823171" lon="10.9018952"><ele>356.0</ele><time>2026-05-02T16:59:40.714Z</time></trkpt><trkpt lat="43.982302" lon="10.9021874"><ele>358.0</ele><time>2026-05-02T16:59:41.722Z</time></trkpt><trkpt lat="43.9822807" lon="10.9024915"><ele>360.0</ele><time>2026-05-02T16:59:42.71Z</time></trkpt><trkpt lat="43.9822665" lon="10.9028036"><ele>362.0</ele><time>2026-05-02T16:59:43.71Z</time></trkpt><trkpt lat="43.9822487" lon="10.9031227"><ele>373.0</ele><time>2026-05-02T16:59:44.714Z</time></trkpt><trkpt lat="43.9822359" lon="10.9034516"><ele>384.0</ele><time>2026-05-02T16:59:45.705Z</time></trkpt><trkpt lat="43.9822268" lon="10.9038008"><ele>384.0</ele><time>2026-05-02T16:59:46.716Z</time></trkpt><trkpt lat="43.9821953" lon="10.904134"><ele>384.0</ele><time>2026-05-02T16:59:47.724Z</time></trkpt><trkpt lat="43.9821875" lon="10.9044652"><ele>383.6666666666667</ele><time>2026-05-02T16:59:48.712Z</time></trkpt><trkpt lat="43.9821952" lon="10.9047769"><ele>383.33333333333337</ele><time>2026-05-02T16:59:49.712Z</time></trkpt><trkpt lat="43.9822178" lon="10.9050454"><ele>383.0</ele><time>2026-05-02T16:59:50.703Z</time></trkpt><trkpt lat="43.9822358" lon="10.9052982"><ele>380.25</ele><time>2026-05-02T16:59:51.705Z</time></trkpt><trkpt lat="43.982296" lon="10.9054717"><ele>377.5</ele><time>2026-05-02T16:59:52.709Z</time></trkpt><trkpt lat="43.982409" lon="10.9056053"><ele>374.75</ele><time>2026-05-02T16:59:53.707Z</time></trkpt><trkpt lat="43.9825212" lon="10.905726"><ele>372.0</ele><time>2026-05-02T16:59:54.709Z</time></trkpt><trkpt lat="43.982669" lon="10.9057965"><ele>369.3333333333333</ele><time>2026-05-02T16:59:55.709Z</time></trkpt><trkpt lat="43.9828118" lon="10.9058639"><ele>366.66666666666663</ele><time>2026-05-02T16:59:56.712Z</time></trkpt><trkpt lat="43.9829834" lon="10.905917"><ele>364.0</ele><time>2026-05-02T16:59:57.709Z</time></trkpt><trkpt lat="43.9831708" lon="10.9059692"><ele>372.66666666666663</ele><time>2026-05-02T16:59:58.711Z</time></trkpt><trkpt lat="43.9833614" lon="10.9060193"><ele>381.3333333333333</ele><time>2026-05-02T16:59:59.71Z</time></trkpt><trkpt lat="43.9835634" lon="10.9060782"><ele>390.0</ele><time>2026-05-02T17:00:00.711Z</time></trkpt><trkpt lat="43.9837448" lon="10.9061587"><ele>390.0</ele><time>2026-05-02T17:00:01.708Z</time></trkpt><trkpt lat="43.9839008" lon="10.906236"><ele>390.0</ele><time>2026-05-02T17:00:02.718Z</time></trkpt><trkpt lat="43.9840615" lon="10.9063241"><ele>390.0</ele><time>2026-05-02T17:00:03.709Z</time></trkpt><trkpt lat="43.9842111" lon="10.9063855"><ele>398.6</ele><time>2026-05-02T17:00:04.716Z</time></trkpt><trkpt lat="43.9843234" lon="10.9063607"><ele>407.2</ele><time>2026-05-02T17:00:05.715Z</time></trkpt><trkpt lat="43.9843904" lon="10.9063452"><ele>415.79999999999995</ele><time>2026-05-02T17:00:06.729Z</time></trkpt><trkpt lat="43.9844842" lon="10.9062975"><ele>424.4</ele><time>2026-05-02T17:00:11.71Z</time></trkpt><trkpt lat="43.9845737" lon="10.9063545"><ele>433.0</ele><time>2026-05-02T17:00:14.717Z</time></trkpt><trkpt lat="43.9845955" lon="10.9064966"><ele>433.00000000000006</ele><time>2026-05-02T17:00:17.713Z</time></trkpt><trkpt lat="43.9845963" lon="10.9066078"><ele>433.0</ele><time>2026-05-02T17:00:18.725Z</time></trkpt><trkpt lat="43.9845875" lon="10.9067758"><ele>433.0</ele><time>2026-05-02T17:00:20.712Z</time></trkpt><trkpt lat="43.9845883" lon="10.9068689"><ele>433.0</ele><time>2026-05-02T17:00:21.708Z</time></trkpt><trkpt lat="43.9845821" lon="10.9069868"><ele>433.00000000000006</ele><time>2026-05-02T17:00:22.71Z</time></trkpt><trkpt lat="43.9845805" lon="10.9070869"><ele>433.0</ele><time>2026-05-02T17:00:23.713Z</time></trkpt><trkpt lat="43.9845798" lon="10.9072009"><ele>431.99999999999994</ele><time>2026-05-02T17:00:24.713Z</time></trkpt><trkpt lat="43.9845742" lon="10.9072893"><ele>431.0</ele><time>2026-05-02T17:00:25.713Z</time></trkpt><trkpt lat="43.9845722" lon="10.9073865"><ele>430.0</ele><time>2026-05-02T17:00:26.712Z</time></trkpt><trkpt lat="43.9845715" lon="10.9074826"><ele>429.0</ele><time>2026-05-02T17:00:27.71Z</time></trkpt><trkpt lat="43.9845722" lon="10.9075867"><ele>428.0</ele><time>2026-05-02T17:00:28.715Z</time></trkpt><trkpt lat="43.984575" lon="10.9077009"><ele>426.99999999999994</ele><time>2026-05-02T17:00:29.713Z</time></trkpt><trkpt lat="43.9845664" lon="10.9078203"><ele>426.0</ele><time>2026-05-02T17:00:30.724Z</time></trkpt><trkpt lat="43.9845608" lon="10.9079398"><ele>424.6</ele><time>2026-05-02T17:00:31.715Z</time></trkpt><trkpt lat="43.9845562" lon="10.9080602"><ele>423.20000000000005</ele><time>2026-05-02T17:00:32.711Z</time></trkpt><trkpt lat="43.9845478" lon="10.9081916"><ele>421.79999999999995</ele><time>2026-05-02T17:00:33.711Z</time></trkpt><trkpt lat="43.9845394" lon="10.9083225"><ele>420.4</ele><time>2026-05-02T17:00:34.71Z</time></trkpt><trkpt lat="43.9845515" lon="10.9084598"><ele>419.0</ele><time>2026-05-02T17:00:35.709Z</time></trkpt><trkpt lat="43.9845525" lon="10.9085859"><ele>417.0</ele><time>2026-05-02T17:00:36.71Z</time></trkpt><trkpt lat="43.9845819" lon="10.9087069"><ele>415.0</ele><time>2026-05-02T17:00:37.72Z</time></trkpt><trkpt lat="43.9846273" lon="10.908824"><ele>413.0</ele><time>2026-05-02T17:00:38.722Z</time></trkpt><trkpt lat="43.9846894" lon="10.9089277"><ele>411.0</ele><time>2026-05-02T17:00:39.716Z</time></trkpt><trkpt lat="43.9847368" lon="10.9090387"><ele>409.0</ele><time>2026-05-02T17:00:40.712Z</time></trkpt><trkpt lat="43.9848085" lon="10.9091237"><ele>409.0</ele><time>2026-05-02T17:00:41.711Z</time></trkpt><trkpt lat="43.9848828" lon="10.9092079"><ele>409.0</ele><time>2026-05-02T17:00:42.711Z</time></trkpt><trkpt lat="43.9849717" lon="10.9092461"><ele>409.0</ele><time>2026-05-02T17:00:43.712Z</time></trkpt><trkpt lat="43.9850721" lon="10.909279"><ele>409.0</ele><time>2026-05-02T17:00:44.711Z</time></trkpt><trkpt lat="43.9851676" lon="10.9093175"><ele>409.0</ele><time>2026-05-02T17:00:45.723Z</time></trkpt><trkpt lat="43.985271" lon="10.9093356"><ele>407.79999999999995</ele><time>2026-05-02T17:00:46.711Z</time></trkpt><trkpt lat="43.9853694" lon="10.9093664"><ele>406.59999999999997</ele><time>2026-05-02T17:00:47.711Z</time></trkpt><trkpt lat="43.9854628" lon="10.9094161"><ele>405.4</ele><time>2026-05-02T17:00:48.708Z</time></trkpt><trkpt lat="43.9855663" lon="10.9094513"><ele>404.2</ele><time>2026-05-02T17:00:49.709Z</time></trkpt><trkpt lat="43.9856613" lon="10.9094734"><ele>403.0</ele><time>2026-05-02T17:00:50.714Z</time></trkpt><trkpt lat="43.9857614" lon="10.9094984"><ele>409.5</ele><time>2026-05-02T17:00:51.734Z</time></trkpt><trkpt lat="43.9858749" lon="10.9095102"><ele>416.0</ele><time>2026-05-02T17:00:52.708Z</time></trkpt><trkpt lat="43.9859873" lon="10.909536"><ele>422.5</ele><time>2026-05-02T17:00:53.708Z</time></trkpt><trkpt lat="43.9861214" lon="10.9095673"><ele>429.0</ele><time>2026-05-02T17:00:54.709Z</time></trkpt><trkpt lat="43.9863095" lon="10.9096273"><ele>429.0</ele><time>2026-05-02T17:00:55.709Z</time></trkpt><trkpt lat="43.9864622" lon="10.9095956"><ele>429.0</ele><time>2026-05-02T17:00:56.722Z</time></trkpt><trkpt lat="43.986569" lon="10.9096052"><ele>429.0</ele><time>2026-05-02T17:00:57.711Z</time></trkpt><trkpt lat="43.9866628" lon="10.9096513"><ele>429.0</ele><time>2026-05-02T17:00:58.708Z</time></trkpt><trkpt lat="43.9867795" lon="10.9096641"><ele>429.0</ele><time>2026-05-02T17:00:59.71Z</time></trkpt><trkpt lat="43.9868662" lon="10.909735"><ele>429.0</ele><time>2026-05-02T17:01:00.712Z</time></trkpt><trkpt lat="43.9868721" lon="10.9098616"><ele>429.0</ele><time>2026-05-02T17:01:01.725Z</time></trkpt><trkpt lat="43.9866738" lon="10.9100673"><ele>429.0</ele><time>2026-05-02T17:01:02.711Z</time></trkpt><trkpt lat="43.9866025" lon="10.9102171"><ele>428.0</ele><time>2026-05-02T17:01:03.714Z</time></trkpt><trkpt lat="43.9865483" lon="10.9103693"><ele>427.0</ele><time>2026-05-02T17:01:04.71Z</time></trkpt><trkpt lat="43.9865363" lon="10.9105258"><ele>426.0</ele><time>2026-05-02T17:01:05.704Z</time></trkpt><trkpt lat="43.98661" lon="10.9106623"><ele>425.0</ele><time>2026-05-02T17:01:06.716Z</time></trkpt><trkpt lat="43.9866628" lon="10.9108018"><ele>428.8</ele><time>2026-05-02T17:01:07.713Z</time></trkpt><trkpt lat="43.9867173" lon="10.9109285"><ele>432.6</ele><time>2026-05-02T17:01:08.706Z</time></trkpt><trkpt lat="43.9867844" lon="10.9110496"><ele>436.4</ele><time>2026-05-02T17:01:09.713Z</time></trkpt><trkpt lat="43.9868639" lon="10.9111724"><ele>440.2</ele><time>2026-05-02T17:01:10.71Z</time></trkpt><trkpt lat="43.9869413" lon="10.9112794"><ele>444.0</ele><time>2026-05-02T17:01:11.709Z</time></trkpt><trkpt lat="43.9870302" lon="10.9113838"><ele>444.0</ele><time>2026-05-02T17:01:12.724Z</time></trkpt><trkpt lat="43.9871234" lon="10.9114812"><ele>444.0</ele><time>2026-05-02T17:01:13.714Z</time></trkpt><trkpt lat="43.9872189" lon="10.9115733"><ele>444.0</ele><time>2026-05-02T17:01:14.71Z</time></trkpt><trkpt lat="43.9873136" lon="10.9116725"><ele>444.0</ele><time>2026-05-02T17:01:15.732Z</time></trkpt><trkpt lat="43.9874152" lon="10.9117776"><ele>446.0</ele><time>2026-05-02T17:01:16.714Z</time></trkpt><trkpt lat="43.9875249" lon="10.9118792"><ele>448.0</ele><time>2026-05-02T17:01:17.707Z</time></trkpt><trkpt lat="43.9876393" lon="10.9119907"><ele>450.0</ele><time>2026-05-02T17:01:18.709Z</time></trkpt><trkpt lat="43.987759" lon="10.9121048"><ele>452.0</ele><time>2026-05-02T17:01:19.709Z</time></trkpt><trkpt lat="43.9878842" lon="10.9122205"><ele>452.0</ele><time>2026-05-02T17:01:20.724Z</time></trkpt><trkpt lat="43.988003" lon="10.9123524"><ele>452.0</ele><time>2026-05-02T17:01:21.713Z</time></trkpt><trkpt lat="43.9880937" lon="10.9125002"><ele>452.0</ele><time>2026-05-02T17:01:22.716Z</time></trkpt><trkpt lat="43.9881894" lon="10.9126336"><ele>452.0</ele><time>2026-05-02T17:01:23.715Z</time></trkpt><trkpt lat="43.9882767" lon="10.9127497"><ele>450.6</ele><time>2026-05-02T17:01:24.71Z</time></trkpt><trkpt lat="43.9883297" lon="10.9128679"><ele>449.20000000000005</ele><time>2026-05-02T17:01:25.717Z</time></trkpt><trkpt lat="43.9883728" lon="10.9129805"><ele>447.8</ele><time>2026-05-02T17:01:26.724Z</time></trkpt><trkpt lat="43.9883753" lon="10.9131101"><ele>446.4</ele><time>2026-05-02T17:01:27.718Z</time></trkpt><trkpt lat="43.9883476" lon="10.9132469"><ele>445.0</ele><time>2026-05-02T17:01:28.709Z</time></trkpt><trkpt lat="43.9883019" lon="10.9133585"><ele>447.6</ele><time>2026-05-02T17:01:29.736Z</time></trkpt><trkpt lat="43.9882346" lon="10.9134595"><ele>450.2</ele><time>2026-05-02T17:01:30.714Z</time></trkpt><trkpt lat="43.988146" lon="10.9135362"><ele>452.79999999999995</ele><time>2026-05-02T17:01:31.72Z</time></trkpt><trkpt lat="43.9880395" lon="10.9136207"><ele>455.4</ele><time>2026-05-02T17:01:32.709Z</time></trkpt><trkpt lat="43.9879401" lon="10.9137066"><ele>458.0</ele><time>2026-05-02T17:01:33.718Z</time></trkpt><trkpt lat="43.9878396" lon="10.9137947"><ele>458.0</ele><time>2026-05-02T17:01:34.709Z</time></trkpt><trkpt lat="43.9877366" lon="10.9138851"><ele>458.0</ele><time>2026-05-02T17:01:35.716Z</time></trkpt><trkpt lat="43.9876401" lon="10.9139897"><ele>458.0</ele><time>2026-05-02T17:01:36.716Z</time></trkpt><trkpt lat="43.9875463" lon="10.9140895"><ele>458.0</ele><time>2026-05-02T17:01:37.709Z</time></trkpt><trkpt lat="43.9874621" lon="10.9142033"><ele>456.25</ele><time>2026-05-02T17:01:38.71Z</time></trkpt><trkpt lat="43.9873986" lon="10.9143391"><ele>454.5</ele><time>2026-05-02T17:01:39.714Z</time></trkpt><trkpt lat="43.987347" lon="10.914472"><ele>452.75</ele><time>2026-05-02T17:01:40.715Z</time></trkpt><trkpt lat="43.987288" lon="10.9146047"><ele>451.0</ele><time>2026-05-02T17:01:41.709Z</time></trkpt><trkpt lat="43.9873459" lon="10.9147632"><ele>451.0</ele><time>2026-05-02T17:01:42.708Z</time></trkpt><trkpt lat="43.9873772" lon="10.9149089"><ele>451.0</ele><time>2026-05-02T17:01:43.717Z</time></trkpt><trkpt lat="43.9874366" lon="10.9150438"><ele>451.0</ele><time>2026-05-02T17:01:44.711Z</time></trkpt><trkpt lat="43.9875057" lon="10.9151867"><ele>451.0</ele><time>2026-05-02T17:01:45.711Z</time></trkpt><trkpt lat="43.9875915" lon="10.9153118"><ele>452.5</ele><time>2026-05-02T17:01:46.707Z</time></trkpt><trkpt lat="43.9876853" lon="10.9154376"><ele>454.0</ele><time>2026-05-02T17:01:47.719Z</time></trkpt><trkpt lat="43.9877858" lon="10.9155505"><ele>455.5</ele><time>2026-05-02T17:01:48.71Z</time></trkpt><trkpt lat="43.9878944" lon="10.91567"><ele>457.0</ele><time>2026-05-02T17:01:49.718Z</time></trkpt><trkpt lat="43.9880054" lon="10.9157727"><ele>457.0</ele><time>2026-05-02T17:01:50.724Z</time></trkpt><trkpt lat="43.9881472" lon="10.9158333"><ele>457.0</ele><time>2026-05-02T17:01:51.717Z</time></trkpt><trkpt lat="43.9882708" lon="10.915889"><ele>457.0</ele><time>2026-05-02T17:01:52.71Z</time></trkpt><trkpt lat="43.9883872" lon="10.9159336"><ele>457.0</ele><time>2026-05-02T17:01:53.709Z</time></trkpt><trkpt lat="43.9885388" lon="10.9159073"><ele>457.0</ele><time>2026-05-02T17:01:54.721Z</time></trkpt><trkpt lat="43.9886772" lon="10.9158756"><ele>457.0</ele><time>2026-05-02T17:01:55.708Z</time></trkpt><trkpt lat="43.9888161" lon="10.9158368"><ele>457.0</ele><time>2026-05-02T17:01:56.734Z</time></trkpt><trkpt lat="43.9889401" lon="10.9157926"><ele>457.0</ele><time>2026-05-02T17:01:57.709Z</time></trkpt><trkpt lat="43.989043" lon="10.9157092"><ele>457.0</ele><time>2026-05-02T17:01:58.72Z</time></trkpt><trkpt lat="43.989152" lon="10.915615"><ele>457.0</ele><time>2026-05-02T17:01:59.711Z</time></trkpt><trkpt lat="43.9892439" lon="10.9154807"><ele>457.0</ele><time>2026-05-02T17:02:00.712Z</time></trkpt><trkpt lat="43.9893313" lon="10.9153703"><ele>457.0</ele><time>2026-05-02T17:02:01.714Z</time></trkpt><trkpt lat="43.98932" lon="10.9151921"><ele>453.25</ele><time>2026-05-02T17:02:02.723Z</time></trkpt><trkpt lat="43.9893415" lon="10.9150524"><ele>449.5</ele><time>2026-05-02T17:02:03.738Z</time></trkpt><trkpt lat="43.9893687" lon="10.9148932"><ele>445.75</ele><time>2026-05-02T17:02:04.713Z</time></trkpt><trkpt lat="43.9893789" lon="10.9147183"><ele>442.0</ele><time>2026-05-02T17:02:05.725Z</time></trkpt><trkpt lat="43.9893752" lon="10.9145473"><ele>442.0</ele><time>2026-05-02T17:02:06.71Z</time></trkpt><trkpt lat="43.9893762" lon="10.9143704"><ele>442.0</ele><time>2026-05-02T17:02:07.711Z</time></trkpt><trkpt lat="43.9893898" lon="10.9142"><ele>442.0</ele><time>2026-05-02T17:02:08.721Z</time></trkpt><trkpt lat="43.9893854" lon="10.914016"><ele>442.0</ele><time>2026-05-02T17:02:09.71Z</time></trkpt><trkpt lat="43.9893862" lon="10.9138277"><ele>446.75</ele><time>2026-05-02T17:02:10.708Z</time></trkpt><trkpt lat="43.9893879" lon="10.9136535"><ele>451.5</ele><time>2026-05-02T17:02:11.715Z</time></trkpt><trkpt lat="43.9893648" lon="10.9134865"><ele>456.25</ele><time>2026-05-02T17:02:12.71Z</time></trkpt><trkpt lat="43.9893426" lon="10.9133253"><ele>461.0</ele><time>2026-05-02T17:02:13.726Z</time></trkpt><trkpt lat="43.9893063" lon="10.9131502"><ele>463.0</ele><time>2026-05-02T17:02:14.711Z</time></trkpt><trkpt lat="43.9892745" lon="10.9129821"><ele>465.0</ele><time>2026-05-02T17:02:15.71Z</time></trkpt><trkpt lat="43.9892228" lon="10.9128"><ele>467.0</ele><time>2026-05-02T17:02:16.712Z</time></trkpt><trkpt lat="43.9891658" lon="10.9126201"><ele>469.0</ele><time>2026-05-02T17:02:17.712Z</time></trkpt><trkpt lat="43.9890932" lon="10.9124463"><ele>471.0</ele><time>2026-05-02T17:02:18.713Z</time></trkpt><trkpt lat="43.9889969" lon="10.9122636"><ele>473.0</ele><time>2026-05-02T17:02:19.715Z</time></trkpt><trkpt lat="43.9888843" lon="10.9120557"><ele>475.0</ele><time>2026-05-02T17:02:20.714Z</time></trkpt><trkpt lat="43.9887681" lon="10.9118299"><ele>480.6666666666667</ele><time>2026-05-02T17:02:21.709Z</time></trkpt><trkpt lat="43.9886733" lon="10.9116216"><ele>486.33333333333337</ele><time>2026-05-02T17:02:22.711Z</time></trkpt><trkpt lat="43.9885868" lon="10.9114168"><ele>492.0</ele><time>2026-05-02T17:02:23.705Z</time></trkpt><trkpt lat="43.988514" lon="10.9112203"><ele>492.0</ele><time>2026-05-02T17:02:24.709Z</time></trkpt><trkpt lat="43.988471" lon="10.9110357"><ele>492.0</ele><time>2026-05-02T17:02:25.713Z</time></trkpt><trkpt lat="43.9884458" lon="10.9108584"><ele>492.0</ele><time>2026-05-02T17:02:26.709Z</time></trkpt><trkpt lat="43.9884378" lon="10.9106839"><ele>492.0</ele><time>2026-05-02T17:02:27.72Z</time></trkpt><trkpt lat="43.98845" lon="10.9105308"><ele>492.6</ele><time>2026-05-02T17:02:28.711Z</time></trkpt><trkpt lat="43.9884923" lon="10.9103975"><ele>493.20000000000005</ele><time>2026-05-02T17:02:29.708Z</time></trkpt><trkpt lat="43.9885737" lon="10.9103118"><ele>493.8</ele><time>2026-05-02T17:02:30.71Z</time></trkpt><trkpt lat="43.9886591" lon="10.9102613"><ele>494.4</ele><time>2026-05-02T17:02:31.712Z</time></trkpt><trkpt lat="43.9887567" lon="10.9102525"><ele>495.0</ele><time>2026-05-02T17:02:32.715Z</time></trkpt><trkpt lat="43.9888582" lon="10.9102802"><ele>495.0</ele><time>2026-05-02T17:02:33.709Z</time></trkpt><trkpt lat="43.988946" lon="10.9103706"><ele>495.0</ele><time>2026-05-02T17:02:34.713Z</time></trkpt><trkpt lat="43.9890294" lon="10.9104901"><ele>495.0</ele><time>2026-05-02T17:02:35.717Z</time></trkpt><trkpt lat="43.9890954" lon="10.9106398"><ele>495.0</ele><time>2026-05-02T17:02:36.715Z</time></trkpt><trkpt lat="43.9891527" lon="10.9108245"><ele>497.0</ele><time>2026-05-02T17:02:37.706Z</time></trkpt><trkpt lat="43.9892177" lon="10.9110117"><ele>499.0</ele><time>2026-05-02T17:02:38.711Z</time></trkpt><trkpt lat="43.9892741" lon="10.911202"><ele>501.0</ele><time>2026-05-02T17:02:39.709Z</time></trkpt><trkpt lat="43.9893345" lon="10.9113825"><ele>503.0</ele><time>2026-05-02T17:02:40.724Z</time></trkpt><trkpt lat="43.9894099" lon="10.9115487"><ele>503.0</ele><time>2026-05-02T17:02:41.714Z</time></trkpt><trkpt lat="43.989498" lon="10.9117069"><ele>503.0</ele><time>2026-05-02T17:02:42.713Z</time></trkpt><trkpt lat="43.9896037" lon="10.9118552"><ele>503.0</ele><time>2026-05-02T17:02:43.727Z</time></trkpt><trkpt lat="43.9897198" lon="10.9119967"><ele>503.0</ele><time>2026-05-02T17:02:44.708Z</time></trkpt><trkpt lat="43.989845" lon="10.9121168"><ele>505.66666666666663</ele><time>2026-05-02T17:02:45.714Z</time></trkpt><trkpt lat="43.9899749" lon="10.912221"><ele>508.33333333333337</ele><time>2026-05-02T17:02:46.71Z</time></trkpt><trkpt lat="43.9901033" lon="10.9123192"><ele>511.0</ele><time>2026-05-02T17:02:47.711Z</time></trkpt><trkpt lat="43.9902365" lon="10.9124261"><ele>511.0</ele><time>2026-05-02T17:02:48.712Z</time></trkpt><trkpt lat="43.9903761" lon="10.912511"><ele>511.0</ele><time>2026-05-02T17:02:49.712Z</time></trkpt><trkpt lat="43.9905406" lon="10.9125946"><ele>511.0</ele><time>2026-05-02T17:02:50.713Z</time></trkpt><trkpt lat="43.9907125" lon="10.9126749"><ele>513.3333333333334</ele><time>2026-05-02T17:02:51.709Z</time></trkpt><trkpt lat="43.9908757" lon="10.9127503"><ele>515.6666666666666</ele><time>2026-05-02T17:02:52.713Z</time></trkpt><trkpt lat="43.991027" lon="10.9128124"><ele>518.0</ele><time>2026-05-02T17:02:53.716Z</time></trkpt><trkpt lat="43.9911527" lon="10.9128686"><ele>518.0</ele><time>2026-05-02T17:02:54.705Z</time></trkpt><trkpt lat="43.9912745" lon="10.9129289"><ele>518.0</ele><time>2026-05-02T17:02:55.728Z</time></trkpt><trkpt lat="43.9913887" lon="10.9129903"><ele>518.0</ele><time>2026-05-02T17:02:56.715Z</time></trkpt><trkpt lat="43.9914863" lon="10.9130715"><ele>518.0</ele><time>2026-05-02T17:02:57.711Z</time></trkpt><trkpt lat="43.9915784" lon="10.9131408"><ele>518.0</ele><time>2026-05-02T17:02:58.709Z</time></trkpt><trkpt lat="43.9916798" lon="10.9131823"><ele>518.0</ele><time>2026-05-02T17:02:59.72Z</time></trkpt><trkpt lat="43.9917522" lon="10.9133205"><ele>518.0</ele><time>2026-05-02T17:03:00.711Z</time></trkpt><trkpt lat="43.9918455" lon="10.9134147"><ele>518.0</ele><time>2026-05-02T17:03:01.71Z</time></trkpt><trkpt lat="43.9919163" lon="10.9135258"><ele>518.0</ele><time>2026-05-02T17:03:02.708Z</time></trkpt><trkpt lat="43.9920148" lon="10.9136585"><ele>518.0</ele><time>2026-05-02T17:03:03.72Z</time></trkpt><trkpt lat="43.9921347" lon="10.9137617"><ele>518.0</ele><time>2026-05-02T17:03:04.71Z</time></trkpt><trkpt lat="43.9923904" lon="10.9137567"><ele>524.6666666666666</ele><time>2026-05-02T17:03:05.711Z</time></trkpt><trkpt lat="43.9925592" lon="10.9138588"><ele>531.3333333333334</ele><time>2026-05-02T17:03:06.709Z</time></trkpt><trkpt lat="43.9927236" lon="10.9139375"><ele>538.0</ele><time>2026-05-02T17:03:07.712Z</time></trkpt><trkpt lat="43.9928566" lon="10.9139816"><ele>538.0</ele><time>2026-05-02T17:03:08.709Z</time></trkpt><trkpt lat="43.992942" lon="10.9140807"><ele>538.0</ele><time>2026-05-02T17:03:09.712Z</time></trkpt><trkpt lat="43.9930783" lon="10.9141339"><ele>538.0</ele><time>2026-05-02T17:03:10.711Z</time></trkpt><trkpt lat="43.9932301" lon="10.9141932"><ele>538.0</ele><time>2026-05-02T17:03:11.725Z</time></trkpt><trkpt lat="43.9933783" lon="10.9143158"><ele>538.6666666666667</ele><time>2026-05-02T17:03:12.711Z</time></trkpt><trkpt lat="43.9935122" lon="10.9144531"><ele>539.3333333333334</ele><time>2026-05-02T17:03:13.71Z</time></trkpt><trkpt lat="43.9936862" lon="10.9146206"><ele>540.0</ele><time>2026-05-02T17:03:14.709Z</time></trkpt><trkpt lat="43.9938427" lon="10.9147663"><ele>540.0</ele><time>2026-05-02T17:03:15.705Z</time></trkpt><trkpt lat="43.9939758" lon="10.9149293"><ele>540.0</ele><time>2026-05-02T17:03:16.705Z</time></trkpt><trkpt lat="43.9940915" lon="10.9150923"><ele>540.0</ele><time>2026-05-02T17:03:17.71Z</time></trkpt><trkpt lat="43.9941814" lon="10.9152695"><ele>544.0</ele><time>2026-05-02T17:03:18.716Z</time></trkpt><trkpt lat="43.994276" lon="10.9154497"><ele>548.0</ele><time>2026-05-02T17:03:19.722Z</time></trkpt><trkpt lat="43.9944005" lon="10.9156143"><ele>552.0</ele><time>2026-05-02T17:03:20.714Z</time></trkpt><trkpt lat="43.9945306" lon="10.9158192"><ele>547.6666666666666</ele><time>2026-05-02T17:03:21.708Z</time></trkpt><trkpt lat="43.9946752" lon="10.9160429"><ele>543.3333333333333</ele><time>2026-05-02T17:03:22.723Z</time></trkpt><trkpt lat="43.9948099" lon="10.9162696"><ele>539.0</ele><time>2026-05-02T17:03:23.71Z</time></trkpt><trkpt lat="43.9949492" lon="10.916525"><ele>547.5</ele><time>2026-05-02T17:03:24.712Z</time></trkpt><trkpt lat="43.9950968" lon="10.9167876"><ele>556.0</ele><time>2026-05-02T17:03:25.721Z</time></trkpt><trkpt lat="43.9952812" lon="10.9169569"><ele>556.0</ele><time>2026-05-02T17:03:26.715Z</time></trkpt><trkpt lat="43.9954418" lon="10.9171355"><ele>556.0</ele><time>2026-05-02T17:03:27.705Z</time></trkpt><trkpt lat="43.9955938" lon="10.917332"><ele>556.0</ele><time>2026-05-02T17:03:28.72Z</time></trkpt><trkpt lat="43.9957127" lon="10.9175088"><ele>551.0</ele><time>2026-05-02T17:03:29.707Z</time></trkpt><trkpt lat="43.9958107" lon="10.9176859"><ele>546.0</ele><time>2026-05-02T17:03:30.712Z</time></trkpt><trkpt lat="43.9959091" lon="10.9178571"><ele>541.0</ele><time>2026-05-02T17:03:31.711Z</time></trkpt><trkpt lat="43.9960147" lon="10.9180342"><ele>545.6666666666667</ele><time>2026-05-02T17:03:32.724Z</time></trkpt><trkpt lat="43.9961143" lon="10.9182048"><ele>550.3333333333334</ele><time>2026-05-02T17:03:33.714Z</time></trkpt><trkpt lat="43.9962152" lon="10.9183649"><ele>555.0</ele><time>2026-05-02T17:03:34.71Z</time></trkpt><trkpt lat="43.9963212" lon="10.9185496"><ele>555.0</ele><time>2026-05-02T17:03:35.717Z</time></trkpt><trkpt lat="43.9964323" lon="10.9187105"><ele>555.0</ele><time>2026-05-02T17:03:36.708Z</time></trkpt><trkpt lat="43.9965337" lon="10.9188713"><ele>555.0</ele><time>2026-05-02T17:03:37.712Z</time></trkpt><trkpt lat="43.9966512" lon="10.9190249"><ele>555.0</ele><time>2026-05-02T17:03:38.716Z</time></trkpt><trkpt lat="43.9967801" lon="10.9191564"><ele>555.0</ele><time>2026-05-02T17:03:39.722Z</time></trkpt><trkpt lat="43.996902" lon="10.9192863"><ele>555.0</ele><time>2026-05-02T17:03:40.709Z</time></trkpt><trkpt lat="43.9969933" lon="10.9194426"><ele>555.0</ele><time>2026-05-02T17:03:41.714Z</time></trkpt><trkpt lat="43.9970787" lon="10.9195559"><ele>555.0</ele><time>2026-05-02T17:03:42.712Z</time></trkpt><trkpt lat="43.9972126" lon="10.9195859"><ele>555.0</ele><time>2026-05-02T17:03:43.714Z</time></trkpt><trkpt lat="43.9973506" lon="10.9195905"><ele>555.0</ele><time>2026-05-02T17:03:44.71Z</time></trkpt><trkpt lat="43.9974894" lon="10.9195645"><ele>556.75</ele><time>2026-05-02T17:03:45.712Z</time></trkpt><trkpt lat="43.9976355" lon="10.9195205"><ele>558.5</ele><time>2026-05-02T17:03:46.723Z</time></trkpt><trkpt lat="43.9977649" lon="10.9194518"><ele>560.25</ele><time>2026-05-02T17:03:47.704Z</time></trkpt><trkpt lat="43.997851" lon="10.9192932"><ele>562.0</ele><time>2026-05-02T17:03:48.709Z</time></trkpt><trkpt lat="43.9979601" lon="10.9191317"><ele>562.0</ele><time>2026-05-02T17:03:49.709Z</time></trkpt><trkpt lat="43.9981022" lon="10.9190408"><ele>562.0</ele><time>2026-05-02T17:03:50.714Z</time></trkpt><trkpt lat="43.9982249" lon="10.9189437"><ele>562.0</ele><time>2026-05-02T17:03:51.708Z</time></trkpt><trkpt lat="43.9983165" lon="10.9188161"><ele>562.0</ele><time>2026-05-02T17:03:52.716Z</time></trkpt><trkpt lat="43.9985003" lon="10.9188481"><ele>560.25</ele><time>2026-05-02T17:03:53.708Z</time></trkpt><trkpt lat="43.9986331" lon="10.9188319"><ele>558.5</ele><time>2026-05-02T17:03:54.713Z</time></trkpt><trkpt lat="43.9987662" lon="10.9188088"><ele>556.75</ele><time>2026-05-02T17:03:55.709Z</time></trkpt><trkpt lat="43.998902" lon="10.9188081"><ele>555.0</ele><time>2026-05-02T17:03:56.71Z</time></trkpt><trkpt lat="43.9990281" lon="10.9188018"><ele>554.5</ele><time>2026-05-02T17:03:57.709Z</time></trkpt><trkpt lat="43.9991771" lon="10.918762"><ele>554.0</ele><time>2026-05-02T17:03:58.712Z</time></trkpt><trkpt lat="43.9993087" lon="10.9187374"><ele>553.5</ele><time>2026-05-02T17:03:59.71Z</time></trkpt><trkpt lat="43.9994275" lon="10.9186553"><ele>553.0</ele><time>2026-05-02T17:04:00.722Z</time></trkpt><trkpt lat="43.9995281" lon="10.9185756"><ele>553.0</ele><time>2026-05-02T17:04:01.709Z</time></trkpt><trkpt lat="43.9996129" lon="10.9184765"><ele>553.0</ele><time>2026-05-02T17:04:02.71Z</time></trkpt><trkpt lat="43.9996992" lon="10.9183817"><ele>553.0</ele><time>2026-05-02T17:04:03.722Z</time></trkpt><trkpt lat="43.9997797" lon="10.9182795"><ele>553.0</ele><time>2026-05-02T17:04:04.708Z</time></trkpt><trkpt lat="43.9998682" lon="10.9181724"><ele>553.0</ele><time>2026-05-02T17:04:05.711Z</time></trkpt><trkpt lat="43.9999479" lon="10.9180668"><ele>558.25</ele><time>2026-05-02T17:04:06.715Z</time></trkpt><trkpt lat="44.0000371" lon="10.9179564"><ele>563.5</ele><time>2026-05-02T17:04:07.705Z</time></trkpt><trkpt lat="44.0001247" lon="10.9178348"><ele>568.75</ele><time>2026-05-02T17:04:08.706Z</time></trkpt><trkpt lat="44.0002228" lon="10.9177155"><ele>574.0</ele><time>2026-05-02T17:04:09.704Z</time></trkpt><trkpt lat="44.0003308" lon="10.9175919"><ele>573.75</ele><time>2026-05-02T17:04:10.705Z</time></trkpt><trkpt lat="44.0004425" lon="10.9174724"><ele>573.5</ele><time>2026-05-02T17:04:11.711Z</time></trkpt><trkpt lat="44.0005637" lon="10.9173575"><ele>573.25</ele><time>2026-05-02T17:04:12.716Z</time></trkpt><trkpt lat="44.0006828" lon="10.917252"><ele>573.0</ele><time>2026-05-02T17:04:13.708Z</time></trkpt><trkpt lat="44.0008149" lon="10.9171296"><ele>578.6666666666666</ele><time>2026-05-02T17:04:14.705Z</time></trkpt><trkpt lat="44.0009505" lon="10.9170263"><ele>584.3333333333333</ele><time>2026-05-02T17:04:15.715Z</time></trkpt><trkpt lat="44.0010772" lon="10.9169101"><ele>590.0</ele><time>2026-05-02T17:04:16.716Z</time></trkpt><trkpt lat="44.0012093" lon="10.9167952"><ele>591.5</ele><time>2026-05-02T17:04:17.711Z</time></trkpt><trkpt lat="44.001337" lon="10.9166887"><ele>593.0</ele><time>2026-05-02T17:04:18.709Z</time></trkpt><trkpt lat="44.001472" lon="10.9165794"><ele>594.5</ele><time>2026-05-02T17:04:19.717Z</time></trkpt><trkpt lat="44.0015861" lon="10.9164813"><ele>596.0</ele><time>2026-05-02T17:04:20.708Z</time></trkpt><trkpt lat="44.0016871" lon="10.9163975"><ele>596.0</ele><time>2026-05-02T17:04:21.711Z</time></trkpt><trkpt lat="44.0017937" lon="10.9163178"><ele>596.0</ele><time>2026-05-02T17:04:22.714Z</time></trkpt><trkpt lat="44.0018885" lon="10.9162375"><ele>596.0</ele><time>2026-05-02T17:04:23.714Z</time></trkpt><trkpt lat="44.0020003" lon="10.9161561"><ele>596.0</ele><time>2026-05-02T17:04:24.721Z</time></trkpt><trkpt lat="44.0021062" lon="10.9160972"><ele>596.0</ele><time>2026-05-02T17:04:25.709Z</time></trkpt><trkpt lat="44.0022224" lon="10.9160594"><ele>596.0</ele><time>2026-05-02T17:04:26.708Z</time></trkpt><trkpt lat="44.0023282" lon="10.9160394"><ele>596.0</ele><time>2026-05-02T17:04:27.719Z</time></trkpt><trkpt lat="44.0024193" lon="10.9160205"><ele>596.0</ele><time>2026-05-02T17:04:28.712Z</time></trkpt><trkpt lat="44.0025046" lon="10.9160182"><ele>596.0</ele><time>2026-05-02T17:04:29.722Z</time></trkpt><trkpt lat="44.0025773" lon="10.9160196"><ele>597.1428571428571</ele><time>2026-05-02T17:04:30.709Z</time></trkpt><trkpt lat="44.0026402" lon="10.9160336"><ele>598.2857142857142</ele><time>2026-05-02T17:04:31.71Z</time></trkpt><trkpt lat="44.0027053" lon="10.9160671"><ele>599.4285714285714</ele><time>2026-05-02T17:04:32.712Z</time></trkpt><trkpt lat="44.0027401" lon="10.9161413"><ele>600.5714285714286</ele><time>2026-05-02T17:04:33.707Z</time></trkpt><trkpt lat="44.0027466" lon="10.9162435"><ele>601.7142857142858</ele><time>2026-05-02T17:04:34.713Z</time></trkpt><trkpt lat="44.0027317" lon="10.9163416"><ele>602.8571428571429</ele><time>2026-05-02T17:04:35.708Z</time></trkpt><trkpt lat="44.0027092" lon="10.9164311"><ele>604.0</ele><time>2026-05-02T17:04:36.715Z</time></trkpt><trkpt lat="44.0026712" lon="10.916516"><ele>604.0</ele><time>2026-05-02T17:04:37.714Z</time></trkpt><trkpt lat="44.002578" lon="10.916564"><ele>604.0</ele><time>2026-05-02T17:04:38.709Z</time></trkpt><trkpt lat="44.0024231" lon="10.9165687"><ele>604.0</ele><time>2026-05-02T17:04:40.718Z</time></trkpt><trkpt lat="44.0023268" lon="10.916584"><ele>604.0</ele><time>2026-05-02T17:04:41.718Z</time></trkpt><trkpt lat="44.0021866" lon="10.9166646"><ele>605.0</ele><time>2026-05-02T17:04:42.716Z</time></trkpt><trkpt lat="44.002076" lon="10.9166844"><ele>606.0</ele><time>2026-05-02T17:04:43.711Z</time></trkpt><trkpt lat="44.0019613" lon="10.9167716"><ele>607.0</ele><time>2026-05-02T17:04:44.709Z</time></trkpt><trkpt lat="44.0018626" lon="10.9168468"><ele>608.0</ele><time>2026-05-02T17:04:45.71Z</time></trkpt><trkpt lat="44.001743" lon="10.9169304"><ele>603.5</ele><time>2026-05-02T17:04:46.71Z</time></trkpt><trkpt lat="44.0016571" lon="10.9170132"><ele>599.0</ele><time>2026-05-02T17:04:47.711Z</time></trkpt><trkpt lat="44.0015555" lon="10.9171746"><ele>594.5</ele><time>2026-05-02T17:04:48.724Z</time></trkpt><trkpt lat="44.0015112" lon="10.917319"><ele>590.0</ele><time>2026-05-02T17:04:49.709Z</time></trkpt><trkpt lat="44.0015035" lon="10.9175266"><ele>590.0</ele><time>2026-05-02T17:04:50.713Z</time></trkpt><trkpt lat="44.001487" lon="10.9177428"><ele>590.0</ele><time>2026-05-02T17:04:51.71Z</time></trkpt><trkpt lat="44.0015072" lon="10.9179637"><ele>590.0</ele><time>2026-05-02T17:04:52.71Z</time></trkpt><trkpt lat="44.0016864" lon="10.9180467"><ele>592.5</ele><time>2026-05-02T17:04:53.717Z</time></trkpt><trkpt lat="44.0017547" lon="10.9181993"><ele>595.0</ele><time>2026-05-02T17:04:54.709Z</time></trkpt><trkpt lat="44.0018481" lon="10.9183422"><ele>597.5</ele><time>2026-05-02T17:04:55.726Z</time></trkpt><trkpt lat="44.0019073" lon="10.9185067"><ele>600.0</ele><time>2026-05-02T17:04:56.708Z</time></trkpt><trkpt lat="44.0019346" lon="10.9186799"><ele>600.0</ele><time>2026-05-02T17:04:57.704Z</time></trkpt><trkpt lat="44.001952" lon="10.9188417"><ele>600.0</ele><time>2026-05-02T17:04:58.708Z</time></trkpt><trkpt lat="44.0019478" lon="10.9190025"><ele>600.0</ele><time>2026-05-02T17:04:59.708Z</time></trkpt><trkpt lat="44.0019687" lon="10.9191525"><ele>600.0</ele><time>2026-05-02T17:05:00.706Z</time></trkpt><trkpt lat="44.0020352" lon="10.9192833"><ele>597.0</ele><time>2026-05-02T17:05:01.706Z</time></trkpt><trkpt lat="44.0021012" lon="10.9194058"><ele>594.0</ele><time>2026-05-02T17:05:02.706Z</time></trkpt><trkpt lat="44.0021783" lon="10.9195215"><ele>591.0</ele><time>2026-05-02T17:05:03.715Z</time></trkpt><trkpt lat="44.0022595" lon="10.9196564"><ele>588.0</ele><time>2026-05-02T17:05:04.711Z</time></trkpt><trkpt lat="44.0023533" lon="10.9197903"><ele>588.0</ele><time>2026-05-02T17:05:05.711Z</time></trkpt><trkpt lat="44.0024629" lon="10.9199092"><ele>588.0</ele><time>2026-05-02T17:05:06.712Z</time></trkpt><trkpt lat="44.0025604" lon="10.9200328"><ele>588.0</ele><time>2026-05-02T17:05:07.714Z</time></trkpt><trkpt lat="44.0026692" lon="10.9201208"><ele>588.0</ele><time>2026-05-02T17:05:08.712Z</time></trkpt><trkpt lat="44.0028063" lon="10.9201447"><ele>589.0</ele><time>2026-05-02T17:05:09.712Z</time></trkpt><trkpt lat="44.0029377" lon="10.920166"><ele>590.0</ele><time>2026-05-02T17:05:10.707Z</time></trkpt><trkpt lat="44.0030657" lon="10.9201701"><ele>591.0</ele><time>2026-05-02T17:05:11.713Z</time></trkpt><trkpt lat="44.0031921" lon="10.920164"><ele>592.0</ele><time>2026-05-02T17:05:12.713Z</time></trkpt><trkpt lat="44.0033326" lon="10.9201139"><ele>600.25</ele><time>2026-05-02T17:05:13.714Z</time></trkpt><trkpt lat="44.0034639" lon="10.9200391"><ele>608.5</ele><time>2026-05-02T17:05:14.707Z</time></trkpt><trkpt lat="44.0035761" lon="10.9199751"><ele>616.75</ele><time>2026-05-02T17:05:15.707Z</time></trkpt><trkpt lat="44.0036721" lon="10.9199238"><ele>625.0</ele><time>2026-05-02T17:05:16.712Z</time></trkpt><trkpt lat="44.0037596" lon="10.9198699"><ele>625.0</ele><time>2026-05-02T17:05:17.706Z</time></trkpt><trkpt lat="44.0038596" lon="10.9198564"><ele>625.0</ele><time>2026-05-02T17:05:18.707Z</time></trkpt><trkpt lat="44.0039569" lon="10.9199507"><ele>625.0</ele><time>2026-05-02T17:05:19.712Z</time></trkpt><trkpt lat="44.0040665" lon="10.9200363"><ele>625.0</ele><time>2026-05-02T17:05:20.712Z</time></trkpt><trkpt lat="44.0041675" lon="10.9201262"><ele>621.75</ele><time>2026-05-02T17:05:21.719Z</time></trkpt><trkpt lat="44.0042706" lon="10.9201958"><ele>618.5</ele><time>2026-05-02T17:05:22.714Z</time></trkpt><trkpt lat="44.0043573" lon="10.9202882"><ele>615.25</ele><time>2026-05-02T17:05:23.721Z</time></trkpt><trkpt lat="44.0044501" lon="10.9203959"><ele>612.0</ele><time>2026-05-02T17:05:24.708Z</time></trkpt><trkpt lat="44.0045429" lon="10.9204945"><ele>612.0</ele><time>2026-05-02T17:05:25.717Z</time></trkpt><trkpt lat="44.0046319" lon="10.9205905"><ele>612.0</ele><time>2026-05-02T17:05:26.708Z</time></trkpt><trkpt lat="44.0047121" lon="10.9206871"><ele>612.0</ele><time>2026-05-02T17:05:27.71Z</time></trkpt><trkpt lat="44.0047933" lon="10.9207846"><ele>612.0</ele><time>2026-05-02T17:05:28.708Z</time></trkpt><trkpt lat="44.0048727" lon="10.9208854"><ele>612.0</ele><time>2026-05-02T17:05:29.715Z</time></trkpt><trkpt lat="44.0049486" lon="10.9209893"><ele>615.25</ele><time>2026-05-02T17:05:30.708Z</time></trkpt><trkpt lat="44.0050232" lon="10.9211044"><ele>618.5</ele><time>2026-05-02T17:05:31.71Z</time></trkpt><trkpt lat="44.0051046" lon="10.9212189"><ele>621.75</ele><time>2026-05-02T17:05:32.715Z</time></trkpt><trkpt lat="44.0051896" lon="10.9213461"><ele>625.0</ele><time>2026-05-02T17:05:33.709Z</time></trkpt><trkpt lat="44.0052743" lon="10.9214798"><ele>625.0</ele><time>2026-05-02T17:05:34.707Z</time></trkpt><trkpt lat="44.0053564" lon="10.9216204"><ele>625.0</ele><time>2026-05-02T17:05:35.715Z</time></trkpt><trkpt lat="44.0054432" lon="10.9217499"><ele>625.0</ele><time>2026-05-02T17:05:36.707Z</time></trkpt><trkpt lat="44.0055277" lon="10.9218909"><ele>625.0</ele><time>2026-05-02T17:05:37.705Z</time></trkpt><trkpt lat="44.0056133" lon="10.9220286"><ele>625.75</ele><time>2026-05-02T17:05:38.705Z</time></trkpt><trkpt lat="44.005698" lon="10.9221784"><ele>626.5</ele><time>2026-05-02T17:05:39.705Z</time></trkpt><trkpt lat="44.0057849" lon="10.9223173"><ele>627.25</ele><time>2026-05-02T17:05:40.713Z</time></trkpt><trkpt lat="44.0058652" lon="10.9224615"><ele>628.0</ele><time>2026-05-02T17:05:41.706Z</time></trkpt><trkpt lat="44.0059527" lon="10.9226012"><ele>632.25</ele><time>2026-05-02T17:05:42.723Z</time></trkpt><trkpt lat="44.0060427" lon="10.9227487"><ele>636.5</ele><time>2026-05-02T17:05:43.709Z</time></trkpt><trkpt lat="44.0061295" lon="10.9228979"><ele>640.75</ele><time>2026-05-02T17:05:44.71Z</time></trkpt><trkpt lat="44.0062238" lon="10.9230514"><ele>645.0</ele><time>2026-05-02T17:05:45.718Z</time></trkpt><trkpt lat="44.0063349" lon="10.9232097"><ele>645.0</ele><time>2026-05-02T17:05:46.707Z</time></trkpt><trkpt lat="44.0064505" lon="10.9233512"><ele>645.0</ele><time>2026-05-02T17:05:47.709Z</time></trkpt><trkpt lat="44.0065813" lon="10.9234627"><ele>645.0</ele><time>2026-05-02T17:05:48.714Z</time></trkpt><trkpt lat="44.006744" lon="10.9235374"><ele>650.0</ele><time>2026-05-02T17:05:49.708Z</time></trkpt><trkpt lat="44.0069029" lon="10.9236031"><ele>655.0</ele><time>2026-05-02T17:05:50.722Z</time></trkpt><trkpt lat="44.0070455" lon="10.9236857"><ele>660.0</ele><time>2026-05-02T17:05:51.71Z</time></trkpt><trkpt lat="44.007181" lon="10.9237601"><ele>660.0</ele><time>2026-05-02T17:05:52.71Z</time></trkpt><trkpt lat="44.0073065" lon="10.9238696"><ele>660.0</ele><time>2026-05-02T17:05:53.71Z</time></trkpt><trkpt lat="44.0074109" lon="10.9239699"><ele>660.0</ele><time>2026-05-02T17:05:54.708Z</time></trkpt><trkpt lat="44.0075089" lon="10.9240726"><ele>660.0</ele><time>2026-05-02T17:05:55.721Z</time></trkpt><trkpt lat="44.0076286" lon="10.9242017"><ele>666.0</ele><time>2026-05-02T17:05:56.708Z</time></trkpt><trkpt lat="44.0077645" lon="10.9243208"><ele>672.0</ele><time>2026-05-02T17:05:57.712Z</time></trkpt><trkpt lat="44.0078998" lon="10.9244058"><ele>678.0</ele><time>2026-05-02T17:05:58.711Z</time></trkpt><trkpt lat="44.0080435" lon="10.9244854"><ele>678.0</ele><time>2026-05-02T17:05:59.708Z</time></trkpt><trkpt lat="44.0081915" lon="10.9245613"><ele>678.0</ele><time>2026-05-02T17:06:00.711Z</time></trkpt><trkpt lat="44.0083523" lon="10.9246192"><ele>678.0</ele><time>2026-05-02T17:06:01.708Z</time></trkpt><trkpt lat="44.0085014" lon="10.9246793"><ele>676.75</ele><time>2026-05-02T17:06:02.712Z</time></trkpt><trkpt lat="44.0086305" lon="10.9247364"><ele>675.5</ele><time>2026-05-02T17:06:03.723Z</time></trkpt><trkpt lat="44.008763" lon="10.9248432"><ele>674.25</ele><time>2026-05-02T17:06:04.709Z</time></trkpt><trkpt lat="44.0088744" lon="10.924946"><ele>673.0</ele><time>2026-05-02T17:06:05.714Z</time></trkpt><trkpt lat="44.0089854" lon="10.9250553"><ele>674.75</ele><time>2026-05-02T17:06:06.712Z</time></trkpt><trkpt lat="44.0090901" lon="10.9251894"><ele>676.5</ele><time>2026-05-02T17:06:07.703Z</time></trkpt><trkpt lat="44.009197" lon="10.9253153"><ele>678.25</ele><time>2026-05-02T17:06:08.705Z</time></trkpt><trkpt lat="44.0092963" lon="10.9254336"><ele>680.0</ele><time>2026-05-02T17:06:09.712Z</time></trkpt><trkpt lat="44.009395" lon="10.925574"><ele>680.0</ele><time>2026-05-02T17:06:10.708Z</time></trkpt><trkpt lat="44.0094894" lon="10.9256872"><ele>680.0</ele><time>2026-05-02T17:06:11.71Z</time></trkpt><trkpt lat="44.009592" lon="10.9258101"><ele>680.0</ele><time>2026-05-02T17:06:12.709Z</time></trkpt><trkpt lat="44.0096947" lon="10.9259149"><ele>680.0</ele><time>2026-05-02T17:06:13.708Z</time></trkpt><trkpt lat="44.0098074" lon="10.9259873"><ele>682.0</ele><time>2026-05-02T17:06:14.708Z</time></trkpt><trkpt lat="44.0099269" lon="10.9260534"><ele>684.0</ele><time>2026-05-02T17:06:15.708Z</time></trkpt><trkpt lat="44.0100449" lon="10.9261012"><ele>686.0</ele><time>2026-05-02T17:06:16.714Z</time></trkpt><trkpt lat="44.0101586" lon="10.9261362"><ele>688.0</ele><time>2026-05-02T17:06:17.708Z</time></trkpt><trkpt lat="44.0102583" lon="10.9261783"><ele>688.0</ele><time>2026-05-02T17:06:18.713Z</time></trkpt><trkpt lat="44.0103467" lon="10.9262127"><ele>688.0</ele><time>2026-05-02T17:06:19.709Z</time></trkpt><trkpt lat="44.0104369" lon="10.9262406"><ele>688.0</ele><time>2026-05-02T17:06:20.717Z</time></trkpt><trkpt lat="44.0105037" lon="10.9262789"><ele>688.0</ele><time>2026-05-02T17:06:21.713Z</time></trkpt><trkpt lat="44.0105731" lon="10.9262976"><ele>688.0</ele><time>2026-05-02T17:06:23.705Z</time></trkpt><trkpt lat="44.0106993" lon="10.926324"><ele>688.0</ele><time>2026-05-02T17:08:01.719Z</time></trkpt><trkpt lat="44.0108132" lon="10.9264433"><ele>688.0</ele><time>2026-05-02T17:08:02.708Z</time></trkpt><trkpt lat="44.0109849" lon="10.9266308"><ele>688.0</ele><time>2026-05-02T17:08:03.715Z</time></trkpt><trkpt lat="44.0111016" lon="10.9267748"><ele>691.3333333333334</ele><time>2026-05-02T17:08:04.715Z</time></trkpt><trkpt lat="44.0112535" lon="10.9269323"><ele>694.6666666666666</ele><time>2026-05-02T17:08:05.709Z</time></trkpt><trkpt lat="44.0114317" lon="10.9270279"><ele>698.0</ele><time>2026-05-02T17:08:06.711Z</time></trkpt><trkpt lat="44.011597" lon="10.9270948"><ele>695.0</ele><time>2026-05-02T17:08:07.717Z</time></trkpt><trkpt lat="44.0117742" lon="10.9271495"><ele>692.0</ele><time>2026-05-02T17:08:08.712Z</time></trkpt><trkpt lat="44.0119326" lon="10.9271825"><ele>689.0</ele><time>2026-05-02T17:08:09.713Z</time></trkpt><trkpt lat="44.012105" lon="10.9271819"><ele>689.0</ele><time>2026-05-02T17:08:10.71Z</time></trkpt><trkpt lat="44.0122802" lon="10.9271738"><ele>689.0</ele><time>2026-05-02T17:08:11.708Z</time></trkpt><trkpt lat="44.0124496" lon="10.9271809"><ele>689.0</ele><time>2026-05-02T17:08:12.713Z</time></trkpt><trkpt lat="44.0126291" lon="10.927203"><ele>691.6666666666666</ele><time>2026-05-02T17:08:13.71Z</time></trkpt><trkpt lat="44.0127839" lon="10.927283"><ele>694.3333333333334</ele><time>2026-05-02T17:08:14.715Z</time></trkpt><trkpt lat="44.0129493" lon="10.9273965"><ele>697.0</ele><time>2026-05-02T17:08:15.723Z</time></trkpt><trkpt lat="44.0131114" lon="10.9275329"><ele>703.3333333333334</ele><time>2026-05-02T17:08:16.709Z</time></trkpt><trkpt lat="44.013273" lon="10.9276636"><ele>709.6666666666666</ele><time>2026-05-02T17:08:17.712Z</time></trkpt><trkpt lat="44.0134206" lon="10.9277973"><ele>716.0</ele><time>2026-05-02T17:08:18.714Z</time></trkpt><trkpt lat="44.0135641" lon="10.9279221"><ele>716.0</ele><time>2026-05-02T17:08:19.708Z</time></trkpt><trkpt lat="44.0137432" lon="10.9280241"><ele>716.0</ele><time>2026-05-02T17:08:20.716Z</time></trkpt><trkpt lat="44.0138931" lon="10.9281349"><ele>716.0</ele><time>2026-05-02T17:08:21.714Z</time></trkpt><trkpt lat="44.0140761" lon="10.9280344"><ele>716.3333333333333</ele><time>2026-05-02T17:08:22.709Z</time></trkpt><trkpt lat="44.0142872" lon="10.9279905"><ele>716.6666666666666</ele><time>2026-05-02T17:08:23.726Z</time></trkpt><trkpt lat="44.0144392" lon="10.9278285"><ele>717.0</ele><time>2026-05-02T17:08:24.708Z</time></trkpt><trkpt lat="44.0146107" lon="10.9275365"><ele>723.0</ele><time>2026-05-02T17:08:25.714Z</time></trkpt><trkpt lat="44.0148274" lon="10.9273088"><ele>729.0</ele><time>2026-05-02T17:08:26.712Z</time></trkpt><trkpt lat="44.0150273" lon="10.9269834"><ele>729.0</ele><time>2026-05-02T17:08:27.703Z</time></trkpt><trkpt lat="44.0151761" lon="10.926728"><ele>729.0</ele><time>2026-05-02T17:08:28.712Z</time></trkpt><trkpt lat="44.01526" lon="10.9264284"><ele>724.6666666666666</ele><time>2026-05-02T17:08:29.71Z</time></trkpt><trkpt lat="44.0153251" lon="10.9261516"><ele>720.3333333333333</ele><time>2026-05-02T17:08:30.712Z</time></trkpt><trkpt lat="44.015387" lon="10.9258831"><ele>716.0</ele><time>2026-05-02T17:08:31.711Z</time></trkpt><trkpt lat="44.0154604" lon="10.9256882"><ele>711.0</ele><time>2026-05-02T17:08:32.71Z</time></trkpt><trkpt lat="44.0155415" lon="10.9254916"><ele>706.0</ele><time>2026-05-02T17:08:33.715Z</time></trkpt><trkpt lat="44.0156128" lon="10.9252961"><ele>701.0</ele><time>2026-05-02T17:08:34.712Z</time></trkpt><trkpt lat="44.0157501" lon="10.925146"><ele>704.0</ele><time>2026-05-02T17:08:35.71Z</time></trkpt><trkpt lat="44.0159239" lon="10.9250209"><ele>707.0</ele><time>2026-05-02T17:08:36.708Z</time></trkpt><trkpt lat="44.0161055" lon="10.9249061"><ele>710.0</ele><time>2026-05-02T17:08:37.713Z</time></trkpt><trkpt lat="44.0162813" lon="10.9248105"><ele>710.0</ele><time>2026-05-02T17:08:38.709Z</time></trkpt><trkpt lat="44.0164642" lon="10.9247188"><ele>710.0</ele><time>2026-05-02T17:08:39.707Z</time></trkpt><trkpt lat="44.0166413" lon="10.9246669"><ele>710.0</ele><time>2026-05-02T17:08:40.708Z</time></trkpt><trkpt lat="44.0168346" lon="10.9246305"><ele>717.3333333333333</ele><time>2026-05-02T17:08:41.715Z</time></trkpt><trkpt lat="44.0170233" lon="10.9246051"><ele>724.6666666666666</ele><time>2026-05-02T17:08:42.714Z</time></trkpt><trkpt lat="44.0171885" lon="10.9245413"><ele>732.0</ele><time>2026-05-02T17:08:43.714Z</time></trkpt><trkpt lat="44.0173585" lon="10.9244145"><ele>729.6666666666666</ele><time>2026-05-02T17:08:44.716Z</time></trkpt><trkpt lat="44.0175117" lon="10.9242594"><ele>727.3333333333333</ele><time>2026-05-02T17:08:45.709Z</time></trkpt><trkpt lat="44.017656" lon="10.9240903"><ele>725.0</ele><time>2026-05-02T17:08:46.711Z</time></trkpt><trkpt lat="44.0177972" lon="10.9239262"><ele>725.0</ele><time>2026-05-02T17:08:47.711Z</time></trkpt><trkpt lat="44.0179322" lon="10.9237368"><ele>725.0</ele><time>2026-05-02T17:08:48.706Z</time></trkpt><trkpt lat="44.0180531" lon="10.923525"><ele>725.0</ele><time>2026-05-02T17:08:49.711Z</time></trkpt><trkpt lat="44.0181458" lon="10.9233091"><ele>730.6666666666666</ele><time>2026-05-02T17:08:50.708Z</time></trkpt><trkpt lat="44.0182446" lon="10.923106"><ele>736.3333333333334</ele><time>2026-05-02T17:08:51.714Z</time></trkpt><trkpt lat="44.0183419" lon="10.9229196"><ele>742.0</ele><time>2026-05-02T17:08:52.713Z</time></trkpt><trkpt lat="44.0184636" lon="10.9227622"><ele>742.0</ele><time>2026-05-02T17:08:53.718Z</time></trkpt><trkpt lat="44.0186073" lon="10.9226358"><ele>742.0</ele><time>2026-05-02T17:08:54.707Z</time></trkpt><trkpt lat="44.018771" lon="10.9225241"><ele>742.0</ele><time>2026-05-02T17:08:55.713Z</time></trkpt><trkpt lat="44.0189454" lon="10.9224317"><ele>741.3333333333334</ele><time>2026-05-02T17:08:56.716Z</time></trkpt><trkpt lat="44.0191006" lon="10.9223492"><ele>740.6666666666666</ele><time>2026-05-02T17:08:57.708Z</time></trkpt><trkpt lat="44.0192547" lon="10.9223204"><ele>740.0</ele><time>2026-05-02T17:08:58.709Z</time></trkpt><trkpt lat="44.0194202" lon="10.9223427"><ele>740.0</ele><time>2026-05-02T17:08:59.714Z</time></trkpt><trkpt lat="44.0195911" lon="10.9223885"><ele>740.0</ele><time>2026-05-02T17:09:00.713Z</time></trkpt><trkpt lat="44.0197597" lon="10.9224756"><ele>740.0</ele><time>2026-05-02T17:09:01.715Z</time></trkpt><trkpt lat="44.0199382" lon="10.9225756"><ele>750.3333333333333</ele><time>2026-05-02T17:09:02.715Z</time></trkpt><trkpt lat="44.0201136" lon="10.9226973"><ele>760.6666666666666</ele><time>2026-05-02T17:09:03.714Z</time></trkpt><trkpt lat="44.0203093" lon="10.922863"><ele>771.0</ele><time>2026-05-02T17:09:04.71Z</time></trkpt><trkpt lat="44.0204918" lon="10.9230041"><ele>771.0</ele><time>2026-05-02T17:09:05.711Z</time></trkpt><trkpt lat="44.0206728" lon="10.9231562"><ele>771.0</ele><time>2026-05-02T17:09:06.714Z</time></trkpt><trkpt lat="44.0208463" lon="10.9232988"><ele>771.0</ele><time>2026-05-02T17:09:07.712Z</time></trkpt><trkpt lat="44.0210062" lon="10.9234838"><ele>774.5</ele><time>2026-05-02T17:09:08.714Z</time></trkpt><trkpt lat="44.0211906" lon="10.9236696"><ele>778.0</ele><time>2026-05-02T17:09:09.717Z</time></trkpt><trkpt lat="44.0213381" lon="10.92391"><ele>778.0</ele><time>2026-05-02T17:09:10.717Z</time></trkpt><trkpt lat="44.0214972" lon="10.92416"><ele>778.0</ele><time>2026-05-02T17:09:11.716Z</time></trkpt><trkpt lat="44.0216605" lon="10.9243855"><ele>778.3333333333333</ele><time>2026-05-02T17:09:12.728Z</time></trkpt><trkpt lat="44.0218153" lon="10.9245974"><ele>778.6666666666667</ele><time>2026-05-02T17:09:13.711Z</time></trkpt><trkpt lat="44.0219712" lon="10.9248115"><ele>779.0</ele><time>2026-05-02T17:09:14.715Z</time></trkpt><trkpt lat="44.0221328" lon="10.9250263"><ele>779.3333333333334</ele><time>2026-05-02T17:09:15.717Z</time></trkpt><trkpt lat="44.0223046" lon="10.9252188"><ele>779.6666666666667</ele><time>2026-05-02T17:09:16.708Z</time></trkpt><trkpt lat="44.0224806" lon="10.9254099"><ele>780.0</ele><time>2026-05-02T17:09:17.719Z</time></trkpt><trkpt lat="44.0226345" lon="10.9256126"><ele>780.0</ele><time>2026-05-02T17:09:18.722Z</time></trkpt><trkpt lat="44.0227791" lon="10.9257603"><ele>780.0</ele><time>2026-05-02T17:09:19.71Z</time></trkpt><trkpt lat="44.0229045" lon="10.9259048"><ele>780.0</ele><time>2026-05-02T17:09:20.713Z</time></trkpt><trkpt lat="44.0230222" lon="10.9260013"><ele>781.4</ele><time>2026-05-02T17:09:21.718Z</time></trkpt><trkpt lat="44.02313" lon="10.9261023"><ele>782.8</ele><time>2026-05-02T17:09:22.713Z</time></trkpt><trkpt lat="44.0232151" lon="10.9261759"><ele>784.2</ele><time>2026-05-02T17:09:23.715Z</time></trkpt><trkpt lat="44.0232917" lon="10.9262502"><ele>785.6</ele><time>2026-05-02T17:09:24.708Z</time></trkpt><trkpt lat="44.0233788" lon="10.9263369"><ele>787.0</ele><time>2026-05-02T17:09:26.714Z</time></trkpt><trkpt lat="44.0234854" lon="10.9264066"><ele>787.0</ele><time>2026-05-02T17:10:47.705Z</time></trkpt><trkpt lat="44.0236754" lon="10.9265507"><ele>787.0</ele><time>2026-05-02T17:10:48.714Z</time></trkpt><trkpt lat="44.0238727" lon="10.9267088"><ele>787.0</ele><time>2026-05-02T17:10:49.714Z</time></trkpt><trkpt lat="44.024052" lon="10.9267999"><ele>788.6666666666666</ele><time>2026-05-02T17:10:50.713Z</time></trkpt><trkpt lat="44.0242257" lon="10.9269044"><ele>790.3333333333333</ele><time>2026-05-02T17:10:51.709Z</time></trkpt><trkpt lat="44.0244101" lon="10.927007"><ele>792.0</ele><time>2026-05-02T17:10:52.712Z</time></trkpt><trkpt lat="44.0246213" lon="10.9270614"><ele>792.0</ele><time>2026-05-02T17:10:53.711Z</time></trkpt><trkpt lat="44.0248037" lon="10.9271114"><ele>792.0</ele><time>2026-05-02T17:10:54.715Z</time></trkpt><trkpt lat="44.0250147" lon="10.9270129"><ele>792.0</ele><time>2026-05-02T17:10:55.704Z</time></trkpt><trkpt lat="44.0252312" lon="10.926971"><ele>790.6666666666667</ele><time>2026-05-02T17:10:56.705Z</time></trkpt><trkpt lat="44.0254279" lon="10.926922"><ele>789.3333333333334</ele><time>2026-05-02T17:10:57.718Z</time></trkpt><trkpt lat="44.0256273" lon="10.926903"><ele>788.0</ele><time>2026-05-02T17:10:58.705Z</time></trkpt><trkpt lat="44.0258236" lon="10.9269161"><ele>787.3333333333334</ele><time>2026-05-02T17:10:59.709Z</time></trkpt><trkpt lat="44.0259998" lon="10.9269595"><ele>786.6666666666667</ele><time>2026-05-02T17:11:00.706Z</time></trkpt><trkpt lat="44.0261551" lon="10.9270283"><ele>786.0</ele><time>2026-05-02T17:11:01.706Z</time></trkpt><trkpt lat="44.0262772" lon="10.9271419"><ele>786.0</ele><time>2026-05-02T17:11:02.712Z</time></trkpt><trkpt lat="44.0263903" lon="10.9272724"><ele>786.0</ele><time>2026-05-02T17:11:03.709Z</time></trkpt><trkpt lat="44.0264877" lon="10.9274409"><ele>786.0</ele><time>2026-05-02T17:11:04.724Z</time></trkpt><trkpt lat="44.0265808" lon="10.9276236"><ele>795.6666666666667</ele><time>2026-05-02T17:11:05.717Z</time></trkpt><trkpt lat="44.0266617" lon="10.9278011"><ele>805.3333333333334</ele><time>2026-05-02T17:11:06.706Z</time></trkpt><trkpt lat="44.026735" lon="10.9279851"><ele>815.0</ele><time>2026-05-02T17:11:07.709Z</time></trkpt><trkpt lat="44.033144" lon="10.9411318"><ele>807.0</ele><time>2026-05-02T17:12:00.707Z</time></trkpt><trkpt lat="44.0333438" lon="10.9412957"><ele>799.0</ele><time>2026-05-02T17:12:01.709Z</time></trkpt><trkpt lat="44.0335041" lon="10.9415477"><ele>806.3333333333333</ele><time>2026-05-02T17:12:02.707Z</time></trkpt><trkpt lat="44.0336514" lon="10.9417677"><ele>813.6666666666667</ele><time>2026-05-02T17:12:03.706Z</time></trkpt><trkpt lat="44.033778" lon="10.94202"><ele>821.0</ele><time>2026-05-02T17:12:04.706Z</time></trkpt><trkpt lat="44.033904" lon="10.9422907"><ele>821.0</ele><time>2026-05-02T17:12:05.71Z</time></trkpt><trkpt lat="44.0340569" lon="10.9425202"><ele>821.0</ele><time>2026-05-02T17:12:06.707Z</time></trkpt><trkpt lat="44.0342318" lon="10.9427256"><ele>807.5</ele><time>2026-05-02T17:12:07.722Z</time></trkpt><trkpt lat="44.0344141" lon="10.9429331"><ele>794.0</ele><time>2026-05-02T17:12:08.708Z</time></trkpt><trkpt lat="44.0345824" lon="10.943157"><ele>791.0</ele><time>2026-05-02T17:12:09.713Z</time></trkpt><trkpt lat="44.0347315" lon="10.9434036"><ele>788.0</ele><time>2026-05-02T17:12:10.708Z</time></trkpt><trkpt lat="44.0348636" lon="10.9436786"><ele>784.0</ele><time>2026-05-02T17:12:11.707Z</time></trkpt><trkpt lat="44.0350108" lon="10.9439287"><ele>780.0</ele><time>2026-05-02T17:12:12.716Z</time></trkpt><trkpt lat="44.0351633" lon="10.944192"><ele>786.5</ele><time>2026-05-02T17:12:13.708Z</time></trkpt><trkpt lat="44.0353002" lon="10.9444749"><ele>793.0</ele><time>2026-05-02T17:12:14.713Z</time></trkpt><trkpt lat="44.035429" lon="10.9447657"><ele>803.0</ele><time>2026-05-02T17:12:15.705Z</time></trkpt><trkpt lat="44.0355632" lon="10.9450586"><ele>813.0</ele><time>2026-05-02T17:12:16.714Z</time></trkpt><trkpt lat="44.0356924" lon="10.9453518"><ele>801.0</ele><time>2026-05-02T17:12:17.723Z</time></trkpt><trkpt lat="44.0358135" lon="10.9456593"><ele>789.0</ele><time>2026-05-02T17:12:18.715Z</time></trkpt><trkpt lat="44.0359223" lon="10.9459724"><ele>789.0</ele><time>2026-05-02T17:12:19.706Z</time></trkpt><trkpt lat="44.0360264" lon="10.946283"><ele>789.0</ele><time>2026-05-02T17:12:20.71Z</time></trkpt><trkpt lat="44.0361469" lon="10.9465891"><ele>793.5</ele><time>2026-05-02T17:12:21.707Z</time></trkpt><trkpt lat="44.0362838" lon="10.9468725"><ele>798.0</ele><time>2026-05-02T17:12:22.71Z</time></trkpt><trkpt lat="44.0364385" lon="10.9471426"><ele>798.0</ele><time>2026-05-02T17:12:23.708Z</time></trkpt><trkpt lat="44.0365948" lon="10.9473935"><ele>798.0</ele><time>2026-05-02T17:12:24.724Z</time></trkpt><trkpt lat="44.0367397" lon="10.9476466"><ele>798.6666666666667</ele><time>2026-05-02T17:12:25.706Z</time></trkpt><trkpt lat="44.0368985" lon="10.9478618"><ele>799.3333333333334</ele><time>2026-05-02T17:12:26.708Z</time></trkpt><trkpt lat="44.0370386" lon="10.948064"><ele>800.0</ele><time>2026-05-02T17:12:27.709Z</time></trkpt><trkpt lat="44.0372012" lon="10.94824"><ele>797.0</ele><time>2026-05-02T17:12:28.715Z</time></trkpt><trkpt lat="44.0373828" lon="10.9483905"><ele>794.0</ele><time>2026-05-02T17:12:29.717Z</time></trkpt><trkpt lat="44.0375903" lon="10.9485122"><ele>791.0</ele><time>2026-05-02T17:12:30.715Z</time></trkpt><trkpt lat="44.0377911" lon="10.9486422"><ele>791.0</ele><time>2026-05-02T17:12:31.707Z</time></trkpt><trkpt lat="44.0379918" lon="10.9488063"><ele>791.0</ele><time>2026-05-02T17:12:32.707Z</time></trkpt><trkpt lat="44.0381957" lon="10.948991"><ele>791.0</ele><time>2026-05-02T17:12:33.706Z</time></trkpt><trkpt lat="44.0383948" lon="10.9491694"><ele>791.0</ele><time>2026-05-02T17:12:34.704Z</time></trkpt><trkpt lat="44.0386017" lon="10.9493656"><ele>791.0</ele><time>2026-05-02T17:12:35.715Z</time></trkpt><trkpt lat="44.038807" lon="10.9495717"><ele>791.0</ele><time>2026-05-02T17:12:36.704Z</time></trkpt><trkpt lat="44.039021" lon="10.9497939"><ele>786.5</ele><time>2026-05-02T17:12:37.713Z</time></trkpt><trkpt lat="44.0392362" lon="10.9499824"><ele>782.0</ele><time>2026-05-02T17:12:38.712Z</time></trkpt><trkpt lat="44.039458" lon="10.9501809"><ele>782.0</ele><time>2026-05-02T17:12:39.708Z</time></trkpt><trkpt lat="44.0396769" lon="10.9503705"><ele>782.0</ele><time>2026-05-02T17:12:40.706Z</time></trkpt><trkpt lat="44.0399023" lon="10.950563"><ele>774.5</ele><time>2026-05-02T17:12:41.717Z</time></trkpt><trkpt lat="44.0401245" lon="10.9507423"><ele>767.0</ele><time>2026-05-02T17:12:42.708Z</time></trkpt><trkpt lat="44.0403471" lon="10.9508948"><ele>783.5</ele><time>2026-05-02T17:12:43.715Z</time></trkpt><trkpt lat="44.0405655" lon="10.9510328"><ele>800.0</ele><time>2026-05-02T17:12:44.709Z</time></trkpt><trkpt lat="44.0407725" lon="10.9511643"><ele>790.6666666666667</ele><time>2026-05-02T17:12:45.706Z</time></trkpt><trkpt lat="44.0409791" lon="10.9512817"><ele>781.3333333333333</ele><time>2026-05-02T17:12:46.711Z</time></trkpt><trkpt lat="44.0411752" lon="10.951399"><ele>772.0</ele><time>2026-05-02T17:12:47.716Z</time></trkpt><trkpt lat="44.0413642" lon="10.9515219"><ele>772.0</ele><time>2026-05-02T17:12:48.71Z</time></trkpt><trkpt lat="44.0415492" lon="10.9516564"><ele>772.0</ele><time>2026-05-02T17:12:49.724Z</time></trkpt><trkpt lat="44.0417305" lon="10.9518006"><ele>772.0</ele><time>2026-05-02T17:12:50.711Z</time></trkpt><trkpt lat="44.041907" lon="10.9519385"><ele>769.6666666666666</ele><time>2026-05-02T17:12:51.709Z</time></trkpt><trkpt lat="44.0420904" lon="10.9520521"><ele>767.3333333333333</ele><time>2026-05-02T17:12:52.725Z</time></trkpt><trkpt lat="44.0422798" lon="10.9521432"><ele>765.0</ele><time>2026-05-02T17:12:53.708Z</time></trkpt><trkpt lat="44.0424626" lon="10.9522309"><ele>764.0</ele><time>2026-05-02T17:12:54.714Z</time></trkpt><trkpt lat="44.0426461" lon="10.9523124"><ele>763.0</ele><time>2026-05-02T17:12:55.71Z</time></trkpt><trkpt lat="44.0428372" lon="10.9523926"><ele>762.0</ele><time>2026-05-02T17:12:56.713Z</time></trkpt><trkpt lat="44.0430609" lon="10.9524551"><ele>762.0</ele><time>2026-05-02T17:12:57.717Z</time></trkpt><trkpt lat="44.0432616" lon="10.9524831"><ele>762.0</ele><time>2026-05-02T17:12:58.708Z</time></trkpt><trkpt lat="44.0434486" lon="10.9525545"><ele>762.0</ele><time>2026-05-02T17:12:59.708Z</time></trkpt><trkpt lat="44.0436188" lon="10.9526417"><ele>762.3333333333334</ele><time>2026-05-02T17:13:00.708Z</time></trkpt><trkpt lat="44.043785" lon="10.9527542"><ele>762.6666666666667</ele><time>2026-05-02T17:13:01.72Z</time></trkpt><trkpt lat="44.0439116" lon="10.9529094"><ele>763.0</ele><time>2026-05-02T17:13:02.705Z</time></trkpt><trkpt lat="44.0440564" lon="10.9530376"><ele>762.0</ele><time>2026-05-02T17:13:03.71Z</time></trkpt><trkpt lat="44.0442014" lon="10.9531357"><ele>761.0</ele><time>2026-05-02T17:13:04.708Z</time></trkpt><trkpt lat="44.0443428" lon="10.9531949"><ele>760.0</ele><time>2026-05-02T17:13:05.716Z</time></trkpt><trkpt lat="44.0444914" lon="10.9532276"><ele>760.0</ele><time>2026-05-02T17:13:06.712Z</time></trkpt><trkpt lat="44.0446384" lon="10.9532693"><ele>760.0</ele><time>2026-05-02T17:13:07.709Z</time></trkpt><trkpt lat="44.0447642" lon="10.9533336"><ele>760.0</ele><time>2026-05-02T17:13:08.723Z</time></trkpt><trkpt lat="44.0448929" lon="10.9533999"><ele>760.0</ele><time>2026-05-02T17:13:09.705Z</time></trkpt><trkpt lat="44.0450245" lon="10.953501"><ele>762.25</ele><time>2026-05-02T17:13:10.707Z</time></trkpt><trkpt lat="44.0451321" lon="10.9536196"><ele>764.5</ele><time>2026-05-02T17:13:11.716Z</time></trkpt><trkpt lat="44.0452565" lon="10.9537309"><ele>766.75</ele><time>2026-05-02T17:13:12.71Z</time></trkpt><trkpt lat="44.0453819" lon="10.9538509"><ele>769.0</ele><time>2026-05-02T17:13:13.712Z</time></trkpt><trkpt lat="44.0455265" lon="10.9539858"><ele>769.0</ele><time>2026-05-02T17:13:14.712Z</time></trkpt><trkpt lat="44.0456579" lon="10.9541299"><ele>769.0</ele><time>2026-05-02T17:13:15.71Z</time></trkpt><trkpt lat="44.0457733" lon="10.9542919"><ele>769.0</ele><time>2026-05-02T17:13:16.708Z</time></trkpt><trkpt lat="44.0459085" lon="10.9544412"><ele>768.3333333333333</ele><time>2026-05-02T17:13:17.723Z</time></trkpt><trkpt lat="44.0460505" lon="10.9545802"><ele>767.6666666666666</ele><time>2026-05-02T17:13:18.706Z</time></trkpt><trkpt lat="44.0461953" lon="10.9547344"><ele>767.0</ele><time>2026-05-02T17:13:19.706Z</time></trkpt><trkpt lat="44.046335" lon="10.9548787"><ele>767.0</ele><time>2026-05-02T17:13:20.72Z</time></trkpt><trkpt lat="44.0464794" lon="10.9550193"><ele>767.0</ele><time>2026-05-02T17:13:21.706Z</time></trkpt><trkpt lat="44.0466238" lon="10.95513"><ele>767.0</ele><time>2026-05-02T17:13:22.708Z</time></trkpt><trkpt lat="44.0467719" lon="10.9552203"><ele>772.0</ele><time>2026-05-02T17:13:23.709Z</time></trkpt><trkpt lat="44.0469044" lon="10.9553032"><ele>777.0</ele><time>2026-05-02T17:13:24.711Z</time></trkpt><trkpt lat="44.0470591" lon="10.9553363"><ele>782.0</ele><time>2026-05-02T17:13:25.706Z</time></trkpt><trkpt lat="44.0472241" lon="10.9553724"><ele>782.0</ele><time>2026-05-02T17:13:26.708Z</time></trkpt><trkpt lat="44.0473861" lon="10.9553864"><ele>782.0</ele><time>2026-05-02T17:13:27.708Z</time></trkpt><trkpt lat="44.0475379" lon="10.9554169"><ele>782.0</ele><time>2026-05-02T17:13:28.734Z</time></trkpt><trkpt lat="44.0476941" lon="10.9554537"><ele>776.3333333333334</ele><time>2026-05-02T17:13:29.707Z</time></trkpt><trkpt lat="44.0478453" lon="10.9554874"><ele>770.6666666666667</ele><time>2026-05-02T17:13:30.708Z</time></trkpt><trkpt lat="44.0480026" lon="10.9555435"><ele>765.0</ele><time>2026-05-02T17:13:31.715Z</time></trkpt><trkpt lat="44.0481617" lon="10.9556234"><ele>767.6666666666667</ele><time>2026-05-02T17:13:32.706Z</time></trkpt><trkpt lat="44.0483169" lon="10.9557067"><ele>770.3333333333334</ele><time>2026-05-02T17:13:33.722Z</time></trkpt><trkpt lat="44.0484604" lon="10.955811"><ele>773.0</ele><time>2026-05-02T17:13:34.704Z</time></trkpt><trkpt lat="44.0485983" lon="10.9559073"><ele>773.0</ele><time>2026-05-02T17:13:35.707Z</time></trkpt><trkpt lat="44.0487455" lon="10.9559776"><ele>773.0</ele><time>2026-05-02T17:13:36.708Z</time></trkpt><trkpt lat="44.0488927" lon="10.9560563"><ele>773.0</ele><time>2026-05-02T17:13:37.71Z</time></trkpt><trkpt lat="44.0490417" lon="10.9561417"><ele>764.0</ele><time>2026-05-02T17:13:38.714Z</time></trkpt><trkpt lat="44.049183" lon="10.9562438"><ele>755.0</ele><time>2026-05-02T17:13:39.725Z</time></trkpt><trkpt lat="44.0493247" lon="10.9563166"><ele>746.0</ele><time>2026-05-02T17:13:40.706Z</time></trkpt><trkpt lat="44.0494972" lon="10.9563684"><ele>746.0</ele><time>2026-05-02T17:13:41.705Z</time></trkpt><trkpt lat="44.049659" lon="10.9564011"><ele>746.0</ele><time>2026-05-02T17:13:42.711Z</time></trkpt><trkpt lat="44.0498241" lon="10.9564113"><ele>746.0</ele><time>2026-05-02T17:13:43.707Z</time></trkpt><trkpt lat="44.049989" lon="10.9564177"><ele>745.3333333333333</ele><time>2026-05-02T17:13:44.709Z</time></trkpt><trkpt lat="44.0501648" lon="10.9563946"><ele>744.6666666666666</ele><time>2026-05-02T17:13:45.707Z</time></trkpt><trkpt lat="44.0503243" lon="10.9563649"><ele>744.0</ele><time>2026-05-02T17:13:46.707Z</time></trkpt><trkpt lat="44.0504811" lon="10.9563605"><ele>744.0</ele><time>2026-05-02T17:13:47.711Z</time></trkpt><trkpt lat="44.0506287" lon="10.9563428"><ele>744.0</ele><time>2026-05-02T17:13:48.717Z</time></trkpt><trkpt lat="44.0507796" lon="10.9563717"><ele>744.0</ele><time>2026-05-02T17:13:49.706Z</time></trkpt><trkpt lat="44.0509266" lon="10.9564204"><ele>742.5</ele><time>2026-05-02T17:13:50.711Z</time></trkpt><trkpt lat="44.0510634" lon="10.9564968"><ele>741.0</ele><time>2026-05-02T17:13:51.713Z</time></trkpt><trkpt lat="44.0511726" lon="10.9566086"><ele>739.5</ele><time>2026-05-02T17:13:52.71Z</time></trkpt><trkpt lat="44.0512744" lon="10.9567016"><ele>738.0</ele><time>2026-05-02T17:13:53.721Z</time></trkpt><trkpt lat="44.051361" lon="10.9567633"><ele>737.8</ele><time>2026-05-02T17:13:54.708Z</time></trkpt><trkpt lat="44.0514497" lon="10.9568075"><ele>737.5999999999999</ele><time>2026-05-02T17:13:55.705Z</time></trkpt><trkpt lat="44.0515402" lon="10.9568029"><ele>737.4000000000001</ele><time>2026-05-02T17:13:56.706Z</time></trkpt><trkpt lat="44.0516355" lon="10.9567876"><ele>737.2</ele><time>2026-05-02T17:13:57.717Z</time></trkpt><trkpt lat="44.0517109" lon="10.9567732"><ele>737.0</ele><time>2026-05-02T17:13:58.717Z</time></trkpt><trkpt lat="44.0518374" lon="10.9568745"><ele>737.0</ele><time>2026-05-02T17:14:00.706Z</time></trkpt><trkpt lat="44.0518901" lon="10.9569785"><ele>737.0</ele><time>2026-05-02T17:14:01.714Z</time></trkpt><trkpt lat="44.0519452" lon="10.9571038"><ele>737.0</ele><time>2026-05-02T17:14:02.705Z</time></trkpt><trkpt lat="44.0520055" lon="10.9572402"><ele>737.0</ele><time>2026-05-02T17:14:03.721Z</time></trkpt><trkpt lat="44.0520734" lon="10.9573813"><ele>737.0</ele><time>2026-05-02T17:14:04.705Z</time></trkpt><trkpt lat="44.052152" lon="10.957527"><ele>735.3333333333333</ele><time>2026-05-02T17:14:05.706Z</time></trkpt><trkpt lat="44.0522608" lon="10.957653"><ele>733.6666666666666</ele><time>2026-05-02T17:14:06.72Z</time></trkpt><trkpt lat="44.0523851" lon="10.9577844"><ele>732.0</ele><time>2026-05-02T17:14:07.71Z</time></trkpt><trkpt lat="44.0525629" lon="10.9579189"><ele>732.0</ele><time>2026-05-02T17:14:08.709Z</time></trkpt><trkpt lat="44.052749" lon="10.9580709"><ele>732.0</ele><time>2026-05-02T17:14:09.708Z</time></trkpt><trkpt lat="44.0529354" lon="10.9582388"><ele>732.0</ele><time>2026-05-02T17:14:10.706Z</time></trkpt><trkpt lat="44.0531148" lon="10.9583913"><ele>731.6666666666666</ele><time>2026-05-02T17:14:11.707Z</time></trkpt><trkpt lat="44.0532886" lon="10.9585258"><ele>731.3333333333333</ele><time>2026-05-02T17:14:12.711Z</time></trkpt><trkpt lat="44.0534577" lon="10.9586582"><ele>731.0</ele><time>2026-05-02T17:14:13.717Z</time></trkpt><trkpt lat="44.0536232" lon="10.9587625"><ele>731.0</ele><time>2026-05-02T17:14:14.703Z</time></trkpt><trkpt lat="44.0538021" lon="10.9588331"><ele>731.0</ele><time>2026-05-02T17:14:15.709Z</time></trkpt><trkpt lat="44.0539609" lon="10.9589069"><ele>731.0</ele><time>2026-05-02T17:14:16.719Z</time></trkpt><trkpt lat="44.0541103" lon="10.958948"><ele>728.3333333333333</ele><time>2026-05-02T17:14:17.714Z</time></trkpt><trkpt lat="44.054254" lon="10.9590483"><ele>725.6666666666666</ele><time>2026-05-02T17:14:18.706Z</time></trkpt><trkpt lat="44.0544273" lon="10.9590948"><ele>723.0</ele><time>2026-05-02T17:14:19.723Z</time></trkpt><trkpt lat="44.0545805" lon="10.9590822"><ele>723.0</ele><time>2026-05-02T17:14:20.707Z</time></trkpt><trkpt lat="44.0547559" lon="10.9589971"><ele>723.0</ele><time>2026-05-02T17:14:21.71Z</time></trkpt><trkpt lat="44.0548354" lon="10.9586836"><ele>723.0</ele><time>2026-05-02T17:14:22.706Z</time></trkpt><trkpt lat="44.0548795" lon="10.9583562"><ele>723.0</ele><time>2026-05-02T17:14:23.709Z</time></trkpt><trkpt lat="44.0549712" lon="10.958169"><ele>723.0</ele><time>2026-05-02T17:14:24.726Z</time></trkpt><trkpt lat="44.0550738" lon="10.9580235"><ele>723.0</ele><time>2026-05-02T17:14:25.708Z</time></trkpt><trkpt lat="44.0551645" lon="10.9579138"><ele>723.0</ele><time>2026-05-02T17:14:26.705Z</time></trkpt><trkpt lat="44.05526" lon="10.9578025"><ele>723.0</ele><time>2026-05-02T17:14:27.721Z</time></trkpt><trkpt lat="44.0554527" lon="10.9577997"><ele>723.0</ele><time>2026-05-02T17:14:28.707Z</time></trkpt><trkpt lat="44.0556171" lon="10.9578176"><ele>723.0</ele><time>2026-05-02T17:14:29.709Z</time></trkpt><trkpt lat="44.0557682" lon="10.9578458"><ele>722.0</ele><time>2026-05-02T17:14:30.719Z</time></trkpt><trkpt lat="44.0558868" lon="10.9579353"><ele>721.0</ele><time>2026-05-02T17:14:31.708Z</time></trkpt><trkpt lat="44.0560075" lon="10.95807"><ele>720.0</ele><time>2026-05-02T17:14:32.706Z</time></trkpt><trkpt lat="44.0561168" lon="10.9582336"><ele>725.6666666666666</ele><time>2026-05-02T17:14:33.707Z</time></trkpt><trkpt lat="44.0562114" lon="10.9583942"><ele>731.3333333333333</ele><time>2026-05-02T17:14:34.707Z</time></trkpt><trkpt lat="44.0562785" lon="10.9585892"><ele>737.0</ele><time>2026-05-02T17:14:35.711Z</time></trkpt><trkpt lat="44.0563303" lon="10.9588078"><ele>737.0</ele><time>2026-05-02T17:14:36.708Z</time></trkpt><trkpt lat="44.0563885" lon="10.9590285"><ele>737.0</ele><time>2026-05-02T17:14:37.707Z</time></trkpt><trkpt lat="44.0564605" lon="10.9592213"><ele>737.0</ele><time>2026-05-02T17:14:38.706Z</time></trkpt><trkpt lat="44.0565635" lon="10.9594031"><ele>733.0</ele><time>2026-05-02T17:14:39.713Z</time></trkpt><trkpt lat="44.0567004" lon="10.9595665"><ele>729.0</ele><time>2026-05-02T17:14:40.713Z</time></trkpt><trkpt lat="44.0568548" lon="10.9597"><ele>725.0</ele><time>2026-05-02T17:14:41.728Z</time></trkpt><trkpt lat="44.0570061" lon="10.9598379"><ele>725.0</ele><time>2026-05-02T17:14:42.706Z</time></trkpt><trkpt lat="44.0571447" lon="10.959973"><ele>725.0</ele><time>2026-05-02T17:14:43.705Z</time></trkpt><trkpt lat="44.0572705" lon="10.9600834"><ele>725.0</ele><time>2026-05-02T17:14:44.724Z</time></trkpt><trkpt lat="44.0573835" lon="10.960186"><ele>722.2</ele><time>2026-05-02T17:14:45.707Z</time></trkpt><trkpt lat="44.0574879" lon="10.9602673"><ele>719.4</ele><time>2026-05-02T17:14:46.705Z</time></trkpt><trkpt lat="44.0575907" lon="10.9603184"><ele>716.5999999999999</ele><time>2026-05-02T17:14:47.727Z</time></trkpt><trkpt lat="44.0576928" lon="10.9603675"><ele>713.8</ele><time>2026-05-02T17:14:48.708Z</time></trkpt><trkpt lat="44.0577994" lon="10.9603962"><ele>711.0</ele><time>2026-05-02T17:14:49.708Z</time></trkpt><trkpt lat="44.057889" lon="10.9604303"><ele>711.0</ele><time>2026-05-02T17:14:50.709Z</time></trkpt><trkpt lat="44.0579632" lon="10.9604606"><ele>711.0</ele><time>2026-05-02T17:14:51.707Z</time></trkpt><trkpt lat="44.0580816" lon="10.9605021"><ele>711.0</ele><time>2026-05-02T17:14:53.705Z</time></trkpt><trkpt lat="44.0581393" lon="10.9605517"><ele>711.0</ele><time>2026-05-02T17:14:54.718Z</time></trkpt><trkpt lat="44.0581923" lon="10.9606132"><ele>711.0</ele><time>2026-05-02T17:14:55.711Z</time></trkpt><trkpt lat="44.0582663" lon="10.9606978"><ele>711.0</ele><time>2026-05-02T17:14:57.708Z</time></trkpt><trkpt lat="44.0583674" lon="10.9608035"><ele>707.5999999999999</ele><time>2026-05-02T17:15:38.706Z</time></trkpt><trkpt lat="44.0584171" lon="10.9608795"><ele>704.2</ele><time>2026-05-02T17:15:39.712Z</time></trkpt><trkpt lat="44.0584791" lon="10.9609857"><ele>700.8</ele><time>2026-05-02T17:15:40.707Z</time></trkpt><trkpt lat="44.058554" lon="10.9611071"><ele>697.4000000000001</ele><time>2026-05-02T17:15:41.723Z</time></trkpt><trkpt lat="44.0586151" lon="10.9612447"><ele>694.0</ele><time>2026-05-02T17:15:42.709Z</time></trkpt><trkpt lat="44.0586869" lon="10.9613986"><ele>694.0</ele><time>2026-05-02T17:15:43.708Z</time></trkpt><trkpt lat="44.0587561" lon="10.9615571"><ele>694.0</ele><time>2026-05-02T17:15:44.714Z</time></trkpt><trkpt lat="44.0588282" lon="10.9617131"><ele>694.0</ele><time>2026-05-02T17:15:45.71Z</time></trkpt><trkpt lat="44.0588905" lon="10.9618522"><ele>694.0</ele><time>2026-05-02T17:15:46.71Z</time></trkpt><trkpt lat="44.058959" lon="10.961959"><ele>692.6</ele><time>2026-05-02T17:15:47.711Z</time></trkpt><trkpt lat="44.0590113" lon="10.9620604"><ele>691.2</ele><time>2026-05-02T17:15:48.723Z</time></trkpt><trkpt lat="44.0590684" lon="10.9621449"><ele>689.8000000000001</ele><time>2026-05-02T17:15:49.71Z</time></trkpt><trkpt lat="44.0591395" lon="10.9622186"><ele>688.4000000000001</ele><time>2026-05-02T17:15:50.709Z</time></trkpt><trkpt lat="44.0592277" lon="10.9622675"><ele>687.0</ele><time>2026-05-02T17:15:51.712Z</time></trkpt><trkpt lat="44.0593195" lon="10.9622943"><ele>687.0</ele><time>2026-05-02T17:15:52.715Z</time></trkpt><trkpt lat="44.0594552" lon="10.9622576"><ele>687.0</ele><time>2026-05-02T17:15:53.713Z</time></trkpt><trkpt lat="44.0595583" lon="10.9622894"><ele>687.0</ele><time>2026-05-02T17:15:54.715Z</time></trkpt><trkpt lat="44.0596587" lon="10.9623649"><ele>687.0</ele><time>2026-05-02T17:15:55.714Z</time></trkpt><trkpt lat="44.0597667" lon="10.9624645"><ele>688.25</ele><time>2026-05-02T17:15:56.713Z</time></trkpt><trkpt lat="44.0598558" lon="10.9626068"><ele>689.5</ele><time>2026-05-02T17:15:57.709Z</time></trkpt><trkpt lat="44.0599428" lon="10.9627498"><ele>690.75</ele><time>2026-05-02T17:15:58.716Z</time></trkpt><trkpt lat="44.0600137" lon="10.9629198"><ele>692.0</ele><time>2026-05-02T17:15:59.706Z</time></trkpt><trkpt lat="44.0600785" lon="10.9631169"><ele>692.0</ele><time>2026-05-02T17:16:00.731Z</time></trkpt><trkpt lat="44.0601532" lon="10.9633062"><ele>692.0</ele><time>2026-05-02T17:16:01.708Z</time></trkpt><trkpt lat="44.0602148" lon="10.9635425"><ele>692.0</ele><time>2026-05-02T17:16:02.708Z</time></trkpt><trkpt lat="44.0603025" lon="10.9637739"><ele>697.3333333333333</ele><time>2026-05-02T17:16:03.714Z</time></trkpt><trkpt lat="44.0603925" lon="10.9640196"><ele>702.6666666666666</ele><time>2026-05-02T17:16:04.716Z</time></trkpt><trkpt lat="44.0604904" lon="10.9642539"><ele>708.0</ele><time>2026-05-02T17:16:05.711Z</time></trkpt><trkpt lat="44.0605958" lon="10.9644833"><ele>705.6666666666666</ele><time>2026-05-02T17:16:06.72Z</time></trkpt><trkpt lat="44.0607029" lon="10.9647095"><ele>703.3333333333333</ele><time>2026-05-02T17:16:07.709Z</time></trkpt><trkpt lat="44.0608129" lon="10.9649047"><ele>701.0</ele><time>2026-05-02T17:16:08.702Z</time></trkpt><trkpt lat="44.060918" lon="10.9650984"><ele>701.0</ele><time>2026-05-02T17:16:09.706Z</time></trkpt><trkpt lat="44.0610218" lon="10.9652781"><ele>701.0</ele><time>2026-05-02T17:16:10.71Z</time></trkpt><trkpt lat="44.0611443" lon="10.9654276"><ele>701.0</ele><time>2026-05-02T17:16:11.709Z</time></trkpt><trkpt lat="44.0612711" lon="10.9655568"><ele>701.0</ele><time>2026-05-02T17:16:12.721Z</time></trkpt><trkpt lat="44.0613997" lon="10.9657006"><ele>701.0</ele><time>2026-05-02T17:16:13.708Z</time></trkpt><trkpt lat="44.0615196" lon="10.9658712"><ele>701.0</ele><time>2026-05-02T17:16:14.71Z</time></trkpt><trkpt lat="44.0616375" lon="10.966067"><ele>698.0</ele><time>2026-05-02T17:16:15.708Z</time></trkpt><trkpt lat="44.0617499" lon="10.966277"><ele>695.0</ele><time>2026-05-02T17:16:16.715Z</time></trkpt><trkpt lat="44.0618657" lon="10.9664903"><ele>692.0</ele><time>2026-05-02T17:16:17.708Z</time></trkpt><trkpt lat="44.0619775" lon="10.9667101"><ele>692.0</ele><time>2026-05-02T17:16:18.71Z</time></trkpt><trkpt lat="44.0620846" lon="10.9669361"><ele>692.0</ele><time>2026-05-02T17:16:19.724Z</time></trkpt><trkpt lat="44.062192" lon="10.9671613"><ele>692.0</ele><time>2026-05-02T17:16:20.706Z</time></trkpt><trkpt lat="44.062304" lon="10.9673717"><ele>698.0</ele><time>2026-05-02T17:16:21.71Z</time></trkpt><trkpt lat="44.06241" lon="10.9676083"><ele>704.0</ele><time>2026-05-02T17:16:22.708Z</time></trkpt><trkpt lat="44.0625193" lon="10.9678315"><ele>710.0</ele><time>2026-05-02T17:16:23.704Z</time></trkpt><trkpt lat="44.0626297" lon="10.9680486"><ele>699.0</ele><time>2026-05-02T17:16:24.719Z</time></trkpt><trkpt lat="44.0627415" lon="10.9682562"><ele>688.0</ele><time>2026-05-02T17:16:25.712Z</time></trkpt><trkpt lat="44.0628543" lon="10.9684606"><ele>677.0</ele><time>2026-05-02T17:16:26.709Z</time></trkpt><trkpt lat="44.0629749" lon="10.96866"><ele>677.0</ele><time>2026-05-02T17:16:27.711Z</time></trkpt><trkpt lat="44.0630939" lon="10.9688595"><ele>677.0</ele><time>2026-05-02T17:16:28.718Z</time></trkpt><trkpt lat="44.0632162" lon="10.9690458"><ele>677.0</ele><time>2026-05-02T17:16:29.709Z</time></trkpt><trkpt lat="44.0633316" lon="10.9692295"><ele>673.6666666666666</ele><time>2026-05-02T17:16:30.71Z</time></trkpt><trkpt lat="44.0634381" lon="10.9694033"><ele>670.3333333333334</ele><time>2026-05-02T17:16:31.713Z</time></trkpt><trkpt lat="44.0635425" lon="10.9695532"><ele>667.0</ele><time>2026-05-02T17:16:32.714Z</time></trkpt><trkpt lat="44.0636517" lon="10.9696879"><ele>667.0</ele><time>2026-05-02T17:16:33.72Z</time></trkpt><trkpt lat="44.0637935" lon="10.9697741"><ele>667.0</ele><time>2026-05-02T17:16:34.707Z</time></trkpt><trkpt lat="44.0639236" lon="10.9698744"><ele>667.0</ele><time>2026-05-02T17:16:35.708Z</time></trkpt><trkpt lat="44.0640805" lon="10.969963"><ele>669.3333333333334</ele><time>2026-05-02T17:16:36.712Z</time></trkpt><trkpt lat="44.0642436" lon="10.9700629"><ele>671.6666666666666</ele><time>2026-05-02T17:16:37.709Z</time></trkpt><trkpt lat="44.064413" lon="10.9701424"><ele>674.0</ele><time>2026-05-02T17:16:38.708Z</time></trkpt><trkpt lat="44.0646702" lon="10.9701545"><ele>674.0</ele><time>2026-05-02T17:16:39.709Z</time></trkpt><trkpt lat="44.0648835" lon="10.9702424"><ele>674.0</ele><time>2026-05-02T17:16:40.714Z</time></trkpt><trkpt lat="44.0650082" lon="10.9703932"><ele>674.0</ele><time>2026-05-02T17:16:41.706Z</time></trkpt><trkpt lat="44.0651867" lon="10.9704794"><ele>675.3333333333333</ele><time>2026-05-02T17:16:42.706Z</time></trkpt><trkpt lat="44.0653508" lon="10.9705861"><ele>676.6666666666666</ele><time>2026-05-02T17:16:43.706Z</time></trkpt><trkpt lat="44.0654917" lon="10.9707485"><ele>678.0</ele><time>2026-05-02T17:16:44.703Z</time></trkpt><trkpt lat="44.0656338" lon="10.9709127"><ele>678.0</ele><time>2026-05-02T17:16:45.707Z</time></trkpt><trkpt lat="44.065762" lon="10.9710747"><ele>678.0</ele><time>2026-05-02T17:16:46.712Z</time></trkpt><trkpt lat="44.0658809" lon="10.9712592"><ele>678.0</ele><time>2026-05-02T17:16:47.707Z</time></trkpt><trkpt lat="44.0660011" lon="10.9714636"><ele>671.6666666666666</ele><time>2026-05-02T17:16:48.706Z</time></trkpt><trkpt lat="44.0660162" lon="10.9717249"><ele>665.3333333333333</ele><time>2026-05-02T17:16:49.714Z</time></trkpt><trkpt lat="44.0660791" lon="10.9719256"><ele>659.0</ele><time>2026-05-02T17:16:50.709Z</time></trkpt><trkpt lat="44.0661397" lon="10.9721226"><ele>659.0</ele><time>2026-05-02T17:16:51.709Z</time></trkpt><trkpt lat="44.0661788" lon="10.9723264"><ele>659.0</ele><time>2026-05-02T17:16:52.708Z</time></trkpt><trkpt lat="44.0662699" lon="10.9724796"><ele>659.0</ele><time>2026-05-02T17:16:53.712Z</time></trkpt><trkpt lat="44.0663605" lon="10.9726329"><ele>659.0</ele><time>2026-05-02T17:16:54.707Z</time></trkpt><trkpt lat="44.066533" lon="10.9726982"><ele>659.0</ele><time>2026-05-02T17:16:55.722Z</time></trkpt><trkpt lat="44.0667023" lon="10.9727752"><ele>659.0</ele><time>2026-05-02T17:16:56.709Z</time></trkpt><trkpt lat="44.0668645" lon="10.9728686"><ele>659.0</ele><time>2026-05-02T17:16:57.713Z</time></trkpt><trkpt lat="44.0670099" lon="10.9729627"><ele>659.0</ele><time>2026-05-02T17:16:58.713Z</time></trkpt><trkpt lat="44.0671544" lon="10.973015"><ele>659.0</ele><time>2026-05-02T17:16:59.712Z</time></trkpt><trkpt lat="44.0672935" lon="10.9730447"><ele>659.0</ele><time>2026-05-02T17:17:00.708Z</time></trkpt><trkpt lat="44.0674305" lon="10.9730446"><ele>659.0</ele><time>2026-05-02T17:17:01.709Z</time></trkpt><trkpt lat="44.0675783" lon="10.9729952"><ele>655.25</ele><time>2026-05-02T17:17:02.711Z</time></trkpt><trkpt lat="44.0677247" lon="10.9729447"><ele>651.5</ele><time>2026-05-02T17:17:03.714Z</time></trkpt><trkpt lat="44.0678772" lon="10.9728928"><ele>647.75</ele><time>2026-05-02T17:17:04.714Z</time></trkpt><trkpt lat="44.068015" lon="10.9728725"><ele>644.0</ele><time>2026-05-02T17:17:05.723Z</time></trkpt><trkpt lat="44.0681495" lon="10.972889"><ele>643.5</ele><time>2026-05-02T17:17:06.711Z</time></trkpt><trkpt lat="44.0682775" lon="10.9729521"><ele>643.0</ele><time>2026-05-02T17:17:07.706Z</time></trkpt><trkpt lat="44.0683921" lon="10.9730646"><ele>642.5</ele><time>2026-05-02T17:17:08.71Z</time></trkpt><trkpt lat="44.0685139" lon="10.9731679"><ele>642.0</ele><time>2026-05-02T17:17:09.712Z</time></trkpt><trkpt lat="44.0686483" lon="10.9732465"><ele>642.0</ele><time>2026-05-02T17:17:10.706Z</time></trkpt><trkpt lat="44.0687976" lon="10.9733353"><ele>642.0</ele><time>2026-05-02T17:17:11.707Z</time></trkpt><trkpt lat="44.0689187" lon="10.9734711"><ele>642.0</ele><time>2026-05-02T17:17:12.707Z</time></trkpt><trkpt lat="44.0690367" lon="10.9736348"><ele>640.6666666666666</ele><time>2026-05-02T17:17:13.721Z</time></trkpt><trkpt lat="44.0691457" lon="10.9738238"><ele>639.3333333333333</ele><time>2026-05-02T17:17:14.706Z</time></trkpt><trkpt lat="44.0692651" lon="10.974029"><ele>638.0</ele><time>2026-05-02T17:17:15.706Z</time></trkpt><trkpt lat="44.069379" lon="10.9742306"><ele>642.6666666666666</ele><time>2026-05-02T17:17:16.709Z</time></trkpt><trkpt lat="44.0695105" lon="10.974414"><ele>647.3333333333334</ele><time>2026-05-02T17:17:17.713Z</time></trkpt><trkpt lat="44.0696548" lon="10.9745885"><ele>652.0</ele><time>2026-05-02T17:17:18.707Z</time></trkpt><trkpt lat="44.0698099" lon="10.9747602"><ele>646.3333333333334</ele><time>2026-05-02T17:17:19.721Z</time></trkpt><trkpt lat="44.0699652" lon="10.9749199"><ele>640.6666666666666</ele><time>2026-05-02T17:17:20.706Z</time></trkpt><trkpt lat="44.0701261" lon="10.9750863"><ele>635.0</ele><time>2026-05-02T17:17:21.709Z</time></trkpt><trkpt lat="44.0702882" lon="10.9752588"><ele>635.0</ele><time>2026-05-02T17:17:22.709Z</time></trkpt><trkpt lat="44.0704446" lon="10.9754281"><ele>635.0</ele><time>2026-05-02T17:17:23.706Z</time></trkpt><trkpt lat="44.070601" lon="10.9755879"><ele>635.0</ele><time>2026-05-02T17:17:24.709Z</time></trkpt><trkpt lat="44.0707499" lon="10.97573"><ele>633.6666666666666</ele><time>2026-05-02T17:17:25.707Z</time></trkpt><trkpt lat="44.0708808" lon="10.9758753"><ele>632.3333333333334</ele><time>2026-05-02T17:17:26.72Z</time></trkpt><trkpt lat="44.0709826" lon="10.976027"><ele>631.0</ele><time>2026-05-02T17:17:27.707Z</time></trkpt><trkpt lat="44.0710664" lon="10.9761959"><ele>631.0</ele><time>2026-05-02T17:17:28.709Z</time></trkpt><trkpt lat="44.0711262" lon="10.9763829"><ele>631.0</ele><time>2026-05-02T17:17:29.706Z</time></trkpt><trkpt lat="44.0711643" lon="10.9765789"><ele>631.0</ele><time>2026-05-02T17:17:30.709Z</time></trkpt><trkpt lat="44.0711954" lon="10.9767685"><ele>631.0</ele><time>2026-05-02T17:17:31.71Z</time></trkpt><trkpt lat="44.071247" lon="10.9769548"><ele>632.0</ele><time>2026-05-02T17:17:32.715Z</time></trkpt><trkpt lat="44.0712979" lon="10.9771433"><ele>633.0</ele><time>2026-05-02T17:17:33.715Z</time></trkpt><trkpt lat="44.0714772" lon="10.9772818"><ele>634.0</ele><time>2026-05-02T17:17:34.715Z</time></trkpt><trkpt lat="44.0716134" lon="10.9774601"><ele>631.6666666666667</ele><time>2026-05-02T17:17:35.712Z</time></trkpt><trkpt lat="44.0717408" lon="10.9776589"><ele>629.3333333333334</ele><time>2026-05-02T17:17:36.716Z</time></trkpt><trkpt lat="44.0718493" lon="10.9778713"><ele>627.0</ele><time>2026-05-02T17:17:37.714Z</time></trkpt><trkpt lat="44.0719578" lon="10.978086"><ele>627.0</ele><time>2026-05-02T17:17:38.711Z</time></trkpt><trkpt lat="44.0720569" lon="10.9782954"><ele>627.0</ele><time>2026-05-02T17:17:39.707Z</time></trkpt><trkpt lat="44.0721518" lon="10.9785092"><ele>627.0</ele><time>2026-05-02T17:17:40.723Z</time></trkpt><trkpt lat="44.0722539" lon="10.9786993"><ele>627.6666666666666</ele><time>2026-05-02T17:17:41.716Z</time></trkpt><trkpt lat="44.0723554" lon="10.9788858"><ele>628.3333333333333</ele><time>2026-05-02T17:17:42.707Z</time></trkpt><trkpt lat="44.0724961" lon="10.9790284"><ele>629.0</ele><time>2026-05-02T17:17:43.713Z</time></trkpt><trkpt lat="44.0725842" lon="10.9792007"><ele>629.0</ele><time>2026-05-02T17:17:44.719Z</time></trkpt><trkpt lat="44.0726633" lon="10.9793692"><ele>629.0</ele><time>2026-05-02T17:17:45.704Z</time></trkpt><trkpt lat="44.072762" lon="10.9794969"><ele>629.0</ele><time>2026-05-02T17:17:46.717Z</time></trkpt><trkpt lat="44.0729139" lon="10.9795489"><ele>629.0</ele><time>2026-05-02T17:17:47.722Z</time></trkpt><trkpt lat="44.0730457" lon="10.9796206"><ele>629.0</ele><time>2026-05-02T17:17:48.707Z</time></trkpt><trkpt lat="44.0732243" lon="10.9796619"><ele>629.0</ele><time>2026-05-02T17:17:49.714Z</time></trkpt><trkpt lat="44.0733731" lon="10.979733"><ele>629.0</ele><time>2026-05-02T17:17:50.71Z</time></trkpt><trkpt lat="44.0735242" lon="10.9797741"><ele>628.25</ele><time>2026-05-02T17:17:51.715Z</time></trkpt><trkpt lat="44.0736676" lon="10.9798142"><ele>627.5</ele><time>2026-05-02T17:17:52.712Z</time></trkpt><trkpt lat="44.0738123" lon="10.9798776"><ele>626.75</ele><time>2026-05-02T17:17:53.716Z</time></trkpt><trkpt lat="44.0738986" lon="10.9800072"><ele>626.0</ele><time>2026-05-02T17:17:54.711Z</time></trkpt><trkpt lat="44.0739944" lon="10.9801456"><ele>626.0</ele><time>2026-05-02T17:17:55.711Z</time></trkpt><trkpt lat="44.0740362" lon="10.9803395"><ele>626.0</ele><time>2026-05-02T17:17:56.709Z</time></trkpt><trkpt lat="44.0740471" lon="10.9805362"><ele>626.0</ele><time>2026-05-02T17:17:57.711Z</time></trkpt><trkpt lat="44.0740341" lon="10.9807464"><ele>626.0</ele><time>2026-05-02T17:17:58.706Z</time></trkpt><trkpt lat="44.0740301" lon="10.9809332"><ele>625.3333333333333</ele><time>2026-05-02T17:17:59.704Z</time></trkpt><trkpt lat="44.0740419" lon="10.9811142"><ele>624.6666666666666</ele><time>2026-05-02T17:18:00.713Z</time></trkpt><trkpt lat="44.0741219" lon="10.981295"><ele>624.0</ele><time>2026-05-02T17:18:01.708Z</time></trkpt><trkpt lat="44.0742047" lon="10.9814969"><ele>625.0</ele><time>2026-05-02T17:18:02.716Z</time></trkpt><trkpt lat="44.0742982" lon="10.981706"><ele>626.0</ele><time>2026-05-02T17:18:03.709Z</time></trkpt><trkpt lat="44.0743955" lon="10.9819114"><ele>627.0</ele><time>2026-05-02T17:18:04.718Z</time></trkpt><trkpt lat="44.0744913" lon="10.9821094"><ele>627.0</ele><time>2026-05-02T17:18:05.716Z</time></trkpt><trkpt lat="44.0745938" lon="10.9823023"><ele>627.0</ele><time>2026-05-02T17:18:06.714Z</time></trkpt><trkpt lat="44.0747016" lon="10.9824747"><ele>627.0</ele><time>2026-05-02T17:18:07.71Z</time></trkpt><trkpt lat="44.0748426" lon="10.9826091"><ele>627.0</ele><time>2026-05-02T17:18:08.713Z</time></trkpt><trkpt lat="44.075004" lon="10.9827056"><ele>627.0</ele><time>2026-05-02T17:18:09.713Z</time></trkpt><trkpt lat="44.0751489" lon="10.9828167"><ele>627.0</ele><time>2026-05-02T17:18:10.71Z</time></trkpt><trkpt lat="44.0753376" lon="10.9828742"><ele>627.0</ele><time>2026-05-02T17:18:11.709Z</time></trkpt><trkpt lat="44.0755079" lon="10.9829076"><ele>627.0</ele><time>2026-05-02T17:18:12.726Z</time></trkpt><trkpt lat="44.0756513" lon="10.9829775"><ele>627.0</ele><time>2026-05-02T17:18:13.709Z</time></trkpt><trkpt lat="44.0758026" lon="10.9830675"><ele>623.6666666666666</ele><time>2026-05-02T17:18:14.715Z</time></trkpt><trkpt lat="44.0759524" lon="10.9831805"><ele>620.3333333333333</ele><time>2026-05-02T17:18:15.711Z</time></trkpt><trkpt lat="44.0760589" lon="10.9833556"><ele>617.0</ele><time>2026-05-02T17:18:16.718Z</time></trkpt><trkpt lat="44.0761616" lon="10.9835366"><ele>617.0</ele><time>2026-05-02T17:18:17.711Z</time></trkpt><trkpt lat="44.0762512" lon="10.9837547"><ele>617.0</ele><time>2026-05-02T17:18:18.71Z</time></trkpt><trkpt lat="44.076326" lon="10.9839952"><ele>617.0</ele><time>2026-05-02T17:18:19.716Z</time></trkpt><trkpt lat="44.0764035" lon="10.9842491"><ele>614.3333333333333</ele><time>2026-05-02T17:18:20.715Z</time></trkpt><trkpt lat="44.0764865" lon="10.9845025"><ele>611.6666666666666</ele><time>2026-05-02T17:18:21.711Z</time></trkpt><trkpt lat="44.0765769" lon="10.9847427"><ele>609.0</ele><time>2026-05-02T17:18:22.717Z</time></trkpt><trkpt lat="44.0766504" lon="10.984958"><ele>610.25</ele><time>2026-05-02T17:18:23.702Z</time></trkpt><trkpt lat="44.0767207" lon="10.9851477"><ele>611.5</ele><time>2026-05-02T17:18:24.712Z</time></trkpt><trkpt lat="44.0768033" lon="10.9852991"><ele>612.75</ele><time>2026-05-02T17:18:25.709Z</time></trkpt><trkpt lat="44.0768689" lon="10.9854292"><ele>614.0</ele><time>2026-05-02T17:18:26.716Z</time></trkpt><trkpt lat="44.0770249" lon="10.9854564"><ele>614.0</ele><time>2026-05-02T17:18:27.71Z</time></trkpt><trkpt lat="44.0771499" lon="10.9855046"><ele>614.0</ele><time>2026-05-02T17:18:28.707Z</time></trkpt><trkpt lat="44.0772815" lon="10.9855459"><ele>614.0</ele><time>2026-05-02T17:18:29.708Z</time></trkpt><trkpt lat="44.0774301" lon="10.98557"><ele>614.0</ele><time>2026-05-02T17:18:30.708Z</time></trkpt><trkpt lat="44.0776461" lon="10.9854988"><ele>610.0</ele><time>2026-05-02T17:18:31.709Z</time></trkpt><trkpt lat="44.0778786" lon="10.9852826"><ele>606.0</ele><time>2026-05-02T17:18:32.708Z</time></trkpt><trkpt lat="44.0780647" lon="10.985169"><ele>606.0</ele><time>2026-05-02T17:18:33.707Z</time></trkpt><trkpt lat="44.0782522" lon="10.9850933"><ele>606.0</ele><time>2026-05-02T17:18:34.712Z</time></trkpt><trkpt lat="44.0784316" lon="10.9850435"><ele>606.0</ele><time>2026-05-02T17:18:35.724Z</time></trkpt><trkpt lat="44.078602" lon="10.9850148"><ele>607.3333333333334</ele><time>2026-05-02T17:18:36.705Z</time></trkpt><trkpt lat="44.0787761" lon="10.9849912"><ele>608.6666666666667</ele><time>2026-05-02T17:18:37.704Z</time></trkpt><trkpt lat="44.0789383" lon="10.9850352"><ele>610.0</ele><time>2026-05-02T17:18:38.71Z</time></trkpt><trkpt lat="44.0791058" lon="10.9850769"><ele>611.0</ele><time>2026-05-02T17:18:39.709Z</time></trkpt><trkpt lat="44.079269" lon="10.9851416"><ele>612.0</ele><time>2026-05-02T17:18:40.708Z</time></trkpt><trkpt lat="44.0794636" lon="10.9851487"><ele>613.0</ele><time>2026-05-02T17:18:41.718Z</time></trkpt><trkpt lat="44.0796472" lon="10.9851434"><ele>613.0</ele><time>2026-05-02T17:18:42.712Z</time></trkpt><trkpt lat="44.0798235" lon="10.9851129"><ele>613.0</ele><time>2026-05-02T17:18:43.723Z</time></trkpt><trkpt lat="44.0800055" lon="10.9850871"><ele>613.0</ele><time>2026-05-02T17:18:44.713Z</time></trkpt><trkpt lat="44.0801965" lon="10.9850493"><ele>611.6666666666667</ele><time>2026-05-02T17:18:45.714Z</time></trkpt><trkpt lat="44.0803693" lon="10.9850186"><ele>610.3333333333334</ele><time>2026-05-02T17:18:46.726Z</time></trkpt><trkpt lat="44.0805293" lon="10.9849724"><ele>609.0</ele><time>2026-05-02T17:18:47.71Z</time></trkpt><trkpt lat="44.0806812" lon="10.9849989"><ele>603.0</ele><time>2026-05-02T17:18:48.715Z</time></trkpt><trkpt lat="44.0808134" lon="10.9850762"><ele>597.0</ele><time>2026-05-02T17:18:49.708Z</time></trkpt><trkpt lat="44.0809535" lon="10.985166"><ele>591.0</ele><time>2026-05-02T17:18:50.717Z</time></trkpt><trkpt lat="44.0810704" lon="10.9853022"><ele>591.0</ele><time>2026-05-02T17:18:51.711Z</time></trkpt><trkpt lat="44.0811778" lon="10.9854739"><ele>591.0</ele><time>2026-05-02T17:18:52.71Z</time></trkpt><trkpt lat="44.0812847" lon="10.9856249"><ele>591.0</ele><time>2026-05-02T17:18:53.709Z</time></trkpt><trkpt lat="44.0813849" lon="10.9857596"><ele>592.5</ele><time>2026-05-02T17:18:54.709Z</time></trkpt><trkpt lat="44.0814922" lon="10.985895"><ele>594.0</ele><time>2026-05-02T17:18:55.714Z</time></trkpt><trkpt lat="44.0815996" lon="10.985931"><ele>595.5</ele><time>2026-05-02T17:18:56.71Z</time></trkpt><trkpt lat="44.0817151" lon="10.9859969"><ele>597.0</ele><time>2026-05-02T17:18:57.707Z</time></trkpt><trkpt lat="44.081834" lon="10.9860489"><ele>597.0</ele><time>2026-05-02T17:18:58.713Z</time></trkpt><trkpt lat="44.0819849" lon="10.9860657"><ele>597.0</ele><time>2026-05-02T17:18:59.725Z</time></trkpt><trkpt lat="44.0822246" lon="10.9860223"><ele>597.0</ele><time>2026-05-02T17:19:00.708Z</time></trkpt><trkpt lat="44.0824009" lon="10.9860316"><ele>597.6666666666666</ele><time>2026-05-02T17:19:01.709Z</time></trkpt><trkpt lat="44.08263" lon="10.9860109"><ele>598.3333333333333</ele><time>2026-05-02T17:19:02.717Z</time></trkpt><trkpt lat="44.0828308" lon="10.985938"><ele>599.0</ele><time>2026-05-02T17:19:03.709Z</time></trkpt><trkpt lat="44.0830078" lon="10.985882"><ele>599.0</ele><time>2026-05-02T17:19:04.711Z</time></trkpt><trkpt lat="44.0831808" lon="10.985853"><ele>599.0</ele><time>2026-05-02T17:19:05.71Z</time></trkpt><trkpt lat="44.0833514" lon="10.9858195"><ele>599.0</ele><time>2026-05-02T17:19:06.714Z</time></trkpt><trkpt lat="44.083469" lon="10.9857735"><ele>598.25</ele><time>2026-05-02T17:19:07.711Z</time></trkpt><trkpt lat="44.0835923" lon="10.9857865"><ele>597.5</ele><time>2026-05-02T17:19:08.708Z</time></trkpt><trkpt lat="44.0836964" lon="10.9858261"><ele>596.75</ele><time>2026-05-02T17:19:09.714Z</time></trkpt><trkpt lat="44.08382" lon="10.9858505"><ele>596.0</ele><time>2026-05-02T17:19:10.709Z</time></trkpt><trkpt lat="44.0839667" lon="10.9859015"><ele>596.0</ele><time>2026-05-02T17:19:11.706Z</time></trkpt><trkpt lat="44.084073" lon="10.9860255"><ele>596.0</ele><time>2026-05-02T17:19:12.708Z</time></trkpt><trkpt lat="44.0841744" lon="10.9862256"><ele>596.0</ele><time>2026-05-02T17:19:13.712Z</time></trkpt><trkpt lat="44.084322" lon="10.986351"><ele>594.6666666666666</ele><time>2026-05-02T17:19:14.725Z</time></trkpt><trkpt lat="44.0844616" lon="10.9864708"><ele>593.3333333333334</ele><time>2026-05-02T17:19:15.714Z</time></trkpt><trkpt lat="44.0845951" lon="10.986599"><ele>592.0</ele><time>2026-05-02T17:19:16.71Z</time></trkpt><trkpt lat="44.0846865" lon="10.9867327"><ele>592.0</ele><time>2026-05-02T17:19:17.722Z</time></trkpt><trkpt lat="44.0847911" lon="10.9868721"><ele>592.0</ele><time>2026-05-02T17:19:18.713Z</time></trkpt><trkpt lat="44.0849661" lon="10.9868452"><ele>592.0</ele><time>2026-05-02T17:19:19.71Z</time></trkpt><trkpt lat="44.0850848" lon="10.9869185"><ele>590.5</ele><time>2026-05-02T17:19:20.722Z</time></trkpt><trkpt lat="44.085194" lon="10.9869045"><ele>589.0</ele><time>2026-05-02T17:19:21.716Z</time></trkpt><trkpt lat="44.0852896" lon="10.9869268"><ele>587.5</ele><time>2026-05-02T17:19:22.71Z</time></trkpt><trkpt lat="44.0854034" lon="10.9868281"><ele>586.0</ele><time>2026-05-02T17:19:23.717Z</time></trkpt><trkpt lat="44.0853939" lon="10.9865747"><ele>584.25</ele><time>2026-05-02T17:19:24.756Z</time></trkpt><trkpt lat="44.0854659" lon="10.9864269"><ele>582.5</ele><time>2026-05-02T17:19:25.715Z</time></trkpt><trkpt lat="44.085533" lon="10.9862859"><ele>580.75</ele><time>2026-05-02T17:19:26.716Z</time></trkpt><trkpt lat="44.0856155" lon="10.9861858"><ele>579.0</ele><time>2026-05-02T17:19:27.709Z</time></trkpt><trkpt lat="44.0857084" lon="10.9861905"><ele>575.75</ele><time>2026-05-02T17:19:28.708Z</time></trkpt><trkpt lat="44.0858116" lon="10.9862139"><ele>572.5</ele><time>2026-05-02T17:19:29.707Z</time></trkpt><trkpt lat="44.0859387" lon="10.986271"><ele>569.25</ele><time>2026-05-02T17:19:30.715Z</time></trkpt><trkpt lat="44.0860497" lon="10.9863939"><ele>566.0</ele><time>2026-05-02T17:19:31.724Z</time></trkpt><trkpt lat="44.08617" lon="10.9865396"><ele>570.0</ele><time>2026-05-02T17:19:32.708Z</time></trkpt><trkpt lat="44.0862858" lon="10.9866881"><ele>574.0</ele><time>2026-05-02T17:19:33.715Z</time></trkpt><trkpt lat="44.0864504" lon="10.986811"><ele>578.0</ele><time>2026-05-02T17:19:34.713Z</time></trkpt><trkpt lat="44.0865867" lon="10.9869449"><ele>573.0</ele><time>2026-05-02T17:19:35.707Z</time></trkpt><trkpt lat="44.0867192" lon="10.9870951"><ele>568.0</ele><time>2026-05-02T17:19:36.709Z</time></trkpt><trkpt lat="44.0868379" lon="10.9872443"><ele>563.0</ele><time>2026-05-02T17:19:37.717Z</time></trkpt><trkpt lat="44.086917" lon="10.98743"><ele>565.3333333333333</ele><time>2026-05-02T17:19:38.723Z</time></trkpt><trkpt lat="44.0869965" lon="10.9876307"><ele>567.6666666666666</ele><time>2026-05-02T17:19:39.709Z</time></trkpt><trkpt lat="44.0870574" lon="10.9878503"><ele>570.0</ele><time>2026-05-02T17:19:40.715Z</time></trkpt><trkpt lat="44.0871243" lon="10.9880549"><ele>570.0</ele><time>2026-05-02T17:19:41.723Z</time></trkpt><trkpt lat="44.0872119" lon="10.9882285"><ele>570.0</ele><time>2026-05-02T17:19:42.71Z</time></trkpt><trkpt lat="44.0873242" lon="10.9883718"><ele>570.0</ele><time>2026-05-02T17:19:43.711Z</time></trkpt><trkpt lat="44.0874599" lon="10.9884738"><ele>569.6666666666666</ele><time>2026-05-02T17:19:44.709Z</time></trkpt><trkpt lat="44.0876423" lon="10.9885143"><ele>569.3333333333333</ele><time>2026-05-02T17:19:45.71Z</time></trkpt><trkpt lat="44.0878178" lon="10.9885523"><ele>569.0</ele><time>2026-05-02T17:19:46.715Z</time></trkpt><trkpt lat="44.088006" lon="10.9885826"><ele>569.0</ele><time>2026-05-02T17:19:47.714Z</time></trkpt><trkpt lat="44.0881973" lon="10.9886147"><ele>569.0</ele><time>2026-05-02T17:19:48.705Z</time></trkpt><trkpt lat="44.0883951" lon="10.9886494"><ele>569.0</ele><time>2026-05-02T17:19:49.714Z</time></trkpt><trkpt lat="44.0885745" lon="10.9886473"><ele>568.0</ele><time>2026-05-02T17:19:50.704Z</time></trkpt><trkpt lat="44.0887531" lon="10.9886864"><ele>567.0</ele><time>2026-05-02T17:19:51.711Z</time></trkpt><trkpt lat="44.088885" lon="10.9887371"><ele>566.0</ele><time>2026-05-02T17:19:52.71Z</time></trkpt><trkpt lat="44.0890121" lon="10.9888356"><ele>564.3333333333333</ele><time>2026-05-02T17:19:53.709Z</time></trkpt><trkpt lat="44.0891288" lon="10.9889753"><ele>562.6666666666666</ele><time>2026-05-02T17:19:54.717Z</time></trkpt><trkpt lat="44.0892237" lon="10.9891599"><ele>561.0</ele><time>2026-05-02T17:19:55.712Z</time></trkpt><trkpt lat="44.0893116" lon="10.989321"><ele>561.0</ele><time>2026-05-02T17:19:56.708Z</time></trkpt><trkpt lat="44.0893916" lon="10.9894569"><ele>561.0</ele><time>2026-05-02T17:19:57.714Z</time></trkpt><trkpt lat="44.0894973" lon="10.9895291"><ele>561.0</ele><time>2026-05-02T17:19:58.715Z</time></trkpt><trkpt lat="44.089608" lon="10.9895635"><ele>561.0</ele><time>2026-05-02T17:19:59.711Z</time></trkpt><trkpt lat="44.089737" lon="10.9895553"><ele>561.0</ele><time>2026-05-02T17:20:00.724Z</time></trkpt><trkpt lat="44.0899106" lon="10.9895123"><ele>561.0</ele><time>2026-05-02T17:20:01.711Z</time></trkpt><trkpt lat="44.0900869" lon="10.9894585"><ele>561.0</ele><time>2026-05-02T17:20:02.713Z</time></trkpt><trkpt lat="44.0902789" lon="10.9894081"><ele>558.3333333333334</ele><time>2026-05-02T17:20:03.707Z</time></trkpt><trkpt lat="44.090462" lon="10.9893616"><ele>555.6666666666667</ele><time>2026-05-02T17:20:04.708Z</time></trkpt><trkpt lat="44.0906475" lon="10.9893313"><ele>553.0</ele><time>2026-05-02T17:20:05.71Z</time></trkpt><trkpt lat="44.0908292" lon="10.9893005"><ele>550.0</ele><time>2026-05-02T17:20:06.722Z</time></trkpt><trkpt lat="44.0910044" lon="10.9892679"><ele>547.0</ele><time>2026-05-02T17:20:07.715Z</time></trkpt><trkpt lat="44.0911642" lon="10.9892914"><ele>544.0</ele><time>2026-05-02T17:20:08.713Z</time></trkpt><trkpt lat="44.0913208" lon="10.9893343"><ele>544.0</ele><time>2026-05-02T17:20:09.713Z</time></trkpt><trkpt lat="44.0914823" lon="10.9893933"><ele>544.0</ele><time>2026-05-02T17:20:10.714Z</time></trkpt><trkpt lat="44.0916356" lon="10.9894688"><ele>544.0</ele><time>2026-05-02T17:20:11.708Z</time></trkpt><trkpt lat="44.0917843" lon="10.9895306"><ele>544.0</ele><time>2026-05-02T17:20:12.71Z</time></trkpt><trkpt lat="44.0919227" lon="10.9896231"><ele>544.0</ele><time>2026-05-02T17:20:13.709Z</time></trkpt><trkpt lat="44.092051" lon="10.9897312"><ele>544.0</ele><time>2026-05-02T17:20:14.714Z</time></trkpt><trkpt lat="44.0921677" lon="10.989841"><ele>544.0</ele><time>2026-05-02T17:20:15.71Z</time></trkpt><trkpt lat="44.0922727" lon="10.989949"><ele>543.5</ele><time>2026-05-02T17:20:16.708Z</time></trkpt><trkpt lat="44.0923668" lon="10.9900799"><ele>543.0</ele><time>2026-05-02T17:20:17.706Z</time></trkpt><trkpt lat="44.0924482" lon="10.9902263"><ele>542.5</ele><time>2026-05-02T17:20:18.706Z</time></trkpt><trkpt lat="44.0925308" lon="10.9903918"><ele>542.0</ele><time>2026-05-02T17:20:19.709Z</time></trkpt><trkpt lat="44.0926191" lon="10.9905508"><ele>542.0</ele><time>2026-05-02T17:20:20.71Z</time></trkpt><trkpt lat="44.0927123" lon="10.9907088"><ele>542.0</ele><time>2026-05-02T17:20:21.714Z</time></trkpt><trkpt lat="44.0928169" lon="10.9908691"><ele>542.0</ele><time>2026-05-02T17:20:22.719Z</time></trkpt><trkpt lat="44.092972" lon="10.9909733"><ele>541.6666666666666</ele><time>2026-05-02T17:20:23.725Z</time></trkpt><trkpt lat="44.0931134" lon="10.9911015"><ele>541.3333333333334</ele><time>2026-05-02T17:20:24.711Z</time></trkpt><trkpt lat="44.09326" lon="10.9912118"><ele>541.0</ele><time>2026-05-02T17:20:25.713Z</time></trkpt><trkpt lat="44.0934176" lon="10.9912998"><ele>541.0</ele><time>2026-05-02T17:20:26.726Z</time></trkpt><trkpt lat="44.0935671" lon="10.991344"><ele>541.0</ele><time>2026-05-02T17:20:27.713Z</time></trkpt><trkpt lat="44.0937298" lon="10.9913478"><ele>541.0</ele><time>2026-05-02T17:20:28.714Z</time></trkpt><trkpt lat="44.093877" lon="10.9913603"><ele>541.0</ele><time>2026-05-02T17:20:29.717Z</time></trkpt><trkpt lat="44.094037" lon="10.991364"><ele>541.0</ele><time>2026-05-02T17:20:30.706Z</time></trkpt><trkpt lat="44.0941795" lon="10.9914065"><ele>541.0</ele><time>2026-05-02T17:20:31.713Z</time></trkpt><trkpt lat="44.094302" lon="10.9914781"><ele>541.0</ele><time>2026-05-02T17:20:32.722Z</time></trkpt><trkpt lat="44.094412" lon="10.9915939"><ele>538.3333333333334</ele><time>2026-05-02T17:20:33.714Z</time></trkpt><trkpt lat="44.0945096" lon="10.9917583"><ele>535.6666666666666</ele><time>2026-05-02T17:20:34.708Z</time></trkpt><trkpt lat="44.0946218" lon="10.9919414"><ele>533.0</ele><time>2026-05-02T17:20:35.709Z</time></trkpt><trkpt lat="44.0947523" lon="10.992128"><ele>533.0</ele><time>2026-05-02T17:20:36.711Z</time></trkpt><trkpt lat="44.0948811" lon="10.9923156"><ele>533.0</ele><time>2026-05-02T17:20:37.715Z</time></trkpt><trkpt lat="44.0950125" lon="10.9924891"><ele>533.0</ele><time>2026-05-02T17:20:38.71Z</time></trkpt><trkpt lat="44.0951588" lon="10.9926509"><ele>533.3333333333333</ele><time>2026-05-02T17:20:39.713Z</time></trkpt><trkpt lat="44.0953042" lon="10.9927886"><ele>533.6666666666666</ele><time>2026-05-02T17:20:40.705Z</time></trkpt><trkpt lat="44.0954656" lon="10.9929126"><ele>534.0</ele><time>2026-05-02T17:20:41.711Z</time></trkpt><trkpt lat="44.0956224" lon="10.9930418"><ele>533.3333333333334</ele><time>2026-05-02T17:20:42.729Z</time></trkpt><trkpt lat="44.0957582" lon="10.993171"><ele>532.6666666666667</ele><time>2026-05-02T17:20:43.712Z</time></trkpt><trkpt lat="44.0959252" lon="10.9932451"><ele>532.0</ele><time>2026-05-02T17:20:44.71Z</time></trkpt><trkpt lat="44.0960717" lon="10.99334"><ele>534.0</ele><time>2026-05-02T17:20:45.723Z</time></trkpt><trkpt lat="44.0962142" lon="10.9934304"><ele>536.0</ele><time>2026-05-02T17:20:46.709Z</time></trkpt><trkpt lat="44.096344" lon="10.9935233"><ele>538.0</ele><time>2026-05-02T17:20:47.711Z</time></trkpt><trkpt lat="44.0964824" lon="10.9936235"><ele>535.6666666666667</ele><time>2026-05-02T17:20:48.722Z</time></trkpt><trkpt lat="44.0966235" lon="10.9937261"><ele>533.3333333333334</ele><time>2026-05-02T17:20:49.714Z</time></trkpt><trkpt lat="44.0967713" lon="10.9938291"><ele>531.0</ele><time>2026-05-02T17:20:50.711Z</time></trkpt><trkpt lat="44.0969129" lon="10.9939364"><ele>531.0</ele><time>2026-05-02T17:20:51.724Z</time></trkpt><trkpt lat="44.0970549" lon="10.9940501"><ele>531.0</ele><time>2026-05-02T17:20:52.715Z</time></trkpt><trkpt lat="44.0972088" lon="10.994158"><ele>531.0</ele><time>2026-05-02T17:20:53.707Z</time></trkpt><trkpt lat="44.0973692" lon="10.994274"><ele>531.0</ele><time>2026-05-02T17:20:54.728Z</time></trkpt><trkpt lat="44.0975216" lon="10.9943945"><ele>531.0</ele><time>2026-05-02T17:20:55.715Z</time></trkpt><trkpt lat="44.0976859" lon="10.9945373"><ele>531.0</ele><time>2026-05-02T17:20:56.71Z</time></trkpt><trkpt lat="44.0978447" lon="10.994676"><ele>531.0</ele><time>2026-05-02T17:20:57.724Z</time></trkpt><trkpt lat="44.0980076" lon="10.9948073"><ele>531.0</ele><time>2026-05-02T17:20:58.708Z</time></trkpt><trkpt lat="44.098185" lon="10.9949507"><ele>531.0</ele><time>2026-05-02T17:20:59.706Z</time></trkpt><trkpt lat="44.0983535" lon="10.9950896"><ele>531.3333333333334</ele><time>2026-05-02T17:21:00.715Z</time></trkpt><trkpt lat="44.0985039" lon="10.9952365"><ele>531.6666666666667</ele><time>2026-05-02T17:21:01.722Z</time></trkpt><trkpt lat="44.0986417" lon="10.9954119"><ele>532.0</ele><time>2026-05-02T17:21:02.71Z</time></trkpt><trkpt lat="44.0987955" lon="10.9955783"><ele>532.0</ele><time>2026-05-02T17:21:03.716Z</time></trkpt><trkpt lat="44.0989045" lon="10.9957934"><ele>532.0</ele><time>2026-05-02T17:21:04.724Z</time></trkpt><trkpt lat="44.0990126" lon="10.9960026"><ele>532.0</ele><time>2026-05-02T17:21:05.707Z</time></trkpt><trkpt lat="44.0991147" lon="10.9961881"><ele>530.75</ele><time>2026-05-02T17:21:06.708Z</time></trkpt><trkpt lat="44.0992173" lon="10.9963583"><ele>529.5</ele><time>2026-05-02T17:21:07.724Z</time></trkpt><trkpt lat="44.0993098" lon="10.9965255"><ele>528.25</ele><time>2026-05-02T17:21:08.71Z</time></trkpt><trkpt lat="44.0993393" lon="10.9966813"><ele>527.0</ele><time>2026-05-02T17:21:09.71Z</time></trkpt><trkpt lat="44.0993663" lon="10.9968222"><ele>531.75</ele><time>2026-05-02T17:21:10.714Z</time></trkpt><trkpt lat="44.0993614" lon="10.9969781"><ele>536.5</ele><time>2026-05-02T17:21:11.709Z</time></trkpt><trkpt lat="44.0993715" lon="10.9971309"><ele>541.25</ele><time>2026-05-02T17:21:12.719Z</time></trkpt><trkpt lat="44.0993906" lon="10.9972695"><ele>546.0</ele><time>2026-05-02T17:21:13.702Z</time></trkpt><trkpt lat="44.0995334" lon="10.9973441"><ele>546.0</ele><time>2026-05-02T17:21:14.706Z</time></trkpt><trkpt lat="44.0996624" lon="10.9974328"><ele>546.0</ele><time>2026-05-02T17:21:15.712Z</time></trkpt><trkpt lat="44.0998269" lon="10.9975095"><ele>546.0</ele><time>2026-05-02T17:21:16.713Z</time></trkpt><trkpt lat="44.0999979" lon="10.9976066"><ele>546.6666666666666</ele><time>2026-05-02T17:21:17.706Z</time></trkpt><trkpt lat="44.1001739" lon="10.9977128"><ele>547.3333333333333</ele><time>2026-05-02T17:21:18.722Z</time></trkpt><trkpt lat="44.1003707" lon="10.9978154"><ele>548.0</ele><time>2026-05-02T17:21:19.706Z</time></trkpt><trkpt lat="44.1005624" lon="10.9979053"><ele>548.0</ele><time>2026-05-02T17:21:20.703Z</time></trkpt><trkpt lat="44.100735" lon="10.9979878"><ele>548.0</ele><time>2026-05-02T17:21:21.712Z</time></trkpt><trkpt lat="44.1009123" lon="10.9980449"><ele>548.0</ele><time>2026-05-02T17:21:22.703Z</time></trkpt><trkpt lat="44.1010757" lon="10.998134"><ele>546.3333333333333</ele><time>2026-05-02T17:21:23.725Z</time></trkpt><trkpt lat="44.1012331" lon="10.9982803"><ele>544.6666666666666</ele><time>2026-05-02T17:21:24.708Z</time></trkpt><trkpt lat="44.1013922" lon="10.9984088"><ele>543.0</ele><time>2026-05-02T17:21:25.711Z</time></trkpt><trkpt lat="44.1015518" lon="10.9985351"><ele>539.6666666666666</ele><time>2026-05-02T17:21:26.708Z</time></trkpt><trkpt lat="44.1016787" lon="10.9986717"><ele>536.3333333333333</ele><time>2026-05-02T17:21:27.709Z</time></trkpt><trkpt lat="44.10181" lon="10.9988025"><ele>533.0</ele><time>2026-05-02T17:21:28.714Z</time></trkpt><trkpt lat="44.1019307" lon="10.9989831"><ele>533.0</ele><time>2026-05-02T17:21:29.714Z</time></trkpt><trkpt lat="44.1020563" lon="10.9991083"><ele>533.0</ele><time>2026-05-02T17:21:30.709Z</time></trkpt><trkpt lat="44.1021871" lon="10.9991776"><ele>533.0</ele><time>2026-05-02T17:21:31.725Z</time></trkpt><trkpt lat="44.1023288" lon="10.9992054"><ele>533.0</ele><time>2026-05-02T17:21:32.712Z</time></trkpt><trkpt lat="44.1024755" lon="10.999193"><ele>529.75</ele><time>2026-05-02T17:21:33.713Z</time></trkpt><trkpt lat="44.1026234" lon="10.999145"><ele>526.5</ele><time>2026-05-02T17:21:34.722Z</time></trkpt><trkpt lat="44.1027628" lon="10.9990928"><ele>523.25</ele><time>2026-05-02T17:21:35.713Z</time></trkpt><trkpt lat="44.1028962" lon="10.9990326"><ele>520.0</ele><time>2026-05-02T17:21:36.715Z</time></trkpt><trkpt lat="44.1030143" lon="10.999012"><ele>520.0</ele><time>2026-05-02T17:21:37.716Z</time></trkpt><trkpt lat="44.1031085" lon="10.9990112"><ele>520.0</ele><time>2026-05-02T17:21:38.708Z</time></trkpt><trkpt lat="44.1031971" lon="10.9990379"><ele>520.0</ele><time>2026-05-02T17:21:39.711Z</time></trkpt><trkpt lat="44.1032444" lon="10.9991655"><ele>520.0</ele><time>2026-05-02T17:21:40.717Z</time></trkpt><trkpt lat="44.10329" lon="10.9993422"><ele>520.0</ele><time>2026-05-02T17:21:41.707Z</time></trkpt><trkpt lat="44.1033407" lon="10.9995318"><ele>521.75</ele><time>2026-05-02T17:21:42.705Z</time></trkpt><trkpt lat="44.1033938" lon="10.9997191"><ele>523.5</ele><time>2026-05-02T17:21:43.705Z</time></trkpt><trkpt lat="44.1034679" lon="10.99987"><ele>525.25</ele><time>2026-05-02T17:21:44.71Z</time></trkpt><trkpt lat="44.1035574" lon="10.9999793"><ele>527.0</ele><time>2026-05-02T17:21:45.707Z</time></trkpt><trkpt lat="44.103645" lon="11.000053"><ele>527.0</ele><time>2026-05-02T17:21:46.71Z</time></trkpt><trkpt lat="44.1037407" lon="11.0001205"><ele>527.0</ele><time>2026-05-02T17:21:47.707Z</time></trkpt><trkpt lat="44.1038286" lon="11.0001664"><ele>527.0</ele><time>2026-05-02T17:21:48.707Z</time></trkpt><trkpt lat="44.1038964" lon="11.0000793"><ele>527.0</ele><time>2026-05-02T17:21:49.706Z</time></trkpt><trkpt lat="44.1039695" lon="11.0000461"><ele>527.0</ele><time>2026-05-02T17:21:50.709Z</time></trkpt><trkpt lat="44.1040337" lon="11.0000184"><ele>527.0</ele><time>2026-05-02T17:21:51.713Z</time></trkpt><trkpt lat="44.1041408" lon="10.999977"><ele>523.8000000000001</ele><time>2026-05-02T17:21:53.713Z</time></trkpt><trkpt lat="44.1042126" lon="10.9999358"><ele>520.6</ele><time>2026-05-02T17:21:55.712Z</time></trkpt><trkpt lat="44.1042873" lon="10.9998902"><ele>517.4000000000001</ele><time>2026-05-02T17:21:58.708Z</time></trkpt><trkpt lat="44.1043584" lon="10.9998247"><ele>514.2</ele><time>2026-05-02T17:23:43.716Z</time></trkpt><trkpt lat="44.1044761" lon="10.9997155"><ele>511.0</ele><time>2026-05-02T17:23:45.703Z</time></trkpt><trkpt lat="44.1045599" lon="10.9996416"><ele>511.0</ele><time>2026-05-02T17:23:46.713Z</time></trkpt><trkpt lat="44.104657" lon="10.9995917"><ele>511.0</ele><time>2026-05-02T17:23:47.711Z</time></trkpt><trkpt lat="44.1047547" lon="10.9995031"><ele>511.0</ele><time>2026-05-02T17:23:48.713Z</time></trkpt><trkpt lat="44.1048371" lon="10.9994714"><ele>511.0</ele><time>2026-05-02T17:23:49.711Z</time></trkpt><trkpt lat="44.1049396" lon="10.9994668"><ele>511.0</ele><time>2026-05-02T17:23:50.717Z</time></trkpt><trkpt lat="44.1050403" lon="10.999496"><ele>509.0</ele><time>2026-05-02T17:23:51.709Z</time></trkpt><trkpt lat="44.1051604" lon="10.9995515"><ele>507.0</ele><time>2026-05-02T17:23:52.713Z</time></trkpt><trkpt lat="44.1052952" lon="10.9995707"><ele>505.0</ele><time>2026-05-02T17:23:53.712Z</time></trkpt><trkpt lat="44.1054334" lon="10.999543"><ele>503.0</ele><time>2026-05-02T17:23:54.713Z</time></trkpt><trkpt lat="44.1055656" lon="10.9995087"><ele>503.0</ele><time>2026-05-02T17:23:55.712Z</time></trkpt><trkpt lat="44.1057005" lon="10.9994727"><ele>503.0</ele><time>2026-05-02T17:23:56.709Z</time></trkpt><trkpt lat="44.1058297" lon="10.9994616"><ele>503.0</ele><time>2026-05-02T17:23:57.714Z</time></trkpt><trkpt lat="44.1059805" lon="10.9994892"><ele>503.0</ele><time>2026-05-02T17:23:58.71Z</time></trkpt><trkpt lat="44.1061158" lon="10.9995811"><ele>502.3333333333333</ele><time>2026-05-02T17:23:59.715Z</time></trkpt><trkpt lat="44.1062426" lon="10.9996844"><ele>501.66666666666663</ele><time>2026-05-02T17:24:00.714Z</time></trkpt><trkpt lat="44.1063689" lon="10.9998084"><ele>501.0</ele><time>2026-05-02T17:24:01.705Z</time></trkpt><trkpt lat="44.1064837" lon="10.9999526"><ele>510.66666666666663</ele><time>2026-05-02T17:24:02.708Z</time></trkpt><trkpt lat="44.1065823" lon="11.0001576"><ele>520.3333333333333</ele><time>2026-05-02T17:24:03.706Z</time></trkpt><trkpt lat="44.1066666" lon="11.0003667"><ele>530.0</ele><time>2026-05-02T17:24:04.709Z</time></trkpt><trkpt lat="44.1067013" lon="11.0006077"><ele>523.3333333333333</ele><time>2026-05-02T17:24:05.711Z</time></trkpt><trkpt lat="44.1067257" lon="11.0008655"><ele>516.6666666666666</ele><time>2026-05-02T17:24:06.706Z</time></trkpt><trkpt lat="44.1067606" lon="11.0011056"><ele>510.0</ele><time>2026-05-02T17:24:07.703Z</time></trkpt><trkpt lat="44.106824" lon="11.0013494"><ele>510.0</ele><time>2026-05-02T17:24:08.705Z</time></trkpt><trkpt lat="44.1069308" lon="11.0015652"><ele>510.0</ele><time>2026-05-02T17:24:09.721Z</time></trkpt><trkpt lat="44.107023" lon="11.0017796"><ele>510.0</ele><time>2026-05-02T17:24:10.711Z</time></trkpt><trkpt lat="44.1071362" lon="11.0019891"><ele>506.66666666666663</ele><time>2026-05-02T17:24:11.713Z</time></trkpt><trkpt lat="44.1072597" lon="11.0021727"><ele>503.3333333333333</ele><time>2026-05-02T17:24:12.721Z</time></trkpt><trkpt lat="44.1073743" lon="11.0023495"><ele>500.0</ele><time>2026-05-02T17:24:13.707Z</time></trkpt><trkpt lat="44.10751" lon="11.0024659"><ele>500.0</ele><time>2026-05-02T17:24:14.708Z</time></trkpt><trkpt lat="44.1076536" lon="11.0025668"><ele>500.0</ele><time>2026-05-02T17:24:15.724Z</time></trkpt><trkpt lat="44.1077958" lon="11.0026483"><ele>500.0</ele><time>2026-05-02T17:24:16.716Z</time></trkpt><trkpt lat="44.1079382" lon="11.0026984"><ele>500.0</ele><time>2026-05-02T17:24:17.712Z</time></trkpt><trkpt lat="44.108079" lon="11.0027372"><ele>500.0</ele><time>2026-05-02T17:24:18.712Z</time></trkpt><trkpt lat="44.1082614" lon="11.0027296"><ele>500.0</ele><time>2026-05-02T17:24:19.718Z</time></trkpt><trkpt lat="44.1084216" lon="11.0027255"><ele>504.25</ele><time>2026-05-02T17:24:20.72Z</time></trkpt><trkpt lat="44.1085769" lon="11.002742"><ele>508.5</ele><time>2026-05-02T17:24:21.711Z</time></trkpt><trkpt lat="44.1087112" lon="11.0027691"><ele>512.75</ele><time>2026-05-02T17:24:22.723Z</time></trkpt><trkpt lat="44.1088515" lon="11.0027766"><ele>517.0</ele><time>2026-05-02T17:24:23.715Z</time></trkpt><trkpt lat="44.1089584" lon="11.0027352"><ele>517.0</ele><time>2026-05-02T17:24:24.713Z</time></trkpt><trkpt lat="44.1090604" lon="11.0026537"><ele>517.0</ele><time>2026-05-02T17:24:25.717Z</time></trkpt><trkpt lat="44.1091592" lon="11.0025348"><ele>517.0</ele><time>2026-05-02T17:24:26.72Z</time></trkpt><trkpt lat="44.1092581" lon="11.0023931"><ele>517.0</ele><time>2026-05-02T17:24:27.71Z</time></trkpt><trkpt lat="44.1093644" lon="11.0022414"><ele>522.5</ele><time>2026-05-02T17:24:28.724Z</time></trkpt><trkpt lat="44.1094887" lon="11.0020961"><ele>528.0</ele><time>2026-05-02T17:24:29.708Z</time></trkpt><trkpt lat="44.1096177" lon="11.0019732"><ele>533.5</ele><time>2026-05-02T17:24:30.719Z</time></trkpt><trkpt lat="44.1096852" lon="11.0018264"><ele>539.0</ele><time>2026-05-02T17:24:31.714Z</time></trkpt><trkpt lat="44.1097927" lon="11.001736"><ele>541.4</ele><time>2026-05-02T17:24:32.712Z</time></trkpt><trkpt lat="44.1099096" lon="11.0016835"><ele>543.8</ele><time>2026-05-02T17:24:33.708Z</time></trkpt><trkpt lat="44.1100127" lon="11.0016221"><ele>546.2</ele><time>2026-05-02T17:24:34.718Z</time></trkpt><trkpt lat="44.1101192" lon="11.0015804"><ele>548.6</ele><time>2026-05-02T17:24:35.707Z</time></trkpt><trkpt lat="44.1102157" lon="11.001565"><ele>551.0</ele><time>2026-05-02T17:24:36.71Z</time></trkpt><trkpt lat="44.1103188" lon="11.0015924"><ele>551.0</ele><time>2026-05-02T17:24:37.71Z</time></trkpt><trkpt lat="44.1104179" lon="11.0016307"><ele>551.0</ele><time>2026-05-02T17:24:38.724Z</time></trkpt><trkpt lat="44.1105169" lon="11.0016678"><ele>551.0</ele><time>2026-05-02T17:24:39.709Z</time></trkpt><trkpt lat="44.1106519" lon="11.0016905"><ele>551.0</ele><time>2026-05-02T17:24:40.712Z</time></trkpt><trkpt lat="44.1107697" lon="11.0017402"><ele>547.5</ele><time>2026-05-02T17:24:41.727Z</time></trkpt><trkpt lat="44.1108634" lon="11.0017917"><ele>544.0</ele><time>2026-05-02T17:24:42.709Z</time></trkpt><trkpt lat="44.1110459" lon="11.0016958"><ele>540.5</ele><time>2026-05-02T17:24:43.712Z</time></trkpt><trkpt lat="44.1111619" lon="11.0016704"><ele>537.0</ele><time>2026-05-02T17:24:44.712Z</time></trkpt><trkpt lat="44.1112724" lon="11.0015651"><ele>537.0</ele><time>2026-05-02T17:24:45.722Z</time></trkpt><trkpt lat="44.1113626" lon="11.0014324"><ele>537.0</ele><time>2026-05-02T17:24:46.721Z</time></trkpt><trkpt lat="44.1114551" lon="11.0013336"><ele>537.0</ele><time>2026-05-02T17:24:47.707Z</time></trkpt><trkpt lat="44.111528" lon="11.001239"><ele>537.0</ele><time>2026-05-02T17:24:48.729Z</time></trkpt><trkpt lat="44.1116158" lon="11.0011517"><ele>534.6</ele><time>2026-05-02T17:24:49.716Z</time></trkpt><trkpt lat="44.1116871" lon="11.0010823"><ele>532.2</ele><time>2026-05-02T17:24:50.711Z</time></trkpt><trkpt lat="44.1117734" lon="11.0010361"><ele>529.8</ele><time>2026-05-02T17:24:51.709Z</time></trkpt><trkpt lat="44.1118644" lon="11.001029"><ele>527.4</ele><time>2026-05-02T17:24:52.709Z</time></trkpt><trkpt lat="44.1119616" lon="11.0010453"><ele>525.0</ele><time>2026-05-02T17:24:53.709Z</time></trkpt><trkpt lat="44.1120678" lon="11.0010769"><ele>525.0</ele><time>2026-05-02T17:24:54.716Z</time></trkpt><trkpt lat="44.1121536" lon="11.0011179"><ele>525.0</ele><time>2026-05-02T17:24:55.708Z</time></trkpt><trkpt lat="44.1122472" lon="11.001188"><ele>525.0</ele><time>2026-05-02T17:24:56.705Z</time></trkpt><trkpt lat="44.1123397" lon="11.0012939"><ele>525.0</ele><time>2026-05-02T17:24:57.711Z</time></trkpt><trkpt lat="44.1124416" lon="11.0014104"><ele>525.0</ele><time>2026-05-02T17:24:58.715Z</time></trkpt><trkpt lat="44.1125532" lon="11.0015469"><ele>515.3333333333334</ele><time>2026-05-02T17:24:59.705Z</time></trkpt><trkpt lat="44.1126487" lon="11.0016933"><ele>505.6666666666667</ele><time>2026-05-02T17:25:00.711Z</time></trkpt><trkpt lat="44.1127597" lon="11.0018392"><ele>496.0</ele><time>2026-05-02T17:25:01.727Z</time></trkpt><trkpt lat="44.1128729" lon="11.0019973"><ele>496.0</ele><time>2026-05-02T17:25:02.731Z</time></trkpt><trkpt lat="44.1129766" lon="11.0021559"><ele>496.0</ele><time>2026-05-02T17:25:03.712Z</time></trkpt><trkpt lat="44.1131082" lon="11.0023011"><ele>496.0</ele><time>2026-05-02T17:25:04.716Z</time></trkpt><trkpt lat="44.1132586" lon="11.0024172"><ele>497.33333333333337</ele><time>2026-05-02T17:25:05.724Z</time></trkpt><trkpt lat="44.1133938" lon="11.0025361"><ele>498.66666666666663</ele><time>2026-05-02T17:25:06.71Z</time></trkpt><trkpt lat="44.1135284" lon="11.0026652"><ele>500.0</ele><time>2026-05-02T17:25:07.717Z</time></trkpt><trkpt lat="44.1136569" lon="11.0027864"><ele>500.0</ele><time>2026-05-02T17:25:08.71Z</time></trkpt><trkpt lat="44.1137892" lon="11.0029216"><ele>500.0</ele><time>2026-05-02T17:25:09.712Z</time></trkpt><trkpt lat="44.1139278" lon="11.0030344"><ele>500.0</ele><time>2026-05-02T17:25:10.716Z</time></trkpt><trkpt lat="44.1140579" lon="11.0031562"><ele>498.3333333333333</ele><time>2026-05-02T17:25:11.704Z</time></trkpt><trkpt lat="44.1141968" lon="11.0032693"><ele>496.66666666666663</ele><time>2026-05-02T17:25:12.725Z</time></trkpt><trkpt lat="44.1143489" lon="11.0033643"><ele>495.0</ele><time>2026-05-02T17:25:13.711Z</time></trkpt><trkpt lat="44.1144981" lon="11.0034591"><ele>495.0</ele><time>2026-05-02T17:25:14.719Z</time></trkpt><trkpt lat="44.1146341" lon="11.0035413"><ele>495.0</ele><time>2026-05-02T17:25:15.727Z</time></trkpt><trkpt lat="44.1147782" lon="11.0035995"><ele>495.0</ele><time>2026-05-02T17:25:16.71Z</time></trkpt><trkpt lat="44.1149163" lon="11.0036742"><ele>495.0</ele><time>2026-05-02T17:25:17.709Z</time></trkpt><trkpt lat="44.1150216" lon="11.0037607"><ele>500.75</ele><time>2026-05-02T17:25:18.714Z</time></trkpt><trkpt lat="44.1151557" lon="11.0038241"><ele>506.5</ele><time>2026-05-02T17:25:19.711Z</time></trkpt><trkpt lat="44.1152864" lon="11.003881"><ele>512.25</ele><time>2026-05-02T17:25:20.71Z</time></trkpt><trkpt lat="44.1153883" lon="11.003959"><ele>518.0</ele><time>2026-05-02T17:25:21.717Z</time></trkpt><trkpt lat="44.1155259" lon="11.0039726"><ele>518.0</ele><time>2026-05-02T17:25:22.712Z</time></trkpt><trkpt lat="44.1156416" lon="11.0040104"><ele>518.0</ele><time>2026-05-02T17:25:23.714Z</time></trkpt><trkpt lat="44.1157465" lon="11.0040506"><ele>518.0</ele><time>2026-05-02T17:25:24.712Z</time></trkpt><trkpt lat="44.1158453" lon="11.0040642"><ele>518.0</ele><time>2026-05-02T17:25:25.714Z</time></trkpt><trkpt lat="44.1159585" lon="11.0040865"><ele>518.0</ele><time>2026-05-02T17:25:26.707Z</time></trkpt><trkpt lat="44.116058" lon="11.0041019"><ele>518.5</ele><time>2026-05-02T17:25:27.712Z</time></trkpt><trkpt lat="44.1161902" lon="11.0040651"><ele>519.0</ele><time>2026-05-02T17:25:28.705Z</time></trkpt><trkpt lat="44.1163135" lon="11.0040249"><ele>519.5</ele><time>2026-05-02T17:25:29.708Z</time></trkpt><trkpt lat="44.1164658" lon="11.003905"><ele>520.0</ele><time>2026-05-02T17:25:30.705Z</time></trkpt><trkpt lat="44.1165951" lon="11.0038174"><ele>520.0</ele><time>2026-05-02T17:25:31.725Z</time></trkpt><trkpt lat="44.1167259" lon="11.0037333"><ele>520.0</ele><time>2026-05-02T17:25:32.71Z</time></trkpt><trkpt lat="44.1168475" lon="11.0036296"><ele>520.0</ele><time>2026-05-02T17:25:33.713Z</time></trkpt><trkpt lat="44.1169546" lon="11.0035126"><ele>520.0</ele><time>2026-05-02T17:25:34.715Z</time></trkpt><trkpt lat="44.1170813" lon="11.0034316"><ele>520.0</ele><time>2026-05-02T17:25:35.724Z</time></trkpt><trkpt lat="44.11719" lon="11.0033511"><ele>520.0</ele><time>2026-05-02T17:25:36.716Z</time></trkpt><trkpt lat="44.1173118" lon="11.0032671"><ele>520.0</ele><time>2026-05-02T17:25:37.71Z</time></trkpt><trkpt lat="44.1174252" lon="11.0031625"><ele>520.0</ele><time>2026-05-02T17:25:38.727Z</time></trkpt><trkpt lat="44.1175299" lon="11.0030447"><ele>521.25</ele><time>2026-05-02T17:25:39.711Z</time></trkpt><trkpt lat="44.1176308" lon="11.002945"><ele>522.5</ele><time>2026-05-02T17:25:40.71Z</time></trkpt><trkpt lat="44.1177261" lon="11.0028352"><ele>523.75</ele><time>2026-05-02T17:25:41.713Z</time></trkpt><trkpt lat="44.1178391" lon="11.0027506"><ele>525.0</ele><time>2026-05-02T17:25:42.714Z</time></trkpt><trkpt lat="44.1179532" lon="11.0026645"><ele>525.0</ele><time>2026-05-02T17:25:43.709Z</time></trkpt><trkpt lat="44.1180649" lon="11.0026261"><ele>525.0</ele><time>2026-05-02T17:25:44.714Z</time></trkpt><trkpt lat="44.1181899" lon="11.0025989"><ele>525.0</ele><time>2026-05-02T17:25:45.717Z</time></trkpt><trkpt lat="44.1183194" lon="11.00261"><ele>525.0</ele><time>2026-05-02T17:25:46.738Z</time></trkpt><trkpt lat="44.1184411" lon="11.002617"><ele>520.2</ele><time>2026-05-02T17:25:47.713Z</time></trkpt><trkpt lat="44.1185431" lon="11.0026681"><ele>515.4</ele><time>2026-05-02T17:25:48.702Z</time></trkpt><trkpt lat="44.1186383" lon="11.0026942"><ele>510.6</ele><time>2026-05-02T17:25:49.715Z</time></trkpt><trkpt lat="44.1187396" lon="11.0027178"><ele>505.8</ele><time>2026-05-02T17:25:50.713Z</time></trkpt><trkpt lat="44.1188264" lon="11.0026698"><ele>501.0</ele><time>2026-05-02T17:25:51.727Z</time></trkpt><trkpt lat="44.1189064" lon="11.0026521"><ele>501.0</ele><time>2026-05-02T17:25:52.717Z</time></trkpt><trkpt lat="44.1189739" lon="11.0026021"><ele>501.0</ele><time>2026-05-02T17:25:53.711Z</time></trkpt><trkpt lat="44.1190635" lon="11.00255"><ele>501.0</ele><time>2026-05-02T17:25:54.711Z</time></trkpt><trkpt lat="44.119161" lon="11.0024931"><ele>501.0</ele><time>2026-05-02T17:25:55.709Z</time></trkpt><trkpt lat="44.1192554" lon="11.0024446"><ele>501.0</ele><time>2026-05-02T17:25:56.72Z</time></trkpt><trkpt lat="44.1193619" lon="11.0024305"><ele>497.20000000000005</ele><time>2026-05-02T17:25:57.718Z</time></trkpt><trkpt lat="44.119478" lon="11.0024376"><ele>493.40000000000003</ele><time>2026-05-02T17:25:58.726Z</time></trkpt><trkpt lat="44.119582" lon="11.0024665"><ele>489.6</ele><time>2026-05-02T17:25:59.712Z</time></trkpt><trkpt lat="44.1196897" lon="11.0025"><ele>485.8</ele><time>2026-05-02T17:26:00.708Z</time></trkpt><trkpt lat="44.1197981" lon="11.0025421"><ele>482.0</ele><time>2026-05-02T17:26:01.708Z</time></trkpt><trkpt lat="44.1199044" lon="11.0025882"><ele>482.0</ele><time>2026-05-02T17:26:02.71Z</time></trkpt><trkpt lat="44.1200085" lon="11.0026186"><ele>482.00000000000006</ele><time>2026-05-02T17:26:03.71Z</time></trkpt><trkpt lat="44.1201097" lon="11.0026369"><ele>482.00000000000006</ele><time>2026-05-02T17:26:04.715Z</time></trkpt><trkpt lat="44.1202149" lon="11.0026268"><ele>482.0</ele><time>2026-05-02T17:26:05.726Z</time></trkpt><trkpt lat="44.1203215" lon="11.0025948"><ele>482.0</ele><time>2026-05-02T17:26:06.709Z</time></trkpt><trkpt lat="44.1204246" lon="11.0025461"><ele>482.3333333333333</ele><time>2026-05-02T17:26:07.708Z</time></trkpt><trkpt lat="44.1205182" lon="11.002498"><ele>482.66666666666663</ele><time>2026-05-02T17:26:08.712Z</time></trkpt><trkpt lat="44.1205938" lon="11.0024453"><ele>483.0</ele><time>2026-05-02T17:26:09.714Z</time></trkpt><trkpt lat="44.1206597" lon="11.0023884"><ele>483.33333333333337</ele><time>2026-05-02T17:26:10.706Z</time></trkpt><trkpt lat="44.1207501" lon="11.0023975"><ele>483.6666666666667</ele><time>2026-05-02T17:26:11.714Z</time></trkpt><trkpt lat="44.1208265" lon="11.0024297"><ele>484.0</ele><time>2026-05-02T17:26:12.706Z</time></trkpt><trkpt lat="44.1209062" lon="11.0024563"><ele>482.00000000000006</ele><time>2026-05-02T17:26:13.725Z</time></trkpt><trkpt lat="44.1209781" lon="11.0025131"><ele>480.0</ele><time>2026-05-02T17:26:14.709Z</time></trkpt><trkpt lat="44.1210672" lon="11.0025692"><ele>478.0</ele><time>2026-05-02T17:26:15.715Z</time></trkpt><trkpt lat="44.1211418" lon="11.002633"><ele>476.0</ele><time>2026-05-02T17:26:16.714Z</time></trkpt><trkpt lat="44.1212145" lon="11.0026709"><ele>474.00000000000006</ele><time>2026-05-02T17:26:17.709Z</time></trkpt><trkpt lat="44.1213036" lon="11.0026789"><ele>472.0</ele><time>2026-05-02T17:26:18.723Z</time></trkpt><trkpt lat="44.1213728" lon="11.0026779"><ele>472.0</ele><time>2026-05-02T17:26:19.708Z</time></trkpt><trkpt lat="44.1214507" lon="11.0026429"><ele>472.0</ele><time>2026-05-02T17:26:20.709Z</time></trkpt><trkpt lat="44.1215768" lon="11.0025584"><ele>472.0</ele><time>2026-05-02T17:26:21.71Z</time></trkpt><trkpt lat="44.1216845" lon="11.0024597"><ele>472.0</ele><time>2026-05-02T17:26:22.718Z</time></trkpt><trkpt lat="44.1217975" lon="11.0023816"><ele>473.75</ele><time>2026-05-02T17:26:23.716Z</time></trkpt><trkpt lat="44.1218936" lon="11.0023063"><ele>475.5</ele><time>2026-05-02T17:26:24.709Z</time></trkpt><trkpt lat="44.121996" lon="11.0022194"><ele>477.25</ele><time>2026-05-02T17:26:25.724Z</time></trkpt><trkpt lat="44.1221032" lon="11.0021432"><ele>479.0</ele><time>2026-05-02T17:26:26.71Z</time></trkpt><trkpt lat="44.122221" lon="11.0020485"><ele>479.0</ele><time>2026-05-02T17:26:27.711Z</time></trkpt><trkpt lat="44.1223503" lon="11.001959"><ele>479.0</ele><time>2026-05-02T17:26:28.723Z</time></trkpt><trkpt lat="44.1224616" lon="11.0018725"><ele>479.0</ele><time>2026-05-02T17:26:29.712Z</time></trkpt><trkpt lat="44.1225576" lon="11.0018022"><ele>479.0</ele><time>2026-05-02T17:26:30.709Z</time></trkpt><trkpt lat="44.1226842" lon="11.0018182"><ele>477.6</ele><time>2026-05-02T17:26:31.721Z</time></trkpt><trkpt lat="44.122787" lon="11.0018536"><ele>476.2</ele><time>2026-05-02T17:26:32.719Z</time></trkpt><trkpt lat="44.1228727" lon="11.0018983"><ele>474.80000000000007</ele><time>2026-05-02T17:26:33.705Z</time></trkpt><trkpt lat="44.1229654" lon="11.0019658"><ele>473.40000000000003</ele><time>2026-05-02T17:26:34.709Z</time></trkpt><trkpt lat="44.123061" lon="11.0020263"><ele>472.0</ele><time>2026-05-02T17:26:35.703Z</time></trkpt><trkpt lat="44.1231839" lon="11.0020845"><ele>471.75</ele><time>2026-05-02T17:26:36.704Z</time></trkpt><trkpt lat="44.1233091" lon="11.0021267"><ele>471.5</ele><time>2026-05-02T17:26:37.716Z</time></trkpt><trkpt lat="44.123441" lon="11.0021487"><ele>471.25</ele><time>2026-05-02T17:26:38.712Z</time></trkpt><trkpt lat="44.12357" lon="11.0021584"><ele>471.0</ele><time>2026-05-02T17:26:39.725Z</time></trkpt><trkpt lat="44.1236809" lon="11.0021698"><ele>471.0</ele><time>2026-05-02T17:26:40.713Z</time></trkpt><trkpt lat="44.1238129" lon="11.0021225"><ele>471.0</ele><time>2026-05-02T17:26:41.71Z</time></trkpt><trkpt lat="44.1239178" lon="11.0020755"><ele>471.0</ele><time>2026-05-02T17:26:42.709Z</time></trkpt><trkpt lat="44.1240119" lon="11.0020234"><ele>471.0</ele><time>2026-05-02T17:26:43.713Z</time></trkpt><trkpt lat="44.1240865" lon="11.0019439"><ele>471.0</ele><time>2026-05-02T17:26:44.713Z</time></trkpt><trkpt lat="44.124138" lon="11.0018425"><ele>472.0</ele><time>2026-05-02T17:26:45.709Z</time></trkpt><trkpt lat="44.1241737" lon="11.0017179"><ele>473.0</ele><time>2026-05-02T17:26:46.706Z</time></trkpt><trkpt lat="44.1242161" lon="11.0015991"><ele>474.0</ele><time>2026-05-02T17:26:47.713Z</time></trkpt><trkpt lat="44.1242708" lon="11.0014865"><ele>475.0</ele><time>2026-05-02T17:26:48.714Z</time></trkpt><trkpt lat="44.12434" lon="11.0013921"><ele>476.0</ele><time>2026-05-02T17:26:49.725Z</time></trkpt><trkpt lat="44.1244224" lon="11.0013202"><ele>476.0</ele><time>2026-05-02T17:26:50.707Z</time></trkpt><trkpt lat="44.1245106" lon="11.0012679"><ele>476.0</ele><time>2026-05-02T17:26:51.714Z</time></trkpt><trkpt lat="44.1246049" lon="11.0012171"><ele>476.0</ele><time>2026-05-02T17:26:52.707Z</time></trkpt><trkpt lat="44.1247022" lon="11.0011551"><ele>476.0</ele><time>2026-05-02T17:26:53.711Z</time></trkpt><trkpt lat="44.1247834" lon="11.0010722"><ele>476.0</ele><time>2026-05-02T17:26:54.709Z</time></trkpt><trkpt lat="44.124832" lon="11.0009682"><ele>476.0</ele><time>2026-05-02T17:26:55.712Z</time></trkpt><trkpt lat="44.1248684" lon="11.000856"><ele>476.0</ele><time>2026-05-02T17:26:56.714Z</time></trkpt><trkpt lat="44.1248844" lon="11.000746"><ele>476.0</ele><time>2026-05-02T17:26:57.713Z</time></trkpt><trkpt lat="44.1249057" lon="11.0006217"><ele>476.0</ele><time>2026-05-02T17:26:58.711Z</time></trkpt><trkpt lat="44.1249441" lon="11.0004865"><ele>476.0</ele><time>2026-05-02T17:26:59.706Z</time></trkpt><trkpt lat="44.1250111" lon="11.0003567"><ele>471.25</ele><time>2026-05-02T17:27:00.708Z</time></trkpt><trkpt lat="44.1250895" lon="11.0002179"><ele>466.5</ele><time>2026-05-02T17:27:01.714Z</time></trkpt><trkpt lat="44.1251867" lon="11.000093"><ele>461.75</ele><time>2026-05-02T17:27:02.72Z</time></trkpt><trkpt lat="44.1252792" lon="10.99996"><ele>457.0</ele><time>2026-05-02T17:27:03.711Z</time></trkpt><trkpt lat="44.1253668" lon="10.9998244"><ele>457.0</ele><time>2026-05-02T17:27:04.714Z</time></trkpt><trkpt lat="44.1254502" lon="10.9996928"><ele>457.0</ele><time>2026-05-02T17:27:05.711Z</time></trkpt><trkpt lat="44.1255292" lon="10.999562"><ele>457.0</ele><time>2026-05-02T17:27:06.717Z</time></trkpt><trkpt lat="44.1255947" lon="10.9994137"><ele>457.0</ele><time>2026-05-02T17:27:07.735Z</time></trkpt><trkpt lat="44.1256514" lon="10.9992592"><ele>460.75</ele><time>2026-05-02T17:27:08.706Z</time></trkpt><trkpt lat="44.1256712" lon="10.9990966"><ele>464.5</ele><time>2026-05-02T17:27:09.715Z</time></trkpt><trkpt lat="44.1256974" lon="10.9989283"><ele>468.25</ele><time>2026-05-02T17:27:10.711Z</time></trkpt><trkpt lat="44.1257348" lon="10.9987719"><ele>472.0</ele><time>2026-05-02T17:27:11.717Z</time></trkpt><trkpt lat="44.1257933" lon="10.9986382"><ele>466.0</ele><time>2026-05-02T17:27:12.709Z</time></trkpt><trkpt lat="44.1258838" lon="10.9985062"><ele>460.0</ele><time>2026-05-02T17:27:13.71Z</time></trkpt><trkpt lat="44.1259931" lon="10.9983814"><ele>454.0</ele><time>2026-05-02T17:27:14.71Z</time></trkpt><trkpt lat="44.1260981" lon="10.9982677"><ele>448.0</ele><time>2026-05-02T17:27:15.714Z</time></trkpt><trkpt lat="44.1262032" lon="10.9981482"><ele>448.0</ele><time>2026-05-02T17:27:16.715Z</time></trkpt><trkpt lat="44.1263024" lon="10.9980308"><ele>448.0</ele><time>2026-05-02T17:27:17.71Z</time></trkpt><trkpt lat="44.1263978" lon="10.9979"><ele>448.0</ele><time>2026-05-02T17:27:18.709Z</time></trkpt><trkpt lat="44.1265032" lon="10.9977889"><ele>448.0</ele><time>2026-05-02T17:27:19.711Z</time></trkpt><trkpt lat="44.1265995" lon="10.9976886"><ele>445.0</ele><time>2026-05-02T17:27:20.711Z</time></trkpt><trkpt lat="44.1267093" lon="10.9976031"><ele>442.0</ele><time>2026-05-02T17:27:21.71Z</time></trkpt><trkpt lat="44.1268362" lon="10.9975177"><ele>439.0</ele><time>2026-05-02T17:27:22.724Z</time></trkpt><trkpt lat="44.1269558" lon="10.9974214"><ele>436.0</ele><time>2026-05-02T17:27:23.707Z</time></trkpt><trkpt lat="44.1270589" lon="10.9973202"><ele>436.0</ele><time>2026-05-02T17:27:24.708Z</time></trkpt><trkpt lat="44.1271712" lon="10.9972195"><ele>436.0</ele><time>2026-05-02T17:27:25.711Z</time></trkpt><trkpt lat="44.1272879" lon="10.997135"><ele>436.0</ele><time>2026-05-02T17:27:26.712Z</time></trkpt><trkpt lat="44.1274078" lon="10.9970447"><ele>436.0</ele><time>2026-05-02T17:27:27.711Z</time></trkpt><trkpt lat="44.1275182" lon="10.9969543"><ele>434.25</ele><time>2026-05-02T17:27:28.712Z</time></trkpt><trkpt lat="44.127601" lon="10.9968518"><ele>432.5</ele><time>2026-05-02T17:27:29.709Z</time></trkpt><trkpt lat="44.1276907" lon="10.996729"><ele>430.75</ele><time>2026-05-02T17:27:30.718Z</time></trkpt><trkpt lat="44.1277832" lon="10.996614"><ele>429.0</ele><time>2026-05-02T17:27:31.716Z</time></trkpt><trkpt lat="44.1278621" lon="10.9965048"><ele>429.0</ele><time>2026-05-02T17:27:32.727Z</time></trkpt><trkpt lat="44.1279339" lon="10.9963814"><ele>429.0</ele><time>2026-05-02T17:27:33.709Z</time></trkpt><trkpt lat="44.1279888" lon="10.9962511"><ele>429.0</ele><time>2026-05-02T17:27:34.714Z</time></trkpt><trkpt lat="44.1280492" lon="10.9961158"><ele>429.0</ele><time>2026-05-02T17:27:35.717Z</time></trkpt><trkpt lat="44.1281031" lon="10.9959715"><ele>429.0</ele><time>2026-05-02T17:27:36.706Z</time></trkpt><trkpt lat="44.1281082" lon="10.9958433"><ele>429.0</ele><time>2026-05-02T17:27:37.719Z</time></trkpt><trkpt lat="44.1281485" lon="10.9957194"><ele>429.0</ele><time>2026-05-02T17:27:38.709Z</time></trkpt><trkpt lat="44.1281195" lon="10.9955812"><ele>429.0</ele><time>2026-05-02T17:27:39.71Z</time></trkpt><trkpt lat="44.1280717" lon="10.9954474"><ele>429.0</ele><time>2026-05-02T17:27:40.728Z</time></trkpt><trkpt lat="44.1280484" lon="10.9952905"><ele>430.75</ele><time>2026-05-02T17:27:41.711Z</time></trkpt><trkpt lat="44.1280236" lon="10.9951366"><ele>432.5</ele><time>2026-05-02T17:27:42.714Z</time></trkpt><trkpt lat="44.1279841" lon="10.9949644"><ele>434.25</ele><time>2026-05-02T17:27:43.707Z</time></trkpt><trkpt lat="44.1279535" lon="10.994786"><ele>436.0</ele><time>2026-05-02T17:27:44.71Z</time></trkpt><trkpt lat="44.1279395" lon="10.9946148"><ele>436.0</ele><time>2026-05-02T17:27:45.71Z</time></trkpt><trkpt lat="44.1279101" lon="10.9944469"><ele>436.0</ele><time>2026-05-02T17:27:46.709Z</time></trkpt><trkpt lat="44.1278995" lon="10.9942875"><ele>436.0</ele><time>2026-05-02T17:27:47.708Z</time></trkpt><trkpt lat="44.1279085" lon="10.9941154"><ele>436.0</ele><time>2026-05-02T17:27:48.711Z</time></trkpt><trkpt lat="44.127946" lon="10.9939665"><ele>434.4</ele><time>2026-05-02T17:27:49.71Z</time></trkpt><trkpt lat="44.1279587" lon="10.9938198"><ele>432.8</ele><time>2026-05-02T17:27:50.709Z</time></trkpt><trkpt lat="44.1279957" lon="10.993678"><ele>431.19999999999993</ele><time>2026-05-02T17:27:51.708Z</time></trkpt><trkpt lat="44.1280236" lon="10.9935439"><ele>429.59999999999997</ele><time>2026-05-02T17:27:52.706Z</time></trkpt><trkpt lat="44.1280528" lon="10.9933993"><ele>428.0</ele><time>2026-05-02T17:27:53.713Z</time></trkpt><trkpt lat="44.1281134" lon="10.9932687"><ele>426.59999999999997</ele><time>2026-05-02T17:27:54.718Z</time></trkpt><trkpt lat="44.1281498" lon="10.9931375"><ele>425.19999999999993</ele><time>2026-05-02T17:27:55.704Z</time></trkpt><trkpt lat="44.1281921" lon="10.9929938"><ele>423.8</ele><time>2026-05-02T17:27:56.704Z</time></trkpt><trkpt lat="44.1282324" lon="10.9928506"><ele>422.4</ele><time>2026-05-02T17:27:57.708Z</time></trkpt><trkpt lat="44.1282011" lon="10.9927004"><ele>421.0</ele><time>2026-05-02T17:27:58.713Z</time></trkpt><trkpt lat="44.1281966" lon="10.9925345"><ele>421.4</ele><time>2026-05-02T17:27:59.707Z</time></trkpt><trkpt lat="44.1281951" lon="10.9923881"><ele>421.8</ele><time>2026-05-02T17:28:00.709Z</time></trkpt><trkpt lat="44.1281869" lon="10.9922526"><ele>422.2</ele><time>2026-05-02T17:28:01.715Z</time></trkpt><trkpt lat="44.1281957" lon="10.9921219"><ele>422.59999999999997</ele><time>2026-05-02T17:28:02.726Z</time></trkpt><trkpt lat="44.1282393" lon="10.992002"><ele>423.0</ele><time>2026-05-02T17:28:03.72Z</time></trkpt><trkpt lat="44.1283027" lon="10.9919172"><ele>419.5</ele><time>2026-05-02T17:28:04.712Z</time></trkpt><trkpt lat="44.1283879" lon="10.9918752"><ele>416.0</ele><time>2026-05-02T17:28:05.709Z</time></trkpt><trkpt lat="44.1284659" lon="10.9918432"><ele>412.5</ele><time>2026-05-02T17:28:06.71Z</time></trkpt><trkpt lat="44.1285409" lon="10.9918268"><ele>409.0</ele><time>2026-05-02T17:28:07.711Z</time></trkpt><trkpt lat="44.1286111" lon="10.9918023"><ele>405.5</ele><time>2026-05-02T17:28:08.711Z</time></trkpt><trkpt lat="44.1286908" lon="10.9917962"><ele>402.0</ele><time>2026-05-02T17:28:09.707Z</time></trkpt><trkpt lat="44.1287691" lon="10.9917959"><ele>402.0</ele><time>2026-05-02T17:28:10.711Z</time></trkpt><trkpt lat="44.128869" lon="10.991759"><ele>402.0</ele><time>2026-05-02T17:28:12.711Z</time></trkpt><trkpt lat="44.1289413" lon="10.9917624"><ele>402.0</ele><time>2026-05-02T17:28:14.716Z</time></trkpt><trkpt lat="44.1290109" lon="10.9917763"><ele>402.0</ele><time>2026-05-02T17:28:16.71Z</time></trkpt><trkpt lat="44.1292043" lon="10.9917384"><ele>402.0</ele><time>2026-05-02T17:28:21.711Z</time></trkpt><trkpt lat="44.129311" lon="10.9916864"><ele>401.5</ele><time>2026-05-02T17:28:23.713Z</time></trkpt><trkpt lat="44.1294087" lon="10.9916373"><ele>401.0</ele><time>2026-05-02T17:28:25.711Z</time></trkpt><trkpt lat="44.1294745" lon="10.9916124"><ele>400.5</ele><time>2026-05-02T17:28:27.709Z</time></trkpt><trkpt lat="44.1295657" lon="10.9915573"><ele>400.0</ele><time>2026-05-02T17:28:35.708Z</time></trkpt><trkpt lat="44.1296401" lon="10.99154"><ele>399.5</ele><time>2026-05-02T17:28:40.708Z</time></trkpt><trkpt lat="44.1297143" lon="10.9915203"><ele>399.0</ele><time>2026-05-02T17:28:43.715Z</time></trkpt><trkpt lat="44.1298303" lon="10.9914794"><ele>400.2</ele><time>2026-05-02T17:28:45.708Z</time></trkpt><trkpt lat="44.1299415" lon="10.9914543"><ele>401.4</ele><time>2026-05-02T17:28:47.721Z</time></trkpt><trkpt lat="44.1300121" lon="10.991437"><ele>402.6</ele><time>2026-05-02T17:28:48.711Z</time></trkpt><trkpt lat="44.1301067" lon="10.9914114"><ele>403.8</ele><time>2026-05-02T17:28:49.712Z</time></trkpt><trkpt lat="44.1302006" lon="10.9913824"><ele>405.0</ele><time>2026-05-02T17:28:50.726Z</time></trkpt><trkpt lat="44.1302997" lon="10.9913667"><ele>405.0</ele><time>2026-05-02T17:28:51.709Z</time></trkpt><trkpt lat="44.1304015" lon="10.9913417"><ele>405.0</ele><time>2026-05-02T17:28:52.709Z</time></trkpt><trkpt lat="44.1305061" lon="10.9913202"><ele>405.0</ele><time>2026-05-02T17:28:53.716Z</time></trkpt><trkpt lat="44.1306165" lon="10.9912985"><ele>405.0</ele><time>2026-05-02T17:28:54.703Z</time></trkpt><trkpt lat="44.130718" lon="10.9912671"><ele>405.0</ele><time>2026-05-02T17:28:55.705Z</time></trkpt><trkpt lat="44.1308128" lon="10.9912437"><ele>404.4</ele><time>2026-05-02T17:28:56.709Z</time></trkpt><trkpt lat="44.1309134" lon="10.9912179"><ele>403.8</ele><time>2026-05-02T17:28:57.708Z</time></trkpt><trkpt lat="44.1310223" lon="10.9911979"><ele>403.20000000000005</ele><time>2026-05-02T17:28:58.708Z</time></trkpt><trkpt lat="44.1311201" lon="10.9911773"><ele>402.6</ele><time>2026-05-02T17:28:59.714Z</time></trkpt><trkpt lat="44.1312059" lon="10.9911568"><ele>402.0</ele><time>2026-05-02T17:29:00.722Z</time></trkpt><trkpt lat="44.1312888" lon="10.9911281"><ele>402.0</ele><time>2026-05-02T17:29:01.707Z</time></trkpt><trkpt lat="44.1313887" lon="10.991094"><ele>402.0</ele><time>2026-05-02T17:29:03.71Z</time></trkpt><trkpt lat="44.1314571" lon="10.9910732"><ele>402.0</ele><time>2026-05-02T17:29:06.709Z</time></trkpt><trkpt lat="44.1315271" lon="10.9910499"><ele>402.0</ele><time>2026-05-02T17:29:20.705Z</time></trkpt><trkpt lat="44.1315966" lon="10.9910243"><ele>402.0</ele><time>2026-05-02T17:29:21.709Z</time></trkpt><trkpt lat="44.1316619" lon="10.9910007"><ele>402.0</ele><time>2026-05-02T17:29:22.717Z</time></trkpt><trkpt lat="44.131726" lon="10.9909588"><ele>402.0</ele><time>2026-05-02T17:29:23.709Z</time></trkpt><trkpt lat="44.1317965" lon="10.9909383"><ele>402.0</ele><time>2026-05-02T17:29:24.708Z</time></trkpt><trkpt lat="44.1318998" lon="10.9908938"><ele>402.0</ele><time>2026-05-02T17:29:25.709Z</time></trkpt><trkpt lat="44.1320122" lon="10.9908564"><ele>402.0</ele><time>2026-05-02T17:29:26.713Z</time></trkpt><trkpt lat="44.1321159" lon="10.9908086"><ele>402.0</ele><time>2026-05-02T17:29:27.707Z</time></trkpt><trkpt lat="44.1322338" lon="10.9907627"><ele>402.5</ele><time>2026-05-02T17:29:28.712Z</time></trkpt><trkpt lat="44.1323464" lon="10.9907061"><ele>403.0</ele><time>2026-05-02T17:29:29.711Z</time></trkpt><trkpt lat="44.1324495" lon="10.9906466"><ele>403.5</ele><time>2026-05-02T17:29:30.716Z</time></trkpt><trkpt lat="44.1325609" lon="10.9905853"><ele>404.0</ele><time>2026-05-02T17:29:31.707Z</time></trkpt><trkpt lat="44.1326681" lon="10.990512"><ele>404.0</ele><time>2026-05-02T17:29:32.711Z</time></trkpt><trkpt lat="44.1327796" lon="10.9904354"><ele>404.0</ele><time>2026-05-02T17:29:33.708Z</time></trkpt><trkpt lat="44.1328741" lon="10.9903482"><ele>404.0</ele><time>2026-05-02T17:29:34.744Z</time></trkpt><trkpt lat="44.1329637" lon="10.9902609"><ele>404.0</ele><time>2026-05-02T17:29:35.71Z</time></trkpt><trkpt lat="44.1330317" lon="10.9901552"><ele>404.0</ele><time>2026-05-02T17:29:36.706Z</time></trkpt><trkpt lat="44.1331079" lon="10.9900611"><ele>403.4</ele><time>2026-05-02T17:29:37.706Z</time></trkpt><trkpt lat="44.1331939" lon="10.9899928"><ele>402.79999999999995</ele><time>2026-05-02T17:29:38.725Z</time></trkpt><trkpt lat="44.1332728" lon="10.9899286"><ele>402.20000000000005</ele><time>2026-05-02T17:29:39.706Z</time></trkpt><trkpt lat="44.1333645" lon="10.989848"><ele>401.6</ele><time>2026-05-02T17:29:40.704Z</time></trkpt><trkpt lat="44.1334782" lon="10.9897853"><ele>401.0</ele><time>2026-05-02T17:29:41.71Z</time></trkpt><trkpt lat="44.1336017" lon="10.9897225"><ele>401.0</ele><time>2026-05-02T17:29:42.705Z</time></trkpt><trkpt lat="44.1337264" lon="10.9896424"><ele>401.0</ele><time>2026-05-02T17:29:43.718Z</time></trkpt><trkpt lat="44.1338475" lon="10.989553"><ele>401.0</ele><time>2026-05-02T17:29:44.714Z</time></trkpt><trkpt lat="44.1339666" lon="10.9894761"><ele>401.0</ele><time>2026-05-02T17:29:45.713Z</time></trkpt><trkpt lat="44.1340733" lon="10.9893997"><ele>398.25</ele><time>2026-05-02T17:29:46.734Z</time></trkpt><trkpt lat="44.1341851" lon="10.9893247"><ele>395.5</ele><time>2026-05-02T17:29:47.723Z</time></trkpt><trkpt lat="44.1342871" lon="10.9892705"><ele>392.75</ele><time>2026-05-02T17:29:48.712Z</time></trkpt><trkpt lat="44.1343952" lon="10.9892279"><ele>390.0</ele><time>2026-05-02T17:29:49.714Z</time></trkpt><trkpt lat="44.1344996" lon="10.9891963"><ele>390.0</ele><time>2026-05-02T17:29:50.71Z</time></trkpt><trkpt lat="44.1345926" lon="10.9891824"><ele>390.0</ele><time>2026-05-02T17:29:51.71Z</time></trkpt><trkpt lat="44.1347206" lon="10.9892102"><ele>390.0</ele><time>2026-05-02T17:29:52.728Z</time></trkpt><trkpt lat="44.1348436" lon="10.9892557"><ele>390.0</ele><time>2026-05-02T17:29:53.714Z</time></trkpt><trkpt lat="44.1349516" lon="10.9892895"><ele>390.0</ele><time>2026-05-02T17:29:54.718Z</time></trkpt><trkpt lat="44.1350571" lon="10.9893352"><ele>390.0</ele><time>2026-05-02T17:29:55.706Z</time></trkpt><trkpt lat="44.1351564" lon="10.9893719"><ele>390.0</ele><time>2026-05-02T17:29:56.713Z</time></trkpt><trkpt lat="44.1352564" lon="10.9894107"><ele>390.0</ele><time>2026-05-02T17:29:57.714Z</time></trkpt><trkpt lat="44.1353566" lon="10.989455"><ele>390.0</ele><time>2026-05-02T17:29:58.712Z</time></trkpt><trkpt lat="44.1354643" lon="10.9894933"><ele>390.0</ele><time>2026-05-02T17:29:59.708Z</time></trkpt><trkpt lat="44.1355631" lon="10.989528"><ele>390.0</ele><time>2026-05-02T17:30:00.708Z</time></trkpt><trkpt lat="44.135662" lon="10.9895661"><ele>390.0</ele><time>2026-05-02T17:30:01.711Z</time></trkpt><trkpt lat="44.1357617" lon="10.9895997"><ele>390.0</ele><time>2026-05-02T17:30:02.708Z</time></trkpt><trkpt lat="44.1358585" lon="10.9896468"><ele>390.0</ele><time>2026-05-02T17:30:03.705Z</time></trkpt><trkpt lat="44.1359619" lon="10.9897019"><ele>390.4</ele><time>2026-05-02T17:30:04.709Z</time></trkpt><trkpt lat="44.1360566" lon="10.9897533"><ele>390.8</ele><time>2026-05-02T17:30:05.707Z</time></trkpt><trkpt lat="44.1361513" lon="10.9898059"><ele>391.20000000000005</ele><time>2026-05-02T17:30:06.708Z</time></trkpt><trkpt lat="44.1362391" lon="10.9898574"><ele>391.6</ele><time>2026-05-02T17:30:07.706Z</time></trkpt><trkpt lat="44.1363442" lon="10.9899188"><ele>392.0</ele><time>2026-05-02T17:30:08.708Z</time></trkpt><trkpt lat="44.136452" lon="10.9899827"><ele>389.5</ele><time>2026-05-02T17:30:09.709Z</time></trkpt><trkpt lat="44.1365695" lon="10.99006"><ele>387.0</ele><time>2026-05-02T17:30:10.728Z</time></trkpt><trkpt lat="44.1367002" lon="10.9901433"><ele>384.5</ele><time>2026-05-02T17:30:11.712Z</time></trkpt><trkpt lat="44.1368286" lon="10.9902592"><ele>382.0</ele><time>2026-05-02T17:30:12.716Z</time></trkpt><trkpt lat="44.1369699" lon="10.9903641"><ele>382.0</ele><time>2026-05-02T17:30:13.71Z</time></trkpt><trkpt lat="44.1371123" lon="10.990467"><ele>382.0</ele><time>2026-05-02T17:30:14.709Z</time></trkpt><trkpt lat="44.1372318" lon="10.9905293"><ele>382.0</ele><time>2026-05-02T17:30:15.71Z</time></trkpt><trkpt lat="44.1373883" lon="10.990592"><ele>385.66666666666663</ele><time>2026-05-02T17:30:16.712Z</time></trkpt><trkpt lat="44.1375495" lon="10.990643"><ele>389.3333333333333</ele><time>2026-05-02T17:30:17.718Z</time></trkpt><trkpt lat="44.1376925" lon="10.9906977"><ele>393.0</ele><time>2026-05-02T17:30:18.708Z</time></trkpt><trkpt lat="44.1378348" lon="10.9907584"><ele>393.0</ele><time>2026-05-02T17:30:19.71Z</time></trkpt><trkpt lat="44.1379846" lon="10.9908252"><ele>393.0</ele><time>2026-05-02T17:30:20.711Z</time></trkpt><trkpt lat="44.1381084" lon="10.9908933"><ele>393.0</ele><time>2026-05-02T17:30:21.712Z</time></trkpt><trkpt lat="44.13822" lon="10.9909839"><ele>393.0</ele><time>2026-05-02T17:30:22.719Z</time></trkpt><trkpt lat="44.1383447" lon="10.9910415"><ele>388.75</ele><time>2026-05-02T17:30:23.711Z</time></trkpt><trkpt lat="44.1384568" lon="10.9910957"><ele>384.5</ele><time>2026-05-02T17:30:24.715Z</time></trkpt><trkpt lat="44.1385914" lon="10.9910236"><ele>380.25</ele><time>2026-05-02T17:30:25.706Z</time></trkpt><trkpt lat="44.1387213" lon="10.9909458"><ele>376.0</ele><time>2026-05-02T17:30:26.722Z</time></trkpt><trkpt lat="44.1388555" lon="10.9908652"><ele>381.66666666666663</ele><time>2026-05-02T17:30:27.707Z</time></trkpt><trkpt lat="44.1389945" lon="10.9907742"><ele>387.3333333333333</ele><time>2026-05-02T17:30:28.713Z</time></trkpt><trkpt lat="44.1391464" lon="10.9906883"><ele>393.0</ele><time>2026-05-02T17:30:29.709Z</time></trkpt><trkpt lat="44.1392965" lon="10.9906154"><ele>393.0</ele><time>2026-05-02T17:30:30.721Z</time></trkpt><trkpt lat="44.1394578" lon="10.9905582"><ele>393.0</ele><time>2026-05-02T17:30:31.713Z</time></trkpt><trkpt lat="44.1396226" lon="10.9905105"><ele>393.0</ele><time>2026-05-02T17:30:32.712Z</time></trkpt><trkpt lat="44.1397794" lon="10.9904435"><ele>390.0</ele><time>2026-05-02T17:30:33.71Z</time></trkpt><trkpt lat="44.1399219" lon="10.9903286"><ele>387.0</ele><time>2026-05-02T17:30:34.719Z</time></trkpt><trkpt lat="44.1400692" lon="10.9902055"><ele>384.0</ele><time>2026-05-02T17:30:35.71Z</time></trkpt><trkpt lat="44.1402085" lon="10.990084"><ele>389.66666666666663</ele><time>2026-05-02T17:30:36.711Z</time></trkpt><trkpt lat="44.1403398" lon="10.9899629"><ele>395.3333333333333</ele><time>2026-05-02T17:30:37.719Z</time></trkpt><trkpt lat="44.14047" lon="10.9898669"><ele>401.0</ele><time>2026-05-02T17:30:38.727Z</time></trkpt><trkpt lat="44.1406004" lon="10.9897742"><ele>397.75</ele><time>2026-05-02T17:30:39.712Z</time></trkpt><trkpt lat="44.1407373" lon="10.9897052"><ele>394.5</ele><time>2026-05-02T17:30:40.728Z</time></trkpt><trkpt lat="44.1408728" lon="10.9896388"><ele>391.25</ele><time>2026-05-02T17:30:41.71Z</time></trkpt><trkpt lat="44.1410084" lon="10.9895519"><ele>388.0</ele><time>2026-05-02T17:30:42.71Z</time></trkpt><trkpt lat="44.1411517" lon="10.9894639"><ele>388.0</ele><time>2026-05-02T17:30:43.712Z</time></trkpt><trkpt lat="44.141278" lon="10.9893779"><ele>388.0</ele><time>2026-05-02T17:30:44.712Z</time></trkpt><trkpt lat="44.1414077" lon="10.9892793"><ele>388.0</ele><time>2026-05-02T17:30:45.711Z</time></trkpt><trkpt lat="44.1415354" lon="10.989186"><ele>388.0</ele><time>2026-05-02T17:30:46.705Z</time></trkpt><trkpt lat="44.1416624" lon="10.9890989"><ele>388.5</ele><time>2026-05-02T17:30:47.706Z</time></trkpt><trkpt lat="44.14178" lon="10.9890091"><ele>389.0</ele><time>2026-05-02T17:30:48.707Z</time></trkpt><trkpt lat="44.14188" lon="10.9889279"><ele>389.5</ele><time>2026-05-02T17:30:49.711Z</time></trkpt><trkpt lat="44.1419831" lon="10.9888145"><ele>390.0</ele><time>2026-05-02T17:30:50.709Z</time></trkpt><trkpt lat="44.1420763" lon="10.98868"><ele>390.0</ele><time>2026-05-02T17:30:51.712Z</time></trkpt><trkpt lat="44.142164" lon="10.9885439"><ele>390.0</ele><time>2026-05-02T17:30:52.714Z</time></trkpt><trkpt lat="44.1422644" lon="10.9884118"><ele>390.0</ele><time>2026-05-02T17:30:53.713Z</time></trkpt><trkpt lat="44.1423394" lon="10.9882433"><ele>390.0</ele><time>2026-05-02T17:30:54.713Z</time></trkpt><trkpt lat="44.1424247" lon="10.988094"><ele>389.0</ele><time>2026-05-02T17:30:55.708Z</time></trkpt><trkpt lat="44.1425153" lon="10.9879433"><ele>388.0</ele><time>2026-05-02T17:30:56.719Z</time></trkpt><trkpt lat="44.1426088" lon="10.9878043"><ele>387.0</ele><time>2026-05-02T17:30:57.705Z</time></trkpt><trkpt lat="44.1426962" lon="10.9876647"><ele>386.0</ele><time>2026-05-02T17:30:58.72Z</time></trkpt><trkpt lat="44.1428086" lon="10.9875393"><ele>383.75</ele><time>2026-05-02T17:30:59.707Z</time></trkpt><trkpt lat="44.1429161" lon="10.987415"><ele>381.5</ele><time>2026-05-02T17:31:00.713Z</time></trkpt><trkpt lat="44.1430384" lon="10.9873078"><ele>379.25</ele><time>2026-05-02T17:31:01.723Z</time></trkpt><trkpt lat="44.143172" lon="10.9872411"><ele>377.0</ele><time>2026-05-02T17:31:02.714Z</time></trkpt><trkpt lat="44.1432882" lon="10.9871536"><ele>377.0</ele><time>2026-05-02T17:31:03.711Z</time></trkpt><trkpt lat="44.1434031" lon="10.987072"><ele>377.0</ele><time>2026-05-02T17:31:04.713Z</time></trkpt><trkpt lat="44.1435102" lon="10.9869835"><ele>377.0</ele><time>2026-05-02T17:31:05.715Z</time></trkpt><trkpt lat="44.1436103" lon="10.9868825"><ele>377.0</ele><time>2026-05-02T17:31:06.713Z</time></trkpt><trkpt lat="44.1437128" lon="10.9867749"><ele>377.0</ele><time>2026-05-02T17:31:07.719Z</time></trkpt><trkpt lat="44.1438183" lon="10.9866524"><ele>377.0</ele><time>2026-05-02T17:31:08.71Z</time></trkpt><trkpt lat="44.1439383" lon="10.9865459"><ele>377.0</ele><time>2026-05-02T17:31:09.709Z</time></trkpt><trkpt lat="44.1440653" lon="10.98644"><ele>377.0</ele><time>2026-05-02T17:31:10.711Z</time></trkpt><trkpt lat="44.1441892" lon="10.9863495"><ele>377.0</ele><time>2026-05-02T17:31:11.708Z</time></trkpt><trkpt lat="44.1443139" lon="10.9862588"><ele>377.0</ele><time>2026-05-02T17:31:12.705Z</time></trkpt><trkpt lat="44.1444412" lon="10.9861834"><ele>377.0</ele><time>2026-05-02T17:31:13.71Z</time></trkpt><trkpt lat="44.1445668" lon="10.9861179"><ele>377.0</ele><time>2026-05-02T17:31:14.711Z</time></trkpt><trkpt lat="44.1446856" lon="10.9860542"><ele>377.0</ele><time>2026-05-02T17:31:15.71Z</time></trkpt><trkpt lat="44.1448282" lon="10.9860157"><ele>377.0</ele><time>2026-05-02T17:31:16.721Z</time></trkpt><trkpt lat="44.1449722" lon="10.9859626"><ele>377.0</ele><time>2026-05-02T17:31:17.708Z</time></trkpt><trkpt lat="44.1451185" lon="10.9859062"><ele>377.0</ele><time>2026-05-02T17:31:18.714Z</time></trkpt><trkpt lat="44.1452643" lon="10.9858629"><ele>380.0</ele><time>2026-05-02T17:31:19.709Z</time></trkpt><trkpt lat="44.1454135" lon="10.9858212"><ele>383.0</ele><time>2026-05-02T17:31:20.71Z</time></trkpt><trkpt lat="44.1455807" lon="10.9857877"><ele>386.0</ele><time>2026-05-02T17:31:21.714Z</time></trkpt><trkpt lat="44.1457486" lon="10.9857712"><ele>380.0</ele><time>2026-05-02T17:31:22.715Z</time></trkpt><trkpt lat="44.1459369" lon="10.985784"><ele>374.0</ele><time>2026-05-02T17:31:23.714Z</time></trkpt><trkpt lat="44.1461407" lon="10.9858125"><ele>368.0</ele><time>2026-05-02T17:31:24.709Z</time></trkpt><trkpt lat="44.1463475" lon="10.9858379"><ele>367.0</ele><time>2026-05-02T17:31:25.708Z</time></trkpt><trkpt lat="44.1465536" lon="10.9858589"><ele>366.0</ele><time>2026-05-02T17:31:26.711Z</time></trkpt><trkpt lat="44.1467691" lon="10.9858802"><ele>365.0</ele><time>2026-05-02T17:31:27.709Z</time></trkpt><trkpt lat="44.1469887" lon="10.9859023"><ele>365.0</ele><time>2026-05-02T17:31:28.712Z</time></trkpt><trkpt lat="44.1472103" lon="10.9859234"><ele>365.0</ele><time>2026-05-02T17:31:29.714Z</time></trkpt><trkpt lat="44.1474317" lon="10.9859357"><ele>365.0</ele><time>2026-05-02T17:31:30.715Z</time></trkpt><trkpt lat="44.1476567" lon="10.9859411"><ele>383.0</ele><time>2026-05-02T17:31:31.712Z</time></trkpt><trkpt lat="44.147887" lon="10.9859469"><ele>401.0</ele><time>2026-05-02T17:31:32.72Z</time></trkpt><trkpt lat="44.148111" lon="10.9859585"><ele>379.0</ele><time>2026-05-02T17:31:33.716Z</time></trkpt><trkpt lat="44.1508077" lon="10.9855926"><ele>379.0</ele><time>2026-05-02T17:31:45.719Z</time></trkpt><trkpt lat="44.1509878" lon="10.9855549"><ele>379.0</ele><time>2026-05-02T17:31:46.717Z</time></trkpt><trkpt lat="44.1511606" lon="10.9855175"><ele>379.0</ele><time>2026-05-02T17:31:47.708Z</time></trkpt><trkpt lat="44.151324" lon="10.9854784"><ele>379.0</ele><time>2026-05-02T17:31:48.712Z</time></trkpt><trkpt lat="44.151484" lon="10.9854562"><ele>379.0</ele><time>2026-05-02T17:31:49.71Z</time></trkpt><trkpt lat="44.1516596" lon="10.9854188"><ele>379.0</ele><time>2026-05-02T17:31:50.717Z</time></trkpt><trkpt lat="44.1518357" lon="10.9853756"><ele>382.0</ele><time>2026-05-02T17:31:51.721Z</time></trkpt><trkpt lat="44.1520166" lon="10.9853421"><ele>385.0</ele><time>2026-05-02T17:31:52.706Z</time></trkpt><trkpt lat="44.1521993" lon="10.985317"><ele>388.0</ele><time>2026-05-02T17:31:53.71Z</time></trkpt><trkpt lat="44.1523816" lon="10.9852987"><ele>377.0</ele><time>2026-05-02T17:31:54.716Z</time></trkpt><trkpt lat="44.1591809" lon="10.9798805"><ele>377.0</ele><time>2026-05-02T17:32:27.709Z</time></trkpt><trkpt lat="44.1592802" lon="10.9796939"><ele>377.0</ele><time>2026-05-02T17:32:28.712Z</time></trkpt><trkpt lat="44.1594034" lon="10.9794084"><ele>377.0</ele><time>2026-05-02T17:32:29.713Z</time></trkpt><trkpt lat="44.1595903" lon="10.9791919"><ele>379.0</ele><time>2026-05-02T17:32:30.708Z</time></trkpt><trkpt lat="44.1597824" lon="10.979005"><ele>381.0</ele><time>2026-05-02T17:32:31.71Z</time></trkpt><trkpt lat="44.1599741" lon="10.9788036"><ele>381.0</ele><time>2026-05-02T17:32:32.707Z</time></trkpt><trkpt lat="44.1601722" lon="10.9786216"><ele>381.0</ele><time>2026-05-02T17:32:33.713Z</time></trkpt><trkpt lat="44.1603625" lon="10.9784225"><ele>376.0</ele><time>2026-05-02T17:32:34.711Z</time></trkpt><trkpt lat="44.1605392" lon="10.9782018"><ele>371.0</ele><time>2026-05-02T17:32:35.713Z</time></trkpt><trkpt lat="44.1607311" lon="10.9780087"><ele>371.0</ele><time>2026-05-02T17:32:36.712Z</time></trkpt><trkpt lat="44.1609197" lon="10.9778076"><ele>371.0</ele><time>2026-05-02T17:32:37.712Z</time></trkpt><trkpt lat="44.1610758" lon="10.9775624"><ele>364.5</ele><time>2026-05-02T17:32:38.71Z</time></trkpt><trkpt lat="44.1612499" lon="10.9773313"><ele>358.0</ele><time>2026-05-02T17:32:39.713Z</time></trkpt><trkpt lat="44.1614248" lon="10.9771069"><ele>355.5</ele><time>2026-05-02T17:32:40.711Z</time></trkpt><trkpt lat="44.1615875" lon="10.9768738"><ele>353.0</ele><time>2026-05-02T17:32:41.708Z</time></trkpt><trkpt lat="44.1617535" lon="10.9766677"><ele>351.6666666666667</ele><time>2026-05-02T17:32:42.71Z</time></trkpt><trkpt lat="44.1619098" lon="10.9764592"><ele>350.3333333333333</ele><time>2026-05-02T17:32:43.711Z</time></trkpt><trkpt lat="44.1620603" lon="10.9762552"><ele>349.0</ele><time>2026-05-02T17:32:44.711Z</time></trkpt><trkpt lat="44.1622226" lon="10.976082"><ele>346.3333333333333</ele><time>2026-05-02T17:32:45.716Z</time></trkpt><trkpt lat="44.1623934" lon="10.9759082"><ele>343.6666666666667</ele><time>2026-05-02T17:32:46.713Z</time></trkpt><trkpt lat="44.1625732" lon="10.9757509"><ele>341.0</ele><time>2026-05-02T17:32:47.713Z</time></trkpt><trkpt lat="44.162762" lon="10.9756199"><ele>340.6666666666667</ele><time>2026-05-02T17:32:48.718Z</time></trkpt><trkpt lat="44.1629604" lon="10.9754921"><ele>340.3333333333333</ele><time>2026-05-02T17:32:49.708Z</time></trkpt><trkpt lat="44.1631654" lon="10.9753955"><ele>340.0</ele><time>2026-05-02T17:32:50.708Z</time></trkpt><trkpt lat="44.1633841" lon="10.9753231"><ele>339.5</ele><time>2026-05-02T17:32:51.712Z</time></trkpt><trkpt lat="44.163605" lon="10.9752733"><ele>339.0</ele><time>2026-05-02T17:32:52.708Z</time></trkpt><trkpt lat="44.1638378" lon="10.9752528"><ele>338.0</ele><time>2026-05-02T17:32:53.712Z</time></trkpt><trkpt lat="44.1640717" lon="10.9752589"><ele>337.0</ele><time>2026-05-02T17:32:54.716Z</time></trkpt><trkpt lat="44.1643062" lon="10.9752945"><ele>337.0</ele><time>2026-05-02T17:32:55.712Z</time></trkpt><trkpt lat="44.1645431" lon="10.9753552"><ele>337.0</ele><time>2026-05-02T17:32:56.707Z</time></trkpt><trkpt lat="44.1647768" lon="10.9754421"><ele>337.0</ele><time>2026-05-02T17:32:57.708Z</time></trkpt><trkpt lat="44.1650056" lon="10.9755493"><ele>337.0</ele><time>2026-05-02T17:32:58.708Z</time></trkpt><trkpt lat="44.1652393" lon="10.9756784"><ele>337.0</ele><time>2026-05-02T17:32:59.712Z</time></trkpt><trkpt lat="44.1654867" lon="10.9757946"><ele>337.0</ele><time>2026-05-02T17:33:00.716Z</time></trkpt><trkpt lat="44.1657325" lon="10.9759124"><ele>337.0</ele><time>2026-05-02T17:33:01.709Z</time></trkpt><trkpt lat="44.1659773" lon="10.9760321"><ele>337.0</ele><time>2026-05-02T17:33:02.715Z</time></trkpt><trkpt lat="44.1662296" lon="10.9761555"><ele>337.0</ele><time>2026-05-02T17:33:03.712Z</time></trkpt><trkpt lat="44.1664795" lon="10.9762847"><ele>337.0</ele><time>2026-05-02T17:33:04.708Z</time></trkpt><trkpt lat="44.1667375" lon="10.976411"><ele>336.5</ele><time>2026-05-02T17:33:05.714Z</time></trkpt><trkpt lat="44.1669897" lon="10.9765302"><ele>336.0</ele><time>2026-05-02T17:33:06.712Z</time></trkpt><trkpt lat="44.167247" lon="10.9766571"><ele>335.0</ele><time>2026-05-02T17:33:07.71Z</time></trkpt><trkpt lat="44.1675035" lon="10.9767916"><ele>334.0</ele><time>2026-05-02T17:33:08.708Z</time></trkpt><trkpt lat="44.1677641" lon="10.9769208"><ele>334.0</ele><time>2026-05-02T17:33:09.713Z</time></trkpt><trkpt lat="44.1680211" lon="10.9770497"><ele>334.0</ele><time>2026-05-02T17:33:10.712Z</time></trkpt><trkpt lat="44.1682778" lon="10.9771734"><ele>333.0</ele><time>2026-05-02T17:33:11.707Z</time></trkpt><trkpt lat="44.1685313" lon="10.9773052"><ele>332.0</ele><time>2026-05-02T17:33:12.708Z</time></trkpt><trkpt lat="44.1687885" lon="10.9774359"><ele>331.0</ele><time>2026-05-02T17:33:13.715Z</time></trkpt><trkpt lat="44.1690504" lon="10.977567"><ele>330.0</ele><time>2026-05-02T17:33:14.71Z</time></trkpt><trkpt lat="44.1693132" lon="10.9776983"><ele>330.0</ele><time>2026-05-02T17:33:15.71Z</time></trkpt><trkpt lat="44.1695683" lon="10.977829"><ele>330.0</ele><time>2026-05-02T17:33:16.711Z</time></trkpt><trkpt lat="44.1698314" lon="10.977952"><ele>330.5</ele><time>2026-05-02T17:33:17.705Z</time></trkpt><trkpt lat="44.1700882" lon="10.978087"><ele>331.0</ele><time>2026-05-02T17:33:18.707Z</time></trkpt><trkpt lat="44.1703563" lon="10.9782199"><ele>331.5</ele><time>2026-05-02T17:33:19.717Z</time></trkpt><trkpt lat="44.1706219" lon="10.9783562"><ele>332.0</ele><time>2026-05-02T17:33:20.712Z</time></trkpt><trkpt lat="44.1708896" lon="10.9784944"><ele>331.0</ele><time>2026-05-02T17:33:21.705Z</time></trkpt><trkpt lat="44.1711539" lon="10.978621"><ele>330.0</ele><time>2026-05-02T17:33:22.713Z</time></trkpt><trkpt lat="44.17142" lon="10.9787576"><ele>329.0</ele><time>2026-05-02T17:33:23.709Z</time></trkpt><trkpt lat="44.1716831" lon="10.9788949"><ele>328.0</ele><time>2026-05-02T17:33:24.717Z</time></trkpt><trkpt lat="44.1719438" lon="10.979031"><ele>328.0</ele><time>2026-05-02T17:33:25.709Z</time></trkpt><trkpt lat="44.1722114" lon="10.9791629"><ele>328.0</ele><time>2026-05-02T17:33:26.706Z</time></trkpt><trkpt lat="44.1724725" lon="10.9792936"><ele>328.5</ele><time>2026-05-02T17:33:27.708Z</time></trkpt><trkpt lat="44.1727369" lon="10.9794048"><ele>329.0</ele><time>2026-05-02T17:33:28.713Z</time></trkpt><trkpt lat="44.1730026" lon="10.9794983"><ele>328.0</ele><time>2026-05-02T17:33:29.708Z</time></trkpt><trkpt lat="44.1732644" lon="10.9795711"><ele>327.0</ele><time>2026-05-02T17:33:30.716Z</time></trkpt><trkpt lat="44.1735388" lon="10.9796097"><ele>327.0</ele><time>2026-05-02T17:33:31.713Z</time></trkpt><trkpt lat="44.173815" lon="10.9796439"><ele>327.0</ele><time>2026-05-02T17:33:32.712Z</time></trkpt><trkpt lat="44.1741019" lon="10.9796484"><ele>326.0</ele><time>2026-05-02T17:33:33.715Z</time></trkpt><trkpt lat="44.1743739" lon="10.979664"><ele>325.0</ele><time>2026-05-02T17:33:34.721Z</time></trkpt><trkpt lat="44.174647" lon="10.9796753"><ele>325.0</ele><time>2026-05-02T17:33:35.71Z</time></trkpt><trkpt lat="44.1749242" lon="10.9796934"><ele>325.0</ele><time>2026-05-02T17:33:36.714Z</time></trkpt><trkpt lat="44.1751999" lon="10.9797098"><ele>325.0</ele><time>2026-05-02T17:33:37.71Z</time></trkpt><trkpt lat="44.1754742" lon="10.9797241"><ele>325.0</ele><time>2026-05-02T17:33:38.707Z</time></trkpt><trkpt lat="44.1757443" lon="10.9797376"><ele>324.5</ele><time>2026-05-02T17:33:39.716Z</time></trkpt><trkpt lat="44.1760086" lon="10.97976"><ele>324.0</ele><time>2026-05-02T17:33:40.71Z</time></trkpt><trkpt lat="44.1762712" lon="10.9797762"><ele>324.5</ele><time>2026-05-02T17:33:41.721Z</time></trkpt><trkpt lat="44.1765298" lon="10.9797951"><ele>325.0</ele><time>2026-05-02T17:33:42.71Z</time></trkpt><trkpt lat="44.1767825" lon="10.9798307"><ele>325.0</ele><time>2026-05-02T17:33:43.716Z</time></trkpt><trkpt lat="44.1770287" lon="10.9798896"><ele>325.0</ele><time>2026-05-02T17:33:44.716Z</time></trkpt><trkpt lat="44.1772633" lon="10.9799591"><ele>326.5</ele><time>2026-05-02T17:33:45.709Z</time></trkpt><trkpt lat="44.1774893" lon="10.9800477"><ele>328.0</ele><time>2026-05-02T17:33:46.712Z</time></trkpt><trkpt lat="44.1777023" lon="10.9801637"><ele>328.0</ele><time>2026-05-02T17:33:47.717Z</time></trkpt><trkpt lat="44.1779112" lon="10.980285"><ele>328.0</ele><time>2026-05-02T17:33:48.714Z</time></trkpt><trkpt lat="44.1781094" lon="10.9804253"><ele>328.0</ele><time>2026-05-02T17:33:49.711Z</time></trkpt><trkpt lat="44.1783004" lon="10.9805707"><ele>328.3333333333333</ele><time>2026-05-02T17:33:50.718Z</time></trkpt><trkpt lat="44.1784779" lon="10.9807412"><ele>328.6666666666667</ele><time>2026-05-02T17:33:51.708Z</time></trkpt><trkpt lat="44.1786538" lon="10.9809227"><ele>329.0</ele><time>2026-05-02T17:33:52.705Z</time></trkpt><trkpt lat="44.1788132" lon="10.9811084"><ele>329.0</ele><time>2026-05-02T17:33:53.714Z</time></trkpt><trkpt lat="44.178964" lon="10.9813003"><ele>329.0</ele><time>2026-05-02T17:33:54.709Z</time></trkpt><trkpt lat="44.1791198" lon="10.981502"><ele>329.0</ele><time>2026-05-02T17:33:55.711Z</time></trkpt><trkpt lat="44.1792563" lon="10.9817177"><ele>327.6666666666667</ele><time>2026-05-02T17:33:56.708Z</time></trkpt><trkpt lat="44.1793773" lon="10.981938"><ele>326.3333333333333</ele><time>2026-05-02T17:33:57.715Z</time></trkpt><trkpt lat="44.1794892" lon="10.9821506"><ele>325.0</ele><time>2026-05-02T17:33:58.708Z</time></trkpt><trkpt lat="44.1795882" lon="10.9823579"><ele>326.3333333333333</ele><time>2026-05-02T17:33:59.712Z</time></trkpt><trkpt lat="44.179681" lon="10.9825698"><ele>327.6666666666667</ele><time>2026-05-02T17:34:00.715Z</time></trkpt><trkpt lat="44.1797745" lon="10.9827939"><ele>329.0</ele><time>2026-05-02T17:34:01.708Z</time></trkpt><trkpt lat="44.1798699" lon="10.9830301"><ele>327.0</ele><time>2026-05-02T17:34:02.721Z</time></trkpt><trkpt lat="44.1799645" lon="10.9832606"><ele>325.0</ele><time>2026-05-02T17:34:03.71Z</time></trkpt><trkpt lat="44.1800625" lon="10.9834954"><ele>323.0</ele><time>2026-05-02T17:34:04.704Z</time></trkpt><trkpt lat="44.1801673" lon="10.9837242"><ele>323.0</ele><time>2026-05-02T17:34:05.711Z</time></trkpt><trkpt lat="44.1802723" lon="10.9839479"><ele>323.0</ele><time>2026-05-02T17:34:06.716Z</time></trkpt><trkpt lat="44.1803801" lon="10.9841694"><ele>323.0</ele><time>2026-05-02T17:34:07.727Z</time></trkpt><trkpt lat="44.1804951" lon="10.9843808"><ele>324.0</ele><time>2026-05-02T17:34:08.706Z</time></trkpt><trkpt lat="44.1806164" lon="10.9845853"><ele>325.0</ele><time>2026-05-02T17:34:09.714Z</time></trkpt><trkpt lat="44.1807423" lon="10.9847706"><ele>326.0</ele><time>2026-05-02T17:34:10.71Z</time></trkpt><trkpt lat="44.180864" lon="10.9849533"><ele>325.0</ele><time>2026-05-02T17:34:11.708Z</time></trkpt><trkpt lat="44.1809686" lon="10.9851261"><ele>324.0</ele><time>2026-05-02T17:34:12.73Z</time></trkpt><trkpt lat="44.1810742" lon="10.985281"><ele>323.0</ele><time>2026-05-02T17:34:13.709Z</time></trkpt><trkpt lat="44.1811728" lon="10.9854258"><ele>323.0</ele><time>2026-05-02T17:34:14.715Z</time></trkpt><trkpt lat="44.1812663" lon="10.9855558"><ele>323.0</ele><time>2026-05-02T17:34:15.711Z</time></trkpt><trkpt lat="44.1813545" lon="10.9856863"><ele>323.0</ele><time>2026-05-02T17:34:16.713Z</time></trkpt><trkpt lat="44.1814412" lon="10.9858159"><ele>323.0</ele><time>2026-05-02T17:34:17.72Z</time></trkpt><trkpt lat="44.1815327" lon="10.9859379"><ele>323.0</ele><time>2026-05-02T17:34:18.711Z</time></trkpt><trkpt lat="44.1816145" lon="10.9860473"><ele>323.0</ele><time>2026-05-02T17:34:19.721Z</time></trkpt><trkpt lat="44.181697" lon="10.9861469"><ele>323.0</ele><time>2026-05-02T17:34:20.712Z</time></trkpt><trkpt lat="44.1817672" lon="10.9862292"><ele>323.0</ele><time>2026-05-02T17:34:21.71Z</time></trkpt><trkpt lat="44.1818299" lon="10.9863088"><ele>323.0</ele><time>2026-05-02T17:34:22.724Z</time></trkpt><trkpt lat="44.1818835" lon="10.9863949"><ele>323.0</ele><time>2026-05-02T17:34:23.712Z</time></trkpt><trkpt lat="44.1819453" lon="10.9864673"><ele>323.0</ele><time>2026-05-02T17:34:24.711Z</time></trkpt><trkpt lat="44.1820155" lon="10.98655"><ele>323.0</ele><time>2026-05-02T17:34:25.731Z</time></trkpt><trkpt lat="44.1820975" lon="10.9866496"><ele>323.0</ele><time>2026-05-02T17:34:26.713Z</time></trkpt><trkpt lat="44.1821921" lon="10.986752"><ele>323.0</ele><time>2026-05-02T17:34:27.708Z</time></trkpt><trkpt lat="44.1822861" lon="10.9868698"><ele>323.5</ele><time>2026-05-02T17:34:28.709Z</time></trkpt><trkpt lat="44.1823845" lon="10.9869995"><ele>324.0</ele><time>2026-05-02T17:34:29.709Z</time></trkpt><trkpt lat="44.1824866" lon="10.9871302"><ele>324.5</ele><time>2026-05-02T17:34:30.717Z</time></trkpt><trkpt lat="44.1825975" lon="10.987284"><ele>325.0</ele><time>2026-05-02T17:34:31.723Z</time></trkpt><trkpt lat="44.182697" lon="10.9874656"><ele>323.66666666666663</ele><time>2026-05-02T17:34:32.723Z</time></trkpt><trkpt lat="44.182788" lon="10.9876652"><ele>322.3333333333333</ele><time>2026-05-02T17:34:33.722Z</time></trkpt><trkpt lat="44.182884" lon="10.987882"><ele>321.0</ele><time>2026-05-02T17:34:34.711Z</time></trkpt><trkpt lat="44.1829821" lon="10.9881093"><ele>320.3333333333333</ele><time>2026-05-02T17:34:35.709Z</time></trkpt><trkpt lat="44.1830683" lon="10.9883487"><ele>319.66666666666663</ele><time>2026-05-02T17:34:36.714Z</time></trkpt><trkpt lat="44.1831623" lon="10.9885928"><ele>319.0</ele><time>2026-05-02T17:34:37.716Z</time></trkpt><trkpt lat="44.1832699" lon="10.9888264"><ele>320.0</ele><time>2026-05-02T17:34:38.714Z</time></trkpt><trkpt lat="44.1833513" lon="10.9890847"><ele>321.0</ele><time>2026-05-02T17:34:39.727Z</time></trkpt><trkpt lat="44.183447" lon="10.9893334"><ele>322.0</ele><time>2026-05-02T17:34:40.709Z</time></trkpt><trkpt lat="44.1835553" lon="10.9895552"><ele>322.0</ele><time>2026-05-02T17:34:41.71Z</time></trkpt><trkpt lat="44.183674" lon="10.9897697"><ele>322.0</ele><time>2026-05-02T17:34:42.712Z</time></trkpt><trkpt lat="44.1837988" lon="10.9899751"><ele>322.0</ele><time>2026-05-02T17:34:43.713Z</time></trkpt><trkpt lat="44.1839281" lon="10.9901682"><ele>323.3333333333333</ele><time>2026-05-02T17:34:44.713Z</time></trkpt><trkpt lat="44.1840542" lon="10.9903601"><ele>324.6666666666667</ele><time>2026-05-02T17:34:45.711Z</time></trkpt><trkpt lat="44.1841832" lon="10.9905478"><ele>326.0</ele><time>2026-05-02T17:34:46.713Z</time></trkpt><trkpt lat="44.1843115" lon="10.9907325"><ele>324.0</ele><time>2026-05-02T17:34:47.713Z</time></trkpt><trkpt lat="44.1844461" lon="10.9909153"><ele>322.0</ele><time>2026-05-02T17:34:48.71Z</time></trkpt><trkpt lat="44.1845721" lon="10.9910966"><ele>320.0</ele><time>2026-05-02T17:34:49.709Z</time></trkpt><trkpt lat="44.1846858" lon="10.991276"><ele>320.0</ele><time>2026-05-02T17:34:50.717Z</time></trkpt><trkpt lat="44.1847987" lon="10.9914439"><ele>320.0</ele><time>2026-05-02T17:34:51.709Z</time></trkpt><trkpt lat="44.1849029" lon="10.9915843"><ele>320.0</ele><time>2026-05-02T17:34:52.725Z</time></trkpt><trkpt lat="44.1849996" lon="10.9917139"><ele>320.0</ele><time>2026-05-02T17:34:53.707Z</time></trkpt><trkpt lat="44.1850802" lon="10.9918268"><ele>320.5</ele><time>2026-05-02T17:34:54.709Z</time></trkpt><trkpt lat="44.1851416" lon="10.9919229"><ele>321.0</ele><time>2026-05-02T17:34:55.712Z</time></trkpt><trkpt lat="44.1851899" lon="10.9919986"><ele>321.5</ele><time>2026-05-02T17:34:56.714Z</time></trkpt><trkpt lat="44.1852568" lon="10.9921429"><ele>322.0</ele><time>2026-05-02T17:34:58.729Z</time></trkpt><trkpt lat="44.1852987" lon="10.9922171"><ele>322.5</ele><time>2026-05-02T17:34:59.715Z</time></trkpt><trkpt lat="44.1853492" lon="10.9923"><ele>323.0</ele><time>2026-05-02T17:35:00.715Z</time></trkpt><trkpt lat="44.1853912" lon="10.9924001"><ele>323.0</ele><time>2026-05-02T17:35:01.713Z</time></trkpt><trkpt lat="44.1854296" lon="10.9924919"><ele>323.0</ele><time>2026-05-02T17:35:02.715Z</time></trkpt><trkpt lat="44.1854658" lon="10.9926161"><ele>323.0</ele><time>2026-05-02T17:35:04.706Z</time></trkpt><trkpt lat="44.1855011" lon="10.9927415"><ele>323.0</ele><time>2026-05-02T17:35:06.716Z</time></trkpt><trkpt lat="44.1855255" lon="10.9928336"><ele>323.0</ele><time>2026-05-02T17:35:07.709Z</time></trkpt><trkpt lat="44.1855492" lon="10.9929365"><ele>323.0</ele><time>2026-05-02T17:35:08.713Z</time></trkpt><trkpt lat="44.1855746" lon="10.9930443"><ele>323.83333333333337</ele><time>2026-05-02T17:35:09.713Z</time></trkpt><trkpt lat="44.185603" lon="10.9931521"><ele>324.6666666666667</ele><time>2026-05-02T17:35:10.715Z</time></trkpt><trkpt lat="44.1856355" lon="10.9932627"><ele>325.5</ele><time>2026-05-02T17:35:11.724Z</time></trkpt><trkpt lat="44.1856602" lon="10.9933801"><ele>326.3333333333333</ele><time>2026-05-02T17:35:12.706Z</time></trkpt><trkpt lat="44.1856955" lon="10.9934933"><ele>327.16666666666663</ele><time>2026-05-02T17:35:13.714Z</time></trkpt><trkpt lat="44.1857288" lon="10.9936234"><ele>328.0</ele><time>2026-05-02T17:35:14.709Z</time></trkpt><trkpt lat="44.1857586" lon="10.9937537"><ele>328.0</ele><time>2026-05-02T17:35:15.713Z</time></trkpt><trkpt lat="44.1857908" lon="10.9938886"><ele>328.0</ele><time>2026-05-02T17:35:16.721Z</time></trkpt><trkpt lat="44.1858227" lon="10.9940179"><ele>328.0</ele><time>2026-05-02T17:35:17.713Z</time></trkpt><trkpt lat="44.1858527" lon="10.9941351"><ele>328.0</ele><time>2026-05-02T17:35:18.712Z</time></trkpt><trkpt lat="44.185883" lon="10.9942444"><ele>328.0</ele><time>2026-05-02T17:35:19.709Z</time></trkpt><trkpt lat="44.1859099" lon="10.9943606"><ele>327.8333333333333</ele><time>2026-05-02T17:35:20.709Z</time></trkpt><trkpt lat="44.1859419" lon="10.9944799"><ele>327.66666666666663</ele><time>2026-05-02T17:35:21.715Z</time></trkpt><trkpt lat="44.1859687" lon="10.9945862"><ele>327.5</ele><time>2026-05-02T17:35:22.708Z</time></trkpt><trkpt lat="44.1859969" lon="10.9946946"><ele>327.3333333333333</ele><time>2026-05-02T17:35:23.71Z</time></trkpt><trkpt lat="44.1860252" lon="10.9948213"><ele>327.1666666666667</ele><time>2026-05-02T17:35:24.712Z</time></trkpt><trkpt lat="44.1860523" lon="10.99495"><ele>327.0</ele><time>2026-05-02T17:35:25.709Z</time></trkpt><trkpt lat="44.1860818" lon="10.99507"><ele>326.7142857142857</ele><time>2026-05-02T17:35:26.71Z</time></trkpt><trkpt lat="44.1861045" lon="10.9951616"><ele>326.42857142857144</ele><time>2026-05-02T17:35:27.71Z</time></trkpt><trkpt lat="44.1861236" lon="10.9952616"><ele>326.1428571428571</ele><time>2026-05-02T17:35:28.712Z</time></trkpt><trkpt lat="44.1861435" lon="10.9953557"><ele>325.8571428571429</ele><time>2026-05-02T17:35:29.715Z</time></trkpt><trkpt lat="44.1861656" lon="10.9954585"><ele>325.5714285714286</ele><time>2026-05-02T17:35:30.719Z</time></trkpt><trkpt lat="44.1861865" lon="10.9955659"><ele>325.2857142857143</ele><time>2026-05-02T17:35:31.714Z</time></trkpt><trkpt lat="44.1862105" lon="10.9956617"><ele>325.0</ele><time>2026-05-02T17:35:32.714Z</time></trkpt><trkpt lat="44.1862357" lon="10.9957483"><ele>323.8</ele><time>2026-05-02T17:35:33.714Z</time></trkpt><trkpt lat="44.1862607" lon="10.9958505"><ele>322.6</ele><time>2026-05-02T17:35:34.723Z</time></trkpt><trkpt lat="44.1862938" lon="10.995964"><ele>321.4</ele><time>2026-05-02T17:35:35.707Z</time></trkpt><trkpt lat="44.1863214" lon="10.996082"><ele>320.2</ele><time>2026-05-02T17:35:36.71Z</time></trkpt><trkpt lat="44.1863555" lon="10.9962134"><ele>319.0</ele><time>2026-05-02T17:35:37.71Z</time></trkpt><trkpt lat="44.186389" lon="10.9963442"><ele>319.0</ele><time>2026-05-02T17:35:38.713Z</time></trkpt><trkpt lat="44.1864238" lon="10.9964798"><ele>319.0</ele><time>2026-05-02T17:35:39.71Z</time></trkpt><trkpt lat="44.1864595" lon="10.9966219"><ele>319.0</ele><time>2026-05-02T17:35:40.714Z</time></trkpt><trkpt lat="44.1865026" lon="10.9967653"><ele>319.0</ele><time>2026-05-02T17:35:41.725Z</time></trkpt><trkpt lat="44.1865422" lon="10.9969202"><ele>319.0</ele><time>2026-05-02T17:35:42.711Z</time></trkpt><trkpt lat="44.1866019" lon="10.9970619"><ele>319.0</ele><time>2026-05-02T17:35:43.716Z</time></trkpt><trkpt lat="44.1866699" lon="10.9972128"><ele>319.0</ele><time>2026-05-02T17:35:44.708Z</time></trkpt><trkpt lat="44.1867291" lon="10.9973709"><ele>319.0</ele><time>2026-05-02T17:35:45.711Z</time></trkpt><trkpt lat="44.1868021" lon="10.9975231"><ele>319.0</ele><time>2026-05-02T17:35:46.712Z</time></trkpt><trkpt lat="44.1868827" lon="10.9976803"><ele>319.0</ele><time>2026-05-02T17:35:47.713Z</time></trkpt><trkpt lat="44.1869743" lon="10.9978332"><ele>319.0</ele><time>2026-05-02T17:35:48.713Z</time></trkpt><trkpt lat="44.1870692" lon="10.997984"><ele>319.0</ele><time>2026-05-02T17:35:49.712Z</time></trkpt><trkpt lat="44.1871658" lon="10.9981309"><ele>319.0</ele><time>2026-05-02T17:35:50.713Z</time></trkpt><trkpt lat="44.1872583" lon="10.9982734"><ele>317.25</ele><time>2026-05-02T17:35:51.711Z</time></trkpt><trkpt lat="44.1873528" lon="10.9984125"><ele>315.5</ele><time>2026-05-02T17:35:52.716Z</time></trkpt><trkpt lat="44.1874498" lon="10.998555"><ele>313.75</ele><time>2026-05-02T17:35:53.707Z</time></trkpt><trkpt lat="44.1875577" lon="10.9987088"><ele>312.0</ele><time>2026-05-02T17:35:54.714Z</time></trkpt><trkpt lat="44.1876579" lon="10.9988603"><ele>312.0</ele><time>2026-05-02T17:35:55.711Z</time></trkpt><trkpt lat="44.1877566" lon="10.9990093"><ele>312.0</ele><time>2026-05-02T17:35:56.71Z</time></trkpt><trkpt lat="44.1878601" lon="10.9991583"><ele>312.0</ele><time>2026-05-02T17:35:57.713Z</time></trkpt><trkpt lat="44.1879609" lon="10.999312"><ele>312.0</ele><time>2026-05-02T17:35:58.713Z</time></trkpt><trkpt lat="44.1880685" lon="10.9994648"><ele>312.6666666666667</ele><time>2026-05-02T17:35:59.712Z</time></trkpt><trkpt lat="44.1881824" lon="10.9996173"><ele>313.33333333333337</ele><time>2026-05-02T17:36:00.71Z</time></trkpt><trkpt lat="44.1882969" lon="10.9997819"><ele>314.0</ele><time>2026-05-02T17:36:01.712Z</time></trkpt><trkpt lat="44.1884151" lon="10.9999391"><ele>314.0</ele><time>2026-05-02T17:36:02.711Z</time></trkpt><trkpt lat="44.1885356" lon="11.0001098"><ele>314.0</ele><time>2026-05-02T17:36:03.715Z</time></trkpt><trkpt lat="44.1886537" lon="11.0002792"><ele>314.0</ele><time>2026-05-02T17:36:04.715Z</time></trkpt><trkpt lat="44.1887756" lon="11.0004536"><ele>314.0</ele><time>2026-05-02T17:36:05.716Z</time></trkpt><trkpt lat="44.1889059" lon="11.0006369"><ele>314.0</ele><time>2026-05-02T17:36:06.708Z</time></trkpt><trkpt lat="44.1890477" lon="11.00084"><ele>314.0</ele><time>2026-05-02T17:36:07.714Z</time></trkpt><trkpt lat="44.1892035" lon="11.0010565"><ele>315.0</ele><time>2026-05-02T17:36:08.713Z</time></trkpt><trkpt lat="44.1893687" lon="11.0012803"><ele>316.0</ele><time>2026-05-02T17:36:09.716Z</time></trkpt><trkpt lat="44.1895373" lon="11.0015154"><ele>318.0</ele><time>2026-05-02T17:36:10.711Z</time></trkpt><trkpt lat="44.1897076" lon="11.001753"><ele>320.0</ele><time>2026-05-02T17:36:11.71Z</time></trkpt><trkpt lat="44.1898792" lon="11.0019968"><ele>320.0</ele><time>2026-05-02T17:36:12.722Z</time></trkpt><trkpt lat="44.1900512" lon="11.0022481"><ele>320.0</ele><time>2026-05-02T17:36:13.71Z</time></trkpt><trkpt lat="44.1902216" lon="11.002498"><ele>315.5</ele><time>2026-05-02T17:36:14.708Z</time></trkpt><trkpt lat="44.1903917" lon="11.0027486"><ele>311.0</ele><time>2026-05-02T17:36:15.722Z</time></trkpt><trkpt lat="44.1905596" lon="11.0029873"><ele>311.0</ele><time>2026-05-02T17:36:16.712Z</time></trkpt><trkpt lat="44.1907243" lon="11.0032253"><ele>311.0</ele><time>2026-05-02T17:36:17.709Z</time></trkpt><trkpt lat="44.1908826" lon="11.0034555"><ele>311.0</ele><time>2026-05-02T17:36:18.724Z</time></trkpt><trkpt lat="44.1910339" lon="11.0036766"><ele>311.0</ele><time>2026-05-02T17:36:19.709Z</time></trkpt><trkpt lat="44.1911883" lon="11.0039001"><ele>311.0</ele><time>2026-05-02T17:36:20.712Z</time></trkpt><trkpt lat="44.191341" lon="11.0041063"><ele>310.33333333333337</ele><time>2026-05-02T17:36:21.724Z</time></trkpt><trkpt lat="44.1915032" lon="11.0042947"><ele>309.6666666666667</ele><time>2026-05-02T17:36:22.713Z</time></trkpt><trkpt lat="44.1916771" lon="11.0044588"><ele>309.0</ele><time>2026-05-02T17:36:23.71Z</time></trkpt><trkpt lat="44.1918644" lon="11.0046062"><ele>309.0</ele><time>2026-05-02T17:36:24.709Z</time></trkpt><trkpt lat="44.1920593" lon="11.0047294"><ele>309.0</ele><time>2026-05-02T17:36:25.711Z</time></trkpt><trkpt lat="44.1922569" lon="11.0048355"><ele>309.0</ele><time>2026-05-02T17:36:26.709Z</time></trkpt><trkpt lat="44.1924631" lon="11.0049232"><ele>308.0</ele><time>2026-05-02T17:36:27.711Z</time></trkpt><trkpt lat="44.1926757" lon="11.004986"><ele>307.0</ele><time>2026-05-02T17:36:28.711Z</time></trkpt><trkpt lat="44.1928844" lon="11.0050292"><ele>306.0</ele><time>2026-05-02T17:36:29.712Z</time></trkpt><trkpt lat="44.1930885" lon="11.0050697"><ele>307.6666666666667</ele><time>2026-05-02T17:36:30.717Z</time></trkpt><trkpt lat="44.1932814" lon="11.0051088"><ele>309.33333333333337</ele><time>2026-05-02T17:36:31.725Z</time></trkpt><trkpt lat="44.1934672" lon="11.0051433"><ele>311.0</ele><time>2026-05-02T17:36:32.714Z</time></trkpt><trkpt lat="44.1936495" lon="11.0051808"><ele>311.0</ele><time>2026-05-02T17:36:33.723Z</time></trkpt><trkpt lat="44.1938299" lon="11.005219"><ele>311.0</ele><time>2026-05-02T17:36:34.712Z</time></trkpt><trkpt lat="44.1940107" lon="11.0052721"><ele>311.0</ele><time>2026-05-02T17:36:35.71Z</time></trkpt><trkpt lat="44.1941886" lon="11.0053419"><ele>311.33333333333337</ele><time>2026-05-02T17:36:36.714Z</time></trkpt><trkpt lat="44.1943574" lon="11.0054323"><ele>311.6666666666667</ele><time>2026-05-02T17:36:37.709Z</time></trkpt><trkpt lat="44.194514" lon="11.0055404"><ele>312.0</ele><time>2026-05-02T17:36:38.713Z</time></trkpt><trkpt lat="44.1946646" lon="11.0056674"><ele>312.0</ele><time>2026-05-02T17:36:39.713Z</time></trkpt><trkpt lat="44.1948174" lon="11.0058067"><ele>312.0</ele><time>2026-05-02T17:36:40.716Z</time></trkpt><trkpt lat="44.1949642" lon="11.0059485"><ele>312.0</ele><time>2026-05-02T17:36:41.708Z</time></trkpt><trkpt lat="44.1951005" lon="11.0060921"><ele>311.3333333333333</ele><time>2026-05-02T17:36:42.716Z</time></trkpt><trkpt lat="44.1952356" lon="11.0062331"><ele>310.66666666666663</ele><time>2026-05-02T17:36:43.714Z</time></trkpt><trkpt lat="44.1953707" lon="11.0063833"><ele>310.0</ele><time>2026-05-02T17:36:44.71Z</time></trkpt><trkpt lat="44.1955004" lon="11.0065484"><ele>310.66666666666663</ele><time>2026-05-02T17:36:45.709Z</time></trkpt><trkpt lat="44.1956323" lon="11.0067219"><ele>311.3333333333333</ele><time>2026-05-02T17:36:46.708Z</time></trkpt><trkpt lat="44.1957598" lon="11.0069063"><ele>312.0</ele><time>2026-05-02T17:36:47.713Z</time></trkpt><trkpt lat="44.1958793" lon="11.0070937"><ele>312.0</ele><time>2026-05-02T17:36:48.723Z</time></trkpt><trkpt lat="44.1959966" lon="11.0072912"><ele>312.0</ele><time>2026-05-02T17:36:49.711Z</time></trkpt><trkpt lat="44.1961148" lon="11.0074934"><ele>312.0</ele><time>2026-05-02T17:36:50.713Z</time></trkpt><trkpt lat="44.1962303" lon="11.007699"><ele>311.0</ele><time>2026-05-02T17:36:51.714Z</time></trkpt><trkpt lat="44.1963474" lon="11.0079048"><ele>310.0</ele><time>2026-05-02T17:36:52.711Z</time></trkpt><trkpt lat="44.1964663" lon="11.0081142"><ele>309.0</ele><time>2026-05-02T17:36:53.714Z</time></trkpt><trkpt lat="44.196583" lon="11.0083237"><ele>306.0</ele><time>2026-05-02T17:36:54.713Z</time></trkpt><trkpt lat="44.1967027" lon="11.0085307"><ele>303.0</ele><time>2026-05-02T17:36:55.712Z</time></trkpt><trkpt lat="44.1968318" lon="11.0087463"><ele>300.0</ele><time>2026-05-02T17:36:56.723Z</time></trkpt><trkpt lat="44.1969656" lon="11.0089778"><ele>300.6666666666667</ele><time>2026-05-02T17:36:57.71Z</time></trkpt><trkpt lat="44.1971082" lon="11.0092191"><ele>301.33333333333337</ele><time>2026-05-02T17:36:58.71Z</time></trkpt><trkpt lat="44.1972485" lon="11.0094583"><ele>302.0</ele><time>2026-05-02T17:36:59.709Z</time></trkpt><trkpt lat="44.1973869" lon="11.0096965"><ele>302.0</ele><time>2026-05-02T17:37:00.716Z</time></trkpt><trkpt lat="44.197514" lon="11.0099232"><ele>302.0</ele><time>2026-05-02T17:37:01.711Z</time></trkpt><trkpt lat="44.1976402" lon="11.0101464"><ele>302.0</ele><time>2026-05-02T17:37:02.709Z</time></trkpt><trkpt lat="44.1977624" lon="11.0103593"><ele>302.0</ele><time>2026-05-02T17:37:03.715Z</time></trkpt><trkpt lat="44.197881" lon="11.0105728"><ele>302.0</ele><time>2026-05-02T17:37:04.712Z</time></trkpt><trkpt lat="44.1979982" lon="11.0107859"><ele>302.0</ele><time>2026-05-02T17:37:05.711Z</time></trkpt><trkpt lat="44.198129" lon="11.0110106"><ele>302.0</ele><time>2026-05-02T17:37:06.711Z</time></trkpt><trkpt lat="44.198248" lon="11.0112389"><ele>302.0</ele><time>2026-05-02T17:37:07.71Z</time></trkpt><trkpt lat="44.1983665" lon="11.0114665"><ele>302.0</ele><time>2026-05-02T17:37:08.705Z</time></trkpt><trkpt lat="44.1989165" lon="11.0125709"><ele>303.6666666666667</ele><time>2026-05-02T17:37:13.714Z</time></trkpt><trkpt lat="44.1990519" lon="11.0126946"><ele>305.3333333333333</ele><time>2026-05-02T17:37:14.711Z</time></trkpt><trkpt lat="44.1992079" lon="11.0128998"><ele>307.0</ele><time>2026-05-02T17:37:15.714Z</time></trkpt><trkpt lat="44.1993195" lon="11.0130853"><ele>307.0</ele><time>2026-05-02T17:37:16.721Z</time></trkpt><trkpt lat="44.1994381" lon="11.0132784"><ele>307.0</ele><time>2026-05-02T17:37:17.724Z</time></trkpt><trkpt lat="44.1995404" lon="11.0134895"><ele>307.0</ele><time>2026-05-02T17:37:18.707Z</time></trkpt><trkpt lat="44.199651" lon="11.0137103"><ele>307.66666666666663</ele><time>2026-05-02T17:37:19.712Z</time></trkpt><trkpt lat="44.1997581" lon="11.0139301"><ele>308.3333333333333</ele><time>2026-05-02T17:37:20.713Z</time></trkpt><trkpt lat="44.1998702" lon="11.0141522"><ele>309.0</ele><time>2026-05-02T17:37:21.71Z</time></trkpt><trkpt lat="44.1999727" lon="11.0143783"><ele>307.3333333333333</ele><time>2026-05-02T17:37:22.714Z</time></trkpt><trkpt lat="44.200074" lon="11.014616"><ele>305.66666666666663</ele><time>2026-05-02T17:37:23.712Z</time></trkpt><trkpt lat="44.2001763" lon="11.0148657"><ele>304.0</ele><time>2026-05-02T17:37:24.711Z</time></trkpt><trkpt lat="44.2002645" lon="11.0151146"><ele>302.3333333333333</ele><time>2026-05-02T17:37:25.713Z</time></trkpt><trkpt lat="44.2003759" lon="11.015355"><ele>300.6666666666667</ele><time>2026-05-02T17:37:26.714Z</time></trkpt><trkpt lat="44.2004851" lon="11.0155865"><ele>299.0</ele><time>2026-05-02T17:37:27.708Z</time></trkpt><trkpt lat="44.2006045" lon="11.015812"><ele>298.33333333333337</ele><time>2026-05-02T17:37:28.707Z</time></trkpt><trkpt lat="44.2007331" lon="11.0160353"><ele>297.6666666666667</ele><time>2026-05-02T17:37:29.71Z</time></trkpt><trkpt lat="44.2008701" lon="11.0162455"><ele>297.0</ele><time>2026-05-02T17:37:30.726Z</time></trkpt><trkpt lat="44.2010085" lon="11.0164552"><ele>297.0</ele><time>2026-05-02T17:37:31.71Z</time></trkpt><trkpt lat="44.201161" lon="11.0166523"><ele>297.0</ele><time>2026-05-02T17:37:32.719Z</time></trkpt><trkpt lat="44.2013197" lon="11.0168399"><ele>297.0</ele><time>2026-05-02T17:37:33.709Z</time></trkpt><trkpt lat="44.2014826" lon="11.0170173"><ele>295.0</ele><time>2026-05-02T17:37:34.71Z</time></trkpt><trkpt lat="44.201644" lon="11.0171906"><ele>293.0</ele><time>2026-05-02T17:37:35.711Z</time></trkpt><trkpt lat="44.2018228" lon="11.0173493"><ele>291.0</ele><time>2026-05-02T17:37:36.726Z</time></trkpt><trkpt lat="44.2020011" lon="11.0174958"><ele>291.0</ele><time>2026-05-02T17:37:37.708Z</time></trkpt><trkpt lat="44.2021798" lon="11.0176381"><ele>291.0</ele><time>2026-05-02T17:37:38.709Z</time></trkpt><trkpt lat="44.2023675" lon="11.01777"><ele>291.0</ele><time>2026-05-02T17:37:39.716Z</time></trkpt><trkpt lat="44.2025538" lon="11.0179047"><ele>289.3333333333333</ele><time>2026-05-02T17:37:40.707Z</time></trkpt><trkpt lat="44.2027351" lon="11.0180389"><ele>287.66666666666663</ele><time>2026-05-02T17:37:41.71Z</time></trkpt><trkpt lat="44.2029173" lon="11.0181755"><ele>286.0</ele><time>2026-05-02T17:37:42.707Z</time></trkpt><trkpt lat="44.2031096" lon="11.0183112"><ele>286.5</ele><time>2026-05-02T17:37:43.726Z</time></trkpt><trkpt lat="44.2033114" lon="11.0184523"><ele>287.0</ele><time>2026-05-02T17:37:44.711Z</time></trkpt><trkpt lat="44.2035228" lon="11.0186108"><ele>287.0</ele><time>2026-05-02T17:37:45.713Z</time></trkpt><trkpt lat="44.2037364" lon="11.0187642"><ele>287.0</ele><time>2026-05-02T17:37:46.713Z</time></trkpt><trkpt lat="44.2039451" lon="11.0189311"><ele>285.5</ele><time>2026-05-02T17:37:47.714Z</time></trkpt><trkpt lat="44.204153" lon="11.0190895"><ele>284.0</ele><time>2026-05-02T17:37:48.714Z</time></trkpt><trkpt lat="44.2043634" lon="11.0192338"><ele>283.6666666666667</ele><time>2026-05-02T17:37:49.713Z</time></trkpt><trkpt lat="44.2045494" lon="11.0193812"><ele>283.3333333333333</ele><time>2026-05-02T17:37:50.71Z</time></trkpt><trkpt lat="44.2047391" lon="11.0195261"><ele>283.0</ele><time>2026-05-02T17:37:51.712Z</time></trkpt><trkpt lat="44.2049217" lon="11.0196773"><ele>283.3333333333333</ele><time>2026-05-02T17:37:52.709Z</time></trkpt><trkpt lat="44.2051017" lon="11.0198295"><ele>283.6666666666667</ele><time>2026-05-02T17:37:53.703Z</time></trkpt><trkpt lat="44.2052795" lon="11.0199932"><ele>284.0</ele><time>2026-05-02T17:37:54.711Z</time></trkpt><trkpt lat="44.2054539" lon="11.0201675"><ele>284.0</ele><time>2026-05-02T17:37:55.715Z</time></trkpt><trkpt lat="44.2056197" lon="11.0203557"><ele>284.0</ele><time>2026-05-02T17:37:56.723Z</time></trkpt><trkpt lat="44.2057797" lon="11.0205632"><ele>284.0</ele><time>2026-05-02T17:37:57.723Z</time></trkpt><trkpt lat="44.2059329" lon="11.0207787"><ele>283.0</ele><time>2026-05-02T17:37:58.717Z</time></trkpt><trkpt lat="44.206086" lon="11.0209991"><ele>282.0</ele><time>2026-05-02T17:37:59.713Z</time></trkpt><trkpt lat="44.2062207" lon="11.0212445"><ele>281.0</ele><time>2026-05-02T17:38:00.729Z</time></trkpt><trkpt lat="44.2063549" lon="11.0214944"><ele>281.33333333333337</ele><time>2026-05-02T17:38:01.718Z</time></trkpt><trkpt lat="44.2064787" lon="11.02176"><ele>281.6666666666667</ele><time>2026-05-02T17:38:02.709Z</time></trkpt><trkpt lat="44.2065882" lon="11.022027"><ele>282.0</ele><time>2026-05-02T17:38:03.711Z</time></trkpt><trkpt lat="44.2066925" lon="11.0223027"><ele>282.3333333333333</ele><time>2026-05-02T17:38:04.708Z</time></trkpt><trkpt lat="44.2067995" lon="11.0225765"><ele>282.66666666666663</ele><time>2026-05-02T17:38:05.712Z</time></trkpt><trkpt lat="44.2068925" lon="11.0228593"><ele>283.0</ele><time>2026-05-02T17:38:06.706Z</time></trkpt><trkpt lat="44.2070102" lon="11.0231016"><ele>282.0</ele><time>2026-05-02T17:38:07.709Z</time></trkpt><trkpt lat="44.2071077" lon="11.0233663"><ele>281.0</ele><time>2026-05-02T17:38:08.708Z</time></trkpt><trkpt lat="44.2071826" lon="11.0236482"><ele>280.0</ele><time>2026-05-02T17:38:09.713Z</time></trkpt><trkpt lat="44.2072556" lon="11.023962"><ele>279.5</ele><time>2026-05-02T17:38:10.712Z</time></trkpt><trkpt lat="44.2073477" lon="11.0242758"><ele>279.0</ele><time>2026-05-02T17:38:11.709Z</time></trkpt><trkpt lat="44.2074302" lon="11.0245911"><ele>279.0</ele><time>2026-05-02T17:38:12.718Z</time></trkpt><trkpt lat="44.2074813" lon="11.0248918"><ele>279.0</ele><time>2026-05-02T17:38:13.71Z</time></trkpt><trkpt lat="44.207552" lon="11.0251746"><ele>279.0</ele><time>2026-05-02T17:38:14.711Z</time></trkpt><trkpt lat="44.2076144" lon="11.0254353"><ele>278.6666666666667</ele><time>2026-05-02T17:38:15.707Z</time></trkpt><trkpt lat="44.2076795" lon="11.0256799"><ele>278.33333333333337</ele><time>2026-05-02T17:38:16.709Z</time></trkpt><trkpt lat="44.2077632" lon="11.0259074"><ele>278.0</ele><time>2026-05-02T17:38:17.72Z</time></trkpt><trkpt lat="44.2078405" lon="11.0261168"><ele>278.0</ele><time>2026-05-02T17:38:18.713Z</time></trkpt><trkpt lat="44.2079238" lon="11.0263199"><ele>278.0</ele><time>2026-05-02T17:38:19.725Z</time></trkpt><trkpt lat="44.2080141" lon="11.0265204"><ele>278.0</ele><time>2026-05-02T17:38:20.709Z</time></trkpt><trkpt lat="44.2081058" lon="11.0267176"><ele>278.0</ele><time>2026-05-02T17:38:21.71Z</time></trkpt><trkpt lat="44.2082046" lon="11.0269023"><ele>278.0</ele><time>2026-05-02T17:38:22.716Z</time></trkpt><trkpt lat="44.2083135" lon="11.0270828"><ele>278.0</ele><time>2026-05-02T17:38:23.708Z</time></trkpt><trkpt lat="44.2084286" lon="11.0272608"><ele>278.0</ele><time>2026-05-02T17:38:24.71Z</time></trkpt><trkpt lat="44.2085555" lon="11.0274286"><ele>278.0</ele><time>2026-05-02T17:38:25.708Z</time></trkpt><trkpt lat="44.2087121" lon="11.0276119"><ele>278.0</ele><time>2026-05-02T17:38:26.706Z</time></trkpt><trkpt lat="44.208883" lon="11.0278031"><ele>278.5</ele><time>2026-05-02T17:38:27.707Z</time></trkpt><trkpt lat="44.2090678" lon="11.027992"><ele>279.0</ele><time>2026-05-02T17:38:28.71Z</time></trkpt><trkpt lat="44.209273" lon="11.0281684"><ele>281.0</ele><time>2026-05-02T17:38:29.71Z</time></trkpt><trkpt lat="44.2094956" lon="11.0283286"><ele>283.0</ele><time>2026-05-02T17:38:30.714Z</time></trkpt><trkpt lat="44.2097328" lon="11.0284639"><ele>282.0</ele><time>2026-05-02T17:38:31.712Z</time></trkpt><trkpt lat="44.209977" lon="11.0285797"><ele>281.0</ele><time>2026-05-02T17:38:32.709Z</time></trkpt><trkpt lat="44.2102287" lon="11.0286729"><ele>281.0</ele><time>2026-05-02T17:38:33.709Z</time></trkpt><trkpt lat="44.2104821" lon="11.0287415"><ele>281.0</ele><time>2026-05-02T17:38:34.713Z</time></trkpt><trkpt lat="44.2107411" lon="11.0287835"><ele>279.5</ele><time>2026-05-02T17:38:35.707Z</time></trkpt><trkpt lat="44.2110041" lon="11.0288042"><ele>278.0</ele><time>2026-05-02T17:38:36.709Z</time></trkpt><trkpt lat="44.211265" lon="11.0288135"><ele>277.5</ele><time>2026-05-02T17:38:37.708Z</time></trkpt><trkpt lat="44.2115146" lon="11.0288182"><ele>277.0</ele><time>2026-05-02T17:38:38.709Z</time></trkpt><trkpt lat="44.2117637" lon="11.0288231"><ele>277.0</ele><time>2026-05-02T17:38:39.71Z</time></trkpt><trkpt lat="44.2120083" lon="11.0288219"><ele>277.0</ele><time>2026-05-02T17:38:40.71Z</time></trkpt><trkpt lat="44.2122509" lon="11.0287977"><ele>277.0</ele><time>2026-05-02T17:38:41.715Z</time></trkpt><trkpt lat="44.2124807" lon="11.0287561"><ele>277.0</ele><time>2026-05-02T17:38:42.71Z</time></trkpt><trkpt lat="44.2127092" lon="11.0286981"><ele>277.0</ele><time>2026-05-02T17:38:43.708Z</time></trkpt><trkpt lat="44.2129339" lon="11.0286265"><ele>277.0</ele><time>2026-05-02T17:38:44.713Z</time></trkpt><trkpt lat="44.2131619" lon="11.0285569"><ele>278.3333333333333</ele><time>2026-05-02T17:38:45.715Z</time></trkpt><trkpt lat="44.2133809" lon="11.0284946"><ele>279.6666666666667</ele><time>2026-05-02T17:38:46.709Z</time></trkpt><trkpt lat="44.2136026" lon="11.0284357"><ele>281.0</ele><time>2026-05-02T17:38:47.723Z</time></trkpt><trkpt lat="44.2138228" lon="11.0283864"><ele>280.0</ele><time>2026-05-02T17:38:48.712Z</time></trkpt><trkpt lat="44.2140514" lon="11.0283507"><ele>279.0</ele><time>2026-05-02T17:38:49.709Z</time></trkpt><trkpt lat="44.214277" lon="11.0283384"><ele>279.0</ele><time>2026-05-02T17:38:50.709Z</time></trkpt><trkpt lat="44.2145028" lon="11.028343"><ele>279.0</ele><time>2026-05-02T17:38:51.728Z</time></trkpt><trkpt lat="44.2147234" lon="11.0283573"><ele>279.0</ele><time>2026-05-02T17:38:52.709Z</time></trkpt><trkpt lat="44.2149317" lon="11.0283828"><ele>277.6666666666667</ele><time>2026-05-02T17:38:53.711Z</time></trkpt><trkpt lat="44.2151401" lon="11.0284113"><ele>276.33333333333337</ele><time>2026-05-02T17:38:54.717Z</time></trkpt><trkpt lat="44.2153402" lon="11.0284395"><ele>275.0</ele><time>2026-05-02T17:38:55.718Z</time></trkpt><trkpt lat="44.2155427" lon="11.0284803"><ele>275.0</ele><time>2026-05-02T17:38:56.712Z</time></trkpt><trkpt lat="44.215759" lon="11.0285387"><ele>275.0</ele><time>2026-05-02T17:38:57.714Z</time></trkpt><trkpt lat="44.2159835" lon="11.0286172"><ele>275.0</ele><time>2026-05-02T17:38:58.711Z</time></trkpt><trkpt lat="44.216213" lon="11.0287184"><ele>275.0</ele><time>2026-05-02T17:38:59.71Z</time></trkpt><trkpt lat="44.216442" lon="11.0288383"><ele>275.5</ele><time>2026-05-02T17:39:00.712Z</time></trkpt><trkpt lat="44.2166607" lon="11.0289971"><ele>276.0</ele><time>2026-05-02T17:39:01.722Z</time></trkpt><trkpt lat="44.2168788" lon="11.0291504"><ele>276.0</ele><time>2026-05-02T17:39:02.719Z</time></trkpt><trkpt lat="44.2170854" lon="11.0293241"><ele>276.0</ele><time>2026-05-02T17:39:03.711Z</time></trkpt><trkpt lat="44.217298" lon="11.0294975"><ele>273.0</ele><time>2026-05-02T17:39:04.725Z</time></trkpt><trkpt lat="44.2175093" lon="11.0296706"><ele>270.0</ele><time>2026-05-02T17:39:05.713Z</time></trkpt><trkpt lat="44.2177223" lon="11.0298491"><ele>274.0</ele><time>2026-05-02T17:39:06.712Z</time></trkpt><trkpt lat="44.2179229" lon="11.0300289"><ele>278.0</ele><time>2026-05-02T17:39:07.709Z</time></trkpt><trkpt lat="44.2181336" lon="11.0302086"><ele>274.5</ele><time>2026-05-02T17:39:08.709Z</time></trkpt><trkpt lat="44.2183309" lon="11.030386"><ele>271.0</ele><time>2026-05-02T17:39:09.714Z</time></trkpt><trkpt lat="44.2185394" lon="11.0305466"><ele>271.0</ele><time>2026-05-02T17:39:10.711Z</time></trkpt><trkpt lat="44.218753" lon="11.0306901"><ele>271.0</ele><time>2026-05-02T17:39:11.709Z</time></trkpt><trkpt lat="44.2189716" lon="11.0308182"><ele>272.0</ele><time>2026-05-02T17:39:12.712Z</time></trkpt><trkpt lat="44.2191817" lon="11.0309426"><ele>273.0</ele><time>2026-05-02T17:39:13.725Z</time></trkpt><trkpt lat="44.2193855" lon="11.0310509"><ele>274.0</ele><time>2026-05-02T17:39:14.713Z</time></trkpt><trkpt lat="44.2195841" lon="11.0311426"><ele>274.0</ele><time>2026-05-02T17:39:15.708Z</time></trkpt><trkpt lat="44.2197802" lon="11.0312196"><ele>274.0</ele><time>2026-05-02T17:39:16.723Z</time></trkpt><trkpt lat="44.2199831" lon="11.0312815"><ele>274.0</ele><time>2026-05-02T17:39:17.711Z</time></trkpt><trkpt lat="44.2201984" lon="11.0313264"><ele>273.66666666666663</ele><time>2026-05-02T17:39:18.71Z</time></trkpt><trkpt lat="44.2204137" lon="11.031378"><ele>273.3333333333333</ele><time>2026-05-02T17:39:19.715Z</time></trkpt><trkpt lat="44.2206266" lon="11.0314306"><ele>273.0</ele><time>2026-05-02T17:39:20.713Z</time></trkpt><trkpt lat="44.2231116" lon="11.0324402"><ele>269.0</ele><time>2026-05-02T17:39:31.708Z</time></trkpt><trkpt lat="44.2233251" lon="11.0326835"><ele>265.0</ele><time>2026-05-02T17:39:32.713Z</time></trkpt><trkpt lat="44.2234815" lon="11.0329106"><ele>265.0</ele><time>2026-05-02T17:39:33.712Z</time></trkpt><trkpt lat="44.2235198" lon="11.0332419"><ele>265.0</ele><time>2026-05-02T17:39:34.714Z</time></trkpt><trkpt lat="44.2236538" lon="11.0334846"><ele>265.5</ele><time>2026-05-02T17:39:35.708Z</time></trkpt><trkpt lat="44.223726" lon="11.0337748"><ele>266.0</ele><time>2026-05-02T17:39:36.706Z</time></trkpt><trkpt lat="44.2238401" lon="11.0340592"><ele>266.0</ele><time>2026-05-02T17:39:37.711Z</time></trkpt><trkpt lat="44.2239562" lon="11.0343451"><ele>266.0</ele><time>2026-05-02T17:39:38.716Z</time></trkpt><trkpt lat="44.2240572" lon="11.0346356"><ele>263.5</ele><time>2026-05-02T17:39:39.706Z</time></trkpt><trkpt lat="44.224203" lon="11.0348979"><ele>261.0</ele><time>2026-05-02T17:39:40.712Z</time></trkpt><trkpt lat="44.2243501" lon="11.0351495"><ele>261.0</ele><time>2026-05-02T17:39:41.721Z</time></trkpt><trkpt lat="44.2244701" lon="11.0354141"><ele>261.0</ele><time>2026-05-02T17:39:42.712Z</time></trkpt><trkpt lat="44.2245996" lon="11.0356797"><ele>259.0</ele><time>2026-05-02T17:39:43.712Z</time></trkpt><trkpt lat="44.2247512" lon="11.0359185"><ele>257.0</ele><time>2026-05-02T17:39:44.709Z</time></trkpt><trkpt lat="44.2249127" lon="11.0361579"><ele>257.0</ele><time>2026-05-02T17:39:45.711Z</time></trkpt><trkpt lat="44.2250773" lon="11.0363861"><ele>257.0</ele><time>2026-05-02T17:39:46.708Z</time></trkpt><trkpt lat="44.2252485" lon="11.0366171"><ele>258.0</ele><time>2026-05-02T17:39:47.708Z</time></trkpt><trkpt lat="44.225422" lon="11.0368406"><ele>259.0</ele><time>2026-05-02T17:39:48.708Z</time></trkpt><trkpt lat="44.2255877" lon="11.0370713"><ele>259.0</ele><time>2026-05-02T17:39:49.713Z</time></trkpt><trkpt lat="44.2257485" lon="11.0373018"><ele>259.0</ele><time>2026-05-02T17:39:50.712Z</time></trkpt><trkpt lat="44.2259113" lon="11.0375228"><ele>259.0</ele><time>2026-05-02T17:39:51.711Z</time></trkpt><trkpt lat="44.2260591" lon="11.0377268"><ele>259.0</ele><time>2026-05-02T17:39:52.708Z</time></trkpt><trkpt lat="44.2261991" lon="11.0379148"><ele>259.0</ele><time>2026-05-02T17:39:53.711Z</time></trkpt><trkpt lat="44.2263152" lon="11.0380812"><ele>259.0</ele><time>2026-05-02T17:39:54.711Z</time></trkpt><trkpt lat="44.2264189" lon="11.0382258"><ele>259.0</ele><time>2026-05-02T17:39:55.711Z</time></trkpt><trkpt lat="44.2265104" lon="11.0383492"><ele>259.0</ele><time>2026-05-02T17:39:56.707Z</time></trkpt><trkpt lat="44.22657" lon="11.0384328"><ele>259.0</ele><time>2026-05-02T17:39:57.706Z</time></trkpt><trkpt lat="44.2266268" lon="11.0384971"><ele>259.0</ele><time>2026-05-02T17:39:58.711Z</time></trkpt><trkpt lat="44.2266777" lon="11.0385606"><ele>259.0</ele><time>2026-05-02T17:39:59.711Z</time></trkpt><trkpt lat="44.2267303" lon="11.0386093"><ele>259.0</ele><time>2026-05-02T17:40:00.707Z</time></trkpt><trkpt lat="44.2268317" lon="11.0386799"><ele>259.0</ele><time>2026-05-02T17:40:02.713Z</time></trkpt><trkpt lat="44.2269414" lon="11.0387292"><ele>259.0</ele><time>2026-05-02T17:40:04.707Z</time></trkpt><trkpt lat="44.2270104" lon="11.0387432"><ele>259.0</ele><time>2026-05-02T17:40:05.709Z</time></trkpt><trkpt lat="44.2270841" lon="11.0387788"><ele>259.0</ele><time>2026-05-02T17:40:06.713Z</time></trkpt><trkpt lat="44.2271544" lon="11.0388333"><ele>259.0</ele><time>2026-05-02T17:40:07.708Z</time></trkpt><trkpt lat="44.2272338" lon="11.0388837"><ele>259.0</ele><time>2026-05-02T17:40:08.712Z</time></trkpt><trkpt lat="44.2272969" lon="11.0389887"><ele>259.0</ele><time>2026-05-02T17:40:09.711Z</time></trkpt><trkpt lat="44.2273541" lon="11.0390967"><ele>259.0</ele><time>2026-05-02T17:40:10.708Z</time></trkpt><trkpt lat="44.2274022" lon="11.0392269"><ele>259.0</ele><time>2026-05-02T17:40:11.71Z</time></trkpt><trkpt lat="44.2274391" lon="11.0393728"><ele>258.5</ele><time>2026-05-02T17:40:12.706Z</time></trkpt><trkpt lat="44.2274837" lon="11.0395454"><ele>258.0</ele><time>2026-05-02T17:40:13.718Z</time></trkpt><trkpt lat="44.2275252" lon="11.0397429"><ele>257.5</ele><time>2026-05-02T17:40:14.711Z</time></trkpt><trkpt lat="44.2275738" lon="11.0399401"><ele>257.0</ele><time>2026-05-02T17:40:15.709Z</time></trkpt><trkpt lat="44.2276078" lon="11.0401393"><ele>257.0</ele><time>2026-05-02T17:40:16.708Z</time></trkpt><trkpt lat="44.2276291" lon="11.0403532"><ele>257.0</ele><time>2026-05-02T17:40:17.712Z</time></trkpt><trkpt lat="44.2276425" lon="11.0405801"><ele>257.0</ele><time>2026-05-02T17:40:18.709Z</time></trkpt><trkpt lat="44.2276553" lon="11.0407998"><ele>256.6666666666667</ele><time>2026-05-02T17:40:19.716Z</time></trkpt><trkpt lat="44.2276523" lon="11.0410233"><ele>256.3333333333333</ele><time>2026-05-02T17:40:20.713Z</time></trkpt><trkpt lat="44.2276484" lon="11.0412489"><ele>256.0</ele><time>2026-05-02T17:40:21.709Z</time></trkpt><trkpt lat="44.2276393" lon="11.0414764"><ele>257.0</ele><time>2026-05-02T17:40:22.714Z</time></trkpt><trkpt lat="44.2276249" lon="11.0417191"><ele>258.0</ele><time>2026-05-02T17:40:23.708Z</time></trkpt><trkpt lat="44.2276143" lon="11.0419566"><ele>259.0</ele><time>2026-05-02T17:40:24.708Z</time></trkpt><trkpt lat="44.2276044" lon="11.0422042"><ele>259.0</ele><time>2026-05-02T17:40:25.712Z</time></trkpt><trkpt lat="44.2275972" lon="11.0424561"><ele>259.0</ele><time>2026-05-02T17:40:26.707Z</time></trkpt><trkpt lat="44.2275857" lon="11.0427137"><ele>259.0</ele><time>2026-05-02T17:40:27.708Z</time></trkpt><trkpt lat="44.2275823" lon="11.042965"><ele>260.3333333333333</ele><time>2026-05-02T17:40:28.709Z</time></trkpt><trkpt lat="44.2275737" lon="11.04322"><ele>261.6666666666667</ele><time>2026-05-02T17:40:29.715Z</time></trkpt><trkpt lat="44.2275675" lon="11.0434754"><ele>263.0</ele><time>2026-05-02T17:40:30.712Z</time></trkpt><trkpt lat="44.2275522" lon="11.0437261"><ele>263.6666666666667</ele><time>2026-05-02T17:40:31.709Z</time></trkpt><trkpt lat="44.2275423" lon="11.0439847"><ele>264.3333333333333</ele><time>2026-05-02T17:40:32.71Z</time></trkpt><trkpt lat="44.2275302" lon="11.0442528"><ele>265.0</ele><time>2026-05-02T17:40:33.713Z</time></trkpt><trkpt lat="44.2275145" lon="11.0445295"><ele>266.66666666666663</ele><time>2026-05-02T17:40:34.712Z</time></trkpt><trkpt lat="44.2275118" lon="11.0448131"><ele>268.3333333333333</ele><time>2026-05-02T17:40:35.713Z</time></trkpt><trkpt lat="44.227507" lon="11.045108"><ele>270.0</ele><time>2026-05-02T17:40:36.701Z</time></trkpt><trkpt lat="44.2274966" lon="11.0454003"><ele>270.6666666666667</ele><time>2026-05-02T17:40:37.721Z</time></trkpt><trkpt lat="44.2274866" lon="11.0457044"><ele>271.33333333333337</ele><time>2026-05-02T17:40:38.707Z</time></trkpt><trkpt lat="44.2274837" lon="11.0460066"><ele>272.0</ele><time>2026-05-02T17:40:39.712Z</time></trkpt><trkpt lat="44.227482" lon="11.046309"><ele>272.0</ele><time>2026-05-02T17:40:40.712Z</time></trkpt><trkpt lat="44.2274898" lon="11.0466118"><ele>272.0</ele><time>2026-05-02T17:40:41.71Z</time></trkpt><trkpt lat="44.2275194" lon="11.0469151"><ele>272.0</ele><time>2026-05-02T17:40:42.711Z</time></trkpt><trkpt lat="44.227564" lon="11.0472101"><ele>270.0</ele><time>2026-05-02T17:40:43.716Z</time></trkpt><trkpt lat="44.2276189" lon="11.0474948"><ele>268.0</ele><time>2026-05-02T17:40:44.714Z</time></trkpt><trkpt lat="44.2276679" lon="11.0477876"><ele>266.0</ele><time>2026-05-02T17:40:45.708Z</time></trkpt><trkpt lat="44.227755" lon="11.04806"><ele>265.6666666666667</ele><time>2026-05-02T17:40:46.712Z</time></trkpt><trkpt lat="44.2278427" lon="11.0483283"><ele>265.3333333333333</ele><time>2026-05-02T17:40:47.714Z</time></trkpt><trkpt lat="44.227931" lon="11.0485771"><ele>265.0</ele><time>2026-05-02T17:40:48.713Z</time></trkpt><trkpt lat="44.228028" lon="11.0488036"><ele>265.0</ele><time>2026-05-02T17:40:49.709Z</time></trkpt><trkpt lat="44.2281382" lon="11.0490167"><ele>265.0</ele><time>2026-05-02T17:40:50.714Z</time></trkpt><trkpt lat="44.2282509" lon="11.0492231"><ele>265.0</ele><time>2026-05-02T17:40:51.708Z</time></trkpt><trkpt lat="44.2283667" lon="11.0494311"><ele>262.0</ele><time>2026-05-02T17:40:52.712Z</time></trkpt><trkpt lat="44.2284989" lon="11.0496341"><ele>259.0</ele><time>2026-05-02T17:40:53.708Z</time></trkpt><trkpt lat="44.2286425" lon="11.0498202"><ele>256.0</ele><time>2026-05-02T17:40:54.709Z</time></trkpt><trkpt lat="44.2287831" lon="11.049996"><ele>256.0</ele><time>2026-05-02T17:40:55.708Z</time></trkpt><trkpt lat="44.2289259" lon="11.0501586"><ele>256.0</ele><time>2026-05-02T17:40:56.718Z</time></trkpt><trkpt lat="44.2290667" lon="11.0503264"><ele>256.0</ele><time>2026-05-02T17:40:57.711Z</time></trkpt><trkpt lat="44.2292054" lon="11.0504948"><ele>256.66666666666663</ele><time>2026-05-02T17:40:58.707Z</time></trkpt><trkpt lat="44.2293436" lon="11.050659"><ele>257.3333333333333</ele><time>2026-05-02T17:40:59.71Z</time></trkpt><trkpt lat="44.2294836" lon="11.0508151"><ele>258.0</ele><time>2026-05-02T17:41:00.71Z</time></trkpt><trkpt lat="44.2296258" lon="11.0509699"><ele>258.0</ele><time>2026-05-02T17:41:01.718Z</time></trkpt><trkpt lat="44.229758" lon="11.0511257"><ele>258.0</ele><time>2026-05-02T17:41:02.708Z</time></trkpt><trkpt lat="44.2298968" lon="11.051261"><ele>258.0</ele><time>2026-05-02T17:41:03.728Z</time></trkpt><trkpt lat="44.2300364" lon="11.051412"><ele>262.0</ele><time>2026-05-02T17:41:04.714Z</time></trkpt><trkpt lat="44.2380958" lon="11.0698176"><ele>254.0</ele><time>2026-05-02T17:42:45.712Z</time></trkpt><trkpt lat="44.238232" lon="11.0701266"><ele>246.0</ele><time>2026-05-02T17:42:46.714Z</time></trkpt><trkpt lat="44.2383647" lon="11.0704433"><ele>246.0</ele><time>2026-05-02T17:42:47.724Z</time></trkpt><trkpt lat="44.2384989" lon="11.0707525"><ele>246.0</ele><time>2026-05-02T17:42:48.704Z</time></trkpt><trkpt lat="44.2386425" lon="11.0710971"><ele>244.0</ele><time>2026-05-02T17:42:49.71Z</time></trkpt><trkpt lat="44.2387836" lon="11.0714428"><ele>242.0</ele><time>2026-05-02T17:42:50.705Z</time></trkpt><trkpt lat="44.2389107" lon="11.0717871"><ele>239.0</ele><time>2026-05-02T17:42:51.713Z</time></trkpt><trkpt lat="44.2390497" lon="11.0721339"><ele>236.0</ele><time>2026-05-02T17:42:52.71Z</time></trkpt><trkpt lat="44.2392134" lon="11.0724955"><ele>236.0</ele><time>2026-05-02T17:42:53.712Z</time></trkpt><trkpt lat="44.2393487" lon="11.072814"><ele>236.0</ele><time>2026-05-02T17:42:54.71Z</time></trkpt><trkpt lat="44.2394747" lon="11.0731258"><ele>234.0</ele><time>2026-05-02T17:42:55.722Z</time></trkpt><trkpt lat="44.239591" lon="11.0734362"><ele>232.0</ele><time>2026-05-02T17:42:56.703Z</time></trkpt><trkpt lat="44.2396872" lon="11.0737609"><ele>232.0</ele><time>2026-05-02T17:42:57.705Z</time></trkpt><trkpt lat="44.2397473" lon="11.0741009"><ele>232.0</ele><time>2026-05-02T17:42:58.719Z</time></trkpt><trkpt lat="44.2398187" lon="11.0744246"><ele>231.5</ele><time>2026-05-02T17:42:59.719Z</time></trkpt><trkpt lat="44.2398642" lon="11.0747589"><ele>231.0</ele><time>2026-05-02T17:43:00.711Z</time></trkpt><trkpt lat="44.2398933" lon="11.0751009"><ele>231.0</ele><time>2026-05-02T17:43:01.712Z</time></trkpt><trkpt lat="44.2399063" lon="11.0754448"><ele>231.0</ele><time>2026-05-02T17:43:02.71Z</time></trkpt><trkpt lat="44.2399259" lon="11.0757953"><ele>231.5</ele><time>2026-05-02T17:43:03.728Z</time></trkpt><trkpt lat="44.2399401" lon="11.0761431"><ele>232.0</ele><time>2026-05-02T17:43:04.708Z</time></trkpt><trkpt lat="44.2399498" lon="11.0764983"><ele>231.0</ele><time>2026-05-02T17:43:05.713Z</time></trkpt><trkpt lat="44.2399603" lon="11.0768529"><ele>230.0</ele><time>2026-05-02T17:43:06.711Z</time></trkpt><trkpt lat="44.2399743" lon="11.0772093"><ele>229.5</ele><time>2026-05-02T17:43:07.712Z</time></trkpt><trkpt lat="44.2399818" lon="11.07758"><ele>229.0</ele><time>2026-05-02T17:43:08.722Z</time></trkpt><trkpt lat="44.2399886" lon="11.0779493"><ele>229.0</ele><time>2026-05-02T17:43:09.708Z</time></trkpt><trkpt lat="44.2400001" lon="11.0783194"><ele>229.0</ele><time>2026-05-02T17:43:10.709Z</time></trkpt><trkpt lat="44.2400079" lon="11.0786962"><ele>229.0</ele><time>2026-05-02T17:43:11.707Z</time></trkpt><trkpt lat="44.2400229" lon="11.0790805"><ele>229.0</ele><time>2026-05-02T17:43:12.711Z</time></trkpt><trkpt lat="44.2400403" lon="11.0794652"><ele>229.0</ele><time>2026-05-02T17:43:13.706Z</time></trkpt><trkpt lat="44.2400475" lon="11.0798562"><ele>229.0</ele><time>2026-05-02T17:43:14.731Z</time></trkpt><trkpt lat="44.240061" lon="11.0802412"><ele>229.0</ele><time>2026-05-02T17:43:15.709Z</time></trkpt><trkpt lat="44.2400725" lon="11.0806305"><ele>229.0</ele><time>2026-05-02T17:43:16.711Z</time></trkpt><trkpt lat="44.2400815" lon="11.0810245"><ele>228.5</ele><time>2026-05-02T17:43:17.716Z</time></trkpt><trkpt lat="44.2400957" lon="11.0814219"><ele>228.0</ele><time>2026-05-02T17:43:18.706Z</time></trkpt><trkpt lat="44.240104" lon="11.0818252"><ele>228.0</ele><time>2026-05-02T17:43:19.711Z</time></trkpt><trkpt lat="44.2401199" lon="11.0822277"><ele>228.0</ele><time>2026-05-02T17:43:20.71Z</time></trkpt><trkpt lat="44.2401339" lon="11.0826282"><ele>228.0</ele><time>2026-05-02T17:43:21.709Z</time></trkpt><trkpt lat="44.2401383" lon="11.083027"><ele>228.0</ele><time>2026-05-02T17:43:22.723Z</time></trkpt><trkpt lat="44.2401504" lon="11.0834301"><ele>228.5</ele><time>2026-05-02T17:43:23.708Z</time></trkpt><trkpt lat="44.2401733" lon="11.08383"><ele>229.0</ele><time>2026-05-02T17:43:24.709Z</time></trkpt><trkpt lat="44.2401789" lon="11.0842212"><ele>228.0</ele><time>2026-05-02T17:43:25.71Z</time></trkpt><trkpt lat="44.2401888" lon="11.0846118"><ele>227.0</ele><time>2026-05-02T17:43:26.723Z</time></trkpt><trkpt lat="44.240204" lon="11.0849954"><ele>226.5</ele><time>2026-05-02T17:43:27.705Z</time></trkpt><trkpt lat="44.2402201" lon="11.0853695"><ele>226.0</ele><time>2026-05-02T17:43:28.709Z</time></trkpt><trkpt lat="44.2402537" lon="11.0857336"><ele>226.5</ele><time>2026-05-02T17:43:29.712Z</time></trkpt><trkpt lat="44.2403074" lon="11.0860995"><ele>227.0</ele><time>2026-05-02T17:43:30.712Z</time></trkpt><trkpt lat="44.2403798" lon="11.0864622"><ele>227.5</ele><time>2026-05-02T17:43:31.708Z</time></trkpt><trkpt lat="44.2404747" lon="11.0868083"><ele>228.0</ele><time>2026-05-02T17:43:32.71Z</time></trkpt><trkpt lat="44.2405916" lon="11.0871521"><ele>226.5</ele><time>2026-05-02T17:43:33.709Z</time></trkpt><trkpt lat="44.2407001" lon="11.0874856"><ele>225.0</ele><time>2026-05-02T17:43:34.71Z</time></trkpt><trkpt lat="44.2408761" lon="11.0878024"><ele>225.0</ele><time>2026-05-02T17:43:35.714Z</time></trkpt><trkpt lat="44.2410431" lon="11.0881001"><ele>225.0</ele><time>2026-05-02T17:43:36.713Z</time></trkpt><trkpt lat="44.2412313" lon="11.0883833"><ele>225.0</ele><time>2026-05-02T17:43:37.72Z</time></trkpt><trkpt lat="44.2414284" lon="11.0886434"><ele>225.0</ele><time>2026-05-02T17:43:38.714Z</time></trkpt><trkpt lat="44.2416446" lon="11.0888836"><ele>225.0</ele><time>2026-05-02T17:43:39.712Z</time></trkpt><trkpt lat="44.2418741" lon="11.0891022"><ele>225.0</ele><time>2026-05-02T17:43:40.709Z</time></trkpt><trkpt lat="44.2421124" lon="11.0893018"><ele>224.0</ele><time>2026-05-02T17:43:41.703Z</time></trkpt><trkpt lat="44.242356" lon="11.0894856"><ele>223.0</ele><time>2026-05-02T17:43:42.706Z</time></trkpt><trkpt lat="44.2426017" lon="11.0896598"><ele>223.0</ele><time>2026-05-02T17:43:43.708Z</time></trkpt><trkpt lat="44.2428513" lon="11.0898424"><ele>223.0</ele><time>2026-05-02T17:43:44.708Z</time></trkpt><trkpt lat="44.2430944" lon="11.0900242"><ele>223.5</ele><time>2026-05-02T17:43:45.725Z</time></trkpt><trkpt lat="44.2433362" lon="11.0902121"><ele>224.0</ele><time>2026-05-02T17:43:46.713Z</time></trkpt><trkpt lat="44.2435696" lon="11.0904062"><ele>224.0</ele><time>2026-05-02T17:43:47.709Z</time></trkpt><trkpt lat="44.2437858" lon="11.0906284"><ele>224.0</ele><time>2026-05-02T17:43:48.718Z</time></trkpt><trkpt lat="44.2439858" lon="11.0908805"><ele>226.5</ele><time>2026-05-02T17:43:49.71Z</time></trkpt><trkpt lat="44.2441788" lon="11.0911483"><ele>229.0</ele><time>2026-05-02T17:43:50.711Z</time></trkpt><trkpt lat="44.2443721" lon="11.0914208"><ele>232.5</ele><time>2026-05-02T17:43:51.711Z</time></trkpt><trkpt lat="44.2445723" lon="11.0916887"><ele>236.0</ele><time>2026-05-02T17:43:52.708Z</time></trkpt><trkpt lat="44.2447748" lon="11.0919675"><ele>235.0</ele><time>2026-05-02T17:43:53.709Z</time></trkpt><trkpt lat="44.2449757" lon="11.0922457"><ele>234.0</ele><time>2026-05-02T17:43:54.709Z</time></trkpt><trkpt lat="44.2451702" lon="11.0925249"><ele>234.0</ele><time>2026-05-02T17:43:55.708Z</time></trkpt><trkpt lat="44.2453675" lon="11.0928147"><ele>234.0</ele><time>2026-05-02T17:43:56.706Z</time></trkpt><trkpt lat="44.24557" lon="11.0930937"><ele>228.0</ele><time>2026-05-02T17:43:57.708Z</time></trkpt><trkpt lat="44.2457745" lon="11.0933721"><ele>222.0</ele><time>2026-05-02T17:43:58.705Z</time></trkpt><trkpt lat="44.2459754" lon="11.0936584"><ele>222.0</ele><time>2026-05-02T17:43:59.713Z</time></trkpt><trkpt lat="44.2461791" lon="11.0939429"><ele>222.0</ele><time>2026-05-02T17:44:00.707Z</time></trkpt><trkpt lat="44.2463833" lon="11.0942266"><ele>224.5</ele><time>2026-05-02T17:44:01.703Z</time></trkpt><trkpt lat="44.2465757" lon="11.0944998"><ele>227.0</ele><time>2026-05-02T17:44:02.705Z</time></trkpt><trkpt lat="44.2467686" lon="11.0947602"><ele>226.0</ele><time>2026-05-02T17:44:03.712Z</time></trkpt><trkpt lat="44.2469431" lon="11.0950084"><ele>225.0</ele><time>2026-05-02T17:44:04.707Z</time></trkpt><trkpt lat="44.2471143" lon="11.095245"><ele>231.5</ele><time>2026-05-02T17:44:05.705Z</time></trkpt><trkpt lat="44.2472998" lon="11.095459"><ele>238.0</ele><time>2026-05-02T17:44:06.708Z</time></trkpt><trkpt lat="44.247488" lon="11.0956817"><ele>234.0</ele><time>2026-05-02T17:44:07.708Z</time></trkpt><trkpt lat="44.2476796" lon="11.0958955"><ele>230.0</ele><time>2026-05-02T17:44:08.711Z</time></trkpt><trkpt lat="44.2483006" lon="11.0962439"><ele>230.0</ele><time>2026-05-02T17:44:11.711Z</time></trkpt><trkpt lat="44.2485141" lon="11.0963131"><ele>230.0</ele><time>2026-05-02T17:44:12.705Z</time></trkpt><trkpt lat="44.2487183" lon="11.096385"><ele>230.0</ele><time>2026-05-02T17:44:13.71Z</time></trkpt><trkpt lat="44.2489103" lon="11.0964572"><ele>229.33333333333334</ele><time>2026-05-02T17:44:14.707Z</time></trkpt><trkpt lat="44.2490934" lon="11.0965366"><ele>228.66666666666669</ele><time>2026-05-02T17:44:15.712Z</time></trkpt><trkpt lat="44.2492816" lon="11.096618"><ele>228.0</ele><time>2026-05-02T17:44:16.711Z</time></trkpt><trkpt lat="44.2494694" lon="11.0966964"><ele>225.33333333333331</ele><time>2026-05-02T17:44:17.713Z</time></trkpt><trkpt lat="44.2496514" lon="11.0967672"><ele>222.66666666666666</ele><time>2026-05-02T17:44:18.715Z</time></trkpt><trkpt lat="44.249827" lon="11.0968481"><ele>220.0</ele><time>2026-05-02T17:44:19.708Z</time></trkpt><trkpt lat="44.2500011" lon="11.0969199"><ele>219.66666666666666</ele><time>2026-05-02T17:44:20.7Z</time></trkpt><trkpt lat="44.2501651" lon="11.0969992"><ele>219.33333333333331</ele><time>2026-05-02T17:44:21.709Z</time></trkpt><trkpt lat="44.2503196" lon="11.0970801"><ele>219.0</ele><time>2026-05-02T17:44:22.709Z</time></trkpt><trkpt lat="44.2504696" lon="11.0971696"><ele>219.0</ele><time>2026-05-02T17:44:23.712Z</time></trkpt><trkpt lat="44.2506078" lon="11.0972723"><ele>219.0</ele><time>2026-05-02T17:44:24.713Z</time></trkpt><trkpt lat="44.2507462" lon="11.0973749"><ele>219.0</ele><time>2026-05-02T17:44:25.715Z</time></trkpt><trkpt lat="44.2508841" lon="11.0974848"><ele>218.33333333333331</ele><time>2026-05-02T17:44:26.71Z</time></trkpt><trkpt lat="44.2510246" lon="11.097603"><ele>217.66666666666666</ele><time>2026-05-02T17:44:27.71Z</time></trkpt><trkpt lat="44.2511736" lon="11.0977165"><ele>217.0</ele><time>2026-05-02T17:44:28.726Z</time></trkpt><trkpt lat="44.2513272" lon="11.0978407"><ele>217.0</ele><time>2026-05-02T17:44:29.705Z</time></trkpt><trkpt lat="44.2514893" lon="11.0979772"><ele>217.0</ele><time>2026-05-02T17:44:30.714Z</time></trkpt><trkpt lat="44.2516527" lon="11.0981105"><ele>217.0</ele><time>2026-05-02T17:44:31.712Z</time></trkpt><trkpt lat="44.2518173" lon="11.0982446"><ele>217.0</ele><time>2026-05-02T17:44:32.708Z</time></trkpt><trkpt lat="44.2519865" lon="11.098381"><ele>217.0</ele><time>2026-05-02T17:44:33.707Z</time></trkpt><trkpt lat="44.2521597" lon="11.0985325"><ele>217.0</ele><time>2026-05-02T17:44:34.71Z</time></trkpt><trkpt lat="44.2523319" lon="11.0986727"><ele>217.0</ele><time>2026-05-02T17:44:35.711Z</time></trkpt><trkpt lat="44.2525014" lon="11.0988392"><ele>217.0</ele><time>2026-05-02T17:44:36.712Z</time></trkpt><trkpt lat="44.2526701" lon="11.0990235"><ele>217.0</ele><time>2026-05-02T17:44:37.712Z</time></trkpt><trkpt lat="44.2528284" lon="11.0992243"><ele>216.33333333333331</ele><time>2026-05-02T17:44:38.709Z</time></trkpt><trkpt lat="44.2529679" lon="11.0994513"><ele>215.66666666666669</ele><time>2026-05-02T17:44:39.711Z</time></trkpt><trkpt lat="44.2530993" lon="11.0996884"><ele>215.0</ele><time>2026-05-02T17:44:40.709Z</time></trkpt><trkpt lat="44.2532188" lon="11.0999369"><ele>215.0</ele><time>2026-05-02T17:44:41.711Z</time></trkpt><trkpt lat="44.2533409" lon="11.1001932"><ele>215.0</ele><time>2026-05-02T17:44:42.709Z</time></trkpt><trkpt lat="44.2534583" lon="11.1004615"><ele>215.0</ele><time>2026-05-02T17:44:43.709Z</time></trkpt><trkpt lat="44.2535582" lon="11.1007498"><ele>213.5</ele><time>2026-05-02T17:44:44.719Z</time></trkpt><trkpt lat="44.2536615" lon="11.1010253"><ele>212.0</ele><time>2026-05-02T17:44:45.711Z</time></trkpt><trkpt lat="44.2537748" lon="11.10131"><ele>211.0</ele><time>2026-05-02T17:44:46.714Z</time></trkpt><trkpt lat="44.2538921" lon="11.1015991"><ele>210.0</ele><time>2026-05-02T17:44:47.713Z</time></trkpt><trkpt lat="44.254007" lon="11.1018873"><ele>210.66666666666669</ele><time>2026-05-02T17:44:48.712Z</time></trkpt><trkpt lat="44.2541248" lon="11.1021635"><ele>211.33333333333334</ele><time>2026-05-02T17:44:49.709Z</time></trkpt><trkpt lat="44.2542469" lon="11.1024107"><ele>212.0</ele><time>2026-05-02T17:44:50.713Z</time></trkpt><trkpt lat="44.2543904" lon="11.1026403"><ele>212.0</ele><time>2026-05-02T17:44:51.705Z</time></trkpt><trkpt lat="44.2545534" lon="11.1028636"><ele>212.0</ele><time>2026-05-02T17:44:52.709Z</time></trkpt><trkpt lat="44.2547136" lon="11.1030856"><ele>212.0</ele><time>2026-05-02T17:44:53.713Z</time></trkpt><trkpt lat="44.2548851" lon="11.1033151"><ele>212.0</ele><time>2026-05-02T17:44:54.722Z</time></trkpt><trkpt lat="44.2550609" lon="11.1035258"><ele>212.0</ele><time>2026-05-02T17:44:55.71Z</time></trkpt><trkpt lat="44.2552518" lon="11.1037187"><ele>212.0</ele><time>2026-05-02T17:44:56.723Z</time></trkpt><trkpt lat="44.2554503" lon="11.103904"><ele>213.5</ele><time>2026-05-02T17:44:57.712Z</time></trkpt><trkpt lat="44.2556654" lon="11.1040549"><ele>215.0</ele><time>2026-05-02T17:44:58.708Z</time></trkpt><trkpt lat="44.2558905" lon="11.104181"><ele>212.0</ele><time>2026-05-02T17:44:59.712Z</time></trkpt><trkpt lat="44.256123" lon="11.1042915"><ele>209.0</ele><time>2026-05-02T17:45:00.712Z</time></trkpt><trkpt lat="44.2563598" lon="11.1043931"><ele>210.0</ele><time>2026-05-02T17:45:01.708Z</time></trkpt><trkpt lat="44.2565992" lon="11.1044983"><ele>211.0</ele><time>2026-05-02T17:45:02.712Z</time></trkpt><trkpt lat="44.2568401" lon="11.1046017"><ele>211.0</ele><time>2026-05-02T17:45:03.713Z</time></trkpt><trkpt lat="44.2570813" lon="11.1047055"><ele>211.0</ele><time>2026-05-02T17:45:04.711Z</time></trkpt><trkpt lat="44.2573236" lon="11.1048066"><ele>210.0</ele><time>2026-05-02T17:45:05.706Z</time></trkpt><trkpt lat="44.2575616" lon="11.1049251"><ele>209.0</ele><time>2026-05-02T17:45:06.717Z</time></trkpt><trkpt lat="44.2577988" lon="11.105029"><ele>209.0</ele><time>2026-05-02T17:45:07.712Z</time></trkpt><trkpt lat="44.2580474" lon="11.1051321"><ele>209.0</ele><time>2026-05-02T17:45:08.71Z</time></trkpt><trkpt lat="44.2582963" lon="11.1052436"><ele>210.5</ele><time>2026-05-02T17:45:09.71Z</time></trkpt><trkpt lat="44.2585403" lon="11.1053471"><ele>212.0</ele><time>2026-05-02T17:45:10.71Z</time></trkpt><trkpt lat="44.2587865" lon="11.1054618"><ele>211.0</ele><time>2026-05-02T17:45:11.712Z</time></trkpt><trkpt lat="44.2590286" lon="11.1055842"><ele>210.0</ele><time>2026-05-02T17:45:12.709Z</time></trkpt><trkpt lat="44.2592538" lon="11.1057301"><ele>208.5</ele><time>2026-05-02T17:45:13.709Z</time></trkpt><trkpt lat="44.2594882" lon="11.1058809"><ele>207.0</ele><time>2026-05-02T17:45:14.712Z</time></trkpt><trkpt lat="44.2597195" lon="11.1060343"><ele>206.5</ele><time>2026-05-02T17:45:15.715Z</time></trkpt><trkpt lat="44.2599554" lon="11.1061972"><ele>206.0</ele><time>2026-05-02T17:45:16.708Z</time></trkpt><trkpt lat="44.260195" lon="11.1063557"><ele>206.0</ele><time>2026-05-02T17:45:17.71Z</time></trkpt><trkpt lat="44.2604298" lon="11.106513"><ele>206.0</ele><time>2026-05-02T17:45:18.711Z</time></trkpt><trkpt lat="44.2606596" lon="11.1066642"><ele>206.0</ele><time>2026-05-02T17:45:19.722Z</time></trkpt><trkpt lat="44.260894" lon="11.1068148"><ele>206.0</ele><time>2026-05-02T17:45:20.712Z</time></trkpt><trkpt lat="44.2611262" lon="11.1069731"><ele>206.0</ele><time>2026-05-02T17:45:21.708Z</time></trkpt><trkpt lat="44.2613596" lon="11.1071308"><ele>206.0</ele><time>2026-05-02T17:45:22.71Z</time></trkpt><trkpt lat="44.2615873" lon="11.1072898"><ele>205.0</ele><time>2026-05-02T17:45:23.708Z</time></trkpt><trkpt lat="44.2618284" lon="11.1074495"><ele>204.0</ele><time>2026-05-02T17:45:24.706Z</time></trkpt><trkpt lat="44.2620715" lon="11.1076112"><ele>206.5</ele><time>2026-05-02T17:45:25.709Z</time></trkpt><trkpt lat="44.2623138" lon="11.1077709"><ele>209.0</ele><time>2026-05-02T17:45:26.712Z</time></trkpt><trkpt lat="44.2625522" lon="11.1079329"><ele>209.0</ele><time>2026-05-02T17:45:27.707Z</time></trkpt><trkpt lat="44.2627928" lon="11.1080953"><ele>209.0</ele><time>2026-05-02T17:45:28.712Z</time></trkpt><trkpt lat="44.2630318" lon="11.1082462"><ele>206.5</ele><time>2026-05-02T17:45:29.713Z</time></trkpt><trkpt lat="44.2632698" lon="11.1084017"><ele>204.0</ele><time>2026-05-02T17:45:30.719Z</time></trkpt><trkpt lat="44.263512" lon="11.1085638"><ele>204.0</ele><time>2026-05-02T17:45:31.708Z</time></trkpt><trkpt lat="44.2637527" lon="11.1087266"><ele>204.0</ele><time>2026-05-02T17:45:32.713Z</time></trkpt><trkpt lat="44.2639945" lon="11.1088925"><ele>203.0</ele><time>2026-05-02T17:45:33.706Z</time></trkpt><trkpt lat="44.2642382" lon="11.1090559"><ele>202.0</ele><time>2026-05-02T17:45:34.709Z</time></trkpt><trkpt lat="44.2644842" lon="11.1092244"><ele>202.0</ele><time>2026-05-02T17:45:35.711Z</time></trkpt><trkpt lat="44.2647247" lon="11.1093776"><ele>202.0</ele><time>2026-05-02T17:45:36.709Z</time></trkpt><trkpt lat="44.2649727" lon="11.1095392"><ele>203.0</ele><time>2026-05-02T17:45:37.706Z</time></trkpt><trkpt lat="44.2652216" lon="11.1097016"><ele>204.0</ele><time>2026-05-02T17:45:38.707Z</time></trkpt><trkpt lat="44.2654752" lon="11.1098658"><ele>204.0</ele><time>2026-05-02T17:45:39.712Z</time></trkpt><trkpt lat="44.2657204" lon="11.1100139"><ele>204.0</ele><time>2026-05-02T17:45:40.705Z</time></trkpt><trkpt lat="44.2659678" lon="11.1101664"><ele>204.0</ele><time>2026-05-02T17:45:41.709Z</time></trkpt><trkpt lat="44.2662199" lon="11.110306"><ele>204.0</ele><time>2026-05-02T17:45:42.713Z</time></trkpt><trkpt lat="44.2664741" lon="11.1104266"><ele>206.0</ele><time>2026-05-02T17:45:43.71Z</time></trkpt><trkpt lat="44.2667313" lon="11.1105362"><ele>208.0</ele><time>2026-05-02T17:45:44.71Z</time></trkpt><trkpt lat="44.266987" lon="11.1106275"><ele>208.0</ele><time>2026-05-02T17:45:45.712Z</time></trkpt><trkpt lat="44.2672477" lon="11.1107038"><ele>208.0</ele><time>2026-05-02T17:45:46.707Z</time></trkpt><trkpt lat="44.2675062" lon="11.1107716"><ele>205.5</ele><time>2026-05-02T17:45:47.712Z</time></trkpt><trkpt lat="44.2677716" lon="11.1108357"><ele>203.0</ele><time>2026-05-02T17:45:48.709Z</time></trkpt><trkpt lat="44.2680343" lon="11.1108918"><ele>201.5</ele><time>2026-05-02T17:45:49.711Z</time></trkpt><trkpt lat="44.2683027" lon="11.1109502"><ele>200.0</ele><time>2026-05-02T17:45:50.706Z</time></trkpt><trkpt lat="44.2685657" lon="11.1110165"><ele>200.0</ele><time>2026-05-02T17:45:51.708Z</time></trkpt><trkpt lat="44.2688348" lon="11.111074"><ele>200.0</ele><time>2026-05-02T17:45:52.706Z</time></trkpt><trkpt lat="44.2691066" lon="11.1111304"><ele>198.5</ele><time>2026-05-02T17:45:53.707Z</time></trkpt><trkpt lat="44.2693753" lon="11.1112022"><ele>197.0</ele><time>2026-05-02T17:45:54.712Z</time></trkpt><trkpt lat="44.2696484" lon="11.111262"><ele>197.0</ele><time>2026-05-02T17:45:55.713Z</time></trkpt><trkpt lat="44.2699201" lon="11.1113228"><ele>197.0</ele><time>2026-05-02T17:45:56.709Z</time></trkpt><trkpt lat="44.2701923" lon="11.1113841"><ele>197.0</ele><time>2026-05-02T17:45:57.713Z</time></trkpt><trkpt lat="44.2704631" lon="11.1114439"><ele>197.0</ele><time>2026-05-02T17:45:58.708Z</time></trkpt><trkpt lat="44.2707419" lon="11.1115025"><ele>196.5</ele><time>2026-05-02T17:45:59.709Z</time></trkpt><trkpt lat="44.2710123" lon="11.1115573"><ele>196.0</ele><time>2026-05-02T17:46:00.709Z</time></trkpt><trkpt lat="44.2712643" lon="11.1116144"><ele>196.0</ele><time>2026-05-02T17:46:01.71Z</time></trkpt><trkpt lat="44.2715049" lon="11.1116515"><ele>196.0</ele><time>2026-05-02T17:46:02.701Z</time></trkpt><trkpt lat="44.2717332" lon="11.1117006"><ele>196.0</ele><time>2026-05-02T17:46:03.707Z</time></trkpt><trkpt lat="44.2719547" lon="11.1117422"><ele>196.0</ele><time>2026-05-02T17:46:04.706Z</time></trkpt><trkpt lat="44.2721667" lon="11.1117866"><ele>196.0</ele><time>2026-05-02T17:46:05.708Z</time></trkpt><trkpt lat="44.2723657" lon="11.1118292"><ele>196.0</ele><time>2026-05-02T17:46:06.709Z</time></trkpt><trkpt lat="44.2725527" lon="11.1118698"><ele>196.0</ele><time>2026-05-02T17:46:07.709Z</time></trkpt><trkpt lat="44.2727347" lon="11.111909"><ele>196.0</ele><time>2026-05-02T17:46:08.713Z</time></trkpt><trkpt lat="44.272906" lon="11.1119396"><ele>196.0</ele><time>2026-05-02T17:46:09.725Z</time></trkpt><trkpt lat="44.2730726" lon="11.1119784"><ele>196.0</ele><time>2026-05-02T17:46:10.705Z</time></trkpt><trkpt lat="44.2732324" lon="11.1120086"><ele>196.0</ele><time>2026-05-02T17:46:11.71Z</time></trkpt><trkpt lat="44.2733827" lon="11.1120404"><ele>195.66666666666666</ele><time>2026-05-02T17:46:12.709Z</time></trkpt><trkpt lat="44.2735331" lon="11.1120761"><ele>195.33333333333331</ele><time>2026-05-02T17:46:13.711Z</time></trkpt><trkpt lat="44.2736888" lon="11.1121075"><ele>195.0</ele><time>2026-05-02T17:46:14.72Z</time></trkpt><trkpt lat="44.2738506" lon="11.1121388"><ele>194.66666666666669</ele><time>2026-05-02T17:46:15.709Z</time></trkpt><trkpt lat="44.2740152" lon="11.112164"><ele>194.33333333333334</ele><time>2026-05-02T17:46:16.713Z</time></trkpt><trkpt lat="44.2741786" lon="11.1121859"><ele>194.0</ele><time>2026-05-02T17:46:17.71Z</time></trkpt><trkpt lat="44.2743449" lon="11.1121967"><ele>194.0</ele><time>2026-05-02T17:46:18.71Z</time></trkpt><trkpt lat="44.2744988" lon="11.112213"><ele>194.0</ele><time>2026-05-02T17:46:19.715Z</time></trkpt><trkpt lat="44.2746538" lon="11.112215"><ele>194.0</ele><time>2026-05-02T17:46:20.709Z</time></trkpt><trkpt lat="44.2748089" lon="11.1122095"><ele>194.33333333333334</ele><time>2026-05-02T17:46:21.71Z</time></trkpt><trkpt lat="44.2749623" lon="11.1122011"><ele>194.66666666666669</ele><time>2026-05-02T17:46:22.714Z</time></trkpt><trkpt lat="44.2751269" lon="11.1121775"><ele>195.0</ele><time>2026-05-02T17:46:23.711Z</time></trkpt><trkpt lat="44.2752874" lon="11.1121495"><ele>195.0</ele><time>2026-05-02T17:46:24.711Z</time></trkpt><trkpt lat="44.2754494" lon="11.1121173"><ele>195.0</ele><time>2026-05-02T17:46:25.708Z</time></trkpt><trkpt lat="44.275611" lon="11.1120831"><ele>195.0</ele><time>2026-05-02T17:46:26.715Z</time></trkpt><trkpt lat="44.2757747" lon="11.1120376"><ele>194.66666666666669</ele><time>2026-05-02T17:46:27.705Z</time></trkpt><trkpt lat="44.2759235" lon="11.1119869"><ele>194.33333333333334</ele><time>2026-05-02T17:46:28.708Z</time></trkpt><trkpt lat="44.2760784" lon="11.1119224"><ele>194.0</ele><time>2026-05-02T17:46:29.709Z</time></trkpt><trkpt lat="44.2762356" lon="11.1118473"><ele>194.0</ele><time>2026-05-02T17:46:30.717Z</time></trkpt><trkpt lat="44.2763927" lon="11.1117651"><ele>194.0</ele><time>2026-05-02T17:46:31.708Z</time></trkpt><trkpt lat="44.2765511" lon="11.111679"><ele>194.0</ele><time>2026-05-02T17:46:32.709Z</time></trkpt><trkpt lat="44.27671" lon="11.1115875"><ele>194.0</ele><time>2026-05-02T17:46:33.715Z</time></trkpt><trkpt lat="44.2768664" lon="11.1114913"><ele>194.0</ele><time>2026-05-02T17:46:34.708Z</time></trkpt><trkpt lat="44.2770178" lon="11.111406"><ele>194.0</ele><time>2026-05-02T17:46:35.713Z</time></trkpt><trkpt lat="44.2771757" lon="11.1113191"><ele>193.66666666666669</ele><time>2026-05-02T17:46:36.713Z</time></trkpt><trkpt lat="44.2773298" lon="11.1112332"><ele>193.33333333333331</ele><time>2026-05-02T17:46:37.71Z</time></trkpt><trkpt lat="44.277477" lon="11.1111417"><ele>193.0</ele><time>2026-05-02T17:46:38.71Z</time></trkpt><trkpt lat="44.2776243" lon="11.1110579"><ele>193.0</ele><time>2026-05-02T17:46:39.716Z</time></trkpt><trkpt lat="44.2777715" lon="11.1109764"><ele>193.0</ele><time>2026-05-02T17:46:40.709Z</time></trkpt><trkpt lat="44.2779168" lon="11.1108927"><ele>193.0</ele><time>2026-05-02T17:46:41.708Z</time></trkpt><trkpt lat="44.2780575" lon="11.1108167"><ele>195.33333333333331</ele><time>2026-05-02T17:46:42.71Z</time></trkpt><trkpt lat="44.2782" lon="11.1107405"><ele>197.66666666666669</ele><time>2026-05-02T17:46:43.708Z</time></trkpt><trkpt lat="44.2783414" lon="11.1106736"><ele>200.0</ele><time>2026-05-02T17:46:44.718Z</time></trkpt><trkpt lat="44.2784792" lon="11.1105992"><ele>200.0</ele><time>2026-05-02T17:46:45.708Z</time></trkpt><trkpt lat="44.2786219" lon="11.1105414"><ele>200.0</ele><time>2026-05-02T17:46:46.708Z</time></trkpt><trkpt lat="44.2787595" lon="11.1104933"><ele>200.0</ele><time>2026-05-02T17:46:47.708Z</time></trkpt><trkpt lat="44.2788998" lon="11.1104258"><ele>200.0</ele><time>2026-05-02T17:46:48.711Z</time></trkpt><trkpt lat="44.279042" lon="11.1103817"><ele>200.5</ele><time>2026-05-02T17:46:49.708Z</time></trkpt><trkpt lat="44.2791816" lon="11.1103501"><ele>201.0</ele><time>2026-05-02T17:46:50.714Z</time></trkpt><trkpt lat="44.2793207" lon="11.110313"><ele>201.5</ele><time>2026-05-02T17:46:51.713Z</time></trkpt><trkpt lat="44.2794643" lon="11.1102854"><ele>202.0</ele><time>2026-05-02T17:46:52.716Z</time></trkpt><trkpt lat="44.279589" lon="11.1102685"><ele>202.0</ele><time>2026-05-02T17:46:53.711Z</time></trkpt><trkpt lat="44.279703" lon="11.1102512"><ele>202.0</ele><time>2026-05-02T17:46:54.707Z</time></trkpt><trkpt lat="44.2798141" lon="11.1102387"><ele>202.0</ele><time>2026-05-02T17:46:55.709Z</time></trkpt><trkpt lat="44.2799037" lon="11.1102268"><ele>202.0</ele><time>2026-05-02T17:46:56.711Z</time></trkpt><trkpt lat="44.2799798" lon="11.1102217"><ele>202.0</ele><time>2026-05-02T17:46:57.713Z</time></trkpt><trkpt lat="44.280075" lon="11.1102172"><ele>203.0</ele><time>2026-05-02T17:46:59.715Z</time></trkpt><trkpt lat="44.2801504" lon="11.1101972"><ele>204.0</ele><time>2026-05-02T17:47:14.707Z</time></trkpt><trkpt lat="44.28022" lon="11.1101497"><ele>205.0</ele><time>2026-05-02T17:47:17.718Z</time></trkpt><trkpt lat="44.2803182" lon="11.1102276"><ele>206.0</ele><time>2026-05-02T17:47:18.707Z</time></trkpt><trkpt lat="44.2804212" lon="11.1102358"><ele>207.0</ele><time>2026-05-02T17:47:20.713Z</time></trkpt><trkpt lat="44.2805111" lon="11.1102639"><ele>207.33333333333334</ele><time>2026-05-02T17:47:22.709Z</time></trkpt><trkpt lat="44.2806145" lon="11.110396"><ele>207.66666666666669</ele><time>2026-05-02T17:47:24.723Z</time></trkpt><trkpt lat="44.2806707" lon="11.1104761"><ele>208.0</ele><time>2026-05-02T17:47:25.711Z</time></trkpt><trkpt lat="44.2807271" lon="11.1105487"><ele>208.33333333333334</ele><time>2026-05-02T17:47:26.718Z</time></trkpt><trkpt lat="44.2807837" lon="11.1106196"><ele>208.66666666666669</ele><time>2026-05-02T17:47:27.714Z</time></trkpt><trkpt lat="44.2808342" lon="11.1106881"><ele>209.0</ele><time>2026-05-02T17:47:28.708Z</time></trkpt><trkpt lat="44.280892" lon="11.1107455"><ele>207.2</ele><time>2026-05-02T17:47:29.705Z</time></trkpt><trkpt lat="44.2809763" lon="11.1108504"><ele>205.39999999999998</ele><time>2026-05-02T17:47:31.709Z</time></trkpt><trkpt lat="44.2810671" lon="11.1109534"><ele>203.6</ele><time>2026-05-02T17:47:33.71Z</time></trkpt><trkpt lat="44.2811486" lon="11.1110356"><ele>201.8</ele><time>2026-05-02T17:47:35.707Z</time></trkpt><trkpt lat="44.2812441" lon="11.1111155"><ele>200.0</ele><time>2026-05-02T17:47:37.705Z</time></trkpt><trkpt lat="44.2813387" lon="11.1111871"><ele>200.0</ele><time>2026-05-02T17:47:39.711Z</time></trkpt><trkpt lat="44.2814306" lon="11.1112879"><ele>200.0</ele><time>2026-05-02T17:47:41.709Z</time></trkpt><trkpt lat="44.2814924" lon="11.1114145"><ele>200.0</ele><time>2026-05-02T17:47:43.715Z</time></trkpt><trkpt lat="44.2815042" lon="11.1115593"><ele>200.0</ele><time>2026-05-02T17:47:45.71Z</time></trkpt><trkpt lat="44.2814935" lon="11.1116974"><ele>200.0</ele><time>2026-05-02T17:47:47.709Z</time></trkpt><trkpt lat="44.2814596" lon="11.1117902"><ele>194.0</ele><time>2026-05-02T17:47:49.709Z</time></trkpt><trkpt lat="44.2813711" lon="11.1117904"><ele>197.0</ele><time>2026-05-02T17:47:52.706Z</time></trkpt><trkpt lat="44.2813139" lon="11.1117362"><ele>197.0</ele><time>2026-05-02T17:47:54.706Z</time></trkpt><trkpt lat="44.281244" lon="11.1116466"><ele>197.0</ele><time>2026-05-02T17:47:57.708Z</time></trkpt><trkpt lat="44.281182" lon="11.1116134"><ele>197.0</ele><time>2026-05-02T17:47:59.706Z</time></trkpt><trkpt lat="44.2811413" lon="11.1115423"><ele>200.0</ele><time>2026-05-02T17:48:22.709Z</time></trkpt><trkpt lat="44.2811882" lon="11.1114819"><ele>200.0</ele><time>2026-05-02T17:48:26.701Z</time></trkpt></trkseg></trk></gpx>